<?xml version="1.0" encoding="UTF-8" standalone="no" ?>
<gpx xmlns="http://www.topografix.com/GPX/1/1" xmlns:xsi="http://www.w3.org/2001/XMLSchema-instance" xsi:schemaLocation="http://www.topografix.com/GPX/1/1 http://www.topografix.com/GPX/1/1/gpx.xsd" version="1.1" creator="VisuGPX - https://www.visugpx.com">
  <metadata>
    <name>Matin 49km - 590 D+</name>
  </metadata>
  <trk>
    <name><![CDATA[Matin 49km - 590 D+]]></name>
    <extensions>
      <line xmlns="http://www.topografix.com/GPX/gpx_style/0/2">
        <color>0000FF</color>
        <width>4</width>
      </line>
    </extensions>
    <trkseg>
      <trkpt lat="46.65528" lon="0.08821">
        <ele>125.2</ele>
        <time>2022-03-20T14:47:43Z</time>
      </trkpt>
      <trkpt lat="46.65525" lon="0.08801">
        <ele>125.4</ele>
        <time>2022-03-20T14:47:48Z</time>
      </trkpt>
      <trkpt lat="46.65525" lon="0.08796">
        <ele>125.4</ele>
        <time>2022-03-20T14:47:49Z</time>
      </trkpt>
      <trkpt lat="46.65526" lon="0.08793">
        <ele>125.4</ele>
        <time>2022-03-20T14:47:50Z</time>
      </trkpt>
      <trkpt lat="46.65525" lon="0.08789">
        <ele>125.6</ele>
        <time>2022-03-20T14:47:51Z</time>
      </trkpt>
      <trkpt lat="46.65525" lon="0.08785">
        <ele>125.8</ele>
        <time>2022-03-20T14:47:52Z</time>
      </trkpt>
      <trkpt lat="46.65526" lon="0.08782">
        <ele>125.8</ele>
        <time>2022-03-20T14:47:53Z</time>
      </trkpt>
      <trkpt lat="46.65526" lon="0.08766">
        <ele>126.8</ele>
        <time>2022-03-20T14:47:56Z</time>
      </trkpt>
      <trkpt lat="46.65526" lon="0.08761">
        <ele>127</ele>
        <time>2022-03-20T14:47:57Z</time>
      </trkpt>
      <trkpt lat="46.65525" lon="0.08755">
        <ele>127</ele>
        <time>2022-03-20T14:47:58Z</time>
      </trkpt>
      <trkpt lat="46.65524" lon="0.0875">
        <ele>127.2</ele>
        <time>2022-03-20T14:47:59Z</time>
      </trkpt>
      <trkpt lat="46.65522" lon="0.08731">
        <ele>127.2</ele>
        <time>2022-03-20T14:48:02Z</time>
      </trkpt>
      <trkpt lat="46.6552" lon="0.08723">
        <ele>127.2</ele>
        <time>2022-03-20T14:48:03Z</time>
      </trkpt>
      <trkpt lat="46.65519" lon="0.08716">
        <ele>127.2</ele>
        <time>2022-03-20T14:48:04Z</time>
      </trkpt>
      <trkpt lat="46.65518" lon="0.08709">
        <ele>127.2</ele>
        <time>2022-03-20T14:48:05Z</time>
      </trkpt>
      <trkpt lat="46.6552" lon="0.08703">
        <ele>127.2</ele>
        <time>2022-03-20T14:48:06Z</time>
      </trkpt>
      <trkpt lat="46.65521" lon="0.08698">
        <ele>127.2</ele>
        <time>2022-03-20T14:48:07Z</time>
      </trkpt>
      <trkpt lat="46.65523" lon="0.08693">
        <ele>127.2</ele>
        <time>2022-03-20T14:48:08Z</time>
      </trkpt>
      <trkpt lat="46.65524" lon="0.08686">
        <ele>127.2</ele>
        <time>2022-03-20T14:48:09Z</time>
      </trkpt>
      <trkpt lat="46.6553" lon="0.08657">
        <ele>127.4</ele>
        <time>2022-03-20T14:48:14Z</time>
      </trkpt>
      <trkpt lat="46.6553" lon="0.08655">
        <ele>127.4</ele>
        <time>2022-03-20T14:48:15Z</time>
      </trkpt>
      <trkpt lat="46.65532" lon="0.0865">
        <ele>127.4</ele>
        <time>2022-03-20T14:48:16Z</time>
      </trkpt>
      <trkpt lat="46.65534" lon="0.08645">
        <ele>127.6</ele>
        <time>2022-03-20T14:48:17Z</time>
      </trkpt>
      <trkpt lat="46.65543" lon="0.08626">
        <ele>127.6</ele>
        <time>2022-03-20T14:48:21Z</time>
      </trkpt>
      <trkpt lat="46.65546" lon="0.08618">
        <ele>127.6</ele>
        <time>2022-03-20T14:48:23Z</time>
      </trkpt>
      <trkpt lat="46.65548" lon="0.08614">
        <ele>127.6</ele>
        <time>2022-03-20T14:48:24Z</time>
      </trkpt>
      <trkpt lat="46.65548" lon="0.08611">
        <ele>127.4</ele>
        <time>2022-03-20T14:48:25Z</time>
      </trkpt>
      <trkpt lat="46.65548" lon="0.08607">
        <ele>127.4</ele>
        <time>2022-03-20T14:48:26Z</time>
      </trkpt>
      <trkpt lat="46.65548" lon="0.08604">
        <ele>127.4</ele>
        <time>2022-03-20T14:48:27Z</time>
      </trkpt>
      <trkpt lat="46.65548" lon="0.086">
        <ele>127.4</ele>
        <time>2022-03-20T14:48:28Z</time>
      </trkpt>
      <trkpt lat="46.65547" lon="0.08596">
        <ele>127.2</ele>
        <time>2022-03-20T14:48:29Z</time>
      </trkpt>
      <trkpt lat="46.65545" lon="0.08592">
        <ele>127.2</ele>
        <time>2022-03-20T14:48:30Z</time>
      </trkpt>
      <trkpt lat="46.65544" lon="0.08588">
        <ele>127.2</ele>
        <time>2022-03-20T14:48:31Z</time>
      </trkpt>
      <trkpt lat="46.65541" lon="0.08574">
        <ele>126.8</ele>
        <time>2022-03-20T14:48:34Z</time>
      </trkpt>
      <trkpt lat="46.65542" lon="0.0857">
        <ele>126.4</ele>
        <time>2022-03-20T14:48:35Z</time>
      </trkpt>
      <trkpt lat="46.65543" lon="0.08565">
        <ele>126</ele>
        <time>2022-03-20T14:48:36Z</time>
      </trkpt>
      <trkpt lat="46.65544" lon="0.08561">
        <ele>126</ele>
        <time>2022-03-20T14:48:37Z</time>
      </trkpt>
      <trkpt lat="46.65546" lon="0.08556">
        <ele>125.6</ele>
        <time>2022-03-20T14:48:38Z</time>
      </trkpt>
      <trkpt lat="46.65548" lon="0.08552">
        <ele>125.4</ele>
        <time>2022-03-20T14:48:39Z</time>
      </trkpt>
      <trkpt lat="46.65555" lon="0.08535">
        <ele>124.8</ele>
        <time>2022-03-20T14:48:42Z</time>
      </trkpt>
      <trkpt lat="46.65557" lon="0.08531">
        <ele>124.6</ele>
        <time>2022-03-20T14:48:43Z</time>
      </trkpt>
      <trkpt lat="46.65559" lon="0.08527">
        <ele>124.4</ele>
        <time>2022-03-20T14:48:44Z</time>
      </trkpt>
      <trkpt lat="46.65561" lon="0.08524">
        <ele>124.2</ele>
        <time>2022-03-20T14:48:45Z</time>
      </trkpt>
      <trkpt lat="46.65563" lon="0.0852">
        <ele>124</ele>
        <time>2022-03-20T14:48:46Z</time>
      </trkpt>
      <trkpt lat="46.65567" lon="0.08514">
        <ele>123.6</ele>
        <time>2022-03-20T14:48:48Z</time>
      </trkpt>
      <trkpt lat="46.6557" lon="0.08511">
        <ele>123.6</ele>
        <time>2022-03-20T14:48:49Z</time>
      </trkpt>
      <trkpt lat="46.65572" lon="0.08509">
        <ele>123.6</ele>
        <time>2022-03-20T14:48:50Z</time>
      </trkpt>
      <trkpt lat="46.65575" lon="0.08507">
        <ele>123.6</ele>
        <time>2022-03-20T14:48:51Z</time>
      </trkpt>
      <trkpt lat="46.65578" lon="0.08505">
        <ele>123.4</ele>
        <time>2022-03-20T14:48:52Z</time>
      </trkpt>
      <trkpt lat="46.65584" lon="0.08501">
        <ele>123.4</ele>
        <time>2022-03-20T14:48:54Z</time>
      </trkpt>
      <trkpt lat="46.65614" lon="0.0849">
        <ele>123.2</ele>
        <time>2022-03-20T14:49:02Z</time>
      </trkpt>
      <trkpt lat="46.65646" lon="0.08473">
        <ele>124</ele>
        <time>2022-03-20T14:49:10Z</time>
      </trkpt>
      <trkpt lat="46.65666" lon="0.08463">
        <ele>124</ele>
        <time>2022-03-20T14:49:15Z</time>
      </trkpt>
      <trkpt lat="46.65674" lon="0.08458">
        <ele>124</ele>
        <time>2022-03-20T14:49:17Z</time>
      </trkpt>
      <trkpt lat="46.65704" lon="0.08433">
        <ele>123.4</ele>
        <time>2022-03-20T14:49:25Z</time>
      </trkpt>
      <trkpt lat="46.65711" lon="0.08425">
        <ele>123.6</ele>
        <time>2022-03-20T14:49:27Z</time>
      </trkpt>
      <trkpt lat="46.65715" lon="0.08422">
        <ele>123.4</ele>
        <time>2022-03-20T14:49:28Z</time>
      </trkpt>
      <trkpt lat="46.65721" lon="0.08416">
        <ele>123.4</ele>
        <time>2022-03-20T14:49:30Z</time>
      </trkpt>
      <trkpt lat="46.65724" lon="0.08413">
        <ele>123.4</ele>
        <time>2022-03-20T14:49:31Z</time>
      </trkpt>
      <trkpt lat="46.65728" lon="0.08409">
        <ele>123.6</ele>
        <time>2022-03-20T14:49:32Z</time>
      </trkpt>
      <trkpt lat="46.65731" lon="0.08406">
        <ele>123.8</ele>
        <time>2022-03-20T14:49:33Z</time>
      </trkpt>
      <trkpt lat="46.65733" lon="0.08402">
        <ele>123.8</ele>
        <time>2022-03-20T14:49:34Z</time>
      </trkpt>
      <trkpt lat="46.65736" lon="0.08398">
        <ele>123.8</ele>
        <time>2022-03-20T14:49:35Z</time>
      </trkpt>
      <trkpt lat="46.65739" lon="0.08387">
        <ele>123.8</ele>
        <time>2022-03-20T14:49:37Z</time>
      </trkpt>
      <trkpt lat="46.6574" lon="0.08377">
        <ele>123.6</ele>
        <time>2022-03-20T14:49:38Z</time>
      </trkpt>
      <trkpt lat="46.65741" lon="0.08371">
        <ele>123.8</ele>
        <time>2022-03-20T14:49:39Z</time>
      </trkpt>
      <trkpt lat="46.65741" lon="0.08363">
        <ele>123.8</ele>
        <time>2022-03-20T14:49:41Z</time>
      </trkpt>
      <trkpt lat="46.65743" lon="0.08346">
        <ele>123.8</ele>
        <time>2022-03-20T14:49:43Z</time>
      </trkpt>
      <trkpt lat="46.65741" lon="0.08331">
        <ele>123.6</ele>
        <time>2022-03-20T14:49:45Z</time>
      </trkpt>
      <trkpt lat="46.65739" lon="0.08289">
        <ele>123.2</ele>
        <time>2022-03-20T14:49:51Z</time>
      </trkpt>
      <trkpt lat="46.65739" lon="0.08283">
        <ele>123.2</ele>
        <time>2022-03-20T14:49:52Z</time>
      </trkpt>
      <trkpt lat="46.6574" lon="0.08271">
        <ele>123</ele>
        <time>2022-03-20T14:49:54Z</time>
      </trkpt>
      <trkpt lat="46.65741" lon="0.08264">
        <ele>123</ele>
        <time>2022-03-20T14:49:55Z</time>
      </trkpt>
      <trkpt lat="46.6574" lon="0.08257">
        <ele>123.2</ele>
        <time>2022-03-20T14:49:56Z</time>
      </trkpt>
      <trkpt lat="46.65739" lon="0.0825">
        <ele>123.2</ele>
        <time>2022-03-20T14:49:57Z</time>
      </trkpt>
      <trkpt lat="46.65741" lon="0.08237">
        <ele>123.2</ele>
        <time>2022-03-20T14:49:59Z</time>
      </trkpt>
      <trkpt lat="46.65744" lon="0.08207">
        <ele>123</ele>
        <time>2022-03-20T14:50:04Z</time>
      </trkpt>
      <trkpt lat="46.65744" lon="0.08201">
        <ele>123</ele>
        <time>2022-03-20T14:50:05Z</time>
      </trkpt>
      <trkpt lat="46.65745" lon="0.08195">
        <ele>123</ele>
        <time>2022-03-20T14:50:06Z</time>
      </trkpt>
      <trkpt lat="46.65745" lon="0.08189">
        <ele>123.2</ele>
        <time>2022-03-20T14:50:07Z</time>
      </trkpt>
      <trkpt lat="46.65745" lon="0.08183">
        <ele>123.2</ele>
        <time>2022-03-20T14:50:08Z</time>
      </trkpt>
      <trkpt lat="46.65745" lon="0.08141">
        <ele>123.2</ele>
        <time>2022-03-20T14:50:15Z</time>
      </trkpt>
      <trkpt lat="46.65745" lon="0.08117">
        <ele>123.6</ele>
        <time>2022-03-20T14:50:19Z</time>
      </trkpt>
      <trkpt lat="46.65745" lon="0.08111">
        <ele>123.6</ele>
        <time>2022-03-20T14:50:20Z</time>
      </trkpt>
      <trkpt lat="46.65744" lon="0.08105">
        <ele>123.8</ele>
        <time>2022-03-20T14:50:21Z</time>
      </trkpt>
      <trkpt lat="46.65743" lon="0.08094">
        <ele>123.8</ele>
        <time>2022-03-20T14:50:23Z</time>
      </trkpt>
      <trkpt lat="46.65744" lon="0.08078">
        <ele>123.8</ele>
        <time>2022-03-20T14:50:26Z</time>
      </trkpt>
      <trkpt lat="46.65744" lon="0.08066">
        <ele>123.8</ele>
        <time>2022-03-20T14:50:28Z</time>
      </trkpt>
      <trkpt lat="46.65742" lon="0.08028">
        <ele>124</ele>
        <time>2022-03-20T14:50:34Z</time>
      </trkpt>
      <trkpt lat="46.6574" lon="0.08002">
        <ele>124.2</ele>
        <time>2022-03-20T14:50:39Z</time>
      </trkpt>
      <trkpt lat="46.65739" lon="0.07996">
        <ele>124.2</ele>
        <time>2022-03-20T14:50:40Z</time>
      </trkpt>
      <trkpt lat="46.65739" lon="0.07993">
        <ele>124.2</ele>
        <time>2022-03-20T14:50:41Z</time>
      </trkpt>
      <trkpt lat="46.65739" lon="0.07991">
        <ele>124.2</ele>
        <time>2022-03-20T14:50:42Z</time>
      </trkpt>
      <trkpt lat="46.65739" lon="0.0799">
        <ele>124.2</ele>
        <time>2022-03-20T14:50:43Z</time>
      </trkpt>
      <trkpt lat="46.65738" lon="0.07987">
        <ele>124.2</ele>
        <time>2022-03-20T14:50:44Z</time>
      </trkpt>
      <trkpt lat="46.65737" lon="0.07975">
        <ele>124</ele>
        <time>2022-03-20T14:50:47Z</time>
      </trkpt>
      <trkpt lat="46.65736" lon="0.07942">
        <ele>124.2</ele>
        <time>2022-03-20T14:50:53Z</time>
      </trkpt>
      <trkpt lat="46.65736" lon="0.07937">
        <ele>124.2</ele>
        <time>2022-03-20T14:50:54Z</time>
      </trkpt>
      <trkpt lat="46.65735" lon="0.07925">
        <ele>124.6</ele>
        <time>2022-03-20T14:50:56Z</time>
      </trkpt>
      <trkpt lat="46.65732" lon="0.07904">
        <ele>124.4</ele>
        <time>2022-03-20T14:51:00Z</time>
      </trkpt>
      <trkpt lat="46.65731" lon="0.07895">
        <ele>124.2</ele>
        <time>2022-03-20T14:51:02Z</time>
      </trkpt>
      <trkpt lat="46.65731" lon="0.0789">
        <ele>124</ele>
        <time>2022-03-20T14:51:03Z</time>
      </trkpt>
      <trkpt lat="46.6573" lon="0.07886">
        <ele>123.8</ele>
        <time>2022-03-20T14:51:04Z</time>
      </trkpt>
      <trkpt lat="46.6573" lon="0.07882">
        <ele>123.6</ele>
        <time>2022-03-20T14:51:05Z</time>
      </trkpt>
      <trkpt lat="46.6573" lon="0.07879">
        <ele>123.4</ele>
        <time>2022-03-20T14:51:06Z</time>
      </trkpt>
      <trkpt lat="46.6573" lon="0.07877">
        <ele>123.2</ele>
        <time>2022-03-20T14:51:07Z</time>
      </trkpt>
      <trkpt lat="46.6573" lon="0.07874">
        <ele>123.2</ele>
        <time>2022-03-20T14:51:08Z</time>
      </trkpt>
      <trkpt lat="46.65729" lon="0.07855">
        <ele>123</ele>
        <time>2022-03-20T14:51:13Z</time>
      </trkpt>
      <trkpt lat="46.65729" lon="0.07851">
        <ele>123</ele>
        <time>2022-03-20T14:51:14Z</time>
      </trkpt>
      <trkpt lat="46.65729" lon="0.07847">
        <ele>123</ele>
        <time>2022-03-20T14:51:15Z</time>
      </trkpt>
      <trkpt lat="46.65731" lon="0.07839">
        <ele>123</ele>
        <time>2022-03-20T14:51:17Z</time>
      </trkpt>
      <trkpt lat="46.65733" lon="0.07836">
        <ele>123</ele>
        <time>2022-03-20T14:51:18Z</time>
      </trkpt>
      <trkpt lat="46.65735" lon="0.07832">
        <ele>123</ele>
        <time>2022-03-20T14:51:19Z</time>
      </trkpt>
      <trkpt lat="46.65737" lon="0.07827">
        <ele>123</ele>
        <time>2022-03-20T14:51:20Z</time>
      </trkpt>
      <trkpt lat="46.65741" lon="0.07818">
        <ele>123.2</ele>
        <time>2022-03-20T14:51:22Z</time>
      </trkpt>
      <trkpt lat="46.65748" lon="0.07799">
        <ele>123.6</ele>
        <time>2022-03-20T14:51:26Z</time>
      </trkpt>
      <trkpt lat="46.65759" lon="0.0777">
        <ele>124.8</ele>
        <time>2022-03-20T14:51:32Z</time>
      </trkpt>
      <trkpt lat="46.65767" lon="0.07755">
        <ele>125</ele>
        <time>2022-03-20T14:51:35Z</time>
      </trkpt>
      <trkpt lat="46.65778" lon="0.07737">
        <ele>125.4</ele>
        <time>2022-03-20T14:51:39Z</time>
      </trkpt>
      <trkpt lat="46.65786" lon="0.07729">
        <ele>125.4</ele>
        <time>2022-03-20T14:51:41Z</time>
      </trkpt>
      <trkpt lat="46.65808" lon="0.07708">
        <ele>125.6</ele>
        <time>2022-03-20T14:51:47Z</time>
      </trkpt>
      <trkpt lat="46.65813" lon="0.077">
        <ele>125.6</ele>
        <time>2022-03-20T14:51:49Z</time>
      </trkpt>
      <trkpt lat="46.65815" lon="0.07696">
        <ele>125.6</ele>
        <time>2022-03-20T14:51:50Z</time>
      </trkpt>
      <trkpt lat="46.65815" lon="0.07693">
        <ele>125.4</ele>
        <time>2022-03-20T14:51:51Z</time>
      </trkpt>
      <trkpt lat="46.65816" lon="0.0769">
        <ele>125.4</ele>
        <time>2022-03-20T14:51:52Z</time>
      </trkpt>
      <trkpt lat="46.65817" lon="0.07689">
        <ele>125.4</ele>
        <time>2022-03-20T14:51:53Z</time>
      </trkpt>
      <trkpt lat="46.65817" lon="0.07688">
        <ele>125.4</ele>
        <time>2022-03-20T14:51:54Z</time>
      </trkpt>
      <trkpt lat="46.65815" lon="0.07681">
        <ele>125.2</ele>
        <time>2022-03-20T14:52:03Z</time>
      </trkpt>
      <trkpt lat="46.65807" lon="0.07675">
        <ele>125</ele>
        <time>2022-03-20T14:52:06Z</time>
      </trkpt>
      <trkpt lat="46.65805" lon="0.07673">
        <ele>125</ele>
        <time>2022-03-20T14:52:07Z</time>
      </trkpt>
      <trkpt lat="46.65802" lon="0.07671">
        <ele>125</ele>
        <time>2022-03-20T14:52:08Z</time>
      </trkpt>
      <trkpt lat="46.658" lon="0.07668">
        <ele>124.8</ele>
        <time>2022-03-20T14:52:09Z</time>
      </trkpt>
      <trkpt lat="46.65797" lon="0.07663">
        <ele>124.8</ele>
        <time>2022-03-20T14:52:11Z</time>
      </trkpt>
      <trkpt lat="46.65797" lon="0.07661">
        <ele>124.8</ele>
        <time>2022-03-20T14:52:12Z</time>
      </trkpt>
      <trkpt lat="46.65797" lon="0.0766">
        <ele>124.6</ele>
        <time>2022-03-20T14:52:13Z</time>
      </trkpt>
      <trkpt lat="46.65796" lon="0.07653">
        <ele>124.4</ele>
        <time>2022-03-20T14:52:36Z</time>
      </trkpt>
      <trkpt lat="46.65797" lon="0.07649">
        <ele>124.2</ele>
        <time>2022-03-20T14:52:37Z</time>
      </trkpt>
      <trkpt lat="46.65798" lon="0.07645">
        <ele>124.2</ele>
        <time>2022-03-20T14:52:38Z</time>
      </trkpt>
      <trkpt lat="46.65799" lon="0.0764">
        <ele>124.2</ele>
        <time>2022-03-20T14:52:39Z</time>
      </trkpt>
      <trkpt lat="46.65802" lon="0.07627">
        <ele>124</ele>
        <time>2022-03-20T14:52:42Z</time>
      </trkpt>
      <trkpt lat="46.65804" lon="0.0762">
        <ele>124</ele>
        <time>2022-03-20T14:52:44Z</time>
      </trkpt>
      <trkpt lat="46.65805" lon="0.07618">
        <ele>123.8</ele>
        <time>2022-03-20T14:52:45Z</time>
      </trkpt>
      <trkpt lat="46.65806" lon="0.07617">
        <ele>123.8</ele>
        <time>2022-03-20T14:52:46Z</time>
      </trkpt>
      <trkpt lat="46.65806" lon="0.07616">
        <ele>123.8</ele>
        <time>2022-03-20T14:52:47Z</time>
      </trkpt>
      <trkpt lat="46.65807" lon="0.07615">
        <ele>123.8</ele>
        <time>2022-03-20T14:52:48Z</time>
      </trkpt>
      <trkpt lat="46.65808" lon="0.07615">
        <ele>123.8</ele>
        <time>2022-03-20T14:52:49Z</time>
      </trkpt>
      <trkpt lat="46.65809" lon="0.07615">
        <ele>123.8</ele>
        <time>2022-03-20T14:52:50Z</time>
      </trkpt>
      <trkpt lat="46.65809" lon="0.07614">
        <ele>123.8</ele>
        <time>2022-03-20T14:52:51Z</time>
      </trkpt>
      <trkpt lat="46.6581" lon="0.07613">
        <ele>123.8</ele>
        <time>2022-03-20T14:52:52Z</time>
      </trkpt>
      <trkpt lat="46.65811" lon="0.07611">
        <ele>123.8</ele>
        <time>2022-03-20T14:52:53Z</time>
      </trkpt>
      <trkpt lat="46.65812" lon="0.07609">
        <ele>124</ele>
        <time>2022-03-20T14:52:54Z</time>
      </trkpt>
      <trkpt lat="46.65814" lon="0.07606">
        <ele>124</ele>
        <time>2022-03-20T14:52:55Z</time>
      </trkpt>
      <trkpt lat="46.65819" lon="0.07597">
        <ele>124.8</ele>
        <time>2022-03-20T14:52:58Z</time>
      </trkpt>
      <trkpt lat="46.65821" lon="0.07589">
        <ele>125.2</ele>
        <time>2022-03-20T14:53:00Z</time>
      </trkpt>
      <trkpt lat="46.65822" lon="0.07583">
        <ele>125.4</ele>
        <time>2022-03-20T14:53:01Z</time>
      </trkpt>
      <trkpt lat="46.65824" lon="0.07572">
        <ele>125.6</ele>
        <time>2022-03-20T14:53:03Z</time>
      </trkpt>
      <trkpt lat="46.65826" lon="0.0756">
        <ele>126</ele>
        <time>2022-03-20T14:53:05Z</time>
      </trkpt>
      <trkpt lat="46.65827" lon="0.07555">
        <ele>126.2</ele>
        <time>2022-03-20T14:53:06Z</time>
      </trkpt>
      <trkpt lat="46.65827" lon="0.0755">
        <ele>126.2</ele>
        <time>2022-03-20T14:53:07Z</time>
      </trkpt>
      <trkpt lat="46.65827" lon="0.07545">
        <ele>126.4</ele>
        <time>2022-03-20T14:53:08Z</time>
      </trkpt>
      <trkpt lat="46.65829" lon="0.07534">
        <ele>126.8</ele>
        <time>2022-03-20T14:53:10Z</time>
      </trkpt>
      <trkpt lat="46.65831" lon="0.07523">
        <ele>127</ele>
        <time>2022-03-20T14:53:12Z</time>
      </trkpt>
      <trkpt lat="46.65832" lon="0.07518">
        <ele>127.2</ele>
        <time>2022-03-20T14:53:13Z</time>
      </trkpt>
      <trkpt lat="46.65832" lon="0.07512">
        <ele>127.2</ele>
        <time>2022-03-20T14:53:14Z</time>
      </trkpt>
      <trkpt lat="46.65832" lon="0.07506">
        <ele>127.6</ele>
        <time>2022-03-20T14:53:15Z</time>
      </trkpt>
      <trkpt lat="46.65832" lon="0.075">
        <ele>127.8</ele>
        <time>2022-03-20T14:53:16Z</time>
      </trkpt>
      <trkpt lat="46.65833" lon="0.07495">
        <ele>128</ele>
        <time>2022-03-20T14:53:17Z</time>
      </trkpt>
      <trkpt lat="46.65834" lon="0.07492">
        <ele>128.4</ele>
        <time>2022-03-20T14:53:18Z</time>
      </trkpt>
      <trkpt lat="46.65837" lon="0.0749">
        <ele>128.6</ele>
        <time>2022-03-20T14:53:19Z</time>
      </trkpt>
      <trkpt lat="46.65839" lon="0.07491">
        <ele>129</ele>
        <time>2022-03-20T14:53:20Z</time>
      </trkpt>
      <trkpt lat="46.6584" lon="0.07494">
        <ele>129</ele>
        <time>2022-03-20T14:53:21Z</time>
      </trkpt>
      <trkpt lat="46.65841" lon="0.07498">
        <ele>129.2</ele>
        <time>2022-03-20T14:53:22Z</time>
      </trkpt>
      <trkpt lat="46.65842" lon="0.07503">
        <ele>129.4</ele>
        <time>2022-03-20T14:53:23Z</time>
      </trkpt>
      <trkpt lat="46.65842" lon="0.07508">
        <ele>129.6</ele>
        <time>2022-03-20T14:53:24Z</time>
      </trkpt>
      <trkpt lat="46.65842" lon="0.07513">
        <ele>130</ele>
        <time>2022-03-20T14:53:25Z</time>
      </trkpt>
      <trkpt lat="46.65843" lon="0.07518">
        <ele>130.2</ele>
        <time>2022-03-20T14:53:26Z</time>
      </trkpt>
      <trkpt lat="46.65844" lon="0.07522">
        <ele>130.6</ele>
        <time>2022-03-20T14:53:27Z</time>
      </trkpt>
      <trkpt lat="46.65846" lon="0.07525">
        <ele>130.8</ele>
        <time>2022-03-20T14:53:28Z</time>
      </trkpt>
      <trkpt lat="46.65848" lon="0.07526">
        <ele>131</ele>
        <time>2022-03-20T14:53:29Z</time>
      </trkpt>
      <trkpt lat="46.65849" lon="0.07525">
        <ele>131.2</ele>
        <time>2022-03-20T14:53:30Z</time>
      </trkpt>
      <trkpt lat="46.65851" lon="0.07523">
        <ele>131.6</ele>
        <time>2022-03-20T14:53:31Z</time>
      </trkpt>
      <trkpt lat="46.65853" lon="0.07523">
        <ele>131.8</ele>
        <time>2022-03-20T14:53:32Z</time>
      </trkpt>
      <trkpt lat="46.65856" lon="0.07523">
        <ele>132</ele>
        <time>2022-03-20T14:53:33Z</time>
      </trkpt>
      <trkpt lat="46.65858" lon="0.07523">
        <ele>132.2</ele>
        <time>2022-03-20T14:53:34Z</time>
      </trkpt>
      <trkpt lat="46.6586" lon="0.07521">
        <ele>132.4</ele>
        <time>2022-03-20T14:53:35Z</time>
      </trkpt>
      <trkpt lat="46.65861" lon="0.07517">
        <ele>132.6</ele>
        <time>2022-03-20T14:53:36Z</time>
      </trkpt>
      <trkpt lat="46.65863" lon="0.07513">
        <ele>132.6</ele>
        <time>2022-03-20T14:53:37Z</time>
      </trkpt>
      <trkpt lat="46.65865" lon="0.07507">
        <ele>133</ele>
        <time>2022-03-20T14:53:38Z</time>
      </trkpt>
      <trkpt lat="46.65867" lon="0.07503">
        <ele>133.2</ele>
        <time>2022-03-20T14:53:39Z</time>
      </trkpt>
      <trkpt lat="46.65868" lon="0.07501">
        <ele>133.6</ele>
        <time>2022-03-20T14:53:40Z</time>
      </trkpt>
      <trkpt lat="46.65869" lon="0.07498">
        <ele>133.8</ele>
        <time>2022-03-20T14:53:41Z</time>
      </trkpt>
      <trkpt lat="46.65871" lon="0.07494">
        <ele>133.8</ele>
        <time>2022-03-20T14:53:42Z</time>
      </trkpt>
      <trkpt lat="46.65873" lon="0.0749">
        <ele>134</ele>
        <time>2022-03-20T14:53:43Z</time>
      </trkpt>
      <trkpt lat="46.65874" lon="0.07486">
        <ele>134.2</ele>
        <time>2022-03-20T14:53:44Z</time>
      </trkpt>
      <trkpt lat="46.65876" lon="0.07482">
        <ele>134.4</ele>
        <time>2022-03-20T14:53:45Z</time>
      </trkpt>
      <trkpt lat="46.65878" lon="0.07478">
        <ele>134.4</ele>
        <time>2022-03-20T14:53:46Z</time>
      </trkpt>
      <trkpt lat="46.6588" lon="0.07474">
        <ele>134.6</ele>
        <time>2022-03-20T14:53:47Z</time>
      </trkpt>
      <trkpt lat="46.65882" lon="0.0747">
        <ele>134.8</ele>
        <time>2022-03-20T14:53:48Z</time>
      </trkpt>
      <trkpt lat="46.65884" lon="0.07466">
        <ele>135</ele>
        <time>2022-03-20T14:53:49Z</time>
      </trkpt>
      <trkpt lat="46.65885" lon="0.07462">
        <ele>135.2</ele>
        <time>2022-03-20T14:53:50Z</time>
      </trkpt>
      <trkpt lat="46.65887" lon="0.07457">
        <ele>135.2</ele>
        <time>2022-03-20T14:53:51Z</time>
      </trkpt>
      <trkpt lat="46.65889" lon="0.07453">
        <ele>135.4</ele>
        <time>2022-03-20T14:53:52Z</time>
      </trkpt>
      <trkpt lat="46.65891" lon="0.07449">
        <ele>135.4</ele>
        <time>2022-03-20T14:53:53Z</time>
      </trkpt>
      <trkpt lat="46.65892" lon="0.07444">
        <ele>135.4</ele>
        <time>2022-03-20T14:53:54Z</time>
      </trkpt>
      <trkpt lat="46.65894" lon="0.0744">
        <ele>135.6</ele>
        <time>2022-03-20T14:53:55Z</time>
      </trkpt>
      <trkpt lat="46.65895" lon="0.07436">
        <ele>135.8</ele>
        <time>2022-03-20T14:53:56Z</time>
      </trkpt>
      <trkpt lat="46.65895" lon="0.07431">
        <ele>136.2</ele>
        <time>2022-03-20T14:53:57Z</time>
      </trkpt>
      <trkpt lat="46.65896" lon="0.07426">
        <ele>136.4</ele>
        <time>2022-03-20T14:53:58Z</time>
      </trkpt>
      <trkpt lat="46.65896" lon="0.0742">
        <ele>136.8</ele>
        <time>2022-03-20T14:53:59Z</time>
      </trkpt>
      <trkpt lat="46.65895" lon="0.07415">
        <ele>136.8</ele>
        <time>2022-03-20T14:54:00Z</time>
      </trkpt>
      <trkpt lat="46.65895" lon="0.07409">
        <ele>137</ele>
        <time>2022-03-20T14:54:01Z</time>
      </trkpt>
      <trkpt lat="46.65894" lon="0.07404">
        <ele>137</ele>
        <time>2022-03-20T14:54:02Z</time>
      </trkpt>
      <trkpt lat="46.65893" lon="0.07398">
        <ele>137.2</ele>
        <time>2022-03-20T14:54:03Z</time>
      </trkpt>
      <trkpt lat="46.65892" lon="0.07394">
        <ele>137.2</ele>
        <time>2022-03-20T14:54:04Z</time>
      </trkpt>
      <trkpt lat="46.65891" lon="0.0739">
        <ele>137.4</ele>
        <time>2022-03-20T14:54:05Z</time>
      </trkpt>
      <trkpt lat="46.65889" lon="0.07386">
        <ele>137.4</ele>
        <time>2022-03-20T14:54:06Z</time>
      </trkpt>
      <trkpt lat="46.65888" lon="0.07382">
        <ele>137.4</ele>
        <time>2022-03-20T14:54:07Z</time>
      </trkpt>
      <trkpt lat="46.65887" lon="0.07378">
        <ele>137.4</ele>
        <time>2022-03-20T14:54:08Z</time>
      </trkpt>
      <trkpt lat="46.65886" lon="0.07374">
        <ele>137.4</ele>
        <time>2022-03-20T14:54:09Z</time>
      </trkpt>
      <trkpt lat="46.65885" lon="0.07371">
        <ele>137.4</ele>
        <time>2022-03-20T14:54:10Z</time>
      </trkpt>
      <trkpt lat="46.65884" lon="0.07369">
        <ele>137.4</ele>
        <time>2022-03-20T14:54:11Z</time>
      </trkpt>
      <trkpt lat="46.65883" lon="0.07367">
        <ele>137.4</ele>
        <time>2022-03-20T14:54:12Z</time>
      </trkpt>
      <trkpt lat="46.65882" lon="0.07365">
        <ele>137.4</ele>
        <time>2022-03-20T14:54:13Z</time>
      </trkpt>
      <trkpt lat="46.65881" lon="0.07362">
        <ele>137.2</ele>
        <time>2022-03-20T14:54:14Z</time>
      </trkpt>
      <trkpt lat="46.6588" lon="0.0736">
        <ele>137.2</ele>
        <time>2022-03-20T14:54:15Z</time>
      </trkpt>
      <trkpt lat="46.65879" lon="0.07358">
        <ele>137.2</ele>
        <time>2022-03-20T14:54:16Z</time>
      </trkpt>
      <trkpt lat="46.65879" lon="0.07356">
        <ele>137</ele>
        <time>2022-03-20T14:54:17Z</time>
      </trkpt>
      <trkpt lat="46.65878" lon="0.07353">
        <ele>137</ele>
        <time>2022-03-20T14:54:18Z</time>
      </trkpt>
      <trkpt lat="46.65876" lon="0.07343">
        <ele>136.8</ele>
        <time>2022-03-20T14:54:21Z</time>
      </trkpt>
      <trkpt lat="46.65868" lon="0.07322">
        <ele>136.4</ele>
        <time>2022-03-20T14:54:26Z</time>
      </trkpt>
      <trkpt lat="46.65866" lon="0.07318">
        <ele>136.2</ele>
        <time>2022-03-20T14:54:27Z</time>
      </trkpt>
      <trkpt lat="46.65857" lon="0.07299">
        <ele>136</ele>
        <time>2022-03-20T14:54:31Z</time>
      </trkpt>
      <trkpt lat="46.65852" lon="0.07288">
        <ele>135.8</ele>
        <time>2022-03-20T14:54:33Z</time>
      </trkpt>
      <trkpt lat="46.6585" lon="0.07282">
        <ele>135.8</ele>
        <time>2022-03-20T14:54:34Z</time>
      </trkpt>
      <trkpt lat="46.65848" lon="0.07277">
        <ele>135.6</ele>
        <time>2022-03-20T14:54:35Z</time>
      </trkpt>
      <trkpt lat="46.65847" lon="0.07273">
        <ele>135.6</ele>
        <time>2022-03-20T14:54:36Z</time>
      </trkpt>
      <trkpt lat="46.65845" lon="0.07269">
        <ele>135.4</ele>
        <time>2022-03-20T14:54:37Z</time>
      </trkpt>
      <trkpt lat="46.65844" lon="0.07265">
        <ele>135</ele>
        <time>2022-03-20T14:54:38Z</time>
      </trkpt>
      <trkpt lat="46.65843" lon="0.07262">
        <ele>134.8</ele>
        <time>2022-03-20T14:54:39Z</time>
      </trkpt>
      <trkpt lat="46.65842" lon="0.07259">
        <ele>134.4</ele>
        <time>2022-03-20T14:54:40Z</time>
      </trkpt>
      <trkpt lat="46.65841" lon="0.07256">
        <ele>134.2</ele>
        <time>2022-03-20T14:54:41Z</time>
      </trkpt>
      <trkpt lat="46.65837" lon="0.07251">
        <ele>133.8</ele>
        <time>2022-03-20T14:54:42Z</time>
      </trkpt>
      <trkpt lat="46.65834" lon="0.07248">
        <ele>133.4</ele>
        <time>2022-03-20T14:54:44Z</time>
      </trkpt>
      <trkpt lat="46.65818" lon="0.07228">
        <ele>133</ele>
        <time>2022-03-20T14:54:48Z</time>
      </trkpt>
      <trkpt lat="46.65813" lon="0.07221">
        <ele>132.6</ele>
        <time>2022-03-20T14:54:49Z</time>
      </trkpt>
      <trkpt lat="46.65798" lon="0.07194">
        <ele>131.2</ele>
        <time>2022-03-20T14:54:52Z</time>
      </trkpt>
      <trkpt lat="46.6579" lon="0.07173">
        <ele>130.2</ele>
        <time>2022-03-20T14:54:54Z</time>
      </trkpt>
      <trkpt lat="46.65783" lon="0.0715">
        <ele>129</ele>
        <time>2022-03-20T14:54:56Z</time>
      </trkpt>
      <trkpt lat="46.65779" lon="0.07139">
        <ele>128.6</ele>
        <time>2022-03-20T14:54:57Z</time>
      </trkpt>
      <trkpt lat="46.65775" lon="0.07128">
        <ele>127.8</ele>
        <time>2022-03-20T14:54:58Z</time>
      </trkpt>
      <trkpt lat="46.6577" lon="0.07118">
        <ele>127.2</ele>
        <time>2022-03-20T14:54:59Z</time>
      </trkpt>
      <trkpt lat="46.6576" lon="0.07101">
        <ele>126.4</ele>
        <time>2022-03-20T14:55:01Z</time>
      </trkpt>
      <trkpt lat="46.65755" lon="0.07094">
        <ele>126.4</ele>
        <time>2022-03-20T14:55:02Z</time>
      </trkpt>
      <trkpt lat="46.6575" lon="0.07088">
        <ele>126.2</ele>
        <time>2022-03-20T14:55:03Z</time>
      </trkpt>
      <trkpt lat="46.65746" lon="0.07083">
        <ele>126.2</ele>
        <time>2022-03-20T14:55:04Z</time>
      </trkpt>
      <trkpt lat="46.65743" lon="0.07079">
        <ele>126.2</ele>
        <time>2022-03-20T14:55:05Z</time>
      </trkpt>
      <trkpt lat="46.65739" lon="0.07077">
        <ele>126</ele>
        <time>2022-03-20T14:55:06Z</time>
      </trkpt>
      <trkpt lat="46.65735" lon="0.07075">
        <ele>126</ele>
        <time>2022-03-20T14:55:07Z</time>
      </trkpt>
      <trkpt lat="46.65731" lon="0.07073">
        <ele>126</ele>
        <time>2022-03-20T14:55:08Z</time>
      </trkpt>
      <trkpt lat="46.65728" lon="0.0707">
        <ele>126.2</ele>
        <time>2022-03-20T14:55:09Z</time>
      </trkpt>
      <trkpt lat="46.65725" lon="0.07068">
        <ele>126.2</ele>
        <time>2022-03-20T14:55:10Z</time>
      </trkpt>
      <trkpt lat="46.65723" lon="0.07066">
        <ele>126.2</ele>
        <time>2022-03-20T14:55:11Z</time>
      </trkpt>
      <trkpt lat="46.6572" lon="0.07064">
        <ele>126.2</ele>
        <time>2022-03-20T14:55:12Z</time>
      </trkpt>
      <trkpt lat="46.65718" lon="0.07061">
        <ele>126.2</ele>
        <time>2022-03-20T14:55:13Z</time>
      </trkpt>
      <trkpt lat="46.65712" lon="0.07056">
        <ele>126.2</ele>
        <time>2022-03-20T14:55:15Z</time>
      </trkpt>
      <trkpt lat="46.65687" lon="0.07038">
        <ele>126.8</ele>
        <time>2022-03-20T14:55:23Z</time>
      </trkpt>
      <trkpt lat="46.65656" lon="0.07013">
        <ele>126</ele>
        <time>2022-03-20T14:55:30Z</time>
      </trkpt>
      <trkpt lat="46.65652" lon="0.07008">
        <ele>125.6</ele>
        <time>2022-03-20T14:55:31Z</time>
      </trkpt>
      <trkpt lat="46.65647" lon="0.07002">
        <ele>125.6</ele>
        <time>2022-03-20T14:55:32Z</time>
      </trkpt>
      <trkpt lat="46.65641" lon="0.0699">
        <ele>125.4</ele>
        <time>2022-03-20T14:55:34Z</time>
      </trkpt>
      <trkpt lat="46.65635" lon="0.06969">
        <ele>124.8</ele>
        <time>2022-03-20T14:55:37Z</time>
      </trkpt>
      <trkpt lat="46.65634" lon="0.06963">
        <ele>124.6</ele>
        <time>2022-03-20T14:55:38Z</time>
      </trkpt>
      <trkpt lat="46.65632" lon="0.06957">
        <ele>124.4</ele>
        <time>2022-03-20T14:55:39Z</time>
      </trkpt>
      <trkpt lat="46.65631" lon="0.06952">
        <ele>124.2</ele>
        <time>2022-03-20T14:55:40Z</time>
      </trkpt>
      <trkpt lat="46.65629" lon="0.06946">
        <ele>124.2</ele>
        <time>2022-03-20T14:55:41Z</time>
      </trkpt>
      <trkpt lat="46.65627" lon="0.06938">
        <ele>124.2</ele>
        <time>2022-03-20T14:55:42Z</time>
      </trkpt>
      <trkpt lat="46.65626" lon="0.06932">
        <ele>124</ele>
        <time>2022-03-20T14:55:43Z</time>
      </trkpt>
      <trkpt lat="46.6562" lon="0.06913">
        <ele>124</ele>
        <time>2022-03-20T14:55:47Z</time>
      </trkpt>
      <trkpt lat="46.65606" lon="0.06865">
        <ele>124</ele>
        <time>2022-03-20T14:55:56Z</time>
      </trkpt>
      <trkpt lat="46.65603" lon="0.06855">
        <ele>124</ele>
        <time>2022-03-20T14:55:58Z</time>
      </trkpt>
      <trkpt lat="46.65602" lon="0.0685">
        <ele>124</ele>
        <time>2022-03-20T14:55:59Z</time>
      </trkpt>
      <trkpt lat="46.65601" lon="0.06845">
        <ele>124</ele>
        <time>2022-03-20T14:56:00Z</time>
      </trkpt>
      <trkpt lat="46.65599" lon="0.0684">
        <ele>124.2</ele>
        <time>2022-03-20T14:56:01Z</time>
      </trkpt>
      <trkpt lat="46.65598" lon="0.06836">
        <ele>124.2</ele>
        <time>2022-03-20T14:56:02Z</time>
      </trkpt>
      <trkpt lat="46.65596" lon="0.06827">
        <ele>124.2</ele>
        <time>2022-03-20T14:56:04Z</time>
      </trkpt>
      <trkpt lat="46.65594" lon="0.06823">
        <ele>124.2</ele>
        <time>2022-03-20T14:56:05Z</time>
      </trkpt>
      <trkpt lat="46.65593" lon="0.06818">
        <ele>124.2</ele>
        <time>2022-03-20T14:56:06Z</time>
      </trkpt>
      <trkpt lat="46.65591" lon="0.06813">
        <ele>124.4</ele>
        <time>2022-03-20T14:56:07Z</time>
      </trkpt>
      <trkpt lat="46.6559" lon="0.06809">
        <ele>124.4</ele>
        <time>2022-03-20T14:56:08Z</time>
      </trkpt>
      <trkpt lat="46.65589" lon="0.06805">
        <ele>124.4</ele>
        <time>2022-03-20T14:56:09Z</time>
      </trkpt>
      <trkpt lat="46.65587" lon="0.068">
        <ele>124.2</ele>
        <time>2022-03-20T14:56:10Z</time>
      </trkpt>
      <trkpt lat="46.65586" lon="0.06794">
        <ele>124</ele>
        <time>2022-03-20T14:56:11Z</time>
      </trkpt>
      <trkpt lat="46.65583" lon="0.06783">
        <ele>123.8</ele>
        <time>2022-03-20T14:56:13Z</time>
      </trkpt>
      <trkpt lat="46.65575" lon="0.0676">
        <ele>123.6</ele>
        <time>2022-03-20T14:56:17Z</time>
      </trkpt>
      <trkpt lat="46.65561" lon="0.0672">
        <ele>123.8</ele>
        <time>2022-03-20T14:56:24Z</time>
      </trkpt>
      <trkpt lat="46.65543" lon="0.06682">
        <ele>124.2</ele>
        <time>2022-03-20T14:56:31Z</time>
      </trkpt>
      <trkpt lat="46.65541" lon="0.06677">
        <ele>124</ele>
        <time>2022-03-20T14:56:32Z</time>
      </trkpt>
      <trkpt lat="46.65539" lon="0.06672">
        <ele>124.2</ele>
        <time>2022-03-20T14:56:33Z</time>
      </trkpt>
      <trkpt lat="46.65538" lon="0.06668">
        <ele>124</ele>
        <time>2022-03-20T14:56:34Z</time>
      </trkpt>
      <trkpt lat="46.65537" lon="0.06664">
        <ele>124</ele>
        <time>2022-03-20T14:56:35Z</time>
      </trkpt>
      <trkpt lat="46.65535" lon="0.06659">
        <ele>124</ele>
        <time>2022-03-20T14:56:36Z</time>
      </trkpt>
      <trkpt lat="46.65533" lon="0.06655">
        <ele>124</ele>
        <time>2022-03-20T14:56:37Z</time>
      </trkpt>
      <trkpt lat="46.65531" lon="0.06649">
        <ele>124</ele>
        <time>2022-03-20T14:56:38Z</time>
      </trkpt>
      <trkpt lat="46.65513" lon="0.06623">
        <ele>124.4</ele>
        <time>2022-03-20T14:56:43Z</time>
      </trkpt>
      <trkpt lat="46.65506" lon="0.06613">
        <ele>124.6</ele>
        <time>2022-03-20T14:56:46Z</time>
      </trkpt>
      <trkpt lat="46.65491" lon="0.06595">
        <ele>124.2</ele>
        <time>2022-03-20T14:56:51Z</time>
      </trkpt>
      <trkpt lat="46.65489" lon="0.06591">
        <ele>124</ele>
        <time>2022-03-20T14:56:52Z</time>
      </trkpt>
      <trkpt lat="46.65486" lon="0.06587">
        <ele>124</ele>
        <time>2022-03-20T14:56:53Z</time>
      </trkpt>
      <trkpt lat="46.65483" lon="0.06583">
        <ele>123.8</ele>
        <time>2022-03-20T14:56:54Z</time>
      </trkpt>
      <trkpt lat="46.6548" lon="0.06579">
        <ele>123.6</ele>
        <time>2022-03-20T14:56:55Z</time>
      </trkpt>
      <trkpt lat="46.65477" lon="0.06575">
        <ele>123.6</ele>
        <time>2022-03-20T14:56:56Z</time>
      </trkpt>
      <trkpt lat="46.65475" lon="0.06572">
        <ele>123.6</ele>
        <time>2022-03-20T14:56:57Z</time>
      </trkpt>
      <trkpt lat="46.65465" lon="0.06559">
        <ele>123.6</ele>
        <time>2022-03-20T14:57:00Z</time>
      </trkpt>
      <trkpt lat="46.65438" lon="0.06521">
        <ele>124</ele>
        <time>2022-03-20T14:57:09Z</time>
      </trkpt>
      <trkpt lat="46.65435" lon="0.06517">
        <ele>124</ele>
        <time>2022-03-20T14:57:10Z</time>
      </trkpt>
      <trkpt lat="46.65433" lon="0.06512">
        <ele>124</ele>
        <time>2022-03-20T14:57:11Z</time>
      </trkpt>
      <trkpt lat="46.65425" lon="0.06494">
        <ele>124.8</ele>
        <time>2022-03-20T14:57:15Z</time>
      </trkpt>
      <trkpt lat="46.65423" lon="0.06489">
        <ele>125</ele>
        <time>2022-03-20T14:57:16Z</time>
      </trkpt>
      <trkpt lat="46.65421" lon="0.06485">
        <ele>125</ele>
        <time>2022-03-20T14:57:17Z</time>
      </trkpt>
      <trkpt lat="46.65418" lon="0.0648">
        <ele>124.8</ele>
        <time>2022-03-20T14:57:18Z</time>
      </trkpt>
      <trkpt lat="46.65416" lon="0.06476">
        <ele>124.6</ele>
        <time>2022-03-20T14:57:19Z</time>
      </trkpt>
      <trkpt lat="46.654" lon="0.06443">
        <ele>123.8</ele>
        <time>2022-03-20T14:57:26Z</time>
      </trkpt>
      <trkpt lat="46.6538" lon="0.06401">
        <ele>124</ele>
        <time>2022-03-20T14:57:35Z</time>
      </trkpt>
      <trkpt lat="46.65363" lon="0.06357">
        <ele>124.4</ele>
        <time>2022-03-20T14:57:43Z</time>
      </trkpt>
      <trkpt lat="46.65362" lon="0.06353">
        <ele>124.4</ele>
        <time>2022-03-20T14:57:44Z</time>
      </trkpt>
      <trkpt lat="46.65361" lon="0.0635">
        <ele>124.4</ele>
        <time>2022-03-20T14:57:45Z</time>
      </trkpt>
      <trkpt lat="46.65359" lon="0.06344">
        <ele>124.2</ele>
        <time>2022-03-20T14:57:46Z</time>
      </trkpt>
      <trkpt lat="46.65358" lon="0.06339">
        <ele>124.2</ele>
        <time>2022-03-20T14:57:47Z</time>
      </trkpt>
      <trkpt lat="46.65353" lon="0.06316">
        <ele>124</ele>
        <time>2022-03-20T14:57:51Z</time>
      </trkpt>
      <trkpt lat="46.65352" lon="0.06311">
        <ele>124</ele>
        <time>2022-03-20T14:57:52Z</time>
      </trkpt>
      <trkpt lat="46.65351" lon="0.06306">
        <ele>124</ele>
        <time>2022-03-20T14:57:53Z</time>
      </trkpt>
      <trkpt lat="46.65349" lon="0.0629">
        <ele>124</ele>
        <time>2022-03-20T14:57:56Z</time>
      </trkpt>
      <trkpt lat="46.65348" lon="0.06284">
        <ele>124</ele>
        <time>2022-03-20T14:57:57Z</time>
      </trkpt>
      <trkpt lat="46.65346" lon="0.06268">
        <ele>124</ele>
        <time>2022-03-20T14:58:00Z</time>
      </trkpt>
      <trkpt lat="46.65345" lon="0.06264">
        <ele>124</ele>
        <time>2022-03-20T14:58:01Z</time>
      </trkpt>
      <trkpt lat="46.65344" lon="0.06259">
        <ele>124</ele>
        <time>2022-03-20T14:58:02Z</time>
      </trkpt>
      <trkpt lat="46.65343" lon="0.06256">
        <ele>124</ele>
        <time>2022-03-20T14:58:03Z</time>
      </trkpt>
      <trkpt lat="46.65341" lon="0.06254">
        <ele>124</ele>
        <time>2022-03-20T14:58:04Z</time>
      </trkpt>
      <trkpt lat="46.65339" lon="0.06252">
        <ele>124</ele>
        <time>2022-03-20T14:58:05Z</time>
      </trkpt>
      <trkpt lat="46.65337" lon="0.0625">
        <ele>124</ele>
        <time>2022-03-20T14:58:06Z</time>
      </trkpt>
      <trkpt lat="46.65336" lon="0.06249">
        <ele>124</ele>
        <time>2022-03-20T14:58:07Z</time>
      </trkpt>
      <trkpt lat="46.65331" lon="0.06246">
        <ele>124</ele>
        <time>2022-03-20T14:58:10Z</time>
      </trkpt>
      <trkpt lat="46.6533" lon="0.06246">
        <ele>124.2</ele>
        <time>2022-03-20T14:58:11Z</time>
      </trkpt>
      <trkpt lat="46.6533" lon="0.06246">
        <ele>124.2</ele>
        <time>2022-03-20T14:58:12Z</time>
      </trkpt>
      <trkpt lat="46.65329" lon="0.06245">
        <ele>124.2</ele>
        <time>2022-03-20T14:58:13Z</time>
      </trkpt>
      <trkpt lat="46.65328" lon="0.06245">
        <ele>124.4</ele>
        <time>2022-03-20T14:58:14Z</time>
      </trkpt>
      <trkpt lat="46.65327" lon="0.06244">
        <ele>124.4</ele>
        <time>2022-03-20T14:58:15Z</time>
      </trkpt>
      <trkpt lat="46.65327" lon="0.06243">
        <ele>124.6</ele>
        <time>2022-03-20T14:58:16Z</time>
      </trkpt>
      <trkpt lat="46.65326" lon="0.06243">
        <ele>124.6</ele>
        <time>2022-03-20T14:58:17Z</time>
      </trkpt>
      <trkpt lat="46.65325" lon="0.06242">
        <ele>124.8</ele>
        <time>2022-03-20T14:58:18Z</time>
      </trkpt>
      <trkpt lat="46.65322" lon="0.06241">
        <ele>124.8</ele>
        <time>2022-03-20T14:58:21Z</time>
      </trkpt>
      <trkpt lat="46.65321" lon="0.0624">
        <ele>125</ele>
        <time>2022-03-20T14:58:24Z</time>
      </trkpt>
      <trkpt lat="46.65309" lon="0.06224">
        <ele>124.4</ele>
        <time>2022-03-20T14:58:43Z</time>
      </trkpt>
      <trkpt lat="46.65307" lon="0.0622">
        <ele>124.4</ele>
        <time>2022-03-20T14:58:44Z</time>
      </trkpt>
      <trkpt lat="46.65292" lon="0.062">
        <ele>124.6</ele>
        <time>2022-03-20T14:58:50Z</time>
      </trkpt>
      <trkpt lat="46.65277" lon="0.06195">
        <ele>125.2</ele>
        <time>2022-03-20T14:58:55Z</time>
      </trkpt>
      <trkpt lat="46.65269" lon="0.06197">
        <ele>125.4</ele>
        <time>2022-03-20T14:58:58Z</time>
      </trkpt>
      <trkpt lat="46.65266" lon="0.06198">
        <ele>125.6</ele>
        <time>2022-03-20T14:58:59Z</time>
      </trkpt>
      <trkpt lat="46.65263" lon="0.06199">
        <ele>125.8</ele>
        <time>2022-03-20T14:59:00Z</time>
      </trkpt>
      <trkpt lat="46.65259" lon="0.062">
        <ele>126</ele>
        <time>2022-03-20T14:59:01Z</time>
      </trkpt>
      <trkpt lat="46.65256" lon="0.06201">
        <ele>126</ele>
        <time>2022-03-20T14:59:02Z</time>
      </trkpt>
      <trkpt lat="46.65252" lon="0.06202">
        <ele>126.2</ele>
        <time>2022-03-20T14:59:03Z</time>
      </trkpt>
      <trkpt lat="46.65249" lon="0.06203">
        <ele>126.6</ele>
        <time>2022-03-20T14:59:04Z</time>
      </trkpt>
      <trkpt lat="46.65228" lon="0.06206">
        <ele>127.8</ele>
        <time>2022-03-20T14:59:11Z</time>
      </trkpt>
      <trkpt lat="46.65223" lon="0.06206">
        <ele>128</ele>
        <time>2022-03-20T14:59:12Z</time>
      </trkpt>
      <trkpt lat="46.6522" lon="0.06205">
        <ele>128.4</ele>
        <time>2022-03-20T14:59:13Z</time>
      </trkpt>
      <trkpt lat="46.65217" lon="0.06203">
        <ele>128.8</ele>
        <time>2022-03-20T14:59:15Z</time>
      </trkpt>
      <trkpt lat="46.65214" lon="0.06202">
        <ele>129.4</ele>
        <time>2022-03-20T14:59:16Z</time>
      </trkpt>
      <trkpt lat="46.65212" lon="0.06201">
        <ele>129.6</ele>
        <time>2022-03-20T14:59:17Z</time>
      </trkpt>
      <trkpt lat="46.6521" lon="0.062">
        <ele>130</ele>
        <time>2022-03-20T14:59:18Z</time>
      </trkpt>
      <trkpt lat="46.65208" lon="0.06198">
        <ele>130.2</ele>
        <time>2022-03-20T14:59:19Z</time>
      </trkpt>
      <trkpt lat="46.65206" lon="0.06196">
        <ele>131</ele>
        <time>2022-03-20T14:59:20Z</time>
      </trkpt>
      <trkpt lat="46.65204" lon="0.06194">
        <ele>131.2</ele>
        <time>2022-03-20T14:59:21Z</time>
      </trkpt>
      <trkpt lat="46.65201" lon="0.06192">
        <ele>131.8</ele>
        <time>2022-03-20T14:59:22Z</time>
      </trkpt>
      <trkpt lat="46.65199" lon="0.0619">
        <ele>131.8</ele>
        <time>2022-03-20T14:59:23Z</time>
      </trkpt>
      <trkpt lat="46.65196" lon="0.06188">
        <ele>132</ele>
        <time>2022-03-20T14:59:24Z</time>
      </trkpt>
      <trkpt lat="46.65193" lon="0.06186">
        <ele>132.4</ele>
        <time>2022-03-20T14:59:25Z</time>
      </trkpt>
      <trkpt lat="46.65191" lon="0.06183">
        <ele>132.4</ele>
        <time>2022-03-20T14:59:26Z</time>
      </trkpt>
      <trkpt lat="46.65189" lon="0.06181">
        <ele>132.8</ele>
        <time>2022-03-20T14:59:27Z</time>
      </trkpt>
      <trkpt lat="46.65186" lon="0.06179">
        <ele>132.8</ele>
        <time>2022-03-20T14:59:28Z</time>
      </trkpt>
      <trkpt lat="46.65184" lon="0.06176">
        <ele>133.4</ele>
        <time>2022-03-20T14:59:29Z</time>
      </trkpt>
      <trkpt lat="46.65182" lon="0.06174">
        <ele>133.6</ele>
        <time>2022-03-20T14:59:30Z</time>
      </trkpt>
      <trkpt lat="46.6518" lon="0.06171">
        <ele>134.4</ele>
        <time>2022-03-20T14:59:31Z</time>
      </trkpt>
      <trkpt lat="46.65178" lon="0.06169">
        <ele>134.6</ele>
        <time>2022-03-20T14:59:32Z</time>
      </trkpt>
      <trkpt lat="46.65175" lon="0.06167">
        <ele>135</ele>
        <time>2022-03-20T14:59:33Z</time>
      </trkpt>
      <trkpt lat="46.65172" lon="0.06165">
        <ele>135.8</ele>
        <time>2022-03-20T14:59:34Z</time>
      </trkpt>
      <trkpt lat="46.6517" lon="0.06164">
        <ele>136</ele>
        <time>2022-03-20T14:59:35Z</time>
      </trkpt>
      <trkpt lat="46.65168" lon="0.06163">
        <ele>136.4</ele>
        <time>2022-03-20T14:59:36Z</time>
      </trkpt>
      <trkpt lat="46.65166" lon="0.06161">
        <ele>136.4</ele>
        <time>2022-03-20T14:59:37Z</time>
      </trkpt>
      <trkpt lat="46.65164" lon="0.06157">
        <ele>136.8</ele>
        <time>2022-03-20T14:59:38Z</time>
      </trkpt>
      <trkpt lat="46.65163" lon="0.06153">
        <ele>137</ele>
        <time>2022-03-20T14:59:39Z</time>
      </trkpt>
      <trkpt lat="46.65163" lon="0.06148">
        <ele>137.2</ele>
        <time>2022-03-20T14:59:40Z</time>
      </trkpt>
      <trkpt lat="46.65163" lon="0.06143">
        <ele>137.6</ele>
        <time>2022-03-20T14:59:41Z</time>
      </trkpt>
      <trkpt lat="46.65164" lon="0.06137">
        <ele>137.8</ele>
        <time>2022-03-20T14:59:42Z</time>
      </trkpt>
      <trkpt lat="46.65164" lon="0.06132">
        <ele>137.8</ele>
        <time>2022-03-20T14:59:43Z</time>
      </trkpt>
      <trkpt lat="46.65165" lon="0.06126">
        <ele>137.8</ele>
        <time>2022-03-20T14:59:44Z</time>
      </trkpt>
      <trkpt lat="46.65165" lon="0.0612">
        <ele>138</ele>
        <time>2022-03-20T14:59:45Z</time>
      </trkpt>
      <trkpt lat="46.65165" lon="0.06114">
        <ele>138</ele>
        <time>2022-03-20T14:59:46Z</time>
      </trkpt>
      <trkpt lat="46.65165" lon="0.06108">
        <ele>138.2</ele>
        <time>2022-03-20T14:59:47Z</time>
      </trkpt>
      <trkpt lat="46.65166" lon="0.06102">
        <ele>138.2</ele>
        <time>2022-03-20T14:59:48Z</time>
      </trkpt>
      <trkpt lat="46.65166" lon="0.06097">
        <ele>138.2</ele>
        <time>2022-03-20T14:59:49Z</time>
      </trkpt>
      <trkpt lat="46.65166" lon="0.06091">
        <ele>138.4</ele>
        <time>2022-03-20T14:59:50Z</time>
      </trkpt>
      <trkpt lat="46.65166" lon="0.06085">
        <ele>138.4</ele>
        <time>2022-03-20T14:59:51Z</time>
      </trkpt>
      <trkpt lat="46.65167" lon="0.06079">
        <ele>138.4</ele>
        <time>2022-03-20T14:59:52Z</time>
      </trkpt>
      <trkpt lat="46.65167" lon="0.06074">
        <ele>138.4</ele>
        <time>2022-03-20T14:59:53Z</time>
      </trkpt>
      <trkpt lat="46.65167" lon="0.06068">
        <ele>138.6</ele>
        <time>2022-03-20T14:59:54Z</time>
      </trkpt>
      <trkpt lat="46.65168" lon="0.06062">
        <ele>138.6</ele>
        <time>2022-03-20T14:59:55Z</time>
      </trkpt>
      <trkpt lat="46.65168" lon="0.06056">
        <ele>139</ele>
        <time>2022-03-20T14:59:56Z</time>
      </trkpt>
      <trkpt lat="46.65168" lon="0.0605">
        <ele>139.2</ele>
        <time>2022-03-20T14:59:57Z</time>
      </trkpt>
      <trkpt lat="46.65169" lon="0.06045">
        <ele>139.2</ele>
        <time>2022-03-20T14:59:58Z</time>
      </trkpt>
      <trkpt lat="46.65169" lon="0.06039">
        <ele>139.4</ele>
        <time>2022-03-20T14:59:59Z</time>
      </trkpt>
      <trkpt lat="46.65169" lon="0.06033">
        <ele>139.4</ele>
        <time>2022-03-20T15:00:00Z</time>
      </trkpt>
      <trkpt lat="46.6517" lon="0.06028">
        <ele>139.6</ele>
        <time>2022-03-20T15:00:01Z</time>
      </trkpt>
      <trkpt lat="46.6517" lon="0.06022">
        <ele>139.6</ele>
        <time>2022-03-20T15:00:02Z</time>
      </trkpt>
      <trkpt lat="46.65169" lon="0.06018">
        <ele>139.8</ele>
        <time>2022-03-20T15:00:03Z</time>
      </trkpt>
      <trkpt lat="46.65167" lon="0.06013">
        <ele>140</ele>
        <time>2022-03-20T15:00:04Z</time>
      </trkpt>
      <trkpt lat="46.65164" lon="0.0601">
        <ele>140</ele>
        <time>2022-03-20T15:00:05Z</time>
      </trkpt>
      <trkpt lat="46.6516" lon="0.06007">
        <ele>140</ele>
        <time>2022-03-20T15:00:06Z</time>
      </trkpt>
      <trkpt lat="46.65156" lon="0.06004">
        <ele>140</ele>
        <time>2022-03-20T15:00:07Z</time>
      </trkpt>
      <trkpt lat="46.65152" lon="0.06002">
        <ele>140.2</ele>
        <time>2022-03-20T15:00:08Z</time>
      </trkpt>
      <trkpt lat="46.65148" lon="0.05999">
        <ele>140.4</ele>
        <time>2022-03-20T15:00:09Z</time>
      </trkpt>
      <trkpt lat="46.65144" lon="0.05996">
        <ele>140.4</ele>
        <time>2022-03-20T15:00:10Z</time>
      </trkpt>
      <trkpt lat="46.6514" lon="0.05994">
        <ele>140.4</ele>
        <time>2022-03-20T15:00:11Z</time>
      </trkpt>
      <trkpt lat="46.65136" lon="0.05991">
        <ele>140.6</ele>
        <time>2022-03-20T15:00:12Z</time>
      </trkpt>
      <trkpt lat="46.65131" lon="0.05989">
        <ele>140.6</ele>
        <time>2022-03-20T15:00:13Z</time>
      </trkpt>
      <trkpt lat="46.65127" lon="0.05987">
        <ele>140.6</ele>
        <time>2022-03-20T15:00:14Z</time>
      </trkpt>
      <trkpt lat="46.65122" lon="0.05984">
        <ele>140.8</ele>
        <time>2022-03-20T15:00:15Z</time>
      </trkpt>
      <trkpt lat="46.65118" lon="0.05982">
        <ele>140.8</ele>
        <time>2022-03-20T15:00:16Z</time>
      </trkpt>
      <trkpt lat="46.65114" lon="0.05979">
        <ele>141</ele>
        <time>2022-03-20T15:00:17Z</time>
      </trkpt>
      <trkpt lat="46.6511" lon="0.05977">
        <ele>141</ele>
        <time>2022-03-20T15:00:18Z</time>
      </trkpt>
      <trkpt lat="46.65105" lon="0.05975">
        <ele>141</ele>
        <time>2022-03-20T15:00:19Z</time>
      </trkpt>
      <trkpt lat="46.65102" lon="0.05972">
        <ele>141.2</ele>
        <time>2022-03-20T15:00:20Z</time>
      </trkpt>
      <trkpt lat="46.65097" lon="0.0597">
        <ele>141.2</ele>
        <time>2022-03-20T15:00:21Z</time>
      </trkpt>
      <trkpt lat="46.65093" lon="0.05968">
        <ele>141.4</ele>
        <time>2022-03-20T15:00:22Z</time>
      </trkpt>
      <trkpt lat="46.6509" lon="0.05966">
        <ele>141.4</ele>
        <time>2022-03-20T15:00:23Z</time>
      </trkpt>
      <trkpt lat="46.65086" lon="0.05963">
        <ele>141.6</ele>
        <time>2022-03-20T15:00:24Z</time>
      </trkpt>
      <trkpt lat="46.65082" lon="0.05961">
        <ele>141.8</ele>
        <time>2022-03-20T15:00:25Z</time>
      </trkpt>
      <trkpt lat="46.65078" lon="0.05959">
        <ele>142</ele>
        <time>2022-03-20T15:00:26Z</time>
      </trkpt>
      <trkpt lat="46.65074" lon="0.05957">
        <ele>142</ele>
        <time>2022-03-20T15:00:27Z</time>
      </trkpt>
      <trkpt lat="46.6507" lon="0.05954">
        <ele>142</ele>
        <time>2022-03-20T15:00:28Z</time>
      </trkpt>
      <trkpt lat="46.65054" lon="0.05943">
        <ele>142.4</ele>
        <time>2022-03-20T15:00:32Z</time>
      </trkpt>
      <trkpt lat="46.65042" lon="0.05935">
        <ele>142.6</ele>
        <time>2022-03-20T15:00:35Z</time>
      </trkpt>
      <trkpt lat="46.65026" lon="0.05925">
        <ele>143.2</ele>
        <time>2022-03-20T15:00:39Z</time>
      </trkpt>
      <trkpt lat="46.65022" lon="0.05922">
        <ele>143.2</ele>
        <time>2022-03-20T15:00:40Z</time>
      </trkpt>
      <trkpt lat="46.64999" lon="0.05909">
        <ele>144</ele>
        <time>2022-03-20T15:00:46Z</time>
      </trkpt>
      <trkpt lat="46.64995" lon="0.05907">
        <ele>144.2</ele>
        <time>2022-03-20T15:00:47Z</time>
      </trkpt>
      <trkpt lat="46.64991" lon="0.05905">
        <ele>144.2</ele>
        <time>2022-03-20T15:00:48Z</time>
      </trkpt>
      <trkpt lat="46.64987" lon="0.05903">
        <ele>144.4</ele>
        <time>2022-03-20T15:00:49Z</time>
      </trkpt>
      <trkpt lat="46.64983" lon="0.05902">
        <ele>144.6</ele>
        <time>2022-03-20T15:00:50Z</time>
      </trkpt>
      <trkpt lat="46.64979" lon="0.059">
        <ele>144.8</ele>
        <time>2022-03-20T15:00:51Z</time>
      </trkpt>
      <trkpt lat="46.64975" lon="0.05898">
        <ele>145.2</ele>
        <time>2022-03-20T15:00:52Z</time>
      </trkpt>
      <trkpt lat="46.6497" lon="0.05897">
        <ele>145.2</ele>
        <time>2022-03-20T15:00:53Z</time>
      </trkpt>
      <trkpt lat="46.64966" lon="0.05895">
        <ele>145.4</ele>
        <time>2022-03-20T15:00:54Z</time>
      </trkpt>
      <trkpt lat="46.64962" lon="0.05894">
        <ele>145.6</ele>
        <time>2022-03-20T15:00:55Z</time>
      </trkpt>
      <trkpt lat="46.64957" lon="0.05892">
        <ele>145.8</ele>
        <time>2022-03-20T15:00:56Z</time>
      </trkpt>
      <trkpt lat="46.64953" lon="0.0589">
        <ele>145.8</ele>
        <time>2022-03-20T15:00:57Z</time>
      </trkpt>
      <trkpt lat="46.64949" lon="0.05889">
        <ele>146</ele>
        <time>2022-03-20T15:00:58Z</time>
      </trkpt>
      <trkpt lat="46.64945" lon="0.05888">
        <ele>146.2</ele>
        <time>2022-03-20T15:00:59Z</time>
      </trkpt>
      <trkpt lat="46.64941" lon="0.05886">
        <ele>146.2</ele>
        <time>2022-03-20T15:01:00Z</time>
      </trkpt>
      <trkpt lat="46.64937" lon="0.05885">
        <ele>146.4</ele>
        <time>2022-03-20T15:01:01Z</time>
      </trkpt>
      <trkpt lat="46.64932" lon="0.05884">
        <ele>146.4</ele>
        <time>2022-03-20T15:01:02Z</time>
      </trkpt>
      <trkpt lat="46.64928" lon="0.05883">
        <ele>146.6</ele>
        <time>2022-03-20T15:01:03Z</time>
      </trkpt>
      <trkpt lat="46.64923" lon="0.05882">
        <ele>146.8</ele>
        <time>2022-03-20T15:01:04Z</time>
      </trkpt>
      <trkpt lat="46.64919" lon="0.05881">
        <ele>147</ele>
        <time>2022-03-20T15:01:05Z</time>
      </trkpt>
      <trkpt lat="46.64915" lon="0.05881">
        <ele>147.2</ele>
        <time>2022-03-20T15:01:06Z</time>
      </trkpt>
      <trkpt lat="46.64911" lon="0.0588">
        <ele>147.2</ele>
        <time>2022-03-20T15:01:07Z</time>
      </trkpt>
      <trkpt lat="46.64906" lon="0.05879">
        <ele>147.4</ele>
        <time>2022-03-20T15:01:08Z</time>
      </trkpt>
      <trkpt lat="46.64902" lon="0.05878">
        <ele>147.4</ele>
        <time>2022-03-20T15:01:09Z</time>
      </trkpt>
      <trkpt lat="46.64898" lon="0.05878">
        <ele>147.6</ele>
        <time>2022-03-20T15:01:10Z</time>
      </trkpt>
      <trkpt lat="46.64893" lon="0.05877">
        <ele>147.6</ele>
        <time>2022-03-20T15:01:11Z</time>
      </trkpt>
      <trkpt lat="46.64889" lon="0.05877">
        <ele>147.8</ele>
        <time>2022-03-20T15:01:12Z</time>
      </trkpt>
      <trkpt lat="46.64885" lon="0.05876">
        <ele>147.8</ele>
        <time>2022-03-20T15:01:13Z</time>
      </trkpt>
      <trkpt lat="46.6488" lon="0.05875">
        <ele>148</ele>
        <time>2022-03-20T15:01:14Z</time>
      </trkpt>
      <trkpt lat="46.64876" lon="0.05875">
        <ele>148</ele>
        <time>2022-03-20T15:01:15Z</time>
      </trkpt>
      <trkpt lat="46.64872" lon="0.05874">
        <ele>148</ele>
        <time>2022-03-20T15:01:16Z</time>
      </trkpt>
      <trkpt lat="46.64867" lon="0.05873">
        <ele>148</ele>
        <time>2022-03-20T15:01:17Z</time>
      </trkpt>
      <trkpt lat="46.64863" lon="0.05873">
        <ele>148</ele>
        <time>2022-03-20T15:01:18Z</time>
      </trkpt>
      <trkpt lat="46.64859" lon="0.05871">
        <ele>148.2</ele>
        <time>2022-03-20T15:01:19Z</time>
      </trkpt>
      <trkpt lat="46.64854" lon="0.0587">
        <ele>148.2</ele>
        <time>2022-03-20T15:01:20Z</time>
      </trkpt>
      <trkpt lat="46.6485" lon="0.0587">
        <ele>148.4</ele>
        <time>2022-03-20T15:01:21Z</time>
      </trkpt>
      <trkpt lat="46.64846" lon="0.05868">
        <ele>148.4</ele>
        <time>2022-03-20T15:01:22Z</time>
      </trkpt>
      <trkpt lat="46.64841" lon="0.05867">
        <ele>148.6</ele>
        <time>2022-03-20T15:01:23Z</time>
      </trkpt>
      <trkpt lat="46.64837" lon="0.05865">
        <ele>148.8</ele>
        <time>2022-03-20T15:01:24Z</time>
      </trkpt>
      <trkpt lat="46.64833" lon="0.05864">
        <ele>148.8</ele>
        <time>2022-03-20T15:01:25Z</time>
      </trkpt>
      <trkpt lat="46.64829" lon="0.05862">
        <ele>149</ele>
        <time>2022-03-20T15:01:26Z</time>
      </trkpt>
      <trkpt lat="46.64825" lon="0.05861">
        <ele>149.2</ele>
        <time>2022-03-20T15:01:27Z</time>
      </trkpt>
      <trkpt lat="46.64821" lon="0.05859">
        <ele>149.2</ele>
        <time>2022-03-20T15:01:28Z</time>
      </trkpt>
      <trkpt lat="46.64817" lon="0.05857">
        <ele>149.2</ele>
        <time>2022-03-20T15:01:29Z</time>
      </trkpt>
      <trkpt lat="46.64813" lon="0.05855">
        <ele>149.4</ele>
        <time>2022-03-20T15:01:30Z</time>
      </trkpt>
      <trkpt lat="46.64809" lon="0.05853">
        <ele>149.4</ele>
        <time>2022-03-20T15:01:31Z</time>
      </trkpt>
      <trkpt lat="46.64805" lon="0.05851">
        <ele>149.6</ele>
        <time>2022-03-20T15:01:32Z</time>
      </trkpt>
      <trkpt lat="46.64801" lon="0.05849">
        <ele>149.6</ele>
        <time>2022-03-20T15:01:33Z</time>
      </trkpt>
      <trkpt lat="46.64797" lon="0.05848">
        <ele>149.8</ele>
        <time>2022-03-20T15:01:34Z</time>
      </trkpt>
      <trkpt lat="46.64793" lon="0.05846">
        <ele>149.8</ele>
        <time>2022-03-20T15:01:35Z</time>
      </trkpt>
      <trkpt lat="46.64789" lon="0.05844">
        <ele>150</ele>
        <time>2022-03-20T15:01:36Z</time>
      </trkpt>
      <trkpt lat="46.64784" lon="0.05842">
        <ele>150.2</ele>
        <time>2022-03-20T15:01:37Z</time>
      </trkpt>
      <trkpt lat="46.64781" lon="0.0584">
        <ele>150.2</ele>
        <time>2022-03-20T15:01:38Z</time>
      </trkpt>
      <trkpt lat="46.64777" lon="0.05838">
        <ele>150.4</ele>
        <time>2022-03-20T15:01:39Z</time>
      </trkpt>
      <trkpt lat="46.64773" lon="0.05836">
        <ele>150.6</ele>
        <time>2022-03-20T15:01:40Z</time>
      </trkpt>
      <trkpt lat="46.64769" lon="0.05834">
        <ele>150.6</ele>
        <time>2022-03-20T15:01:41Z</time>
      </trkpt>
      <trkpt lat="46.64764" lon="0.05831">
        <ele>150.8</ele>
        <time>2022-03-20T15:01:42Z</time>
      </trkpt>
      <trkpt lat="46.64762" lon="0.05829">
        <ele>150.8</ele>
        <time>2022-03-20T15:01:43Z</time>
      </trkpt>
      <trkpt lat="46.6476" lon="0.05827">
        <ele>151.2</ele>
        <time>2022-03-20T15:01:45Z</time>
      </trkpt>
      <trkpt lat="46.64757" lon="0.05824">
        <ele>151.2</ele>
        <time>2022-03-20T15:01:46Z</time>
      </trkpt>
      <trkpt lat="46.64756" lon="0.05823">
        <ele>151.4</ele>
        <time>2022-03-20T15:01:47Z</time>
      </trkpt>
      <trkpt lat="46.64755" lon="0.05821">
        <ele>151.4</ele>
        <time>2022-03-20T15:01:48Z</time>
      </trkpt>
      <trkpt lat="46.64754" lon="0.0582">
        <ele>151.4</ele>
        <time>2022-03-20T15:01:49Z</time>
      </trkpt>
      <trkpt lat="46.64753" lon="0.05818">
        <ele>151.4</ele>
        <time>2022-03-20T15:01:50Z</time>
      </trkpt>
      <trkpt lat="46.6475" lon="0.05816">
        <ele>151.4</ele>
        <time>2022-03-20T15:01:51Z</time>
      </trkpt>
      <trkpt lat="46.64748" lon="0.05816">
        <ele>151.6</ele>
        <time>2022-03-20T15:01:52Z</time>
      </trkpt>
      <trkpt lat="46.64744" lon="0.05816">
        <ele>151.6</ele>
        <time>2022-03-20T15:01:53Z</time>
      </trkpt>
      <trkpt lat="46.64741" lon="0.05816">
        <ele>151.6</ele>
        <time>2022-03-20T15:01:54Z</time>
      </trkpt>
      <trkpt lat="46.64737" lon="0.05815">
        <ele>151.6</ele>
        <time>2022-03-20T15:01:55Z</time>
      </trkpt>
      <trkpt lat="46.64733" lon="0.05815">
        <ele>151.6</ele>
        <time>2022-03-20T15:01:56Z</time>
      </trkpt>
      <trkpt lat="46.64729" lon="0.05813">
        <ele>151.6</ele>
        <time>2022-03-20T15:01:57Z</time>
      </trkpt>
      <trkpt lat="46.64726" lon="0.05812">
        <ele>151.6</ele>
        <time>2022-03-20T15:01:58Z</time>
      </trkpt>
      <trkpt lat="46.64721" lon="0.05811">
        <ele>151.6</ele>
        <time>2022-03-20T15:01:59Z</time>
      </trkpt>
      <trkpt lat="46.64689" lon="0.05795">
        <ele>152</ele>
        <time>2022-03-20T15:02:07Z</time>
      </trkpt>
      <trkpt lat="46.64657" lon="0.05763">
        <ele>152.6</ele>
        <time>2022-03-20T15:02:16Z</time>
      </trkpt>
      <trkpt lat="46.64638" lon="0.05728">
        <ele>153</ele>
        <time>2022-03-20T15:02:23Z</time>
      </trkpt>
      <trkpt lat="46.64632" lon="0.05719">
        <ele>153.2</ele>
        <time>2022-03-20T15:02:25Z</time>
      </trkpt>
      <trkpt lat="46.64603" lon="0.05693">
        <ele>153.4</ele>
        <time>2022-03-20T15:02:33Z</time>
      </trkpt>
      <trkpt lat="46.64591" lon="0.05685">
        <ele>153.6</ele>
        <time>2022-03-20T15:02:36Z</time>
      </trkpt>
      <trkpt lat="46.64587" lon="0.05682">
        <ele>153.6</ele>
        <time>2022-03-20T15:02:37Z</time>
      </trkpt>
      <trkpt lat="46.64584" lon="0.0568">
        <ele>153.6</ele>
        <time>2022-03-20T15:02:38Z</time>
      </trkpt>
      <trkpt lat="46.6458" lon="0.05678">
        <ele>153.6</ele>
        <time>2022-03-20T15:02:39Z</time>
      </trkpt>
      <trkpt lat="46.64576" lon="0.05675">
        <ele>153.6</ele>
        <time>2022-03-20T15:02:40Z</time>
      </trkpt>
      <trkpt lat="46.64572" lon="0.05672">
        <ele>153.6</ele>
        <time>2022-03-20T15:02:41Z</time>
      </trkpt>
      <trkpt lat="46.64568" lon="0.0567">
        <ele>153.8</ele>
        <time>2022-03-20T15:02:42Z</time>
      </trkpt>
      <trkpt lat="46.64565" lon="0.05667">
        <ele>154</ele>
        <time>2022-03-20T15:02:43Z</time>
      </trkpt>
      <trkpt lat="46.64561" lon="0.05665">
        <ele>154</ele>
        <time>2022-03-20T15:02:44Z</time>
      </trkpt>
      <trkpt lat="46.64529" lon="0.05644">
        <ele>154.6</ele>
        <time>2022-03-20T15:02:52Z</time>
      </trkpt>
      <trkpt lat="46.64514" lon="0.05636">
        <ele>154.6</ele>
        <time>2022-03-20T15:02:56Z</time>
      </trkpt>
      <trkpt lat="46.64488" lon="0.05626">
        <ele>154.4</ele>
        <time>2022-03-20T15:03:02Z</time>
      </trkpt>
      <trkpt lat="46.6444" lon="0.05611">
        <ele>154.8</ele>
        <time>2022-03-20T15:03:13Z</time>
      </trkpt>
      <trkpt lat="46.64436" lon="0.05609">
        <ele>154.8</ele>
        <time>2022-03-20T15:03:15Z</time>
      </trkpt>
      <trkpt lat="46.64414" lon="0.05598">
        <ele>155</ele>
        <time>2022-03-20T15:03:20Z</time>
      </trkpt>
      <trkpt lat="46.64411" lon="0.05596">
        <ele>155</ele>
        <time>2022-03-20T15:03:21Z</time>
      </trkpt>
      <trkpt lat="46.64399" lon="0.0559">
        <ele>155</ele>
        <time>2022-03-20T15:03:24Z</time>
      </trkpt>
      <trkpt lat="46.64395" lon="0.05588">
        <ele>155</ele>
        <time>2022-03-20T15:03:25Z</time>
      </trkpt>
      <trkpt lat="46.64391" lon="0.05586">
        <ele>155</ele>
        <time>2022-03-20T15:03:26Z</time>
      </trkpt>
      <trkpt lat="46.64387" lon="0.05584">
        <ele>154.8</ele>
        <time>2022-03-20T15:03:27Z</time>
      </trkpt>
      <trkpt lat="46.64357" lon="0.05564">
        <ele>155.2</ele>
        <time>2022-03-20T15:03:35Z</time>
      </trkpt>
      <trkpt lat="46.64354" lon="0.05561">
        <ele>155.2</ele>
        <time>2022-03-20T15:03:36Z</time>
      </trkpt>
      <trkpt lat="46.64348" lon="0.05556">
        <ele>155.2</ele>
        <time>2022-03-20T15:03:38Z</time>
      </trkpt>
      <trkpt lat="46.64345" lon="0.05553">
        <ele>155.2</ele>
        <time>2022-03-20T15:03:39Z</time>
      </trkpt>
      <trkpt lat="46.64343" lon="0.0555">
        <ele>155.2</ele>
        <time>2022-03-20T15:03:40Z</time>
      </trkpt>
      <trkpt lat="46.6434" lon="0.05546">
        <ele>155.2</ele>
        <time>2022-03-20T15:03:41Z</time>
      </trkpt>
      <trkpt lat="46.64337" lon="0.05542">
        <ele>155.2</ele>
        <time>2022-03-20T15:03:42Z</time>
      </trkpt>
      <trkpt lat="46.64334" lon="0.05538">
        <ele>155.4</ele>
        <time>2022-03-20T15:03:43Z</time>
      </trkpt>
      <trkpt lat="46.64306" lon="0.05501">
        <ele>156.2</ele>
        <time>2022-03-20T15:03:52Z</time>
      </trkpt>
      <trkpt lat="46.64278" lon="0.05465">
        <ele>156.4</ele>
        <time>2022-03-20T15:04:01Z</time>
      </trkpt>
      <trkpt lat="46.64275" lon="0.05461">
        <ele>156.4</ele>
        <time>2022-03-20T15:04:02Z</time>
      </trkpt>
      <trkpt lat="46.64271" lon="0.05457">
        <ele>156.4</ele>
        <time>2022-03-20T15:04:03Z</time>
      </trkpt>
      <trkpt lat="46.64268" lon="0.05453">
        <ele>156.6</ele>
        <time>2022-03-20T15:04:04Z</time>
      </trkpt>
      <trkpt lat="46.64249" lon="0.05428">
        <ele>156.8</ele>
        <time>2022-03-20T15:04:10Z</time>
      </trkpt>
      <trkpt lat="46.64231" lon="0.05404">
        <ele>157</ele>
        <time>2022-03-20T15:04:16Z</time>
      </trkpt>
      <trkpt lat="46.64228" lon="0.054">
        <ele>157</ele>
        <time>2022-03-20T15:04:17Z</time>
      </trkpt>
      <trkpt lat="46.64225" lon="0.05397">
        <ele>157</ele>
        <time>2022-03-20T15:04:18Z</time>
      </trkpt>
      <trkpt lat="46.64222" lon="0.05393">
        <ele>157</ele>
        <time>2022-03-20T15:04:19Z</time>
      </trkpt>
      <trkpt lat="46.64219" lon="0.05389">
        <ele>156.8</ele>
        <time>2022-03-20T15:04:20Z</time>
      </trkpt>
      <trkpt lat="46.64216" lon="0.05385">
        <ele>156.8</ele>
        <time>2022-03-20T15:04:21Z</time>
      </trkpt>
      <trkpt lat="46.64213" lon="0.05381">
        <ele>156.8</ele>
        <time>2022-03-20T15:04:22Z</time>
      </trkpt>
      <trkpt lat="46.6421" lon="0.05378">
        <ele>156.8</ele>
        <time>2022-03-20T15:04:23Z</time>
      </trkpt>
      <trkpt lat="46.64207" lon="0.05374">
        <ele>156.8</ele>
        <time>2022-03-20T15:04:24Z</time>
      </trkpt>
      <trkpt lat="46.64205" lon="0.0537">
        <ele>156.8</ele>
        <time>2022-03-20T15:04:25Z</time>
      </trkpt>
      <trkpt lat="46.64202" lon="0.05367">
        <ele>156.8</ele>
        <time>2022-03-20T15:04:26Z</time>
      </trkpt>
      <trkpt lat="46.64196" lon="0.0536">
        <ele>156.8</ele>
        <time>2022-03-20T15:04:28Z</time>
      </trkpt>
      <trkpt lat="46.64193" lon="0.05356">
        <ele>156.6</ele>
        <time>2022-03-20T15:04:29Z</time>
      </trkpt>
      <trkpt lat="46.64191" lon="0.05352">
        <ele>156.6</ele>
        <time>2022-03-20T15:04:30Z</time>
      </trkpt>
      <trkpt lat="46.64179" lon="0.05338">
        <ele>156.6</ele>
        <time>2022-03-20T15:04:34Z</time>
      </trkpt>
      <trkpt lat="46.64168" lon="0.05324">
        <ele>156.4</ele>
        <time>2022-03-20T15:04:38Z</time>
      </trkpt>
      <trkpt lat="46.64166" lon="0.05321">
        <ele>156.4</ele>
        <time>2022-03-20T15:04:39Z</time>
      </trkpt>
      <trkpt lat="46.64163" lon="0.05318">
        <ele>156.6</ele>
        <time>2022-03-20T15:04:40Z</time>
      </trkpt>
      <trkpt lat="46.64161" lon="0.05314">
        <ele>156.6</ele>
        <time>2022-03-20T15:04:41Z</time>
      </trkpt>
      <trkpt lat="46.64159" lon="0.05311">
        <ele>156.6</ele>
        <time>2022-03-20T15:04:42Z</time>
      </trkpt>
      <trkpt lat="46.64156" lon="0.05307">
        <ele>156.6</ele>
        <time>2022-03-20T15:04:43Z</time>
      </trkpt>
      <trkpt lat="46.64153" lon="0.05304">
        <ele>156.6</ele>
        <time>2022-03-20T15:04:44Z</time>
      </trkpt>
      <trkpt lat="46.6415" lon="0.05301">
        <ele>156.8</ele>
        <time>2022-03-20T15:04:45Z</time>
      </trkpt>
      <trkpt lat="46.64126" lon="0.0527">
        <ele>156.8</ele>
        <time>2022-03-20T15:04:54Z</time>
      </trkpt>
      <trkpt lat="46.64123" lon="0.05267">
        <ele>156.8</ele>
        <time>2022-03-20T15:04:55Z</time>
      </trkpt>
      <trkpt lat="46.64121" lon="0.05263">
        <ele>156.8</ele>
        <time>2022-03-20T15:04:56Z</time>
      </trkpt>
      <trkpt lat="46.64116" lon="0.05257">
        <ele>156.8</ele>
        <time>2022-03-20T15:04:58Z</time>
      </trkpt>
      <trkpt lat="46.64113" lon="0.05254">
        <ele>157.2</ele>
        <time>2022-03-20T15:04:59Z</time>
      </trkpt>
      <trkpt lat="46.6411" lon="0.05252">
        <ele>157.2</ele>
        <time>2022-03-20T15:05:00Z</time>
      </trkpt>
      <trkpt lat="46.64102" lon="0.05243">
        <ele>157.6</ele>
        <time>2022-03-20T15:05:03Z</time>
      </trkpt>
      <trkpt lat="46.641" lon="0.0524">
        <ele>157.6</ele>
        <time>2022-03-20T15:05:04Z</time>
      </trkpt>
      <trkpt lat="46.64062" lon="0.05193">
        <ele>157</ele>
        <time>2022-03-20T15:05:18Z</time>
      </trkpt>
      <trkpt lat="46.6406" lon="0.05189">
        <ele>157</ele>
        <time>2022-03-20T15:05:19Z</time>
      </trkpt>
      <trkpt lat="46.64057" lon="0.05186">
        <ele>157</ele>
        <time>2022-03-20T15:05:20Z</time>
      </trkpt>
      <trkpt lat="46.64055" lon="0.05183">
        <ele>157</ele>
        <time>2022-03-20T15:05:21Z</time>
      </trkpt>
      <trkpt lat="46.64052" lon="0.05179">
        <ele>157</ele>
        <time>2022-03-20T15:05:22Z</time>
      </trkpt>
      <trkpt lat="46.6405" lon="0.05176">
        <ele>157</ele>
        <time>2022-03-20T15:05:23Z</time>
      </trkpt>
      <trkpt lat="46.64047" lon="0.05173">
        <ele>157.2</ele>
        <time>2022-03-20T15:05:24Z</time>
      </trkpt>
      <trkpt lat="46.64045" lon="0.05171">
        <ele>157.2</ele>
        <time>2022-03-20T15:05:25Z</time>
      </trkpt>
      <trkpt lat="46.64043" lon="0.0517">
        <ele>157.2</ele>
        <time>2022-03-20T15:05:26Z</time>
      </trkpt>
      <trkpt lat="46.6404" lon="0.05169">
        <ele>157.2</ele>
        <time>2022-03-20T15:05:27Z</time>
      </trkpt>
      <trkpt lat="46.64038" lon="0.0517">
        <ele>157.2</ele>
        <time>2022-03-20T15:05:28Z</time>
      </trkpt>
      <trkpt lat="46.64036" lon="0.05172">
        <ele>157.2</ele>
        <time>2022-03-20T15:05:29Z</time>
      </trkpt>
      <trkpt lat="46.64034" lon="0.05175">
        <ele>157.2</ele>
        <time>2022-03-20T15:05:30Z</time>
      </trkpt>
      <trkpt lat="46.6403" lon="0.05182">
        <ele>157.2</ele>
        <time>2022-03-20T15:05:32Z</time>
      </trkpt>
      <trkpt lat="46.64028" lon="0.05186">
        <ele>157</ele>
        <time>2022-03-20T15:05:33Z</time>
      </trkpt>
      <trkpt lat="46.64019" lon="0.05207">
        <ele>156.8</ele>
        <time>2022-03-20T15:05:38Z</time>
      </trkpt>
      <trkpt lat="46.64001" lon="0.05255">
        <ele>156.8</ele>
        <time>2022-03-20T15:05:48Z</time>
      </trkpt>
      <trkpt lat="46.63982" lon="0.05312">
        <ele>156.6</ele>
        <time>2022-03-20T15:05:59Z</time>
      </trkpt>
      <trkpt lat="46.63966" lon="0.05359">
        <ele>156.4</ele>
        <time>2022-03-20T15:06:08Z</time>
      </trkpt>
      <trkpt lat="46.63957" lon="0.05388">
        <ele>156.6</ele>
        <time>2022-03-20T15:06:13Z</time>
      </trkpt>
      <trkpt lat="46.63956" lon="0.05391">
        <ele>156.6</ele>
        <time>2022-03-20T15:06:14Z</time>
      </trkpt>
      <trkpt lat="46.63955" lon="0.05393">
        <ele>156.6</ele>
        <time>2022-03-20T15:06:15Z</time>
      </trkpt>
      <trkpt lat="46.63953" lon="0.054">
        <ele>156.6</ele>
        <time>2022-03-20T15:06:16Z</time>
      </trkpt>
      <trkpt lat="46.63938" lon="0.05443">
        <ele>156.2</ele>
        <time>2022-03-20T15:06:24Z</time>
      </trkpt>
      <trkpt lat="46.63934" lon="0.05454">
        <ele>156.2</ele>
        <time>2022-03-20T15:06:26Z</time>
      </trkpt>
      <trkpt lat="46.63914" lon="0.05511">
        <ele>156</ele>
        <time>2022-03-20T15:06:36Z</time>
      </trkpt>
      <trkpt lat="46.6389" lon="0.05577">
        <ele>155.8</ele>
        <time>2022-03-20T15:06:47Z</time>
      </trkpt>
      <trkpt lat="46.63883" lon="0.05595">
        <ele>155.4</ele>
        <time>2022-03-20T15:06:50Z</time>
      </trkpt>
      <trkpt lat="46.63877" lon="0.05605">
        <ele>155.2</ele>
        <time>2022-03-20T15:06:52Z</time>
      </trkpt>
      <trkpt lat="46.63874" lon="0.0561">
        <ele>155</ele>
        <time>2022-03-20T15:06:53Z</time>
      </trkpt>
      <trkpt lat="46.63868" lon="0.05619">
        <ele>154.8</ele>
        <time>2022-03-20T15:06:55Z</time>
      </trkpt>
      <trkpt lat="46.63864" lon="0.05624">
        <ele>154.8</ele>
        <time>2022-03-20T15:06:56Z</time>
      </trkpt>
      <trkpt lat="46.63861" lon="0.05628">
        <ele>154.6</ele>
        <time>2022-03-20T15:06:57Z</time>
      </trkpt>
      <trkpt lat="46.63858" lon="0.05633">
        <ele>154.4</ele>
        <time>2022-03-20T15:06:58Z</time>
      </trkpt>
      <trkpt lat="46.63855" lon="0.05637">
        <ele>154.2</ele>
        <time>2022-03-20T15:06:59Z</time>
      </trkpt>
      <trkpt lat="46.63851" lon="0.05641">
        <ele>154.2</ele>
        <time>2022-03-20T15:07:00Z</time>
      </trkpt>
      <trkpt lat="46.63848" lon="0.05646">
        <ele>154.2</ele>
        <time>2022-03-20T15:07:01Z</time>
      </trkpt>
      <trkpt lat="46.63845" lon="0.0565">
        <ele>154.2</ele>
        <time>2022-03-20T15:07:02Z</time>
      </trkpt>
      <trkpt lat="46.63842" lon="0.05655">
        <ele>154</ele>
        <time>2022-03-20T15:07:03Z</time>
      </trkpt>
      <trkpt lat="46.63825" lon="0.05677">
        <ele>153.6</ele>
        <time>2022-03-20T15:07:08Z</time>
      </trkpt>
      <trkpt lat="46.63822" lon="0.05682">
        <ele>153.6</ele>
        <time>2022-03-20T15:07:09Z</time>
      </trkpt>
      <trkpt lat="46.63815" lon="0.05691">
        <ele>153.6</ele>
        <time>2022-03-20T15:07:11Z</time>
      </trkpt>
      <trkpt lat="46.63801" lon="0.05711">
        <ele>153.2</ele>
        <time>2022-03-20T15:07:16Z</time>
      </trkpt>
      <trkpt lat="46.63799" lon="0.05714">
        <ele>153</ele>
        <time>2022-03-20T15:07:17Z</time>
      </trkpt>
      <trkpt lat="46.63796" lon="0.05717">
        <ele>153</ele>
        <time>2022-03-20T15:07:18Z</time>
      </trkpt>
      <trkpt lat="46.63794" lon="0.0572">
        <ele>152.8</ele>
        <time>2022-03-20T15:07:19Z</time>
      </trkpt>
      <trkpt lat="46.63792" lon="0.05724">
        <ele>152.8</ele>
        <time>2022-03-20T15:07:20Z</time>
      </trkpt>
      <trkpt lat="46.6379" lon="0.05727">
        <ele>152.8</ele>
        <time>2022-03-20T15:07:21Z</time>
      </trkpt>
      <trkpt lat="46.63788" lon="0.0573">
        <ele>152.8</ele>
        <time>2022-03-20T15:07:22Z</time>
      </trkpt>
      <trkpt lat="46.63786" lon="0.05732">
        <ele>152.8</ele>
        <time>2022-03-20T15:07:23Z</time>
      </trkpt>
      <trkpt lat="46.63784" lon="0.05734">
        <ele>152.6</ele>
        <time>2022-03-20T15:07:24Z</time>
      </trkpt>
      <trkpt lat="46.63782" lon="0.05736">
        <ele>152.6</ele>
        <time>2022-03-20T15:07:25Z</time>
      </trkpt>
      <trkpt lat="46.63781" lon="0.05737">
        <ele>152.4</ele>
        <time>2022-03-20T15:07:26Z</time>
      </trkpt>
      <trkpt lat="46.63779" lon="0.05736">
        <ele>152.4</ele>
        <time>2022-03-20T15:07:27Z</time>
      </trkpt>
      <trkpt lat="46.63777" lon="0.05735">
        <ele>152.4</ele>
        <time>2022-03-20T15:07:28Z</time>
      </trkpt>
      <trkpt lat="46.63776" lon="0.05732">
        <ele>152.4</ele>
        <time>2022-03-20T15:07:29Z</time>
      </trkpt>
      <trkpt lat="46.63768" lon="0.05703">
        <ele>152.4</ele>
        <time>2022-03-20T15:07:36Z</time>
      </trkpt>
      <trkpt lat="46.63761" lon="0.05683">
        <ele>152.6</ele>
        <time>2022-03-20T15:07:40Z</time>
      </trkpt>
      <trkpt lat="46.63756" lon="0.05668">
        <ele>152.8</ele>
        <time>2022-03-20T15:07:43Z</time>
      </trkpt>
      <trkpt lat="46.6374" lon="0.05614">
        <ele>153.6</ele>
        <time>2022-03-20T15:07:53Z</time>
      </trkpt>
      <trkpt lat="46.63728" lon="0.05581">
        <ele>154</ele>
        <time>2022-03-20T15:07:59Z</time>
      </trkpt>
      <trkpt lat="46.6372" lon="0.05557">
        <ele>154.4</ele>
        <time>2022-03-20T15:08:03Z</time>
      </trkpt>
      <trkpt lat="46.63706" lon="0.05518">
        <ele>154.6</ele>
        <time>2022-03-20T15:08:10Z</time>
      </trkpt>
      <trkpt lat="46.637" lon="0.05503">
        <ele>154.8</ele>
        <time>2022-03-20T15:08:12Z</time>
      </trkpt>
      <trkpt lat="46.63698" lon="0.05498">
        <ele>155</ele>
        <time>2022-03-20T15:08:14Z</time>
      </trkpt>
      <trkpt lat="46.63682" lon="0.0546">
        <ele>154.8</ele>
        <time>2022-03-20T15:08:20Z</time>
      </trkpt>
      <trkpt lat="46.63672" lon="0.0543">
        <ele>154.8</ele>
        <time>2022-03-20T15:08:25Z</time>
      </trkpt>
      <trkpt lat="46.6367" lon="0.05425">
        <ele>154.8</ele>
        <time>2022-03-20T15:08:26Z</time>
      </trkpt>
      <trkpt lat="46.63668" lon="0.0542">
        <ele>154.8</ele>
        <time>2022-03-20T15:08:27Z</time>
      </trkpt>
      <trkpt lat="46.63666" lon="0.05416">
        <ele>154.8</ele>
        <time>2022-03-20T15:08:28Z</time>
      </trkpt>
      <trkpt lat="46.63664" lon="0.05413">
        <ele>154.6</ele>
        <time>2022-03-20T15:08:29Z</time>
      </trkpt>
      <trkpt lat="46.63662" lon="0.05411">
        <ele>154.6</ele>
        <time>2022-03-20T15:08:30Z</time>
      </trkpt>
      <trkpt lat="46.63659" lon="0.0541">
        <ele>154.6</ele>
        <time>2022-03-20T15:08:31Z</time>
      </trkpt>
      <trkpt lat="46.63656" lon="0.0541">
        <ele>154.6</ele>
        <time>2022-03-20T15:08:32Z</time>
      </trkpt>
      <trkpt lat="46.63654" lon="0.05412">
        <ele>154.2</ele>
        <time>2022-03-20T15:08:33Z</time>
      </trkpt>
      <trkpt lat="46.6365" lon="0.05415">
        <ele>154.2</ele>
        <time>2022-03-20T15:08:35Z</time>
      </trkpt>
      <trkpt lat="46.63647" lon="0.05417">
        <ele>154.2</ele>
        <time>2022-03-20T15:08:36Z</time>
      </trkpt>
      <trkpt lat="46.63644" lon="0.05419">
        <ele>154.2</ele>
        <time>2022-03-20T15:08:37Z</time>
      </trkpt>
      <trkpt lat="46.63641" lon="0.05422">
        <ele>154</ele>
        <time>2022-03-20T15:08:38Z</time>
      </trkpt>
      <trkpt lat="46.63638" lon="0.05424">
        <ele>154</ele>
        <time>2022-03-20T15:08:39Z</time>
      </trkpt>
      <trkpt lat="46.63614" lon="0.0544">
        <ele>153.8</ele>
        <time>2022-03-20T15:08:45Z</time>
      </trkpt>
      <trkpt lat="46.6361" lon="0.05442">
        <ele>153.6</ele>
        <time>2022-03-20T15:08:46Z</time>
      </trkpt>
      <trkpt lat="46.63584" lon="0.05459">
        <ele>153.4</ele>
        <time>2022-03-20T15:08:52Z</time>
      </trkpt>
      <trkpt lat="46.63537" lon="0.05491">
        <ele>153.2</ele>
        <time>2022-03-20T15:09:03Z</time>
      </trkpt>
      <trkpt lat="46.63533" lon="0.05495">
        <ele>153.2</ele>
        <time>2022-03-20T15:09:04Z</time>
      </trkpt>
      <trkpt lat="46.63522" lon="0.05508">
        <ele>153.2</ele>
        <time>2022-03-20T15:09:07Z</time>
      </trkpt>
      <trkpt lat="46.63514" lon="0.05516">
        <ele>153</ele>
        <time>2022-03-20T15:09:09Z</time>
      </trkpt>
      <trkpt lat="46.63506" lon="0.05522">
        <ele>153</ele>
        <time>2022-03-20T15:09:11Z</time>
      </trkpt>
      <trkpt lat="46.63461" lon="0.0555">
        <ele>152.2</ele>
        <time>2022-03-20T15:09:21Z</time>
      </trkpt>
      <trkpt lat="46.63443" lon="0.05559">
        <ele>152</ele>
        <time>2022-03-20T15:09:25Z</time>
      </trkpt>
      <trkpt lat="46.63439" lon="0.05562">
        <ele>152</ele>
        <time>2022-03-20T15:09:26Z</time>
      </trkpt>
      <trkpt lat="46.63436" lon="0.05564">
        <ele>152</ele>
        <time>2022-03-20T15:09:27Z</time>
      </trkpt>
      <trkpt lat="46.63431" lon="0.05567">
        <ele>151.8</ele>
        <time>2022-03-20T15:09:28Z</time>
      </trkpt>
      <trkpt lat="46.63424" lon="0.05572">
        <ele>151.8</ele>
        <time>2022-03-20T15:09:30Z</time>
      </trkpt>
      <trkpt lat="46.6342" lon="0.05575">
        <ele>151.8</ele>
        <time>2022-03-20T15:09:31Z</time>
      </trkpt>
      <trkpt lat="46.63417" lon="0.05578">
        <ele>151.8</ele>
        <time>2022-03-20T15:09:32Z</time>
      </trkpt>
      <trkpt lat="46.63414" lon="0.05581">
        <ele>151.8</ele>
        <time>2022-03-20T15:09:33Z</time>
      </trkpt>
      <trkpt lat="46.6341" lon="0.05584">
        <ele>151.6</ele>
        <time>2022-03-20T15:09:34Z</time>
      </trkpt>
      <trkpt lat="46.63406" lon="0.05587">
        <ele>151.6</ele>
        <time>2022-03-20T15:09:35Z</time>
      </trkpt>
      <trkpt lat="46.63402" lon="0.0559">
        <ele>151.6</ele>
        <time>2022-03-20T15:09:36Z</time>
      </trkpt>
      <trkpt lat="46.63399" lon="0.05593">
        <ele>151.4</ele>
        <time>2022-03-20T15:09:37Z</time>
      </trkpt>
      <trkpt lat="46.63396" lon="0.05596">
        <ele>151.4</ele>
        <time>2022-03-20T15:09:38Z</time>
      </trkpt>
      <trkpt lat="46.63392" lon="0.056">
        <ele>151.4</ele>
        <time>2022-03-20T15:09:39Z</time>
      </trkpt>
      <trkpt lat="46.63375" lon="0.05619">
        <ele>151.6</ele>
        <time>2022-03-20T15:09:43Z</time>
      </trkpt>
      <trkpt lat="46.63373" lon="0.05621">
        <ele>151.6</ele>
        <time>2022-03-20T15:09:44Z</time>
      </trkpt>
      <trkpt lat="46.63372" lon="0.05623">
        <ele>151.6</ele>
        <time>2022-03-20T15:09:45Z</time>
      </trkpt>
      <trkpt lat="46.63353" lon="0.0564">
        <ele>151.4</ele>
        <time>2022-03-20T15:09:49Z</time>
      </trkpt>
      <trkpt lat="46.63331" lon="0.05654">
        <ele>151</ele>
        <time>2022-03-20T15:09:54Z</time>
      </trkpt>
      <trkpt lat="46.63321" lon="0.05656">
        <ele>151</ele>
        <time>2022-03-20T15:09:56Z</time>
      </trkpt>
      <trkpt lat="46.63317" lon="0.05657">
        <ele>150.8</ele>
        <time>2022-03-20T15:09:57Z</time>
      </trkpt>
      <trkpt lat="46.63275" lon="0.05666">
        <ele>150.2</ele>
        <time>2022-03-20T15:10:06Z</time>
      </trkpt>
      <trkpt lat="46.6327" lon="0.05667">
        <ele>150.2</ele>
        <time>2022-03-20T15:10:07Z</time>
      </trkpt>
      <trkpt lat="46.63262" lon="0.0567">
        <ele>150</ele>
        <time>2022-03-20T15:10:09Z</time>
      </trkpt>
      <trkpt lat="46.63257" lon="0.05671">
        <ele>150</ele>
        <time>2022-03-20T15:10:10Z</time>
      </trkpt>
      <trkpt lat="46.63254" lon="0.05671">
        <ele>150</ele>
        <time>2022-03-20T15:10:11Z</time>
      </trkpt>
      <trkpt lat="46.6325" lon="0.05673">
        <ele>150</ele>
        <time>2022-03-20T15:10:12Z</time>
      </trkpt>
      <trkpt lat="46.63246" lon="0.05674">
        <ele>150</ele>
        <time>2022-03-20T15:10:13Z</time>
      </trkpt>
      <trkpt lat="46.63243" lon="0.05675">
        <ele>149.8</ele>
        <time>2022-03-20T15:10:14Z</time>
      </trkpt>
      <trkpt lat="46.63239" lon="0.05675">
        <ele>149.8</ele>
        <time>2022-03-20T15:10:15Z</time>
      </trkpt>
      <trkpt lat="46.63235" lon="0.05677">
        <ele>149.8</ele>
        <time>2022-03-20T15:10:16Z</time>
      </trkpt>
      <trkpt lat="46.63231" lon="0.05678">
        <ele>149.8</ele>
        <time>2022-03-20T15:10:17Z</time>
      </trkpt>
      <trkpt lat="46.63228" lon="0.0568">
        <ele>149.6</ele>
        <time>2022-03-20T15:10:18Z</time>
      </trkpt>
      <trkpt lat="46.63223" lon="0.05681">
        <ele>149.6</ele>
        <time>2022-03-20T15:10:19Z</time>
      </trkpt>
      <trkpt lat="46.63219" lon="0.05682">
        <ele>149.6</ele>
        <time>2022-03-20T15:10:20Z</time>
      </trkpt>
      <trkpt lat="46.63206" lon="0.05686">
        <ele>149.4</ele>
        <time>2022-03-20T15:10:23Z</time>
      </trkpt>
      <trkpt lat="46.63192" lon="0.05688">
        <ele>149.2</ele>
        <time>2022-03-20T15:10:26Z</time>
      </trkpt>
      <trkpt lat="46.63157" lon="0.05693">
        <ele>149</ele>
        <time>2022-03-20T15:10:33Z</time>
      </trkpt>
      <trkpt lat="46.63151" lon="0.05693">
        <ele>148.8</ele>
        <time>2022-03-20T15:10:34Z</time>
      </trkpt>
      <trkpt lat="46.63146" lon="0.05693">
        <ele>148.8</ele>
        <time>2022-03-20T15:10:35Z</time>
      </trkpt>
      <trkpt lat="46.63117" lon="0.05691">
        <ele>147.8</ele>
        <time>2022-03-20T15:10:40Z</time>
      </trkpt>
      <trkpt lat="46.63101" lon="0.0569">
        <ele>146.6</ele>
        <time>2022-03-20T15:10:43Z</time>
      </trkpt>
      <trkpt lat="46.63097" lon="0.0569">
        <ele>146.6</ele>
        <time>2022-03-20T15:10:44Z</time>
      </trkpt>
      <trkpt lat="46.63093" lon="0.0569">
        <ele>146.2</ele>
        <time>2022-03-20T15:10:45Z</time>
      </trkpt>
      <trkpt lat="46.63089" lon="0.0569">
        <ele>146</ele>
        <time>2022-03-20T15:10:46Z</time>
      </trkpt>
      <trkpt lat="46.63085" lon="0.05691">
        <ele>146</ele>
        <time>2022-03-20T15:10:47Z</time>
      </trkpt>
      <trkpt lat="46.63082" lon="0.05693">
        <ele>145.8</ele>
        <time>2022-03-20T15:10:48Z</time>
      </trkpt>
      <trkpt lat="46.63079" lon="0.05696">
        <ele>145.8</ele>
        <time>2022-03-20T15:10:49Z</time>
      </trkpt>
      <trkpt lat="46.63077" lon="0.05699">
        <ele>145.4</ele>
        <time>2022-03-20T15:10:50Z</time>
      </trkpt>
      <trkpt lat="46.63075" lon="0.05703">
        <ele>145.4</ele>
        <time>2022-03-20T15:10:51Z</time>
      </trkpt>
      <trkpt lat="46.63074" lon="0.05707">
        <ele>145</ele>
        <time>2022-03-20T15:10:52Z</time>
      </trkpt>
      <trkpt lat="46.63073" lon="0.05711">
        <ele>144.8</ele>
        <time>2022-03-20T15:10:53Z</time>
      </trkpt>
      <trkpt lat="46.63072" lon="0.05716">
        <ele>144.6</ele>
        <time>2022-03-20T15:10:54Z</time>
      </trkpt>
      <trkpt lat="46.63072" lon="0.05721">
        <ele>144.4</ele>
        <time>2022-03-20T15:10:55Z</time>
      </trkpt>
      <trkpt lat="46.63066" lon="0.05771">
        <ele>144.6</ele>
        <time>2022-03-20T15:11:04Z</time>
      </trkpt>
      <trkpt lat="46.63062" lon="0.05791">
        <ele>144.6</ele>
        <time>2022-03-20T15:11:07Z</time>
      </trkpt>
      <trkpt lat="46.63061" lon="0.05798">
        <ele>144.6</ele>
        <time>2022-03-20T15:11:08Z</time>
      </trkpt>
      <trkpt lat="46.63058" lon="0.05813">
        <ele>144.6</ele>
        <time>2022-03-20T15:11:10Z</time>
      </trkpt>
      <trkpt lat="46.63049" lon="0.05852">
        <ele>143.8</ele>
        <time>2022-03-20T15:11:15Z</time>
      </trkpt>
      <trkpt lat="46.63047" lon="0.05868">
        <ele>143.2</ele>
        <time>2022-03-20T15:11:17Z</time>
      </trkpt>
      <trkpt lat="46.63038" lon="0.05903">
        <ele>143</ele>
        <time>2022-03-20T15:11:21Z</time>
      </trkpt>
      <trkpt lat="46.63035" lon="0.05914">
        <ele>142.8</ele>
        <time>2022-03-20T15:11:24Z</time>
      </trkpt>
      <trkpt lat="46.63034" lon="0.05919">
        <ele>142.8</ele>
        <time>2022-03-20T15:11:25Z</time>
      </trkpt>
      <trkpt lat="46.63032" lon="0.05925">
        <ele>142.8</ele>
        <time>2022-03-20T15:11:26Z</time>
      </trkpt>
      <trkpt lat="46.6303" lon="0.05932">
        <ele>142.8</ele>
        <time>2022-03-20T15:11:27Z</time>
      </trkpt>
      <trkpt lat="46.63029" lon="0.05937">
        <ele>142.6</ele>
        <time>2022-03-20T15:11:28Z</time>
      </trkpt>
      <trkpt lat="46.63027" lon="0.05943">
        <ele>142.6</ele>
        <time>2022-03-20T15:11:29Z</time>
      </trkpt>
      <trkpt lat="46.63025" lon="0.05948">
        <ele>142.6</ele>
        <time>2022-03-20T15:11:30Z</time>
      </trkpt>
      <trkpt lat="46.63012" lon="0.05983">
        <ele>142.6</ele>
        <time>2022-03-20T15:11:36Z</time>
      </trkpt>
      <trkpt lat="46.62998" lon="0.06015">
        <ele>142.4</ele>
        <time>2022-03-20T15:11:42Z</time>
      </trkpt>
      <trkpt lat="46.62996" lon="0.0602">
        <ele>142.4</ele>
        <time>2022-03-20T15:11:43Z</time>
      </trkpt>
      <trkpt lat="46.62994" lon="0.06026">
        <ele>142.2</ele>
        <time>2022-03-20T15:11:44Z</time>
      </trkpt>
      <trkpt lat="46.62991" lon="0.06031">
        <ele>142.2</ele>
        <time>2022-03-20T15:11:45Z</time>
      </trkpt>
      <trkpt lat="46.62989" lon="0.06036">
        <ele>142.2</ele>
        <time>2022-03-20T15:11:46Z</time>
      </trkpt>
      <trkpt lat="46.62986" lon="0.06041">
        <ele>142</ele>
        <time>2022-03-20T15:11:47Z</time>
      </trkpt>
      <trkpt lat="46.62984" lon="0.06046">
        <ele>142</ele>
        <time>2022-03-20T15:11:48Z</time>
      </trkpt>
      <trkpt lat="46.62981" lon="0.06051">
        <ele>141.8</ele>
        <time>2022-03-20T15:11:49Z</time>
      </trkpt>
      <trkpt lat="46.62974" lon="0.06067">
        <ele>141.6</ele>
        <time>2022-03-20T15:11:52Z</time>
      </trkpt>
      <trkpt lat="46.62968" lon="0.06085">
        <ele>141.4</ele>
        <time>2022-03-20T15:11:55Z</time>
      </trkpt>
      <trkpt lat="46.62958" lon="0.06111">
        <ele>141</ele>
        <time>2022-03-20T15:11:59Z</time>
      </trkpt>
      <trkpt lat="46.62956" lon="0.06117">
        <ele>140.6</ele>
        <time>2022-03-20T15:12:00Z</time>
      </trkpt>
      <trkpt lat="46.6295" lon="0.06138">
        <ele>140.4</ele>
        <time>2022-03-20T15:12:03Z</time>
      </trkpt>
      <trkpt lat="46.62949" lon="0.06145">
        <ele>140.4</ele>
        <time>2022-03-20T15:12:04Z</time>
      </trkpt>
      <trkpt lat="46.62947" lon="0.06163">
        <ele>140.2</ele>
        <time>2022-03-20T15:12:06Z</time>
      </trkpt>
      <trkpt lat="46.62944" lon="0.06201">
        <ele>139</ele>
        <time>2022-03-20T15:12:10Z</time>
      </trkpt>
      <trkpt lat="46.62943" lon="0.06221">
        <ele>138.2</ele>
        <time>2022-03-20T15:12:12Z</time>
      </trkpt>
      <trkpt lat="46.62942" lon="0.06229">
        <ele>137.8</ele>
        <time>2022-03-20T15:12:13Z</time>
      </trkpt>
      <trkpt lat="46.62942" lon="0.06236">
        <ele>137.4</ele>
        <time>2022-03-20T15:12:14Z</time>
      </trkpt>
      <trkpt lat="46.62941" lon="0.06244">
        <ele>137</ele>
        <time>2022-03-20T15:12:15Z</time>
      </trkpt>
      <trkpt lat="46.62941" lon="0.06252">
        <ele>136.2</ele>
        <time>2022-03-20T15:12:16Z</time>
      </trkpt>
      <trkpt lat="46.6294" lon="0.06287">
        <ele>135</ele>
        <time>2022-03-20T15:12:20Z</time>
      </trkpt>
      <trkpt lat="46.62939" lon="0.06309">
        <ele>133.8</ele>
        <time>2022-03-20T15:12:22Z</time>
      </trkpt>
      <trkpt lat="46.62937" lon="0.06344">
        <ele>132.6</ele>
        <time>2022-03-20T15:12:25Z</time>
      </trkpt>
      <trkpt lat="46.62935" lon="0.06382">
        <ele>131.4</ele>
        <time>2022-03-20T15:12:28Z</time>
      </trkpt>
      <trkpt lat="46.62936" lon="0.06395">
        <ele>130.8</ele>
        <time>2022-03-20T15:12:29Z</time>
      </trkpt>
      <trkpt lat="46.62937" lon="0.06408">
        <ele>130.2</ele>
        <time>2022-03-20T15:12:30Z</time>
      </trkpt>
      <trkpt lat="46.62939" lon="0.06419">
        <ele>129.8</ele>
        <time>2022-03-20T15:12:31Z</time>
      </trkpt>
      <trkpt lat="46.62941" lon="0.0643">
        <ele>129.4</ele>
        <time>2022-03-20T15:12:32Z</time>
      </trkpt>
      <trkpt lat="46.62944" lon="0.06439">
        <ele>129.2</ele>
        <time>2022-03-20T15:12:33Z</time>
      </trkpt>
      <trkpt lat="46.62947" lon="0.06448">
        <ele>129</ele>
        <time>2022-03-20T15:12:34Z</time>
      </trkpt>
      <trkpt lat="46.62951" lon="0.06456">
        <ele>129</ele>
        <time>2022-03-20T15:12:35Z</time>
      </trkpt>
      <trkpt lat="46.62954" lon="0.06462">
        <ele>129</ele>
        <time>2022-03-20T15:12:36Z</time>
      </trkpt>
      <trkpt lat="46.62957" lon="0.06468">
        <ele>129</ele>
        <time>2022-03-20T15:12:37Z</time>
      </trkpt>
      <trkpt lat="46.6296" lon="0.06473">
        <ele>129</ele>
        <time>2022-03-20T15:12:38Z</time>
      </trkpt>
      <trkpt lat="46.62963" lon="0.06477">
        <ele>129</ele>
        <time>2022-03-20T15:12:39Z</time>
      </trkpt>
      <trkpt lat="46.62966" lon="0.06481">
        <ele>129</ele>
        <time>2022-03-20T15:12:40Z</time>
      </trkpt>
      <trkpt lat="46.62969" lon="0.06485">
        <ele>129.4</ele>
        <time>2022-03-20T15:12:41Z</time>
      </trkpt>
      <trkpt lat="46.62971" lon="0.06489">
        <ele>129.4</ele>
        <time>2022-03-20T15:12:42Z</time>
      </trkpt>
      <trkpt lat="46.62979" lon="0.06499">
        <ele>130.2</ele>
        <time>2022-03-20T15:12:45Z</time>
      </trkpt>
      <trkpt lat="46.62981" lon="0.06503">
        <ele>130.4</ele>
        <time>2022-03-20T15:12:46Z</time>
      </trkpt>
      <trkpt lat="46.62985" lon="0.06508">
        <ele>130.4</ele>
        <time>2022-03-20T15:12:47Z</time>
      </trkpt>
      <trkpt lat="46.62991" lon="0.06516">
        <ele>130.8</ele>
        <time>2022-03-20T15:12:49Z</time>
      </trkpt>
      <trkpt lat="46.62993" lon="0.06521">
        <ele>131</ele>
        <time>2022-03-20T15:12:50Z</time>
      </trkpt>
      <trkpt lat="46.62994" lon="0.06526">
        <ele>131.2</ele>
        <time>2022-03-20T15:12:51Z</time>
      </trkpt>
      <trkpt lat="46.62995" lon="0.06531">
        <ele>131.4</ele>
        <time>2022-03-20T15:12:52Z</time>
      </trkpt>
      <trkpt lat="46.62996" lon="0.06536">
        <ele>131.8</ele>
        <time>2022-03-20T15:12:53Z</time>
      </trkpt>
      <trkpt lat="46.62998" lon="0.06555">
        <ele>131.8</ele>
        <time>2022-03-20T15:12:56Z</time>
      </trkpt>
      <trkpt lat="46.63002" lon="0.06602">
        <ele>130.2</ele>
        <time>2022-03-20T15:13:03Z</time>
      </trkpt>
      <trkpt lat="46.63004" lon="0.06629">
        <ele>129</ele>
        <time>2022-03-20T15:13:06Z</time>
      </trkpt>
      <trkpt lat="46.63005" lon="0.06638">
        <ele>128.6</ele>
        <time>2022-03-20T15:13:07Z</time>
      </trkpt>
      <trkpt lat="46.63005" lon="0.06646">
        <ele>128.2</ele>
        <time>2022-03-20T15:13:08Z</time>
      </trkpt>
      <trkpt lat="46.63005" lon="0.06653">
        <ele>127.6</ele>
        <time>2022-03-20T15:13:09Z</time>
      </trkpt>
      <trkpt lat="46.63004" lon="0.06658">
        <ele>127.2</ele>
        <time>2022-03-20T15:13:10Z</time>
      </trkpt>
      <trkpt lat="46.63004" lon="0.06663">
        <ele>126.4</ele>
        <time>2022-03-20T15:13:11Z</time>
      </trkpt>
      <trkpt lat="46.63003" lon="0.06666">
        <ele>126</ele>
        <time>2022-03-20T15:13:12Z</time>
      </trkpt>
      <trkpt lat="46.63002" lon="0.06669">
        <ele>125.4</ele>
        <time>2022-03-20T15:13:13Z</time>
      </trkpt>
      <trkpt lat="46.63002" lon="0.06671">
        <ele>125.4</ele>
        <time>2022-03-20T15:13:14Z</time>
      </trkpt>
      <trkpt lat="46.63001" lon="0.06674">
        <ele>125</ele>
        <time>2022-03-20T15:13:15Z</time>
      </trkpt>
      <trkpt lat="46.63" lon="0.06676">
        <ele>124.6</ele>
        <time>2022-03-20T15:13:16Z</time>
      </trkpt>
      <trkpt lat="46.62998" lon="0.06677">
        <ele>124.4</ele>
        <time>2022-03-20T15:13:17Z</time>
      </trkpt>
      <trkpt lat="46.62997" lon="0.06679">
        <ele>124.2</ele>
        <time>2022-03-20T15:13:18Z</time>
      </trkpt>
      <trkpt lat="46.62997" lon="0.06681">
        <ele>124.2</ele>
        <time>2022-03-20T15:13:19Z</time>
      </trkpt>
      <trkpt lat="46.62991" lon="0.06686">
        <ele>123.8</ele>
        <time>2022-03-20T15:13:22Z</time>
      </trkpt>
      <trkpt lat="46.62988" lon="0.06687">
        <ele>123.8</ele>
        <time>2022-03-20T15:13:23Z</time>
      </trkpt>
      <trkpt lat="46.62986" lon="0.06689">
        <ele>123.6</ele>
        <time>2022-03-20T15:13:24Z</time>
      </trkpt>
      <trkpt lat="46.62985" lon="0.0669">
        <ele>123.4</ele>
        <time>2022-03-20T15:13:25Z</time>
      </trkpt>
      <trkpt lat="46.62984" lon="0.06691">
        <ele>123.4</ele>
        <time>2022-03-20T15:13:26Z</time>
      </trkpt>
      <trkpt lat="46.62982" lon="0.06692">
        <ele>123.2</ele>
        <time>2022-03-20T15:13:27Z</time>
      </trkpt>
      <trkpt lat="46.62981" lon="0.06693">
        <ele>123.2</ele>
        <time>2022-03-20T15:13:28Z</time>
      </trkpt>
      <trkpt lat="46.62967" lon="0.06699">
        <ele>123</ele>
        <time>2022-03-20T15:13:33Z</time>
      </trkpt>
      <trkpt lat="46.62947" lon="0.067">
        <ele>123</ele>
        <time>2022-03-20T15:13:38Z</time>
      </trkpt>
      <trkpt lat="46.62943" lon="0.06698">
        <ele>123</ele>
        <time>2022-03-20T15:13:39Z</time>
      </trkpt>
      <trkpt lat="46.62922" lon="0.06689">
        <ele>123</ele>
        <time>2022-03-20T15:13:45Z</time>
      </trkpt>
      <trkpt lat="46.62912" lon="0.06688">
        <ele>123</ele>
        <time>2022-03-20T15:13:48Z</time>
      </trkpt>
      <trkpt lat="46.62909" lon="0.06688">
        <ele>123</ele>
        <time>2022-03-20T15:13:49Z</time>
      </trkpt>
      <trkpt lat="46.62906" lon="0.06689">
        <ele>123</ele>
        <time>2022-03-20T15:13:50Z</time>
      </trkpt>
      <trkpt lat="46.62903" lon="0.06689">
        <ele>123</ele>
        <time>2022-03-20T15:13:51Z</time>
      </trkpt>
      <trkpt lat="46.62901" lon="0.06689">
        <ele>123</ele>
        <time>2022-03-20T15:13:52Z</time>
      </trkpt>
      <trkpt lat="46.629" lon="0.06688">
        <ele>123</ele>
        <time>2022-03-20T15:13:53Z</time>
      </trkpt>
      <trkpt lat="46.62898" lon="0.06689">
        <ele>123.2</ele>
        <time>2022-03-20T15:13:54Z</time>
      </trkpt>
      <trkpt lat="46.62892" lon="0.06691">
        <ele>123.2</ele>
        <time>2022-03-20T15:13:56Z</time>
      </trkpt>
      <trkpt lat="46.6289" lon="0.06694">
        <ele>123.2</ele>
        <time>2022-03-20T15:13:57Z</time>
      </trkpt>
      <trkpt lat="46.62887" lon="0.06697">
        <ele>123.2</ele>
        <time>2022-03-20T15:13:58Z</time>
      </trkpt>
      <trkpt lat="46.62881" lon="0.06703">
        <ele>123</ele>
        <time>2022-03-20T15:14:00Z</time>
      </trkpt>
      <trkpt lat="46.62878" lon="0.06705">
        <ele>122.8</ele>
        <time>2022-03-20T15:14:01Z</time>
      </trkpt>
      <trkpt lat="46.62875" lon="0.06708">
        <ele>122.8</ele>
        <time>2022-03-20T15:14:02Z</time>
      </trkpt>
      <trkpt lat="46.62858" lon="0.06716">
        <ele>122.6</ele>
        <time>2022-03-20T15:14:07Z</time>
      </trkpt>
      <trkpt lat="46.62847" lon="0.06715">
        <ele>122.6</ele>
        <time>2022-03-20T15:14:10Z</time>
      </trkpt>
      <trkpt lat="46.62844" lon="0.06712">
        <ele>122.6</ele>
        <time>2022-03-20T15:14:11Z</time>
      </trkpt>
      <trkpt lat="46.62841" lon="0.06709">
        <ele>122.6</ele>
        <time>2022-03-20T15:14:12Z</time>
      </trkpt>
      <trkpt lat="46.62838" lon="0.06707">
        <ele>122.8</ele>
        <time>2022-03-20T15:14:13Z</time>
      </trkpt>
      <trkpt lat="46.62814" lon="0.06692">
        <ele>122.8</ele>
        <time>2022-03-20T15:14:19Z</time>
      </trkpt>
      <trkpt lat="46.62794" lon="0.06678">
        <ele>122.8</ele>
        <time>2022-03-20T15:14:25Z</time>
      </trkpt>
      <trkpt lat="46.62791" lon="0.06676">
        <ele>122.8</ele>
        <time>2022-03-20T15:14:26Z</time>
      </trkpt>
      <trkpt lat="46.62788" lon="0.06673">
        <ele>122.6</ele>
        <time>2022-03-20T15:14:27Z</time>
      </trkpt>
      <trkpt lat="46.62785" lon="0.0667">
        <ele>122.6</ele>
        <time>2022-03-20T15:14:28Z</time>
      </trkpt>
      <trkpt lat="46.62782" lon="0.06667">
        <ele>122.6</ele>
        <time>2022-03-20T15:14:29Z</time>
      </trkpt>
      <trkpt lat="46.62778" lon="0.06664">
        <ele>122.6</ele>
        <time>2022-03-20T15:14:30Z</time>
      </trkpt>
      <trkpt lat="46.62775" lon="0.0666">
        <ele>122.6</ele>
        <time>2022-03-20T15:14:31Z</time>
      </trkpt>
      <trkpt lat="46.62771" lon="0.06657">
        <ele>122.6</ele>
        <time>2022-03-20T15:14:32Z</time>
      </trkpt>
      <trkpt lat="46.62764" lon="0.0665">
        <ele>122.6</ele>
        <time>2022-03-20T15:14:34Z</time>
      </trkpt>
      <trkpt lat="46.6276" lon="0.06647">
        <ele>122.6</ele>
        <time>2022-03-20T15:14:35Z</time>
      </trkpt>
      <trkpt lat="46.62741" lon="0.06635">
        <ele>122.6</ele>
        <time>2022-03-20T15:14:40Z</time>
      </trkpt>
      <trkpt lat="46.62718" lon="0.06628">
        <ele>123</ele>
        <time>2022-03-20T15:14:45Z</time>
      </trkpt>
      <trkpt lat="46.62714" lon="0.06627">
        <ele>122.8</ele>
        <time>2022-03-20T15:14:46Z</time>
      </trkpt>
      <trkpt lat="46.62709" lon="0.06625">
        <ele>122.8</ele>
        <time>2022-03-20T15:14:47Z</time>
      </trkpt>
      <trkpt lat="46.62687" lon="0.06614">
        <ele>122.6</ele>
        <time>2022-03-20T15:14:52Z</time>
      </trkpt>
      <trkpt lat="46.62683" lon="0.0661">
        <ele>122.6</ele>
        <time>2022-03-20T15:14:53Z</time>
      </trkpt>
      <trkpt lat="46.62679" lon="0.06606">
        <ele>122.4</ele>
        <time>2022-03-20T15:14:54Z</time>
      </trkpt>
      <trkpt lat="46.62677" lon="0.06602">
        <ele>122.4</ele>
        <time>2022-03-20T15:14:55Z</time>
      </trkpt>
      <trkpt lat="46.62674" lon="0.06599">
        <ele>122.4</ele>
        <time>2022-03-20T15:14:56Z</time>
      </trkpt>
      <trkpt lat="46.62668" lon="0.06592">
        <ele>122.4</ele>
        <time>2022-03-20T15:14:58Z</time>
      </trkpt>
      <trkpt lat="46.62661" lon="0.06587">
        <ele>122.2</ele>
        <time>2022-03-20T15:15:00Z</time>
      </trkpt>
      <trkpt lat="46.62659" lon="0.06584">
        <ele>122.2</ele>
        <time>2022-03-20T15:15:01Z</time>
      </trkpt>
      <trkpt lat="46.62656" lon="0.0658">
        <ele>122.2</ele>
        <time>2022-03-20T15:15:02Z</time>
      </trkpt>
      <trkpt lat="46.62652" lon="0.06578">
        <ele>122.2</ele>
        <time>2022-03-20T15:15:03Z</time>
      </trkpt>
      <trkpt lat="46.62649" lon="0.06576">
        <ele>122.2</ele>
        <time>2022-03-20T15:15:04Z</time>
      </trkpt>
      <trkpt lat="46.62646" lon="0.06573">
        <ele>122.2</ele>
        <time>2022-03-20T15:15:05Z</time>
      </trkpt>
      <trkpt lat="46.6263" lon="0.06563">
        <ele>122.2</ele>
        <time>2022-03-20T15:15:08Z</time>
      </trkpt>
      <trkpt lat="46.62629" lon="0.06562">
        <ele>122.2</ele>
        <time>2022-03-20T15:15:09Z</time>
      </trkpt>
      <trkpt lat="46.62626" lon="0.06559">
        <ele>122.2</ele>
        <time>2022-03-20T15:15:10Z</time>
      </trkpt>
      <trkpt lat="46.62619" lon="0.0655">
        <ele>122.4</ele>
        <time>2022-03-20T15:15:13Z</time>
      </trkpt>
      <trkpt lat="46.62617" lon="0.06546">
        <ele>122.4</ele>
        <time>2022-03-20T15:15:14Z</time>
      </trkpt>
      <trkpt lat="46.62616" lon="0.06543">
        <ele>122.6</ele>
        <time>2022-03-20T15:15:15Z</time>
      </trkpt>
      <trkpt lat="46.62608" lon="0.06536">
        <ele>123.2</ele>
        <time>2022-03-20T15:15:18Z</time>
      </trkpt>
      <trkpt lat="46.62604" lon="0.06534">
        <ele>123.4</ele>
        <time>2022-03-20T15:15:19Z</time>
      </trkpt>
      <trkpt lat="46.62601" lon="0.06532">
        <ele>123.8</ele>
        <time>2022-03-20T15:15:20Z</time>
      </trkpt>
      <trkpt lat="46.62598" lon="0.06531">
        <ele>123.8</ele>
        <time>2022-03-20T15:15:21Z</time>
      </trkpt>
      <trkpt lat="46.62594" lon="0.0653">
        <ele>124</ele>
        <time>2022-03-20T15:15:22Z</time>
      </trkpt>
      <trkpt lat="46.6259" lon="0.06529">
        <ele>124</ele>
        <time>2022-03-20T15:15:23Z</time>
      </trkpt>
      <trkpt lat="46.62579" lon="0.06525">
        <ele>124.2</ele>
        <time>2022-03-20T15:15:26Z</time>
      </trkpt>
      <trkpt lat="46.62565" lon="0.06522">
        <ele>124.2</ele>
        <time>2022-03-20T15:15:29Z</time>
      </trkpt>
      <trkpt lat="46.62562" lon="0.06521">
        <ele>124.2</ele>
        <time>2022-03-20T15:15:30Z</time>
      </trkpt>
      <trkpt lat="46.62557" lon="0.0652">
        <ele>124.4</ele>
        <time>2022-03-20T15:15:31Z</time>
      </trkpt>
      <trkpt lat="46.62553" lon="0.0652">
        <ele>124.4</ele>
        <time>2022-03-20T15:15:32Z</time>
      </trkpt>
      <trkpt lat="46.62525" lon="0.06517">
        <ele>124.4</ele>
        <time>2022-03-20T15:15:38Z</time>
      </trkpt>
      <trkpt lat="46.6252" lon="0.06516">
        <ele>124.4</ele>
        <time>2022-03-20T15:15:39Z</time>
      </trkpt>
      <trkpt lat="46.625" lon="0.06513">
        <ele>124.8</ele>
        <time>2022-03-20T15:15:43Z</time>
      </trkpt>
      <trkpt lat="46.62496" lon="0.06514">
        <ele>124.8</ele>
        <time>2022-03-20T15:15:44Z</time>
      </trkpt>
      <trkpt lat="46.62491" lon="0.06515">
        <ele>124.6</ele>
        <time>2022-03-20T15:15:45Z</time>
      </trkpt>
      <trkpt lat="46.62485" lon="0.06517">
        <ele>124.6</ele>
        <time>2022-03-20T15:15:46Z</time>
      </trkpt>
      <trkpt lat="46.62481" lon="0.06518">
        <ele>124.6</ele>
        <time>2022-03-20T15:15:47Z</time>
      </trkpt>
      <trkpt lat="46.62476" lon="0.0652">
        <ele>124.6</ele>
        <time>2022-03-20T15:15:48Z</time>
      </trkpt>
      <trkpt lat="46.62469" lon="0.06522">
        <ele>124.4</ele>
        <time>2022-03-20T15:15:49Z</time>
      </trkpt>
      <trkpt lat="46.62464" lon="0.06525">
        <ele>124.4</ele>
        <time>2022-03-20T15:15:50Z</time>
      </trkpt>
      <trkpt lat="46.6246" lon="0.06526">
        <ele>124.4</ele>
        <time>2022-03-20T15:15:51Z</time>
      </trkpt>
      <trkpt lat="46.62455" lon="0.06528">
        <ele>124.4</ele>
        <time>2022-03-20T15:15:52Z</time>
      </trkpt>
      <trkpt lat="46.62448" lon="0.0653">
        <ele>124.4</ele>
        <time>2022-03-20T15:15:53Z</time>
      </trkpt>
      <trkpt lat="46.62442" lon="0.06534">
        <ele>124.2</ele>
        <time>2022-03-20T15:15:54Z</time>
      </trkpt>
      <trkpt lat="46.62435" lon="0.06539">
        <ele>123.8</ele>
        <time>2022-03-20T15:15:56Z</time>
      </trkpt>
      <trkpt lat="46.62433" lon="0.0654">
        <ele>123.8</ele>
        <time>2022-03-20T15:15:57Z</time>
      </trkpt>
      <trkpt lat="46.62431" lon="0.06542">
        <ele>123.4</ele>
        <time>2022-03-20T15:15:58Z</time>
      </trkpt>
      <trkpt lat="46.62428" lon="0.06544">
        <ele>123.2</ele>
        <time>2022-03-20T15:15:59Z</time>
      </trkpt>
      <trkpt lat="46.62425" lon="0.06546">
        <ele>123</ele>
        <time>2022-03-20T15:16:00Z</time>
      </trkpt>
      <trkpt lat="46.6241" lon="0.06556">
        <ele>122.8</ele>
        <time>2022-03-20T15:16:04Z</time>
      </trkpt>
      <trkpt lat="46.62406" lon="0.06559">
        <ele>122.6</ele>
        <time>2022-03-20T15:16:05Z</time>
      </trkpt>
      <trkpt lat="46.62402" lon="0.06561">
        <ele>122.6</ele>
        <time>2022-03-20T15:16:06Z</time>
      </trkpt>
      <trkpt lat="46.62381" lon="0.06572">
        <ele>122.8</ele>
        <time>2022-03-20T15:16:11Z</time>
      </trkpt>
      <trkpt lat="46.62378" lon="0.06575">
        <ele>122.8</ele>
        <time>2022-03-20T15:16:12Z</time>
      </trkpt>
      <trkpt lat="46.62376" lon="0.06578">
        <ele>122.8</ele>
        <time>2022-03-20T15:16:13Z</time>
      </trkpt>
      <trkpt lat="46.62373" lon="0.06581">
        <ele>122.8</ele>
        <time>2022-03-20T15:16:14Z</time>
      </trkpt>
      <trkpt lat="46.62369" lon="0.06587">
        <ele>122.8</ele>
        <time>2022-03-20T15:16:16Z</time>
      </trkpt>
      <trkpt lat="46.62367" lon="0.0659">
        <ele>123</ele>
        <time>2022-03-20T15:16:17Z</time>
      </trkpt>
      <trkpt lat="46.62365" lon="0.06593">
        <ele>123</ele>
        <time>2022-03-20T15:16:18Z</time>
      </trkpt>
      <trkpt lat="46.62364" lon="0.06596">
        <ele>123</ele>
        <time>2022-03-20T15:16:19Z</time>
      </trkpt>
      <trkpt lat="46.62363" lon="0.06599">
        <ele>123</ele>
        <time>2022-03-20T15:16:20Z</time>
      </trkpt>
      <trkpt lat="46.62362" lon="0.06603">
        <ele>123</ele>
        <time>2022-03-20T15:16:21Z</time>
      </trkpt>
      <trkpt lat="46.6236" lon="0.06607">
        <ele>123.2</ele>
        <time>2022-03-20T15:16:22Z</time>
      </trkpt>
      <trkpt lat="46.62345" lon="0.06638">
        <ele>123.8</ele>
        <time>2022-03-20T15:16:28Z</time>
      </trkpt>
      <trkpt lat="46.62344" lon="0.06643">
        <ele>123.8</ele>
        <time>2022-03-20T15:16:29Z</time>
      </trkpt>
      <trkpt lat="46.62341" lon="0.0665">
        <ele>123.8</ele>
        <time>2022-03-20T15:16:31Z</time>
      </trkpt>
      <trkpt lat="46.62332" lon="0.06686">
        <ele>124</ele>
        <time>2022-03-20T15:16:38Z</time>
      </trkpt>
      <trkpt lat="46.62328" lon="0.06691">
        <ele>124</ele>
        <time>2022-03-20T15:16:40Z</time>
      </trkpt>
      <trkpt lat="46.62325" lon="0.06693">
        <ele>124</ele>
        <time>2022-03-20T15:16:41Z</time>
      </trkpt>
      <trkpt lat="46.62322" lon="0.06694">
        <ele>124.2</ele>
        <time>2022-03-20T15:16:42Z</time>
      </trkpt>
      <trkpt lat="46.62317" lon="0.06695">
        <ele>124.2</ele>
        <time>2022-03-20T15:16:43Z</time>
      </trkpt>
      <trkpt lat="46.62314" lon="0.06695">
        <ele>124.4</ele>
        <time>2022-03-20T15:16:44Z</time>
      </trkpt>
      <trkpt lat="46.62311" lon="0.06696">
        <ele>124.6</ele>
        <time>2022-03-20T15:16:45Z</time>
      </trkpt>
      <trkpt lat="46.62308" lon="0.06697">
        <ele>124.8</ele>
        <time>2022-03-20T15:16:46Z</time>
      </trkpt>
      <trkpt lat="46.62306" lon="0.06698">
        <ele>125</ele>
        <time>2022-03-20T15:16:47Z</time>
      </trkpt>
      <trkpt lat="46.62302" lon="0.06698">
        <ele>125.2</ele>
        <time>2022-03-20T15:16:48Z</time>
      </trkpt>
      <trkpt lat="46.62298" lon="0.06699">
        <ele>125.6</ele>
        <time>2022-03-20T15:16:49Z</time>
      </trkpt>
      <trkpt lat="46.62291" lon="0.067">
        <ele>126.2</ele>
        <time>2022-03-20T15:16:51Z</time>
      </trkpt>
      <trkpt lat="46.62283" lon="0.067">
        <ele>127</ele>
        <time>2022-03-20T15:16:53Z</time>
      </trkpt>
      <trkpt lat="46.62277" lon="0.06699">
        <ele>127.4</ele>
        <time>2022-03-20T15:16:55Z</time>
      </trkpt>
      <trkpt lat="46.62274" lon="0.06698">
        <ele>127.6</ele>
        <time>2022-03-20T15:16:56Z</time>
      </trkpt>
      <trkpt lat="46.62271" lon="0.06697">
        <ele>127.8</ele>
        <time>2022-03-20T15:16:57Z</time>
      </trkpt>
      <trkpt lat="46.62268" lon="0.06696">
        <ele>128</ele>
        <time>2022-03-20T15:16:58Z</time>
      </trkpt>
      <trkpt lat="46.62265" lon="0.06696">
        <ele>128.2</ele>
        <time>2022-03-20T15:16:59Z</time>
      </trkpt>
      <trkpt lat="46.62262" lon="0.06695">
        <ele>128.8</ele>
        <time>2022-03-20T15:17:00Z</time>
      </trkpt>
      <trkpt lat="46.62258" lon="0.06695">
        <ele>129.2</ele>
        <time>2022-03-20T15:17:01Z</time>
      </trkpt>
      <trkpt lat="46.62255" lon="0.06695">
        <ele>129.4</ele>
        <time>2022-03-20T15:17:02Z</time>
      </trkpt>
      <trkpt lat="46.62251" lon="0.06695">
        <ele>129.6</ele>
        <time>2022-03-20T15:17:03Z</time>
      </trkpt>
      <trkpt lat="46.62248" lon="0.06695">
        <ele>129.8</ele>
        <time>2022-03-20T15:17:04Z</time>
      </trkpt>
      <trkpt lat="46.62244" lon="0.06695">
        <ele>130.6</ele>
        <time>2022-03-20T15:17:05Z</time>
      </trkpt>
      <trkpt lat="46.62241" lon="0.06695">
        <ele>131</ele>
        <time>2022-03-20T15:17:06Z</time>
      </trkpt>
      <trkpt lat="46.62238" lon="0.06696">
        <ele>131.4</ele>
        <time>2022-03-20T15:17:07Z</time>
      </trkpt>
      <trkpt lat="46.62236" lon="0.06696">
        <ele>131.6</ele>
        <time>2022-03-20T15:17:08Z</time>
      </trkpt>
      <trkpt lat="46.62233" lon="0.06698">
        <ele>132</ele>
        <time>2022-03-20T15:17:09Z</time>
      </trkpt>
      <trkpt lat="46.62231" lon="0.06699">
        <ele>132.4</ele>
        <time>2022-03-20T15:17:10Z</time>
      </trkpt>
      <trkpt lat="46.62228" lon="0.06701">
        <ele>132.6</ele>
        <time>2022-03-20T15:17:11Z</time>
      </trkpt>
      <trkpt lat="46.62226" lon="0.06702">
        <ele>132.8</ele>
        <time>2022-03-20T15:17:12Z</time>
      </trkpt>
      <trkpt lat="46.62223" lon="0.06704">
        <ele>132.8</ele>
        <time>2022-03-20T15:17:13Z</time>
      </trkpt>
      <trkpt lat="46.6222" lon="0.06706">
        <ele>133.4</ele>
        <time>2022-03-20T15:17:14Z</time>
      </trkpt>
      <trkpt lat="46.62217" lon="0.06709">
        <ele>133.6</ele>
        <time>2022-03-20T15:17:15Z</time>
      </trkpt>
      <trkpt lat="46.62214" lon="0.06711">
        <ele>134</ele>
        <time>2022-03-20T15:17:16Z</time>
      </trkpt>
      <trkpt lat="46.62211" lon="0.06712">
        <ele>134.6</ele>
        <time>2022-03-20T15:17:17Z</time>
      </trkpt>
      <trkpt lat="46.62207" lon="0.06714">
        <ele>134.8</ele>
        <time>2022-03-20T15:17:18Z</time>
      </trkpt>
      <trkpt lat="46.62204" lon="0.06715">
        <ele>135.2</ele>
        <time>2022-03-20T15:17:19Z</time>
      </trkpt>
      <trkpt lat="46.622" lon="0.06716">
        <ele>135.4</ele>
        <time>2022-03-20T15:17:20Z</time>
      </trkpt>
      <trkpt lat="46.62196" lon="0.06716">
        <ele>136</ele>
        <time>2022-03-20T15:17:21Z</time>
      </trkpt>
      <trkpt lat="46.62191" lon="0.06716">
        <ele>136</ele>
        <time>2022-03-20T15:17:22Z</time>
      </trkpt>
      <trkpt lat="46.62187" lon="0.06717">
        <ele>136.6</ele>
        <time>2022-03-20T15:17:23Z</time>
      </trkpt>
      <trkpt lat="46.62183" lon="0.06717">
        <ele>136.6</ele>
        <time>2022-03-20T15:17:24Z</time>
      </trkpt>
      <trkpt lat="46.62179" lon="0.06716">
        <ele>137.2</ele>
        <time>2022-03-20T15:17:25Z</time>
      </trkpt>
      <trkpt lat="46.62176" lon="0.06716">
        <ele>137.4</ele>
        <time>2022-03-20T15:17:26Z</time>
      </trkpt>
      <trkpt lat="46.62172" lon="0.06716">
        <ele>137.6</ele>
        <time>2022-03-20T15:17:27Z</time>
      </trkpt>
      <trkpt lat="46.62168" lon="0.06716">
        <ele>137.8</ele>
        <time>2022-03-20T15:17:28Z</time>
      </trkpt>
      <trkpt lat="46.62164" lon="0.06715">
        <ele>138</ele>
        <time>2022-03-20T15:17:29Z</time>
      </trkpt>
      <trkpt lat="46.6216" lon="0.06716">
        <ele>138.2</ele>
        <time>2022-03-20T15:17:30Z</time>
      </trkpt>
      <trkpt lat="46.62156" lon="0.06716">
        <ele>138.4</ele>
        <time>2022-03-20T15:17:31Z</time>
      </trkpt>
      <trkpt lat="46.62153" lon="0.06718">
        <ele>139.2</ele>
        <time>2022-03-20T15:17:32Z</time>
      </trkpt>
      <trkpt lat="46.6215" lon="0.06719">
        <ele>139.8</ele>
        <time>2022-03-20T15:17:33Z</time>
      </trkpt>
      <trkpt lat="46.62147" lon="0.0672">
        <ele>140</ele>
        <time>2022-03-20T15:17:34Z</time>
      </trkpt>
      <trkpt lat="46.62145" lon="0.06722">
        <ele>140.4</ele>
        <time>2022-03-20T15:17:35Z</time>
      </trkpt>
      <trkpt lat="46.62142" lon="0.06723">
        <ele>140.6</ele>
        <time>2022-03-20T15:17:36Z</time>
      </trkpt>
      <trkpt lat="46.6214" lon="0.06724">
        <ele>141</ele>
        <time>2022-03-20T15:17:37Z</time>
      </trkpt>
      <trkpt lat="46.62138" lon="0.06725">
        <ele>141</ele>
        <time>2022-03-20T15:17:38Z</time>
      </trkpt>
      <trkpt lat="46.62136" lon="0.06725">
        <ele>141.6</ele>
        <time>2022-03-20T15:17:39Z</time>
      </trkpt>
      <trkpt lat="46.62132" lon="0.06726">
        <ele>141.6</ele>
        <time>2022-03-20T15:17:40Z</time>
      </trkpt>
      <trkpt lat="46.62131" lon="0.06726">
        <ele>142</ele>
        <time>2022-03-20T15:17:41Z</time>
      </trkpt>
      <trkpt lat="46.62129" lon="0.06727">
        <ele>142</ele>
        <time>2022-03-20T15:17:42Z</time>
      </trkpt>
      <trkpt lat="46.62127" lon="0.06729">
        <ele>142.4</ele>
        <time>2022-03-20T15:17:44Z</time>
      </trkpt>
      <trkpt lat="46.62125" lon="0.06734">
        <ele>142.6</ele>
        <time>2022-03-20T15:17:45Z</time>
      </trkpt>
      <trkpt lat="46.62123" lon="0.06738">
        <ele>142.6</ele>
        <time>2022-03-20T15:17:46Z</time>
      </trkpt>
      <trkpt lat="46.62122" lon="0.06743">
        <ele>142.8</ele>
        <time>2022-03-20T15:17:47Z</time>
      </trkpt>
      <trkpt lat="46.62121" lon="0.06748">
        <ele>143.2</ele>
        <time>2022-03-20T15:17:48Z</time>
      </trkpt>
      <trkpt lat="46.6212" lon="0.06752">
        <ele>143.4</ele>
        <time>2022-03-20T15:17:49Z</time>
      </trkpt>
      <trkpt lat="46.62119" lon="0.06757">
        <ele>143.4</ele>
        <time>2022-03-20T15:17:50Z</time>
      </trkpt>
      <trkpt lat="46.62118" lon="0.06762">
        <ele>143.6</ele>
        <time>2022-03-20T15:17:51Z</time>
      </trkpt>
      <trkpt lat="46.62116" lon="0.06767">
        <ele>143.8</ele>
        <time>2022-03-20T15:17:52Z</time>
      </trkpt>
      <trkpt lat="46.62115" lon="0.06772">
        <ele>144.2</ele>
        <time>2022-03-20T15:17:53Z</time>
      </trkpt>
      <trkpt lat="46.62114" lon="0.06777">
        <ele>144.6</ele>
        <time>2022-03-20T15:17:54Z</time>
      </trkpt>
      <trkpt lat="46.62112" lon="0.06782">
        <ele>144.8</ele>
        <time>2022-03-20T15:17:55Z</time>
      </trkpt>
      <trkpt lat="46.62111" lon="0.06787">
        <ele>145</ele>
        <time>2022-03-20T15:17:56Z</time>
      </trkpt>
      <trkpt lat="46.6211" lon="0.06792">
        <ele>145.2</ele>
        <time>2022-03-20T15:17:57Z</time>
      </trkpt>
      <trkpt lat="46.62109" lon="0.06797">
        <ele>145.6</ele>
        <time>2022-03-20T15:17:58Z</time>
      </trkpt>
      <trkpt lat="46.62108" lon="0.06803">
        <ele>145.8</ele>
        <time>2022-03-20T15:17:59Z</time>
      </trkpt>
      <trkpt lat="46.62107" lon="0.06808">
        <ele>146</ele>
        <time>2022-03-20T15:18:00Z</time>
      </trkpt>
      <trkpt lat="46.62107" lon="0.06814">
        <ele>146.2</ele>
        <time>2022-03-20T15:18:01Z</time>
      </trkpt>
      <trkpt lat="46.62106" lon="0.0682">
        <ele>146.4</ele>
        <time>2022-03-20T15:18:02Z</time>
      </trkpt>
      <trkpt lat="46.62105" lon="0.06826">
        <ele>146.6</ele>
        <time>2022-03-20T15:18:03Z</time>
      </trkpt>
      <trkpt lat="46.62104" lon="0.06832">
        <ele>146.8</ele>
        <time>2022-03-20T15:18:04Z</time>
      </trkpt>
      <trkpt lat="46.62103" lon="0.06837">
        <ele>147</ele>
        <time>2022-03-20T15:18:05Z</time>
      </trkpt>
      <trkpt lat="46.62101" lon="0.06844">
        <ele>147.2</ele>
        <time>2022-03-20T15:18:06Z</time>
      </trkpt>
      <trkpt lat="46.621" lon="0.0685">
        <ele>147.4</ele>
        <time>2022-03-20T15:18:07Z</time>
      </trkpt>
      <trkpt lat="46.62098" lon="0.06856">
        <ele>147.4</ele>
        <time>2022-03-20T15:18:08Z</time>
      </trkpt>
      <trkpt lat="46.62096" lon="0.06862">
        <ele>147.6</ele>
        <time>2022-03-20T15:18:09Z</time>
      </trkpt>
      <trkpt lat="46.62094" lon="0.06868">
        <ele>147.8</ele>
        <time>2022-03-20T15:18:10Z</time>
      </trkpt>
      <trkpt lat="46.62092" lon="0.06873">
        <ele>147.8</ele>
        <time>2022-03-20T15:18:11Z</time>
      </trkpt>
      <trkpt lat="46.6209" lon="0.06879">
        <ele>148.2</ele>
        <time>2022-03-20T15:18:12Z</time>
      </trkpt>
      <trkpt lat="46.62087" lon="0.06885">
        <ele>148.2</ele>
        <time>2022-03-20T15:18:13Z</time>
      </trkpt>
      <trkpt lat="46.62081" lon="0.06896">
        <ele>148.2</ele>
        <time>2022-03-20T15:18:14Z</time>
      </trkpt>
      <trkpt lat="46.62078" lon="0.06901">
        <ele>148.2</ele>
        <time>2022-03-20T15:18:15Z</time>
      </trkpt>
      <trkpt lat="46.62076" lon="0.06904">
        <ele>148.6</ele>
        <time>2022-03-20T15:18:16Z</time>
      </trkpt>
      <trkpt lat="46.62074" lon="0.06906">
        <ele>148.6</ele>
        <time>2022-03-20T15:18:17Z</time>
      </trkpt>
      <trkpt lat="46.6207" lon="0.06911">
        <ele>149</ele>
        <time>2022-03-20T15:18:18Z</time>
      </trkpt>
      <trkpt lat="46.62066" lon="0.06916">
        <ele>149</ele>
        <time>2022-03-20T15:18:19Z</time>
      </trkpt>
      <trkpt lat="46.62058" lon="0.06925">
        <ele>149.2</ele>
        <time>2022-03-20T15:18:20Z</time>
      </trkpt>
      <trkpt lat="46.62056" lon="0.06927">
        <ele>149.2</ele>
        <time>2022-03-20T15:18:21Z</time>
      </trkpt>
      <trkpt lat="46.62054" lon="0.06929">
        <ele>149.4</ele>
        <time>2022-03-20T15:18:22Z</time>
      </trkpt>
      <trkpt lat="46.62047" lon="0.06935">
        <ele>149.4</ele>
        <time>2022-03-20T15:18:23Z</time>
      </trkpt>
      <trkpt lat="46.62044" lon="0.06937">
        <ele>149.4</ele>
        <time>2022-03-20T15:18:24Z</time>
      </trkpt>
      <trkpt lat="46.6204" lon="0.0694">
        <ele>149.4</ele>
        <time>2022-03-20T15:18:25Z</time>
      </trkpt>
      <trkpt lat="46.62035" lon="0.06943">
        <ele>149.4</ele>
        <time>2022-03-20T15:18:26Z</time>
      </trkpt>
      <trkpt lat="46.62031" lon="0.06947">
        <ele>149.4</ele>
        <time>2022-03-20T15:18:27Z</time>
      </trkpt>
      <trkpt lat="46.62022" lon="0.06953">
        <ele>149.4</ele>
        <time>2022-03-20T15:18:28Z</time>
      </trkpt>
      <trkpt lat="46.62018" lon="0.06955">
        <ele>149.4</ele>
        <time>2022-03-20T15:18:29Z</time>
      </trkpt>
      <trkpt lat="46.62014" lon="0.06958">
        <ele>149.4</ele>
        <time>2022-03-20T15:18:30Z</time>
      </trkpt>
      <trkpt lat="46.62009" lon="0.06961">
        <ele>149.2</ele>
        <time>2022-03-20T15:18:31Z</time>
      </trkpt>
      <trkpt lat="46.62005" lon="0.06963">
        <ele>149.2</ele>
        <time>2022-03-20T15:18:32Z</time>
      </trkpt>
      <trkpt lat="46.62001" lon="0.06966">
        <ele>149</ele>
        <time>2022-03-20T15:18:33Z</time>
      </trkpt>
      <trkpt lat="46.61997" lon="0.06969">
        <ele>149</ele>
        <time>2022-03-20T15:18:34Z</time>
      </trkpt>
      <trkpt lat="46.61993" lon="0.06971">
        <ele>149</ele>
        <time>2022-03-20T15:18:35Z</time>
      </trkpt>
      <trkpt lat="46.6199" lon="0.06974">
        <ele>148.8</ele>
        <time>2022-03-20T15:18:36Z</time>
      </trkpt>
      <trkpt lat="46.61986" lon="0.06977">
        <ele>148.8</ele>
        <time>2022-03-20T15:18:37Z</time>
      </trkpt>
      <trkpt lat="46.61982" lon="0.06979">
        <ele>148.8</ele>
        <time>2022-03-20T15:18:38Z</time>
      </trkpt>
      <trkpt lat="46.61974" lon="0.06985">
        <ele>148.6</ele>
        <time>2022-03-20T15:18:40Z</time>
      </trkpt>
      <trkpt lat="46.61971" lon="0.06987">
        <ele>148.4</ele>
        <time>2022-03-20T15:18:41Z</time>
      </trkpt>
      <trkpt lat="46.61969" lon="0.06991">
        <ele>148.2</ele>
        <time>2022-03-20T15:18:42Z</time>
      </trkpt>
      <trkpt lat="46.61968" lon="0.06995">
        <ele>148.2</ele>
        <time>2022-03-20T15:18:43Z</time>
      </trkpt>
      <trkpt lat="46.61968" lon="0.07001">
        <ele>148.2</ele>
        <time>2022-03-20T15:18:44Z</time>
      </trkpt>
      <trkpt lat="46.61969" lon="0.07006">
        <ele>148.2</ele>
        <time>2022-03-20T15:18:45Z</time>
      </trkpt>
      <trkpt lat="46.61975" lon="0.07022">
        <ele>147.8</ele>
        <time>2022-03-20T15:18:48Z</time>
      </trkpt>
      <trkpt lat="46.61977" lon="0.07028">
        <ele>147.8</ele>
        <time>2022-03-20T15:18:49Z</time>
      </trkpt>
      <trkpt lat="46.6198" lon="0.07034">
        <ele>147.8</ele>
        <time>2022-03-20T15:18:50Z</time>
      </trkpt>
      <trkpt lat="46.61987" lon="0.07051">
        <ele>147.8</ele>
        <time>2022-03-20T15:18:53Z</time>
      </trkpt>
      <trkpt lat="46.6199" lon="0.07056">
        <ele>147.8</ele>
        <time>2022-03-20T15:18:54Z</time>
      </trkpt>
      <trkpt lat="46.61992" lon="0.07061">
        <ele>147.8</ele>
        <time>2022-03-20T15:18:55Z</time>
      </trkpt>
      <trkpt lat="46.61999" lon="0.07078">
        <ele>147.6</ele>
        <time>2022-03-20T15:18:58Z</time>
      </trkpt>
      <trkpt lat="46.62008" lon="0.07102">
        <ele>147.2</ele>
        <time>2022-03-20T15:19:02Z</time>
      </trkpt>
      <trkpt lat="46.62023" lon="0.07139">
        <ele>146.8</ele>
        <time>2022-03-20T15:19:08Z</time>
      </trkpt>
      <trkpt lat="46.62036" lon="0.07177">
        <ele>146.2</ele>
        <time>2022-03-20T15:19:14Z</time>
      </trkpt>
      <trkpt lat="46.62045" lon="0.072">
        <ele>145.8</ele>
        <time>2022-03-20T15:19:17Z</time>
      </trkpt>
      <trkpt lat="46.62049" lon="0.07209">
        <ele>145.6</ele>
        <time>2022-03-20T15:19:19Z</time>
      </trkpt>
      <trkpt lat="46.62051" lon="0.07214">
        <ele>145.4</ele>
        <time>2022-03-20T15:19:20Z</time>
      </trkpt>
      <trkpt lat="46.62052" lon="0.0722">
        <ele>145.2</ele>
        <time>2022-03-20T15:19:21Z</time>
      </trkpt>
      <trkpt lat="46.62054" lon="0.07224">
        <ele>145</ele>
        <time>2022-03-20T15:19:22Z</time>
      </trkpt>
      <trkpt lat="46.62055" lon="0.07231">
        <ele>144.6</ele>
        <time>2022-03-20T15:19:23Z</time>
      </trkpt>
      <trkpt lat="46.6206" lon="0.07253">
        <ele>143.8</ele>
        <time>2022-03-20T15:19:26Z</time>
      </trkpt>
      <trkpt lat="46.62063" lon="0.07268">
        <ele>143.4</ele>
        <time>2022-03-20T15:19:28Z</time>
      </trkpt>
      <trkpt lat="46.62066" lon="0.07278">
        <ele>142.8</ele>
        <time>2022-03-20T15:19:29Z</time>
      </trkpt>
      <trkpt lat="46.62068" lon="0.07285">
        <ele>142.2</ele>
        <time>2022-03-20T15:19:30Z</time>
      </trkpt>
      <trkpt lat="46.62076" lon="0.07304">
        <ele>141</ele>
        <time>2022-03-20T15:19:32Z</time>
      </trkpt>
      <trkpt lat="46.62083" lon="0.07319">
        <ele>139.8</ele>
        <time>2022-03-20T15:19:34Z</time>
      </trkpt>
      <trkpt lat="46.62085" lon="0.07324">
        <ele>139.6</ele>
        <time>2022-03-20T15:19:35Z</time>
      </trkpt>
      <trkpt lat="46.62088" lon="0.0733">
        <ele>139.2</ele>
        <time>2022-03-20T15:19:36Z</time>
      </trkpt>
      <trkpt lat="46.6209" lon="0.07336">
        <ele>138.8</ele>
        <time>2022-03-20T15:19:37Z</time>
      </trkpt>
      <trkpt lat="46.62092" lon="0.07344">
        <ele>138.6</ele>
        <time>2022-03-20T15:19:38Z</time>
      </trkpt>
      <trkpt lat="46.62094" lon="0.07352">
        <ele>138</ele>
        <time>2022-03-20T15:19:39Z</time>
      </trkpt>
      <trkpt lat="46.62096" lon="0.0736">
        <ele>137.8</ele>
        <time>2022-03-20T15:19:40Z</time>
      </trkpt>
      <trkpt lat="46.62098" lon="0.07368">
        <ele>137.4</ele>
        <time>2022-03-20T15:19:41Z</time>
      </trkpt>
      <trkpt lat="46.62108" lon="0.07413">
        <ele>136.6</ele>
        <time>2022-03-20T15:19:45Z</time>
      </trkpt>
      <trkpt lat="46.6211" lon="0.07421">
        <ele>136.2</ele>
        <time>2022-03-20T15:19:46Z</time>
      </trkpt>
      <trkpt lat="46.62116" lon="0.07439">
        <ele>134.8</ele>
        <time>2022-03-20T15:19:48Z</time>
      </trkpt>
      <trkpt lat="46.62119" lon="0.07446">
        <ele>134.4</ele>
        <time>2022-03-20T15:19:49Z</time>
      </trkpt>
      <trkpt lat="46.62122" lon="0.07452">
        <ele>133.2</ele>
        <time>2022-03-20T15:19:50Z</time>
      </trkpt>
      <trkpt lat="46.62124" lon="0.07457">
        <ele>132.8</ele>
        <time>2022-03-20T15:19:51Z</time>
      </trkpt>
      <trkpt lat="46.62128" lon="0.07461">
        <ele>131.8</ele>
        <time>2022-03-20T15:19:52Z</time>
      </trkpt>
      <trkpt lat="46.62132" lon="0.07464">
        <ele>131</ele>
        <time>2022-03-20T15:19:53Z</time>
      </trkpt>
      <trkpt lat="46.62137" lon="0.07467">
        <ele>130.6</ele>
        <time>2022-03-20T15:19:54Z</time>
      </trkpt>
      <trkpt lat="46.62141" lon="0.07468">
        <ele>130.2</ele>
        <time>2022-03-20T15:19:55Z</time>
      </trkpt>
      <trkpt lat="46.62145" lon="0.07469">
        <ele>129.8</ele>
        <time>2022-03-20T15:19:56Z</time>
      </trkpt>
      <trkpt lat="46.62148" lon="0.07471">
        <ele>129.6</ele>
        <time>2022-03-20T15:19:57Z</time>
      </trkpt>
      <trkpt lat="46.62151" lon="0.07472">
        <ele>129.6</ele>
        <time>2022-03-20T15:19:58Z</time>
      </trkpt>
      <trkpt lat="46.62154" lon="0.07474">
        <ele>129</ele>
        <time>2022-03-20T15:19:59Z</time>
      </trkpt>
      <trkpt lat="46.62157" lon="0.07478">
        <ele>128.8</ele>
        <time>2022-03-20T15:20:00Z</time>
      </trkpt>
      <trkpt lat="46.62158" lon="0.07483">
        <ele>128.6</ele>
        <time>2022-03-20T15:20:01Z</time>
      </trkpt>
      <trkpt lat="46.62159" lon="0.0749">
        <ele>128</ele>
        <time>2022-03-20T15:20:02Z</time>
      </trkpt>
      <trkpt lat="46.62158" lon="0.07506">
        <ele>127.4</ele>
        <time>2022-03-20T15:20:04Z</time>
      </trkpt>
      <trkpt lat="46.62156" lon="0.07512">
        <ele>127</ele>
        <time>2022-03-20T15:20:05Z</time>
      </trkpt>
      <trkpt lat="46.62154" lon="0.0752">
        <ele>126.6</ele>
        <time>2022-03-20T15:20:06Z</time>
      </trkpt>
      <trkpt lat="46.6215" lon="0.07523">
        <ele>126.4</ele>
        <time>2022-03-20T15:20:07Z</time>
      </trkpt>
      <trkpt lat="46.62147" lon="0.07525">
        <ele>125.4</ele>
        <time>2022-03-20T15:20:08Z</time>
      </trkpt>
      <trkpt lat="46.62141" lon="0.07528">
        <ele>125</ele>
        <time>2022-03-20T15:20:09Z</time>
      </trkpt>
      <trkpt lat="46.62131" lon="0.07532">
        <ele>123.8</ele>
        <time>2022-03-20T15:20:11Z</time>
      </trkpt>
      <trkpt lat="46.62126" lon="0.07535">
        <ele>123.4</ele>
        <time>2022-03-20T15:20:12Z</time>
      </trkpt>
      <trkpt lat="46.62116" lon="0.0754">
        <ele>122.4</ele>
        <time>2022-03-20T15:20:14Z</time>
      </trkpt>
      <trkpt lat="46.62108" lon="0.07545">
        <ele>121.6</ele>
        <time>2022-03-20T15:20:16Z</time>
      </trkpt>
      <trkpt lat="46.62105" lon="0.07547">
        <ele>121.4</ele>
        <time>2022-03-20T15:20:17Z</time>
      </trkpt>
      <trkpt lat="46.62102" lon="0.07548">
        <ele>121.2</ele>
        <time>2022-03-20T15:20:18Z</time>
      </trkpt>
      <trkpt lat="46.621" lon="0.07549">
        <ele>121.2</ele>
        <time>2022-03-20T15:20:19Z</time>
      </trkpt>
      <trkpt lat="46.62098" lon="0.0755">
        <ele>121</ele>
        <time>2022-03-20T15:20:20Z</time>
      </trkpt>
      <trkpt lat="46.62096" lon="0.07552">
        <ele>121</ele>
        <time>2022-03-20T15:20:21Z</time>
      </trkpt>
      <trkpt lat="46.62094" lon="0.07553">
        <ele>121</ele>
        <time>2022-03-20T15:20:22Z</time>
      </trkpt>
      <trkpt lat="46.62094" lon="0.07553">
        <ele>121</ele>
        <time>2022-03-20T15:20:23Z</time>
      </trkpt>
      <trkpt lat="46.62093" lon="0.07553">
        <ele>121</ele>
        <time>2022-03-20T15:20:24Z</time>
      </trkpt>
      <trkpt lat="46.62093" lon="0.07562">
        <ele>120.6</ele>
        <time>2022-03-20T15:20:44Z</time>
      </trkpt>
      <trkpt lat="46.62095" lon="0.07568">
        <ele>120.6</ele>
        <time>2022-03-20T15:20:46Z</time>
      </trkpt>
      <trkpt lat="46.62097" lon="0.07572">
        <ele>120.6</ele>
        <time>2022-03-20T15:20:47Z</time>
      </trkpt>
      <trkpt lat="46.62099" lon="0.07577">
        <ele>120.6</ele>
        <time>2022-03-20T15:20:48Z</time>
      </trkpt>
      <trkpt lat="46.62106" lon="0.07593">
        <ele>120.6</ele>
        <time>2022-03-20T15:20:52Z</time>
      </trkpt>
      <trkpt lat="46.62125" lon="0.07635">
        <ele>120.6</ele>
        <time>2022-03-20T15:21:02Z</time>
      </trkpt>
      <trkpt lat="46.62147" lon="0.07681">
        <ele>120.4</ele>
        <time>2022-03-20T15:21:13Z</time>
      </trkpt>
      <trkpt lat="46.62168" lon="0.07728">
        <ele>120.6</ele>
        <time>2022-03-20T15:21:23Z</time>
      </trkpt>
      <trkpt lat="46.62187" lon="0.07755">
        <ele>121</ele>
        <time>2022-03-20T15:21:30Z</time>
      </trkpt>
      <trkpt lat="46.62216" lon="0.07788">
        <ele>121.8</ele>
        <time>2022-03-20T15:21:39Z</time>
      </trkpt>
      <trkpt lat="46.6222" lon="0.07793">
        <ele>121.8</ele>
        <time>2022-03-20T15:21:40Z</time>
      </trkpt>
      <trkpt lat="46.62243" lon="0.07818">
        <ele>121.6</ele>
        <time>2022-03-20T15:21:46Z</time>
      </trkpt>
      <trkpt lat="46.6226" lon="0.07839">
        <ele>121.4</ele>
        <time>2022-03-20T15:21:51Z</time>
      </trkpt>
      <trkpt lat="46.62264" lon="0.07843">
        <ele>121.2</ele>
        <time>2022-03-20T15:21:52Z</time>
      </trkpt>
      <trkpt lat="46.62267" lon="0.07847">
        <ele>121.2</ele>
        <time>2022-03-20T15:21:53Z</time>
      </trkpt>
      <trkpt lat="46.62271" lon="0.07851">
        <ele>121.2</ele>
        <time>2022-03-20T15:21:54Z</time>
      </trkpt>
      <trkpt lat="46.62275" lon="0.07855">
        <ele>121.2</ele>
        <time>2022-03-20T15:21:55Z</time>
      </trkpt>
      <trkpt lat="46.62307" lon="0.07892">
        <ele>121.2</ele>
        <time>2022-03-20T15:22:04Z</time>
      </trkpt>
      <trkpt lat="46.62316" lon="0.07903">
        <ele>121.2</ele>
        <time>2022-03-20T15:22:07Z</time>
      </trkpt>
      <trkpt lat="46.62319" lon="0.07907">
        <ele>121.2</ele>
        <time>2022-03-20T15:22:08Z</time>
      </trkpt>
      <trkpt lat="46.62321" lon="0.07911">
        <ele>121.2</ele>
        <time>2022-03-20T15:22:09Z</time>
      </trkpt>
      <trkpt lat="46.62323" lon="0.07916">
        <ele>121.2</ele>
        <time>2022-03-20T15:22:10Z</time>
      </trkpt>
      <trkpt lat="46.62323" lon="0.07921">
        <ele>121.2</ele>
        <time>2022-03-20T15:22:11Z</time>
      </trkpt>
      <trkpt lat="46.62324" lon="0.07927">
        <ele>121.2</ele>
        <time>2022-03-20T15:22:12Z</time>
      </trkpt>
      <trkpt lat="46.62324" lon="0.07932">
        <ele>121.2</ele>
        <time>2022-03-20T15:22:13Z</time>
      </trkpt>
      <trkpt lat="46.62324" lon="0.07938">
        <ele>121.2</ele>
        <time>2022-03-20T15:22:14Z</time>
      </trkpt>
      <trkpt lat="46.62324" lon="0.07944">
        <ele>121</ele>
        <time>2022-03-20T15:22:15Z</time>
      </trkpt>
      <trkpt lat="46.62324" lon="0.07951">
        <ele>121</ele>
        <time>2022-03-20T15:22:16Z</time>
      </trkpt>
      <trkpt lat="46.62325" lon="0.07977">
        <ele>120.4</ele>
        <time>2022-03-20T15:22:20Z</time>
      </trkpt>
      <trkpt lat="46.62326" lon="0.07984">
        <ele>120.2</ele>
        <time>2022-03-20T15:22:21Z</time>
      </trkpt>
      <trkpt lat="46.62331" lon="0.08015">
        <ele>119.8</ele>
        <time>2022-03-20T15:22:26Z</time>
      </trkpt>
      <trkpt lat="46.62333" lon="0.08021">
        <ele>119.8</ele>
        <time>2022-03-20T15:22:27Z</time>
      </trkpt>
      <trkpt lat="46.62338" lon="0.08035">
        <ele>119.6</ele>
        <time>2022-03-20T15:22:30Z</time>
      </trkpt>
      <trkpt lat="46.62341" lon="0.0804">
        <ele>119.6</ele>
        <time>2022-03-20T15:22:31Z</time>
      </trkpt>
      <trkpt lat="46.62343" lon="0.08046">
        <ele>119.6</ele>
        <time>2022-03-20T15:22:32Z</time>
      </trkpt>
      <trkpt lat="46.62351" lon="0.08062">
        <ele>119.4</ele>
        <time>2022-03-20T15:22:35Z</time>
      </trkpt>
      <trkpt lat="46.62371" lon="0.08104">
        <ele>119.2</ele>
        <time>2022-03-20T15:22:42Z</time>
      </trkpt>
      <trkpt lat="46.62372" lon="0.08106">
        <ele>119.2</ele>
        <time>2022-03-20T15:22:43Z</time>
      </trkpt>
      <trkpt lat="46.62386" lon="0.08137">
        <ele>119.2</ele>
        <time>2022-03-20T15:22:48Z</time>
      </trkpt>
      <trkpt lat="46.62389" lon="0.08142">
        <ele>119.2</ele>
        <time>2022-03-20T15:22:49Z</time>
      </trkpt>
      <trkpt lat="46.62391" lon="0.08148">
        <ele>119.2</ele>
        <time>2022-03-20T15:22:50Z</time>
      </trkpt>
      <trkpt lat="46.62391" lon="0.08154">
        <ele>119</ele>
        <time>2022-03-20T15:22:51Z</time>
      </trkpt>
      <trkpt lat="46.6239" lon="0.08161">
        <ele>119</ele>
        <time>2022-03-20T15:22:52Z</time>
      </trkpt>
      <trkpt lat="46.62389" lon="0.08166">
        <ele>119</ele>
        <time>2022-03-20T15:22:53Z</time>
      </trkpt>
      <trkpt lat="46.62386" lon="0.08171">
        <ele>119</ele>
        <time>2022-03-20T15:22:54Z</time>
      </trkpt>
      <trkpt lat="46.62382" lon="0.08174">
        <ele>118.8</ele>
        <time>2022-03-20T15:22:55Z</time>
      </trkpt>
      <trkpt lat="46.62379" lon="0.08178">
        <ele>118.6</ele>
        <time>2022-03-20T15:22:56Z</time>
      </trkpt>
      <trkpt lat="46.62375" lon="0.08181">
        <ele>118.6</ele>
        <time>2022-03-20T15:22:57Z</time>
      </trkpt>
      <trkpt lat="46.62372" lon="0.08184">
        <ele>118.4</ele>
        <time>2022-03-20T15:22:58Z</time>
      </trkpt>
      <trkpt lat="46.62369" lon="0.08187">
        <ele>118.2</ele>
        <time>2022-03-20T15:22:59Z</time>
      </trkpt>
      <trkpt lat="46.62365" lon="0.08191">
        <ele>118.2</ele>
        <time>2022-03-20T15:23:00Z</time>
      </trkpt>
      <trkpt lat="46.62361" lon="0.08194">
        <ele>118.2</ele>
        <time>2022-03-20T15:23:01Z</time>
      </trkpt>
      <trkpt lat="46.62357" lon="0.08198">
        <ele>118.2</ele>
        <time>2022-03-20T15:23:02Z</time>
      </trkpt>
      <trkpt lat="46.62347" lon="0.08206">
        <ele>118.2</ele>
        <time>2022-03-20T15:23:05Z</time>
      </trkpt>
      <trkpt lat="46.62344" lon="0.08208">
        <ele>118.2</ele>
        <time>2022-03-20T15:23:06Z</time>
      </trkpt>
      <trkpt lat="46.62341" lon="0.08209">
        <ele>118.4</ele>
        <time>2022-03-20T15:23:07Z</time>
      </trkpt>
      <trkpt lat="46.62338" lon="0.08211">
        <ele>118.4</ele>
        <time>2022-03-20T15:23:08Z</time>
      </trkpt>
      <trkpt lat="46.62335" lon="0.08213">
        <ele>118.4</ele>
        <time>2022-03-20T15:23:09Z</time>
      </trkpt>
      <trkpt lat="46.62331" lon="0.08215">
        <ele>118.4</ele>
        <time>2022-03-20T15:23:10Z</time>
      </trkpt>
      <trkpt lat="46.62318" lon="0.08221">
        <ele>118.8</ele>
        <time>2022-03-20T15:23:13Z</time>
      </trkpt>
      <trkpt lat="46.62282" lon="0.08242">
        <ele>118.6</ele>
        <time>2022-03-20T15:23:22Z</time>
      </trkpt>
      <trkpt lat="46.6228" lon="0.08245">
        <ele>118.6</ele>
        <time>2022-03-20T15:23:23Z</time>
      </trkpt>
      <trkpt lat="46.62278" lon="0.08248">
        <ele>118.6</ele>
        <time>2022-03-20T15:23:24Z</time>
      </trkpt>
      <trkpt lat="46.62277" lon="0.0825">
        <ele>118.4</ele>
        <time>2022-03-20T15:23:25Z</time>
      </trkpt>
      <trkpt lat="46.62276" lon="0.08253">
        <ele>118.4</ele>
        <time>2022-03-20T15:23:26Z</time>
      </trkpt>
      <trkpt lat="46.62274" lon="0.08255">
        <ele>118.4</ele>
        <time>2022-03-20T15:23:27Z</time>
      </trkpt>
      <trkpt lat="46.62274" lon="0.08257">
        <ele>118.4</ele>
        <time>2022-03-20T15:23:28Z</time>
      </trkpt>
      <trkpt lat="46.62274" lon="0.08258">
        <ele>118.4</ele>
        <time>2022-03-20T15:23:29Z</time>
      </trkpt>
      <trkpt lat="46.62267" lon="0.08307">
        <ele>118</ele>
        <time>2022-03-20T15:24:14Z</time>
      </trkpt>
      <trkpt lat="46.62268" lon="0.08311">
        <ele>118</ele>
        <time>2022-03-20T15:24:16Z</time>
      </trkpt>
      <trkpt lat="46.62269" lon="0.08312">
        <ele>118</ele>
        <time>2022-03-20T15:24:17Z</time>
      </trkpt>
      <trkpt lat="46.62269" lon="0.08313">
        <ele>118.2</ele>
        <time>2022-03-20T15:24:18Z</time>
      </trkpt>
      <trkpt lat="46.6227" lon="0.08314">
        <ele>118.2</ele>
        <time>2022-03-20T15:24:19Z</time>
      </trkpt>
      <trkpt lat="46.62271" lon="0.08316">
        <ele>118.2</ele>
        <time>2022-03-20T15:24:20Z</time>
      </trkpt>
      <trkpt lat="46.62271" lon="0.08319">
        <ele>118.4</ele>
        <time>2022-03-20T15:24:23Z</time>
      </trkpt>
      <trkpt lat="46.62273" lon="0.0833">
        <ele>118.6</ele>
        <time>2022-03-20T15:24:32Z</time>
      </trkpt>
      <trkpt lat="46.62274" lon="0.08333">
        <ele>118.6</ele>
        <time>2022-03-20T15:24:33Z</time>
      </trkpt>
      <trkpt lat="46.62275" lon="0.08336">
        <ele>118.6</ele>
        <time>2022-03-20T15:24:34Z</time>
      </trkpt>
      <trkpt lat="46.62277" lon="0.08342">
        <ele>118.8</ele>
        <time>2022-03-20T15:24:36Z</time>
      </trkpt>
      <trkpt lat="46.62278" lon="0.08346">
        <ele>119.2</ele>
        <time>2022-03-20T15:24:37Z</time>
      </trkpt>
      <trkpt lat="46.62279" lon="0.08349">
        <ele>119.4</ele>
        <time>2022-03-20T15:24:38Z</time>
      </trkpt>
      <trkpt lat="46.62282" lon="0.08365">
        <ele>120.2</ele>
        <time>2022-03-20T15:24:43Z</time>
      </trkpt>
      <trkpt lat="46.62282" lon="0.08368">
        <ele>120.4</ele>
        <time>2022-03-20T15:24:44Z</time>
      </trkpt>
      <trkpt lat="46.62284" lon="0.08377">
        <ele>120.6</ele>
        <time>2022-03-20T15:24:47Z</time>
      </trkpt>
      <trkpt lat="46.62285" lon="0.0838">
        <ele>120.8</ele>
        <time>2022-03-20T15:24:48Z</time>
      </trkpt>
      <trkpt lat="46.62287" lon="0.08387">
        <ele>121.4</ele>
        <time>2022-03-20T15:24:50Z</time>
      </trkpt>
      <trkpt lat="46.62288" lon="0.0839">
        <ele>121.4</ele>
        <time>2022-03-20T15:24:51Z</time>
      </trkpt>
      <trkpt lat="46.62289" lon="0.08394">
        <ele>121.8</ele>
        <time>2022-03-20T15:24:52Z</time>
      </trkpt>
      <trkpt lat="46.62291" lon="0.08397">
        <ele>122</ele>
        <time>2022-03-20T15:24:53Z</time>
      </trkpt>
      <trkpt lat="46.62293" lon="0.084">
        <ele>122</ele>
        <time>2022-03-20T15:24:54Z</time>
      </trkpt>
      <trkpt lat="46.62294" lon="0.08404">
        <ele>122.4</ele>
        <time>2022-03-20T15:24:55Z</time>
      </trkpt>
      <trkpt lat="46.62295" lon="0.08407">
        <ele>122.4</ele>
        <time>2022-03-20T15:24:56Z</time>
      </trkpt>
      <trkpt lat="46.62295" lon="0.08411">
        <ele>123</ele>
        <time>2022-03-20T15:24:57Z</time>
      </trkpt>
      <trkpt lat="46.62296" lon="0.08415">
        <ele>123.2</ele>
        <time>2022-03-20T15:24:58Z</time>
      </trkpt>
      <trkpt lat="46.62296" lon="0.08418">
        <ele>123.4</ele>
        <time>2022-03-20T15:24:59Z</time>
      </trkpt>
      <trkpt lat="46.62297" lon="0.08422">
        <ele>124</ele>
        <time>2022-03-20T15:25:00Z</time>
      </trkpt>
      <trkpt lat="46.62297" lon="0.08424">
        <ele>124</ele>
        <time>2022-03-20T15:25:01Z</time>
      </trkpt>
      <trkpt lat="46.62298" lon="0.08429">
        <ele>124.6</ele>
        <time>2022-03-20T15:25:02Z</time>
      </trkpt>
      <trkpt lat="46.62298" lon="0.08432">
        <ele>125</ele>
        <time>2022-03-20T15:25:03Z</time>
      </trkpt>
      <trkpt lat="46.62299" lon="0.08437">
        <ele>125.4</ele>
        <time>2022-03-20T15:25:04Z</time>
      </trkpt>
      <trkpt lat="46.623" lon="0.0844">
        <ele>125.8</ele>
        <time>2022-03-20T15:25:05Z</time>
      </trkpt>
      <trkpt lat="46.62301" lon="0.08444">
        <ele>126</ele>
        <time>2022-03-20T15:25:06Z</time>
      </trkpt>
      <trkpt lat="46.62301" lon="0.08449">
        <ele>126.4</ele>
        <time>2022-03-20T15:25:07Z</time>
      </trkpt>
      <trkpt lat="46.62302" lon="0.08454">
        <ele>126.6</ele>
        <time>2022-03-20T15:25:08Z</time>
      </trkpt>
      <trkpt lat="46.62303" lon="0.08459">
        <ele>126.8</ele>
        <time>2022-03-20T15:25:09Z</time>
      </trkpt>
      <trkpt lat="46.62304" lon="0.08463">
        <ele>126.8</ele>
        <time>2022-03-20T15:25:10Z</time>
      </trkpt>
      <trkpt lat="46.62306" lon="0.08469">
        <ele>127.2</ele>
        <time>2022-03-20T15:25:11Z</time>
      </trkpt>
      <trkpt lat="46.62307" lon="0.08474">
        <ele>127.4</ele>
        <time>2022-03-20T15:25:12Z</time>
      </trkpt>
      <trkpt lat="46.62308" lon="0.08477">
        <ele>127.6</ele>
        <time>2022-03-20T15:25:13Z</time>
      </trkpt>
      <trkpt lat="46.62309" lon="0.08482">
        <ele>127.8</ele>
        <time>2022-03-20T15:25:14Z</time>
      </trkpt>
      <trkpt lat="46.62309" lon="0.08487">
        <ele>128</ele>
        <time>2022-03-20T15:25:15Z</time>
      </trkpt>
      <trkpt lat="46.62309" lon="0.0849">
        <ele>128.6</ele>
        <time>2022-03-20T15:25:16Z</time>
      </trkpt>
      <trkpt lat="46.6231" lon="0.08496">
        <ele>128.8</ele>
        <time>2022-03-20T15:25:17Z</time>
      </trkpt>
      <trkpt lat="46.6231" lon="0.08499">
        <ele>129</ele>
        <time>2022-03-20T15:25:18Z</time>
      </trkpt>
      <trkpt lat="46.62311" lon="0.08503">
        <ele>129.2</ele>
        <time>2022-03-20T15:25:19Z</time>
      </trkpt>
      <trkpt lat="46.62312" lon="0.08508">
        <ele>129.6</ele>
        <time>2022-03-20T15:25:20Z</time>
      </trkpt>
      <trkpt lat="46.62312" lon="0.08512">
        <ele>129.8</ele>
        <time>2022-03-20T15:25:21Z</time>
      </trkpt>
      <trkpt lat="46.62313" lon="0.08517">
        <ele>130</ele>
        <time>2022-03-20T15:25:22Z</time>
      </trkpt>
      <trkpt lat="46.62314" lon="0.08522">
        <ele>130.4</ele>
        <time>2022-03-20T15:25:23Z</time>
      </trkpt>
      <trkpt lat="46.62316" lon="0.08528">
        <ele>130.6</ele>
        <time>2022-03-20T15:25:24Z</time>
      </trkpt>
      <trkpt lat="46.62317" lon="0.08533">
        <ele>131</ele>
        <time>2022-03-20T15:25:25Z</time>
      </trkpt>
      <trkpt lat="46.62318" lon="0.08538">
        <ele>131.2</ele>
        <time>2022-03-20T15:25:26Z</time>
      </trkpt>
      <trkpt lat="46.62319" lon="0.08542">
        <ele>131.8</ele>
        <time>2022-03-20T15:25:27Z</time>
      </trkpt>
      <trkpt lat="46.62321" lon="0.08547">
        <ele>132</ele>
        <time>2022-03-20T15:25:28Z</time>
      </trkpt>
      <trkpt lat="46.62322" lon="0.08551">
        <ele>132.2</ele>
        <time>2022-03-20T15:25:29Z</time>
      </trkpt>
      <trkpt lat="46.62323" lon="0.08557">
        <ele>132.4</ele>
        <time>2022-03-20T15:25:30Z</time>
      </trkpt>
      <trkpt lat="46.62324" lon="0.08561">
        <ele>132.4</ele>
        <time>2022-03-20T15:25:31Z</time>
      </trkpt>
      <trkpt lat="46.62325" lon="0.08567">
        <ele>132.6</ele>
        <time>2022-03-20T15:25:32Z</time>
      </trkpt>
      <trkpt lat="46.62326" lon="0.08572">
        <ele>132.6</ele>
        <time>2022-03-20T15:25:33Z</time>
      </trkpt>
      <trkpt lat="46.62326" lon="0.08577">
        <ele>132.6</ele>
        <time>2022-03-20T15:25:34Z</time>
      </trkpt>
      <trkpt lat="46.62325" lon="0.08582">
        <ele>132.8</ele>
        <time>2022-03-20T15:25:35Z</time>
      </trkpt>
      <trkpt lat="46.62323" lon="0.08586">
        <ele>132.8</ele>
        <time>2022-03-20T15:25:36Z</time>
      </trkpt>
      <trkpt lat="46.62321" lon="0.08589">
        <ele>132.8</ele>
        <time>2022-03-20T15:25:37Z</time>
      </trkpt>
      <trkpt lat="46.62319" lon="0.08591">
        <ele>133</ele>
        <time>2022-03-20T15:25:38Z</time>
      </trkpt>
      <trkpt lat="46.62316" lon="0.08594">
        <ele>133.4</ele>
        <time>2022-03-20T15:25:39Z</time>
      </trkpt>
      <trkpt lat="46.62314" lon="0.08597">
        <ele>133.6</ele>
        <time>2022-03-20T15:25:40Z</time>
      </trkpt>
      <trkpt lat="46.62312" lon="0.08599">
        <ele>134</ele>
        <time>2022-03-20T15:25:41Z</time>
      </trkpt>
      <trkpt lat="46.6231" lon="0.08601">
        <ele>134.2</ele>
        <time>2022-03-20T15:25:42Z</time>
      </trkpt>
      <trkpt lat="46.62309" lon="0.08603">
        <ele>134.8</ele>
        <time>2022-03-20T15:25:43Z</time>
      </trkpt>
      <trkpt lat="46.62305" lon="0.08608">
        <ele>135.2</ele>
        <time>2022-03-20T15:25:44Z</time>
      </trkpt>
      <trkpt lat="46.62304" lon="0.08611">
        <ele>135.4</ele>
        <time>2022-03-20T15:25:45Z</time>
      </trkpt>
      <trkpt lat="46.62301" lon="0.08617">
        <ele>135.4</ele>
        <time>2022-03-20T15:25:46Z</time>
      </trkpt>
      <trkpt lat="46.62298" lon="0.08619">
        <ele>136</ele>
        <time>2022-03-20T15:25:47Z</time>
      </trkpt>
      <trkpt lat="46.62296" lon="0.08622">
        <ele>136.4</ele>
        <time>2022-03-20T15:25:48Z</time>
      </trkpt>
      <trkpt lat="46.62293" lon="0.08625">
        <ele>136.4</ele>
        <time>2022-03-20T15:25:49Z</time>
      </trkpt>
      <trkpt lat="46.62291" lon="0.08628">
        <ele>137.2</ele>
        <time>2022-03-20T15:25:50Z</time>
      </trkpt>
      <trkpt lat="46.62289" lon="0.08632">
        <ele>137.6</ele>
        <time>2022-03-20T15:25:51Z</time>
      </trkpt>
      <trkpt lat="46.62286" lon="0.08634">
        <ele>138</ele>
        <time>2022-03-20T15:25:52Z</time>
      </trkpt>
      <trkpt lat="46.62283" lon="0.08637">
        <ele>138.2</ele>
        <time>2022-03-20T15:25:53Z</time>
      </trkpt>
      <trkpt lat="46.6228" lon="0.08639">
        <ele>138.4</ele>
        <time>2022-03-20T15:25:54Z</time>
      </trkpt>
      <trkpt lat="46.62277" lon="0.08642">
        <ele>138.6</ele>
        <time>2022-03-20T15:25:55Z</time>
      </trkpt>
      <trkpt lat="46.62274" lon="0.08644">
        <ele>138.6</ele>
        <time>2022-03-20T15:25:56Z</time>
      </trkpt>
      <trkpt lat="46.62271" lon="0.08647">
        <ele>139</ele>
        <time>2022-03-20T15:25:57Z</time>
      </trkpt>
      <trkpt lat="46.62268" lon="0.08649">
        <ele>139.2</ele>
        <time>2022-03-20T15:25:58Z</time>
      </trkpt>
      <trkpt lat="46.62265" lon="0.08651">
        <ele>139.6</ele>
        <time>2022-03-20T15:25:59Z</time>
      </trkpt>
      <trkpt lat="46.62262" lon="0.08654">
        <ele>139.8</ele>
        <time>2022-03-20T15:26:00Z</time>
      </trkpt>
      <trkpt lat="46.62258" lon="0.08657">
        <ele>140.2</ele>
        <time>2022-03-20T15:26:01Z</time>
      </trkpt>
      <trkpt lat="46.62255" lon="0.08659">
        <ele>140.8</ele>
        <time>2022-03-20T15:26:02Z</time>
      </trkpt>
      <trkpt lat="46.62253" lon="0.08662">
        <ele>140.8</ele>
        <time>2022-03-20T15:26:03Z</time>
      </trkpt>
      <trkpt lat="46.6225" lon="0.08664">
        <ele>141</ele>
        <time>2022-03-20T15:26:04Z</time>
      </trkpt>
      <trkpt lat="46.62246" lon="0.08667">
        <ele>141.2</ele>
        <time>2022-03-20T15:26:05Z</time>
      </trkpt>
      <trkpt lat="46.62243" lon="0.08669">
        <ele>141.2</ele>
        <time>2022-03-20T15:26:06Z</time>
      </trkpt>
      <trkpt lat="46.6224" lon="0.08672">
        <ele>141.4</ele>
        <time>2022-03-20T15:26:07Z</time>
      </trkpt>
      <trkpt lat="46.62238" lon="0.08673">
        <ele>141.6</ele>
        <time>2022-03-20T15:26:08Z</time>
      </trkpt>
      <trkpt lat="46.62236" lon="0.08675">
        <ele>141.6</ele>
        <time>2022-03-20T15:26:09Z</time>
      </trkpt>
      <trkpt lat="46.62235" lon="0.08677">
        <ele>142</ele>
        <time>2022-03-20T15:26:10Z</time>
      </trkpt>
      <trkpt lat="46.62234" lon="0.08681">
        <ele>142.4</ele>
        <time>2022-03-20T15:26:11Z</time>
      </trkpt>
      <trkpt lat="46.62235" lon="0.08684">
        <ele>142.6</ele>
        <time>2022-03-20T15:26:12Z</time>
      </trkpt>
      <trkpt lat="46.62236" lon="0.08687">
        <ele>142.8</ele>
        <time>2022-03-20T15:26:13Z</time>
      </trkpt>
      <trkpt lat="46.62237" lon="0.08691">
        <ele>143</ele>
        <time>2022-03-20T15:26:14Z</time>
      </trkpt>
      <trkpt lat="46.62239" lon="0.08695">
        <ele>143</ele>
        <time>2022-03-20T15:26:15Z</time>
      </trkpt>
      <trkpt lat="46.62241" lon="0.08699">
        <ele>143.2</ele>
        <time>2022-03-20T15:26:16Z</time>
      </trkpt>
      <trkpt lat="46.62243" lon="0.08704">
        <ele>143.2</ele>
        <time>2022-03-20T15:26:17Z</time>
      </trkpt>
      <trkpt lat="46.62245" lon="0.08709">
        <ele>143.2</ele>
        <time>2022-03-20T15:26:18Z</time>
      </trkpt>
      <trkpt lat="46.62247" lon="0.08714">
        <ele>143</ele>
        <time>2022-03-20T15:26:19Z</time>
      </trkpt>
      <trkpt lat="46.62249" lon="0.08719">
        <ele>142.8</ele>
        <time>2022-03-20T15:26:20Z</time>
      </trkpt>
      <trkpt lat="46.62252" lon="0.08724">
        <ele>142.8</ele>
        <time>2022-03-20T15:26:21Z</time>
      </trkpt>
      <trkpt lat="46.62254" lon="0.0873">
        <ele>143</ele>
        <time>2022-03-20T15:26:22Z</time>
      </trkpt>
      <trkpt lat="46.62257" lon="0.08736">
        <ele>143</ele>
        <time>2022-03-20T15:26:23Z</time>
      </trkpt>
      <trkpt lat="46.6226" lon="0.08742">
        <ele>142.8</ele>
        <time>2022-03-20T15:26:24Z</time>
      </trkpt>
      <trkpt lat="46.62262" lon="0.08747">
        <ele>142.8</ele>
        <time>2022-03-20T15:26:25Z</time>
      </trkpt>
      <trkpt lat="46.62264" lon="0.08752">
        <ele>142.6</ele>
        <time>2022-03-20T15:26:26Z</time>
      </trkpt>
      <trkpt lat="46.62267" lon="0.0876">
        <ele>142.4</ele>
        <time>2022-03-20T15:26:27Z</time>
      </trkpt>
      <trkpt lat="46.6227" lon="0.08766">
        <ele>142.4</ele>
        <time>2022-03-20T15:26:28Z</time>
      </trkpt>
      <trkpt lat="46.62273" lon="0.08773">
        <ele>142.2</ele>
        <time>2022-03-20T15:26:29Z</time>
      </trkpt>
      <trkpt lat="46.62275" lon="0.08779">
        <ele>142.2</ele>
        <time>2022-03-20T15:26:30Z</time>
      </trkpt>
      <trkpt lat="46.62278" lon="0.08785">
        <ele>142</ele>
        <time>2022-03-20T15:26:31Z</time>
      </trkpt>
      <trkpt lat="46.62289" lon="0.0881">
        <ele>141.6</ele>
        <time>2022-03-20T15:26:35Z</time>
      </trkpt>
      <trkpt lat="46.62306" lon="0.0885">
        <ele>141</ele>
        <time>2022-03-20T15:26:42Z</time>
      </trkpt>
      <trkpt lat="46.62322" lon="0.08887">
        <ele>140.6</ele>
        <time>2022-03-20T15:26:46Z</time>
      </trkpt>
      <trkpt lat="46.6233" lon="0.08905">
        <ele>140.4</ele>
        <time>2022-03-20T15:26:48Z</time>
      </trkpt>
      <trkpt lat="46.62337" lon="0.08921">
        <ele>139.6</ele>
        <time>2022-03-20T15:26:50Z</time>
      </trkpt>
      <trkpt lat="46.62345" lon="0.08946">
        <ele>138.6</ele>
        <time>2022-03-20T15:26:53Z</time>
      </trkpt>
      <trkpt lat="46.62347" lon="0.08954">
        <ele>138.4</ele>
        <time>2022-03-20T15:26:54Z</time>
      </trkpt>
      <trkpt lat="46.62355" lon="0.08996">
        <ele>137.6</ele>
        <time>2022-03-20T15:26:59Z</time>
      </trkpt>
      <trkpt lat="46.62356" lon="0.09004">
        <ele>137.6</ele>
        <time>2022-03-20T15:27:00Z</time>
      </trkpt>
      <trkpt lat="46.62357" lon="0.0901">
        <ele>137.4</ele>
        <time>2022-03-20T15:27:01Z</time>
      </trkpt>
      <trkpt lat="46.62359" lon="0.09018">
        <ele>137.4</ele>
        <time>2022-03-20T15:27:02Z</time>
      </trkpt>
      <trkpt lat="46.6236" lon="0.09026">
        <ele>137.4</ele>
        <time>2022-03-20T15:27:03Z</time>
      </trkpt>
      <trkpt lat="46.62361" lon="0.09034">
        <ele>137.2</ele>
        <time>2022-03-20T15:27:04Z</time>
      </trkpt>
      <trkpt lat="46.62362" lon="0.09041">
        <ele>137</ele>
        <time>2022-03-20T15:27:05Z</time>
      </trkpt>
      <trkpt lat="46.62364" lon="0.09049">
        <ele>137</ele>
        <time>2022-03-20T15:27:06Z</time>
      </trkpt>
      <trkpt lat="46.62366" lon="0.09064">
        <ele>136.8</ele>
        <time>2022-03-20T15:27:08Z</time>
      </trkpt>
      <trkpt lat="46.62368" lon="0.09072">
        <ele>136.6</ele>
        <time>2022-03-20T15:27:09Z</time>
      </trkpt>
      <trkpt lat="46.62369" lon="0.09079">
        <ele>136.6</ele>
        <time>2022-03-20T15:27:10Z</time>
      </trkpt>
      <trkpt lat="46.6237" lon="0.09087">
        <ele>136.6</ele>
        <time>2022-03-20T15:27:11Z</time>
      </trkpt>
      <trkpt lat="46.62371" lon="0.09094">
        <ele>136.6</ele>
        <time>2022-03-20T15:27:12Z</time>
      </trkpt>
      <trkpt lat="46.62378" lon="0.09131">
        <ele>136.2</ele>
        <time>2022-03-20T15:27:17Z</time>
      </trkpt>
      <trkpt lat="46.6238" lon="0.09138">
        <ele>136.2</ele>
        <time>2022-03-20T15:27:18Z</time>
      </trkpt>
      <trkpt lat="46.62384" lon="0.09159">
        <ele>135.8</ele>
        <time>2022-03-20T15:27:21Z</time>
      </trkpt>
      <trkpt lat="46.62385" lon="0.09166">
        <ele>135.6</ele>
        <time>2022-03-20T15:27:22Z</time>
      </trkpt>
      <trkpt lat="46.62387" lon="0.09173">
        <ele>135.6</ele>
        <time>2022-03-20T15:27:23Z</time>
      </trkpt>
      <trkpt lat="46.62393" lon="0.09201">
        <ele>135.4</ele>
        <time>2022-03-20T15:27:27Z</time>
      </trkpt>
      <trkpt lat="46.62395" lon="0.09213">
        <ele>135.2</ele>
        <time>2022-03-20T15:27:29Z</time>
      </trkpt>
      <trkpt lat="46.62397" lon="0.0922">
        <ele>135.2</ele>
        <time>2022-03-20T15:27:30Z</time>
      </trkpt>
      <trkpt lat="46.62399" lon="0.09228">
        <ele>135.2</ele>
        <time>2022-03-20T15:27:31Z</time>
      </trkpt>
      <trkpt lat="46.62401" lon="0.09234">
        <ele>135</ele>
        <time>2022-03-20T15:27:32Z</time>
      </trkpt>
      <trkpt lat="46.62404" lon="0.09245">
        <ele>135</ele>
        <time>2022-03-20T15:27:34Z</time>
      </trkpt>
      <trkpt lat="46.62406" lon="0.0925">
        <ele>135</ele>
        <time>2022-03-20T15:27:35Z</time>
      </trkpt>
      <trkpt lat="46.62408" lon="0.09256">
        <ele>135</ele>
        <time>2022-03-20T15:27:36Z</time>
      </trkpt>
      <trkpt lat="46.6241" lon="0.09262">
        <ele>134.8</ele>
        <time>2022-03-20T15:27:37Z</time>
      </trkpt>
      <trkpt lat="46.62412" lon="0.09267">
        <ele>134.8</ele>
        <time>2022-03-20T15:27:38Z</time>
      </trkpt>
      <trkpt lat="46.62414" lon="0.09272">
        <ele>134.8</ele>
        <time>2022-03-20T15:27:39Z</time>
      </trkpt>
      <trkpt lat="46.62416" lon="0.09278">
        <ele>134.8</ele>
        <time>2022-03-20T15:27:40Z</time>
      </trkpt>
      <trkpt lat="46.62417" lon="0.09282">
        <ele>134.8</ele>
        <time>2022-03-20T15:27:41Z</time>
      </trkpt>
      <trkpt lat="46.62426" lon="0.09299">
        <ele>134.6</ele>
        <time>2022-03-20T15:27:44Z</time>
      </trkpt>
      <trkpt lat="46.62438" lon="0.09321">
        <ele>134.2</ele>
        <time>2022-03-20T15:27:47Z</time>
      </trkpt>
      <trkpt lat="46.62447" lon="0.09335">
        <ele>133.8</ele>
        <time>2022-03-20T15:27:49Z</time>
      </trkpt>
      <trkpt lat="46.62455" lon="0.09348">
        <ele>133.2</ele>
        <time>2022-03-20T15:27:51Z</time>
      </trkpt>
      <trkpt lat="46.62459" lon="0.09354">
        <ele>132.6</ele>
        <time>2022-03-20T15:27:52Z</time>
      </trkpt>
      <trkpt lat="46.62462" lon="0.09359">
        <ele>132.4</ele>
        <time>2022-03-20T15:27:53Z</time>
      </trkpt>
      <trkpt lat="46.62465" lon="0.09365">
        <ele>132</ele>
        <time>2022-03-20T15:27:54Z</time>
      </trkpt>
      <trkpt lat="46.62468" lon="0.0937">
        <ele>131.8</ele>
        <time>2022-03-20T15:27:55Z</time>
      </trkpt>
      <trkpt lat="46.62471" lon="0.09375">
        <ele>131.4</ele>
        <time>2022-03-20T15:27:56Z</time>
      </trkpt>
      <trkpt lat="46.62474" lon="0.09382">
        <ele>131.2</ele>
        <time>2022-03-20T15:27:57Z</time>
      </trkpt>
      <trkpt lat="46.62477" lon="0.09388">
        <ele>130.6</ele>
        <time>2022-03-20T15:27:58Z</time>
      </trkpt>
      <trkpt lat="46.62483" lon="0.09402">
        <ele>130</ele>
        <time>2022-03-20T15:28:00Z</time>
      </trkpt>
      <trkpt lat="46.62485" lon="0.09408">
        <ele>129.8</ele>
        <time>2022-03-20T15:28:01Z</time>
      </trkpt>
      <trkpt lat="46.62487" lon="0.09414">
        <ele>129.4</ele>
        <time>2022-03-20T15:28:02Z</time>
      </trkpt>
      <trkpt lat="46.62489" lon="0.0942">
        <ele>128.6</ele>
        <time>2022-03-20T15:28:03Z</time>
      </trkpt>
      <trkpt lat="46.62491" lon="0.09428">
        <ele>128.4</ele>
        <time>2022-03-20T15:28:04Z</time>
      </trkpt>
      <trkpt lat="46.62495" lon="0.09443">
        <ele>127.6</ele>
        <time>2022-03-20T15:28:07Z</time>
      </trkpt>
      <trkpt lat="46.62496" lon="0.09447">
        <ele>127.2</ele>
        <time>2022-03-20T15:28:08Z</time>
      </trkpt>
      <trkpt lat="46.62497" lon="0.09452">
        <ele>127</ele>
        <time>2022-03-20T15:28:09Z</time>
      </trkpt>
      <trkpt lat="46.62498" lon="0.09456">
        <ele>126.6</ele>
        <time>2022-03-20T15:28:10Z</time>
      </trkpt>
      <trkpt lat="46.62499" lon="0.0946">
        <ele>126.4</ele>
        <time>2022-03-20T15:28:11Z</time>
      </trkpt>
      <trkpt lat="46.625" lon="0.09464">
        <ele>126.2</ele>
        <time>2022-03-20T15:28:12Z</time>
      </trkpt>
      <trkpt lat="46.62501" lon="0.09468">
        <ele>126</ele>
        <time>2022-03-20T15:28:13Z</time>
      </trkpt>
      <trkpt lat="46.62503" lon="0.09477">
        <ele>125.4</ele>
        <time>2022-03-20T15:28:15Z</time>
      </trkpt>
      <trkpt lat="46.62503" lon="0.09481">
        <ele>124.8</ele>
        <time>2022-03-20T15:28:16Z</time>
      </trkpt>
      <trkpt lat="46.62504" lon="0.09484">
        <ele>124.4</ele>
        <time>2022-03-20T15:28:17Z</time>
      </trkpt>
      <trkpt lat="46.62505" lon="0.09488">
        <ele>124.2</ele>
        <time>2022-03-20T15:28:18Z</time>
      </trkpt>
      <trkpt lat="46.62505" lon="0.09492">
        <ele>124</ele>
        <time>2022-03-20T15:28:19Z</time>
      </trkpt>
      <trkpt lat="46.62505" lon="0.09497">
        <ele>123.8</ele>
        <time>2022-03-20T15:28:20Z</time>
      </trkpt>
      <trkpt lat="46.62506" lon="0.09501">
        <ele>123.2</ele>
        <time>2022-03-20T15:28:21Z</time>
      </trkpt>
      <trkpt lat="46.62508" lon="0.0952">
        <ele>122.2</ele>
        <time>2022-03-20T15:28:25Z</time>
      </trkpt>
      <trkpt lat="46.6251" lon="0.09525">
        <ele>121.6</ele>
        <time>2022-03-20T15:28:26Z</time>
      </trkpt>
      <trkpt lat="46.62512" lon="0.09536">
        <ele>121.2</ele>
        <time>2022-03-20T15:28:28Z</time>
      </trkpt>
      <trkpt lat="46.62514" lon="0.09548">
        <ele>120.4</ele>
        <time>2022-03-20T15:28:30Z</time>
      </trkpt>
      <trkpt lat="46.62517" lon="0.09562">
        <ele>119.6</ele>
        <time>2022-03-20T15:28:32Z</time>
      </trkpt>
      <trkpt lat="46.62517" lon="0.09568">
        <ele>119</ele>
        <time>2022-03-20T15:28:33Z</time>
      </trkpt>
      <trkpt lat="46.62518" lon="0.09579">
        <ele>118.6</ele>
        <time>2022-03-20T15:28:35Z</time>
      </trkpt>
      <trkpt lat="46.62517" lon="0.09584">
        <ele>118.4</ele>
        <time>2022-03-20T15:28:36Z</time>
      </trkpt>
      <trkpt lat="46.62517" lon="0.09589">
        <ele>118.2</ele>
        <time>2022-03-20T15:28:37Z</time>
      </trkpt>
      <trkpt lat="46.62516" lon="0.09595">
        <ele>118</ele>
        <time>2022-03-20T15:28:38Z</time>
      </trkpt>
      <trkpt lat="46.62515" lon="0.096">
        <ele>117.8</ele>
        <time>2022-03-20T15:28:39Z</time>
      </trkpt>
      <trkpt lat="46.62514" lon="0.09605">
        <ele>117.6</ele>
        <time>2022-03-20T15:28:40Z</time>
      </trkpt>
      <trkpt lat="46.62512" lon="0.0961">
        <ele>117.6</ele>
        <time>2022-03-20T15:28:41Z</time>
      </trkpt>
      <trkpt lat="46.6251" lon="0.09614">
        <ele>117.4</ele>
        <time>2022-03-20T15:28:42Z</time>
      </trkpt>
      <trkpt lat="46.62508" lon="0.09618">
        <ele>117.2</ele>
        <time>2022-03-20T15:28:43Z</time>
      </trkpt>
      <trkpt lat="46.62499" lon="0.0963">
        <ele>117.2</ele>
        <time>2022-03-20T15:28:46Z</time>
      </trkpt>
      <trkpt lat="46.62496" lon="0.09633">
        <ele>117.2</ele>
        <time>2022-03-20T15:28:47Z</time>
      </trkpt>
      <trkpt lat="46.62493" lon="0.09636">
        <ele>117.2</ele>
        <time>2022-03-20T15:28:48Z</time>
      </trkpt>
      <trkpt lat="46.62489" lon="0.09638">
        <ele>117.2</ele>
        <time>2022-03-20T15:28:49Z</time>
      </trkpt>
      <trkpt lat="46.62486" lon="0.0964">
        <ele>117.2</ele>
        <time>2022-03-20T15:28:50Z</time>
      </trkpt>
      <trkpt lat="46.62483" lon="0.09641">
        <ele>117.2</ele>
        <time>2022-03-20T15:28:51Z</time>
      </trkpt>
      <trkpt lat="46.6248" lon="0.09642">
        <ele>117.2</ele>
        <time>2022-03-20T15:28:52Z</time>
      </trkpt>
      <trkpt lat="46.62477" lon="0.09643">
        <ele>117.4</ele>
        <time>2022-03-20T15:28:53Z</time>
      </trkpt>
      <trkpt lat="46.62465" lon="0.09645">
        <ele>118.2</ele>
        <time>2022-03-20T15:28:57Z</time>
      </trkpt>
      <trkpt lat="46.62458" lon="0.09648">
        <ele>118.4</ele>
        <time>2022-03-20T15:28:59Z</time>
      </trkpt>
      <trkpt lat="46.62456" lon="0.0965">
        <ele>118.4</ele>
        <time>2022-03-20T15:29:00Z</time>
      </trkpt>
      <trkpt lat="46.62453" lon="0.09653">
        <ele>118.4</ele>
        <time>2022-03-20T15:29:01Z</time>
      </trkpt>
      <trkpt lat="46.62452" lon="0.09656">
        <ele>118.6</ele>
        <time>2022-03-20T15:29:02Z</time>
      </trkpt>
      <trkpt lat="46.6245" lon="0.0966">
        <ele>119</ele>
        <time>2022-03-20T15:29:03Z</time>
      </trkpt>
      <trkpt lat="46.62448" lon="0.09665">
        <ele>119.2</ele>
        <time>2022-03-20T15:29:04Z</time>
      </trkpt>
      <trkpt lat="46.62447" lon="0.09669">
        <ele>119.4</ele>
        <time>2022-03-20T15:29:05Z</time>
      </trkpt>
      <trkpt lat="46.62445" lon="0.09673">
        <ele>119.4</ele>
        <time>2022-03-20T15:29:06Z</time>
      </trkpt>
      <trkpt lat="46.62444" lon="0.09677">
        <ele>119.6</ele>
        <time>2022-03-20T15:29:07Z</time>
      </trkpt>
      <trkpt lat="46.62442" lon="0.09682">
        <ele>120</ele>
        <time>2022-03-20T15:29:09Z</time>
      </trkpt>
      <trkpt lat="46.62429" lon="0.09721">
        <ele>120.6</ele>
        <time>2022-03-20T15:29:17Z</time>
      </trkpt>
      <trkpt lat="46.62427" lon="0.09726">
        <ele>120.8</ele>
        <time>2022-03-20T15:29:18Z</time>
      </trkpt>
      <trkpt lat="46.62426" lon="0.0973">
        <ele>120.8</ele>
        <time>2022-03-20T15:29:19Z</time>
      </trkpt>
      <trkpt lat="46.62425" lon="0.09734">
        <ele>120.8</ele>
        <time>2022-03-20T15:29:20Z</time>
      </trkpt>
      <trkpt lat="46.62424" lon="0.09738">
        <ele>121</ele>
        <time>2022-03-20T15:29:21Z</time>
      </trkpt>
      <trkpt lat="46.62423" lon="0.09742">
        <ele>121</ele>
        <time>2022-03-20T15:29:22Z</time>
      </trkpt>
      <trkpt lat="46.62421" lon="0.09747">
        <ele>121</ele>
        <time>2022-03-20T15:29:23Z</time>
      </trkpt>
      <trkpt lat="46.6242" lon="0.09751">
        <ele>121.2</ele>
        <time>2022-03-20T15:29:24Z</time>
      </trkpt>
      <trkpt lat="46.62419" lon="0.09755">
        <ele>121.4</ele>
        <time>2022-03-20T15:29:25Z</time>
      </trkpt>
      <trkpt lat="46.62418" lon="0.09759">
        <ele>121.6</ele>
        <time>2022-03-20T15:29:26Z</time>
      </trkpt>
      <trkpt lat="46.62417" lon="0.09763">
        <ele>121.8</ele>
        <time>2022-03-20T15:29:27Z</time>
      </trkpt>
      <trkpt lat="46.62416" lon="0.09772">
        <ele>122</ele>
        <time>2022-03-20T15:29:29Z</time>
      </trkpt>
      <trkpt lat="46.62415" lon="0.09777">
        <ele>122.2</ele>
        <time>2022-03-20T15:29:30Z</time>
      </trkpt>
      <trkpt lat="46.62414" lon="0.09781">
        <ele>122.4</ele>
        <time>2022-03-20T15:29:31Z</time>
      </trkpt>
      <trkpt lat="46.62414" lon="0.09785">
        <ele>122.4</ele>
        <time>2022-03-20T15:29:32Z</time>
      </trkpt>
      <trkpt lat="46.62413" lon="0.09789">
        <ele>122.4</ele>
        <time>2022-03-20T15:29:33Z</time>
      </trkpt>
      <trkpt lat="46.62413" lon="0.09793">
        <ele>122.4</ele>
        <time>2022-03-20T15:29:34Z</time>
      </trkpt>
      <trkpt lat="46.62413" lon="0.09796">
        <ele>122.6</ele>
        <time>2022-03-20T15:29:35Z</time>
      </trkpt>
      <trkpt lat="46.62413" lon="0.09799">
        <ele>122.6</ele>
        <time>2022-03-20T15:29:36Z</time>
      </trkpt>
      <trkpt lat="46.62413" lon="0.09802">
        <ele>122.6</ele>
        <time>2022-03-20T15:29:37Z</time>
      </trkpt>
      <trkpt lat="46.62413" lon="0.09805">
        <ele>122.6</ele>
        <time>2022-03-20T15:29:38Z</time>
      </trkpt>
      <trkpt lat="46.62413" lon="0.09808">
        <ele>122.4</ele>
        <time>2022-03-20T15:29:39Z</time>
      </trkpt>
      <trkpt lat="46.62412" lon="0.0981">
        <ele>122.4</ele>
        <time>2022-03-20T15:29:40Z</time>
      </trkpt>
      <trkpt lat="46.62412" lon="0.09815">
        <ele>122.2</ele>
        <time>2022-03-20T15:29:41Z</time>
      </trkpt>
      <trkpt lat="46.6241" lon="0.09824">
        <ele>121.4</ele>
        <time>2022-03-20T15:29:44Z</time>
      </trkpt>
      <trkpt lat="46.62409" lon="0.0983">
        <ele>120.8</ele>
        <time>2022-03-20T15:29:46Z</time>
      </trkpt>
      <trkpt lat="46.62408" lon="0.09835">
        <ele>120.4</ele>
        <time>2022-03-20T15:29:48Z</time>
      </trkpt>
      <trkpt lat="46.62408" lon="0.09838">
        <ele>120.2</ele>
        <time>2022-03-20T15:29:49Z</time>
      </trkpt>
      <trkpt lat="46.62408" lon="0.0984">
        <ele>120</ele>
        <time>2022-03-20T15:29:50Z</time>
      </trkpt>
      <trkpt lat="46.62407" lon="0.09843">
        <ele>119.8</ele>
        <time>2022-03-20T15:29:51Z</time>
      </trkpt>
      <trkpt lat="46.62407" lon="0.09846">
        <ele>119.6</ele>
        <time>2022-03-20T15:29:52Z</time>
      </trkpt>
      <trkpt lat="46.62407" lon="0.09849">
        <ele>119.4</ele>
        <time>2022-03-20T15:29:53Z</time>
      </trkpt>
      <trkpt lat="46.62408" lon="0.09851">
        <ele>119.2</ele>
        <time>2022-03-20T15:29:54Z</time>
      </trkpt>
      <trkpt lat="46.62409" lon="0.09854">
        <ele>119</ele>
        <time>2022-03-20T15:29:55Z</time>
      </trkpt>
      <trkpt lat="46.62411" lon="0.09855">
        <ele>118.8</ele>
        <time>2022-03-20T15:29:56Z</time>
      </trkpt>
      <trkpt lat="46.62412" lon="0.09858">
        <ele>118.8</ele>
        <time>2022-03-20T15:29:57Z</time>
      </trkpt>
      <trkpt lat="46.62414" lon="0.0986">
        <ele>118.6</ele>
        <time>2022-03-20T15:29:58Z</time>
      </trkpt>
      <trkpt lat="46.62417" lon="0.09863">
        <ele>118.6</ele>
        <time>2022-03-20T15:29:59Z</time>
      </trkpt>
      <trkpt lat="46.62424" lon="0.09872">
        <ele>118</ele>
        <time>2022-03-20T15:30:02Z</time>
      </trkpt>
      <trkpt lat="46.62427" lon="0.09875">
        <ele>117.8</ele>
        <time>2022-03-20T15:30:03Z</time>
      </trkpt>
      <trkpt lat="46.62441" lon="0.09899">
        <ele>117.2</ele>
        <time>2022-03-20T15:30:08Z</time>
      </trkpt>
      <trkpt lat="46.62446" lon="0.09908">
        <ele>116.8</ele>
        <time>2022-03-20T15:30:10Z</time>
      </trkpt>
      <trkpt lat="46.62448" lon="0.09911">
        <ele>116.6</ele>
        <time>2022-03-20T15:30:11Z</time>
      </trkpt>
      <trkpt lat="46.6245" lon="0.09913">
        <ele>116.2</ele>
        <time>2022-03-20T15:30:13Z</time>
      </trkpt>
      <trkpt lat="46.62453" lon="0.09917">
        <ele>116.2</ele>
        <time>2022-03-20T15:30:14Z</time>
      </trkpt>
      <trkpt lat="46.62455" lon="0.09921">
        <ele>116</ele>
        <time>2022-03-20T15:30:15Z</time>
      </trkpt>
      <trkpt lat="46.62457" lon="0.09924">
        <ele>116</ele>
        <time>2022-03-20T15:30:16Z</time>
      </trkpt>
      <trkpt lat="46.62457" lon="0.09927">
        <ele>116</ele>
        <time>2022-03-20T15:30:17Z</time>
      </trkpt>
      <trkpt lat="46.62459" lon="0.09929">
        <ele>116</ele>
        <time>2022-03-20T15:30:18Z</time>
      </trkpt>
      <trkpt lat="46.62474" lon="0.09946">
        <ele>115.8</ele>
        <time>2022-03-20T15:30:26Z</time>
      </trkpt>
      <trkpt lat="46.62491" lon="0.09964">
        <ele>116</ele>
        <time>2022-03-20T15:30:34Z</time>
      </trkpt>
      <trkpt lat="46.62492" lon="0.09965">
        <ele>116</ele>
        <time>2022-03-20T15:30:35Z</time>
      </trkpt>
      <trkpt lat="46.62494" lon="0.09967">
        <ele>116</ele>
        <time>2022-03-20T15:30:36Z</time>
      </trkpt>
      <trkpt lat="46.62496" lon="0.09968">
        <ele>116</ele>
        <time>2022-03-20T15:30:37Z</time>
      </trkpt>
      <trkpt lat="46.62501" lon="0.09974">
        <ele>116</ele>
        <time>2022-03-20T15:30:40Z</time>
      </trkpt>
      <trkpt lat="46.62503" lon="0.09977">
        <ele>116</ele>
        <time>2022-03-20T15:30:41Z</time>
      </trkpt>
      <trkpt lat="46.62504" lon="0.09979">
        <ele>116</ele>
        <time>2022-03-20T15:30:42Z</time>
      </trkpt>
      <trkpt lat="46.62505" lon="0.09982">
        <ele>116</ele>
        <time>2022-03-20T15:30:43Z</time>
      </trkpt>
      <trkpt lat="46.62505" lon="0.0999">
        <ele>116</ele>
        <time>2022-03-20T15:30:45Z</time>
      </trkpt>
      <trkpt lat="46.62504" lon="0.09993">
        <ele>116</ele>
        <time>2022-03-20T15:30:46Z</time>
      </trkpt>
      <trkpt lat="46.62504" lon="0.09997">
        <ele>116.2</ele>
        <time>2022-03-20T15:30:47Z</time>
      </trkpt>
      <trkpt lat="46.62503" lon="0.10001">
        <ele>116.2</ele>
        <time>2022-03-20T15:30:48Z</time>
      </trkpt>
      <trkpt lat="46.62502" lon="0.10003">
        <ele>116.2</ele>
        <time>2022-03-20T15:30:49Z</time>
      </trkpt>
      <trkpt lat="46.62501" lon="0.10005">
        <ele>116.4</ele>
        <time>2022-03-20T15:30:50Z</time>
      </trkpt>
      <trkpt lat="46.625" lon="0.10008">
        <ele>116.4</ele>
        <time>2022-03-20T15:30:51Z</time>
      </trkpt>
      <trkpt lat="46.62497" lon="0.10017">
        <ele>116.6</ele>
        <time>2022-03-20T15:30:54Z</time>
      </trkpt>
      <trkpt lat="46.62497" lon="0.1002">
        <ele>117</ele>
        <time>2022-03-20T15:30:55Z</time>
      </trkpt>
      <trkpt lat="46.62496" lon="0.10024">
        <ele>117</ele>
        <time>2022-03-20T15:30:56Z</time>
      </trkpt>
      <trkpt lat="46.62496" lon="0.10028">
        <ele>117.4</ele>
        <time>2022-03-20T15:30:57Z</time>
      </trkpt>
      <trkpt lat="46.62495" lon="0.10032">
        <ele>117.6</ele>
        <time>2022-03-20T15:30:58Z</time>
      </trkpt>
      <trkpt lat="46.62494" lon="0.10035">
        <ele>118</ele>
        <time>2022-03-20T15:30:59Z</time>
      </trkpt>
      <trkpt lat="46.6249" lon="0.10056">
        <ele>119.2</ele>
        <time>2022-03-20T15:31:05Z</time>
      </trkpt>
      <trkpt lat="46.6249" lon="0.1006">
        <ele>119.6</ele>
        <time>2022-03-20T15:31:06Z</time>
      </trkpt>
      <trkpt lat="46.62489" lon="0.10063">
        <ele>119.8</ele>
        <time>2022-03-20T15:31:07Z</time>
      </trkpt>
      <trkpt lat="46.62488" lon="0.10066">
        <ele>120.4</ele>
        <time>2022-03-20T15:31:08Z</time>
      </trkpt>
      <trkpt lat="46.62487" lon="0.10069">
        <ele>120.8</ele>
        <time>2022-03-20T15:31:09Z</time>
      </trkpt>
      <trkpt lat="46.62486" lon="0.10072">
        <ele>121</ele>
        <time>2022-03-20T15:31:10Z</time>
      </trkpt>
      <trkpt lat="46.62486" lon="0.10076">
        <ele>121.6</ele>
        <time>2022-03-20T15:31:11Z</time>
      </trkpt>
      <trkpt lat="46.62485" lon="0.1008">
        <ele>121.8</ele>
        <time>2022-03-20T15:31:12Z</time>
      </trkpt>
      <trkpt lat="46.62484" lon="0.10083">
        <ele>122.4</ele>
        <time>2022-03-20T15:31:13Z</time>
      </trkpt>
      <trkpt lat="46.62484" lon="0.10086">
        <ele>122.6</ele>
        <time>2022-03-20T15:31:14Z</time>
      </trkpt>
      <trkpt lat="46.62483" lon="0.10089">
        <ele>123.2</ele>
        <time>2022-03-20T15:31:15Z</time>
      </trkpt>
      <trkpt lat="46.62482" lon="0.10092">
        <ele>123.6</ele>
        <time>2022-03-20T15:31:16Z</time>
      </trkpt>
      <trkpt lat="46.62481" lon="0.10095">
        <ele>123.8</ele>
        <time>2022-03-20T15:31:17Z</time>
      </trkpt>
      <trkpt lat="46.6248" lon="0.10098">
        <ele>124.4</ele>
        <time>2022-03-20T15:31:18Z</time>
      </trkpt>
      <trkpt lat="46.62479" lon="0.10102">
        <ele>124.6</ele>
        <time>2022-03-20T15:31:19Z</time>
      </trkpt>
      <trkpt lat="46.62478" lon="0.10105">
        <ele>125.2</ele>
        <time>2022-03-20T15:31:21Z</time>
      </trkpt>
      <trkpt lat="46.62477" lon="0.1011">
        <ele>125.6</ele>
        <time>2022-03-20T15:31:22Z</time>
      </trkpt>
      <trkpt lat="46.62476" lon="0.10113">
        <ele>125.8</ele>
        <time>2022-03-20T15:31:23Z</time>
      </trkpt>
      <trkpt lat="46.62474" lon="0.10118">
        <ele>126</ele>
        <time>2022-03-20T15:31:24Z</time>
      </trkpt>
      <trkpt lat="46.62473" lon="0.10121">
        <ele>126.4</ele>
        <time>2022-03-20T15:31:25Z</time>
      </trkpt>
      <trkpt lat="46.62472" lon="0.10124">
        <ele>126.6</ele>
        <time>2022-03-20T15:31:26Z</time>
      </trkpt>
      <trkpt lat="46.62471" lon="0.10126">
        <ele>127.2</ele>
        <time>2022-03-20T15:31:27Z</time>
      </trkpt>
      <trkpt lat="46.62471" lon="0.10129">
        <ele>127.4</ele>
        <time>2022-03-20T15:31:28Z</time>
      </trkpt>
      <trkpt lat="46.62471" lon="0.10133">
        <ele>127.8</ele>
        <time>2022-03-20T15:31:29Z</time>
      </trkpt>
      <trkpt lat="46.62472" lon="0.10136">
        <ele>128</ele>
        <time>2022-03-20T15:31:30Z</time>
      </trkpt>
      <trkpt lat="46.62472" lon="0.1014">
        <ele>128.4</ele>
        <time>2022-03-20T15:31:31Z</time>
      </trkpt>
      <trkpt lat="46.62472" lon="0.10143">
        <ele>129</ele>
        <time>2022-03-20T15:31:32Z</time>
      </trkpt>
      <trkpt lat="46.62473" lon="0.10148">
        <ele>129</ele>
        <time>2022-03-20T15:31:33Z</time>
      </trkpt>
      <trkpt lat="46.62473" lon="0.10151">
        <ele>129.4</ele>
        <time>2022-03-20T15:31:34Z</time>
      </trkpt>
      <trkpt lat="46.62474" lon="0.10154">
        <ele>129.4</ele>
        <time>2022-03-20T15:31:35Z</time>
      </trkpt>
      <trkpt lat="46.62474" lon="0.10158">
        <ele>129.8</ele>
        <time>2022-03-20T15:31:36Z</time>
      </trkpt>
      <trkpt lat="46.62475" lon="0.10162">
        <ele>130</ele>
        <time>2022-03-20T15:31:37Z</time>
      </trkpt>
      <trkpt lat="46.62476" lon="0.10166">
        <ele>130.4</ele>
        <time>2022-03-20T15:31:38Z</time>
      </trkpt>
      <trkpt lat="46.62476" lon="0.10169">
        <ele>130.8</ele>
        <time>2022-03-20T15:31:39Z</time>
      </trkpt>
      <trkpt lat="46.62476" lon="0.10173">
        <ele>131.4</ele>
        <time>2022-03-20T15:31:40Z</time>
      </trkpt>
      <trkpt lat="46.62477" lon="0.10176">
        <ele>131.8</ele>
        <time>2022-03-20T15:31:41Z</time>
      </trkpt>
      <trkpt lat="46.62478" lon="0.1018">
        <ele>132</ele>
        <time>2022-03-20T15:31:42Z</time>
      </trkpt>
      <trkpt lat="46.62478" lon="0.10184">
        <ele>132.4</ele>
        <time>2022-03-20T15:31:43Z</time>
      </trkpt>
      <trkpt lat="46.62479" lon="0.10188">
        <ele>132.4</ele>
        <time>2022-03-20T15:31:44Z</time>
      </trkpt>
      <trkpt lat="46.62479" lon="0.10191">
        <ele>132.8</ele>
        <time>2022-03-20T15:31:45Z</time>
      </trkpt>
      <trkpt lat="46.6248" lon="0.10196">
        <ele>132.8</ele>
        <time>2022-03-20T15:31:46Z</time>
      </trkpt>
      <trkpt lat="46.62481" lon="0.102">
        <ele>133</ele>
        <time>2022-03-20T15:31:47Z</time>
      </trkpt>
      <trkpt lat="46.62482" lon="0.10205">
        <ele>133.2</ele>
        <time>2022-03-20T15:31:48Z</time>
      </trkpt>
      <trkpt lat="46.62483" lon="0.10208">
        <ele>133.4</ele>
        <time>2022-03-20T15:31:49Z</time>
      </trkpt>
      <trkpt lat="46.62484" lon="0.10212">
        <ele>133.6</ele>
        <time>2022-03-20T15:31:50Z</time>
      </trkpt>
      <trkpt lat="46.62485" lon="0.10217">
        <ele>133.8</ele>
        <time>2022-03-20T15:31:51Z</time>
      </trkpt>
      <trkpt lat="46.62486" lon="0.10222">
        <ele>134.2</ele>
        <time>2022-03-20T15:31:52Z</time>
      </trkpt>
      <trkpt lat="46.62487" lon="0.10227">
        <ele>134.2</ele>
        <time>2022-03-20T15:31:53Z</time>
      </trkpt>
      <trkpt lat="46.62488" lon="0.10231">
        <ele>134.4</ele>
        <time>2022-03-20T15:31:54Z</time>
      </trkpt>
      <trkpt lat="46.62489" lon="0.10236">
        <ele>134.4</ele>
        <time>2022-03-20T15:31:55Z</time>
      </trkpt>
      <trkpt lat="46.6249" lon="0.10242">
        <ele>134.4</ele>
        <time>2022-03-20T15:31:56Z</time>
      </trkpt>
      <trkpt lat="46.6249" lon="0.10245">
        <ele>134.6</ele>
        <time>2022-03-20T15:31:57Z</time>
      </trkpt>
      <trkpt lat="46.62492" lon="0.1025">
        <ele>134.6</ele>
        <time>2022-03-20T15:31:58Z</time>
      </trkpt>
      <trkpt lat="46.62494" lon="0.10255">
        <ele>134.8</ele>
        <time>2022-03-20T15:31:59Z</time>
      </trkpt>
      <trkpt lat="46.62496" lon="0.10258">
        <ele>135</ele>
        <time>2022-03-20T15:32:00Z</time>
      </trkpt>
      <trkpt lat="46.62498" lon="0.10261">
        <ele>135</ele>
        <time>2022-03-20T15:32:01Z</time>
      </trkpt>
      <trkpt lat="46.62501" lon="0.10264">
        <ele>135.2</ele>
        <time>2022-03-20T15:32:02Z</time>
      </trkpt>
      <trkpt lat="46.62503" lon="0.10266">
        <ele>135.4</ele>
        <time>2022-03-20T15:32:03Z</time>
      </trkpt>
      <trkpt lat="46.62506" lon="0.10267">
        <ele>135.6</ele>
        <time>2022-03-20T15:32:04Z</time>
      </trkpt>
      <trkpt lat="46.62509" lon="0.10269">
        <ele>135.6</ele>
        <time>2022-03-20T15:32:05Z</time>
      </trkpt>
      <trkpt lat="46.62512" lon="0.10271">
        <ele>135.8</ele>
        <time>2022-03-20T15:32:06Z</time>
      </trkpt>
      <trkpt lat="46.62515" lon="0.10272">
        <ele>135.8</ele>
        <time>2022-03-20T15:32:07Z</time>
      </trkpt>
      <trkpt lat="46.62518" lon="0.10273">
        <ele>135.8</ele>
        <time>2022-03-20T15:32:08Z</time>
      </trkpt>
      <trkpt lat="46.6252" lon="0.10275">
        <ele>136</ele>
        <time>2022-03-20T15:32:09Z</time>
      </trkpt>
      <trkpt lat="46.62523" lon="0.10277">
        <ele>136</ele>
        <time>2022-03-20T15:32:10Z</time>
      </trkpt>
      <trkpt lat="46.62526" lon="0.10279">
        <ele>136.2</ele>
        <time>2022-03-20T15:32:11Z</time>
      </trkpt>
      <trkpt lat="46.62529" lon="0.1028">
        <ele>136.4</ele>
        <time>2022-03-20T15:32:12Z</time>
      </trkpt>
      <trkpt lat="46.62532" lon="0.10281">
        <ele>136.6</ele>
        <time>2022-03-20T15:32:13Z</time>
      </trkpt>
      <trkpt lat="46.62536" lon="0.10282">
        <ele>136.8</ele>
        <time>2022-03-20T15:32:14Z</time>
      </trkpt>
      <trkpt lat="46.6254" lon="0.10284">
        <ele>136.8</ele>
        <time>2022-03-20T15:32:15Z</time>
      </trkpt>
      <trkpt lat="46.62544" lon="0.10285">
        <ele>136.8</ele>
        <time>2022-03-20T15:32:16Z</time>
      </trkpt>
      <trkpt lat="46.62548" lon="0.10285">
        <ele>137</ele>
        <time>2022-03-20T15:32:17Z</time>
      </trkpt>
      <trkpt lat="46.62552" lon="0.10286">
        <ele>137</ele>
        <time>2022-03-20T15:32:18Z</time>
      </trkpt>
      <trkpt lat="46.62556" lon="0.10288">
        <ele>137</ele>
        <time>2022-03-20T15:32:19Z</time>
      </trkpt>
      <trkpt lat="46.6256" lon="0.1029">
        <ele>137.2</ele>
        <time>2022-03-20T15:32:20Z</time>
      </trkpt>
      <trkpt lat="46.62565" lon="0.10293">
        <ele>137.2</ele>
        <time>2022-03-20T15:32:21Z</time>
      </trkpt>
      <trkpt lat="46.62569" lon="0.10294">
        <ele>137.2</ele>
        <time>2022-03-20T15:32:22Z</time>
      </trkpt>
      <trkpt lat="46.62573" lon="0.10295">
        <ele>137</ele>
        <time>2022-03-20T15:32:23Z</time>
      </trkpt>
      <trkpt lat="46.62577" lon="0.10295">
        <ele>137.2</ele>
        <time>2022-03-20T15:32:24Z</time>
      </trkpt>
      <trkpt lat="46.6258" lon="0.10296">
        <ele>137.2</ele>
        <time>2022-03-20T15:32:25Z</time>
      </trkpt>
      <trkpt lat="46.62584" lon="0.10298">
        <ele>137.2</ele>
        <time>2022-03-20T15:32:26Z</time>
      </trkpt>
      <trkpt lat="46.62589" lon="0.103">
        <ele>137.2</ele>
        <time>2022-03-20T15:32:27Z</time>
      </trkpt>
      <trkpt lat="46.62594" lon="0.10302">
        <ele>137.2</ele>
        <time>2022-03-20T15:32:28Z</time>
      </trkpt>
      <trkpt lat="46.62599" lon="0.10303">
        <ele>137.2</ele>
        <time>2022-03-20T15:32:29Z</time>
      </trkpt>
      <trkpt lat="46.62607" lon="0.10306">
        <ele>137.4</ele>
        <time>2022-03-20T15:32:31Z</time>
      </trkpt>
      <trkpt lat="46.62619" lon="0.1031">
        <ele>138</ele>
        <time>2022-03-20T15:32:34Z</time>
      </trkpt>
      <trkpt lat="46.62628" lon="0.10314">
        <ele>137.6</ele>
        <time>2022-03-20T15:32:36Z</time>
      </trkpt>
      <trkpt lat="46.62631" lon="0.10316">
        <ele>137.8</ele>
        <time>2022-03-20T15:32:37Z</time>
      </trkpt>
      <trkpt lat="46.62633" lon="0.10317">
        <ele>138</ele>
        <time>2022-03-20T15:32:38Z</time>
      </trkpt>
      <trkpt lat="46.62638" lon="0.10319">
        <ele>138</ele>
        <time>2022-03-20T15:32:39Z</time>
      </trkpt>
      <trkpt lat="46.62646" lon="0.10321">
        <ele>138.2</ele>
        <time>2022-03-20T15:32:41Z</time>
      </trkpt>
      <trkpt lat="46.6265" lon="0.10321">
        <ele>138.2</ele>
        <time>2022-03-20T15:32:42Z</time>
      </trkpt>
      <trkpt lat="46.62654" lon="0.10322">
        <ele>138.4</ele>
        <time>2022-03-20T15:32:43Z</time>
      </trkpt>
      <trkpt lat="46.62659" lon="0.10326">
        <ele>138.4</ele>
        <time>2022-03-20T15:32:44Z</time>
      </trkpt>
      <trkpt lat="46.62669" lon="0.10328">
        <ele>138.4</ele>
        <time>2022-03-20T15:32:46Z</time>
      </trkpt>
      <trkpt lat="46.62691" lon="0.10334">
        <ele>139</ele>
        <time>2022-03-20T15:32:52Z</time>
      </trkpt>
      <trkpt lat="46.62694" lon="0.10335">
        <ele>139.2</ele>
        <time>2022-03-20T15:32:53Z</time>
      </trkpt>
      <trkpt lat="46.62712" lon="0.10342">
        <ele>139.4</ele>
        <time>2022-03-20T15:32:58Z</time>
      </trkpt>
      <trkpt lat="46.62729" lon="0.10345">
        <ele>139.4</ele>
        <time>2022-03-20T15:33:03Z</time>
      </trkpt>
      <trkpt lat="46.62732" lon="0.10345">
        <ele>139.4</ele>
        <time>2022-03-20T15:33:04Z</time>
      </trkpt>
      <trkpt lat="46.62735" lon="0.10346">
        <ele>139.6</ele>
        <time>2022-03-20T15:33:05Z</time>
      </trkpt>
      <trkpt lat="46.62737" lon="0.10347">
        <ele>139.8</ele>
        <time>2022-03-20T15:33:06Z</time>
      </trkpt>
      <trkpt lat="46.6274" lon="0.10348">
        <ele>139.8</ele>
        <time>2022-03-20T15:33:07Z</time>
      </trkpt>
      <trkpt lat="46.62743" lon="0.10349">
        <ele>139.8</ele>
        <time>2022-03-20T15:33:08Z</time>
      </trkpt>
      <trkpt lat="46.62751" lon="0.10351">
        <ele>140</ele>
        <time>2022-03-20T15:33:10Z</time>
      </trkpt>
      <trkpt lat="46.62766" lon="0.10353">
        <ele>140.2</ele>
        <time>2022-03-20T15:33:14Z</time>
      </trkpt>
      <trkpt lat="46.628" lon="0.1035">
        <ele>140.4</ele>
        <time>2022-03-20T15:33:21Z</time>
      </trkpt>
      <trkpt lat="46.62812" lon="0.10348">
        <ele>140.6</ele>
        <time>2022-03-20T15:33:23Z</time>
      </trkpt>
      <trkpt lat="46.62838" lon="0.1035">
        <ele>140.8</ele>
        <time>2022-03-20T15:33:29Z</time>
      </trkpt>
      <trkpt lat="46.62848" lon="0.10356">
        <ele>140.8</ele>
        <time>2022-03-20T15:33:31Z</time>
      </trkpt>
      <trkpt lat="46.62852" lon="0.10361">
        <ele>140.8</ele>
        <time>2022-03-20T15:33:32Z</time>
      </trkpt>
      <trkpt lat="46.62855" lon="0.10366">
        <ele>141</ele>
        <time>2022-03-20T15:33:33Z</time>
      </trkpt>
      <trkpt lat="46.62859" lon="0.10371">
        <ele>140.8</ele>
        <time>2022-03-20T15:33:34Z</time>
      </trkpt>
      <trkpt lat="46.62883" lon="0.10405">
        <ele>140.6</ele>
        <time>2022-03-20T15:33:41Z</time>
      </trkpt>
      <trkpt lat="46.62915" lon="0.10434">
        <ele>140.4</ele>
        <time>2022-03-20T15:33:48Z</time>
      </trkpt>
      <trkpt lat="46.6294" lon="0.10457">
        <ele>140</ele>
        <time>2022-03-20T15:33:54Z</time>
      </trkpt>
      <trkpt lat="46.62944" lon="0.1046">
        <ele>140</ele>
        <time>2022-03-20T15:33:55Z</time>
      </trkpt>
      <trkpt lat="46.62948" lon="0.10462">
        <ele>139.8</ele>
        <time>2022-03-20T15:33:56Z</time>
      </trkpt>
      <trkpt lat="46.6295" lon="0.10464">
        <ele>139.8</ele>
        <time>2022-03-20T15:33:57Z</time>
      </trkpt>
      <trkpt lat="46.62953" lon="0.10467">
        <ele>139.6</ele>
        <time>2022-03-20T15:33:58Z</time>
      </trkpt>
      <trkpt lat="46.62955" lon="0.10469">
        <ele>139.6</ele>
        <time>2022-03-20T15:33:59Z</time>
      </trkpt>
      <trkpt lat="46.62957" lon="0.10473">
        <ele>139.6</ele>
        <time>2022-03-20T15:34:00Z</time>
      </trkpt>
      <trkpt lat="46.62958" lon="0.10477">
        <ele>139.6</ele>
        <time>2022-03-20T15:34:01Z</time>
      </trkpt>
      <trkpt lat="46.62958" lon="0.10481">
        <ele>139.6</ele>
        <time>2022-03-20T15:34:02Z</time>
      </trkpt>
      <trkpt lat="46.62958" lon="0.10486">
        <ele>139.4</ele>
        <time>2022-03-20T15:34:03Z</time>
      </trkpt>
      <trkpt lat="46.62957" lon="0.1049">
        <ele>139.4</ele>
        <time>2022-03-20T15:34:04Z</time>
      </trkpt>
      <trkpt lat="46.62957" lon="0.10494">
        <ele>139.2</ele>
        <time>2022-03-20T15:34:05Z</time>
      </trkpt>
      <trkpt lat="46.62956" lon="0.10498">
        <ele>139.2</ele>
        <time>2022-03-20T15:34:06Z</time>
      </trkpt>
      <trkpt lat="46.62953" lon="0.10513">
        <ele>139</ele>
        <time>2022-03-20T15:34:10Z</time>
      </trkpt>
      <trkpt lat="46.62952" lon="0.10516">
        <ele>139</ele>
        <time>2022-03-20T15:34:11Z</time>
      </trkpt>
      <trkpt lat="46.62952" lon="0.10519">
        <ele>138.8</ele>
        <time>2022-03-20T15:34:12Z</time>
      </trkpt>
      <trkpt lat="46.62951" lon="0.10521">
        <ele>138.8</ele>
        <time>2022-03-20T15:34:13Z</time>
      </trkpt>
      <trkpt lat="46.62951" lon="0.10523">
        <ele>138.8</ele>
        <time>2022-03-20T15:34:14Z</time>
      </trkpt>
      <trkpt lat="46.62951" lon="0.10525">
        <ele>138.8</ele>
        <time>2022-03-20T15:34:15Z</time>
      </trkpt>
      <trkpt lat="46.62952" lon="0.10527">
        <ele>138.8</ele>
        <time>2022-03-20T15:34:16Z</time>
      </trkpt>
      <trkpt lat="46.62953" lon="0.10529">
        <ele>138.8</ele>
        <time>2022-03-20T15:34:17Z</time>
      </trkpt>
      <trkpt lat="46.62954" lon="0.10531">
        <ele>138.8</ele>
        <time>2022-03-20T15:34:18Z</time>
      </trkpt>
      <trkpt lat="46.62955" lon="0.10532">
        <ele>138.6</ele>
        <time>2022-03-20T15:34:19Z</time>
      </trkpt>
      <trkpt lat="46.62957" lon="0.10535">
        <ele>138.6</ele>
        <time>2022-03-20T15:34:20Z</time>
      </trkpt>
      <trkpt lat="46.62964" lon="0.10545">
        <ele>138.2</ele>
        <time>2022-03-20T15:34:24Z</time>
      </trkpt>
      <trkpt lat="46.62975" lon="0.10555">
        <ele>137.6</ele>
        <time>2022-03-20T15:34:28Z</time>
      </trkpt>
      <trkpt lat="46.62988" lon="0.10564">
        <ele>137.2</ele>
        <time>2022-03-20T15:34:32Z</time>
      </trkpt>
      <trkpt lat="46.63" lon="0.10573">
        <ele>136.6</ele>
        <time>2022-03-20T15:34:35Z</time>
      </trkpt>
      <trkpt lat="46.63014" lon="0.10582">
        <ele>135.6</ele>
        <time>2022-03-20T15:34:39Z</time>
      </trkpt>
      <trkpt lat="46.63017" lon="0.10584">
        <ele>135.6</ele>
        <time>2022-03-20T15:34:40Z</time>
      </trkpt>
      <trkpt lat="46.6302" lon="0.10586">
        <ele>135.6</ele>
        <time>2022-03-20T15:34:41Z</time>
      </trkpt>
      <trkpt lat="46.63022" lon="0.10588">
        <ele>135.6</ele>
        <time>2022-03-20T15:34:43Z</time>
      </trkpt>
      <trkpt lat="46.63025" lon="0.10589">
        <ele>135.8</ele>
        <time>2022-03-20T15:34:44Z</time>
      </trkpt>
      <trkpt lat="46.63027" lon="0.10591">
        <ele>135.8</ele>
        <time>2022-03-20T15:34:45Z</time>
      </trkpt>
      <trkpt lat="46.6303" lon="0.10593">
        <ele>135.8</ele>
        <time>2022-03-20T15:34:46Z</time>
      </trkpt>
      <trkpt lat="46.63031" lon="0.10594">
        <ele>135.8</ele>
        <time>2022-03-20T15:34:47Z</time>
      </trkpt>
      <trkpt lat="46.63033" lon="0.10595">
        <ele>135.8</ele>
        <time>2022-03-20T15:34:48Z</time>
      </trkpt>
      <trkpt lat="46.63034" lon="0.10596">
        <ele>136</ele>
        <time>2022-03-20T15:34:49Z</time>
      </trkpt>
      <trkpt lat="46.63036" lon="0.10598">
        <ele>136</ele>
        <time>2022-03-20T15:34:50Z</time>
      </trkpt>
      <trkpt lat="46.63038" lon="0.10599">
        <ele>136</ele>
        <time>2022-03-20T15:34:51Z</time>
      </trkpt>
      <trkpt lat="46.63045" lon="0.10611">
        <ele>137</ele>
        <time>2022-03-20T15:34:56Z</time>
      </trkpt>
      <trkpt lat="46.63047" lon="0.10615">
        <ele>137.2</ele>
        <time>2022-03-20T15:34:57Z</time>
      </trkpt>
      <trkpt lat="46.63052" lon="0.10631">
        <ele>138</ele>
        <time>2022-03-20T15:35:01Z</time>
      </trkpt>
      <trkpt lat="46.63056" lon="0.10648">
        <ele>139</ele>
        <time>2022-03-20T15:35:05Z</time>
      </trkpt>
      <trkpt lat="46.63059" lon="0.10657">
        <ele>139.2</ele>
        <time>2022-03-20T15:35:07Z</time>
      </trkpt>
      <trkpt lat="46.63059" lon="0.10667">
        <ele>139.2</ele>
        <time>2022-03-20T15:35:09Z</time>
      </trkpt>
      <trkpt lat="46.63059" lon="0.10672">
        <ele>139.2</ele>
        <time>2022-03-20T15:35:10Z</time>
      </trkpt>
      <trkpt lat="46.63059" lon="0.10677">
        <ele>139.4</ele>
        <time>2022-03-20T15:35:11Z</time>
      </trkpt>
      <trkpt lat="46.63059" lon="0.10682">
        <ele>139.4</ele>
        <time>2022-03-20T15:35:12Z</time>
      </trkpt>
      <trkpt lat="46.63058" lon="0.10687">
        <ele>139.4</ele>
        <time>2022-03-20T15:35:13Z</time>
      </trkpt>
      <trkpt lat="46.63056" lon="0.10691">
        <ele>139.4</ele>
        <time>2022-03-20T15:35:14Z</time>
      </trkpt>
      <trkpt lat="46.63055" lon="0.10697">
        <ele>139.4</ele>
        <time>2022-03-20T15:35:15Z</time>
      </trkpt>
      <trkpt lat="46.63055" lon="0.10702">
        <ele>139.4</ele>
        <time>2022-03-20T15:35:16Z</time>
      </trkpt>
      <trkpt lat="46.63055" lon="0.10708">
        <ele>139.6</ele>
        <time>2022-03-20T15:35:17Z</time>
      </trkpt>
      <trkpt lat="46.63054" lon="0.10713">
        <ele>139.8</ele>
        <time>2022-03-20T15:35:18Z</time>
      </trkpt>
      <trkpt lat="46.63054" lon="0.10718">
        <ele>139.8</ele>
        <time>2022-03-20T15:35:19Z</time>
      </trkpt>
      <trkpt lat="46.63053" lon="0.10722">
        <ele>139.6</ele>
        <time>2022-03-20T15:35:20Z</time>
      </trkpt>
      <trkpt lat="46.63053" lon="0.10726">
        <ele>139.6</ele>
        <time>2022-03-20T15:35:21Z</time>
      </trkpt>
      <trkpt lat="46.63052" lon="0.1073">
        <ele>139.6</ele>
        <time>2022-03-20T15:35:22Z</time>
      </trkpt>
      <trkpt lat="46.63051" lon="0.10735">
        <ele>139.8</ele>
        <time>2022-03-20T15:35:23Z</time>
      </trkpt>
      <trkpt lat="46.63051" lon="0.1074">
        <ele>139.6</ele>
        <time>2022-03-20T15:35:24Z</time>
      </trkpt>
      <trkpt lat="46.63051" lon="0.10747">
        <ele>139.8</ele>
        <time>2022-03-20T15:35:25Z</time>
      </trkpt>
      <trkpt lat="46.63051" lon="0.10752">
        <ele>140.2</ele>
        <time>2022-03-20T15:35:26Z</time>
      </trkpt>
      <trkpt lat="46.6305" lon="0.10757">
        <ele>140.2</ele>
        <time>2022-03-20T15:35:27Z</time>
      </trkpt>
      <trkpt lat="46.63046" lon="0.10772">
        <ele>140</ele>
        <time>2022-03-20T15:35:30Z</time>
      </trkpt>
      <trkpt lat="46.63045" lon="0.10779">
        <ele>140.2</ele>
        <time>2022-03-20T15:35:31Z</time>
      </trkpt>
      <trkpt lat="46.63045" lon="0.10798">
        <ele>140.4</ele>
        <time>2022-03-20T15:35:34Z</time>
      </trkpt>
      <trkpt lat="46.63049" lon="0.10806">
        <ele>140.4</ele>
        <time>2022-03-20T15:35:35Z</time>
      </trkpt>
      <trkpt lat="46.63052" lon="0.10811">
        <ele>140.4</ele>
        <time>2022-03-20T15:35:36Z</time>
      </trkpt>
      <trkpt lat="46.63053" lon="0.10815">
        <ele>140.4</ele>
        <time>2022-03-20T15:35:37Z</time>
      </trkpt>
      <trkpt lat="46.63059" lon="0.10832">
        <ele>140.6</ele>
        <time>2022-03-20T15:35:41Z</time>
      </trkpt>
      <trkpt lat="46.63061" lon="0.10839">
        <ele>140.6</ele>
        <time>2022-03-20T15:35:42Z</time>
      </trkpt>
      <trkpt lat="46.63071" lon="0.10867">
        <ele>140.8</ele>
        <time>2022-03-20T15:35:47Z</time>
      </trkpt>
      <trkpt lat="46.63076" lon="0.10883">
        <ele>140.8</ele>
        <time>2022-03-20T15:35:51Z</time>
      </trkpt>
      <trkpt lat="46.63077" lon="0.10888">
        <ele>140.8</ele>
        <time>2022-03-20T15:35:52Z</time>
      </trkpt>
      <trkpt lat="46.63078" lon="0.10892">
        <ele>140.8</ele>
        <time>2022-03-20T15:35:53Z</time>
      </trkpt>
      <trkpt lat="46.63083" lon="0.109">
        <ele>140.8</ele>
        <time>2022-03-20T15:35:55Z</time>
      </trkpt>
      <trkpt lat="46.63086" lon="0.10902">
        <ele>141</ele>
        <time>2022-03-20T15:35:56Z</time>
      </trkpt>
      <trkpt lat="46.63089" lon="0.10904">
        <ele>141</ele>
        <time>2022-03-20T15:35:57Z</time>
      </trkpt>
      <trkpt lat="46.63093" lon="0.10905">
        <ele>141</ele>
        <time>2022-03-20T15:35:58Z</time>
      </trkpt>
      <trkpt lat="46.63095" lon="0.10906">
        <ele>141</ele>
        <time>2022-03-20T15:35:59Z</time>
      </trkpt>
      <trkpt lat="46.63098" lon="0.10908">
        <ele>141</ele>
        <time>2022-03-20T15:36:00Z</time>
      </trkpt>
      <trkpt lat="46.63101" lon="0.10908">
        <ele>141</ele>
        <time>2022-03-20T15:36:01Z</time>
      </trkpt>
      <trkpt lat="46.63107" lon="0.10909">
        <ele>141</ele>
        <time>2022-03-20T15:36:03Z</time>
      </trkpt>
      <trkpt lat="46.63109" lon="0.1091">
        <ele>141.2</ele>
        <time>2022-03-20T15:36:04Z</time>
      </trkpt>
      <trkpt lat="46.63113" lon="0.1091">
        <ele>141.2</ele>
        <time>2022-03-20T15:36:05Z</time>
      </trkpt>
      <trkpt lat="46.63116" lon="0.1091">
        <ele>141.2</ele>
        <time>2022-03-20T15:36:06Z</time>
      </trkpt>
      <trkpt lat="46.63124" lon="0.10909">
        <ele>141.2</ele>
        <time>2022-03-20T15:36:08Z</time>
      </trkpt>
      <trkpt lat="46.63128" lon="0.10911">
        <ele>141.4</ele>
        <time>2022-03-20T15:36:09Z</time>
      </trkpt>
      <trkpt lat="46.63136" lon="0.10914">
        <ele>141.4</ele>
        <time>2022-03-20T15:36:11Z</time>
      </trkpt>
      <trkpt lat="46.6314" lon="0.10916">
        <ele>141.4</ele>
        <time>2022-03-20T15:36:12Z</time>
      </trkpt>
      <trkpt lat="46.63163" lon="0.10926">
        <ele>141.2</ele>
        <time>2022-03-20T15:36:18Z</time>
      </trkpt>
      <trkpt lat="46.63188" lon="0.10936">
        <ele>141.2</ele>
        <time>2022-03-20T15:36:24Z</time>
      </trkpt>
      <trkpt lat="46.63208" lon="0.10953">
        <ele>141.2</ele>
        <time>2022-03-20T15:36:29Z</time>
      </trkpt>
      <trkpt lat="46.63211" lon="0.10961">
        <ele>141.2</ele>
        <time>2022-03-20T15:36:30Z</time>
      </trkpt>
      <trkpt lat="46.63212" lon="0.10967">
        <ele>141</ele>
        <time>2022-03-20T15:36:31Z</time>
      </trkpt>
      <trkpt lat="46.63212" lon="0.10972">
        <ele>141</ele>
        <time>2022-03-20T15:36:32Z</time>
      </trkpt>
      <trkpt lat="46.63212" lon="0.10978">
        <ele>141</ele>
        <time>2022-03-20T15:36:33Z</time>
      </trkpt>
      <trkpt lat="46.63212" lon="0.10984">
        <ele>141</ele>
        <time>2022-03-20T15:36:34Z</time>
      </trkpt>
      <trkpt lat="46.63213" lon="0.10989">
        <ele>141</ele>
        <time>2022-03-20T15:36:35Z</time>
      </trkpt>
      <trkpt lat="46.63212" lon="0.10996">
        <ele>141</ele>
        <time>2022-03-20T15:36:36Z</time>
      </trkpt>
      <trkpt lat="46.63211" lon="0.11002">
        <ele>141</ele>
        <time>2022-03-20T15:36:37Z</time>
      </trkpt>
      <trkpt lat="46.6321" lon="0.11015">
        <ele>141</ele>
        <time>2022-03-20T15:36:39Z</time>
      </trkpt>
      <trkpt lat="46.63207" lon="0.11031">
        <ele>141</ele>
        <time>2022-03-20T15:36:42Z</time>
      </trkpt>
      <trkpt lat="46.63206" lon="0.11036">
        <ele>141</ele>
        <time>2022-03-20T15:36:43Z</time>
      </trkpt>
      <trkpt lat="46.63205" lon="0.1104">
        <ele>141</ele>
        <time>2022-03-20T15:36:44Z</time>
      </trkpt>
      <trkpt lat="46.63205" lon="0.11045">
        <ele>141</ele>
        <time>2022-03-20T15:36:45Z</time>
      </trkpt>
      <trkpt lat="46.63204" lon="0.11051">
        <ele>140.8</ele>
        <time>2022-03-20T15:36:46Z</time>
      </trkpt>
      <trkpt lat="46.63203" lon="0.11056">
        <ele>140.8</ele>
        <time>2022-03-20T15:36:47Z</time>
      </trkpt>
      <trkpt lat="46.63201" lon="0.11105">
        <ele>139.8</ele>
        <time>2022-03-20T15:36:55Z</time>
      </trkpt>
      <trkpt lat="46.63202" lon="0.11111">
        <ele>139.8</ele>
        <time>2022-03-20T15:36:56Z</time>
      </trkpt>
      <trkpt lat="46.63202" lon="0.11118">
        <ele>139.6</ele>
        <time>2022-03-20T15:36:57Z</time>
      </trkpt>
      <trkpt lat="46.63201" lon="0.11143">
        <ele>139.4</ele>
        <time>2022-03-20T15:37:01Z</time>
      </trkpt>
      <trkpt lat="46.632" lon="0.11149">
        <ele>139.2</ele>
        <time>2022-03-20T15:37:02Z</time>
      </trkpt>
      <trkpt lat="46.632" lon="0.11155">
        <ele>139.2</ele>
        <time>2022-03-20T15:37:03Z</time>
      </trkpt>
      <trkpt lat="46.63199" lon="0.11161">
        <ele>139</ele>
        <time>2022-03-20T15:37:04Z</time>
      </trkpt>
      <trkpt lat="46.63198" lon="0.11168">
        <ele>139</ele>
        <time>2022-03-20T15:37:05Z</time>
      </trkpt>
      <trkpt lat="46.63197" lon="0.11175">
        <ele>138.8</ele>
        <time>2022-03-20T15:37:06Z</time>
      </trkpt>
      <trkpt lat="46.63195" lon="0.11189">
        <ele>138.6</ele>
        <time>2022-03-20T15:37:08Z</time>
      </trkpt>
      <trkpt lat="46.63193" lon="0.112">
        <ele>138.4</ele>
        <time>2022-03-20T15:37:10Z</time>
      </trkpt>
      <trkpt lat="46.6319" lon="0.11215">
        <ele>138.4</ele>
        <time>2022-03-20T15:37:12Z</time>
      </trkpt>
      <trkpt lat="46.63188" lon="0.11221">
        <ele>138.2</ele>
        <time>2022-03-20T15:37:13Z</time>
      </trkpt>
      <trkpt lat="46.63183" lon="0.1124">
        <ele>137.6</ele>
        <time>2022-03-20T15:37:16Z</time>
      </trkpt>
      <trkpt lat="46.63181" lon="0.11251">
        <ele>137.2</ele>
        <time>2022-03-20T15:37:18Z</time>
      </trkpt>
      <trkpt lat="46.6318" lon="0.11257">
        <ele>137</ele>
        <time>2022-03-20T15:37:19Z</time>
      </trkpt>
      <trkpt lat="46.6318" lon="0.11264">
        <ele>137</ele>
        <time>2022-03-20T15:37:20Z</time>
      </trkpt>
      <trkpt lat="46.63179" lon="0.1127">
        <ele>136.8</ele>
        <time>2022-03-20T15:37:21Z</time>
      </trkpt>
      <trkpt lat="46.63179" lon="0.11276">
        <ele>136.6</ele>
        <time>2022-03-20T15:37:22Z</time>
      </trkpt>
      <trkpt lat="46.63179" lon="0.11284">
        <ele>136.6</ele>
        <time>2022-03-20T15:37:23Z</time>
      </trkpt>
      <trkpt lat="46.63178" lon="0.11297">
        <ele>136.2</ele>
        <time>2022-03-20T15:37:25Z</time>
      </trkpt>
      <trkpt lat="46.63179" lon="0.1131">
        <ele>136</ele>
        <time>2022-03-20T15:37:27Z</time>
      </trkpt>
      <trkpt lat="46.63178" lon="0.11315">
        <ele>136</ele>
        <time>2022-03-20T15:37:28Z</time>
      </trkpt>
      <trkpt lat="46.63177" lon="0.11321">
        <ele>136</ele>
        <time>2022-03-20T15:37:29Z</time>
      </trkpt>
      <trkpt lat="46.63177" lon="0.11326">
        <ele>135.8</ele>
        <time>2022-03-20T15:37:30Z</time>
      </trkpt>
      <trkpt lat="46.63177" lon="0.11332">
        <ele>135.6</ele>
        <time>2022-03-20T15:37:31Z</time>
      </trkpt>
      <trkpt lat="46.63178" lon="0.11354">
        <ele>134.6</ele>
        <time>2022-03-20T15:37:35Z</time>
      </trkpt>
      <trkpt lat="46.63178" lon="0.11359">
        <ele>134.6</ele>
        <time>2022-03-20T15:37:36Z</time>
      </trkpt>
      <trkpt lat="46.63179" lon="0.11363">
        <ele>134.4</ele>
        <time>2022-03-20T15:37:37Z</time>
      </trkpt>
      <trkpt lat="46.6318" lon="0.11368">
        <ele>134.2</ele>
        <time>2022-03-20T15:37:38Z</time>
      </trkpt>
      <trkpt lat="46.63183" lon="0.11372">
        <ele>134.2</ele>
        <time>2022-03-20T15:37:39Z</time>
      </trkpt>
      <trkpt lat="46.63185" lon="0.11376">
        <ele>133.8</ele>
        <time>2022-03-20T15:37:40Z</time>
      </trkpt>
      <trkpt lat="46.63187" lon="0.11381">
        <ele>133.4</ele>
        <time>2022-03-20T15:37:41Z</time>
      </trkpt>
      <trkpt lat="46.63191" lon="0.11386">
        <ele>133.2</ele>
        <time>2022-03-20T15:37:42Z</time>
      </trkpt>
      <trkpt lat="46.63195" lon="0.11391">
        <ele>133</ele>
        <time>2022-03-20T15:37:43Z</time>
      </trkpt>
      <trkpt lat="46.63199" lon="0.11395">
        <ele>132.8</ele>
        <time>2022-03-20T15:37:44Z</time>
      </trkpt>
      <trkpt lat="46.63202" lon="0.11399">
        <ele>132.4</ele>
        <time>2022-03-20T15:37:45Z</time>
      </trkpt>
      <trkpt lat="46.63209" lon="0.11407">
        <ele>132</ele>
        <time>2022-03-20T15:37:47Z</time>
      </trkpt>
      <trkpt lat="46.63212" lon="0.1141">
        <ele>131.6</ele>
        <time>2022-03-20T15:37:48Z</time>
      </trkpt>
      <trkpt lat="46.63214" lon="0.11413">
        <ele>131.4</ele>
        <time>2022-03-20T15:37:49Z</time>
      </trkpt>
      <trkpt lat="46.63216" lon="0.11416">
        <ele>131.2</ele>
        <time>2022-03-20T15:37:50Z</time>
      </trkpt>
      <trkpt lat="46.63217" lon="0.11418">
        <ele>131.2</ele>
        <time>2022-03-20T15:37:51Z</time>
      </trkpt>
      <trkpt lat="46.63219" lon="0.11421">
        <ele>131.2</ele>
        <time>2022-03-20T15:37:52Z</time>
      </trkpt>
      <trkpt lat="46.6322" lon="0.11423">
        <ele>131.2</ele>
        <time>2022-03-20T15:37:53Z</time>
      </trkpt>
      <trkpt lat="46.63224" lon="0.11428">
        <ele>131.2</ele>
        <time>2022-03-20T15:37:55Z</time>
      </trkpt>
      <trkpt lat="46.63225" lon="0.1143">
        <ele>131.4</ele>
        <time>2022-03-20T15:37:56Z</time>
      </trkpt>
      <trkpt lat="46.63227" lon="0.11432">
        <ele>132</ele>
        <time>2022-03-20T15:37:57Z</time>
      </trkpt>
      <trkpt lat="46.63228" lon="0.11433">
        <ele>132.4</ele>
        <time>2022-03-20T15:37:58Z</time>
      </trkpt>
      <trkpt lat="46.6323" lon="0.11435">
        <ele>133</ele>
        <time>2022-03-20T15:37:59Z</time>
      </trkpt>
      <trkpt lat="46.63232" lon="0.11437">
        <ele>133.2</ele>
        <time>2022-03-20T15:38:00Z</time>
      </trkpt>
      <trkpt lat="46.63234" lon="0.11438">
        <ele>133.4</ele>
        <time>2022-03-20T15:38:01Z</time>
      </trkpt>
      <trkpt lat="46.63236" lon="0.11439">
        <ele>133.6</ele>
        <time>2022-03-20T15:38:02Z</time>
      </trkpt>
      <trkpt lat="46.63247" lon="0.11444">
        <ele>134.6</ele>
        <time>2022-03-20T15:38:07Z</time>
      </trkpt>
      <trkpt lat="46.63255" lon="0.11445">
        <ele>134.8</ele>
        <time>2022-03-20T15:38:10Z</time>
      </trkpt>
      <trkpt lat="46.63272" lon="0.1145">
        <ele>135.4</ele>
        <time>2022-03-20T15:38:17Z</time>
      </trkpt>
      <trkpt lat="46.63274" lon="0.11452">
        <ele>135.6</ele>
        <time>2022-03-20T15:38:18Z</time>
      </trkpt>
      <trkpt lat="46.63276" lon="0.11455">
        <ele>135.8</ele>
        <time>2022-03-20T15:38:19Z</time>
      </trkpt>
      <trkpt lat="46.63277" lon="0.11459">
        <ele>135.8</ele>
        <time>2022-03-20T15:38:20Z</time>
      </trkpt>
      <trkpt lat="46.63279" lon="0.11463">
        <ele>136</ele>
        <time>2022-03-20T15:38:21Z</time>
      </trkpt>
      <trkpt lat="46.63281" lon="0.11467">
        <ele>136.2</ele>
        <time>2022-03-20T15:38:22Z</time>
      </trkpt>
      <trkpt lat="46.63283" lon="0.11472">
        <ele>136.2</ele>
        <time>2022-03-20T15:38:23Z</time>
      </trkpt>
      <trkpt lat="46.63285" lon="0.11476">
        <ele>136.4</ele>
        <time>2022-03-20T15:38:24Z</time>
      </trkpt>
      <trkpt lat="46.63287" lon="0.11481">
        <ele>136.4</ele>
        <time>2022-03-20T15:38:25Z</time>
      </trkpt>
      <trkpt lat="46.63289" lon="0.11485">
        <ele>136.4</ele>
        <time>2022-03-20T15:38:26Z</time>
      </trkpt>
      <trkpt lat="46.63291" lon="0.11489">
        <ele>136.4</ele>
        <time>2022-03-20T15:38:27Z</time>
      </trkpt>
      <trkpt lat="46.63293" lon="0.11493">
        <ele>136.6</ele>
        <time>2022-03-20T15:38:28Z</time>
      </trkpt>
      <trkpt lat="46.63296" lon="0.11496">
        <ele>136.6</ele>
        <time>2022-03-20T15:38:29Z</time>
      </trkpt>
      <trkpt lat="46.63299" lon="0.115">
        <ele>136.6</ele>
        <time>2022-03-20T15:38:30Z</time>
      </trkpt>
      <trkpt lat="46.63301" lon="0.11503">
        <ele>136.6</ele>
        <time>2022-03-20T15:38:31Z</time>
      </trkpt>
      <trkpt lat="46.63303" lon="0.11507">
        <ele>136.6</ele>
        <time>2022-03-20T15:38:32Z</time>
      </trkpt>
      <trkpt lat="46.63306" lon="0.11512">
        <ele>136.6</ele>
        <time>2022-03-20T15:38:33Z</time>
      </trkpt>
      <trkpt lat="46.63308" lon="0.11516">
        <ele>136.6</ele>
        <time>2022-03-20T15:38:34Z</time>
      </trkpt>
      <trkpt lat="46.6331" lon="0.11521">
        <ele>136.6</ele>
        <time>2022-03-20T15:38:35Z</time>
      </trkpt>
      <trkpt lat="46.63314" lon="0.11532">
        <ele>136.6</ele>
        <time>2022-03-20T15:38:37Z</time>
      </trkpt>
      <trkpt lat="46.63331" lon="0.11577">
        <ele>135.8</ele>
        <time>2022-03-20T15:38:46Z</time>
      </trkpt>
      <trkpt lat="46.63338" lon="0.11598">
        <ele>135.6</ele>
        <time>2022-03-20T15:38:50Z</time>
      </trkpt>
      <trkpt lat="46.63339" lon="0.11603">
        <ele>135.6</ele>
        <time>2022-03-20T15:38:51Z</time>
      </trkpt>
      <trkpt lat="46.6334" lon="0.11609">
        <ele>135.6</ele>
        <time>2022-03-20T15:38:52Z</time>
      </trkpt>
      <trkpt lat="46.63348" lon="0.11648">
        <ele>135.2</ele>
        <time>2022-03-20T15:38:58Z</time>
      </trkpt>
      <trkpt lat="46.63356" lon="0.1168">
        <ele>135</ele>
        <time>2022-03-20T15:39:03Z</time>
      </trkpt>
      <trkpt lat="46.63358" lon="0.11687">
        <ele>135</ele>
        <time>2022-03-20T15:39:04Z</time>
      </trkpt>
      <trkpt lat="46.63362" lon="0.11706">
        <ele>134.4</ele>
        <time>2022-03-20T15:39:07Z</time>
      </trkpt>
      <trkpt lat="46.6337" lon="0.11744">
        <ele>133.4</ele>
        <time>2022-03-20T15:39:13Z</time>
      </trkpt>
      <trkpt lat="46.63374" lon="0.11762">
        <ele>133.4</ele>
        <time>2022-03-20T15:39:16Z</time>
      </trkpt>
      <trkpt lat="46.63382" lon="0.11777">
        <ele>132.8</ele>
        <time>2022-03-20T15:39:19Z</time>
      </trkpt>
      <trkpt lat="46.63388" lon="0.11786">
        <ele>132.2</ele>
        <time>2022-03-20T15:39:21Z</time>
      </trkpt>
      <trkpt lat="46.63394" lon="0.11795">
        <ele>132</ele>
        <time>2022-03-20T15:39:23Z</time>
      </trkpt>
      <trkpt lat="46.63398" lon="0.11799">
        <ele>132</ele>
        <time>2022-03-20T15:39:24Z</time>
      </trkpt>
      <trkpt lat="46.63406" lon="0.11815">
        <ele>131.6</ele>
        <time>2022-03-20T15:39:27Z</time>
      </trkpt>
      <trkpt lat="46.63411" lon="0.11826">
        <ele>131.4</ele>
        <time>2022-03-20T15:39:29Z</time>
      </trkpt>
      <trkpt lat="46.63414" lon="0.11844">
        <ele>131</ele>
        <time>2022-03-20T15:39:32Z</time>
      </trkpt>
      <trkpt lat="46.63414" lon="0.1185">
        <ele>131</ele>
        <time>2022-03-20T15:39:33Z</time>
      </trkpt>
      <trkpt lat="46.63416" lon="0.11857">
        <ele>130.8</ele>
        <time>2022-03-20T15:39:34Z</time>
      </trkpt>
      <trkpt lat="46.63423" lon="0.11887">
        <ele>130.2</ele>
        <time>2022-03-20T15:39:38Z</time>
      </trkpt>
      <trkpt lat="46.63426" lon="0.11896">
        <ele>129.8</ele>
        <time>2022-03-20T15:39:39Z</time>
      </trkpt>
      <trkpt lat="46.6343" lon="0.11912">
        <ele>128.8</ele>
        <time>2022-03-20T15:39:41Z</time>
      </trkpt>
      <trkpt lat="46.63432" lon="0.1192">
        <ele>128</ele>
        <time>2022-03-20T15:39:42Z</time>
      </trkpt>
      <trkpt lat="46.63435" lon="0.11927">
        <ele>127.8</ele>
        <time>2022-03-20T15:39:43Z</time>
      </trkpt>
      <trkpt lat="46.63437" lon="0.11934">
        <ele>127.6</ele>
        <time>2022-03-20T15:39:44Z</time>
      </trkpt>
      <trkpt lat="46.6344" lon="0.1194">
        <ele>127.6</ele>
        <time>2022-03-20T15:39:45Z</time>
      </trkpt>
      <trkpt lat="46.63443" lon="0.11946">
        <ele>127.4</ele>
        <time>2022-03-20T15:39:46Z</time>
      </trkpt>
      <trkpt lat="46.63445" lon="0.1195">
        <ele>127.4</ele>
        <time>2022-03-20T15:39:47Z</time>
      </trkpt>
      <trkpt lat="46.63447" lon="0.11954">
        <ele>127.4</ele>
        <time>2022-03-20T15:39:48Z</time>
      </trkpt>
      <trkpt lat="46.63449" lon="0.11958">
        <ele>127.4</ele>
        <time>2022-03-20T15:39:49Z</time>
      </trkpt>
      <trkpt lat="46.63451" lon="0.11961">
        <ele>127.6</ele>
        <time>2022-03-20T15:39:50Z</time>
      </trkpt>
      <trkpt lat="46.63453" lon="0.11964">
        <ele>128</ele>
        <time>2022-03-20T15:39:51Z</time>
      </trkpt>
      <trkpt lat="46.63455" lon="0.11966">
        <ele>128.2</ele>
        <time>2022-03-20T15:39:52Z</time>
      </trkpt>
      <trkpt lat="46.63456" lon="0.11968">
        <ele>128.6</ele>
        <time>2022-03-20T15:39:53Z</time>
      </trkpt>
      <trkpt lat="46.6346" lon="0.11973">
        <ele>128.6</ele>
        <time>2022-03-20T15:39:54Z</time>
      </trkpt>
      <trkpt lat="46.63473" lon="0.1199">
        <ele>129.8</ele>
        <time>2022-03-20T15:39:58Z</time>
      </trkpt>
      <trkpt lat="46.63476" lon="0.11994">
        <ele>130</ele>
        <time>2022-03-20T15:39:59Z</time>
      </trkpt>
      <trkpt lat="46.63486" lon="0.12006">
        <ele>130.2</ele>
        <time>2022-03-20T15:40:02Z</time>
      </trkpt>
      <trkpt lat="46.63489" lon="0.1201">
        <ele>130.4</ele>
        <time>2022-03-20T15:40:03Z</time>
      </trkpt>
      <trkpt lat="46.63497" lon="0.12015">
        <ele>130.6</ele>
        <time>2022-03-20T15:40:05Z</time>
      </trkpt>
      <trkpt lat="46.63526" lon="0.12033">
        <ele>130.2</ele>
        <time>2022-03-20T15:40:12Z</time>
      </trkpt>
      <trkpt lat="46.63546" lon="0.12045">
        <ele>130.2</ele>
        <time>2022-03-20T15:40:17Z</time>
      </trkpt>
      <trkpt lat="46.63549" lon="0.12048">
        <ele>130.2</ele>
        <time>2022-03-20T15:40:18Z</time>
      </trkpt>
      <trkpt lat="46.63553" lon="0.12051">
        <ele>130.2</ele>
        <time>2022-03-20T15:40:19Z</time>
      </trkpt>
      <trkpt lat="46.63556" lon="0.12054">
        <ele>130.2</ele>
        <time>2022-03-20T15:40:20Z</time>
      </trkpt>
      <trkpt lat="46.6356" lon="0.12057">
        <ele>130.2</ele>
        <time>2022-03-20T15:40:21Z</time>
      </trkpt>
      <trkpt lat="46.63564" lon="0.12062">
        <ele>130.2</ele>
        <time>2022-03-20T15:40:22Z</time>
      </trkpt>
      <trkpt lat="46.63567" lon="0.12065">
        <ele>129.8</ele>
        <time>2022-03-20T15:40:23Z</time>
      </trkpt>
      <trkpt lat="46.63574" lon="0.12071">
        <ele>129.6</ele>
        <time>2022-03-20T15:40:25Z</time>
      </trkpt>
      <trkpt lat="46.6358" lon="0.12077">
        <ele>129.4</ele>
        <time>2022-03-20T15:40:27Z</time>
      </trkpt>
      <trkpt lat="46.63587" lon="0.12084">
        <ele>129.4</ele>
        <time>2022-03-20T15:40:29Z</time>
      </trkpt>
      <trkpt lat="46.63597" lon="0.12093">
        <ele>129.2</ele>
        <time>2022-03-20T15:40:32Z</time>
      </trkpt>
      <trkpt lat="46.63621" lon="0.1212">
        <ele>129.2</ele>
        <time>2022-03-20T15:40:39Z</time>
      </trkpt>
      <trkpt lat="46.63624" lon="0.12124">
        <ele>129.2</ele>
        <time>2022-03-20T15:40:40Z</time>
      </trkpt>
      <trkpt lat="46.63634" lon="0.12145">
        <ele>128.8</ele>
        <time>2022-03-20T15:40:44Z</time>
      </trkpt>
      <trkpt lat="46.63637" lon="0.1215">
        <ele>128.8</ele>
        <time>2022-03-20T15:40:45Z</time>
      </trkpt>
      <trkpt lat="46.6364" lon="0.12156">
        <ele>128.6</ele>
        <time>2022-03-20T15:40:46Z</time>
      </trkpt>
      <trkpt lat="46.63651" lon="0.12177">
        <ele>128.2</ele>
        <time>2022-03-20T15:40:50Z</time>
      </trkpt>
      <trkpt lat="46.63654" lon="0.12181">
        <ele>128.2</ele>
        <time>2022-03-20T15:40:51Z</time>
      </trkpt>
      <trkpt lat="46.63656" lon="0.12186">
        <ele>128.2</ele>
        <time>2022-03-20T15:40:52Z</time>
      </trkpt>
      <trkpt lat="46.6366" lon="0.12194">
        <ele>128</ele>
        <time>2022-03-20T15:40:54Z</time>
      </trkpt>
      <trkpt lat="46.63664" lon="0.12203">
        <ele>128</ele>
        <time>2022-03-20T15:40:56Z</time>
      </trkpt>
      <trkpt lat="46.63666" lon="0.12206">
        <ele>128</ele>
        <time>2022-03-20T15:40:57Z</time>
      </trkpt>
      <trkpt lat="46.63668" lon="0.1221">
        <ele>128</ele>
        <time>2022-03-20T15:40:58Z</time>
      </trkpt>
      <trkpt lat="46.6367" lon="0.12215">
        <ele>128</ele>
        <time>2022-03-20T15:40:59Z</time>
      </trkpt>
      <trkpt lat="46.63671" lon="0.1222">
        <ele>127.8</ele>
        <time>2022-03-20T15:41:00Z</time>
      </trkpt>
      <trkpt lat="46.63674" lon="0.12225">
        <ele>127.8</ele>
        <time>2022-03-20T15:41:01Z</time>
      </trkpt>
      <trkpt lat="46.63676" lon="0.1223">
        <ele>128</ele>
        <time>2022-03-20T15:41:02Z</time>
      </trkpt>
      <trkpt lat="46.63689" lon="0.12266">
        <ele>128.2</ele>
        <time>2022-03-20T15:41:09Z</time>
      </trkpt>
      <trkpt lat="46.63695" lon="0.12285">
        <ele>128.4</ele>
        <time>2022-03-20T15:41:13Z</time>
      </trkpt>
      <trkpt lat="46.63696" lon="0.1229">
        <ele>128.4</ele>
        <time>2022-03-20T15:41:14Z</time>
      </trkpt>
      <trkpt lat="46.63698" lon="0.12295">
        <ele>128.4</ele>
        <time>2022-03-20T15:41:15Z</time>
      </trkpt>
      <trkpt lat="46.63699" lon="0.12299">
        <ele>128.4</ele>
        <time>2022-03-20T15:41:16Z</time>
      </trkpt>
      <trkpt lat="46.637" lon="0.12302">
        <ele>128.4</ele>
        <time>2022-03-20T15:41:17Z</time>
      </trkpt>
      <trkpt lat="46.637" lon="0.12305">
        <ele>128.4</ele>
        <time>2022-03-20T15:41:18Z</time>
      </trkpt>
      <trkpt lat="46.637" lon="0.12307">
        <ele>128.4</ele>
        <time>2022-03-20T15:41:19Z</time>
      </trkpt>
      <trkpt lat="46.63699" lon="0.12312">
        <ele>128.2</ele>
        <time>2022-03-20T15:41:20Z</time>
      </trkpt>
      <trkpt lat="46.63696" lon="0.12315">
        <ele>128</ele>
        <time>2022-03-20T15:41:22Z</time>
      </trkpt>
      <trkpt lat="46.63692" lon="0.12325">
        <ele>128.2</ele>
        <time>2022-03-20T15:41:24Z</time>
      </trkpt>
      <trkpt lat="46.63689" lon="0.12329">
        <ele>128</ele>
        <time>2022-03-20T15:41:25Z</time>
      </trkpt>
      <trkpt lat="46.63684" lon="0.12339">
        <ele>127.6</ele>
        <time>2022-03-20T15:41:27Z</time>
      </trkpt>
      <trkpt lat="46.63678" lon="0.12353">
        <ele>127.2</ele>
        <time>2022-03-20T15:41:29Z</time>
      </trkpt>
      <trkpt lat="46.63679" lon="0.12373">
        <ele>126.8</ele>
        <time>2022-03-20T15:41:31Z</time>
      </trkpt>
      <trkpt lat="46.63679" lon="0.12382">
        <ele>126.6</ele>
        <time>2022-03-20T15:41:32Z</time>
      </trkpt>
      <trkpt lat="46.63679" lon="0.12391">
        <ele>126.4</ele>
        <time>2022-03-20T15:41:33Z</time>
      </trkpt>
      <trkpt lat="46.6368" lon="0.12399">
        <ele>126.2</ele>
        <time>2022-03-20T15:41:34Z</time>
      </trkpt>
      <trkpt lat="46.63679" lon="0.12407">
        <ele>126</ele>
        <time>2022-03-20T15:41:35Z</time>
      </trkpt>
      <trkpt lat="46.63676" lon="0.12429">
        <ele>125.8</ele>
        <time>2022-03-20T15:41:38Z</time>
      </trkpt>
      <trkpt lat="46.63673" lon="0.12457">
        <ele>125.6</ele>
        <time>2022-03-20T15:41:42Z</time>
      </trkpt>
      <trkpt lat="46.63671" lon="0.12475">
        <ele>125</ele>
        <time>2022-03-20T15:41:45Z</time>
      </trkpt>
      <trkpt lat="46.6367" lon="0.12481">
        <ele>125</ele>
        <time>2022-03-20T15:41:46Z</time>
      </trkpt>
      <trkpt lat="46.6367" lon="0.12486">
        <ele>125</ele>
        <time>2022-03-20T15:41:47Z</time>
      </trkpt>
      <trkpt lat="46.6367" lon="0.12491">
        <ele>124.8</ele>
        <time>2022-03-20T15:41:48Z</time>
      </trkpt>
      <trkpt lat="46.63669" lon="0.12496">
        <ele>124.8</ele>
        <time>2022-03-20T15:41:49Z</time>
      </trkpt>
      <trkpt lat="46.63667" lon="0.12512">
        <ele>124.6</ele>
        <time>2022-03-20T15:41:52Z</time>
      </trkpt>
      <trkpt lat="46.63667" lon="0.12518">
        <ele>124.6</ele>
        <time>2022-03-20T15:41:53Z</time>
      </trkpt>
      <trkpt lat="46.63666" lon="0.12524">
        <ele>124.4</ele>
        <time>2022-03-20T15:41:54Z</time>
      </trkpt>
      <trkpt lat="46.63663" lon="0.12555">
        <ele>123.4</ele>
        <time>2022-03-20T15:41:59Z</time>
      </trkpt>
      <trkpt lat="46.63662" lon="0.12568">
        <ele>122.6</ele>
        <time>2022-03-20T15:42:01Z</time>
      </trkpt>
      <trkpt lat="46.63661" lon="0.12582">
        <ele>121.8</ele>
        <time>2022-03-20T15:42:03Z</time>
      </trkpt>
      <trkpt lat="46.63659" lon="0.12607">
        <ele>120.4</ele>
        <time>2022-03-20T15:42:06Z</time>
      </trkpt>
      <trkpt lat="46.63656" lon="0.12633">
        <ele>119.2</ele>
        <time>2022-03-20T15:42:09Z</time>
      </trkpt>
      <trkpt lat="46.63655" lon="0.12641">
        <ele>118.8</ele>
        <time>2022-03-20T15:42:10Z</time>
      </trkpt>
      <trkpt lat="46.63655" lon="0.12656">
        <ele>118</ele>
        <time>2022-03-20T15:42:12Z</time>
      </trkpt>
      <trkpt lat="46.63655" lon="0.12663">
        <ele>117</ele>
        <time>2022-03-20T15:42:13Z</time>
      </trkpt>
      <trkpt lat="46.63654" lon="0.12669">
        <ele>116.6</ele>
        <time>2022-03-20T15:42:14Z</time>
      </trkpt>
      <trkpt lat="46.63653" lon="0.12675">
        <ele>116.2</ele>
        <time>2022-03-20T15:42:15Z</time>
      </trkpt>
      <trkpt lat="46.63653" lon="0.1268">
        <ele>115.6</ele>
        <time>2022-03-20T15:42:16Z</time>
      </trkpt>
      <trkpt lat="46.63654" lon="0.12685">
        <ele>115</ele>
        <time>2022-03-20T15:42:17Z</time>
      </trkpt>
      <trkpt lat="46.63654" lon="0.1269">
        <ele>114.8</ele>
        <time>2022-03-20T15:42:18Z</time>
      </trkpt>
      <trkpt lat="46.63655" lon="0.12693">
        <ele>114.4</ele>
        <time>2022-03-20T15:42:19Z</time>
      </trkpt>
      <trkpt lat="46.63656" lon="0.12696">
        <ele>114</ele>
        <time>2022-03-20T15:42:20Z</time>
      </trkpt>
      <trkpt lat="46.63657" lon="0.12699">
        <ele>113.8</ele>
        <time>2022-03-20T15:42:21Z</time>
      </trkpt>
      <trkpt lat="46.63658" lon="0.12703">
        <ele>113.6</ele>
        <time>2022-03-20T15:42:22Z</time>
      </trkpt>
      <trkpt lat="46.63659" lon="0.12706">
        <ele>113.4</ele>
        <time>2022-03-20T15:42:23Z</time>
      </trkpt>
      <trkpt lat="46.63661" lon="0.12709">
        <ele>113.4</ele>
        <time>2022-03-20T15:42:24Z</time>
      </trkpt>
      <trkpt lat="46.63665" lon="0.12712">
        <ele>113.4</ele>
        <time>2022-03-20T15:42:26Z</time>
      </trkpt>
      <trkpt lat="46.63666" lon="0.12712">
        <ele>113.4</ele>
        <time>2022-03-20T15:42:27Z</time>
      </trkpt>
      <trkpt lat="46.63718" lon="0.12692">
        <ele>126.2</ele>
        <time>2022-03-20T15:44:29Z</time>
      </trkpt>
      <trkpt lat="46.63718" lon="0.12709">
        <ele>125.8</ele>
        <time>2022-03-20T15:44:34Z</time>
      </trkpt>
      <trkpt lat="46.63719" lon="0.12713">
        <ele>125.8</ele>
        <time>2022-03-20T15:44:35Z</time>
      </trkpt>
      <trkpt lat="46.6372" lon="0.12717">
        <ele>125.8</ele>
        <time>2022-03-20T15:44:36Z</time>
      </trkpt>
      <trkpt lat="46.63724" lon="0.12731">
        <ele>125.2</ele>
        <time>2022-03-20T15:44:40Z</time>
      </trkpt>
      <trkpt lat="46.63725" lon="0.12733">
        <ele>125</ele>
        <time>2022-03-20T15:44:41Z</time>
      </trkpt>
      <trkpt lat="46.63725" lon="0.12736">
        <ele>124.8</ele>
        <time>2022-03-20T15:44:42Z</time>
      </trkpt>
      <trkpt lat="46.63726" lon="0.12739">
        <ele>124.6</ele>
        <time>2022-03-20T15:44:43Z</time>
      </trkpt>
      <trkpt lat="46.63726" lon="0.12742">
        <ele>124.2</ele>
        <time>2022-03-20T15:44:44Z</time>
      </trkpt>
      <trkpt lat="46.63726" lon="0.12745">
        <ele>124.2</ele>
        <time>2022-03-20T15:44:45Z</time>
      </trkpt>
      <trkpt lat="46.63726" lon="0.12748">
        <ele>124</ele>
        <time>2022-03-20T15:44:46Z</time>
      </trkpt>
      <trkpt lat="46.63726" lon="0.12751">
        <ele>123.8</ele>
        <time>2022-03-20T15:44:47Z</time>
      </trkpt>
      <trkpt lat="46.63726" lon="0.12754">
        <ele>123.6</ele>
        <time>2022-03-20T15:44:48Z</time>
      </trkpt>
      <trkpt lat="46.63726" lon="0.12759">
        <ele>123.2</ele>
        <time>2022-03-20T15:44:50Z</time>
      </trkpt>
      <trkpt lat="46.63727" lon="0.12762">
        <ele>122.8</ele>
        <time>2022-03-20T15:44:51Z</time>
      </trkpt>
      <trkpt lat="46.63727" lon="0.12764">
        <ele>122.8</ele>
        <time>2022-03-20T15:44:52Z</time>
      </trkpt>
      <trkpt lat="46.63727" lon="0.12767">
        <ele>122.2</ele>
        <time>2022-03-20T15:44:53Z</time>
      </trkpt>
      <trkpt lat="46.63728" lon="0.12773">
        <ele>121.8</ele>
        <time>2022-03-20T15:44:55Z</time>
      </trkpt>
      <trkpt lat="46.63728" lon="0.12776">
        <ele>121.6</ele>
        <time>2022-03-20T15:44:56Z</time>
      </trkpt>
      <trkpt lat="46.63728" lon="0.12779">
        <ele>121.4</ele>
        <time>2022-03-20T15:44:57Z</time>
      </trkpt>
      <trkpt lat="46.6373" lon="0.1279">
        <ele>120.6</ele>
        <time>2022-03-20T15:45:00Z</time>
      </trkpt>
      <trkpt lat="46.6373" lon="0.12793">
        <ele>120.2</ele>
        <time>2022-03-20T15:45:01Z</time>
      </trkpt>
      <trkpt lat="46.63731" lon="0.128">
        <ele>119.2</ele>
        <time>2022-03-20T15:45:03Z</time>
      </trkpt>
      <trkpt lat="46.63732" lon="0.1281">
        <ele>117.8</ele>
        <time>2022-03-20T15:45:06Z</time>
      </trkpt>
      <trkpt lat="46.63732" lon="0.12816">
        <ele>116.8</ele>
        <time>2022-03-20T15:45:08Z</time>
      </trkpt>
      <trkpt lat="46.63733" lon="0.12821">
        <ele>116</ele>
        <time>2022-03-20T15:45:10Z</time>
      </trkpt>
      <trkpt lat="46.63733" lon="0.12824">
        <ele>115.8</ele>
        <time>2022-03-20T15:45:11Z</time>
      </trkpt>
      <trkpt lat="46.63734" lon="0.12826">
        <ele>115.2</ele>
        <time>2022-03-20T15:45:13Z</time>
      </trkpt>
      <trkpt lat="46.63735" lon="0.12828">
        <ele>114.8</ele>
        <time>2022-03-20T15:45:14Z</time>
      </trkpt>
      <trkpt lat="46.63736" lon="0.12829">
        <ele>114.6</ele>
        <time>2022-03-20T15:45:15Z</time>
      </trkpt>
      <trkpt lat="46.63738" lon="0.12829">
        <ele>114.2</ele>
        <time>2022-03-20T15:45:16Z</time>
      </trkpt>
      <trkpt lat="46.6374" lon="0.12829">
        <ele>114.2</ele>
        <time>2022-03-20T15:45:17Z</time>
      </trkpt>
      <trkpt lat="46.63742" lon="0.12829">
        <ele>113.8</ele>
        <time>2022-03-20T15:45:18Z</time>
      </trkpt>
      <trkpt lat="46.63744" lon="0.12829">
        <ele>113.6</ele>
        <time>2022-03-20T15:45:19Z</time>
      </trkpt>
      <trkpt lat="46.63745" lon="0.12828">
        <ele>113.6</ele>
        <time>2022-03-20T15:45:20Z</time>
      </trkpt>
      <trkpt lat="46.63747" lon="0.12828">
        <ele>113.2</ele>
        <time>2022-03-20T15:45:21Z</time>
      </trkpt>
      <trkpt lat="46.6375" lon="0.12827">
        <ele>112.8</ele>
        <time>2022-03-20T15:45:23Z</time>
      </trkpt>
      <trkpt lat="46.63752" lon="0.12827">
        <ele>112.6</ele>
        <time>2022-03-20T15:45:24Z</time>
      </trkpt>
      <trkpt lat="46.63753" lon="0.12826">
        <ele>112.4</ele>
        <time>2022-03-20T15:45:25Z</time>
      </trkpt>
      <trkpt lat="46.63756" lon="0.12824">
        <ele>111.8</ele>
        <time>2022-03-20T15:45:28Z</time>
      </trkpt>
      <trkpt lat="46.63759" lon="0.12822">
        <ele>111.4</ele>
        <time>2022-03-20T15:45:30Z</time>
      </trkpt>
      <trkpt lat="46.63759" lon="0.12821">
        <ele>111.4</ele>
        <time>2022-03-20T15:45:31Z</time>
      </trkpt>
      <trkpt lat="46.6376" lon="0.12821">
        <ele>111.2</ele>
        <time>2022-03-20T15:45:32Z</time>
      </trkpt>
      <trkpt lat="46.63761" lon="0.1282">
        <ele>111.2</ele>
        <time>2022-03-20T15:45:33Z</time>
      </trkpt>
      <trkpt lat="46.63761" lon="0.1282">
        <ele>111</ele>
        <time>2022-03-20T15:45:34Z</time>
      </trkpt>
      <trkpt lat="46.63762" lon="0.1282">
        <ele>111</ele>
        <time>2022-03-20T15:45:35Z</time>
      </trkpt>
      <trkpt lat="46.63763" lon="0.1282">
        <ele>111</ele>
        <time>2022-03-20T15:45:36Z</time>
      </trkpt>
      <trkpt lat="46.63764" lon="0.12819">
        <ele>111</ele>
        <time>2022-03-20T15:45:37Z</time>
      </trkpt>
      <trkpt lat="46.63765" lon="0.12818">
        <ele>111</ele>
        <time>2022-03-20T15:45:38Z</time>
      </trkpt>
      <trkpt lat="46.63767" lon="0.12817">
        <ele>111</ele>
        <time>2022-03-20T15:45:39Z</time>
      </trkpt>
      <trkpt lat="46.63768" lon="0.12816">
        <ele>111</ele>
        <time>2022-03-20T15:45:40Z</time>
      </trkpt>
      <trkpt lat="46.6377" lon="0.12814">
        <ele>111</ele>
        <time>2022-03-20T15:45:41Z</time>
      </trkpt>
      <trkpt lat="46.63776" lon="0.12808">
        <ele>111</ele>
        <time>2022-03-20T15:45:44Z</time>
      </trkpt>
      <trkpt lat="46.63787" lon="0.12798">
        <ele>111</ele>
        <time>2022-03-20T15:45:49Z</time>
      </trkpt>
      <trkpt lat="46.63798" lon="0.12787">
        <ele>111</ele>
        <time>2022-03-20T15:45:55Z</time>
      </trkpt>
      <trkpt lat="46.63804" lon="0.12781">
        <ele>111</ele>
        <time>2022-03-20T15:45:58Z</time>
      </trkpt>
      <trkpt lat="46.63806" lon="0.12779">
        <ele>111.2</ele>
        <time>2022-03-20T15:45:59Z</time>
      </trkpt>
      <trkpt lat="46.63808" lon="0.12777">
        <ele>111.2</ele>
        <time>2022-03-20T15:46:00Z</time>
      </trkpt>
      <trkpt lat="46.6381" lon="0.12774">
        <ele>111.4</ele>
        <time>2022-03-20T15:46:01Z</time>
      </trkpt>
      <trkpt lat="46.63811" lon="0.12772">
        <ele>111.4</ele>
        <time>2022-03-20T15:46:02Z</time>
      </trkpt>
      <trkpt lat="46.63812" lon="0.1277">
        <ele>111.4</ele>
        <time>2022-03-20T15:46:03Z</time>
      </trkpt>
      <trkpt lat="46.63824" lon="0.12753">
        <ele>112</ele>
        <time>2022-03-20T15:46:11Z</time>
      </trkpt>
      <trkpt lat="46.63828" lon="0.12746">
        <ele>112.2</ele>
        <time>2022-03-20T15:46:15Z</time>
      </trkpt>
      <trkpt lat="46.63829" lon="0.12744">
        <ele>112.2</ele>
        <time>2022-03-20T15:46:16Z</time>
      </trkpt>
      <trkpt lat="46.63831" lon="0.12743">
        <ele>112.2</ele>
        <time>2022-03-20T15:46:17Z</time>
      </trkpt>
      <trkpt lat="46.63832" lon="0.1274">
        <ele>112.2</ele>
        <time>2022-03-20T15:46:18Z</time>
      </trkpt>
      <trkpt lat="46.63833" lon="0.12738">
        <ele>112.2</ele>
        <time>2022-03-20T15:46:19Z</time>
      </trkpt>
      <trkpt lat="46.63835" lon="0.12735">
        <ele>112.2</ele>
        <time>2022-03-20T15:46:20Z</time>
      </trkpt>
      <trkpt lat="46.63837" lon="0.12732">
        <ele>112.2</ele>
        <time>2022-03-20T15:46:21Z</time>
      </trkpt>
      <trkpt lat="46.63839" lon="0.12729">
        <ele>112.4</ele>
        <time>2022-03-20T15:46:22Z</time>
      </trkpt>
      <trkpt lat="46.63851" lon="0.12713">
        <ele>112.4</ele>
        <time>2022-03-20T15:46:28Z</time>
      </trkpt>
      <trkpt lat="46.6386" lon="0.12709">
        <ele>112.6</ele>
        <time>2022-03-20T15:46:31Z</time>
      </trkpt>
      <trkpt lat="46.63863" lon="0.12708">
        <ele>112.6</ele>
        <time>2022-03-20T15:46:32Z</time>
      </trkpt>
      <trkpt lat="46.63867" lon="0.12708">
        <ele>112.4</ele>
        <time>2022-03-20T15:46:33Z</time>
      </trkpt>
      <trkpt lat="46.63872" lon="0.12707">
        <ele>112.4</ele>
        <time>2022-03-20T15:46:34Z</time>
      </trkpt>
      <trkpt lat="46.63898" lon="0.12711">
        <ele>112</ele>
        <time>2022-03-20T15:46:40Z</time>
      </trkpt>
      <trkpt lat="46.63901" lon="0.12711">
        <ele>111.8</ele>
        <time>2022-03-20T15:46:41Z</time>
      </trkpt>
      <trkpt lat="46.63904" lon="0.12713">
        <ele>111.8</ele>
        <time>2022-03-20T15:46:42Z</time>
      </trkpt>
      <trkpt lat="46.63907" lon="0.12713">
        <ele>111.6</ele>
        <time>2022-03-20T15:46:43Z</time>
      </trkpt>
      <trkpt lat="46.63909" lon="0.12714">
        <ele>111.6</ele>
        <time>2022-03-20T15:46:44Z</time>
      </trkpt>
      <trkpt lat="46.63912" lon="0.12715">
        <ele>111.6</ele>
        <time>2022-03-20T15:46:45Z</time>
      </trkpt>
      <trkpt lat="46.63914" lon="0.12715">
        <ele>111.6</ele>
        <time>2022-03-20T15:46:46Z</time>
      </trkpt>
      <trkpt lat="46.63916" lon="0.12715">
        <ele>111.6</ele>
        <time>2022-03-20T15:46:47Z</time>
      </trkpt>
      <trkpt lat="46.63918" lon="0.12716">
        <ele>111.6</ele>
        <time>2022-03-20T15:46:48Z</time>
      </trkpt>
      <trkpt lat="46.63919" lon="0.12718">
        <ele>111.6</ele>
        <time>2022-03-20T15:46:49Z</time>
      </trkpt>
      <trkpt lat="46.63921" lon="0.12722">
        <ele>111.8</ele>
        <time>2022-03-20T15:46:50Z</time>
      </trkpt>
      <trkpt lat="46.63925" lon="0.12752">
        <ele>113</ele>
        <time>2022-03-20T15:46:58Z</time>
      </trkpt>
      <trkpt lat="46.63927" lon="0.12767">
        <ele>113.6</ele>
        <time>2022-03-20T15:47:02Z</time>
      </trkpt>
      <trkpt lat="46.63925" lon="0.12774">
        <ele>113.8</ele>
        <time>2022-03-20T15:47:04Z</time>
      </trkpt>
      <trkpt lat="46.63924" lon="0.12777">
        <ele>113.8</ele>
        <time>2022-03-20T15:47:05Z</time>
      </trkpt>
      <trkpt lat="46.63923" lon="0.12781">
        <ele>114</ele>
        <time>2022-03-20T15:47:06Z</time>
      </trkpt>
      <trkpt lat="46.63919" lon="0.12806">
        <ele>113.8</ele>
        <time>2022-03-20T15:47:11Z</time>
      </trkpt>
      <trkpt lat="46.63912" lon="0.12824">
        <ele>113.4</ele>
        <time>2022-03-20T15:47:14Z</time>
      </trkpt>
      <trkpt lat="46.63909" lon="0.12829">
        <ele>113.4</ele>
        <time>2022-03-20T15:47:15Z</time>
      </trkpt>
      <trkpt lat="46.63906" lon="0.12833">
        <ele>113.2</ele>
        <time>2022-03-20T15:47:16Z</time>
      </trkpt>
      <trkpt lat="46.63903" lon="0.12837">
        <ele>113</ele>
        <time>2022-03-20T15:47:17Z</time>
      </trkpt>
      <trkpt lat="46.639" lon="0.12841">
        <ele>112.6</ele>
        <time>2022-03-20T15:47:18Z</time>
      </trkpt>
      <trkpt lat="46.63898" lon="0.12845">
        <ele>112.4</ele>
        <time>2022-03-20T15:47:19Z</time>
      </trkpt>
      <trkpt lat="46.63896" lon="0.12847">
        <ele>112.2</ele>
        <time>2022-03-20T15:47:20Z</time>
      </trkpt>
      <trkpt lat="46.63894" lon="0.1285">
        <ele>112.2</ele>
        <time>2022-03-20T15:47:21Z</time>
      </trkpt>
      <trkpt lat="46.63893" lon="0.12852">
        <ele>112.2</ele>
        <time>2022-03-20T15:47:22Z</time>
      </trkpt>
      <trkpt lat="46.63892" lon="0.12854">
        <ele>112.2</ele>
        <time>2022-03-20T15:47:23Z</time>
      </trkpt>
      <trkpt lat="46.6389" lon="0.12856">
        <ele>112.2</ele>
        <time>2022-03-20T15:47:24Z</time>
      </trkpt>
      <trkpt lat="46.63889" lon="0.12858">
        <ele>112.2</ele>
        <time>2022-03-20T15:47:25Z</time>
      </trkpt>
      <trkpt lat="46.63889" lon="0.1286">
        <ele>112.2</ele>
        <time>2022-03-20T15:47:26Z</time>
      </trkpt>
      <trkpt lat="46.63861" lon="0.12903">
        <ele>112.2</ele>
        <time>2022-03-20T15:47:28Z</time>
      </trkpt>
      <trkpt lat="46.63859" lon="0.12904">
        <ele>112.2</ele>
        <time>2022-03-20T15:47:29Z</time>
      </trkpt>
      <trkpt lat="46.63891" lon="0.12862">
        <ele>112.2</ele>
        <time>2022-03-20T15:47:30Z</time>
      </trkpt>
      <trkpt lat="46.6386" lon="0.12903">
        <ele>112</ele>
        <time>2022-03-27T16:24:05Z</time>
      </trkpt>
      <trkpt lat="46.63804" lon="0.12997">
        <ele>117</ele>
        <time>2022-03-27T16:24:24Z</time>
      </trkpt>
      <trkpt lat="46.63745" lon="0.13069">
        <ele>113</ele>
        <time>2022-03-27T16:24:42Z</time>
      </trkpt>
      <trkpt lat="46.63719" lon="0.1311">
        <ele>114</ele>
        <time>2022-03-27T16:24:51Z</time>
      </trkpt>
      <trkpt lat="46.63712" lon="0.13125">
        <ele>114</ele>
        <time>2022-03-27T16:24:54Z</time>
      </trkpt>
      <trkpt lat="46.63693" lon="0.13146">
        <ele>113</ele>
        <time>2022-03-27T16:25:00Z</time>
      </trkpt>
      <trkpt lat="46.63674" lon="0.1316">
        <ele>112</ele>
        <time>2022-03-27T16:25:05Z</time>
      </trkpt>
      <trkpt lat="46.63658" lon="0.13179">
        <ele>111</ele>
        <time>2022-03-27T16:25:10Z</time>
      </trkpt>
      <trkpt lat="46.63646" lon="0.13189">
        <ele>111</ele>
        <time>2022-03-27T16:25:13Z</time>
      </trkpt>
      <trkpt lat="46.63632" lon="0.13207">
        <ele>112</ele>
        <time>2022-03-27T16:25:17Z</time>
      </trkpt>
      <trkpt lat="46.63626" lon="0.13229">
        <ele>112</ele>
        <time>2022-03-27T16:25:21Z</time>
      </trkpt>
      <trkpt lat="46.63627" lon="0.13252">
        <ele>113</ele>
        <time>2022-03-27T16:25:25Z</time>
      </trkpt>
      <trkpt lat="46.63648" lon="0.13291">
        <ele>112</ele>
        <time>2022-03-27T16:25:33Z</time>
      </trkpt>
      <trkpt lat="46.63686" lon="0.13319">
        <ele>114</ele>
        <time>2022-03-27T16:25:43Z</time>
      </trkpt>
      <trkpt lat="46.63713" lon="0.13436">
        <ele>111</ele>
        <time>2022-03-27T16:26:02Z</time>
      </trkpt>
      <trkpt lat="46.63726" lon="0.1352">
        <ele>110</ele>
        <time>2022-03-27T16:26:16Z</time>
      </trkpt>
      <trkpt lat="46.63746" lon="0.13578">
        <ele>111</ele>
        <time>2022-03-27T16:26:27Z</time>
      </trkpt>
      <trkpt lat="46.63769" lon="0.13631">
        <ele>112</ele>
        <time>2022-03-27T16:26:37Z</time>
      </trkpt>
      <trkpt lat="46.63787" lon="0.1371">
        <ele>113</ele>
        <time>2022-03-27T16:26:50Z</time>
      </trkpt>
      <trkpt lat="46.63803" lon="0.13765">
        <ele>114</ele>
        <time>2022-03-27T16:27:00Z</time>
      </trkpt>
      <trkpt lat="46.63817" lon="0.13847">
        <ele>117</ele>
        <time>2022-03-27T16:27:13Z</time>
      </trkpt>
      <trkpt lat="46.63816" lon="0.13895">
        <ele>118</ele>
        <time>2022-03-27T16:27:21Z</time>
      </trkpt>
      <trkpt lat="46.63798" lon="0.13983">
        <ele>119</ele>
        <time>2022-03-27T16:27:36Z</time>
      </trkpt>
      <trkpt lat="46.63787" lon="0.1402">
        <ele>118</ele>
        <time>2022-03-27T16:27:42Z</time>
      </trkpt>
      <trkpt lat="46.63747" lon="0.14107">
        <ele>116</ele>
        <time>2022-03-27T16:27:59Z</time>
      </trkpt>
      <trkpt lat="46.63719" lon="0.14181">
        <ele>113</ele>
        <time>2022-03-27T16:28:12Z</time>
      </trkpt>
      <trkpt lat="46.63716" lon="0.14221">
        <ele>113</ele>
        <time>2022-03-27T16:28:19Z</time>
      </trkpt>
      <trkpt lat="46.6372" lon="0.14243">
        <ele>114</ele>
        <time>2022-03-27T16:28:22Z</time>
      </trkpt>
      <trkpt lat="46.63731" lon="0.14269">
        <ele>113</ele>
        <time>2022-03-27T16:28:27Z</time>
      </trkpt>
      <trkpt lat="46.63767" lon="0.14282">
        <ele>114</ele>
        <time>2022-03-27T16:28:36Z</time>
      </trkpt>
      <trkpt lat="46.63813" lon="0.14291">
        <ele>116</ele>
        <time>2022-03-27T16:28:47Z</time>
      </trkpt>
      <trkpt lat="46.63836" lon="0.14305">
        <ele>117</ele>
        <time>2022-03-27T16:28:53Z</time>
      </trkpt>
      <trkpt lat="46.63854" lon="0.1431">
        <ele>117</ele>
        <time>2022-03-27T16:28:57Z</time>
      </trkpt>
      <trkpt lat="46.63905" lon="0.14295">
        <ele>119</ele>
        <time>2022-03-27T16:29:09Z</time>
      </trkpt>
      <trkpt lat="46.64023" lon="0.14272">
        <ele>121</ele>
        <time>2022-03-27T16:29:37Z</time>
      </trkpt>
      <trkpt lat="46.64029" lon="0.14345">
        <ele>122</ele>
        <time>2022-03-27T16:29:49Z</time>
      </trkpt>
      <trkpt lat="46.64042" lon="0.14428">
        <ele>125</ele>
        <time>2022-03-27T16:30:02Z</time>
      </trkpt>
      <trkpt lat="46.64048" lon="0.14505">
        <ele>126</ele>
        <time>2022-03-27T16:30:15Z</time>
      </trkpt>
      <trkpt lat="46.64058" lon="0.14563">
        <ele>126</ele>
        <time>2022-03-27T16:30:24Z</time>
      </trkpt>
      <trkpt lat="46.64064" lon="0.14631">
        <ele>126</ele>
        <time>2022-03-27T16:30:35Z</time>
      </trkpt>
      <trkpt lat="46.64065" lon="0.14679">
        <ele>126</ele>
        <time>2022-03-27T16:30:43Z</time>
      </trkpt>
      <trkpt lat="46.64101" lon="0.14987">
        <ele>126</ele>
        <time>2022-03-27T16:31:33Z</time>
      </trkpt>
      <trkpt lat="46.64114" lon="0.15154">
        <ele>125</ele>
        <time>2022-03-27T16:32:00Z</time>
      </trkpt>
      <trkpt lat="46.64141" lon="0.154">
        <ele>124</ele>
        <time>2022-03-27T16:32:40Z</time>
      </trkpt>
      <trkpt lat="46.64144" lon="0.1546">
        <ele>124</ele>
        <time>2022-03-27T16:32:50Z</time>
      </trkpt>
      <trkpt lat="46.64164" lon="0.15627">
        <ele>120</ele>
        <time>2022-03-27T16:33:17Z</time>
      </trkpt>
      <trkpt lat="46.64171" lon="0.15657">
        <ele>119</ele>
        <time>2022-03-27T16:33:22Z</time>
      </trkpt>
      <trkpt lat="46.64206" lon="0.15734">
        <ele>117</ele>
        <time>2022-03-27T16:33:37Z</time>
      </trkpt>
      <trkpt lat="46.64233" lon="0.15763">
        <ele>116</ele>
        <time>2022-03-27T16:33:45Z</time>
      </trkpt>
      <trkpt lat="46.6425" lon="0.15786">
        <ele>115</ele>
        <time>2022-03-27T16:33:50Z</time>
      </trkpt>
      <trkpt lat="46.64285" lon="0.15844">
        <ele>113</ele>
        <time>2022-03-27T16:34:02Z</time>
      </trkpt>
      <trkpt lat="46.64309" lon="0.15878">
        <ele>114</ele>
        <time>2022-03-27T16:34:10Z</time>
      </trkpt>
      <trkpt lat="46.64323" lon="0.15891">
        <ele>114</ele>
        <time>2022-03-27T16:34:14Z</time>
      </trkpt>
      <trkpt lat="46.64335" lon="0.15909">
        <ele>114</ele>
        <time>2022-03-27T16:34:18Z</time>
      </trkpt>
      <trkpt lat="46.64328" lon="0.15919">
        <ele>114</ele>
        <time>2022-03-27T16:34:20Z</time>
      </trkpt>
      <trkpt lat="46.64304" lon="0.15922">
        <ele>116</ele>
        <time>2022-03-27T16:34:26Z</time>
      </trkpt>
      <trkpt lat="46.64267" lon="0.15933">
        <ele>118</ele>
        <time>2022-03-27T16:34:35Z</time>
      </trkpt>
      <trkpt lat="46.64249" lon="0.15953">
        <ele>119</ele>
        <time>2022-03-27T16:34:40Z</time>
      </trkpt>
      <trkpt lat="46.64237" lon="0.15975">
        <ele>118</ele>
        <time>2022-03-27T16:34:45Z</time>
      </trkpt>
      <trkpt lat="46.64228" lon="0.1601">
        <ele>118</ele>
        <time>2022-03-27T16:34:51Z</time>
      </trkpt>
      <trkpt lat="46.64206" lon="0.16131">
        <ele>115</ele>
        <time>2022-03-27T16:35:11Z</time>
      </trkpt>
      <trkpt lat="46.64187" lon="0.16198">
        <ele>116</ele>
        <time>2022-03-27T16:35:22Z</time>
      </trkpt>
      <trkpt lat="46.64173" lon="0.16237">
        <ele>116</ele>
        <time>2022-03-27T16:35:29Z</time>
      </trkpt>
      <trkpt lat="46.64096" lon="0.16394">
        <ele>115</ele>
        <time>2022-03-27T16:36:00Z</time>
      </trkpt>
      <trkpt lat="46.64084" lon="0.16411">
        <ele>115</ele>
        <time>2022-03-27T16:36:04Z</time>
      </trkpt>
      <trkpt lat="46.64063" lon="0.16456">
        <ele>114</ele>
        <time>2022-03-27T16:36:13Z</time>
      </trkpt>
      <trkpt lat="46.64042" lon="0.16539">
        <ele>113</ele>
        <time>2022-03-27T16:36:27Z</time>
      </trkpt>
      <trkpt lat="46.64026" lon="0.16581">
        <ele>113</ele>
        <time>2022-03-27T16:36:35Z</time>
      </trkpt>
      <trkpt lat="46.64016" lon="0.16599">
        <ele>112</ele>
        <time>2022-03-27T16:36:39Z</time>
      </trkpt>
      <trkpt lat="46.64006" lon="0.16606">
        <ele>111</ele>
        <time>2022-03-27T16:36:41Z</time>
      </trkpt>
      <trkpt lat="46.64003" lon="0.16694">
        <ele>110</ele>
        <time>2022-03-27T16:36:55Z</time>
      </trkpt>
      <trkpt lat="46.64" lon="0.16716">
        <ele>110</ele>
        <time>2022-03-27T16:36:59Z</time>
      </trkpt>
      <trkpt lat="46.63986" lon="0.16757">
        <ele>109</ele>
        <time>2022-03-27T16:37:06Z</time>
      </trkpt>
      <trkpt lat="46.63961" lon="0.16811">
        <ele>108</ele>
        <time>2022-03-27T16:37:17Z</time>
      </trkpt>
      <trkpt lat="46.63954" lon="0.16832">
        <ele>107</ele>
        <time>2022-03-27T16:37:20Z</time>
      </trkpt>
      <trkpt lat="46.63955" lon="0.16839">
        <ele>108</ele>
        <time>2022-03-27T16:37:22Z</time>
      </trkpt>
      <trkpt lat="46.64023" lon="0.16884">
        <ele>111</ele>
        <time>2022-03-27T16:37:39Z</time>
      </trkpt>
      <trkpt lat="46.6404" lon="0.16904">
        <ele>112</ele>
        <time>2022-03-27T16:37:44Z</time>
      </trkpt>
      <trkpt lat="46.64021" lon="0.16918">
        <ele>112</ele>
        <time>2022-03-27T16:37:49Z</time>
      </trkpt>
      <trkpt lat="46.64023" lon="0.16969">
        <ele>114</ele>
        <time>2022-03-27T16:37:57Z</time>
      </trkpt>
      <trkpt lat="46.64019" lon="0.17001">
        <ele>116</ele>
        <time>2022-03-27T16:38:02Z</time>
      </trkpt>
      <trkpt lat="46.64002" lon="0.17058">
        <ele>118</ele>
        <time>2022-03-27T16:38:12Z</time>
      </trkpt>
      <trkpt lat="46.6395" lon="0.17274">
        <ele>124</ele>
        <time>2022-03-27T16:38:49Z</time>
      </trkpt>
      <trkpt lat="46.63939" lon="0.1734">
        <ele>126</ele>
        <time>2022-03-27T16:39:00Z</time>
      </trkpt>
      <trkpt lat="46.63932" lon="0.17357">
        <ele>126</ele>
        <time>2022-03-27T16:39:03Z</time>
      </trkpt>
      <trkpt lat="46.63919" lon="0.17366">
        <ele>126</ele>
        <time>2022-03-27T16:39:07Z</time>
      </trkpt>
      <trkpt lat="46.63855" lon="0.17382">
        <ele>127</ele>
        <time>2022-03-27T16:39:22Z</time>
      </trkpt>
      <trkpt lat="46.6384" lon="0.17378">
        <ele>127</ele>
        <time>2022-03-27T16:39:25Z</time>
      </trkpt>
      <trkpt lat="46.63817" lon="0.17377">
        <ele>127</ele>
        <time>2022-03-27T16:39:31Z</time>
      </trkpt>
      <trkpt lat="46.63765" lon="0.17364">
        <ele>126</ele>
        <time>2022-03-27T16:39:43Z</time>
      </trkpt>
      <trkpt lat="46.63739" lon="0.17355">
        <ele>126</ele>
        <time>2022-03-27T16:39:49Z</time>
      </trkpt>
      <trkpt lat="46.63715" lon="0.17341">
        <ele>125</ele>
        <time>2022-03-27T16:39:55Z</time>
      </trkpt>
      <trkpt lat="46.63668" lon="0.17327">
        <ele>125</ele>
        <time>2022-03-27T16:40:06Z</time>
      </trkpt>
      <trkpt lat="46.63633" lon="0.17301">
        <ele>124</ele>
        <time>2022-03-27T16:40:16Z</time>
      </trkpt>
      <trkpt lat="46.63608" lon="0.17265">
        <ele>124</ele>
        <time>2022-03-27T16:40:24Z</time>
      </trkpt>
      <trkpt lat="46.63528" lon="0.1713">
        <ele>118</ele>
        <time>2022-03-27T16:40:52Z</time>
      </trkpt>
      <trkpt lat="46.63485" lon="0.17063">
        <ele>114</ele>
        <time>2022-03-27T16:41:07Z</time>
      </trkpt>
      <trkpt lat="46.6348" lon="0.17047">
        <ele>113</ele>
        <time>2022-03-27T16:41:10Z</time>
      </trkpt>
      <trkpt lat="46.6348" lon="0.1703">
        <ele>112</ele>
        <time>2022-03-27T16:41:13Z</time>
      </trkpt>
      <trkpt lat="46.63474" lon="0.17013">
        <ele>111</ele>
        <time>2022-03-27T16:41:16Z</time>
      </trkpt>
      <trkpt lat="46.6345" lon="0.16988">
        <ele>110</ele>
        <time>2022-03-27T16:41:23Z</time>
      </trkpt>
      <trkpt lat="46.63433" lon="0.16958">
        <ele>109</ele>
        <time>2022-03-27T16:41:29Z</time>
      </trkpt>
      <trkpt lat="46.63411" lon="0.16936">
        <ele>109</ele>
        <time>2022-03-27T16:41:35Z</time>
      </trkpt>
      <trkpt lat="46.63396" lon="0.1693">
        <ele>108</ele>
        <time>2022-03-27T16:41:39Z</time>
      </trkpt>
      <trkpt lat="46.63381" lon="0.16929">
        <ele>108</ele>
        <time>2022-03-27T16:41:42Z</time>
      </trkpt>
      <trkpt lat="46.63358" lon="0.16938">
        <ele>108</ele>
        <time>2022-03-27T16:41:48Z</time>
      </trkpt>
      <trkpt lat="46.63346" lon="0.16947">
        <ele>108</ele>
        <time>2022-03-27T16:41:51Z</time>
      </trkpt>
      <trkpt lat="46.63321" lon="0.16989">
        <ele>108</ele>
        <time>2022-03-27T16:42:00Z</time>
      </trkpt>
      <trkpt lat="46.63306" lon="0.1701">
        <ele>107</ele>
        <time>2022-03-27T16:42:05Z</time>
      </trkpt>
      <trkpt lat="46.6329" lon="0.17025">
        <ele>107</ele>
        <time>2022-03-27T16:42:09Z</time>
      </trkpt>
      <trkpt lat="46.63279" lon="0.17043">
        <ele>106</ele>
        <time>2022-03-27T16:42:13Z</time>
      </trkpt>
      <trkpt lat="46.63265" lon="0.17068">
        <ele>105</ele>
        <time>2022-03-27T16:42:18Z</time>
      </trkpt>
      <trkpt lat="46.63249" lon="0.17108">
        <ele>104</ele>
        <time>2022-03-27T16:42:26Z</time>
      </trkpt>
      <trkpt lat="46.63259" lon="0.17198">
        <ele>105</ele>
        <time>2022-03-27T16:42:40Z</time>
      </trkpt>
      <trkpt lat="46.63275" lon="0.17279">
        <ele>104</ele>
        <time>2022-03-27T16:42:54Z</time>
      </trkpt>
      <trkpt lat="46.63302" lon="0.17381">
        <ele>104</ele>
        <time>2022-03-27T16:43:11Z</time>
      </trkpt>
      <trkpt lat="46.63341" lon="0.17576">
        <ele>102</ele>
        <time>2022-03-27T16:43:44Z</time>
      </trkpt>
      <trkpt lat="46.63367" lon="0.17666">
        <ele>104</ele>
        <time>2022-03-27T16:44:00Z</time>
      </trkpt>
      <trkpt lat="46.6338" lon="0.1776">
        <ele>106</ele>
        <time>2022-03-27T16:44:15Z</time>
      </trkpt>
      <trkpt lat="46.63381" lon="0.17832">
        <ele>106</ele>
        <time>2022-03-27T16:44:26Z</time>
      </trkpt>
      <trkpt lat="46.63378" lon="0.17884">
        <ele>106</ele>
        <time>2022-03-27T16:44:35Z</time>
      </trkpt>
      <trkpt lat="46.6339" lon="0.17888">
        <ele>106</ele>
        <time>2022-03-27T16:44:38Z</time>
      </trkpt>
      <trkpt lat="46.63413" lon="0.17974">
        <ele>105</ele>
        <time>2022-03-27T16:44:53Z</time>
      </trkpt>
      <trkpt lat="46.63414" lon="0.17998">
        <ele>105</ele>
        <time>2022-03-27T16:44:56Z</time>
      </trkpt>
      <trkpt lat="46.63411" lon="0.18026">
        <ele>105</ele>
        <time>2022-03-27T16:45:01Z</time>
      </trkpt>
      <trkpt lat="46.6342" lon="0.18072">
        <ele>104</ele>
        <time>2022-03-27T16:45:09Z</time>
      </trkpt>
      <trkpt lat="46.6342" lon="0.18107">
        <ele>103</ele>
        <time>2022-03-27T16:45:14Z</time>
      </trkpt>
      <trkpt lat="46.63411" lon="0.18199">
        <ele>102</ele>
        <time>2022-03-27T16:45:29Z</time>
      </trkpt>
      <trkpt lat="46.63412" lon="0.18288">
        <ele>102</ele>
        <time>2022-03-27T16:45:43Z</time>
      </trkpt>
      <trkpt lat="46.63446" lon="0.18317">
        <ele>101</ele>
        <time>2022-03-27T16:45:53Z</time>
      </trkpt>
      <trkpt lat="46.63495" lon="0.18346">
        <ele>102</ele>
        <time>2022-03-27T16:46:05Z</time>
      </trkpt>
      <trkpt lat="46.63512" lon="0.18348">
        <ele>103</ele>
        <time>2022-03-27T16:46:09Z</time>
      </trkpt>
      <trkpt lat="46.63564" lon="0.18326">
        <ele>108</ele>
        <time>2022-03-27T16:46:22Z</time>
      </trkpt>
      <trkpt lat="46.63586" lon="0.18324">
        <ele>110</ele>
        <time>2022-03-27T16:46:27Z</time>
      </trkpt>
      <trkpt lat="46.63591" lon="0.18341">
        <ele>110</ele>
        <time>2022-03-27T16:46:30Z</time>
      </trkpt>
      <trkpt lat="46.63583" lon="0.18374">
        <ele>109</ele>
        <time>2022-03-27T16:46:35Z</time>
      </trkpt>
      <trkpt lat="46.63583" lon="0.18406">
        <ele>107</ele>
        <time>2022-03-27T16:46:40Z</time>
      </trkpt>
      <trkpt lat="46.63594" lon="0.18439">
        <ele>108</ele>
        <time>2022-03-27T16:46:46Z</time>
      </trkpt>
      <trkpt lat="46.63613" lon="0.18481">
        <ele>109</ele>
        <time>2022-03-27T16:46:54Z</time>
      </trkpt>
      <trkpt lat="46.63695" lon="0.18694">
        <ele>110</ele>
        <time>2022-03-27T16:47:34Z</time>
      </trkpt>
      <trkpt lat="46.63726" lon="0.18835">
        <ele>108</ele>
        <time>2022-03-27T16:47:57Z</time>
      </trkpt>
      <trkpt lat="46.63756" lon="0.18906">
        <ele>107</ele>
        <time>2022-03-27T16:48:11Z</time>
      </trkpt>
      <trkpt lat="46.6378" lon="0.18955">
        <ele>107</ele>
        <time>2022-03-27T16:48:20Z</time>
      </trkpt>
      <trkpt lat="46.63793" lon="0.18996">
        <ele>106</ele>
        <time>2022-03-27T16:48:28Z</time>
      </trkpt>
      <trkpt lat="46.63819" lon="0.1905">
        <ele>106</ele>
        <time>2022-03-27T16:48:38Z</time>
      </trkpt>
      <trkpt lat="46.63873" lon="0.1918">
        <ele>107</ele>
        <time>2022-03-27T16:49:02Z</time>
      </trkpt>
      <trkpt lat="46.63907" lon="0.1925">
        <ele>107</ele>
        <time>2022-03-27T16:49:16Z</time>
      </trkpt>
      <trkpt lat="46.63925" lon="0.19359">
        <ele>105</ele>
        <time>2022-03-27T16:49:34Z</time>
      </trkpt>
      <trkpt lat="46.6393" lon="0.19444">
        <ele>104</ele>
        <time>2022-03-27T16:49:48Z</time>
      </trkpt>
      <trkpt lat="46.63937" lon="0.19497">
        <ele>104</ele>
        <time>2022-03-27T16:49:57Z</time>
      </trkpt>
      <trkpt lat="46.63956" lon="0.19604">
        <ele>105</ele>
        <time>2022-03-27T16:50:14Z</time>
      </trkpt>
      <trkpt lat="46.63955" lon="0.19683">
        <ele>103</ele>
        <time>2022-03-27T16:50:27Z</time>
      </trkpt>
      <trkpt lat="46.63948" lon="0.19703">
        <ele>103</ele>
        <time>2022-03-27T16:50:30Z</time>
      </trkpt>
      <trkpt lat="46.6394" lon="0.19712">
        <ele>103</ele>
        <time>2022-03-27T16:50:33Z</time>
      </trkpt>
      <trkpt lat="46.63931" lon="0.1977">
        <ele>102</ele>
        <time>2022-03-27T16:50:42Z</time>
      </trkpt>
      <trkpt lat="46.63925" lon="0.19833">
        <ele>104</ele>
        <time>2022-03-27T16:50:53Z</time>
      </trkpt>
      <trkpt lat="46.63879" lon="0.19961">
        <ele>106</ele>
        <time>2022-03-27T16:51:16Z</time>
      </trkpt>
      <trkpt lat="46.63854" lon="0.20001">
        <ele>106</ele>
        <time>2022-03-27T16:51:24Z</time>
      </trkpt>
      <trkpt lat="46.63844" lon="0.20022">
        <ele>106</ele>
        <time>2022-03-27T16:51:29Z</time>
      </trkpt>
      <trkpt lat="46.63803" lon="0.20132">
        <ele>107</ele>
        <time>2022-03-27T16:51:49Z</time>
      </trkpt>
      <trkpt lat="46.63789" lon="0.20179">
        <ele>108</ele>
        <time>2022-03-27T16:51:57Z</time>
      </trkpt>
      <trkpt lat="46.6378" lon="0.2019">
        <ele>107</ele>
        <time>2022-03-27T16:52:00Z</time>
      </trkpt>
      <trkpt lat="46.63756" lon="0.20207">
        <ele>107</ele>
        <time>2022-03-27T16:52:06Z</time>
      </trkpt>
      <trkpt lat="46.63728" lon="0.20239">
        <ele>106</ele>
        <time>2022-03-27T16:52:14Z</time>
      </trkpt>
      <trkpt lat="46.63658" lon="0.20288">
        <ele>106</ele>
        <time>2022-03-27T16:52:32Z</time>
      </trkpt>
      <trkpt lat="46.63676" lon="0.20308">
        <ele>107</ele>
        <time>2022-03-27T16:52:38Z</time>
      </trkpt>
      <trkpt lat="46.63699" lon="0.20316">
        <ele>108</ele>
        <time>2022-03-27T16:52:43Z</time>
      </trkpt>
      <trkpt lat="46.63727" lon="0.20333">
        <ele>109</ele>
        <time>2022-03-27T16:52:50Z</time>
      </trkpt>
      <trkpt lat="46.63738" lon="0.20353">
        <ele>111</ele>
        <time>2022-03-27T16:52:54Z</time>
      </trkpt>
      <trkpt lat="46.63749" lon="0.20381">
        <ele>113</ele>
        <time>2022-03-27T16:52:59Z</time>
      </trkpt>
      <trkpt lat="46.63778" lon="0.20464">
        <ele>118</ele>
        <time>2022-03-27T16:53:14Z</time>
      </trkpt>
      <trkpt lat="46.63779" lon="0.20477">
        <ele>119</ele>
        <time>2022-03-27T16:53:16Z</time>
      </trkpt>
      <trkpt lat="46.63786" lon="0.20496">
        <ele>121</ele>
        <time>2022-03-27T16:53:20Z</time>
      </trkpt>
      <trkpt lat="46.63782" lon="0.20527">
        <ele>121</ele>
        <time>2022-03-27T16:53:25Z</time>
      </trkpt>
      <trkpt lat="46.63765" lon="0.20588">
        <ele>123</ele>
        <time>2022-03-27T16:53:36Z</time>
      </trkpt>
      <trkpt lat="46.63759" lon="0.20628">
        <ele>124</ele>
        <time>2022-03-27T16:53:42Z</time>
      </trkpt>
      <trkpt lat="46.6375" lon="0.20666">
        <ele>125</ele>
        <time>2022-03-27T16:53:49Z</time>
      </trkpt>
      <trkpt lat="46.63743" lon="0.20666">
        <ele>125</ele>
        <time>2022-03-27T16:53:50Z</time>
      </trkpt>
      <trkpt lat="46.63607" lon="0.20563">
        <ele>120</ele>
        <time>2022-03-27T16:54:26Z</time>
      </trkpt>
      <trkpt lat="46.63536" lon="0.20502">
        <ele>120</ele>
        <time>2022-03-27T16:54:45Z</time>
      </trkpt>
      <trkpt lat="46.63099" lon="0.20166">
        <ele>117</ele>
        <time>2022-03-27T16:56:41Z</time>
      </trkpt>
      <trkpt lat="46.63057" lon="0.20142">
        <ele>116</ele>
        <time>2022-03-27T16:56:51Z</time>
      </trkpt>
      <trkpt lat="46.62989" lon="0.20112">
        <ele>113</ele>
        <time>2022-03-27T16:57:08Z</time>
      </trkpt>
      <trkpt lat="46.62979" lon="0.20102">
        <ele>111</ele>
        <time>2022-03-27T16:57:11Z</time>
      </trkpt>
      <trkpt lat="46.6297" lon="0.20105">
        <ele>110</ele>
        <time>2022-03-27T16:57:13Z</time>
      </trkpt>
      <trkpt lat="46.62963" lon="0.20121">
        <ele>109</ele>
        <time>2022-03-27T16:57:16Z</time>
      </trkpt>
      <trkpt lat="46.62956" lon="0.20219">
        <ele>109</ele>
        <time>2022-03-27T16:57:32Z</time>
      </trkpt>
      <trkpt lat="46.62948" lon="0.20284">
        <ele>108</ele>
        <time>2022-03-27T16:57:42Z</time>
      </trkpt>
      <trkpt lat="46.62932" lon="0.20382">
        <ele>107</ele>
        <time>2022-03-27T16:57:58Z</time>
      </trkpt>
      <trkpt lat="46.62914" lon="0.20534">
        <ele>107</ele>
        <time>2022-03-27T16:58:23Z</time>
      </trkpt>
      <trkpt lat="46.629" lon="0.2063">
        <ele>106</ele>
        <time>2022-03-27T16:58:39Z</time>
      </trkpt>
      <trkpt lat="46.62872" lon="0.2077">
        <ele>102</ele>
        <time>2022-03-27T16:59:02Z</time>
      </trkpt>
      <trkpt lat="46.62864" lon="0.20833">
        <ele>101</ele>
        <time>2022-03-27T16:59:12Z</time>
      </trkpt>
      <trkpt lat="46.62859" lon="0.20899">
        <ele>100</ele>
        <time>2022-03-27T16:59:23Z</time>
      </trkpt>
      <trkpt lat="46.62855" lon="0.2091">
        <ele>99</ele>
        <time>2022-03-27T16:59:25Z</time>
      </trkpt>
      <trkpt lat="46.6285" lon="0.20905">
        <ele>99</ele>
        <time>2022-03-27T16:59:27Z</time>
      </trkpt>
      <trkpt lat="46.62847" lon="0.20899">
        <ele>99</ele>
        <time>2022-03-27T16:59:28Z</time>
      </trkpt>
      <trkpt lat="46.62846" lon="0.20857">
        <ele>99</ele>
        <time>2022-03-27T16:59:34Z</time>
      </trkpt>
      <trkpt lat="46.6285" lon="0.20768">
        <ele>101</ele>
        <time>2022-03-27T16:59:49Z</time>
      </trkpt>
      <trkpt lat="46.62851" lon="0.2065">
        <ele>100</ele>
        <time>2022-03-27T17:00:08Z</time>
      </trkpt>
      <trkpt lat="46.62885" lon="0.2036">
        <ele>103</ele>
        <time>2022-03-27T17:00:55Z</time>
      </trkpt>
      <trkpt lat="46.62893" lon="0.20214">
        <ele>103</ele>
        <time>2022-03-27T17:01:18Z</time>
      </trkpt>
      <trkpt lat="46.62894" lon="0.20136">
        <ele>102</ele>
        <time>2022-03-27T17:01:31Z</time>
      </trkpt>
      <trkpt lat="46.62904" lon="0.20068">
        <ele>102</ele>
        <time>2022-03-27T17:01:42Z</time>
      </trkpt>
      <trkpt lat="46.62897" lon="0.20055">
        <ele>101</ele>
        <time>2022-03-27T17:01:45Z</time>
      </trkpt>
      <trkpt lat="46.62842" lon="0.20052">
        <ele>99</ele>
        <time>2022-03-27T17:01:58Z</time>
      </trkpt>
      <trkpt lat="46.62791" lon="0.20042">
        <ele>104</ele>
        <time>2022-03-27T17:02:10Z</time>
      </trkpt>
      <trkpt lat="46.62789" lon="0.20053">
        <ele>104</ele>
        <time>2022-03-27T17:02:11Z</time>
      </trkpt>
      <trkpt lat="46.62783" lon="0.20059">
        <ele>105</ele>
        <time>2022-03-27T17:02:13Z</time>
      </trkpt>
      <trkpt lat="46.62777" lon="0.20057">
        <ele>105</ele>
        <time>2022-03-27T17:02:14Z</time>
      </trkpt>
      <trkpt lat="46.62774" lon="0.20051">
        <ele>106</ele>
        <time>2022-03-27T17:02:16Z</time>
      </trkpt>
      <trkpt lat="46.62781" lon="0.2001">
        <ele>106</ele>
        <time>2022-03-27T17:02:22Z</time>
      </trkpt>
      <trkpt lat="46.6278" lon="0.19993">
        <ele>106</ele>
        <time>2022-03-27T17:02:25Z</time>
      </trkpt>
      <trkpt lat="46.62785" lon="0.19952">
        <ele>105</ele>
        <time>2022-03-27T17:02:32Z</time>
      </trkpt>
      <trkpt lat="46.62784" lon="0.19933">
        <ele>106</ele>
        <time>2022-03-27T17:02:35Z</time>
      </trkpt>
      <trkpt lat="46.62789" lon="0.19893">
        <ele>105</ele>
        <time>2022-03-27T17:02:41Z</time>
      </trkpt>
      <trkpt lat="46.62749" lon="0.19889">
        <ele>110</ele>
        <time>2022-03-27T17:02:51Z</time>
      </trkpt>
      <trkpt lat="46.6274" lon="0.1988">
        <ele>111</ele>
        <time>2022-03-27T17:02:53Z</time>
      </trkpt>
      <trkpt lat="46.62728" lon="0.19852">
        <ele>112</ele>
        <time>2022-03-27T17:02:59Z</time>
      </trkpt>
      <trkpt lat="46.6272" lon="0.19846">
        <ele>113</ele>
        <time>2022-03-27T17:03:01Z</time>
      </trkpt>
      <trkpt lat="46.62709" lon="0.1983">
        <ele>114</ele>
        <time>2022-03-27T17:03:04Z</time>
      </trkpt>
      <trkpt lat="46.62707" lon="0.19823">
        <ele>114</ele>
        <time>2022-03-27T17:03:06Z</time>
      </trkpt>
      <trkpt lat="46.62678" lon="0.19787">
        <ele>117</ele>
        <time>2022-03-27T17:03:14Z</time>
      </trkpt>
      <trkpt lat="46.62677" lon="0.19773">
        <ele>117</ele>
        <time>2022-03-27T17:03:17Z</time>
      </trkpt>
      <trkpt lat="46.6267" lon="0.19755">
        <ele>118</ele>
        <time>2022-03-27T17:03:20Z</time>
      </trkpt>
      <trkpt lat="46.62673" lon="0.19675">
        <ele>118</ele>
        <time>2022-03-27T17:03:33Z</time>
      </trkpt>
      <trkpt lat="46.62686" lon="0.1965">
        <ele>118</ele>
        <time>2022-03-27T17:03:38Z</time>
      </trkpt>
      <trkpt lat="46.62691" lon="0.19622">
        <ele>119</ele>
        <time>2022-03-27T17:03:43Z</time>
      </trkpt>
      <trkpt lat="46.62702" lon="0.19603">
        <ele>119</ele>
        <time>2022-03-27T17:03:47Z</time>
      </trkpt>
      <trkpt lat="46.62701" lon="0.1959">
        <ele>119</ele>
        <time>2022-03-27T17:03:49Z</time>
      </trkpt>
      <trkpt lat="46.6267" lon="0.19566">
        <ele>120</ele>
        <time>2022-03-27T17:03:57Z</time>
      </trkpt>
      <trkpt lat="46.6259" lon="0.19526">
        <ele>122</ele>
        <time>2022-03-27T17:04:17Z</time>
      </trkpt>
      <trkpt lat="46.62573" lon="0.19508">
        <ele>122</ele>
        <time>2022-03-27T17:04:22Z</time>
      </trkpt>
      <trkpt lat="46.62554" lon="0.19478">
        <ele>122</ele>
        <time>2022-03-27T17:04:28Z</time>
      </trkpt>
      <trkpt lat="46.62531" lon="0.19406">
        <ele>122</ele>
        <time>2022-03-27T17:04:41Z</time>
      </trkpt>
      <trkpt lat="46.62517" lon="0.19372">
        <ele>121</ele>
        <time>2022-03-27T17:04:47Z</time>
      </trkpt>
      <trkpt lat="46.62512" lon="0.19372">
        <ele>121</ele>
        <time>2022-03-27T17:04:48Z</time>
      </trkpt>
      <trkpt lat="46.62499" lon="0.19347">
        <ele>121</ele>
        <time>2022-03-27T17:04:53Z</time>
      </trkpt>
      <trkpt lat="46.62492" lon="0.19339">
        <ele>121</ele>
        <time>2022-03-27T17:04:55Z</time>
      </trkpt>
      <trkpt lat="46.62398" lon="0.19249">
        <ele>124</ele>
        <time>2022-03-27T17:05:22Z</time>
      </trkpt>
      <trkpt lat="46.62363" lon="0.1922">
        <ele>125</ele>
        <time>2022-03-27T17:05:31Z</time>
      </trkpt>
      <trkpt lat="46.62195" lon="0.19057">
        <ele>127</ele>
        <time>2022-03-27T17:06:18Z</time>
      </trkpt>
      <trkpt lat="46.6217" lon="0.1903">
        <ele>127</ele>
        <time>2022-03-27T17:06:26Z</time>
      </trkpt>
      <trkpt lat="46.62111" lon="0.18979">
        <ele>130</ele>
        <time>2022-03-27T17:06:42Z</time>
      </trkpt>
      <trkpt lat="46.61911" lon="0.18787">
        <ele>136</ele>
        <time>2022-03-27T17:07:38Z</time>
      </trkpt>
      <trkpt lat="46.61907" lon="0.18774">
        <ele>136</ele>
        <time>2022-03-27T17:07:40Z</time>
      </trkpt>
      <trkpt lat="46.61906" lon="0.1876">
        <ele>136</ele>
        <time>2022-03-27T17:07:42Z</time>
      </trkpt>
      <trkpt lat="46.61919" lon="0.18698">
        <ele>136</ele>
        <time>2022-03-27T17:07:52Z</time>
      </trkpt>
      <trkpt lat="46.6192" lon="0.18607">
        <ele>135</ele>
        <time>2022-03-27T17:08:07Z</time>
      </trkpt>
      <trkpt lat="46.61932" lon="0.18489">
        <ele>137</ele>
        <time>2022-03-27T17:08:26Z</time>
      </trkpt>
      <trkpt lat="46.61886" lon="0.18435">
        <ele>137</ele>
        <time>2022-03-27T17:08:40Z</time>
      </trkpt>
      <trkpt lat="46.61858" lon="0.18427">
        <ele>136</ele>
        <time>2022-03-27T17:08:47Z</time>
      </trkpt>
      <trkpt lat="46.61822" lon="0.18427">
        <ele>136</ele>
        <time>2022-03-27T17:08:55Z</time>
      </trkpt>
      <trkpt lat="46.61783" lon="0.18445">
        <ele>135</ele>
        <time>2022-03-27T17:09:05Z</time>
      </trkpt>
      <trkpt lat="46.61748" lon="0.18479">
        <ele>135</ele>
        <time>2022-03-27T17:09:14Z</time>
      </trkpt>
      <trkpt lat="46.61686" lon="0.18548">
        <ele>135</ele>
        <time>2022-03-27T17:09:33Z</time>
      </trkpt>
      <trkpt lat="46.61591" lon="0.18638">
        <ele>133</ele>
        <time>2022-03-27T17:09:59Z</time>
      </trkpt>
      <trkpt lat="46.61516" lon="0.18693">
        <ele>131</ele>
        <time>2022-03-27T17:10:19Z</time>
      </trkpt>
      <trkpt lat="46.61474" lon="0.18706">
        <ele>130</ele>
        <time>2022-03-27T17:10:29Z</time>
      </trkpt>
      <trkpt lat="46.61353" lon="0.18729">
        <ele>130</ele>
        <time>2022-03-27T17:10:57Z</time>
      </trkpt>
      <trkpt lat="46.61311" lon="0.18747">
        <ele>128</ele>
        <time>2022-03-27T17:11:07Z</time>
      </trkpt>
      <trkpt lat="46.61273" lon="0.18775">
        <ele>126</ele>
        <time>2022-03-27T17:11:17Z</time>
      </trkpt>
      <trkpt lat="46.61254" lon="0.18792">
        <ele>125</ele>
        <time>2022-03-27T17:11:23Z</time>
      </trkpt>
      <trkpt lat="46.61246" lon="0.18796">
        <ele>125</ele>
        <time>2022-03-27T17:11:25Z</time>
      </trkpt>
      <trkpt lat="46.61236" lon="0.1879">
        <ele>126</ele>
        <time>2022-03-27T17:11:27Z</time>
      </trkpt>
      <trkpt lat="46.61229" lon="0.18764">
        <ele>126</ele>
        <time>2022-03-27T17:11:32Z</time>
      </trkpt>
      <trkpt lat="46.61219" lon="0.18741">
        <ele>126</ele>
        <time>2022-03-27T17:11:36Z</time>
      </trkpt>
      <trkpt lat="46.61206" lon="0.18731">
        <ele>126</ele>
        <time>2022-03-27T17:11:39Z</time>
      </trkpt>
      <trkpt lat="46.61197" lon="0.18732">
        <ele>126</ele>
        <time>2022-03-27T17:11:42Z</time>
      </trkpt>
      <trkpt lat="46.61191" lon="0.1873">
        <ele>126</ele>
        <time>2022-03-27T17:11:43Z</time>
      </trkpt>
      <trkpt lat="46.61176" lon="0.18687">
        <ele>124</ele>
        <time>2022-03-27T17:11:51Z</time>
      </trkpt>
      <trkpt lat="46.61155" lon="0.1865">
        <ele>124</ele>
        <time>2022-03-27T17:11:58Z</time>
      </trkpt>
      <trkpt lat="46.61148" lon="0.18654">
        <ele>125</ele>
        <time>2022-03-27T17:12:00Z</time>
      </trkpt>
      <trkpt lat="46.61144" lon="0.18664">
        <ele>126</ele>
        <time>2022-03-27T17:12:02Z</time>
      </trkpt>
      <trkpt lat="46.61119" lon="0.18778">
        <ele>137</ele>
        <time>2022-03-27T17:12:21Z</time>
      </trkpt>
      <trkpt lat="46.61109" lon="0.18803">
        <ele>141</ele>
        <time>2022-03-27T17:12:26Z</time>
      </trkpt>
      <trkpt lat="46.61093" lon="0.1882">
        <ele>143</ele>
        <time>2022-03-27T17:12:30Z</time>
      </trkpt>
      <trkpt lat="46.61085" lon="0.18822">
        <ele>144</ele>
        <time>2022-03-27T17:12:32Z</time>
      </trkpt>
      <trkpt lat="46.61071" lon="0.18818">
        <ele>144</ele>
        <time>2022-03-27T17:12:36Z</time>
      </trkpt>
      <trkpt lat="46.61066" lon="0.1881">
        <ele>144</ele>
        <time>2022-03-27T17:12:37Z</time>
      </trkpt>
      <trkpt lat="46.61058" lon="0.18783">
        <ele>143</ele>
        <time>2022-03-27T17:12:42Z</time>
      </trkpt>
      <trkpt lat="46.61035" lon="0.18749">
        <ele>143</ele>
        <time>2022-03-27T17:12:50Z</time>
      </trkpt>
      <trkpt lat="46.61011" lon="0.18727">
        <ele>143</ele>
        <time>2022-03-27T17:12:56Z</time>
      </trkpt>
      <trkpt lat="46.60998" lon="0.18724">
        <ele>144</ele>
        <time>2022-03-27T17:13:00Z</time>
      </trkpt>
      <trkpt lat="46.60962" lon="0.18709">
        <ele>144</ele>
        <time>2022-03-27T17:13:08Z</time>
      </trkpt>
      <trkpt lat="46.60949" lon="0.18698">
        <ele>144</ele>
        <time>2022-03-27T17:13:12Z</time>
      </trkpt>
      <trkpt lat="46.60942" lon="0.18695">
        <ele>144</ele>
        <time>2022-03-27T17:13:13Z</time>
      </trkpt>
      <trkpt lat="46.60931" lon="0.18684">
        <ele>144</ele>
        <time>2022-03-27T17:13:17Z</time>
      </trkpt>
      <trkpt lat="46.60914" lon="0.18678">
        <ele>145</ele>
        <time>2022-03-27T17:13:21Z</time>
      </trkpt>
      <trkpt lat="46.60892" lon="0.18678">
        <ele>144</ele>
        <time>2022-03-27T17:13:26Z</time>
      </trkpt>
      <trkpt lat="46.60871" lon="0.18672">
        <ele>144</ele>
        <time>2022-03-27T17:13:31Z</time>
      </trkpt>
      <trkpt lat="46.60869" lon="0.18669">
        <ele>144</ele>
        <time>2022-03-27T17:13:31Z</time>
      </trkpt>
      <trkpt lat="46.60861" lon="0.18669">
        <ele>144</ele>
        <time>2022-03-27T17:13:33Z</time>
      </trkpt>
      <trkpt lat="46.60814" lon="0.18641">
        <ele>143</ele>
        <time>2022-03-27T17:13:45Z</time>
      </trkpt>
      <trkpt lat="46.60776" lon="0.18639">
        <ele>142</ele>
        <time>2022-03-27T17:13:54Z</time>
      </trkpt>
      <trkpt lat="46.60765" lon="0.18644">
        <ele>141</ele>
        <time>2022-03-27T17:13:57Z</time>
      </trkpt>
      <trkpt lat="46.6072" lon="0.18654">
        <ele>141</ele>
        <time>2022-03-27T17:14:07Z</time>
      </trkpt>
      <trkpt lat="46.60719" lon="0.18652">
        <ele>141</ele>
        <time>2022-03-27T17:14:08Z</time>
      </trkpt>
      <trkpt lat="46.60702" lon="0.1865">
        <ele>142</ele>
        <time>2022-03-27T17:14:12Z</time>
      </trkpt>
      <trkpt lat="46.60685" lon="0.18654">
        <ele>142</ele>
        <time>2022-03-27T17:14:16Z</time>
      </trkpt>
      <trkpt lat="46.6068" lon="0.18651">
        <ele>143</ele>
        <time>2022-03-27T17:14:17Z</time>
      </trkpt>
      <trkpt lat="46.6063" lon="0.18666">
        <ele>144</ele>
        <time>2022-03-27T17:14:29Z</time>
      </trkpt>
      <trkpt lat="46.60618" lon="0.18665">
        <ele>145</ele>
        <time>2022-03-27T17:14:32Z</time>
      </trkpt>
      <trkpt lat="46.60605" lon="0.18659">
        <ele>145</ele>
        <time>2022-03-27T17:14:35Z</time>
      </trkpt>
      <trkpt lat="46.60563" lon="0.18647">
        <ele>147</ele>
        <time>2022-03-27T17:14:45Z</time>
      </trkpt>
      <trkpt lat="46.60555" lon="0.18641">
        <ele>147</ele>
        <time>2022-03-27T17:14:47Z</time>
      </trkpt>
      <trkpt lat="46.60533" lon="0.18641">
        <ele>147</ele>
        <time>2022-03-27T17:14:52Z</time>
      </trkpt>
      <trkpt lat="46.60515" lon="0.18645">
        <ele>147</ele>
        <time>2022-03-27T17:14:56Z</time>
      </trkpt>
      <trkpt lat="46.60486" lon="0.18647">
        <ele>147</ele>
        <time>2022-03-27T17:15:03Z</time>
      </trkpt>
      <trkpt lat="46.60477" lon="0.18645">
        <ele>147</ele>
        <time>2022-03-27T17:15:05Z</time>
      </trkpt>
      <trkpt lat="46.60473" lon="0.18647">
        <ele>146</ele>
        <time>2022-03-27T17:15:06Z</time>
      </trkpt>
      <trkpt lat="46.6046" lon="0.18644">
        <ele>146</ele>
        <time>2022-03-27T17:15:09Z</time>
      </trkpt>
      <trkpt lat="46.60437" lon="0.1863">
        <ele>147</ele>
        <time>2022-03-27T17:15:15Z</time>
      </trkpt>
      <trkpt lat="46.60431" lon="0.1863">
        <ele>147</ele>
        <time>2022-03-27T17:15:17Z</time>
      </trkpt>
      <trkpt lat="46.60434" lon="0.1861">
        <ele>148</ele>
        <time>2022-03-27T17:15:20Z</time>
      </trkpt>
      <trkpt lat="46.60462" lon="0.18517">
        <ele>148</ele>
        <time>2022-03-27T17:15:36Z</time>
      </trkpt>
      <trkpt lat="46.60476" lon="0.1846">
        <ele>146</ele>
        <time>2022-03-27T17:15:46Z</time>
      </trkpt>
      <trkpt lat="46.6048" lon="0.18429">
        <ele>145</ele>
        <time>2022-03-27T17:15:51Z</time>
      </trkpt>
      <trkpt lat="46.60465" lon="0.18358">
        <ele>144</ele>
        <time>2022-03-27T17:16:03Z</time>
      </trkpt>
      <trkpt lat="46.60459" lon="0.18353">
        <ele>144</ele>
        <time>2022-03-27T17:16:05Z</time>
      </trkpt>
      <trkpt lat="46.60469" lon="0.18329">
        <ele>144</ele>
        <time>2022-03-27T17:16:09Z</time>
      </trkpt>
      <trkpt lat="46.60509" lon="0.1828">
        <ele>143</ele>
        <time>2022-03-27T17:16:21Z</time>
      </trkpt>
      <trkpt lat="46.60564" lon="0.18242">
        <ele>141</ele>
        <time>2022-03-27T17:16:35Z</time>
      </trkpt>
      <trkpt lat="46.60592" lon="0.18214">
        <ele>139</ele>
        <time>2022-03-27T17:16:43Z</time>
      </trkpt>
      <trkpt lat="46.6059" lon="0.18208">
        <ele>139</ele>
        <time>2022-03-27T17:16:44Z</time>
      </trkpt>
      <trkpt lat="46.60584" lon="0.18206">
        <ele>140</ele>
        <time>2022-03-27T17:16:46Z</time>
      </trkpt>
      <trkpt lat="46.60563" lon="0.18212">
        <ele>141</ele>
        <time>2022-03-27T17:16:51Z</time>
      </trkpt>
      <trkpt lat="46.6053" lon="0.18216">
        <ele>142</ele>
        <time>2022-03-27T17:16:59Z</time>
      </trkpt>
      <trkpt lat="46.60495" lon="0.18229">
        <ele>143</ele>
        <time>2022-03-27T17:17:07Z</time>
      </trkpt>
      <trkpt lat="46.60426" lon="0.18248">
        <ele>144</ele>
        <time>2022-03-27T17:17:23Z</time>
      </trkpt>
      <trkpt lat="46.60385" lon="0.18249">
        <ele>145</ele>
        <time>2022-03-27T17:17:33Z</time>
      </trkpt>
      <trkpt lat="46.60375" lon="0.18245">
        <ele>146</ele>
        <time>2022-03-27T17:17:35Z</time>
      </trkpt>
      <trkpt lat="46.60364" lon="0.18235">
        <ele>146</ele>
        <time>2022-03-27T17:17:39Z</time>
      </trkpt>
      <trkpt lat="46.60357" lon="0.18224">
        <ele>146</ele>
        <time>2022-03-27T17:17:41Z</time>
      </trkpt>
      <trkpt lat="46.60295" lon="0.18169">
        <ele>146</ele>
        <time>2022-03-27T17:17:58Z</time>
      </trkpt>
      <trkpt lat="46.60282" lon="0.18151">
        <ele>146</ele>
        <time>2022-03-27T17:18:02Z</time>
      </trkpt>
      <trkpt lat="46.60274" lon="0.1815">
        <ele>146</ele>
        <time>2022-03-27T17:18:04Z</time>
      </trkpt>
      <trkpt lat="46.60271" lon="0.18144">
        <ele>146</ele>
        <time>2022-03-27T17:18:05Z</time>
      </trkpt>
      <trkpt lat="46.60238" lon="0.18152">
        <ele>147</ele>
        <time>2022-03-27T17:18:13Z</time>
      </trkpt>
      <trkpt lat="46.60223" lon="0.18159">
        <ele>147</ele>
        <time>2022-03-27T17:18:17Z</time>
      </trkpt>
      <trkpt lat="46.60208" lon="0.1817">
        <ele>148</ele>
        <time>2022-03-27T17:18:21Z</time>
      </trkpt>
      <trkpt lat="46.60194" lon="0.18175">
        <ele>149</ele>
        <time>2022-03-27T17:18:24Z</time>
      </trkpt>
      <trkpt lat="46.60152" lon="0.18198">
        <ele>151</ele>
        <time>2022-03-27T17:18:34Z</time>
      </trkpt>
      <trkpt lat="46.60134" lon="0.18215">
        <ele>151</ele>
        <time>2022-03-27T17:18:39Z</time>
      </trkpt>
      <trkpt lat="46.60124" lon="0.18233">
        <ele>151</ele>
        <time>2022-03-27T17:18:43Z</time>
      </trkpt>
      <trkpt lat="46.60112" lon="0.18247">
        <ele>151</ele>
        <time>2022-03-27T17:18:47Z</time>
      </trkpt>
      <trkpt lat="46.60103" lon="0.1827">
        <ele>151</ele>
        <time>2022-03-27T17:18:51Z</time>
      </trkpt>
      <trkpt lat="46.60082" lon="0.18311">
        <ele>152</ele>
        <time>2022-03-27T17:18:59Z</time>
      </trkpt>
      <trkpt lat="46.60062" lon="0.18369">
        <ele>154</ele>
        <time>2022-03-27T17:19:10Z</time>
      </trkpt>
      <trkpt lat="46.60052" lon="0.18381">
        <ele>154</ele>
        <time>2022-03-27T17:19:13Z</time>
      </trkpt>
      <trkpt lat="46.60033" lon="0.18428">
        <ele>155</ele>
        <time>2022-03-27T17:19:21Z</time>
      </trkpt>
      <trkpt lat="46.60011" lon="0.185">
        <ele>154</ele>
        <time>2022-03-27T17:19:34Z</time>
      </trkpt>
      <trkpt lat="46.59974" lon="0.18662">
        <ele>153</ele>
        <time>2022-03-27T17:20:01Z</time>
      </trkpt>
      <trkpt lat="46.59945" lon="0.18768">
        <ele>150</ele>
        <time>2022-03-27T17:20:20Z</time>
      </trkpt>
      <trkpt lat="46.5993" lon="0.18765">
        <ele>150</ele>
        <time>2022-03-27T17:20:23Z</time>
      </trkpt>
      <trkpt lat="46.5992" lon="0.18758">
        <ele>151</ele>
        <time>2022-03-27T17:20:26Z</time>
      </trkpt>
      <trkpt lat="46.59881" lon="0.18754">
        <ele>151</ele>
        <time>2022-03-27T17:20:35Z</time>
      </trkpt>
      <trkpt lat="46.59868" lon="0.1875">
        <ele>151</ele>
        <time>2022-03-27T17:20:38Z</time>
      </trkpt>
      <trkpt lat="46.59858" lon="0.18743">
        <ele>151</ele>
        <time>2022-03-27T17:20:41Z</time>
      </trkpt>
      <trkpt lat="46.59814" lon="0.18724">
        <ele>151</ele>
        <time>2022-03-27T17:20:51Z</time>
      </trkpt>
      <trkpt lat="46.59791" lon="0.18717">
        <ele>150</ele>
        <time>2022-03-27T17:20:57Z</time>
      </trkpt>
      <trkpt lat="46.59784" lon="0.18709">
        <ele>150</ele>
        <time>2022-03-27T17:20:59Z</time>
      </trkpt>
      <trkpt lat="46.59772" lon="0.18702">
        <ele>149</ele>
        <time>2022-03-27T17:21:02Z</time>
      </trkpt>
      <trkpt lat="46.59759" lon="0.18698">
        <ele>149</ele>
        <time>2022-03-27T17:21:05Z</time>
      </trkpt>
      <trkpt lat="46.59712" lon="0.18659">
        <ele>148</ele>
        <time>2022-03-27T17:21:18Z</time>
      </trkpt>
      <trkpt lat="46.59643" lon="0.18618">
        <ele>148</ele>
        <time>2022-03-27T17:21:35Z</time>
      </trkpt>
      <trkpt lat="46.5963" lon="0.18607">
        <ele>148</ele>
        <time>2022-03-27T17:21:39Z</time>
      </trkpt>
      <trkpt lat="46.59623" lon="0.18596">
        <ele>148</ele>
        <time>2022-03-27T17:21:41Z</time>
      </trkpt>
      <trkpt lat="46.59602" lon="0.18574">
        <ele>149</ele>
        <time>2022-03-27T17:21:47Z</time>
      </trkpt>
      <trkpt lat="46.59537" lon="0.18518">
        <ele>153</ele>
        <time>2022-03-27T17:22:05Z</time>
      </trkpt>
      <trkpt lat="46.59522" lon="0.18502">
        <ele>154</ele>
        <time>2022-03-27T17:22:09Z</time>
      </trkpt>
      <trkpt lat="46.59484" lon="0.18493">
        <ele>154</ele>
        <time>2022-03-27T17:22:18Z</time>
      </trkpt>
      <trkpt lat="46.5947" lon="0.18481">
        <ele>154</ele>
        <time>2022-03-27T17:22:22Z</time>
      </trkpt>
      <trkpt lat="46.59458" lon="0.18476">
        <ele>153</ele>
        <time>2022-03-27T17:22:25Z</time>
      </trkpt>
      <trkpt lat="46.59413" lon="0.18465">
        <ele>150</ele>
        <time>2022-03-27T17:22:35Z</time>
      </trkpt>
      <trkpt lat="46.59394" lon="0.18454">
        <ele>149</ele>
        <time>2022-03-27T17:22:40Z</time>
      </trkpt>
      <trkpt lat="46.59385" lon="0.18455">
        <ele>149</ele>
        <time>2022-03-27T17:22:42Z</time>
      </trkpt>
      <trkpt lat="46.58857" lon="0.18084">
        <ele>149</ele>
        <time>2022-03-27T17:22:45Z</time>
      </trkpt>
      <trkpt lat="46.58857" lon="0.18095">
        <ele>141</ele>
      </trkpt>
      <trkpt lat="46.58857" lon="0.18095">
        <ele>148.39999389648</ele>
        <time>2022-04-17T07:52:29Z</time>
        <extensions>
          <gpxtpx:TrackPointExtension xmlns:gpxtpx="http://www.garmin.com/xmlschemas/TrackPointExtension/v1">
            <gpxtpx:hr>136</gpxtpx:hr>
          </gpxtpx:TrackPointExtension>
        </extensions>
      </trkpt>
      <trkpt lat="46.58854" lon="0.18108">
        <ele>148.39999389648</ele>
        <time>2022-04-17T07:52:31Z</time>
        <extensions>
          <gpxtpx:TrackPointExtension xmlns:gpxtpx="http://www.garmin.com/xmlschemas/TrackPointExtension/v1">
            <gpxtpx:hr>135</gpxtpx:hr>
          </gpxtpx:TrackPointExtension>
        </extensions>
      </trkpt>
      <trkpt lat="46.58853" lon="0.18114">
        <ele>148.39999389648</ele>
        <time>2022-04-17T07:52:32Z</time>
        <extensions>
          <gpxtpx:TrackPointExtension xmlns:gpxtpx="http://www.garmin.com/xmlschemas/TrackPointExtension/v1">
            <gpxtpx:hr>135</gpxtpx:hr>
          </gpxtpx:TrackPointExtension>
        </extensions>
      </trkpt>
      <trkpt lat="46.58848" lon="0.18142">
        <ele>148.19999694824</ele>
        <time>2022-04-17T07:52:36Z</time>
        <extensions>
          <gpxtpx:TrackPointExtension xmlns:gpxtpx="http://www.garmin.com/xmlschemas/TrackPointExtension/v1">
            <gpxtpx:hr>136</gpxtpx:hr>
          </gpxtpx:TrackPointExtension>
        </extensions>
      </trkpt>
      <trkpt lat="46.5884" lon="0.18207">
        <ele>148</ele>
        <time>2022-04-17T07:52:45Z</time>
        <extensions>
          <gpxtpx:TrackPointExtension xmlns:gpxtpx="http://www.garmin.com/xmlschemas/TrackPointExtension/v1">
            <gpxtpx:hr>135</gpxtpx:hr>
          </gpxtpx:TrackPointExtension>
        </extensions>
      </trkpt>
      <trkpt lat="46.58837" lon="0.18221">
        <ele>148</ele>
        <time>2022-04-17T07:52:47Z</time>
        <extensions>
          <gpxtpx:TrackPointExtension xmlns:gpxtpx="http://www.garmin.com/xmlschemas/TrackPointExtension/v1">
            <gpxtpx:hr>134</gpxtpx:hr>
          </gpxtpx:TrackPointExtension>
        </extensions>
      </trkpt>
      <trkpt lat="46.58836" lon="0.18228">
        <ele>148</ele>
        <time>2022-04-17T07:52:48Z</time>
        <extensions>
          <gpxtpx:TrackPointExtension xmlns:gpxtpx="http://www.garmin.com/xmlschemas/TrackPointExtension/v1">
            <gpxtpx:hr>134</gpxtpx:hr>
          </gpxtpx:TrackPointExtension>
        </extensions>
      </trkpt>
      <trkpt lat="46.58835" lon="0.18235">
        <ele>148</ele>
        <time>2022-04-17T07:52:49Z</time>
        <extensions>
          <gpxtpx:TrackPointExtension xmlns:gpxtpx="http://www.garmin.com/xmlschemas/TrackPointExtension/v1">
            <gpxtpx:hr>134</gpxtpx:hr>
          </gpxtpx:TrackPointExtension>
        </extensions>
      </trkpt>
      <trkpt lat="46.58834" lon="0.18242">
        <ele>148.19999694824</ele>
        <time>2022-04-17T07:52:50Z</time>
        <extensions>
          <gpxtpx:TrackPointExtension xmlns:gpxtpx="http://www.garmin.com/xmlschemas/TrackPointExtension/v1">
            <gpxtpx:hr>134</gpxtpx:hr>
          </gpxtpx:TrackPointExtension>
        </extensions>
      </trkpt>
      <trkpt lat="46.58834" lon="0.18249">
        <ele>148</ele>
        <time>2022-04-17T07:52:51Z</time>
        <extensions>
          <gpxtpx:TrackPointExtension xmlns:gpxtpx="http://www.garmin.com/xmlschemas/TrackPointExtension/v1">
            <gpxtpx:hr>133</gpxtpx:hr>
          </gpxtpx:TrackPointExtension>
        </extensions>
      </trkpt>
      <trkpt lat="46.58833" lon="0.18256">
        <ele>148</ele>
        <time>2022-04-17T07:52:52Z</time>
        <extensions>
          <gpxtpx:TrackPointExtension xmlns:gpxtpx="http://www.garmin.com/xmlschemas/TrackPointExtension/v1">
            <gpxtpx:hr>133</gpxtpx:hr>
          </gpxtpx:TrackPointExtension>
        </extensions>
      </trkpt>
      <trkpt lat="46.58833" lon="0.18265">
        <ele>148</ele>
        <time>2022-04-17T07:52:53Z</time>
        <extensions>
          <gpxtpx:TrackPointExtension xmlns:gpxtpx="http://www.garmin.com/xmlschemas/TrackPointExtension/v1">
            <gpxtpx:hr>133</gpxtpx:hr>
          </gpxtpx:TrackPointExtension>
        </extensions>
      </trkpt>
      <trkpt lat="46.5883" lon="0.18311">
        <ele>147.60000610352</ele>
        <time>2022-04-17T07:52:59Z</time>
        <extensions>
          <gpxtpx:TrackPointExtension xmlns:gpxtpx="http://www.garmin.com/xmlschemas/TrackPointExtension/v1">
            <gpxtpx:hr>130</gpxtpx:hr>
          </gpxtpx:TrackPointExtension>
        </extensions>
      </trkpt>
      <trkpt lat="46.5883" lon="0.18319">
        <ele>147.39999389648</ele>
        <time>2022-04-17T07:53:00Z</time>
        <extensions>
          <gpxtpx:TrackPointExtension xmlns:gpxtpx="http://www.garmin.com/xmlschemas/TrackPointExtension/v1">
            <gpxtpx:hr>130</gpxtpx:hr>
          </gpxtpx:TrackPointExtension>
        </extensions>
      </trkpt>
      <trkpt lat="46.58829" lon="0.18328">
        <ele>147.39999389648</ele>
        <time>2022-04-17T07:53:01Z</time>
        <extensions>
          <gpxtpx:TrackPointExtension xmlns:gpxtpx="http://www.garmin.com/xmlschemas/TrackPointExtension/v1">
            <gpxtpx:hr>130</gpxtpx:hr>
          </gpxtpx:TrackPointExtension>
        </extensions>
      </trkpt>
      <trkpt lat="46.58825" lon="0.18365">
        <ele>147.19999694824</ele>
        <time>2022-04-17T07:53:06Z</time>
        <extensions>
          <gpxtpx:TrackPointExtension xmlns:gpxtpx="http://www.garmin.com/xmlschemas/TrackPointExtension/v1">
            <gpxtpx:hr>129</gpxtpx:hr>
          </gpxtpx:TrackPointExtension>
        </extensions>
      </trkpt>
      <trkpt lat="46.58824" lon="0.18372">
        <ele>146.60000610352</ele>
        <time>2022-04-17T07:53:07Z</time>
        <extensions>
          <gpxtpx:TrackPointExtension xmlns:gpxtpx="http://www.garmin.com/xmlschemas/TrackPointExtension/v1">
            <gpxtpx:hr>129</gpxtpx:hr>
          </gpxtpx:TrackPointExtension>
        </extensions>
      </trkpt>
      <trkpt lat="46.58823" lon="0.1838">
        <ele>146.39999389648</ele>
        <time>2022-04-17T07:53:08Z</time>
        <extensions>
          <gpxtpx:TrackPointExtension xmlns:gpxtpx="http://www.garmin.com/xmlschemas/TrackPointExtension/v1">
            <gpxtpx:hr>129</gpxtpx:hr>
          </gpxtpx:TrackPointExtension>
        </extensions>
      </trkpt>
      <trkpt lat="46.58821" lon="0.18388">
        <ele>146.19999694824</ele>
        <time>2022-04-17T07:53:09Z</time>
        <extensions>
          <gpxtpx:TrackPointExtension xmlns:gpxtpx="http://www.garmin.com/xmlschemas/TrackPointExtension/v1">
            <gpxtpx:hr>129</gpxtpx:hr>
          </gpxtpx:TrackPointExtension>
        </extensions>
      </trkpt>
      <trkpt lat="46.58807" lon="0.18456">
        <ele>145.39999389648</ele>
        <time>2022-04-17T07:53:18Z</time>
        <extensions>
          <gpxtpx:TrackPointExtension xmlns:gpxtpx="http://www.garmin.com/xmlschemas/TrackPointExtension/v1">
            <gpxtpx:hr>129</gpxtpx:hr>
          </gpxtpx:TrackPointExtension>
        </extensions>
      </trkpt>
      <trkpt lat="46.58806" lon="0.18463">
        <ele>145.39999389648</ele>
        <time>2022-04-17T07:53:19Z</time>
        <extensions>
          <gpxtpx:TrackPointExtension xmlns:gpxtpx="http://www.garmin.com/xmlschemas/TrackPointExtension/v1">
            <gpxtpx:hr>129</gpxtpx:hr>
          </gpxtpx:TrackPointExtension>
        </extensions>
      </trkpt>
      <trkpt lat="46.58801" lon="0.18493">
        <ele>145.19999694824</ele>
        <time>2022-04-17T07:53:23Z</time>
        <extensions>
          <gpxtpx:TrackPointExtension xmlns:gpxtpx="http://www.garmin.com/xmlschemas/TrackPointExtension/v1">
            <gpxtpx:hr>127</gpxtpx:hr>
          </gpxtpx:TrackPointExtension>
        </extensions>
      </trkpt>
      <trkpt lat="46.588" lon="0.185">
        <ele>145.19999694824</ele>
        <time>2022-04-17T07:53:24Z</time>
        <extensions>
          <gpxtpx:TrackPointExtension xmlns:gpxtpx="http://www.garmin.com/xmlschemas/TrackPointExtension/v1">
            <gpxtpx:hr>127</gpxtpx:hr>
          </gpxtpx:TrackPointExtension>
        </extensions>
      </trkpt>
      <trkpt lat="46.58798" lon="0.18506">
        <ele>145</ele>
        <time>2022-04-17T07:53:25Z</time>
        <extensions>
          <gpxtpx:TrackPointExtension xmlns:gpxtpx="http://www.garmin.com/xmlschemas/TrackPointExtension/v1">
            <gpxtpx:hr>127</gpxtpx:hr>
          </gpxtpx:TrackPointExtension>
        </extensions>
      </trkpt>
      <trkpt lat="46.58797" lon="0.18513">
        <ele>145</ele>
        <time>2022-04-17T07:53:26Z</time>
        <extensions>
          <gpxtpx:TrackPointExtension xmlns:gpxtpx="http://www.garmin.com/xmlschemas/TrackPointExtension/v1">
            <gpxtpx:hr>127</gpxtpx:hr>
          </gpxtpx:TrackPointExtension>
        </extensions>
      </trkpt>
      <trkpt lat="46.58794" lon="0.1852">
        <ele>144.80000305176</ele>
        <time>2022-04-17T07:53:27Z</time>
        <extensions>
          <gpxtpx:TrackPointExtension xmlns:gpxtpx="http://www.garmin.com/xmlschemas/TrackPointExtension/v1">
            <gpxtpx:hr>127</gpxtpx:hr>
          </gpxtpx:TrackPointExtension>
        </extensions>
      </trkpt>
      <trkpt lat="46.58786" lon="0.18539">
        <ele>145</ele>
        <time>2022-04-17T07:53:30Z</time>
        <extensions>
          <gpxtpx:TrackPointExtension xmlns:gpxtpx="http://www.garmin.com/xmlschemas/TrackPointExtension/v1">
            <gpxtpx:hr>126</gpxtpx:hr>
          </gpxtpx:TrackPointExtension>
        </extensions>
      </trkpt>
      <trkpt lat="46.58778" lon="0.18556">
        <ele>145</ele>
        <time>2022-04-17T07:53:33Z</time>
        <extensions>
          <gpxtpx:TrackPointExtension xmlns:gpxtpx="http://www.garmin.com/xmlschemas/TrackPointExtension/v1">
            <gpxtpx:hr>122</gpxtpx:hr>
          </gpxtpx:TrackPointExtension>
        </extensions>
      </trkpt>
      <trkpt lat="46.58773" lon="0.18569">
        <ele>144.60000610352</ele>
        <time>2022-04-17T07:53:35Z</time>
        <extensions>
          <gpxtpx:TrackPointExtension xmlns:gpxtpx="http://www.garmin.com/xmlschemas/TrackPointExtension/v1">
            <gpxtpx:hr>123</gpxtpx:hr>
          </gpxtpx:TrackPointExtension>
        </extensions>
      </trkpt>
      <trkpt lat="46.58767" lon="0.18582">
        <ele>144.60000610352</ele>
        <time>2022-04-17T07:53:37Z</time>
        <extensions>
          <gpxtpx:TrackPointExtension xmlns:gpxtpx="http://www.garmin.com/xmlschemas/TrackPointExtension/v1">
            <gpxtpx:hr>123</gpxtpx:hr>
          </gpxtpx:TrackPointExtension>
        </extensions>
      </trkpt>
      <trkpt lat="46.58751" lon="0.18623">
        <ele>144.39999389648</ele>
        <time>2022-04-17T07:53:43Z</time>
        <extensions>
          <gpxtpx:TrackPointExtension xmlns:gpxtpx="http://www.garmin.com/xmlschemas/TrackPointExtension/v1">
            <gpxtpx:hr>123</gpxtpx:hr>
          </gpxtpx:TrackPointExtension>
        </extensions>
      </trkpt>
      <trkpt lat="46.58745" lon="0.18636">
        <ele>144.19999694824</ele>
        <time>2022-04-17T07:53:45Z</time>
        <extensions>
          <gpxtpx:TrackPointExtension xmlns:gpxtpx="http://www.garmin.com/xmlschemas/TrackPointExtension/v1">
            <gpxtpx:hr>122</gpxtpx:hr>
          </gpxtpx:TrackPointExtension>
        </extensions>
      </trkpt>
      <trkpt lat="46.5874" lon="0.18649">
        <ele>144.19999694824</ele>
        <time>2022-04-17T07:53:47Z</time>
        <extensions>
          <gpxtpx:TrackPointExtension xmlns:gpxtpx="http://www.garmin.com/xmlschemas/TrackPointExtension/v1">
            <gpxtpx:hr>121</gpxtpx:hr>
          </gpxtpx:TrackPointExtension>
        </extensions>
      </trkpt>
      <trkpt lat="46.58737" lon="0.18655">
        <ele>144.19999694824</ele>
        <time>2022-04-17T07:53:48Z</time>
        <extensions>
          <gpxtpx:TrackPointExtension xmlns:gpxtpx="http://www.garmin.com/xmlschemas/TrackPointExtension/v1">
            <gpxtpx:hr>121</gpxtpx:hr>
          </gpxtpx:TrackPointExtension>
        </extensions>
      </trkpt>
      <trkpt lat="46.58732" lon="0.18668">
        <ele>144</ele>
        <time>2022-04-17T07:53:50Z</time>
        <extensions>
          <gpxtpx:TrackPointExtension xmlns:gpxtpx="http://www.garmin.com/xmlschemas/TrackPointExtension/v1">
            <gpxtpx:hr>122</gpxtpx:hr>
          </gpxtpx:TrackPointExtension>
        </extensions>
      </trkpt>
      <trkpt lat="46.5873" lon="0.18674">
        <ele>144</ele>
        <time>2022-04-17T07:53:51Z</time>
        <extensions>
          <gpxtpx:TrackPointExtension xmlns:gpxtpx="http://www.garmin.com/xmlschemas/TrackPointExtension/v1">
            <gpxtpx:hr>122</gpxtpx:hr>
          </gpxtpx:TrackPointExtension>
        </extensions>
      </trkpt>
      <trkpt lat="46.58725" lon="0.18688">
        <ele>144</ele>
        <time>2022-04-17T07:53:53Z</time>
        <extensions>
          <gpxtpx:TrackPointExtension xmlns:gpxtpx="http://www.garmin.com/xmlschemas/TrackPointExtension/v1">
            <gpxtpx:hr>122</gpxtpx:hr>
          </gpxtpx:TrackPointExtension>
        </extensions>
      </trkpt>
      <trkpt lat="46.58723" lon="0.18694">
        <ele>143.80000305176</ele>
        <time>2022-04-17T07:53:54Z</time>
        <extensions>
          <gpxtpx:TrackPointExtension xmlns:gpxtpx="http://www.garmin.com/xmlschemas/TrackPointExtension/v1">
            <gpxtpx:hr>122</gpxtpx:hr>
          </gpxtpx:TrackPointExtension>
        </extensions>
      </trkpt>
      <trkpt lat="46.58717" lon="0.18723">
        <ele>143.39999389648</ele>
        <time>2022-04-17T07:53:58Z</time>
        <extensions>
          <gpxtpx:TrackPointExtension xmlns:gpxtpx="http://www.garmin.com/xmlschemas/TrackPointExtension/v1">
            <gpxtpx:hr>121</gpxtpx:hr>
          </gpxtpx:TrackPointExtension>
        </extensions>
      </trkpt>
      <trkpt lat="46.58709" lon="0.18761">
        <ele>143</ele>
        <time>2022-04-17T07:54:03Z</time>
        <extensions>
          <gpxtpx:TrackPointExtension xmlns:gpxtpx="http://www.garmin.com/xmlschemas/TrackPointExtension/v1">
            <gpxtpx:hr>118</gpxtpx:hr>
          </gpxtpx:TrackPointExtension>
        </extensions>
      </trkpt>
      <trkpt lat="46.58707" lon="0.18769">
        <ele>143</ele>
        <time>2022-04-17T07:54:04Z</time>
        <extensions>
          <gpxtpx:TrackPointExtension xmlns:gpxtpx="http://www.garmin.com/xmlschemas/TrackPointExtension/v1">
            <gpxtpx:hr>118</gpxtpx:hr>
          </gpxtpx:TrackPointExtension>
        </extensions>
      </trkpt>
      <trkpt lat="46.58698" lon="0.18804">
        <ele>143</ele>
        <time>2022-04-17T07:54:09Z</time>
        <extensions>
          <gpxtpx:TrackPointExtension xmlns:gpxtpx="http://www.garmin.com/xmlschemas/TrackPointExtension/v1">
            <gpxtpx:hr>121</gpxtpx:hr>
          </gpxtpx:TrackPointExtension>
        </extensions>
      </trkpt>
      <trkpt lat="46.58696" lon="0.18811">
        <ele>143</ele>
        <time>2022-04-17T07:54:10Z</time>
        <extensions>
          <gpxtpx:TrackPointExtension xmlns:gpxtpx="http://www.garmin.com/xmlschemas/TrackPointExtension/v1">
            <gpxtpx:hr>123</gpxtpx:hr>
          </gpxtpx:TrackPointExtension>
        </extensions>
      </trkpt>
      <trkpt lat="46.58695" lon="0.18818">
        <ele>142.80000305176</ele>
        <time>2022-04-17T07:54:11Z</time>
        <extensions>
          <gpxtpx:TrackPointExtension xmlns:gpxtpx="http://www.garmin.com/xmlschemas/TrackPointExtension/v1">
            <gpxtpx:hr>123</gpxtpx:hr>
          </gpxtpx:TrackPointExtension>
        </extensions>
      </trkpt>
      <trkpt lat="46.58693" lon="0.18824">
        <ele>142.80000305176</ele>
        <time>2022-04-17T07:54:12Z</time>
        <extensions>
          <gpxtpx:TrackPointExtension xmlns:gpxtpx="http://www.garmin.com/xmlschemas/TrackPointExtension/v1">
            <gpxtpx:hr>122</gpxtpx:hr>
          </gpxtpx:TrackPointExtension>
        </extensions>
      </trkpt>
      <trkpt lat="46.58691" lon="0.18831">
        <ele>143.19999694824</ele>
        <time>2022-04-17T07:54:13Z</time>
        <extensions>
          <gpxtpx:TrackPointExtension xmlns:gpxtpx="http://www.garmin.com/xmlschemas/TrackPointExtension/v1">
            <gpxtpx:hr>122</gpxtpx:hr>
          </gpxtpx:TrackPointExtension>
        </extensions>
      </trkpt>
      <trkpt lat="46.58689" lon="0.18837">
        <ele>143.19999694824</ele>
        <time>2022-04-17T07:54:14Z</time>
        <extensions>
          <gpxtpx:TrackPointExtension xmlns:gpxtpx="http://www.garmin.com/xmlschemas/TrackPointExtension/v1">
            <gpxtpx:hr>123</gpxtpx:hr>
          </gpxtpx:TrackPointExtension>
        </extensions>
      </trkpt>
      <trkpt lat="46.58687" lon="0.18844">
        <ele>143.19999694824</ele>
        <time>2022-04-17T07:54:15Z</time>
        <extensions>
          <gpxtpx:TrackPointExtension xmlns:gpxtpx="http://www.garmin.com/xmlschemas/TrackPointExtension/v1">
            <gpxtpx:hr>122</gpxtpx:hr>
          </gpxtpx:TrackPointExtension>
        </extensions>
      </trkpt>
      <trkpt lat="46.58685" lon="0.1885">
        <ele>143.19999694824</ele>
        <time>2022-04-17T07:54:16Z</time>
        <extensions>
          <gpxtpx:TrackPointExtension xmlns:gpxtpx="http://www.garmin.com/xmlschemas/TrackPointExtension/v1">
            <gpxtpx:hr>122</gpxtpx:hr>
          </gpxtpx:TrackPointExtension>
        </extensions>
      </trkpt>
      <trkpt lat="46.58674" lon="0.18884">
        <ele>143.60000610352</ele>
        <time>2022-04-17T07:54:21Z</time>
        <extensions>
          <gpxtpx:TrackPointExtension xmlns:gpxtpx="http://www.garmin.com/xmlschemas/TrackPointExtension/v1">
            <gpxtpx:hr>122</gpxtpx:hr>
          </gpxtpx:TrackPointExtension>
        </extensions>
      </trkpt>
      <trkpt lat="46.58657" lon="0.18938">
        <ele>142.80000305176</ele>
        <time>2022-04-17T07:54:29Z</time>
        <extensions>
          <gpxtpx:TrackPointExtension xmlns:gpxtpx="http://www.garmin.com/xmlschemas/TrackPointExtension/v1">
            <gpxtpx:hr>125</gpxtpx:hr>
          </gpxtpx:TrackPointExtension>
        </extensions>
      </trkpt>
      <trkpt lat="46.58655" lon="0.18944">
        <ele>142.80000305176</ele>
        <time>2022-04-17T07:54:30Z</time>
        <extensions>
          <gpxtpx:TrackPointExtension xmlns:gpxtpx="http://www.garmin.com/xmlschemas/TrackPointExtension/v1">
            <gpxtpx:hr>125</gpxtpx:hr>
          </gpxtpx:TrackPointExtension>
        </extensions>
      </trkpt>
      <trkpt lat="46.58653" lon="0.1895">
        <ele>142.80000305176</ele>
        <time>2022-04-17T07:54:31Z</time>
        <extensions>
          <gpxtpx:TrackPointExtension xmlns:gpxtpx="http://www.garmin.com/xmlschemas/TrackPointExtension/v1">
            <gpxtpx:hr>126</gpxtpx:hr>
          </gpxtpx:TrackPointExtension>
        </extensions>
      </trkpt>
      <trkpt lat="46.58651" lon="0.18956">
        <ele>142.80000305176</ele>
        <time>2022-04-17T07:54:32Z</time>
        <extensions>
          <gpxtpx:TrackPointExtension xmlns:gpxtpx="http://www.garmin.com/xmlschemas/TrackPointExtension/v1">
            <gpxtpx:hr>126</gpxtpx:hr>
          </gpxtpx:TrackPointExtension>
        </extensions>
      </trkpt>
      <trkpt lat="46.58649" lon="0.18962">
        <ele>142.80000305176</ele>
        <time>2022-04-17T07:54:33Z</time>
        <extensions>
          <gpxtpx:TrackPointExtension xmlns:gpxtpx="http://www.garmin.com/xmlschemas/TrackPointExtension/v1">
            <gpxtpx:hr>126</gpxtpx:hr>
          </gpxtpx:TrackPointExtension>
        </extensions>
      </trkpt>
      <trkpt lat="46.58647" lon="0.18968">
        <ele>142.80000305176</ele>
        <time>2022-04-17T07:54:34Z</time>
        <extensions>
          <gpxtpx:TrackPointExtension xmlns:gpxtpx="http://www.garmin.com/xmlschemas/TrackPointExtension/v1">
            <gpxtpx:hr>126</gpxtpx:hr>
          </gpxtpx:TrackPointExtension>
        </extensions>
      </trkpt>
      <trkpt lat="46.58645" lon="0.18973">
        <ele>142.80000305176</ele>
        <time>2022-04-17T07:54:35Z</time>
        <extensions>
          <gpxtpx:TrackPointExtension xmlns:gpxtpx="http://www.garmin.com/xmlschemas/TrackPointExtension/v1">
            <gpxtpx:hr>125</gpxtpx:hr>
          </gpxtpx:TrackPointExtension>
        </extensions>
      </trkpt>
      <trkpt lat="46.58643" lon="0.18978">
        <ele>142.80000305176</ele>
        <time>2022-04-17T07:54:36Z</time>
        <extensions>
          <gpxtpx:TrackPointExtension xmlns:gpxtpx="http://www.garmin.com/xmlschemas/TrackPointExtension/v1">
            <gpxtpx:hr>125</gpxtpx:hr>
          </gpxtpx:TrackPointExtension>
        </extensions>
      </trkpt>
      <trkpt lat="46.5864" lon="0.18982">
        <ele>142.80000305176</ele>
        <time>2022-04-17T07:54:37Z</time>
        <extensions>
          <gpxtpx:TrackPointExtension xmlns:gpxtpx="http://www.garmin.com/xmlschemas/TrackPointExtension/v1">
            <gpxtpx:hr>124</gpxtpx:hr>
          </gpxtpx:TrackPointExtension>
        </extensions>
      </trkpt>
      <trkpt lat="46.58636" lon="0.18985">
        <ele>142.80000305176</ele>
        <time>2022-04-17T07:54:38Z</time>
        <extensions>
          <gpxtpx:TrackPointExtension xmlns:gpxtpx="http://www.garmin.com/xmlschemas/TrackPointExtension/v1">
            <gpxtpx:hr>125</gpxtpx:hr>
          </gpxtpx:TrackPointExtension>
        </extensions>
      </trkpt>
      <trkpt lat="46.58632" lon="0.18987">
        <ele>142.80000305176</ele>
        <time>2022-04-17T07:54:39Z</time>
        <extensions>
          <gpxtpx:TrackPointExtension xmlns:gpxtpx="http://www.garmin.com/xmlschemas/TrackPointExtension/v1">
            <gpxtpx:hr>125</gpxtpx:hr>
          </gpxtpx:TrackPointExtension>
        </extensions>
      </trkpt>
      <trkpt lat="46.58628" lon="0.18989">
        <ele>142.80000305176</ele>
        <time>2022-04-17T07:54:40Z</time>
        <extensions>
          <gpxtpx:TrackPointExtension xmlns:gpxtpx="http://www.garmin.com/xmlschemas/TrackPointExtension/v1">
            <gpxtpx:hr>124</gpxtpx:hr>
          </gpxtpx:TrackPointExtension>
        </extensions>
      </trkpt>
      <trkpt lat="46.58624" lon="0.1899">
        <ele>142.80000305176</ele>
        <time>2022-04-17T07:54:41Z</time>
        <extensions>
          <gpxtpx:TrackPointExtension xmlns:gpxtpx="http://www.garmin.com/xmlschemas/TrackPointExtension/v1">
            <gpxtpx:hr>124</gpxtpx:hr>
          </gpxtpx:TrackPointExtension>
        </extensions>
      </trkpt>
      <trkpt lat="46.58602" lon="0.18993">
        <ele>142.60000610352</ele>
        <time>2022-04-17T07:54:46Z</time>
        <extensions>
          <gpxtpx:TrackPointExtension xmlns:gpxtpx="http://www.garmin.com/xmlschemas/TrackPointExtension/v1">
            <gpxtpx:hr>125</gpxtpx:hr>
          </gpxtpx:TrackPointExtension>
        </extensions>
      </trkpt>
      <trkpt lat="46.58598" lon="0.18994">
        <ele>142.60000610352</ele>
        <time>2022-04-17T07:54:47Z</time>
        <extensions>
          <gpxtpx:TrackPointExtension xmlns:gpxtpx="http://www.garmin.com/xmlschemas/TrackPointExtension/v1">
            <gpxtpx:hr>127</gpxtpx:hr>
          </gpxtpx:TrackPointExtension>
        </extensions>
      </trkpt>
      <trkpt lat="46.58594" lon="0.18994">
        <ele>142.60000610352</ele>
        <time>2022-04-17T07:54:48Z</time>
        <extensions>
          <gpxtpx:TrackPointExtension xmlns:gpxtpx="http://www.garmin.com/xmlschemas/TrackPointExtension/v1">
            <gpxtpx:hr>127</gpxtpx:hr>
          </gpxtpx:TrackPointExtension>
        </extensions>
      </trkpt>
      <trkpt lat="46.58577" lon="0.18997">
        <ele>142.80000305176</ele>
        <time>2022-04-17T07:54:52Z</time>
        <extensions>
          <gpxtpx:TrackPointExtension xmlns:gpxtpx="http://www.garmin.com/xmlschemas/TrackPointExtension/v1">
            <gpxtpx:hr>127</gpxtpx:hr>
          </gpxtpx:TrackPointExtension>
        </extensions>
      </trkpt>
      <trkpt lat="46.58573" lon="0.18998">
        <ele>142.80000305176</ele>
        <time>2022-04-17T07:54:53Z</time>
        <extensions>
          <gpxtpx:TrackPointExtension xmlns:gpxtpx="http://www.garmin.com/xmlschemas/TrackPointExtension/v1">
            <gpxtpx:hr>127</gpxtpx:hr>
          </gpxtpx:TrackPointExtension>
        </extensions>
      </trkpt>
      <trkpt lat="46.58554" lon="0.19008">
        <ele>143</ele>
        <time>2022-04-17T07:54:57Z</time>
        <extensions>
          <gpxtpx:TrackPointExtension xmlns:gpxtpx="http://www.garmin.com/xmlschemas/TrackPointExtension/v1">
            <gpxtpx:hr>128</gpxtpx:hr>
          </gpxtpx:TrackPointExtension>
        </extensions>
      </trkpt>
      <trkpt lat="46.58549" lon="0.19011">
        <ele>143</ele>
        <time>2022-04-17T07:54:58Z</time>
        <extensions>
          <gpxtpx:TrackPointExtension xmlns:gpxtpx="http://www.garmin.com/xmlschemas/TrackPointExtension/v1">
            <gpxtpx:hr>129</gpxtpx:hr>
          </gpxtpx:TrackPointExtension>
        </extensions>
      </trkpt>
      <trkpt lat="46.58529" lon="0.19026">
        <ele>143.19999694824</ele>
        <time>2022-04-17T07:55:03Z</time>
        <extensions>
          <gpxtpx:TrackPointExtension xmlns:gpxtpx="http://www.garmin.com/xmlschemas/TrackPointExtension/v1">
            <gpxtpx:hr>128</gpxtpx:hr>
          </gpxtpx:TrackPointExtension>
        </extensions>
      </trkpt>
      <trkpt lat="46.58526" lon="0.19029">
        <ele>143.19999694824</ele>
        <time>2022-04-17T07:55:04Z</time>
        <extensions>
          <gpxtpx:TrackPointExtension xmlns:gpxtpx="http://www.garmin.com/xmlschemas/TrackPointExtension/v1">
            <gpxtpx:hr>127</gpxtpx:hr>
          </gpxtpx:TrackPointExtension>
        </extensions>
      </trkpt>
      <trkpt lat="46.58522" lon="0.19033">
        <ele>143.19999694824</ele>
        <time>2022-04-17T07:55:05Z</time>
        <extensions>
          <gpxtpx:TrackPointExtension xmlns:gpxtpx="http://www.garmin.com/xmlschemas/TrackPointExtension/v1">
            <gpxtpx:hr>128</gpxtpx:hr>
          </gpxtpx:TrackPointExtension>
        </extensions>
      </trkpt>
      <trkpt lat="46.58512" lon="0.19046">
        <ele>143.19999694824</ele>
        <time>2022-04-17T07:55:08Z</time>
        <extensions>
          <gpxtpx:TrackPointExtension xmlns:gpxtpx="http://www.garmin.com/xmlschemas/TrackPointExtension/v1">
            <gpxtpx:hr>126</gpxtpx:hr>
          </gpxtpx:TrackPointExtension>
        </extensions>
      </trkpt>
      <trkpt lat="46.58509" lon="0.19047">
        <ele>143</ele>
        <time>2022-04-17T07:55:09Z</time>
        <extensions>
          <gpxtpx:TrackPointExtension xmlns:gpxtpx="http://www.garmin.com/xmlschemas/TrackPointExtension/v1">
            <gpxtpx:hr>125</gpxtpx:hr>
          </gpxtpx:TrackPointExtension>
        </extensions>
      </trkpt>
      <trkpt lat="46.58506" lon="0.19048">
        <ele>143</ele>
        <time>2022-04-17T07:55:10Z</time>
        <extensions>
          <gpxtpx:TrackPointExtension xmlns:gpxtpx="http://www.garmin.com/xmlschemas/TrackPointExtension/v1">
            <gpxtpx:hr>125</gpxtpx:hr>
          </gpxtpx:TrackPointExtension>
        </extensions>
      </trkpt>
      <trkpt lat="46.58503" lon="0.19051">
        <ele>142.80000305176</ele>
        <time>2022-04-17T07:55:11Z</time>
        <extensions>
          <gpxtpx:TrackPointExtension xmlns:gpxtpx="http://www.garmin.com/xmlschemas/TrackPointExtension/v1">
            <gpxtpx:hr>125</gpxtpx:hr>
          </gpxtpx:TrackPointExtension>
        </extensions>
      </trkpt>
      <trkpt lat="46.585" lon="0.19053">
        <ele>142.80000305176</ele>
        <time>2022-04-17T07:55:12Z</time>
        <extensions>
          <gpxtpx:TrackPointExtension xmlns:gpxtpx="http://www.garmin.com/xmlschemas/TrackPointExtension/v1">
            <gpxtpx:hr>125</gpxtpx:hr>
          </gpxtpx:TrackPointExtension>
        </extensions>
      </trkpt>
      <trkpt lat="46.58492" lon="0.19063">
        <ele>143</ele>
        <time>2022-04-17T07:55:15Z</time>
        <extensions>
          <gpxtpx:TrackPointExtension xmlns:gpxtpx="http://www.garmin.com/xmlschemas/TrackPointExtension/v1">
            <gpxtpx:hr>125</gpxtpx:hr>
          </gpxtpx:TrackPointExtension>
        </extensions>
      </trkpt>
      <trkpt lat="46.58489" lon="0.19066">
        <ele>143</ele>
        <time>2022-04-17T07:55:16Z</time>
        <extensions>
          <gpxtpx:TrackPointExtension xmlns:gpxtpx="http://www.garmin.com/xmlschemas/TrackPointExtension/v1">
            <gpxtpx:hr>125</gpxtpx:hr>
          </gpxtpx:TrackPointExtension>
        </extensions>
      </trkpt>
      <trkpt lat="46.58486" lon="0.19068">
        <ele>143</ele>
        <time>2022-04-17T07:55:17Z</time>
        <extensions>
          <gpxtpx:TrackPointExtension xmlns:gpxtpx="http://www.garmin.com/xmlschemas/TrackPointExtension/v1">
            <gpxtpx:hr>125</gpxtpx:hr>
          </gpxtpx:TrackPointExtension>
        </extensions>
      </trkpt>
      <trkpt lat="46.58484" lon="0.1907">
        <ele>143</ele>
        <time>2022-04-17T07:55:18Z</time>
        <extensions>
          <gpxtpx:TrackPointExtension xmlns:gpxtpx="http://www.garmin.com/xmlschemas/TrackPointExtension/v1">
            <gpxtpx:hr>125</gpxtpx:hr>
          </gpxtpx:TrackPointExtension>
        </extensions>
      </trkpt>
      <trkpt lat="46.58482" lon="0.19071">
        <ele>143</ele>
        <time>2022-04-17T07:55:19Z</time>
        <extensions>
          <gpxtpx:TrackPointExtension xmlns:gpxtpx="http://www.garmin.com/xmlschemas/TrackPointExtension/v1">
            <gpxtpx:hr>124</gpxtpx:hr>
          </gpxtpx:TrackPointExtension>
        </extensions>
      </trkpt>
      <trkpt lat="46.58479" lon="0.19073">
        <ele>142.80000305176</ele>
        <time>2022-04-17T07:55:20Z</time>
        <extensions>
          <gpxtpx:TrackPointExtension xmlns:gpxtpx="http://www.garmin.com/xmlschemas/TrackPointExtension/v1">
            <gpxtpx:hr>124</gpxtpx:hr>
          </gpxtpx:TrackPointExtension>
        </extensions>
      </trkpt>
      <trkpt lat="46.58477" lon="0.19074">
        <ele>142.80000305176</ele>
        <time>2022-04-17T07:55:21Z</time>
        <extensions>
          <gpxtpx:TrackPointExtension xmlns:gpxtpx="http://www.garmin.com/xmlschemas/TrackPointExtension/v1">
            <gpxtpx:hr>124</gpxtpx:hr>
          </gpxtpx:TrackPointExtension>
        </extensions>
      </trkpt>
      <trkpt lat="46.58476" lon="0.19074">
        <ele>143</ele>
        <time>2022-04-17T07:55:22Z</time>
        <extensions>
          <gpxtpx:TrackPointExtension xmlns:gpxtpx="http://www.garmin.com/xmlschemas/TrackPointExtension/v1">
            <gpxtpx:hr>123</gpxtpx:hr>
          </gpxtpx:TrackPointExtension>
        </extensions>
      </trkpt>
      <trkpt lat="46.58474" lon="0.19075">
        <ele>143</ele>
        <time>2022-04-17T07:55:23Z</time>
        <extensions>
          <gpxtpx:TrackPointExtension xmlns:gpxtpx="http://www.garmin.com/xmlschemas/TrackPointExtension/v1">
            <gpxtpx:hr>122</gpxtpx:hr>
          </gpxtpx:TrackPointExtension>
        </extensions>
      </trkpt>
      <trkpt lat="46.58472" lon="0.19075">
        <ele>143</ele>
        <time>2022-04-17T07:55:24Z</time>
        <extensions>
          <gpxtpx:TrackPointExtension xmlns:gpxtpx="http://www.garmin.com/xmlschemas/TrackPointExtension/v1">
            <gpxtpx:hr>121</gpxtpx:hr>
          </gpxtpx:TrackPointExtension>
        </extensions>
      </trkpt>
      <trkpt lat="46.5847" lon="0.19076">
        <ele>143</ele>
        <time>2022-04-17T07:55:25Z</time>
        <extensions>
          <gpxtpx:TrackPointExtension xmlns:gpxtpx="http://www.garmin.com/xmlschemas/TrackPointExtension/v1">
            <gpxtpx:hr>121</gpxtpx:hr>
          </gpxtpx:TrackPointExtension>
        </extensions>
      </trkpt>
      <trkpt lat="46.58467" lon="0.1908">
        <ele>143</ele>
        <time>2022-04-17T07:55:26Z</time>
        <extensions>
          <gpxtpx:TrackPointExtension xmlns:gpxtpx="http://www.garmin.com/xmlschemas/TrackPointExtension/v1">
            <gpxtpx:hr>121</gpxtpx:hr>
          </gpxtpx:TrackPointExtension>
        </extensions>
      </trkpt>
      <trkpt lat="46.58464" lon="0.19085">
        <ele>143</ele>
        <time>2022-04-17T07:55:27Z</time>
        <extensions>
          <gpxtpx:TrackPointExtension xmlns:gpxtpx="http://www.garmin.com/xmlschemas/TrackPointExtension/v1">
            <gpxtpx:hr>121</gpxtpx:hr>
          </gpxtpx:TrackPointExtension>
        </extensions>
      </trkpt>
      <trkpt lat="46.58462" lon="0.1909">
        <ele>143</ele>
        <time>2022-04-17T07:55:28Z</time>
        <extensions>
          <gpxtpx:TrackPointExtension xmlns:gpxtpx="http://www.garmin.com/xmlschemas/TrackPointExtension/v1">
            <gpxtpx:hr>122</gpxtpx:hr>
          </gpxtpx:TrackPointExtension>
        </extensions>
      </trkpt>
      <trkpt lat="46.5846" lon="0.19096">
        <ele>143</ele>
        <time>2022-04-17T07:55:29Z</time>
        <extensions>
          <gpxtpx:TrackPointExtension xmlns:gpxtpx="http://www.garmin.com/xmlschemas/TrackPointExtension/v1">
            <gpxtpx:hr>123</gpxtpx:hr>
          </gpxtpx:TrackPointExtension>
        </extensions>
      </trkpt>
      <trkpt lat="46.58458" lon="0.19103">
        <ele>143</ele>
        <time>2022-04-17T07:55:30Z</time>
        <extensions>
          <gpxtpx:TrackPointExtension xmlns:gpxtpx="http://www.garmin.com/xmlschemas/TrackPointExtension/v1">
            <gpxtpx:hr>124</gpxtpx:hr>
          </gpxtpx:TrackPointExtension>
        </extensions>
      </trkpt>
      <trkpt lat="46.58456" lon="0.19122">
        <ele>143</ele>
        <time>2022-04-17T07:55:33Z</time>
        <extensions>
          <gpxtpx:TrackPointExtension xmlns:gpxtpx="http://www.garmin.com/xmlschemas/TrackPointExtension/v1">
            <gpxtpx:hr>124</gpxtpx:hr>
          </gpxtpx:TrackPointExtension>
        </extensions>
      </trkpt>
      <trkpt lat="46.58456" lon="0.19129">
        <ele>143</ele>
        <time>2022-04-17T07:55:34Z</time>
        <extensions>
          <gpxtpx:TrackPointExtension xmlns:gpxtpx="http://www.garmin.com/xmlschemas/TrackPointExtension/v1">
            <gpxtpx:hr>124</gpxtpx:hr>
          </gpxtpx:TrackPointExtension>
        </extensions>
      </trkpt>
      <trkpt lat="46.58456" lon="0.19135">
        <ele>143</ele>
        <time>2022-04-17T07:55:35Z</time>
        <extensions>
          <gpxtpx:TrackPointExtension xmlns:gpxtpx="http://www.garmin.com/xmlschemas/TrackPointExtension/v1">
            <gpxtpx:hr>124</gpxtpx:hr>
          </gpxtpx:TrackPointExtension>
        </extensions>
      </trkpt>
      <trkpt lat="46.58456" lon="0.19139">
        <ele>142.80000305176</ele>
        <time>2022-04-17T07:55:36Z</time>
        <extensions>
          <gpxtpx:TrackPointExtension xmlns:gpxtpx="http://www.garmin.com/xmlschemas/TrackPointExtension/v1">
            <gpxtpx:hr>124</gpxtpx:hr>
          </gpxtpx:TrackPointExtension>
        </extensions>
      </trkpt>
      <trkpt lat="46.58456" lon="0.19143">
        <ele>142.80000305176</ele>
        <time>2022-04-17T07:55:37Z</time>
        <extensions>
          <gpxtpx:TrackPointExtension xmlns:gpxtpx="http://www.garmin.com/xmlschemas/TrackPointExtension/v1">
            <gpxtpx:hr>123</gpxtpx:hr>
          </gpxtpx:TrackPointExtension>
        </extensions>
      </trkpt>
      <trkpt lat="46.58456" lon="0.19146">
        <ele>142.80000305176</ele>
        <time>2022-04-17T07:55:38Z</time>
        <extensions>
          <gpxtpx:TrackPointExtension xmlns:gpxtpx="http://www.garmin.com/xmlschemas/TrackPointExtension/v1">
            <gpxtpx:hr>123</gpxtpx:hr>
          </gpxtpx:TrackPointExtension>
        </extensions>
      </trkpt>
      <trkpt lat="46.58455" lon="0.19148">
        <ele>142.80000305176</ele>
        <time>2022-04-17T07:55:39Z</time>
        <extensions>
          <gpxtpx:TrackPointExtension xmlns:gpxtpx="http://www.garmin.com/xmlschemas/TrackPointExtension/v1">
            <gpxtpx:hr>122</gpxtpx:hr>
          </gpxtpx:TrackPointExtension>
        </extensions>
      </trkpt>
      <trkpt lat="46.58455" lon="0.19149">
        <ele>142.80000305176</ele>
        <time>2022-04-17T07:55:40Z</time>
        <extensions>
          <gpxtpx:TrackPointExtension xmlns:gpxtpx="http://www.garmin.com/xmlschemas/TrackPointExtension/v1">
            <gpxtpx:hr>123</gpxtpx:hr>
          </gpxtpx:TrackPointExtension>
        </extensions>
      </trkpt>
      <trkpt lat="46.58451" lon="0.19156">
        <ele>142.80000305176</ele>
        <time>2022-04-17T07:55:42Z</time>
        <extensions>
          <gpxtpx:TrackPointExtension xmlns:gpxtpx="http://www.garmin.com/xmlschemas/TrackPointExtension/v1">
            <gpxtpx:hr>123</gpxtpx:hr>
          </gpxtpx:TrackPointExtension>
        </extensions>
      </trkpt>
      <trkpt lat="46.58449" lon="0.19161">
        <ele>142.80000305176</ele>
        <time>2022-04-17T07:55:43Z</time>
        <extensions>
          <gpxtpx:TrackPointExtension xmlns:gpxtpx="http://www.garmin.com/xmlschemas/TrackPointExtension/v1">
            <gpxtpx:hr>123</gpxtpx:hr>
          </gpxtpx:TrackPointExtension>
        </extensions>
      </trkpt>
      <trkpt lat="46.58447" lon="0.19165">
        <ele>142.80000305176</ele>
        <time>2022-04-17T07:55:44Z</time>
        <extensions>
          <gpxtpx:TrackPointExtension xmlns:gpxtpx="http://www.garmin.com/xmlschemas/TrackPointExtension/v1">
            <gpxtpx:hr>123</gpxtpx:hr>
          </gpxtpx:TrackPointExtension>
        </extensions>
      </trkpt>
      <trkpt lat="46.58442" lon="0.19172">
        <ele>142.80000305176</ele>
        <time>2022-04-17T07:55:46Z</time>
        <extensions>
          <gpxtpx:TrackPointExtension xmlns:gpxtpx="http://www.garmin.com/xmlschemas/TrackPointExtension/v1">
            <gpxtpx:hr>124</gpxtpx:hr>
          </gpxtpx:TrackPointExtension>
        </extensions>
      </trkpt>
      <trkpt lat="46.5844" lon="0.19175">
        <ele>142.80000305176</ele>
        <time>2022-04-17T07:55:47Z</time>
        <extensions>
          <gpxtpx:TrackPointExtension xmlns:gpxtpx="http://www.garmin.com/xmlschemas/TrackPointExtension/v1">
            <gpxtpx:hr>124</gpxtpx:hr>
          </gpxtpx:TrackPointExtension>
        </extensions>
      </trkpt>
      <trkpt lat="46.58435" lon="0.19187">
        <ele>143</ele>
        <time>2022-04-17T07:55:50Z</time>
        <extensions>
          <gpxtpx:TrackPointExtension xmlns:gpxtpx="http://www.garmin.com/xmlschemas/TrackPointExtension/v1">
            <gpxtpx:hr>124</gpxtpx:hr>
          </gpxtpx:TrackPointExtension>
        </extensions>
      </trkpt>
      <trkpt lat="46.58433" lon="0.1919">
        <ele>143</ele>
        <time>2022-04-17T07:55:51Z</time>
        <extensions>
          <gpxtpx:TrackPointExtension xmlns:gpxtpx="http://www.garmin.com/xmlschemas/TrackPointExtension/v1">
            <gpxtpx:hr>125</gpxtpx:hr>
          </gpxtpx:TrackPointExtension>
        </extensions>
      </trkpt>
      <trkpt lat="46.58431" lon="0.19194">
        <ele>143.19999694824</ele>
        <time>2022-04-17T07:55:52Z</time>
        <extensions>
          <gpxtpx:TrackPointExtension xmlns:gpxtpx="http://www.garmin.com/xmlschemas/TrackPointExtension/v1">
            <gpxtpx:hr>125</gpxtpx:hr>
          </gpxtpx:TrackPointExtension>
        </extensions>
      </trkpt>
      <trkpt lat="46.58429" lon="0.19198">
        <ele>143.19999694824</ele>
        <time>2022-04-17T07:55:53Z</time>
        <extensions>
          <gpxtpx:TrackPointExtension xmlns:gpxtpx="http://www.garmin.com/xmlschemas/TrackPointExtension/v1">
            <gpxtpx:hr>125</gpxtpx:hr>
          </gpxtpx:TrackPointExtension>
        </extensions>
      </trkpt>
      <trkpt lat="46.58427" lon="0.19203">
        <ele>143.39999389648</ele>
        <time>2022-04-17T07:55:54Z</time>
        <extensions>
          <gpxtpx:TrackPointExtension xmlns:gpxtpx="http://www.garmin.com/xmlschemas/TrackPointExtension/v1">
            <gpxtpx:hr>125</gpxtpx:hr>
          </gpxtpx:TrackPointExtension>
        </extensions>
      </trkpt>
      <trkpt lat="46.58425" lon="0.19207">
        <ele>143.39999389648</ele>
        <time>2022-04-17T07:55:55Z</time>
        <extensions>
          <gpxtpx:TrackPointExtension xmlns:gpxtpx="http://www.garmin.com/xmlschemas/TrackPointExtension/v1">
            <gpxtpx:hr>124</gpxtpx:hr>
          </gpxtpx:TrackPointExtension>
        </extensions>
      </trkpt>
      <trkpt lat="46.58419" lon="0.19222">
        <ele>143.80000305176</ele>
        <time>2022-04-17T07:55:58Z</time>
        <extensions>
          <gpxtpx:TrackPointExtension xmlns:gpxtpx="http://www.garmin.com/xmlschemas/TrackPointExtension/v1">
            <gpxtpx:hr>123</gpxtpx:hr>
          </gpxtpx:TrackPointExtension>
        </extensions>
      </trkpt>
      <trkpt lat="46.58417" lon="0.19226">
        <ele>144</ele>
        <time>2022-04-17T07:55:59Z</time>
        <extensions>
          <gpxtpx:TrackPointExtension xmlns:gpxtpx="http://www.garmin.com/xmlschemas/TrackPointExtension/v1">
            <gpxtpx:hr>125</gpxtpx:hr>
          </gpxtpx:TrackPointExtension>
        </extensions>
      </trkpt>
      <trkpt lat="46.58415" lon="0.19232">
        <ele>144</ele>
        <time>2022-04-17T07:56:00Z</time>
        <extensions>
          <gpxtpx:TrackPointExtension xmlns:gpxtpx="http://www.garmin.com/xmlschemas/TrackPointExtension/v1">
            <gpxtpx:hr>125</gpxtpx:hr>
          </gpxtpx:TrackPointExtension>
        </extensions>
      </trkpt>
      <trkpt lat="46.58409" lon="0.19248">
        <ele>144</ele>
        <time>2022-04-17T07:56:04Z</time>
        <extensions>
          <gpxtpx:TrackPointExtension xmlns:gpxtpx="http://www.garmin.com/xmlschemas/TrackPointExtension/v1">
            <gpxtpx:hr>125</gpxtpx:hr>
          </gpxtpx:TrackPointExtension>
        </extensions>
      </trkpt>
      <trkpt lat="46.58407" lon="0.19252">
        <ele>144</ele>
        <time>2022-04-17T07:56:05Z</time>
        <extensions>
          <gpxtpx:TrackPointExtension xmlns:gpxtpx="http://www.garmin.com/xmlschemas/TrackPointExtension/v1">
            <gpxtpx:hr>126</gpxtpx:hr>
          </gpxtpx:TrackPointExtension>
        </extensions>
      </trkpt>
      <trkpt lat="46.58404" lon="0.19257">
        <ele>144.19999694824</ele>
        <time>2022-04-17T07:56:06Z</time>
        <extensions>
          <gpxtpx:TrackPointExtension xmlns:gpxtpx="http://www.garmin.com/xmlschemas/TrackPointExtension/v1">
            <gpxtpx:hr>126</gpxtpx:hr>
          </gpxtpx:TrackPointExtension>
        </extensions>
      </trkpt>
      <trkpt lat="46.58402" lon="0.19262">
        <ele>144.19999694824</ele>
        <time>2022-04-17T07:56:07Z</time>
        <extensions>
          <gpxtpx:TrackPointExtension xmlns:gpxtpx="http://www.garmin.com/xmlschemas/TrackPointExtension/v1">
            <gpxtpx:hr>127</gpxtpx:hr>
          </gpxtpx:TrackPointExtension>
        </extensions>
      </trkpt>
      <trkpt lat="46.58399" lon="0.19267">
        <ele>144.19999694824</ele>
        <time>2022-04-17T07:56:08Z</time>
        <extensions>
          <gpxtpx:TrackPointExtension xmlns:gpxtpx="http://www.garmin.com/xmlschemas/TrackPointExtension/v1">
            <gpxtpx:hr>128</gpxtpx:hr>
          </gpxtpx:TrackPointExtension>
        </extensions>
      </trkpt>
      <trkpt lat="46.58397" lon="0.19273">
        <ele>144.19999694824</ele>
        <time>2022-04-17T07:56:09Z</time>
        <extensions>
          <gpxtpx:TrackPointExtension xmlns:gpxtpx="http://www.garmin.com/xmlschemas/TrackPointExtension/v1">
            <gpxtpx:hr>128</gpxtpx:hr>
          </gpxtpx:TrackPointExtension>
        </extensions>
      </trkpt>
      <trkpt lat="46.58395" lon="0.19278">
        <ele>144.39999389648</ele>
        <time>2022-04-17T07:56:10Z</time>
        <extensions>
          <gpxtpx:TrackPointExtension xmlns:gpxtpx="http://www.garmin.com/xmlschemas/TrackPointExtension/v1">
            <gpxtpx:hr>128</gpxtpx:hr>
          </gpxtpx:TrackPointExtension>
        </extensions>
      </trkpt>
      <trkpt lat="46.58392" lon="0.19284">
        <ele>144.39999389648</ele>
        <time>2022-04-17T07:56:11Z</time>
        <extensions>
          <gpxtpx:TrackPointExtension xmlns:gpxtpx="http://www.garmin.com/xmlschemas/TrackPointExtension/v1">
            <gpxtpx:hr>128</gpxtpx:hr>
          </gpxtpx:TrackPointExtension>
        </extensions>
      </trkpt>
      <trkpt lat="46.58389" lon="0.1929">
        <ele>144.39999389648</ele>
        <time>2022-04-17T07:56:12Z</time>
        <extensions>
          <gpxtpx:TrackPointExtension xmlns:gpxtpx="http://www.garmin.com/xmlschemas/TrackPointExtension/v1">
            <gpxtpx:hr>128</gpxtpx:hr>
          </gpxtpx:TrackPointExtension>
        </extensions>
      </trkpt>
      <trkpt lat="46.5838" lon="0.19311">
        <ele>144.60000610352</ele>
        <time>2022-04-17T07:56:15Z</time>
        <extensions>
          <gpxtpx:TrackPointExtension xmlns:gpxtpx="http://www.garmin.com/xmlschemas/TrackPointExtension/v1">
            <gpxtpx:hr>127</gpxtpx:hr>
          </gpxtpx:TrackPointExtension>
        </extensions>
      </trkpt>
      <trkpt lat="46.58372" lon="0.19329">
        <ele>144.80000305176</ele>
        <time>2022-04-17T07:56:18Z</time>
        <extensions>
          <gpxtpx:TrackPointExtension xmlns:gpxtpx="http://www.garmin.com/xmlschemas/TrackPointExtension/v1">
            <gpxtpx:hr>127</gpxtpx:hr>
          </gpxtpx:TrackPointExtension>
        </extensions>
      </trkpt>
      <trkpt lat="46.58356" lon="0.19366">
        <ele>145.39999389648</ele>
        <time>2022-04-17T07:56:24Z</time>
        <extensions>
          <gpxtpx:TrackPointExtension xmlns:gpxtpx="http://www.garmin.com/xmlschemas/TrackPointExtension/v1">
            <gpxtpx:hr>127</gpxtpx:hr>
          </gpxtpx:TrackPointExtension>
        </extensions>
      </trkpt>
      <trkpt lat="46.58346" lon="0.19382">
        <ele>145.60000610352</ele>
        <time>2022-04-17T07:56:27Z</time>
        <extensions>
          <gpxtpx:TrackPointExtension xmlns:gpxtpx="http://www.garmin.com/xmlschemas/TrackPointExtension/v1">
            <gpxtpx:hr>129</gpxtpx:hr>
          </gpxtpx:TrackPointExtension>
        </extensions>
      </trkpt>
      <trkpt lat="46.58343" lon="0.19388">
        <ele>145.60000610352</ele>
        <time>2022-04-17T07:56:28Z</time>
        <extensions>
          <gpxtpx:TrackPointExtension xmlns:gpxtpx="http://www.garmin.com/xmlschemas/TrackPointExtension/v1">
            <gpxtpx:hr>129</gpxtpx:hr>
          </gpxtpx:TrackPointExtension>
        </extensions>
      </trkpt>
      <trkpt lat="46.58337" lon="0.194">
        <ele>145.80000305176</ele>
        <time>2022-04-17T07:56:30Z</time>
        <extensions>
          <gpxtpx:TrackPointExtension xmlns:gpxtpx="http://www.garmin.com/xmlschemas/TrackPointExtension/v1">
            <gpxtpx:hr>130</gpxtpx:hr>
          </gpxtpx:TrackPointExtension>
        </extensions>
      </trkpt>
      <trkpt lat="46.58333" lon="0.19406">
        <ele>145.80000305176</ele>
        <time>2022-04-17T07:56:31Z</time>
        <extensions>
          <gpxtpx:TrackPointExtension xmlns:gpxtpx="http://www.garmin.com/xmlschemas/TrackPointExtension/v1">
            <gpxtpx:hr>130</gpxtpx:hr>
          </gpxtpx:TrackPointExtension>
        </extensions>
      </trkpt>
      <trkpt lat="46.58331" lon="0.19411">
        <ele>145.80000305176</ele>
        <time>2022-04-17T07:56:32Z</time>
        <extensions>
          <gpxtpx:TrackPointExtension xmlns:gpxtpx="http://www.garmin.com/xmlschemas/TrackPointExtension/v1">
            <gpxtpx:hr>130</gpxtpx:hr>
          </gpxtpx:TrackPointExtension>
        </extensions>
      </trkpt>
      <trkpt lat="46.58328" lon="0.19415">
        <ele>145.80000305176</ele>
        <time>2022-04-17T07:56:33Z</time>
        <extensions>
          <gpxtpx:TrackPointExtension xmlns:gpxtpx="http://www.garmin.com/xmlschemas/TrackPointExtension/v1">
            <gpxtpx:hr>131</gpxtpx:hr>
          </gpxtpx:TrackPointExtension>
        </extensions>
      </trkpt>
      <trkpt lat="46.58326" lon="0.19419">
        <ele>145.80000305176</ele>
        <time>2022-04-17T07:56:34Z</time>
        <extensions>
          <gpxtpx:TrackPointExtension xmlns:gpxtpx="http://www.garmin.com/xmlschemas/TrackPointExtension/v1">
            <gpxtpx:hr>134</gpxtpx:hr>
          </gpxtpx:TrackPointExtension>
        </extensions>
      </trkpt>
      <trkpt lat="46.58323" lon="0.19424">
        <ele>146</ele>
        <time>2022-04-17T07:56:35Z</time>
        <extensions>
          <gpxtpx:TrackPointExtension xmlns:gpxtpx="http://www.garmin.com/xmlschemas/TrackPointExtension/v1">
            <gpxtpx:hr>134</gpxtpx:hr>
          </gpxtpx:TrackPointExtension>
        </extensions>
      </trkpt>
      <trkpt lat="46.58315" lon="0.1944">
        <ele>146</ele>
        <time>2022-04-17T07:56:38Z</time>
        <extensions>
          <gpxtpx:TrackPointExtension xmlns:gpxtpx="http://www.garmin.com/xmlschemas/TrackPointExtension/v1">
            <gpxtpx:hr>132</gpxtpx:hr>
          </gpxtpx:TrackPointExtension>
        </extensions>
      </trkpt>
      <trkpt lat="46.58311" lon="0.19449">
        <ele>145.80000305176</ele>
        <time>2022-04-17T07:56:40Z</time>
        <extensions>
          <gpxtpx:TrackPointExtension xmlns:gpxtpx="http://www.garmin.com/xmlschemas/TrackPointExtension/v1">
            <gpxtpx:hr>131</gpxtpx:hr>
          </gpxtpx:TrackPointExtension>
        </extensions>
      </trkpt>
      <trkpt lat="46.58309" lon="0.19453">
        <ele>145.80000305176</ele>
        <time>2022-04-17T07:56:41Z</time>
        <extensions>
          <gpxtpx:TrackPointExtension xmlns:gpxtpx="http://www.garmin.com/xmlschemas/TrackPointExtension/v1">
            <gpxtpx:hr>131</gpxtpx:hr>
          </gpxtpx:TrackPointExtension>
        </extensions>
      </trkpt>
      <trkpt lat="46.58306" lon="0.19458">
        <ele>146</ele>
        <time>2022-04-17T07:56:42Z</time>
        <extensions>
          <gpxtpx:TrackPointExtension xmlns:gpxtpx="http://www.garmin.com/xmlschemas/TrackPointExtension/v1">
            <gpxtpx:hr>131</gpxtpx:hr>
          </gpxtpx:TrackPointExtension>
        </extensions>
      </trkpt>
      <trkpt lat="46.58297" lon="0.19473">
        <ele>146.19999694824</ele>
        <time>2022-04-17T07:56:46Z</time>
        <extensions>
          <gpxtpx:TrackPointExtension xmlns:gpxtpx="http://www.garmin.com/xmlschemas/TrackPointExtension/v1">
            <gpxtpx:hr>131</gpxtpx:hr>
          </gpxtpx:TrackPointExtension>
        </extensions>
      </trkpt>
      <trkpt lat="46.58296" lon="0.19476">
        <ele>146.19999694824</ele>
        <time>2022-04-17T07:56:47Z</time>
        <extensions>
          <gpxtpx:TrackPointExtension xmlns:gpxtpx="http://www.garmin.com/xmlschemas/TrackPointExtension/v1">
            <gpxtpx:hr>131</gpxtpx:hr>
          </gpxtpx:TrackPointExtension>
        </extensions>
      </trkpt>
      <trkpt lat="46.58294" lon="0.19479">
        <ele>146.19999694824</ele>
        <time>2022-04-17T07:56:48Z</time>
        <extensions>
          <gpxtpx:TrackPointExtension xmlns:gpxtpx="http://www.garmin.com/xmlschemas/TrackPointExtension/v1">
            <gpxtpx:hr>131</gpxtpx:hr>
          </gpxtpx:TrackPointExtension>
        </extensions>
      </trkpt>
      <trkpt lat="46.58293" lon="0.19482">
        <ele>146.19999694824</ele>
        <time>2022-04-17T07:56:49Z</time>
        <extensions>
          <gpxtpx:TrackPointExtension xmlns:gpxtpx="http://www.garmin.com/xmlschemas/TrackPointExtension/v1">
            <gpxtpx:hr>130</gpxtpx:hr>
          </gpxtpx:TrackPointExtension>
        </extensions>
      </trkpt>
      <trkpt lat="46.58291" lon="0.19486">
        <ele>146.19999694824</ele>
        <time>2022-04-17T07:56:50Z</time>
        <extensions>
          <gpxtpx:TrackPointExtension xmlns:gpxtpx="http://www.garmin.com/xmlschemas/TrackPointExtension/v1">
            <gpxtpx:hr>130</gpxtpx:hr>
          </gpxtpx:TrackPointExtension>
        </extensions>
      </trkpt>
      <trkpt lat="46.58289" lon="0.19489">
        <ele>146.39999389648</ele>
        <time>2022-04-17T07:56:51Z</time>
        <extensions>
          <gpxtpx:TrackPointExtension xmlns:gpxtpx="http://www.garmin.com/xmlschemas/TrackPointExtension/v1">
            <gpxtpx:hr>127</gpxtpx:hr>
          </gpxtpx:TrackPointExtension>
        </extensions>
      </trkpt>
      <trkpt lat="46.58279" lon="0.19502">
        <ele>146.60000610352</ele>
        <time>2022-04-17T07:56:55Z</time>
        <extensions>
          <gpxtpx:TrackPointExtension xmlns:gpxtpx="http://www.garmin.com/xmlschemas/TrackPointExtension/v1">
            <gpxtpx:hr>125</gpxtpx:hr>
          </gpxtpx:TrackPointExtension>
        </extensions>
      </trkpt>
      <trkpt lat="46.58273" lon="0.19506">
        <ele>146.60000610352</ele>
        <time>2022-04-17T07:56:57Z</time>
        <extensions>
          <gpxtpx:TrackPointExtension xmlns:gpxtpx="http://www.garmin.com/xmlschemas/TrackPointExtension/v1">
            <gpxtpx:hr>125</gpxtpx:hr>
          </gpxtpx:TrackPointExtension>
        </extensions>
      </trkpt>
      <trkpt lat="46.5827" lon="0.19507">
        <ele>146.60000610352</ele>
        <time>2022-04-17T07:56:58Z</time>
        <extensions>
          <gpxtpx:TrackPointExtension xmlns:gpxtpx="http://www.garmin.com/xmlschemas/TrackPointExtension/v1">
            <gpxtpx:hr>125</gpxtpx:hr>
          </gpxtpx:TrackPointExtension>
        </extensions>
      </trkpt>
      <trkpt lat="46.58266" lon="0.19509">
        <ele>146.60000610352</ele>
        <time>2022-04-17T07:56:59Z</time>
        <extensions>
          <gpxtpx:TrackPointExtension xmlns:gpxtpx="http://www.garmin.com/xmlschemas/TrackPointExtension/v1">
            <gpxtpx:hr>125</gpxtpx:hr>
          </gpxtpx:TrackPointExtension>
        </extensions>
      </trkpt>
      <trkpt lat="46.58248" lon="0.19525">
        <ele>146.39999389648</ele>
        <time>2022-04-17T07:57:04Z</time>
        <extensions>
          <gpxtpx:TrackPointExtension xmlns:gpxtpx="http://www.garmin.com/xmlschemas/TrackPointExtension/v1">
            <gpxtpx:hr>124</gpxtpx:hr>
          </gpxtpx:TrackPointExtension>
        </extensions>
      </trkpt>
      <trkpt lat="46.58245" lon="0.19528">
        <ele>146.60000610352</ele>
        <time>2022-04-17T07:57:05Z</time>
        <extensions>
          <gpxtpx:TrackPointExtension xmlns:gpxtpx="http://www.garmin.com/xmlschemas/TrackPointExtension/v1">
            <gpxtpx:hr>124</gpxtpx:hr>
          </gpxtpx:TrackPointExtension>
        </extensions>
      </trkpt>
      <trkpt lat="46.58243" lon="0.19531">
        <ele>146.60000610352</ele>
        <time>2022-04-17T07:57:06Z</time>
        <extensions>
          <gpxtpx:TrackPointExtension xmlns:gpxtpx="http://www.garmin.com/xmlschemas/TrackPointExtension/v1">
            <gpxtpx:hr>123</gpxtpx:hr>
          </gpxtpx:TrackPointExtension>
        </extensions>
      </trkpt>
      <trkpt lat="46.58241" lon="0.19534">
        <ele>146.60000610352</ele>
        <time>2022-04-17T07:57:07Z</time>
        <extensions>
          <gpxtpx:TrackPointExtension xmlns:gpxtpx="http://www.garmin.com/xmlschemas/TrackPointExtension/v1">
            <gpxtpx:hr>123</gpxtpx:hr>
          </gpxtpx:TrackPointExtension>
        </extensions>
      </trkpt>
      <trkpt lat="46.58239" lon="0.19538">
        <ele>146.60000610352</ele>
        <time>2022-04-17T07:57:08Z</time>
        <extensions>
          <gpxtpx:TrackPointExtension xmlns:gpxtpx="http://www.garmin.com/xmlschemas/TrackPointExtension/v1">
            <gpxtpx:hr>123</gpxtpx:hr>
          </gpxtpx:TrackPointExtension>
        </extensions>
      </trkpt>
      <trkpt lat="46.58224" lon="0.19556">
        <ele>146.60000610352</ele>
        <time>2022-04-17T07:57:12Z</time>
        <extensions>
          <gpxtpx:TrackPointExtension xmlns:gpxtpx="http://www.garmin.com/xmlschemas/TrackPointExtension/v1">
            <gpxtpx:hr>124</gpxtpx:hr>
          </gpxtpx:TrackPointExtension>
        </extensions>
      </trkpt>
      <trkpt lat="46.5822" lon="0.19561">
        <ele>146.80000305176</ele>
        <time>2022-04-17T07:57:13Z</time>
        <extensions>
          <gpxtpx:TrackPointExtension xmlns:gpxtpx="http://www.garmin.com/xmlschemas/TrackPointExtension/v1">
            <gpxtpx:hr>124</gpxtpx:hr>
          </gpxtpx:TrackPointExtension>
        </extensions>
      </trkpt>
      <trkpt lat="46.58208" lon="0.19576">
        <ele>147</ele>
        <time>2022-04-17T07:57:16Z</time>
        <extensions>
          <gpxtpx:TrackPointExtension xmlns:gpxtpx="http://www.garmin.com/xmlschemas/TrackPointExtension/v1">
            <gpxtpx:hr>122</gpxtpx:hr>
          </gpxtpx:TrackPointExtension>
        </extensions>
      </trkpt>
      <trkpt lat="46.58194" lon="0.1959">
        <ele>147.19999694824</ele>
        <time>2022-04-17T07:57:19Z</time>
        <extensions>
          <gpxtpx:TrackPointExtension xmlns:gpxtpx="http://www.garmin.com/xmlschemas/TrackPointExtension/v1">
            <gpxtpx:hr>121</gpxtpx:hr>
          </gpxtpx:TrackPointExtension>
        </extensions>
      </trkpt>
      <trkpt lat="46.58171" lon="0.19609">
        <ele>147.39999389648</ele>
        <time>2022-04-17T07:57:24Z</time>
        <extensions>
          <gpxtpx:TrackPointExtension xmlns:gpxtpx="http://www.garmin.com/xmlschemas/TrackPointExtension/v1">
            <gpxtpx:hr>125</gpxtpx:hr>
          </gpxtpx:TrackPointExtension>
        </extensions>
      </trkpt>
      <trkpt lat="46.58167" lon="0.19613">
        <ele>147.39999389648</ele>
        <time>2022-04-17T07:57:25Z</time>
        <extensions>
          <gpxtpx:TrackPointExtension xmlns:gpxtpx="http://www.garmin.com/xmlschemas/TrackPointExtension/v1">
            <gpxtpx:hr>125</gpxtpx:hr>
          </gpxtpx:TrackPointExtension>
        </extensions>
      </trkpt>
      <trkpt lat="46.58162" lon="0.19618">
        <ele>147.60000610352</ele>
        <time>2022-04-17T07:57:26Z</time>
        <extensions>
          <gpxtpx:TrackPointExtension xmlns:gpxtpx="http://www.garmin.com/xmlschemas/TrackPointExtension/v1">
            <gpxtpx:hr>127</gpxtpx:hr>
          </gpxtpx:TrackPointExtension>
        </extensions>
      </trkpt>
      <trkpt lat="46.58147" lon="0.19636">
        <ele>147.39999389648</ele>
        <time>2022-04-17T07:57:30Z</time>
        <extensions>
          <gpxtpx:TrackPointExtension xmlns:gpxtpx="http://www.garmin.com/xmlschemas/TrackPointExtension/v1">
            <gpxtpx:hr>129</gpxtpx:hr>
          </gpxtpx:TrackPointExtension>
        </extensions>
      </trkpt>
      <trkpt lat="46.58144" lon="0.19641">
        <ele>147.39999389648</ele>
        <time>2022-04-17T07:57:31Z</time>
        <extensions>
          <gpxtpx:TrackPointExtension xmlns:gpxtpx="http://www.garmin.com/xmlschemas/TrackPointExtension/v1">
            <gpxtpx:hr>130</gpxtpx:hr>
          </gpxtpx:TrackPointExtension>
        </extensions>
      </trkpt>
      <trkpt lat="46.58141" lon="0.19648">
        <ele>147</ele>
        <time>2022-04-17T07:57:32Z</time>
        <extensions>
          <gpxtpx:TrackPointExtension xmlns:gpxtpx="http://www.garmin.com/xmlschemas/TrackPointExtension/v1">
            <gpxtpx:hr>131</gpxtpx:hr>
          </gpxtpx:TrackPointExtension>
        </extensions>
      </trkpt>
      <trkpt lat="46.58138" lon="0.19654">
        <ele>147</ele>
        <time>2022-04-17T07:57:33Z</time>
        <extensions>
          <gpxtpx:TrackPointExtension xmlns:gpxtpx="http://www.garmin.com/xmlschemas/TrackPointExtension/v1">
            <gpxtpx:hr>131</gpxtpx:hr>
          </gpxtpx:TrackPointExtension>
        </extensions>
      </trkpt>
      <trkpt lat="46.58136" lon="0.1966">
        <ele>147</ele>
        <time>2022-04-17T07:57:34Z</time>
        <extensions>
          <gpxtpx:TrackPointExtension xmlns:gpxtpx="http://www.garmin.com/xmlschemas/TrackPointExtension/v1">
            <gpxtpx:hr>131</gpxtpx:hr>
          </gpxtpx:TrackPointExtension>
        </extensions>
      </trkpt>
      <trkpt lat="46.58129" lon="0.19689">
        <ele>147.19999694824</ele>
        <time>2022-04-17T07:57:38Z</time>
        <extensions>
          <gpxtpx:TrackPointExtension xmlns:gpxtpx="http://www.garmin.com/xmlschemas/TrackPointExtension/v1">
            <gpxtpx:hr>131</gpxtpx:hr>
          </gpxtpx:TrackPointExtension>
        </extensions>
      </trkpt>
      <trkpt lat="46.58126" lon="0.19702">
        <ele>147.60000610352</ele>
        <time>2022-04-17T07:57:40Z</time>
        <extensions>
          <gpxtpx:TrackPointExtension xmlns:gpxtpx="http://www.garmin.com/xmlschemas/TrackPointExtension/v1">
            <gpxtpx:hr>132</gpxtpx:hr>
          </gpxtpx:TrackPointExtension>
        </extensions>
      </trkpt>
      <trkpt lat="46.58125" lon="0.19709">
        <ele>147.60000610352</ele>
        <time>2022-04-17T07:57:41Z</time>
        <extensions>
          <gpxtpx:TrackPointExtension xmlns:gpxtpx="http://www.garmin.com/xmlschemas/TrackPointExtension/v1">
            <gpxtpx:hr>132</gpxtpx:hr>
          </gpxtpx:TrackPointExtension>
        </extensions>
      </trkpt>
      <trkpt lat="46.58124" lon="0.19715">
        <ele>147.60000610352</ele>
        <time>2022-04-17T07:57:42Z</time>
        <extensions>
          <gpxtpx:TrackPointExtension xmlns:gpxtpx="http://www.garmin.com/xmlschemas/TrackPointExtension/v1">
            <gpxtpx:hr>133</gpxtpx:hr>
          </gpxtpx:TrackPointExtension>
        </extensions>
      </trkpt>
      <trkpt lat="46.58122" lon="0.19722">
        <ele>147.60000610352</ele>
        <time>2022-04-17T07:57:43Z</time>
        <extensions>
          <gpxtpx:TrackPointExtension xmlns:gpxtpx="http://www.garmin.com/xmlschemas/TrackPointExtension/v1">
            <gpxtpx:hr>133</gpxtpx:hr>
          </gpxtpx:TrackPointExtension>
        </extensions>
      </trkpt>
      <trkpt lat="46.58102" lon="0.19761">
        <ele>147.60000610352</ele>
        <time>2022-04-17T07:57:49Z</time>
        <extensions>
          <gpxtpx:TrackPointExtension xmlns:gpxtpx="http://www.garmin.com/xmlschemas/TrackPointExtension/v1">
            <gpxtpx:hr>132</gpxtpx:hr>
          </gpxtpx:TrackPointExtension>
        </extensions>
      </trkpt>
      <trkpt lat="46.58091" lon="0.19775">
        <ele>147.39999389648</ele>
        <time>2022-04-17T07:57:52Z</time>
        <extensions>
          <gpxtpx:TrackPointExtension xmlns:gpxtpx="http://www.garmin.com/xmlschemas/TrackPointExtension/v1">
            <gpxtpx:hr>133</gpxtpx:hr>
          </gpxtpx:TrackPointExtension>
        </extensions>
      </trkpt>
      <trkpt lat="46.58083" lon="0.19783">
        <ele>147.60000610352</ele>
        <time>2022-04-17T07:57:54Z</time>
        <extensions>
          <gpxtpx:TrackPointExtension xmlns:gpxtpx="http://www.garmin.com/xmlschemas/TrackPointExtension/v1">
            <gpxtpx:hr>134</gpxtpx:hr>
          </gpxtpx:TrackPointExtension>
        </extensions>
      </trkpt>
      <trkpt lat="46.58074" lon="0.19791">
        <ele>147.60000610352</ele>
        <time>2022-04-17T07:57:56Z</time>
        <extensions>
          <gpxtpx:TrackPointExtension xmlns:gpxtpx="http://www.garmin.com/xmlschemas/TrackPointExtension/v1">
            <gpxtpx:hr>133</gpxtpx:hr>
          </gpxtpx:TrackPointExtension>
        </extensions>
      </trkpt>
      <trkpt lat="46.5807" lon="0.19797">
        <ele>147.60000610352</ele>
        <time>2022-04-17T07:57:57Z</time>
        <extensions>
          <gpxtpx:TrackPointExtension xmlns:gpxtpx="http://www.garmin.com/xmlschemas/TrackPointExtension/v1">
            <gpxtpx:hr>132</gpxtpx:hr>
          </gpxtpx:TrackPointExtension>
        </extensions>
      </trkpt>
      <trkpt lat="46.58065" lon="0.19802">
        <ele>147.60000610352</ele>
        <time>2022-04-17T07:57:58Z</time>
        <extensions>
          <gpxtpx:TrackPointExtension xmlns:gpxtpx="http://www.garmin.com/xmlschemas/TrackPointExtension/v1">
            <gpxtpx:hr>132</gpxtpx:hr>
          </gpxtpx:TrackPointExtension>
        </extensions>
      </trkpt>
      <trkpt lat="46.58062" lon="0.19807">
        <ele>147.60000610352</ele>
        <time>2022-04-17T07:57:59Z</time>
        <extensions>
          <gpxtpx:TrackPointExtension xmlns:gpxtpx="http://www.garmin.com/xmlschemas/TrackPointExtension/v1">
            <gpxtpx:hr>132</gpxtpx:hr>
          </gpxtpx:TrackPointExtension>
        </extensions>
      </trkpt>
      <trkpt lat="46.58057" lon="0.19813">
        <ele>147.60000610352</ele>
        <time>2022-04-17T07:58:00Z</time>
        <extensions>
          <gpxtpx:TrackPointExtension xmlns:gpxtpx="http://www.garmin.com/xmlschemas/TrackPointExtension/v1">
            <gpxtpx:hr>132</gpxtpx:hr>
          </gpxtpx:TrackPointExtension>
        </extensions>
      </trkpt>
      <trkpt lat="46.58048" lon="0.19824">
        <ele>147.60000610352</ele>
        <time>2022-04-17T07:58:02Z</time>
        <extensions>
          <gpxtpx:TrackPointExtension xmlns:gpxtpx="http://www.garmin.com/xmlschemas/TrackPointExtension/v1">
            <gpxtpx:hr>134</gpxtpx:hr>
          </gpxtpx:TrackPointExtension>
        </extensions>
      </trkpt>
      <trkpt lat="46.58035" lon="0.19838">
        <ele>147.39999389648</ele>
        <time>2022-04-17T07:58:05Z</time>
        <extensions>
          <gpxtpx:TrackPointExtension xmlns:gpxtpx="http://www.garmin.com/xmlschemas/TrackPointExtension/v1">
            <gpxtpx:hr>133</gpxtpx:hr>
          </gpxtpx:TrackPointExtension>
        </extensions>
      </trkpt>
      <trkpt lat="46.58031" lon="0.19841">
        <ele>147.39999389648</ele>
        <time>2022-04-17T07:58:06Z</time>
        <extensions>
          <gpxtpx:TrackPointExtension xmlns:gpxtpx="http://www.garmin.com/xmlschemas/TrackPointExtension/v1">
            <gpxtpx:hr>134</gpxtpx:hr>
          </gpxtpx:TrackPointExtension>
        </extensions>
      </trkpt>
      <trkpt lat="46.58026" lon="0.19844">
        <ele>147.19999694824</ele>
        <time>2022-04-17T07:58:07Z</time>
        <extensions>
          <gpxtpx:TrackPointExtension xmlns:gpxtpx="http://www.garmin.com/xmlschemas/TrackPointExtension/v1">
            <gpxtpx:hr>134</gpxtpx:hr>
          </gpxtpx:TrackPointExtension>
        </extensions>
      </trkpt>
      <trkpt lat="46.58022" lon="0.19846">
        <ele>147.19999694824</ele>
        <time>2022-04-17T07:58:08Z</time>
        <extensions>
          <gpxtpx:TrackPointExtension xmlns:gpxtpx="http://www.garmin.com/xmlschemas/TrackPointExtension/v1">
            <gpxtpx:hr>133</gpxtpx:hr>
          </gpxtpx:TrackPointExtension>
        </extensions>
      </trkpt>
      <trkpt lat="46.58018" lon="0.1985">
        <ele>147.19999694824</ele>
        <time>2022-04-17T07:58:09Z</time>
        <extensions>
          <gpxtpx:TrackPointExtension xmlns:gpxtpx="http://www.garmin.com/xmlschemas/TrackPointExtension/v1">
            <gpxtpx:hr>133</gpxtpx:hr>
          </gpxtpx:TrackPointExtension>
        </extensions>
      </trkpt>
      <trkpt lat="46.58014" lon="0.19852">
        <ele>147</ele>
        <time>2022-04-17T07:58:10Z</time>
        <extensions>
          <gpxtpx:TrackPointExtension xmlns:gpxtpx="http://www.garmin.com/xmlschemas/TrackPointExtension/v1">
            <gpxtpx:hr>134</gpxtpx:hr>
          </gpxtpx:TrackPointExtension>
        </extensions>
      </trkpt>
      <trkpt lat="46.58011" lon="0.19854">
        <ele>147</ele>
        <time>2022-04-17T07:58:11Z</time>
        <extensions>
          <gpxtpx:TrackPointExtension xmlns:gpxtpx="http://www.garmin.com/xmlschemas/TrackPointExtension/v1">
            <gpxtpx:hr>134</gpxtpx:hr>
          </gpxtpx:TrackPointExtension>
        </extensions>
      </trkpt>
      <trkpt lat="46.58008" lon="0.19855">
        <ele>147</ele>
        <time>2022-04-17T07:58:12Z</time>
        <extensions>
          <gpxtpx:TrackPointExtension xmlns:gpxtpx="http://www.garmin.com/xmlschemas/TrackPointExtension/v1">
            <gpxtpx:hr>133</gpxtpx:hr>
          </gpxtpx:TrackPointExtension>
        </extensions>
      </trkpt>
      <trkpt lat="46.58005" lon="0.19856">
        <ele>147</ele>
        <time>2022-04-17T07:58:13Z</time>
        <extensions>
          <gpxtpx:TrackPointExtension xmlns:gpxtpx="http://www.garmin.com/xmlschemas/TrackPointExtension/v1">
            <gpxtpx:hr>132</gpxtpx:hr>
          </gpxtpx:TrackPointExtension>
        </extensions>
      </trkpt>
      <trkpt lat="46.58003" lon="0.19858">
        <ele>147</ele>
        <time>2022-04-17T07:58:14Z</time>
        <extensions>
          <gpxtpx:TrackPointExtension xmlns:gpxtpx="http://www.garmin.com/xmlschemas/TrackPointExtension/v1">
            <gpxtpx:hr>131</gpxtpx:hr>
          </gpxtpx:TrackPointExtension>
        </extensions>
      </trkpt>
      <trkpt lat="46.58" lon="0.19859">
        <ele>147</ele>
        <time>2022-04-17T07:58:15Z</time>
        <extensions>
          <gpxtpx:TrackPointExtension xmlns:gpxtpx="http://www.garmin.com/xmlschemas/TrackPointExtension/v1">
            <gpxtpx:hr>131</gpxtpx:hr>
          </gpxtpx:TrackPointExtension>
        </extensions>
      </trkpt>
      <trkpt lat="46.57997" lon="0.19861">
        <ele>147</ele>
        <time>2022-04-17T07:58:16Z</time>
        <extensions>
          <gpxtpx:TrackPointExtension xmlns:gpxtpx="http://www.garmin.com/xmlschemas/TrackPointExtension/v1">
            <gpxtpx:hr>131</gpxtpx:hr>
          </gpxtpx:TrackPointExtension>
        </extensions>
      </trkpt>
      <trkpt lat="46.57988" lon="0.19866">
        <ele>146.80000305176</ele>
        <time>2022-04-17T07:58:19Z</time>
        <extensions>
          <gpxtpx:TrackPointExtension xmlns:gpxtpx="http://www.garmin.com/xmlschemas/TrackPointExtension/v1">
            <gpxtpx:hr>129</gpxtpx:hr>
          </gpxtpx:TrackPointExtension>
        </extensions>
      </trkpt>
      <trkpt lat="46.57986" lon="0.19869">
        <ele>146.80000305176</ele>
        <time>2022-04-17T07:58:20Z</time>
        <extensions>
          <gpxtpx:TrackPointExtension xmlns:gpxtpx="http://www.garmin.com/xmlschemas/TrackPointExtension/v1">
            <gpxtpx:hr>129</gpxtpx:hr>
          </gpxtpx:TrackPointExtension>
        </extensions>
      </trkpt>
      <trkpt lat="46.57984" lon="0.19874">
        <ele>146.80000305176</ele>
        <time>2022-04-17T07:58:21Z</time>
        <extensions>
          <gpxtpx:TrackPointExtension xmlns:gpxtpx="http://www.garmin.com/xmlschemas/TrackPointExtension/v1">
            <gpxtpx:hr>129</gpxtpx:hr>
          </gpxtpx:TrackPointExtension>
        </extensions>
      </trkpt>
      <trkpt lat="46.57984" lon="0.19878">
        <ele>146.80000305176</ele>
        <time>2022-04-17T07:58:22Z</time>
        <extensions>
          <gpxtpx:TrackPointExtension xmlns:gpxtpx="http://www.garmin.com/xmlschemas/TrackPointExtension/v1">
            <gpxtpx:hr>129</gpxtpx:hr>
          </gpxtpx:TrackPointExtension>
        </extensions>
      </trkpt>
      <trkpt lat="46.57983" lon="0.19883">
        <ele>146.80000305176</ele>
        <time>2022-04-17T07:58:23Z</time>
        <extensions>
          <gpxtpx:TrackPointExtension xmlns:gpxtpx="http://www.garmin.com/xmlschemas/TrackPointExtension/v1">
            <gpxtpx:hr>129</gpxtpx:hr>
          </gpxtpx:TrackPointExtension>
        </extensions>
      </trkpt>
      <trkpt lat="46.57983" lon="0.19887">
        <ele>146.80000305176</ele>
        <time>2022-04-17T07:58:24Z</time>
        <extensions>
          <gpxtpx:TrackPointExtension xmlns:gpxtpx="http://www.garmin.com/xmlschemas/TrackPointExtension/v1">
            <gpxtpx:hr>129</gpxtpx:hr>
          </gpxtpx:TrackPointExtension>
        </extensions>
      </trkpt>
      <trkpt lat="46.57983" lon="0.19892">
        <ele>146.80000305176</ele>
        <time>2022-04-17T07:58:25Z</time>
        <extensions>
          <gpxtpx:TrackPointExtension xmlns:gpxtpx="http://www.garmin.com/xmlschemas/TrackPointExtension/v1">
            <gpxtpx:hr>129</gpxtpx:hr>
          </gpxtpx:TrackPointExtension>
        </extensions>
      </trkpt>
      <trkpt lat="46.57982" lon="0.199">
        <ele>147</ele>
        <time>2022-04-17T07:58:27Z</time>
        <extensions>
          <gpxtpx:TrackPointExtension xmlns:gpxtpx="http://www.garmin.com/xmlschemas/TrackPointExtension/v1">
            <gpxtpx:hr>128</gpxtpx:hr>
          </gpxtpx:TrackPointExtension>
        </extensions>
      </trkpt>
      <trkpt lat="46.57981" lon="0.19902">
        <ele>147</ele>
        <time>2022-04-17T07:58:28Z</time>
        <extensions>
          <gpxtpx:TrackPointExtension xmlns:gpxtpx="http://www.garmin.com/xmlschemas/TrackPointExtension/v1">
            <gpxtpx:hr>129</gpxtpx:hr>
          </gpxtpx:TrackPointExtension>
        </extensions>
      </trkpt>
      <trkpt lat="46.5798" lon="0.19905">
        <ele>147</ele>
        <time>2022-04-17T07:58:29Z</time>
        <extensions>
          <gpxtpx:TrackPointExtension xmlns:gpxtpx="http://www.garmin.com/xmlschemas/TrackPointExtension/v1">
            <gpxtpx:hr>129</gpxtpx:hr>
          </gpxtpx:TrackPointExtension>
        </extensions>
      </trkpt>
      <trkpt lat="46.57979" lon="0.19909">
        <ele>147</ele>
        <time>2022-04-17T07:58:30Z</time>
        <extensions>
          <gpxtpx:TrackPointExtension xmlns:gpxtpx="http://www.garmin.com/xmlschemas/TrackPointExtension/v1">
            <gpxtpx:hr>128</gpxtpx:hr>
          </gpxtpx:TrackPointExtension>
        </extensions>
      </trkpt>
      <trkpt lat="46.57976" lon="0.19922">
        <ele>147</ele>
        <time>2022-04-17T07:58:33Z</time>
        <extensions>
          <gpxtpx:TrackPointExtension xmlns:gpxtpx="http://www.garmin.com/xmlschemas/TrackPointExtension/v1">
            <gpxtpx:hr>125</gpxtpx:hr>
          </gpxtpx:TrackPointExtension>
        </extensions>
      </trkpt>
      <trkpt lat="46.57974" lon="0.19935">
        <ele>146.60000610352</ele>
        <time>2022-04-17T07:58:35Z</time>
        <extensions>
          <gpxtpx:TrackPointExtension xmlns:gpxtpx="http://www.garmin.com/xmlschemas/TrackPointExtension/v1">
            <gpxtpx:hr>122</gpxtpx:hr>
          </gpxtpx:TrackPointExtension>
        </extensions>
      </trkpt>
      <trkpt lat="46.57973" lon="0.19941">
        <ele>146.39999389648</ele>
        <time>2022-04-17T07:58:36Z</time>
        <extensions>
          <gpxtpx:TrackPointExtension xmlns:gpxtpx="http://www.garmin.com/xmlschemas/TrackPointExtension/v1">
            <gpxtpx:hr>122</gpxtpx:hr>
          </gpxtpx:TrackPointExtension>
        </extensions>
      </trkpt>
      <trkpt lat="46.57972" lon="0.19946">
        <ele>146.39999389648</ele>
        <time>2022-04-17T07:58:37Z</time>
        <extensions>
          <gpxtpx:TrackPointExtension xmlns:gpxtpx="http://www.garmin.com/xmlschemas/TrackPointExtension/v1">
            <gpxtpx:hr>121</gpxtpx:hr>
          </gpxtpx:TrackPointExtension>
        </extensions>
      </trkpt>
      <trkpt lat="46.57972" lon="0.19951">
        <ele>146.39999389648</ele>
        <time>2022-04-17T07:58:38Z</time>
        <extensions>
          <gpxtpx:TrackPointExtension xmlns:gpxtpx="http://www.garmin.com/xmlschemas/TrackPointExtension/v1">
            <gpxtpx:hr>121</gpxtpx:hr>
          </gpxtpx:TrackPointExtension>
        </extensions>
      </trkpt>
      <trkpt lat="46.57972" lon="0.19956">
        <ele>146.19999694824</ele>
        <time>2022-04-17T07:58:39Z</time>
        <extensions>
          <gpxtpx:TrackPointExtension xmlns:gpxtpx="http://www.garmin.com/xmlschemas/TrackPointExtension/v1">
            <gpxtpx:hr>121</gpxtpx:hr>
          </gpxtpx:TrackPointExtension>
        </extensions>
      </trkpt>
      <trkpt lat="46.57969" lon="0.19968">
        <ele>146.19999694824</ele>
        <time>2022-04-17T07:58:41Z</time>
        <extensions>
          <gpxtpx:TrackPointExtension xmlns:gpxtpx="http://www.garmin.com/xmlschemas/TrackPointExtension/v1">
            <gpxtpx:hr>121</gpxtpx:hr>
          </gpxtpx:TrackPointExtension>
        </extensions>
      </trkpt>
      <trkpt lat="46.57965" lon="0.19985">
        <ele>146.19999694824</ele>
        <time>2022-04-17T07:58:44Z</time>
        <extensions>
          <gpxtpx:TrackPointExtension xmlns:gpxtpx="http://www.garmin.com/xmlschemas/TrackPointExtension/v1">
            <gpxtpx:hr>121</gpxtpx:hr>
          </gpxtpx:TrackPointExtension>
        </extensions>
      </trkpt>
      <trkpt lat="46.57964" lon="0.1999">
        <ele>146.19999694824</ele>
        <time>2022-04-17T07:58:45Z</time>
        <extensions>
          <gpxtpx:TrackPointExtension xmlns:gpxtpx="http://www.garmin.com/xmlschemas/TrackPointExtension/v1">
            <gpxtpx:hr>122</gpxtpx:hr>
          </gpxtpx:TrackPointExtension>
        </extensions>
      </trkpt>
      <trkpt lat="46.57962" lon="0.19997">
        <ele>146.19999694824</ele>
        <time>2022-04-17T07:58:46Z</time>
        <extensions>
          <gpxtpx:TrackPointExtension xmlns:gpxtpx="http://www.garmin.com/xmlschemas/TrackPointExtension/v1">
            <gpxtpx:hr>124</gpxtpx:hr>
          </gpxtpx:TrackPointExtension>
        </extensions>
      </trkpt>
      <trkpt lat="46.57961" lon="0.20017">
        <ele>146.19999694824</ele>
        <time>2022-04-17T07:58:49Z</time>
        <extensions>
          <gpxtpx:TrackPointExtension xmlns:gpxtpx="http://www.garmin.com/xmlschemas/TrackPointExtension/v1">
            <gpxtpx:hr>125</gpxtpx:hr>
          </gpxtpx:TrackPointExtension>
        </extensions>
      </trkpt>
      <trkpt lat="46.57959" lon="0.20025">
        <ele>146.19999694824</ele>
        <time>2022-04-17T07:58:50Z</time>
        <extensions>
          <gpxtpx:TrackPointExtension xmlns:gpxtpx="http://www.garmin.com/xmlschemas/TrackPointExtension/v1">
            <gpxtpx:hr>125</gpxtpx:hr>
          </gpxtpx:TrackPointExtension>
        </extensions>
      </trkpt>
      <trkpt lat="46.57955" lon="0.20048">
        <ele>146.39999389648</ele>
        <time>2022-04-17T07:58:53Z</time>
        <extensions>
          <gpxtpx:TrackPointExtension xmlns:gpxtpx="http://www.garmin.com/xmlschemas/TrackPointExtension/v1">
            <gpxtpx:hr>128</gpxtpx:hr>
          </gpxtpx:TrackPointExtension>
        </extensions>
      </trkpt>
      <trkpt lat="46.57954" lon="0.20063">
        <ele>146.60000610352</ele>
        <time>2022-04-17T07:58:55Z</time>
        <extensions>
          <gpxtpx:TrackPointExtension xmlns:gpxtpx="http://www.garmin.com/xmlschemas/TrackPointExtension/v1">
            <gpxtpx:hr>128</gpxtpx:hr>
          </gpxtpx:TrackPointExtension>
        </extensions>
      </trkpt>
      <trkpt lat="46.57954" lon="0.20094">
        <ele>146.80000305176</ele>
        <time>2022-04-17T07:59:00Z</time>
        <extensions>
          <gpxtpx:TrackPointExtension xmlns:gpxtpx="http://www.garmin.com/xmlschemas/TrackPointExtension/v1">
            <gpxtpx:hr>125</gpxtpx:hr>
          </gpxtpx:TrackPointExtension>
        </extensions>
      </trkpt>
      <trkpt lat="46.57953" lon="0.20106">
        <ele>146.80000305176</ele>
        <time>2022-04-17T07:59:02Z</time>
        <extensions>
          <gpxtpx:TrackPointExtension xmlns:gpxtpx="http://www.garmin.com/xmlschemas/TrackPointExtension/v1">
            <gpxtpx:hr>125</gpxtpx:hr>
          </gpxtpx:TrackPointExtension>
        </extensions>
      </trkpt>
      <trkpt lat="46.57953" lon="0.20112">
        <ele>146.80000305176</ele>
        <time>2022-04-17T07:59:03Z</time>
        <extensions>
          <gpxtpx:TrackPointExtension xmlns:gpxtpx="http://www.garmin.com/xmlschemas/TrackPointExtension/v1">
            <gpxtpx:hr>124</gpxtpx:hr>
          </gpxtpx:TrackPointExtension>
        </extensions>
      </trkpt>
      <trkpt lat="46.57953" lon="0.20118">
        <ele>146.80000305176</ele>
        <time>2022-04-17T07:59:04Z</time>
        <extensions>
          <gpxtpx:TrackPointExtension xmlns:gpxtpx="http://www.garmin.com/xmlschemas/TrackPointExtension/v1">
            <gpxtpx:hr>125</gpxtpx:hr>
          </gpxtpx:TrackPointExtension>
        </extensions>
      </trkpt>
      <trkpt lat="46.57953" lon="0.20125">
        <ele>146.80000305176</ele>
        <time>2022-04-17T07:59:05Z</time>
        <extensions>
          <gpxtpx:TrackPointExtension xmlns:gpxtpx="http://www.garmin.com/xmlschemas/TrackPointExtension/v1">
            <gpxtpx:hr>124</gpxtpx:hr>
          </gpxtpx:TrackPointExtension>
        </extensions>
      </trkpt>
      <trkpt lat="46.57953" lon="0.20131">
        <ele>146.80000305176</ele>
        <time>2022-04-17T07:59:06Z</time>
        <extensions>
          <gpxtpx:TrackPointExtension xmlns:gpxtpx="http://www.garmin.com/xmlschemas/TrackPointExtension/v1">
            <gpxtpx:hr>124</gpxtpx:hr>
          </gpxtpx:TrackPointExtension>
        </extensions>
      </trkpt>
      <trkpt lat="46.57952" lon="0.20143">
        <ele>146.80000305176</ele>
        <time>2022-04-17T07:59:08Z</time>
        <extensions>
          <gpxtpx:TrackPointExtension xmlns:gpxtpx="http://www.garmin.com/xmlschemas/TrackPointExtension/v1">
            <gpxtpx:hr>124</gpxtpx:hr>
          </gpxtpx:TrackPointExtension>
        </extensions>
      </trkpt>
      <trkpt lat="46.57951" lon="0.20148">
        <ele>146.80000305176</ele>
        <time>2022-04-17T07:59:09Z</time>
        <extensions>
          <gpxtpx:TrackPointExtension xmlns:gpxtpx="http://www.garmin.com/xmlschemas/TrackPointExtension/v1">
            <gpxtpx:hr>123</gpxtpx:hr>
          </gpxtpx:TrackPointExtension>
        </extensions>
      </trkpt>
      <trkpt lat="46.5795" lon="0.20151">
        <ele>146.80000305176</ele>
        <time>2022-04-17T07:59:10Z</time>
        <extensions>
          <gpxtpx:TrackPointExtension xmlns:gpxtpx="http://www.garmin.com/xmlschemas/TrackPointExtension/v1">
            <gpxtpx:hr>123</gpxtpx:hr>
          </gpxtpx:TrackPointExtension>
        </extensions>
      </trkpt>
      <trkpt lat="46.57949" lon="0.20155">
        <ele>146.80000305176</ele>
        <time>2022-04-17T07:59:11Z</time>
        <extensions>
          <gpxtpx:TrackPointExtension xmlns:gpxtpx="http://www.garmin.com/xmlschemas/TrackPointExtension/v1">
            <gpxtpx:hr>123</gpxtpx:hr>
          </gpxtpx:TrackPointExtension>
        </extensions>
      </trkpt>
      <trkpt lat="46.57948" lon="0.20159">
        <ele>146.80000305176</ele>
        <time>2022-04-17T07:59:12Z</time>
        <extensions>
          <gpxtpx:TrackPointExtension xmlns:gpxtpx="http://www.garmin.com/xmlschemas/TrackPointExtension/v1">
            <gpxtpx:hr>123</gpxtpx:hr>
          </gpxtpx:TrackPointExtension>
        </extensions>
      </trkpt>
      <trkpt lat="46.57946" lon="0.20164">
        <ele>146.60000610352</ele>
        <time>2022-04-17T07:59:13Z</time>
        <extensions>
          <gpxtpx:TrackPointExtension xmlns:gpxtpx="http://www.garmin.com/xmlschemas/TrackPointExtension/v1">
            <gpxtpx:hr>123</gpxtpx:hr>
          </gpxtpx:TrackPointExtension>
        </extensions>
      </trkpt>
      <trkpt lat="46.57943" lon="0.20178">
        <ele>146.60000610352</ele>
        <time>2022-04-17T07:59:16Z</time>
        <extensions>
          <gpxtpx:TrackPointExtension xmlns:gpxtpx="http://www.garmin.com/xmlschemas/TrackPointExtension/v1">
            <gpxtpx:hr>124</gpxtpx:hr>
          </gpxtpx:TrackPointExtension>
        </extensions>
      </trkpt>
      <trkpt lat="46.57942" lon="0.20183">
        <ele>146.39999389648</ele>
        <time>2022-04-17T07:59:17Z</time>
        <extensions>
          <gpxtpx:TrackPointExtension xmlns:gpxtpx="http://www.garmin.com/xmlschemas/TrackPointExtension/v1">
            <gpxtpx:hr>125</gpxtpx:hr>
          </gpxtpx:TrackPointExtension>
        </extensions>
      </trkpt>
      <trkpt lat="46.5794" lon="0.20189">
        <ele>146.39999389648</ele>
        <time>2022-04-17T07:59:18Z</time>
        <extensions>
          <gpxtpx:TrackPointExtension xmlns:gpxtpx="http://www.garmin.com/xmlschemas/TrackPointExtension/v1">
            <gpxtpx:hr>125</gpxtpx:hr>
          </gpxtpx:TrackPointExtension>
        </extensions>
      </trkpt>
      <trkpt lat="46.57934" lon="0.20207">
        <ele>146.19999694824</ele>
        <time>2022-04-17T07:59:21Z</time>
        <extensions>
          <gpxtpx:TrackPointExtension xmlns:gpxtpx="http://www.garmin.com/xmlschemas/TrackPointExtension/v1">
            <gpxtpx:hr>126</gpxtpx:hr>
          </gpxtpx:TrackPointExtension>
        </extensions>
      </trkpt>
      <trkpt lat="46.57931" lon="0.20213">
        <ele>146.19999694824</ele>
        <time>2022-04-17T07:59:22Z</time>
        <extensions>
          <gpxtpx:TrackPointExtension xmlns:gpxtpx="http://www.garmin.com/xmlschemas/TrackPointExtension/v1">
            <gpxtpx:hr>127</gpxtpx:hr>
          </gpxtpx:TrackPointExtension>
        </extensions>
      </trkpt>
      <trkpt lat="46.57927" lon="0.20226">
        <ele>146.19999694824</ele>
        <time>2022-04-17T07:59:24Z</time>
        <extensions>
          <gpxtpx:TrackPointExtension xmlns:gpxtpx="http://www.garmin.com/xmlschemas/TrackPointExtension/v1">
            <gpxtpx:hr>127</gpxtpx:hr>
          </gpxtpx:TrackPointExtension>
        </extensions>
      </trkpt>
      <trkpt lat="46.57925" lon="0.20233">
        <ele>146</ele>
        <time>2022-04-17T07:59:25Z</time>
        <extensions>
          <gpxtpx:TrackPointExtension xmlns:gpxtpx="http://www.garmin.com/xmlschemas/TrackPointExtension/v1">
            <gpxtpx:hr>128</gpxtpx:hr>
          </gpxtpx:TrackPointExtension>
        </extensions>
      </trkpt>
      <trkpt lat="46.57923" lon="0.20239">
        <ele>146</ele>
        <time>2022-04-17T07:59:26Z</time>
        <extensions>
          <gpxtpx:TrackPointExtension xmlns:gpxtpx="http://www.garmin.com/xmlschemas/TrackPointExtension/v1">
            <gpxtpx:hr>128</gpxtpx:hr>
          </gpxtpx:TrackPointExtension>
        </extensions>
      </trkpt>
      <trkpt lat="46.57921" lon="0.20246">
        <ele>146</ele>
        <time>2022-04-17T07:59:27Z</time>
        <extensions>
          <gpxtpx:TrackPointExtension xmlns:gpxtpx="http://www.garmin.com/xmlschemas/TrackPointExtension/v1">
            <gpxtpx:hr>129</gpxtpx:hr>
          </gpxtpx:TrackPointExtension>
        </extensions>
      </trkpt>
      <trkpt lat="46.57919" lon="0.20252">
        <ele>146</ele>
        <time>2022-04-17T07:59:28Z</time>
        <extensions>
          <gpxtpx:TrackPointExtension xmlns:gpxtpx="http://www.garmin.com/xmlschemas/TrackPointExtension/v1">
            <gpxtpx:hr>129</gpxtpx:hr>
          </gpxtpx:TrackPointExtension>
        </extensions>
      </trkpt>
      <trkpt lat="46.57912" lon="0.20274">
        <ele>146</ele>
        <time>2022-04-17T07:59:31Z</time>
        <extensions>
          <gpxtpx:TrackPointExtension xmlns:gpxtpx="http://www.garmin.com/xmlschemas/TrackPointExtension/v1">
            <gpxtpx:hr>130</gpxtpx:hr>
          </gpxtpx:TrackPointExtension>
        </extensions>
      </trkpt>
      <trkpt lat="46.5791" lon="0.20281">
        <ele>146</ele>
        <time>2022-04-17T07:59:32Z</time>
        <extensions>
          <gpxtpx:TrackPointExtension xmlns:gpxtpx="http://www.garmin.com/xmlschemas/TrackPointExtension/v1">
            <gpxtpx:hr>131</gpxtpx:hr>
          </gpxtpx:TrackPointExtension>
        </extensions>
      </trkpt>
      <trkpt lat="46.57909" lon="0.20286">
        <ele>146</ele>
        <time>2022-04-17T07:59:33Z</time>
        <extensions>
          <gpxtpx:TrackPointExtension xmlns:gpxtpx="http://www.garmin.com/xmlschemas/TrackPointExtension/v1">
            <gpxtpx:hr>132</gpxtpx:hr>
          </gpxtpx:TrackPointExtension>
        </extensions>
      </trkpt>
      <trkpt lat="46.57907" lon="0.20293">
        <ele>146</ele>
        <time>2022-04-17T07:59:34Z</time>
        <extensions>
          <gpxtpx:TrackPointExtension xmlns:gpxtpx="http://www.garmin.com/xmlschemas/TrackPointExtension/v1">
            <gpxtpx:hr>133</gpxtpx:hr>
          </gpxtpx:TrackPointExtension>
        </extensions>
      </trkpt>
      <trkpt lat="46.57905" lon="0.203">
        <ele>146</ele>
        <time>2022-04-17T07:59:35Z</time>
        <extensions>
          <gpxtpx:TrackPointExtension xmlns:gpxtpx="http://www.garmin.com/xmlschemas/TrackPointExtension/v1">
            <gpxtpx:hr>133</gpxtpx:hr>
          </gpxtpx:TrackPointExtension>
        </extensions>
      </trkpt>
      <trkpt lat="46.57902" lon="0.20308">
        <ele>146</ele>
        <time>2022-04-17T07:59:36Z</time>
        <extensions>
          <gpxtpx:TrackPointExtension xmlns:gpxtpx="http://www.garmin.com/xmlschemas/TrackPointExtension/v1">
            <gpxtpx:hr>134</gpxtpx:hr>
          </gpxtpx:TrackPointExtension>
        </extensions>
      </trkpt>
      <trkpt lat="46.57899" lon="0.20315">
        <ele>146</ele>
        <time>2022-04-17T07:59:37Z</time>
        <extensions>
          <gpxtpx:TrackPointExtension xmlns:gpxtpx="http://www.garmin.com/xmlschemas/TrackPointExtension/v1">
            <gpxtpx:hr>133</gpxtpx:hr>
          </gpxtpx:TrackPointExtension>
        </extensions>
      </trkpt>
      <trkpt lat="46.57897" lon="0.20321">
        <ele>146</ele>
        <time>2022-04-17T07:59:38Z</time>
        <extensions>
          <gpxtpx:TrackPointExtension xmlns:gpxtpx="http://www.garmin.com/xmlschemas/TrackPointExtension/v1">
            <gpxtpx:hr>133</gpxtpx:hr>
          </gpxtpx:TrackPointExtension>
        </extensions>
      </trkpt>
      <trkpt lat="46.57896" lon="0.20325">
        <ele>145.80000305176</ele>
        <time>2022-04-17T07:59:39Z</time>
        <extensions>
          <gpxtpx:TrackPointExtension xmlns:gpxtpx="http://www.garmin.com/xmlschemas/TrackPointExtension/v1">
            <gpxtpx:hr>133</gpxtpx:hr>
          </gpxtpx:TrackPointExtension>
        </extensions>
      </trkpt>
      <trkpt lat="46.57895" lon="0.20329">
        <ele>145.80000305176</ele>
        <time>2022-04-17T07:59:40Z</time>
        <extensions>
          <gpxtpx:TrackPointExtension xmlns:gpxtpx="http://www.garmin.com/xmlschemas/TrackPointExtension/v1">
            <gpxtpx:hr>133</gpxtpx:hr>
          </gpxtpx:TrackPointExtension>
        </extensions>
      </trkpt>
      <trkpt lat="46.57894" lon="0.20335">
        <ele>145.60000610352</ele>
        <time>2022-04-17T07:59:41Z</time>
        <extensions>
          <gpxtpx:TrackPointExtension xmlns:gpxtpx="http://www.garmin.com/xmlschemas/TrackPointExtension/v1">
            <gpxtpx:hr>133</gpxtpx:hr>
          </gpxtpx:TrackPointExtension>
        </extensions>
      </trkpt>
      <trkpt lat="46.57892" lon="0.20343">
        <ele>145.60000610352</ele>
        <time>2022-04-17T07:59:42Z</time>
        <extensions>
          <gpxtpx:TrackPointExtension xmlns:gpxtpx="http://www.garmin.com/xmlschemas/TrackPointExtension/v1">
            <gpxtpx:hr>132</gpxtpx:hr>
          </gpxtpx:TrackPointExtension>
        </extensions>
      </trkpt>
      <trkpt lat="46.57889" lon="0.20362">
        <ele>145.39999389648</ele>
        <time>2022-04-17T07:59:45Z</time>
        <extensions>
          <gpxtpx:TrackPointExtension xmlns:gpxtpx="http://www.garmin.com/xmlschemas/TrackPointExtension/v1">
            <gpxtpx:hr>133</gpxtpx:hr>
          </gpxtpx:TrackPointExtension>
        </extensions>
      </trkpt>
      <trkpt lat="46.57887" lon="0.20366">
        <ele>145.39999389648</ele>
        <time>2022-04-17T07:59:46Z</time>
        <extensions>
          <gpxtpx:TrackPointExtension xmlns:gpxtpx="http://www.garmin.com/xmlschemas/TrackPointExtension/v1">
            <gpxtpx:hr>132</gpxtpx:hr>
          </gpxtpx:TrackPointExtension>
        </extensions>
      </trkpt>
      <trkpt lat="46.57885" lon="0.20373">
        <ele>145.19999694824</ele>
        <time>2022-04-17T07:59:47Z</time>
        <extensions>
          <gpxtpx:TrackPointExtension xmlns:gpxtpx="http://www.garmin.com/xmlschemas/TrackPointExtension/v1">
            <gpxtpx:hr>131</gpxtpx:hr>
          </gpxtpx:TrackPointExtension>
        </extensions>
      </trkpt>
      <trkpt lat="46.57884" lon="0.20377">
        <ele>145.19999694824</ele>
        <time>2022-04-17T07:59:48Z</time>
        <extensions>
          <gpxtpx:TrackPointExtension xmlns:gpxtpx="http://www.garmin.com/xmlschemas/TrackPointExtension/v1">
            <gpxtpx:hr>129</gpxtpx:hr>
          </gpxtpx:TrackPointExtension>
        </extensions>
      </trkpt>
      <trkpt lat="46.57881" lon="0.20385">
        <ele>145</ele>
        <time>2022-04-17T07:59:50Z</time>
        <extensions>
          <gpxtpx:TrackPointExtension xmlns:gpxtpx="http://www.garmin.com/xmlschemas/TrackPointExtension/v1">
            <gpxtpx:hr>127</gpxtpx:hr>
          </gpxtpx:TrackPointExtension>
        </extensions>
      </trkpt>
      <trkpt lat="46.57878" lon="0.20392">
        <ele>144.80000305176</ele>
        <time>2022-04-17T07:59:51Z</time>
        <extensions>
          <gpxtpx:TrackPointExtension xmlns:gpxtpx="http://www.garmin.com/xmlschemas/TrackPointExtension/v1">
            <gpxtpx:hr>125</gpxtpx:hr>
          </gpxtpx:TrackPointExtension>
        </extensions>
      </trkpt>
      <trkpt lat="46.57877" lon="0.20395">
        <ele>144.80000305176</ele>
        <time>2022-04-17T07:59:52Z</time>
        <extensions>
          <gpxtpx:TrackPointExtension xmlns:gpxtpx="http://www.garmin.com/xmlschemas/TrackPointExtension/v1">
            <gpxtpx:hr>124</gpxtpx:hr>
          </gpxtpx:TrackPointExtension>
        </extensions>
      </trkpt>
      <trkpt lat="46.57876" lon="0.20397">
        <ele>144.80000305176</ele>
        <time>2022-04-17T07:59:53Z</time>
        <extensions>
          <gpxtpx:TrackPointExtension xmlns:gpxtpx="http://www.garmin.com/xmlschemas/TrackPointExtension/v1">
            <gpxtpx:hr>124</gpxtpx:hr>
          </gpxtpx:TrackPointExtension>
        </extensions>
      </trkpt>
      <trkpt lat="46.57871" lon="0.20411">
        <ele>144.60000610352</ele>
        <time>2022-04-17T07:59:56Z</time>
        <extensions>
          <gpxtpx:TrackPointExtension xmlns:gpxtpx="http://www.garmin.com/xmlschemas/TrackPointExtension/v1">
            <gpxtpx:hr>124</gpxtpx:hr>
          </gpxtpx:TrackPointExtension>
        </extensions>
      </trkpt>
      <trkpt lat="46.57869" lon="0.20416">
        <ele>144.60000610352</ele>
        <time>2022-04-17T07:59:57Z</time>
        <extensions>
          <gpxtpx:TrackPointExtension xmlns:gpxtpx="http://www.garmin.com/xmlschemas/TrackPointExtension/v1">
            <gpxtpx:hr>124</gpxtpx:hr>
          </gpxtpx:TrackPointExtension>
        </extensions>
      </trkpt>
      <trkpt lat="46.57851" lon="0.20451">
        <ele>144.19999694824</ele>
        <time>2022-04-17T08:00:04Z</time>
        <extensions>
          <gpxtpx:TrackPointExtension xmlns:gpxtpx="http://www.garmin.com/xmlschemas/TrackPointExtension/v1">
            <gpxtpx:hr>125</gpxtpx:hr>
          </gpxtpx:TrackPointExtension>
        </extensions>
      </trkpt>
      <trkpt lat="46.57838" lon="0.20472">
        <ele>143.80000305176</ele>
        <time>2022-04-17T08:00:07Z</time>
        <extensions>
          <gpxtpx:TrackPointExtension xmlns:gpxtpx="http://www.garmin.com/xmlschemas/TrackPointExtension/v1">
            <gpxtpx:hr>122</gpxtpx:hr>
          </gpxtpx:TrackPointExtension>
        </extensions>
      </trkpt>
      <trkpt lat="46.57833" lon="0.2048">
        <ele>143.60000610352</ele>
        <time>2022-04-17T08:00:08Z</time>
        <extensions>
          <gpxtpx:TrackPointExtension xmlns:gpxtpx="http://www.garmin.com/xmlschemas/TrackPointExtension/v1">
            <gpxtpx:hr>122</gpxtpx:hr>
          </gpxtpx:TrackPointExtension>
        </extensions>
      </trkpt>
      <trkpt lat="46.57829" lon="0.20487">
        <ele>143.39999389648</ele>
        <time>2022-04-17T08:00:09Z</time>
        <extensions>
          <gpxtpx:TrackPointExtension xmlns:gpxtpx="http://www.garmin.com/xmlschemas/TrackPointExtension/v1">
            <gpxtpx:hr>121</gpxtpx:hr>
          </gpxtpx:TrackPointExtension>
        </extensions>
      </trkpt>
      <trkpt lat="46.57826" lon="0.20496">
        <ele>143</ele>
        <time>2022-04-17T08:00:10Z</time>
        <extensions>
          <gpxtpx:TrackPointExtension xmlns:gpxtpx="http://www.garmin.com/xmlschemas/TrackPointExtension/v1">
            <gpxtpx:hr>121</gpxtpx:hr>
          </gpxtpx:TrackPointExtension>
        </extensions>
      </trkpt>
      <trkpt lat="46.57823" lon="0.20502">
        <ele>142.60000610352</ele>
        <time>2022-04-17T08:00:11Z</time>
        <extensions>
          <gpxtpx:TrackPointExtension xmlns:gpxtpx="http://www.garmin.com/xmlschemas/TrackPointExtension/v1">
            <gpxtpx:hr>120</gpxtpx:hr>
          </gpxtpx:TrackPointExtension>
        </extensions>
      </trkpt>
      <trkpt lat="46.5782" lon="0.20508">
        <ele>142.60000610352</ele>
        <time>2022-04-17T08:00:12Z</time>
        <extensions>
          <gpxtpx:TrackPointExtension xmlns:gpxtpx="http://www.garmin.com/xmlschemas/TrackPointExtension/v1">
            <gpxtpx:hr>119</gpxtpx:hr>
          </gpxtpx:TrackPointExtension>
        </extensions>
      </trkpt>
      <trkpt lat="46.57814" lon="0.20519">
        <ele>142.19999694824</ele>
        <time>2022-04-17T08:00:14Z</time>
        <extensions>
          <gpxtpx:TrackPointExtension xmlns:gpxtpx="http://www.garmin.com/xmlschemas/TrackPointExtension/v1">
            <gpxtpx:hr>119</gpxtpx:hr>
          </gpxtpx:TrackPointExtension>
        </extensions>
      </trkpt>
      <trkpt lat="46.57811" lon="0.20524">
        <ele>142.19999694824</ele>
        <time>2022-04-17T08:00:15Z</time>
        <extensions>
          <gpxtpx:TrackPointExtension xmlns:gpxtpx="http://www.garmin.com/xmlschemas/TrackPointExtension/v1">
            <gpxtpx:hr>118</gpxtpx:hr>
          </gpxtpx:TrackPointExtension>
        </extensions>
      </trkpt>
      <trkpt lat="46.57809" lon="0.20528">
        <ele>142.19999694824</ele>
        <time>2022-04-17T08:00:16Z</time>
        <extensions>
          <gpxtpx:TrackPointExtension xmlns:gpxtpx="http://www.garmin.com/xmlschemas/TrackPointExtension/v1">
            <gpxtpx:hr>118</gpxtpx:hr>
          </gpxtpx:TrackPointExtension>
        </extensions>
      </trkpt>
      <trkpt lat="46.57806" lon="0.20531">
        <ele>142.19999694824</ele>
        <time>2022-04-17T08:00:17Z</time>
        <extensions>
          <gpxtpx:TrackPointExtension xmlns:gpxtpx="http://www.garmin.com/xmlschemas/TrackPointExtension/v1">
            <gpxtpx:hr>118</gpxtpx:hr>
          </gpxtpx:TrackPointExtension>
        </extensions>
      </trkpt>
      <trkpt lat="46.57803" lon="0.20536">
        <ele>142</ele>
        <time>2022-04-17T08:00:18Z</time>
        <extensions>
          <gpxtpx:TrackPointExtension xmlns:gpxtpx="http://www.garmin.com/xmlschemas/TrackPointExtension/v1">
            <gpxtpx:hr>118</gpxtpx:hr>
          </gpxtpx:TrackPointExtension>
        </extensions>
      </trkpt>
      <trkpt lat="46.57799" lon="0.20542">
        <ele>142.39999389648</ele>
        <time>2022-04-17T08:00:20Z</time>
        <extensions>
          <gpxtpx:TrackPointExtension xmlns:gpxtpx="http://www.garmin.com/xmlschemas/TrackPointExtension/v1">
            <gpxtpx:hr>119</gpxtpx:hr>
          </gpxtpx:TrackPointExtension>
        </extensions>
      </trkpt>
      <trkpt lat="46.57795" lon="0.20546">
        <ele>142.39999389648</ele>
        <time>2022-04-17T08:00:21Z</time>
        <extensions>
          <gpxtpx:TrackPointExtension xmlns:gpxtpx="http://www.garmin.com/xmlschemas/TrackPointExtension/v1">
            <gpxtpx:hr>120</gpxtpx:hr>
          </gpxtpx:TrackPointExtension>
        </extensions>
      </trkpt>
      <trkpt lat="46.57787" lon="0.20558">
        <ele>142.80000305176</ele>
        <time>2022-04-17T08:00:23Z</time>
        <extensions>
          <gpxtpx:TrackPointExtension xmlns:gpxtpx="http://www.garmin.com/xmlschemas/TrackPointExtension/v1">
            <gpxtpx:hr>121</gpxtpx:hr>
          </gpxtpx:TrackPointExtension>
        </extensions>
      </trkpt>
      <trkpt lat="46.57774" lon="0.20577">
        <ele>143.39999389648</ele>
        <time>2022-04-17T08:00:27Z</time>
        <extensions>
          <gpxtpx:TrackPointExtension xmlns:gpxtpx="http://www.garmin.com/xmlschemas/TrackPointExtension/v1">
            <gpxtpx:hr>122</gpxtpx:hr>
          </gpxtpx:TrackPointExtension>
        </extensions>
      </trkpt>
      <trkpt lat="46.57772" lon="0.2058">
        <ele>143.60000610352</ele>
        <time>2022-04-17T08:00:28Z</time>
        <extensions>
          <gpxtpx:TrackPointExtension xmlns:gpxtpx="http://www.garmin.com/xmlschemas/TrackPointExtension/v1">
            <gpxtpx:hr>122</gpxtpx:hr>
          </gpxtpx:TrackPointExtension>
        </extensions>
      </trkpt>
      <trkpt lat="46.57769" lon="0.20585">
        <ele>144</ele>
        <time>2022-04-17T08:00:29Z</time>
        <extensions>
          <gpxtpx:TrackPointExtension xmlns:gpxtpx="http://www.garmin.com/xmlschemas/TrackPointExtension/v1">
            <gpxtpx:hr>122</gpxtpx:hr>
          </gpxtpx:TrackPointExtension>
        </extensions>
      </trkpt>
      <trkpt lat="46.57766" lon="0.2059">
        <ele>144</ele>
        <time>2022-04-17T08:00:30Z</time>
        <extensions>
          <gpxtpx:TrackPointExtension xmlns:gpxtpx="http://www.garmin.com/xmlschemas/TrackPointExtension/v1">
            <gpxtpx:hr>123</gpxtpx:hr>
          </gpxtpx:TrackPointExtension>
        </extensions>
      </trkpt>
      <trkpt lat="46.57756" lon="0.20614">
        <ele>144.39999389648</ele>
        <time>2022-04-17T08:00:33Z</time>
        <extensions>
          <gpxtpx:TrackPointExtension xmlns:gpxtpx="http://www.garmin.com/xmlschemas/TrackPointExtension/v1">
            <gpxtpx:hr>122</gpxtpx:hr>
          </gpxtpx:TrackPointExtension>
        </extensions>
      </trkpt>
      <trkpt lat="46.57755" lon="0.2062">
        <ele>144.39999389648</ele>
        <time>2022-04-17T08:00:34Z</time>
        <extensions>
          <gpxtpx:TrackPointExtension xmlns:gpxtpx="http://www.garmin.com/xmlschemas/TrackPointExtension/v1">
            <gpxtpx:hr>122</gpxtpx:hr>
          </gpxtpx:TrackPointExtension>
        </extensions>
      </trkpt>
      <trkpt lat="46.57754" lon="0.20626">
        <ele>144.39999389648</ele>
        <time>2022-04-17T08:00:35Z</time>
        <extensions>
          <gpxtpx:TrackPointExtension xmlns:gpxtpx="http://www.garmin.com/xmlschemas/TrackPointExtension/v1">
            <gpxtpx:hr>123</gpxtpx:hr>
          </gpxtpx:TrackPointExtension>
        </extensions>
      </trkpt>
      <trkpt lat="46.57753" lon="0.20632">
        <ele>144.60000610352</ele>
        <time>2022-04-17T08:00:36Z</time>
        <extensions>
          <gpxtpx:TrackPointExtension xmlns:gpxtpx="http://www.garmin.com/xmlschemas/TrackPointExtension/v1">
            <gpxtpx:hr>122</gpxtpx:hr>
          </gpxtpx:TrackPointExtension>
        </extensions>
      </trkpt>
      <trkpt lat="46.57752" lon="0.20637">
        <ele>144.60000610352</ele>
        <time>2022-04-17T08:00:37Z</time>
        <extensions>
          <gpxtpx:TrackPointExtension xmlns:gpxtpx="http://www.garmin.com/xmlschemas/TrackPointExtension/v1">
            <gpxtpx:hr>122</gpxtpx:hr>
          </gpxtpx:TrackPointExtension>
        </extensions>
      </trkpt>
      <trkpt lat="46.57751" lon="0.20644">
        <ele>144.80000305176</ele>
        <time>2022-04-17T08:00:38Z</time>
        <extensions>
          <gpxtpx:TrackPointExtension xmlns:gpxtpx="http://www.garmin.com/xmlschemas/TrackPointExtension/v1">
            <gpxtpx:hr>122</gpxtpx:hr>
          </gpxtpx:TrackPointExtension>
        </extensions>
      </trkpt>
      <trkpt lat="46.57749" lon="0.20654">
        <ele>144.80000305176</ele>
        <time>2022-04-17T08:00:40Z</time>
        <extensions>
          <gpxtpx:TrackPointExtension xmlns:gpxtpx="http://www.garmin.com/xmlschemas/TrackPointExtension/v1">
            <gpxtpx:hr>123</gpxtpx:hr>
          </gpxtpx:TrackPointExtension>
        </extensions>
      </trkpt>
      <trkpt lat="46.57748" lon="0.20664">
        <ele>145</ele>
        <time>2022-04-17T08:00:42Z</time>
        <extensions>
          <gpxtpx:TrackPointExtension xmlns:gpxtpx="http://www.garmin.com/xmlschemas/TrackPointExtension/v1">
            <gpxtpx:hr>123</gpxtpx:hr>
          </gpxtpx:TrackPointExtension>
        </extensions>
      </trkpt>
      <trkpt lat="46.57746" lon="0.2067">
        <ele>145</ele>
        <time>2022-04-17T08:00:43Z</time>
        <extensions>
          <gpxtpx:TrackPointExtension xmlns:gpxtpx="http://www.garmin.com/xmlschemas/TrackPointExtension/v1">
            <gpxtpx:hr>123</gpxtpx:hr>
          </gpxtpx:TrackPointExtension>
        </extensions>
      </trkpt>
      <trkpt lat="46.57745" lon="0.20676">
        <ele>145</ele>
        <time>2022-04-17T08:00:44Z</time>
        <extensions>
          <gpxtpx:TrackPointExtension xmlns:gpxtpx="http://www.garmin.com/xmlschemas/TrackPointExtension/v1">
            <gpxtpx:hr>123</gpxtpx:hr>
          </gpxtpx:TrackPointExtension>
        </extensions>
      </trkpt>
      <trkpt lat="46.57744" lon="0.20681">
        <ele>145</ele>
        <time>2022-04-17T08:00:45Z</time>
        <extensions>
          <gpxtpx:TrackPointExtension xmlns:gpxtpx="http://www.garmin.com/xmlschemas/TrackPointExtension/v1">
            <gpxtpx:hr>123</gpxtpx:hr>
          </gpxtpx:TrackPointExtension>
        </extensions>
      </trkpt>
      <trkpt lat="46.57744" lon="0.20685">
        <ele>145</ele>
        <time>2022-04-17T08:00:46Z</time>
        <extensions>
          <gpxtpx:TrackPointExtension xmlns:gpxtpx="http://www.garmin.com/xmlschemas/TrackPointExtension/v1">
            <gpxtpx:hr>123</gpxtpx:hr>
          </gpxtpx:TrackPointExtension>
        </extensions>
      </trkpt>
      <trkpt lat="46.57743" lon="0.20692">
        <ele>145</ele>
        <time>2022-04-17T08:00:47Z</time>
        <extensions>
          <gpxtpx:TrackPointExtension xmlns:gpxtpx="http://www.garmin.com/xmlschemas/TrackPointExtension/v1">
            <gpxtpx:hr>123</gpxtpx:hr>
          </gpxtpx:TrackPointExtension>
        </extensions>
      </trkpt>
      <trkpt lat="46.57741" lon="0.20699">
        <ele>145.19999694824</ele>
        <time>2022-04-17T08:00:48Z</time>
        <extensions>
          <gpxtpx:TrackPointExtension xmlns:gpxtpx="http://www.garmin.com/xmlschemas/TrackPointExtension/v1">
            <gpxtpx:hr>123</gpxtpx:hr>
          </gpxtpx:TrackPointExtension>
        </extensions>
      </trkpt>
      <trkpt lat="46.5774" lon="0.20707">
        <ele>145.19999694824</ele>
        <time>2022-04-17T08:00:49Z</time>
        <extensions>
          <gpxtpx:TrackPointExtension xmlns:gpxtpx="http://www.garmin.com/xmlschemas/TrackPointExtension/v1">
            <gpxtpx:hr>124</gpxtpx:hr>
          </gpxtpx:TrackPointExtension>
        </extensions>
      </trkpt>
      <trkpt lat="46.57739" lon="0.20713">
        <ele>145.19999694824</ele>
        <time>2022-04-17T08:00:50Z</time>
        <extensions>
          <gpxtpx:TrackPointExtension xmlns:gpxtpx="http://www.garmin.com/xmlschemas/TrackPointExtension/v1">
            <gpxtpx:hr>125</gpxtpx:hr>
          </gpxtpx:TrackPointExtension>
        </extensions>
      </trkpt>
      <trkpt lat="46.57736" lon="0.20726">
        <ele>145.19999694824</ele>
        <time>2022-04-17T08:00:52Z</time>
        <extensions>
          <gpxtpx:TrackPointExtension xmlns:gpxtpx="http://www.garmin.com/xmlschemas/TrackPointExtension/v1">
            <gpxtpx:hr>129</gpxtpx:hr>
          </gpxtpx:TrackPointExtension>
        </extensions>
      </trkpt>
      <trkpt lat="46.57732" lon="0.20742">
        <ele>145.39999389648</ele>
        <time>2022-04-17T08:00:54Z</time>
        <extensions>
          <gpxtpx:TrackPointExtension xmlns:gpxtpx="http://www.garmin.com/xmlschemas/TrackPointExtension/v1">
            <gpxtpx:hr>132</gpxtpx:hr>
          </gpxtpx:TrackPointExtension>
        </extensions>
      </trkpt>
      <trkpt lat="46.57729" lon="0.20758">
        <ele>145.80000305176</ele>
        <time>2022-04-17T08:00:57Z</time>
        <extensions>
          <gpxtpx:TrackPointExtension xmlns:gpxtpx="http://www.garmin.com/xmlschemas/TrackPointExtension/v1">
            <gpxtpx:hr>133</gpxtpx:hr>
          </gpxtpx:TrackPointExtension>
        </extensions>
      </trkpt>
      <trkpt lat="46.57727" lon="0.20764">
        <ele>145.80000305176</ele>
        <time>2022-04-17T08:00:58Z</time>
        <extensions>
          <gpxtpx:TrackPointExtension xmlns:gpxtpx="http://www.garmin.com/xmlschemas/TrackPointExtension/v1">
            <gpxtpx:hr>133</gpxtpx:hr>
          </gpxtpx:TrackPointExtension>
        </extensions>
      </trkpt>
      <trkpt lat="46.57727" lon="0.20769">
        <ele>146</ele>
        <time>2022-04-17T08:00:59Z</time>
        <extensions>
          <gpxtpx:TrackPointExtension xmlns:gpxtpx="http://www.garmin.com/xmlschemas/TrackPointExtension/v1">
            <gpxtpx:hr>133</gpxtpx:hr>
          </gpxtpx:TrackPointExtension>
        </extensions>
      </trkpt>
      <trkpt lat="46.57727" lon="0.20774">
        <ele>146</ele>
        <time>2022-04-17T08:01:00Z</time>
        <extensions>
          <gpxtpx:TrackPointExtension xmlns:gpxtpx="http://www.garmin.com/xmlschemas/TrackPointExtension/v1">
            <gpxtpx:hr>133</gpxtpx:hr>
          </gpxtpx:TrackPointExtension>
        </extensions>
      </trkpt>
      <trkpt lat="46.57724" lon="0.20814">
        <ele>146.60000610352</ele>
        <time>2022-04-17T08:01:06Z</time>
        <extensions>
          <gpxtpx:TrackPointExtension xmlns:gpxtpx="http://www.garmin.com/xmlschemas/TrackPointExtension/v1">
            <gpxtpx:hr>131</gpxtpx:hr>
          </gpxtpx:TrackPointExtension>
        </extensions>
      </trkpt>
      <trkpt lat="46.57723" lon="0.20829">
        <ele>146.80000305176</ele>
        <time>2022-04-17T08:01:08Z</time>
        <extensions>
          <gpxtpx:TrackPointExtension xmlns:gpxtpx="http://www.garmin.com/xmlschemas/TrackPointExtension/v1">
            <gpxtpx:hr>131</gpxtpx:hr>
          </gpxtpx:TrackPointExtension>
        </extensions>
      </trkpt>
      <trkpt lat="46.57719" lon="0.20876">
        <ele>146.60000610352</ele>
        <time>2022-04-17T08:01:14Z</time>
        <extensions>
          <gpxtpx:TrackPointExtension xmlns:gpxtpx="http://www.garmin.com/xmlschemas/TrackPointExtension/v1">
            <gpxtpx:hr>130</gpxtpx:hr>
          </gpxtpx:TrackPointExtension>
        </extensions>
      </trkpt>
      <trkpt lat="46.57716" lon="0.20945">
        <ele>146</ele>
        <time>2022-04-17T08:01:24Z</time>
        <extensions>
          <gpxtpx:TrackPointExtension xmlns:gpxtpx="http://www.garmin.com/xmlschemas/TrackPointExtension/v1">
            <gpxtpx:hr>131</gpxtpx:hr>
          </gpxtpx:TrackPointExtension>
        </extensions>
      </trkpt>
      <trkpt lat="46.5771" lon="0.21005">
        <ele>146.19999694824</ele>
        <time>2022-04-17T08:01:33Z</time>
        <extensions>
          <gpxtpx:TrackPointExtension xmlns:gpxtpx="http://www.garmin.com/xmlschemas/TrackPointExtension/v1">
            <gpxtpx:hr>132</gpxtpx:hr>
          </gpxtpx:TrackPointExtension>
        </extensions>
      </trkpt>
      <trkpt lat="46.57706" lon="0.21033">
        <ele>147.19999694824</ele>
        <time>2022-04-17T08:01:37Z</time>
        <extensions>
          <gpxtpx:TrackPointExtension xmlns:gpxtpx="http://www.garmin.com/xmlschemas/TrackPointExtension/v1">
            <gpxtpx:hr>133</gpxtpx:hr>
          </gpxtpx:TrackPointExtension>
        </extensions>
      </trkpt>
      <trkpt lat="46.57703" lon="0.21061">
        <ele>147.60000610352</ele>
        <time>2022-04-17T08:01:41Z</time>
        <extensions>
          <gpxtpx:TrackPointExtension xmlns:gpxtpx="http://www.garmin.com/xmlschemas/TrackPointExtension/v1">
            <gpxtpx:hr>134</gpxtpx:hr>
          </gpxtpx:TrackPointExtension>
        </extensions>
      </trkpt>
      <trkpt lat="46.57702" lon="0.21067">
        <ele>147.80000305176</ele>
        <time>2022-04-17T08:01:42Z</time>
        <extensions>
          <gpxtpx:TrackPointExtension xmlns:gpxtpx="http://www.garmin.com/xmlschemas/TrackPointExtension/v1">
            <gpxtpx:hr>134</gpxtpx:hr>
          </gpxtpx:TrackPointExtension>
        </extensions>
      </trkpt>
      <trkpt lat="46.57695" lon="0.21113">
        <ele>148.60000610352</ele>
        <time>2022-04-17T08:01:49Z</time>
        <extensions>
          <gpxtpx:TrackPointExtension xmlns:gpxtpx="http://www.garmin.com/xmlschemas/TrackPointExtension/v1">
            <gpxtpx:hr>137</gpxtpx:hr>
          </gpxtpx:TrackPointExtension>
        </extensions>
      </trkpt>
      <trkpt lat="46.57694" lon="0.21119">
        <ele>148.80000305176</ele>
        <time>2022-04-17T08:01:50Z</time>
        <extensions>
          <gpxtpx:TrackPointExtension xmlns:gpxtpx="http://www.garmin.com/xmlschemas/TrackPointExtension/v1">
            <gpxtpx:hr>136</gpxtpx:hr>
          </gpxtpx:TrackPointExtension>
        </extensions>
      </trkpt>
      <trkpt lat="46.57692" lon="0.21126">
        <ele>148.80000305176</ele>
        <time>2022-04-17T08:01:51Z</time>
        <extensions>
          <gpxtpx:TrackPointExtension xmlns:gpxtpx="http://www.garmin.com/xmlschemas/TrackPointExtension/v1">
            <gpxtpx:hr>136</gpxtpx:hr>
          </gpxtpx:TrackPointExtension>
        </extensions>
      </trkpt>
      <trkpt lat="46.5769" lon="0.21139">
        <ele>149</ele>
        <time>2022-04-17T08:01:53Z</time>
        <extensions>
          <gpxtpx:TrackPointExtension xmlns:gpxtpx="http://www.garmin.com/xmlschemas/TrackPointExtension/v1">
            <gpxtpx:hr>137</gpxtpx:hr>
          </gpxtpx:TrackPointExtension>
        </extensions>
      </trkpt>
      <trkpt lat="46.57687" lon="0.21152">
        <ele>149</ele>
        <time>2022-04-17T08:01:55Z</time>
        <extensions>
          <gpxtpx:TrackPointExtension xmlns:gpxtpx="http://www.garmin.com/xmlschemas/TrackPointExtension/v1">
            <gpxtpx:hr>137</gpxtpx:hr>
          </gpxtpx:TrackPointExtension>
        </extensions>
      </trkpt>
      <trkpt lat="46.57686" lon="0.21159">
        <ele>149.19999694824</ele>
        <time>2022-04-17T08:01:56Z</time>
        <extensions>
          <gpxtpx:TrackPointExtension xmlns:gpxtpx="http://www.garmin.com/xmlschemas/TrackPointExtension/v1">
            <gpxtpx:hr>137</gpxtpx:hr>
          </gpxtpx:TrackPointExtension>
        </extensions>
      </trkpt>
      <trkpt lat="46.57685" lon="0.21166">
        <ele>149.19999694824</ele>
        <time>2022-04-17T08:01:57Z</time>
        <extensions>
          <gpxtpx:TrackPointExtension xmlns:gpxtpx="http://www.garmin.com/xmlschemas/TrackPointExtension/v1">
            <gpxtpx:hr>137</gpxtpx:hr>
          </gpxtpx:TrackPointExtension>
        </extensions>
      </trkpt>
      <trkpt lat="46.57684" lon="0.21174">
        <ele>149.19999694824</ele>
        <time>2022-04-17T08:01:58Z</time>
        <extensions>
          <gpxtpx:TrackPointExtension xmlns:gpxtpx="http://www.garmin.com/xmlschemas/TrackPointExtension/v1">
            <gpxtpx:hr>137</gpxtpx:hr>
          </gpxtpx:TrackPointExtension>
        </extensions>
      </trkpt>
      <trkpt lat="46.57683" lon="0.21181">
        <ele>149.39999389648</ele>
        <time>2022-04-17T08:01:59Z</time>
        <extensions>
          <gpxtpx:TrackPointExtension xmlns:gpxtpx="http://www.garmin.com/xmlschemas/TrackPointExtension/v1">
            <gpxtpx:hr>137</gpxtpx:hr>
          </gpxtpx:TrackPointExtension>
        </extensions>
      </trkpt>
      <trkpt lat="46.57682" lon="0.21188">
        <ele>149.39999389648</ele>
        <time>2022-04-17T08:02:00Z</time>
        <extensions>
          <gpxtpx:TrackPointExtension xmlns:gpxtpx="http://www.garmin.com/xmlschemas/TrackPointExtension/v1">
            <gpxtpx:hr>137</gpxtpx:hr>
          </gpxtpx:TrackPointExtension>
        </extensions>
      </trkpt>
      <trkpt lat="46.57681" lon="0.21194">
        <ele>149.60000610352</ele>
        <time>2022-04-17T08:02:01Z</time>
        <extensions>
          <gpxtpx:TrackPointExtension xmlns:gpxtpx="http://www.garmin.com/xmlschemas/TrackPointExtension/v1">
            <gpxtpx:hr>138</gpxtpx:hr>
          </gpxtpx:TrackPointExtension>
        </extensions>
      </trkpt>
      <trkpt lat="46.57675" lon="0.21221">
        <ele>149.80000305176</ele>
        <time>2022-04-17T08:02:05Z</time>
        <extensions>
          <gpxtpx:TrackPointExtension xmlns:gpxtpx="http://www.garmin.com/xmlschemas/TrackPointExtension/v1">
            <gpxtpx:hr>139</gpxtpx:hr>
          </gpxtpx:TrackPointExtension>
        </extensions>
      </trkpt>
      <trkpt lat="46.57672" lon="0.21233">
        <ele>149.80000305176</ele>
        <time>2022-04-17T08:02:07Z</time>
        <extensions>
          <gpxtpx:TrackPointExtension xmlns:gpxtpx="http://www.garmin.com/xmlschemas/TrackPointExtension/v1">
            <gpxtpx:hr>139</gpxtpx:hr>
          </gpxtpx:TrackPointExtension>
        </extensions>
      </trkpt>
      <trkpt lat="46.57659" lon="0.2127">
        <ele>150.19999694824</ele>
        <time>2022-04-17T08:02:13Z</time>
        <extensions>
          <gpxtpx:TrackPointExtension xmlns:gpxtpx="http://www.garmin.com/xmlschemas/TrackPointExtension/v1">
            <gpxtpx:hr>139</gpxtpx:hr>
          </gpxtpx:TrackPointExtension>
        </extensions>
      </trkpt>
      <trkpt lat="46.57658" lon="0.21277">
        <ele>150.39999389648</ele>
        <time>2022-04-17T08:02:14Z</time>
        <extensions>
          <gpxtpx:TrackPointExtension xmlns:gpxtpx="http://www.garmin.com/xmlschemas/TrackPointExtension/v1">
            <gpxtpx:hr>139</gpxtpx:hr>
          </gpxtpx:TrackPointExtension>
        </extensions>
      </trkpt>
      <trkpt lat="46.57657" lon="0.21283">
        <ele>150.19999694824</ele>
        <time>2022-04-17T08:02:15Z</time>
        <extensions>
          <gpxtpx:TrackPointExtension xmlns:gpxtpx="http://www.garmin.com/xmlschemas/TrackPointExtension/v1">
            <gpxtpx:hr>139</gpxtpx:hr>
          </gpxtpx:TrackPointExtension>
        </extensions>
      </trkpt>
      <trkpt lat="46.57656" lon="0.21289">
        <ele>150.19999694824</ele>
        <time>2022-04-17T08:02:16Z</time>
        <extensions>
          <gpxtpx:TrackPointExtension xmlns:gpxtpx="http://www.garmin.com/xmlschemas/TrackPointExtension/v1">
            <gpxtpx:hr>140</gpxtpx:hr>
          </gpxtpx:TrackPointExtension>
        </extensions>
      </trkpt>
      <trkpt lat="46.57651" lon="0.21308">
        <ele>150.39999389648</ele>
        <time>2022-04-17T08:02:19Z</time>
        <extensions>
          <gpxtpx:TrackPointExtension xmlns:gpxtpx="http://www.garmin.com/xmlschemas/TrackPointExtension/v1">
            <gpxtpx:hr>140</gpxtpx:hr>
          </gpxtpx:TrackPointExtension>
        </extensions>
      </trkpt>
      <trkpt lat="46.57645" lon="0.21336">
        <ele>150.19999694824</ele>
        <time>2022-04-17T08:02:23Z</time>
        <extensions>
          <gpxtpx:TrackPointExtension xmlns:gpxtpx="http://www.garmin.com/xmlschemas/TrackPointExtension/v1">
            <gpxtpx:hr>137</gpxtpx:hr>
          </gpxtpx:TrackPointExtension>
        </extensions>
      </trkpt>
      <trkpt lat="46.57641" lon="0.21356">
        <ele>150</ele>
        <time>2022-04-17T08:02:26Z</time>
        <extensions>
          <gpxtpx:TrackPointExtension xmlns:gpxtpx="http://www.garmin.com/xmlschemas/TrackPointExtension/v1">
            <gpxtpx:hr>137</gpxtpx:hr>
          </gpxtpx:TrackPointExtension>
        </extensions>
      </trkpt>
      <trkpt lat="46.5764" lon="0.21363">
        <ele>149.80000305176</ele>
        <time>2022-04-17T08:02:27Z</time>
        <extensions>
          <gpxtpx:TrackPointExtension xmlns:gpxtpx="http://www.garmin.com/xmlschemas/TrackPointExtension/v1">
            <gpxtpx:hr>137</gpxtpx:hr>
          </gpxtpx:TrackPointExtension>
        </extensions>
      </trkpt>
      <trkpt lat="46.57639" lon="0.21369">
        <ele>149.60000610352</ele>
        <time>2022-04-17T08:02:28Z</time>
        <extensions>
          <gpxtpx:TrackPointExtension xmlns:gpxtpx="http://www.garmin.com/xmlschemas/TrackPointExtension/v1">
            <gpxtpx:hr>137</gpxtpx:hr>
          </gpxtpx:TrackPointExtension>
        </extensions>
      </trkpt>
      <trkpt lat="46.57629" lon="0.21403">
        <ele>149</ele>
        <time>2022-04-17T08:02:33Z</time>
        <extensions>
          <gpxtpx:TrackPointExtension xmlns:gpxtpx="http://www.garmin.com/xmlschemas/TrackPointExtension/v1">
            <gpxtpx:hr>138</gpxtpx:hr>
          </gpxtpx:TrackPointExtension>
        </extensions>
      </trkpt>
      <trkpt lat="46.57627" lon="0.2141">
        <ele>149</ele>
        <time>2022-04-17T08:02:34Z</time>
        <extensions>
          <gpxtpx:TrackPointExtension xmlns:gpxtpx="http://www.garmin.com/xmlschemas/TrackPointExtension/v1">
            <gpxtpx:hr>137</gpxtpx:hr>
          </gpxtpx:TrackPointExtension>
        </extensions>
      </trkpt>
      <trkpt lat="46.57619" lon="0.21431">
        <ele>148.80000305176</ele>
        <time>2022-04-17T08:02:37Z</time>
        <extensions>
          <gpxtpx:TrackPointExtension xmlns:gpxtpx="http://www.garmin.com/xmlschemas/TrackPointExtension/v1">
            <gpxtpx:hr>136</gpxtpx:hr>
          </gpxtpx:TrackPointExtension>
        </extensions>
      </trkpt>
      <trkpt lat="46.5761" lon="0.21458">
        <ele>149</ele>
        <time>2022-04-17T08:02:41Z</time>
        <extensions>
          <gpxtpx:TrackPointExtension xmlns:gpxtpx="http://www.garmin.com/xmlschemas/TrackPointExtension/v1">
            <gpxtpx:hr>135</gpxtpx:hr>
          </gpxtpx:TrackPointExtension>
        </extensions>
      </trkpt>
      <trkpt lat="46.57593" lon="0.21528">
        <ele>149.60000610352</ele>
        <time>2022-04-17T08:02:50Z</time>
        <extensions>
          <gpxtpx:TrackPointExtension xmlns:gpxtpx="http://www.garmin.com/xmlschemas/TrackPointExtension/v1">
            <gpxtpx:hr>133</gpxtpx:hr>
          </gpxtpx:TrackPointExtension>
        </extensions>
      </trkpt>
      <trkpt lat="46.57586" lon="0.21566">
        <ele>149.39999389648</ele>
        <time>2022-04-17T08:02:55Z</time>
        <extensions>
          <gpxtpx:TrackPointExtension xmlns:gpxtpx="http://www.garmin.com/xmlschemas/TrackPointExtension/v1">
            <gpxtpx:hr>133</gpxtpx:hr>
          </gpxtpx:TrackPointExtension>
        </extensions>
      </trkpt>
      <trkpt lat="46.57585" lon="0.21571">
        <ele>149.39999389648</ele>
        <time>2022-04-17T08:02:56Z</time>
        <extensions>
          <gpxtpx:TrackPointExtension xmlns:gpxtpx="http://www.garmin.com/xmlschemas/TrackPointExtension/v1">
            <gpxtpx:hr>133</gpxtpx:hr>
          </gpxtpx:TrackPointExtension>
        </extensions>
      </trkpt>
      <trkpt lat="46.57584" lon="0.21576">
        <ele>149.19999694824</ele>
        <time>2022-04-17T08:02:57Z</time>
        <extensions>
          <gpxtpx:TrackPointExtension xmlns:gpxtpx="http://www.garmin.com/xmlschemas/TrackPointExtension/v1">
            <gpxtpx:hr>133</gpxtpx:hr>
          </gpxtpx:TrackPointExtension>
        </extensions>
      </trkpt>
      <trkpt lat="46.57582" lon="0.21583">
        <ele>149.19999694824</ele>
        <time>2022-04-17T08:02:58Z</time>
        <extensions>
          <gpxtpx:TrackPointExtension xmlns:gpxtpx="http://www.garmin.com/xmlschemas/TrackPointExtension/v1">
            <gpxtpx:hr>133</gpxtpx:hr>
          </gpxtpx:TrackPointExtension>
        </extensions>
      </trkpt>
      <trkpt lat="46.5758" lon="0.21591">
        <ele>149.19999694824</ele>
        <time>2022-04-17T08:02:59Z</time>
        <extensions>
          <gpxtpx:TrackPointExtension xmlns:gpxtpx="http://www.garmin.com/xmlschemas/TrackPointExtension/v1">
            <gpxtpx:hr>133</gpxtpx:hr>
          </gpxtpx:TrackPointExtension>
        </extensions>
      </trkpt>
      <trkpt lat="46.57579" lon="0.21596">
        <ele>149.19999694824</ele>
        <time>2022-04-17T08:03:00Z</time>
        <extensions>
          <gpxtpx:TrackPointExtension xmlns:gpxtpx="http://www.garmin.com/xmlschemas/TrackPointExtension/v1">
            <gpxtpx:hr>133</gpxtpx:hr>
          </gpxtpx:TrackPointExtension>
        </extensions>
      </trkpt>
      <trkpt lat="46.57578" lon="0.216">
        <ele>149.19999694824</ele>
        <time>2022-04-17T08:03:01Z</time>
        <extensions>
          <gpxtpx:TrackPointExtension xmlns:gpxtpx="http://www.garmin.com/xmlschemas/TrackPointExtension/v1">
            <gpxtpx:hr>133</gpxtpx:hr>
          </gpxtpx:TrackPointExtension>
        </extensions>
      </trkpt>
      <trkpt lat="46.57576" lon="0.21605">
        <ele>149</ele>
        <time>2022-04-17T08:03:02Z</time>
        <extensions>
          <gpxtpx:TrackPointExtension xmlns:gpxtpx="http://www.garmin.com/xmlschemas/TrackPointExtension/v1">
            <gpxtpx:hr>133</gpxtpx:hr>
          </gpxtpx:TrackPointExtension>
        </extensions>
      </trkpt>
      <trkpt lat="46.57574" lon="0.21609">
        <ele>149</ele>
        <time>2022-04-17T08:03:03Z</time>
        <extensions>
          <gpxtpx:TrackPointExtension xmlns:gpxtpx="http://www.garmin.com/xmlschemas/TrackPointExtension/v1">
            <gpxtpx:hr>133</gpxtpx:hr>
          </gpxtpx:TrackPointExtension>
        </extensions>
      </trkpt>
      <trkpt lat="46.57572" lon="0.21612">
        <ele>148.80000305176</ele>
        <time>2022-04-17T08:03:04Z</time>
        <extensions>
          <gpxtpx:TrackPointExtension xmlns:gpxtpx="http://www.garmin.com/xmlschemas/TrackPointExtension/v1">
            <gpxtpx:hr>133</gpxtpx:hr>
          </gpxtpx:TrackPointExtension>
        </extensions>
      </trkpt>
      <trkpt lat="46.5757" lon="0.21614">
        <ele>148.80000305176</ele>
        <time>2022-04-17T08:03:05Z</time>
        <extensions>
          <gpxtpx:TrackPointExtension xmlns:gpxtpx="http://www.garmin.com/xmlschemas/TrackPointExtension/v1">
            <gpxtpx:hr>132</gpxtpx:hr>
          </gpxtpx:TrackPointExtension>
        </extensions>
      </trkpt>
      <trkpt lat="46.57567" lon="0.21615">
        <ele>148.80000305176</ele>
        <time>2022-04-17T08:03:06Z</time>
        <extensions>
          <gpxtpx:TrackPointExtension xmlns:gpxtpx="http://www.garmin.com/xmlschemas/TrackPointExtension/v1">
            <gpxtpx:hr>132</gpxtpx:hr>
          </gpxtpx:TrackPointExtension>
        </extensions>
      </trkpt>
      <trkpt lat="46.57564" lon="0.21616">
        <ele>148.80000305176</ele>
        <time>2022-04-17T08:03:07Z</time>
        <extensions>
          <gpxtpx:TrackPointExtension xmlns:gpxtpx="http://www.garmin.com/xmlschemas/TrackPointExtension/v1">
            <gpxtpx:hr>131</gpxtpx:hr>
          </gpxtpx:TrackPointExtension>
        </extensions>
      </trkpt>
      <trkpt lat="46.57561" lon="0.21616">
        <ele>148.80000305176</ele>
        <time>2022-04-17T08:03:08Z</time>
        <extensions>
          <gpxtpx:TrackPointExtension xmlns:gpxtpx="http://www.garmin.com/xmlschemas/TrackPointExtension/v1">
            <gpxtpx:hr>129</gpxtpx:hr>
          </gpxtpx:TrackPointExtension>
        </extensions>
      </trkpt>
      <trkpt lat="46.57558" lon="0.21616">
        <ele>148.80000305176</ele>
        <time>2022-04-17T08:03:09Z</time>
        <extensions>
          <gpxtpx:TrackPointExtension xmlns:gpxtpx="http://www.garmin.com/xmlschemas/TrackPointExtension/v1">
            <gpxtpx:hr>129</gpxtpx:hr>
          </gpxtpx:TrackPointExtension>
        </extensions>
      </trkpt>
      <trkpt lat="46.57557" lon="0.21616">
        <ele>148.80000305176</ele>
        <time>2022-04-17T08:03:10Z</time>
        <extensions>
          <gpxtpx:TrackPointExtension xmlns:gpxtpx="http://www.garmin.com/xmlschemas/TrackPointExtension/v1">
            <gpxtpx:hr>128</gpxtpx:hr>
          </gpxtpx:TrackPointExtension>
        </extensions>
      </trkpt>
      <trkpt lat="46.57555" lon="0.21616">
        <ele>148.60000610352</ele>
        <time>2022-04-17T08:03:11Z</time>
        <extensions>
          <gpxtpx:TrackPointExtension xmlns:gpxtpx="http://www.garmin.com/xmlschemas/TrackPointExtension/v1">
            <gpxtpx:hr>128</gpxtpx:hr>
          </gpxtpx:TrackPointExtension>
        </extensions>
      </trkpt>
      <trkpt lat="46.57554" lon="0.21615">
        <ele>148.60000610352</ele>
        <time>2022-04-17T08:03:12Z</time>
        <extensions>
          <gpxtpx:TrackPointExtension xmlns:gpxtpx="http://www.garmin.com/xmlschemas/TrackPointExtension/v1">
            <gpxtpx:hr>128</gpxtpx:hr>
          </gpxtpx:TrackPointExtension>
        </extensions>
      </trkpt>
      <trkpt lat="46.57553" lon="0.21615">
        <ele>148.60000610352</ele>
        <time>2022-04-17T08:03:13Z</time>
        <extensions>
          <gpxtpx:TrackPointExtension xmlns:gpxtpx="http://www.garmin.com/xmlschemas/TrackPointExtension/v1">
            <gpxtpx:hr>128</gpxtpx:hr>
          </gpxtpx:TrackPointExtension>
        </extensions>
      </trkpt>
      <trkpt lat="46.57553" lon="0.21621">
        <ele>148.39999389648</ele>
        <time>2022-04-17T08:03:30Z</time>
        <extensions>
          <gpxtpx:TrackPointExtension xmlns:gpxtpx="http://www.garmin.com/xmlschemas/TrackPointExtension/v1">
            <gpxtpx:hr>128</gpxtpx:hr>
          </gpxtpx:TrackPointExtension>
        </extensions>
      </trkpt>
      <trkpt lat="46.57557" lon="0.21641">
        <ele>148.19999694824</ele>
        <time>2022-04-17T08:03:35Z</time>
        <extensions>
          <gpxtpx:TrackPointExtension xmlns:gpxtpx="http://www.garmin.com/xmlschemas/TrackPointExtension/v1">
            <gpxtpx:hr>129</gpxtpx:hr>
          </gpxtpx:TrackPointExtension>
        </extensions>
      </trkpt>
      <trkpt lat="46.57558" lon="0.21646">
        <ele>148.19999694824</ele>
        <time>2022-04-17T08:03:36Z</time>
        <extensions>
          <gpxtpx:TrackPointExtension xmlns:gpxtpx="http://www.garmin.com/xmlschemas/TrackPointExtension/v1">
            <gpxtpx:hr>129</gpxtpx:hr>
          </gpxtpx:TrackPointExtension>
        </extensions>
      </trkpt>
      <trkpt lat="46.57559" lon="0.21651">
        <ele>148</ele>
        <time>2022-04-17T08:03:37Z</time>
        <extensions>
          <gpxtpx:TrackPointExtension xmlns:gpxtpx="http://www.garmin.com/xmlschemas/TrackPointExtension/v1">
            <gpxtpx:hr>128</gpxtpx:hr>
          </gpxtpx:TrackPointExtension>
        </extensions>
      </trkpt>
      <trkpt lat="46.57563" lon="0.21666">
        <ele>147.80000305176</ele>
        <time>2022-04-17T08:03:40Z</time>
        <extensions>
          <gpxtpx:TrackPointExtension xmlns:gpxtpx="http://www.garmin.com/xmlschemas/TrackPointExtension/v1">
            <gpxtpx:hr>127</gpxtpx:hr>
          </gpxtpx:TrackPointExtension>
        </extensions>
      </trkpt>
      <trkpt lat="46.57564" lon="0.21672">
        <ele>147.80000305176</ele>
        <time>2022-04-17T08:03:41Z</time>
        <extensions>
          <gpxtpx:TrackPointExtension xmlns:gpxtpx="http://www.garmin.com/xmlschemas/TrackPointExtension/v1">
            <gpxtpx:hr>127</gpxtpx:hr>
          </gpxtpx:TrackPointExtension>
        </extensions>
      </trkpt>
      <trkpt lat="46.57567" lon="0.21688">
        <ele>147.60000610352</ele>
        <time>2022-04-17T08:03:44Z</time>
        <extensions>
          <gpxtpx:TrackPointExtension xmlns:gpxtpx="http://www.garmin.com/xmlschemas/TrackPointExtension/v1">
            <gpxtpx:hr>121</gpxtpx:hr>
          </gpxtpx:TrackPointExtension>
        </extensions>
      </trkpt>
      <trkpt lat="46.57568" lon="0.21693">
        <ele>147.60000610352</ele>
        <time>2022-04-17T08:03:45Z</time>
        <extensions>
          <gpxtpx:TrackPointExtension xmlns:gpxtpx="http://www.garmin.com/xmlschemas/TrackPointExtension/v1">
            <gpxtpx:hr>121</gpxtpx:hr>
          </gpxtpx:TrackPointExtension>
        </extensions>
      </trkpt>
      <trkpt lat="46.57571" lon="0.21705">
        <ele>147.39999389648</ele>
        <time>2022-04-17T08:03:47Z</time>
        <extensions>
          <gpxtpx:TrackPointExtension xmlns:gpxtpx="http://www.garmin.com/xmlschemas/TrackPointExtension/v1">
            <gpxtpx:hr>119</gpxtpx:hr>
          </gpxtpx:TrackPointExtension>
        </extensions>
      </trkpt>
      <trkpt lat="46.5758" lon="0.2173">
        <ele>147.39999389648</ele>
        <time>2022-04-17T08:03:51Z</time>
        <extensions>
          <gpxtpx:TrackPointExtension xmlns:gpxtpx="http://www.garmin.com/xmlschemas/TrackPointExtension/v1">
            <gpxtpx:hr>117</gpxtpx:hr>
          </gpxtpx:TrackPointExtension>
        </extensions>
      </trkpt>
      <trkpt lat="46.57586" lon="0.21754">
        <ele>147</ele>
        <time>2022-04-17T08:03:54Z</time>
        <extensions>
          <gpxtpx:TrackPointExtension xmlns:gpxtpx="http://www.garmin.com/xmlschemas/TrackPointExtension/v1">
            <gpxtpx:hr>119</gpxtpx:hr>
          </gpxtpx:TrackPointExtension>
        </extensions>
      </trkpt>
      <trkpt lat="46.5759" lon="0.21777">
        <ele>146.80000305176</ele>
        <time>2022-04-17T08:03:57Z</time>
        <extensions>
          <gpxtpx:TrackPointExtension xmlns:gpxtpx="http://www.garmin.com/xmlschemas/TrackPointExtension/v1">
            <gpxtpx:hr>120</gpxtpx:hr>
          </gpxtpx:TrackPointExtension>
        </extensions>
      </trkpt>
      <trkpt lat="46.57596" lon="0.218">
        <ele>146.60000610352</ele>
        <time>2022-04-17T08:04:00Z</time>
        <extensions>
          <gpxtpx:TrackPointExtension xmlns:gpxtpx="http://www.garmin.com/xmlschemas/TrackPointExtension/v1">
            <gpxtpx:hr>120</gpxtpx:hr>
          </gpxtpx:TrackPointExtension>
        </extensions>
      </trkpt>
      <trkpt lat="46.5761" lon="0.21845">
        <ele>146.60000610352</ele>
        <time>2022-04-17T08:04:06Z</time>
        <extensions>
          <gpxtpx:TrackPointExtension xmlns:gpxtpx="http://www.garmin.com/xmlschemas/TrackPointExtension/v1">
            <gpxtpx:hr>120</gpxtpx:hr>
          </gpxtpx:TrackPointExtension>
        </extensions>
      </trkpt>
      <trkpt lat="46.57623" lon="0.21896">
        <ele>146.39999389648</ele>
        <time>2022-04-17T08:04:13Z</time>
        <extensions>
          <gpxtpx:TrackPointExtension xmlns:gpxtpx="http://www.garmin.com/xmlschemas/TrackPointExtension/v1">
            <gpxtpx:hr>120</gpxtpx:hr>
          </gpxtpx:TrackPointExtension>
        </extensions>
      </trkpt>
      <trkpt lat="46.57625" lon="0.21902">
        <ele>146.39999389648</ele>
        <time>2022-04-17T08:04:14Z</time>
        <extensions>
          <gpxtpx:TrackPointExtension xmlns:gpxtpx="http://www.garmin.com/xmlschemas/TrackPointExtension/v1">
            <gpxtpx:hr>120</gpxtpx:hr>
          </gpxtpx:TrackPointExtension>
        </extensions>
      </trkpt>
      <trkpt lat="46.57627" lon="0.21909">
        <ele>146.19999694824</ele>
        <time>2022-04-17T08:04:15Z</time>
        <extensions>
          <gpxtpx:TrackPointExtension xmlns:gpxtpx="http://www.garmin.com/xmlschemas/TrackPointExtension/v1">
            <gpxtpx:hr>120</gpxtpx:hr>
          </gpxtpx:TrackPointExtension>
        </extensions>
      </trkpt>
      <trkpt lat="46.57628" lon="0.21916">
        <ele>146.19999694824</ele>
        <time>2022-04-17T08:04:16Z</time>
        <extensions>
          <gpxtpx:TrackPointExtension xmlns:gpxtpx="http://www.garmin.com/xmlschemas/TrackPointExtension/v1">
            <gpxtpx:hr>120</gpxtpx:hr>
          </gpxtpx:TrackPointExtension>
        </extensions>
      </trkpt>
      <trkpt lat="46.5763" lon="0.21923">
        <ele>146</ele>
        <time>2022-04-17T08:04:17Z</time>
        <extensions>
          <gpxtpx:TrackPointExtension xmlns:gpxtpx="http://www.garmin.com/xmlschemas/TrackPointExtension/v1">
            <gpxtpx:hr>120</gpxtpx:hr>
          </gpxtpx:TrackPointExtension>
        </extensions>
      </trkpt>
      <trkpt lat="46.57632" lon="0.2193">
        <ele>146.19999694824</ele>
        <time>2022-04-17T08:04:18Z</time>
        <extensions>
          <gpxtpx:TrackPointExtension xmlns:gpxtpx="http://www.garmin.com/xmlschemas/TrackPointExtension/v1">
            <gpxtpx:hr>119</gpxtpx:hr>
          </gpxtpx:TrackPointExtension>
        </extensions>
      </trkpt>
      <trkpt lat="46.57633" lon="0.21936">
        <ele>145.80000305176</ele>
        <time>2022-04-17T08:04:19Z</time>
        <extensions>
          <gpxtpx:TrackPointExtension xmlns:gpxtpx="http://www.garmin.com/xmlschemas/TrackPointExtension/v1">
            <gpxtpx:hr>120</gpxtpx:hr>
          </gpxtpx:TrackPointExtension>
        </extensions>
      </trkpt>
      <trkpt lat="46.57635" lon="0.21943">
        <ele>145.80000305176</ele>
        <time>2022-04-17T08:04:20Z</time>
        <extensions>
          <gpxtpx:TrackPointExtension xmlns:gpxtpx="http://www.garmin.com/xmlschemas/TrackPointExtension/v1">
            <gpxtpx:hr>120</gpxtpx:hr>
          </gpxtpx:TrackPointExtension>
        </extensions>
      </trkpt>
      <trkpt lat="46.57637" lon="0.2195">
        <ele>145.80000305176</ele>
        <time>2022-04-17T08:04:21Z</time>
        <extensions>
          <gpxtpx:TrackPointExtension xmlns:gpxtpx="http://www.garmin.com/xmlschemas/TrackPointExtension/v1">
            <gpxtpx:hr>119</gpxtpx:hr>
          </gpxtpx:TrackPointExtension>
        </extensions>
      </trkpt>
      <trkpt lat="46.5765" lon="0.22001">
        <ele>145.39999389648</ele>
        <time>2022-04-17T08:04:28Z</time>
        <extensions>
          <gpxtpx:TrackPointExtension xmlns:gpxtpx="http://www.garmin.com/xmlschemas/TrackPointExtension/v1">
            <gpxtpx:hr>121</gpxtpx:hr>
          </gpxtpx:TrackPointExtension>
        </extensions>
      </trkpt>
      <trkpt lat="46.57651" lon="0.22008">
        <ele>145.39999389648</ele>
        <time>2022-04-17T08:04:29Z</time>
        <extensions>
          <gpxtpx:TrackPointExtension xmlns:gpxtpx="http://www.garmin.com/xmlschemas/TrackPointExtension/v1">
            <gpxtpx:hr>122</gpxtpx:hr>
          </gpxtpx:TrackPointExtension>
        </extensions>
      </trkpt>
      <trkpt lat="46.57663" lon="0.22051">
        <ele>145.19999694824</ele>
        <time>2022-04-17T08:04:35Z</time>
        <extensions>
          <gpxtpx:TrackPointExtension xmlns:gpxtpx="http://www.garmin.com/xmlschemas/TrackPointExtension/v1">
            <gpxtpx:hr>124</gpxtpx:hr>
          </gpxtpx:TrackPointExtension>
        </extensions>
      </trkpt>
      <trkpt lat="46.57678" lon="0.22116">
        <ele>145.19999694824</ele>
        <time>2022-04-17T08:04:44Z</time>
        <extensions>
          <gpxtpx:TrackPointExtension xmlns:gpxtpx="http://www.garmin.com/xmlschemas/TrackPointExtension/v1">
            <gpxtpx:hr>122</gpxtpx:hr>
          </gpxtpx:TrackPointExtension>
        </extensions>
      </trkpt>
      <trkpt lat="46.5768" lon="0.22123">
        <ele>145.19999694824</ele>
        <time>2022-04-17T08:04:45Z</time>
        <extensions>
          <gpxtpx:TrackPointExtension xmlns:gpxtpx="http://www.garmin.com/xmlschemas/TrackPointExtension/v1">
            <gpxtpx:hr>122</gpxtpx:hr>
          </gpxtpx:TrackPointExtension>
        </extensions>
      </trkpt>
      <trkpt lat="46.57682" lon="0.2213">
        <ele>145.19999694824</ele>
        <time>2022-04-17T08:04:46Z</time>
        <extensions>
          <gpxtpx:TrackPointExtension xmlns:gpxtpx="http://www.garmin.com/xmlschemas/TrackPointExtension/v1">
            <gpxtpx:hr>122</gpxtpx:hr>
          </gpxtpx:TrackPointExtension>
        </extensions>
      </trkpt>
      <trkpt lat="46.5769" lon="0.22167">
        <ele>145</ele>
        <time>2022-04-17T08:04:51Z</time>
        <extensions>
          <gpxtpx:TrackPointExtension xmlns:gpxtpx="http://www.garmin.com/xmlschemas/TrackPointExtension/v1">
            <gpxtpx:hr>122</gpxtpx:hr>
          </gpxtpx:TrackPointExtension>
        </extensions>
      </trkpt>
      <trkpt lat="46.57698" lon="0.22205">
        <ele>144.80000305176</ele>
        <time>2022-04-17T08:04:56Z</time>
        <extensions>
          <gpxtpx:TrackPointExtension xmlns:gpxtpx="http://www.garmin.com/xmlschemas/TrackPointExtension/v1">
            <gpxtpx:hr>123</gpxtpx:hr>
          </gpxtpx:TrackPointExtension>
        </extensions>
      </trkpt>
      <trkpt lat="46.57708" lon="0.22257">
        <ele>144.19999694824</ele>
        <time>2022-04-17T08:05:03Z</time>
        <extensions>
          <gpxtpx:TrackPointExtension xmlns:gpxtpx="http://www.garmin.com/xmlschemas/TrackPointExtension/v1">
            <gpxtpx:hr>124</gpxtpx:hr>
          </gpxtpx:TrackPointExtension>
        </extensions>
      </trkpt>
      <trkpt lat="46.5771" lon="0.22264">
        <ele>144</ele>
        <time>2022-04-17T08:05:04Z</time>
        <extensions>
          <gpxtpx:TrackPointExtension xmlns:gpxtpx="http://www.garmin.com/xmlschemas/TrackPointExtension/v1">
            <gpxtpx:hr>124</gpxtpx:hr>
          </gpxtpx:TrackPointExtension>
        </extensions>
      </trkpt>
      <trkpt lat="46.57713" lon="0.22271">
        <ele>143.80000305176</ele>
        <time>2022-04-17T08:05:05Z</time>
        <extensions>
          <gpxtpx:TrackPointExtension xmlns:gpxtpx="http://www.garmin.com/xmlschemas/TrackPointExtension/v1">
            <gpxtpx:hr>124</gpxtpx:hr>
          </gpxtpx:TrackPointExtension>
        </extensions>
      </trkpt>
      <trkpt lat="46.57715" lon="0.22278">
        <ele>143.60000610352</ele>
        <time>2022-04-17T08:05:06Z</time>
        <extensions>
          <gpxtpx:TrackPointExtension xmlns:gpxtpx="http://www.garmin.com/xmlschemas/TrackPointExtension/v1">
            <gpxtpx:hr>123</gpxtpx:hr>
          </gpxtpx:TrackPointExtension>
        </extensions>
      </trkpt>
      <trkpt lat="46.57717" lon="0.22284">
        <ele>143.60000610352</ele>
        <time>2022-04-17T08:05:07Z</time>
        <extensions>
          <gpxtpx:TrackPointExtension xmlns:gpxtpx="http://www.garmin.com/xmlschemas/TrackPointExtension/v1">
            <gpxtpx:hr>123</gpxtpx:hr>
          </gpxtpx:TrackPointExtension>
        </extensions>
      </trkpt>
      <trkpt lat="46.57719" lon="0.22291">
        <ele>143.60000610352</ele>
        <time>2022-04-17T08:05:08Z</time>
        <extensions>
          <gpxtpx:TrackPointExtension xmlns:gpxtpx="http://www.garmin.com/xmlschemas/TrackPointExtension/v1">
            <gpxtpx:hr>122</gpxtpx:hr>
          </gpxtpx:TrackPointExtension>
        </extensions>
      </trkpt>
      <trkpt lat="46.57721" lon="0.22298">
        <ele>143.60000610352</ele>
        <time>2022-04-17T08:05:09Z</time>
        <extensions>
          <gpxtpx:TrackPointExtension xmlns:gpxtpx="http://www.garmin.com/xmlschemas/TrackPointExtension/v1">
            <gpxtpx:hr>122</gpxtpx:hr>
          </gpxtpx:TrackPointExtension>
        </extensions>
      </trkpt>
      <trkpt lat="46.57723" lon="0.22304">
        <ele>143.60000610352</ele>
        <time>2022-04-17T08:05:10Z</time>
        <extensions>
          <gpxtpx:TrackPointExtension xmlns:gpxtpx="http://www.garmin.com/xmlschemas/TrackPointExtension/v1">
            <gpxtpx:hr>122</gpxtpx:hr>
          </gpxtpx:TrackPointExtension>
        </extensions>
      </trkpt>
      <trkpt lat="46.57724" lon="0.22311">
        <ele>143.39999389648</ele>
        <time>2022-04-17T08:05:11Z</time>
        <extensions>
          <gpxtpx:TrackPointExtension xmlns:gpxtpx="http://www.garmin.com/xmlschemas/TrackPointExtension/v1">
            <gpxtpx:hr>123</gpxtpx:hr>
          </gpxtpx:TrackPointExtension>
        </extensions>
      </trkpt>
      <trkpt lat="46.57728" lon="0.22323">
        <ele>143</ele>
        <time>2022-04-17T08:05:13Z</time>
        <extensions>
          <gpxtpx:TrackPointExtension xmlns:gpxtpx="http://www.garmin.com/xmlschemas/TrackPointExtension/v1">
            <gpxtpx:hr>124</gpxtpx:hr>
          </gpxtpx:TrackPointExtension>
        </extensions>
      </trkpt>
      <trkpt lat="46.57729" lon="0.22329">
        <ele>142.80000305176</ele>
        <time>2022-04-17T08:05:14Z</time>
        <extensions>
          <gpxtpx:TrackPointExtension xmlns:gpxtpx="http://www.garmin.com/xmlschemas/TrackPointExtension/v1">
            <gpxtpx:hr>125</gpxtpx:hr>
          </gpxtpx:TrackPointExtension>
        </extensions>
      </trkpt>
      <trkpt lat="46.5773" lon="0.22335">
        <ele>142.80000305176</ele>
        <time>2022-04-17T08:05:15Z</time>
        <extensions>
          <gpxtpx:TrackPointExtension xmlns:gpxtpx="http://www.garmin.com/xmlschemas/TrackPointExtension/v1">
            <gpxtpx:hr>125</gpxtpx:hr>
          </gpxtpx:TrackPointExtension>
        </extensions>
      </trkpt>
      <trkpt lat="46.57732" lon="0.22342">
        <ele>142.80000305176</ele>
        <time>2022-04-17T08:05:16Z</time>
        <extensions>
          <gpxtpx:TrackPointExtension xmlns:gpxtpx="http://www.garmin.com/xmlschemas/TrackPointExtension/v1">
            <gpxtpx:hr>125</gpxtpx:hr>
          </gpxtpx:TrackPointExtension>
        </extensions>
      </trkpt>
      <trkpt lat="46.57733" lon="0.22349">
        <ele>142.60000610352</ele>
        <time>2022-04-17T08:05:17Z</time>
        <extensions>
          <gpxtpx:TrackPointExtension xmlns:gpxtpx="http://www.garmin.com/xmlschemas/TrackPointExtension/v1">
            <gpxtpx:hr>126</gpxtpx:hr>
          </gpxtpx:TrackPointExtension>
        </extensions>
      </trkpt>
      <trkpt lat="46.57734" lon="0.22356">
        <ele>142.80000305176</ele>
        <time>2022-04-17T08:05:18Z</time>
        <extensions>
          <gpxtpx:TrackPointExtension xmlns:gpxtpx="http://www.garmin.com/xmlschemas/TrackPointExtension/v1">
            <gpxtpx:hr>129</gpxtpx:hr>
          </gpxtpx:TrackPointExtension>
        </extensions>
      </trkpt>
      <trkpt lat="46.57735" lon="0.2237">
        <ele>142.60000610352</ele>
        <time>2022-04-17T08:05:20Z</time>
        <extensions>
          <gpxtpx:TrackPointExtension xmlns:gpxtpx="http://www.garmin.com/xmlschemas/TrackPointExtension/v1">
            <gpxtpx:hr>129</gpxtpx:hr>
          </gpxtpx:TrackPointExtension>
        </extensions>
      </trkpt>
      <trkpt lat="46.5774" lon="0.22401">
        <ele>142.39999389648</ele>
        <time>2022-04-17T08:05:24Z</time>
        <extensions>
          <gpxtpx:TrackPointExtension xmlns:gpxtpx="http://www.garmin.com/xmlschemas/TrackPointExtension/v1">
            <gpxtpx:hr>129</gpxtpx:hr>
          </gpxtpx:TrackPointExtension>
        </extensions>
      </trkpt>
      <trkpt lat="46.57743" lon="0.2241">
        <ele>142.19999694824</ele>
        <time>2022-04-17T08:05:25Z</time>
        <extensions>
          <gpxtpx:TrackPointExtension xmlns:gpxtpx="http://www.garmin.com/xmlschemas/TrackPointExtension/v1">
            <gpxtpx:hr>129</gpxtpx:hr>
          </gpxtpx:TrackPointExtension>
        </extensions>
      </trkpt>
      <trkpt lat="46.57745" lon="0.22418">
        <ele>142.19999694824</ele>
        <time>2022-04-17T08:05:26Z</time>
        <extensions>
          <gpxtpx:TrackPointExtension xmlns:gpxtpx="http://www.garmin.com/xmlschemas/TrackPointExtension/v1">
            <gpxtpx:hr>128</gpxtpx:hr>
          </gpxtpx:TrackPointExtension>
        </extensions>
      </trkpt>
      <trkpt lat="46.57748" lon="0.22433">
        <ele>141.60000610352</ele>
        <time>2022-04-17T08:05:28Z</time>
        <extensions>
          <gpxtpx:TrackPointExtension xmlns:gpxtpx="http://www.garmin.com/xmlschemas/TrackPointExtension/v1">
            <gpxtpx:hr>127</gpxtpx:hr>
          </gpxtpx:TrackPointExtension>
        </extensions>
      </trkpt>
      <trkpt lat="46.57756" lon="0.22457">
        <ele>141</ele>
        <time>2022-04-17T08:05:31Z</time>
        <extensions>
          <gpxtpx:TrackPointExtension xmlns:gpxtpx="http://www.garmin.com/xmlschemas/TrackPointExtension/v1">
            <gpxtpx:hr>124</gpxtpx:hr>
          </gpxtpx:TrackPointExtension>
        </extensions>
      </trkpt>
      <trkpt lat="46.57757" lon="0.22464">
        <ele>141</ele>
        <time>2022-04-17T08:05:32Z</time>
        <extensions>
          <gpxtpx:TrackPointExtension xmlns:gpxtpx="http://www.garmin.com/xmlschemas/TrackPointExtension/v1">
            <gpxtpx:hr>124</gpxtpx:hr>
          </gpxtpx:TrackPointExtension>
        </extensions>
      </trkpt>
      <trkpt lat="46.57761" lon="0.22477">
        <ele>140.80000305176</ele>
        <time>2022-04-17T08:05:34Z</time>
        <extensions>
          <gpxtpx:TrackPointExtension xmlns:gpxtpx="http://www.garmin.com/xmlschemas/TrackPointExtension/v1">
            <gpxtpx:hr>123</gpxtpx:hr>
          </gpxtpx:TrackPointExtension>
        </extensions>
      </trkpt>
      <trkpt lat="46.57765" lon="0.22491">
        <ele>140.80000305176</ele>
        <time>2022-04-17T08:05:36Z</time>
        <extensions>
          <gpxtpx:TrackPointExtension xmlns:gpxtpx="http://www.garmin.com/xmlschemas/TrackPointExtension/v1">
            <gpxtpx:hr>127</gpxtpx:hr>
          </gpxtpx:TrackPointExtension>
        </extensions>
      </trkpt>
      <trkpt lat="46.57767" lon="0.22498">
        <ele>140.60000610352</ele>
        <time>2022-04-17T08:05:37Z</time>
        <extensions>
          <gpxtpx:TrackPointExtension xmlns:gpxtpx="http://www.garmin.com/xmlschemas/TrackPointExtension/v1">
            <gpxtpx:hr>127</gpxtpx:hr>
          </gpxtpx:TrackPointExtension>
        </extensions>
      </trkpt>
      <trkpt lat="46.57769" lon="0.22506">
        <ele>140.60000610352</ele>
        <time>2022-04-17T08:05:38Z</time>
        <extensions>
          <gpxtpx:TrackPointExtension xmlns:gpxtpx="http://www.garmin.com/xmlschemas/TrackPointExtension/v1">
            <gpxtpx:hr>125</gpxtpx:hr>
          </gpxtpx:TrackPointExtension>
        </extensions>
      </trkpt>
      <trkpt lat="46.5777" lon="0.22512">
        <ele>140.60000610352</ele>
        <time>2022-04-17T08:05:39Z</time>
        <extensions>
          <gpxtpx:TrackPointExtension xmlns:gpxtpx="http://www.garmin.com/xmlschemas/TrackPointExtension/v1">
            <gpxtpx:hr>123</gpxtpx:hr>
          </gpxtpx:TrackPointExtension>
        </extensions>
      </trkpt>
      <trkpt lat="46.57772" lon="0.22519">
        <ele>140.60000610352</ele>
        <time>2022-04-17T08:05:40Z</time>
        <extensions>
          <gpxtpx:TrackPointExtension xmlns:gpxtpx="http://www.garmin.com/xmlschemas/TrackPointExtension/v1">
            <gpxtpx:hr>122</gpxtpx:hr>
          </gpxtpx:TrackPointExtension>
        </extensions>
      </trkpt>
      <trkpt lat="46.57774" lon="0.22526">
        <ele>140.60000610352</ele>
        <time>2022-04-17T08:05:41Z</time>
        <extensions>
          <gpxtpx:TrackPointExtension xmlns:gpxtpx="http://www.garmin.com/xmlschemas/TrackPointExtension/v1">
            <gpxtpx:hr>121</gpxtpx:hr>
          </gpxtpx:TrackPointExtension>
        </extensions>
      </trkpt>
      <trkpt lat="46.57775" lon="0.22533">
        <ele>140.60000610352</ele>
        <time>2022-04-17T08:05:42Z</time>
        <extensions>
          <gpxtpx:TrackPointExtension xmlns:gpxtpx="http://www.garmin.com/xmlschemas/TrackPointExtension/v1">
            <gpxtpx:hr>121</gpxtpx:hr>
          </gpxtpx:TrackPointExtension>
        </extensions>
      </trkpt>
      <trkpt lat="46.57776" lon="0.22539">
        <ele>140.39999389648</ele>
        <time>2022-04-17T08:05:43Z</time>
        <extensions>
          <gpxtpx:TrackPointExtension xmlns:gpxtpx="http://www.garmin.com/xmlschemas/TrackPointExtension/v1">
            <gpxtpx:hr>121</gpxtpx:hr>
          </gpxtpx:TrackPointExtension>
        </extensions>
      </trkpt>
      <trkpt lat="46.57783" lon="0.22561">
        <ele>140.19999694824</ele>
        <time>2022-04-17T08:05:46Z</time>
        <extensions>
          <gpxtpx:TrackPointExtension xmlns:gpxtpx="http://www.garmin.com/xmlschemas/TrackPointExtension/v1">
            <gpxtpx:hr>120</gpxtpx:hr>
          </gpxtpx:TrackPointExtension>
        </extensions>
      </trkpt>
      <trkpt lat="46.57784" lon="0.22568">
        <ele>140.19999694824</ele>
        <time>2022-04-17T08:05:47Z</time>
        <extensions>
          <gpxtpx:TrackPointExtension xmlns:gpxtpx="http://www.garmin.com/xmlschemas/TrackPointExtension/v1">
            <gpxtpx:hr>120</gpxtpx:hr>
          </gpxtpx:TrackPointExtension>
        </extensions>
      </trkpt>
      <trkpt lat="46.57791" lon="0.22605">
        <ele>139.39999389648</ele>
        <time>2022-04-17T08:05:52Z</time>
        <extensions>
          <gpxtpx:TrackPointExtension xmlns:gpxtpx="http://www.garmin.com/xmlschemas/TrackPointExtension/v1">
            <gpxtpx:hr>120</gpxtpx:hr>
          </gpxtpx:TrackPointExtension>
        </extensions>
      </trkpt>
      <trkpt lat="46.57795" lon="0.22627">
        <ele>139</ele>
        <time>2022-04-17T08:05:55Z</time>
        <extensions>
          <gpxtpx:TrackPointExtension xmlns:gpxtpx="http://www.garmin.com/xmlschemas/TrackPointExtension/v1">
            <gpxtpx:hr>121</gpxtpx:hr>
          </gpxtpx:TrackPointExtension>
        </extensions>
      </trkpt>
      <trkpt lat="46.578" lon="0.22648">
        <ele>138.80000305176</ele>
        <time>2022-04-17T08:05:58Z</time>
        <extensions>
          <gpxtpx:TrackPointExtension xmlns:gpxtpx="http://www.garmin.com/xmlschemas/TrackPointExtension/v1">
            <gpxtpx:hr>121</gpxtpx:hr>
          </gpxtpx:TrackPointExtension>
        </extensions>
      </trkpt>
      <trkpt lat="46.57801" lon="0.22653">
        <ele>138.60000610352</ele>
        <time>2022-04-17T08:05:59Z</time>
        <extensions>
          <gpxtpx:TrackPointExtension xmlns:gpxtpx="http://www.garmin.com/xmlschemas/TrackPointExtension/v1">
            <gpxtpx:hr>121</gpxtpx:hr>
          </gpxtpx:TrackPointExtension>
        </extensions>
      </trkpt>
      <trkpt lat="46.57802" lon="0.22657">
        <ele>138.60000610352</ele>
        <time>2022-04-17T08:06:00Z</time>
        <extensions>
          <gpxtpx:TrackPointExtension xmlns:gpxtpx="http://www.garmin.com/xmlschemas/TrackPointExtension/v1">
            <gpxtpx:hr>121</gpxtpx:hr>
          </gpxtpx:TrackPointExtension>
        </extensions>
      </trkpt>
      <trkpt lat="46.57804" lon="0.2266">
        <ele>138.60000610352</ele>
        <time>2022-04-17T08:06:01Z</time>
        <extensions>
          <gpxtpx:TrackPointExtension xmlns:gpxtpx="http://www.garmin.com/xmlschemas/TrackPointExtension/v1">
            <gpxtpx:hr>121</gpxtpx:hr>
          </gpxtpx:TrackPointExtension>
        </extensions>
      </trkpt>
      <trkpt lat="46.57805" lon="0.22663">
        <ele>138.60000610352</ele>
        <time>2022-04-17T08:06:02Z</time>
        <extensions>
          <gpxtpx:TrackPointExtension xmlns:gpxtpx="http://www.garmin.com/xmlschemas/TrackPointExtension/v1">
            <gpxtpx:hr>119</gpxtpx:hr>
          </gpxtpx:TrackPointExtension>
        </extensions>
      </trkpt>
      <trkpt lat="46.57807" lon="0.22666">
        <ele>138.39999389648</ele>
        <time>2022-04-17T08:06:03Z</time>
        <extensions>
          <gpxtpx:TrackPointExtension xmlns:gpxtpx="http://www.garmin.com/xmlschemas/TrackPointExtension/v1">
            <gpxtpx:hr>118</gpxtpx:hr>
          </gpxtpx:TrackPointExtension>
        </extensions>
      </trkpt>
      <trkpt lat="46.5781" lon="0.22676">
        <ele>138.19999694824</ele>
        <time>2022-04-17T08:06:05Z</time>
        <extensions>
          <gpxtpx:TrackPointExtension xmlns:gpxtpx="http://www.garmin.com/xmlschemas/TrackPointExtension/v1">
            <gpxtpx:hr>117</gpxtpx:hr>
          </gpxtpx:TrackPointExtension>
        </extensions>
      </trkpt>
      <trkpt lat="46.57817" lon="0.22706">
        <ele>137.39999389648</ele>
        <time>2022-04-17T08:06:10Z</time>
        <extensions>
          <gpxtpx:TrackPointExtension xmlns:gpxtpx="http://www.garmin.com/xmlschemas/TrackPointExtension/v1">
            <gpxtpx:hr>116</gpxtpx:hr>
          </gpxtpx:TrackPointExtension>
        </extensions>
      </trkpt>
      <trkpt lat="46.57818" lon="0.22713">
        <ele>137.19999694824</ele>
        <time>2022-04-17T08:06:11Z</time>
        <extensions>
          <gpxtpx:TrackPointExtension xmlns:gpxtpx="http://www.garmin.com/xmlschemas/TrackPointExtension/v1">
            <gpxtpx:hr>116</gpxtpx:hr>
          </gpxtpx:TrackPointExtension>
        </extensions>
      </trkpt>
      <trkpt lat="46.57817" lon="0.22726">
        <ele>136.80000305176</ele>
        <time>2022-04-17T08:06:13Z</time>
        <extensions>
          <gpxtpx:TrackPointExtension xmlns:gpxtpx="http://www.garmin.com/xmlschemas/TrackPointExtension/v1">
            <gpxtpx:hr>119</gpxtpx:hr>
          </gpxtpx:TrackPointExtension>
        </extensions>
      </trkpt>
      <trkpt lat="46.57818" lon="0.22733">
        <ele>136.60000610352</ele>
        <time>2022-04-17T08:06:14Z</time>
        <extensions>
          <gpxtpx:TrackPointExtension xmlns:gpxtpx="http://www.garmin.com/xmlschemas/TrackPointExtension/v1">
            <gpxtpx:hr>119</gpxtpx:hr>
          </gpxtpx:TrackPointExtension>
        </extensions>
      </trkpt>
      <trkpt lat="46.57819" lon="0.2274">
        <ele>136.19999694824</ele>
        <time>2022-04-17T08:06:15Z</time>
        <extensions>
          <gpxtpx:TrackPointExtension xmlns:gpxtpx="http://www.garmin.com/xmlschemas/TrackPointExtension/v1">
            <gpxtpx:hr>120</gpxtpx:hr>
          </gpxtpx:TrackPointExtension>
        </extensions>
      </trkpt>
      <trkpt lat="46.57821" lon="0.22748">
        <ele>135.80000305176</ele>
        <time>2022-04-17T08:06:16Z</time>
        <extensions>
          <gpxtpx:TrackPointExtension xmlns:gpxtpx="http://www.garmin.com/xmlschemas/TrackPointExtension/v1">
            <gpxtpx:hr>121</gpxtpx:hr>
          </gpxtpx:TrackPointExtension>
        </extensions>
      </trkpt>
      <trkpt lat="46.57822" lon="0.22753">
        <ele>135.19999694824</ele>
        <time>2022-04-17T08:06:17Z</time>
        <extensions>
          <gpxtpx:TrackPointExtension xmlns:gpxtpx="http://www.garmin.com/xmlschemas/TrackPointExtension/v1">
            <gpxtpx:hr>122</gpxtpx:hr>
          </gpxtpx:TrackPointExtension>
        </extensions>
      </trkpt>
      <trkpt lat="46.57824" lon="0.22757">
        <ele>135</ele>
        <time>2022-04-17T08:06:18Z</time>
        <extensions>
          <gpxtpx:TrackPointExtension xmlns:gpxtpx="http://www.garmin.com/xmlschemas/TrackPointExtension/v1">
            <gpxtpx:hr>122</gpxtpx:hr>
          </gpxtpx:TrackPointExtension>
        </extensions>
      </trkpt>
      <trkpt lat="46.57825" lon="0.2276">
        <ele>135</ele>
        <time>2022-04-17T08:06:19Z</time>
        <extensions>
          <gpxtpx:TrackPointExtension xmlns:gpxtpx="http://www.garmin.com/xmlschemas/TrackPointExtension/v1">
            <gpxtpx:hr>122</gpxtpx:hr>
          </gpxtpx:TrackPointExtension>
        </extensions>
      </trkpt>
      <trkpt lat="46.57825" lon="0.22765">
        <ele>134.80000305176</ele>
        <time>2022-04-17T08:06:20Z</time>
        <extensions>
          <gpxtpx:TrackPointExtension xmlns:gpxtpx="http://www.garmin.com/xmlschemas/TrackPointExtension/v1">
            <gpxtpx:hr>122</gpxtpx:hr>
          </gpxtpx:TrackPointExtension>
        </extensions>
      </trkpt>
      <trkpt lat="46.57826" lon="0.2277">
        <ele>134.39999389648</ele>
        <time>2022-04-17T08:06:21Z</time>
        <extensions>
          <gpxtpx:TrackPointExtension xmlns:gpxtpx="http://www.garmin.com/xmlschemas/TrackPointExtension/v1">
            <gpxtpx:hr>122</gpxtpx:hr>
          </gpxtpx:TrackPointExtension>
        </extensions>
      </trkpt>
      <trkpt lat="46.57826" lon="0.22773">
        <ele>134</ele>
        <time>2022-04-17T08:06:22Z</time>
        <extensions>
          <gpxtpx:TrackPointExtension xmlns:gpxtpx="http://www.garmin.com/xmlschemas/TrackPointExtension/v1">
            <gpxtpx:hr>123</gpxtpx:hr>
          </gpxtpx:TrackPointExtension>
        </extensions>
      </trkpt>
      <trkpt lat="46.57826" lon="0.22777">
        <ele>133.60000610352</ele>
        <time>2022-04-17T08:06:23Z</time>
        <extensions>
          <gpxtpx:TrackPointExtension xmlns:gpxtpx="http://www.garmin.com/xmlschemas/TrackPointExtension/v1">
            <gpxtpx:hr>123</gpxtpx:hr>
          </gpxtpx:TrackPointExtension>
        </extensions>
      </trkpt>
      <trkpt lat="46.5783" lon="0.22796">
        <ele>132.80000305176</ele>
        <time>2022-04-17T08:06:26Z</time>
        <extensions>
          <gpxtpx:TrackPointExtension xmlns:gpxtpx="http://www.garmin.com/xmlschemas/TrackPointExtension/v1">
            <gpxtpx:hr>124</gpxtpx:hr>
          </gpxtpx:TrackPointExtension>
        </extensions>
      </trkpt>
      <trkpt lat="46.57832" lon="0.22804">
        <ele>132.60000610352</ele>
        <time>2022-04-17T08:06:27Z</time>
        <extensions>
          <gpxtpx:TrackPointExtension xmlns:gpxtpx="http://www.garmin.com/xmlschemas/TrackPointExtension/v1">
            <gpxtpx:hr>124</gpxtpx:hr>
          </gpxtpx:TrackPointExtension>
        </extensions>
      </trkpt>
      <trkpt lat="46.57834" lon="0.22821">
        <ele>132.39999389648</ele>
        <time>2022-04-17T08:06:30Z</time>
        <extensions>
          <gpxtpx:TrackPointExtension xmlns:gpxtpx="http://www.garmin.com/xmlschemas/TrackPointExtension/v1">
            <gpxtpx:hr>124</gpxtpx:hr>
          </gpxtpx:TrackPointExtension>
        </extensions>
      </trkpt>
      <trkpt lat="46.57832" lon="0.22824">
        <ele>132.39999389648</ele>
        <time>2022-04-17T08:06:31Z</time>
        <extensions>
          <gpxtpx:TrackPointExtension xmlns:gpxtpx="http://www.garmin.com/xmlschemas/TrackPointExtension/v1">
            <gpxtpx:hr>125</gpxtpx:hr>
          </gpxtpx:TrackPointExtension>
        </extensions>
      </trkpt>
      <trkpt lat="46.5783" lon="0.22827">
        <ele>132.39999389648</ele>
        <time>2022-04-17T08:06:32Z</time>
        <extensions>
          <gpxtpx:TrackPointExtension xmlns:gpxtpx="http://www.garmin.com/xmlschemas/TrackPointExtension/v1">
            <gpxtpx:hr>125</gpxtpx:hr>
          </gpxtpx:TrackPointExtension>
        </extensions>
      </trkpt>
      <trkpt lat="46.57828" lon="0.22831">
        <ele>132.39999389648</ele>
        <time>2022-04-17T08:06:33Z</time>
        <extensions>
          <gpxtpx:TrackPointExtension xmlns:gpxtpx="http://www.garmin.com/xmlschemas/TrackPointExtension/v1">
            <gpxtpx:hr>125</gpxtpx:hr>
          </gpxtpx:TrackPointExtension>
        </extensions>
      </trkpt>
      <trkpt lat="46.5782" lon="0.22836">
        <ele>132.39999389648</ele>
        <time>2022-04-17T08:06:35Z</time>
        <extensions>
          <gpxtpx:TrackPointExtension xmlns:gpxtpx="http://www.garmin.com/xmlschemas/TrackPointExtension/v1">
            <gpxtpx:hr>125</gpxtpx:hr>
          </gpxtpx:TrackPointExtension>
        </extensions>
      </trkpt>
      <trkpt lat="46.57817" lon="0.22837">
        <ele>132.39999389648</ele>
        <time>2022-04-17T08:06:36Z</time>
        <extensions>
          <gpxtpx:TrackPointExtension xmlns:gpxtpx="http://www.garmin.com/xmlschemas/TrackPointExtension/v1">
            <gpxtpx:hr>125</gpxtpx:hr>
          </gpxtpx:TrackPointExtension>
        </extensions>
      </trkpt>
      <trkpt lat="46.57814" lon="0.22837">
        <ele>132.80000305176</ele>
        <time>2022-04-17T08:06:37Z</time>
        <extensions>
          <gpxtpx:TrackPointExtension xmlns:gpxtpx="http://www.garmin.com/xmlschemas/TrackPointExtension/v1">
            <gpxtpx:hr>125</gpxtpx:hr>
          </gpxtpx:TrackPointExtension>
        </extensions>
      </trkpt>
      <trkpt lat="46.57809" lon="0.22838">
        <ele>133</ele>
        <time>2022-04-17T08:06:38Z</time>
        <extensions>
          <gpxtpx:TrackPointExtension xmlns:gpxtpx="http://www.garmin.com/xmlschemas/TrackPointExtension/v1">
            <gpxtpx:hr>126</gpxtpx:hr>
          </gpxtpx:TrackPointExtension>
        </extensions>
      </trkpt>
      <trkpt lat="46.57799" lon="0.22838">
        <ele>133.19999694824</ele>
        <time>2022-04-17T08:06:40Z</time>
        <extensions>
          <gpxtpx:TrackPointExtension xmlns:gpxtpx="http://www.garmin.com/xmlschemas/TrackPointExtension/v1">
            <gpxtpx:hr>126</gpxtpx:hr>
          </gpxtpx:TrackPointExtension>
        </extensions>
      </trkpt>
      <trkpt lat="46.57789" lon="0.22838">
        <ele>133.19999694824</ele>
        <time>2022-04-17T08:06:42Z</time>
        <extensions>
          <gpxtpx:TrackPointExtension xmlns:gpxtpx="http://www.garmin.com/xmlschemas/TrackPointExtension/v1">
            <gpxtpx:hr>125</gpxtpx:hr>
          </gpxtpx:TrackPointExtension>
        </extensions>
      </trkpt>
      <trkpt lat="46.57773" lon="0.22835">
        <ele>133.19999694824</ele>
        <time>2022-04-17T08:06:45Z</time>
        <extensions>
          <gpxtpx:TrackPointExtension xmlns:gpxtpx="http://www.garmin.com/xmlschemas/TrackPointExtension/v1">
            <gpxtpx:hr>126</gpxtpx:hr>
          </gpxtpx:TrackPointExtension>
        </extensions>
      </trkpt>
      <trkpt lat="46.57767" lon="0.22833">
        <ele>133</ele>
        <time>2022-04-17T08:06:46Z</time>
        <extensions>
          <gpxtpx:TrackPointExtension xmlns:gpxtpx="http://www.garmin.com/xmlschemas/TrackPointExtension/v1">
            <gpxtpx:hr>127</gpxtpx:hr>
          </gpxtpx:TrackPointExtension>
        </extensions>
      </trkpt>
      <trkpt lat="46.57761" lon="0.22832">
        <ele>132.80000305176</ele>
        <time>2022-04-17T08:06:47Z</time>
        <extensions>
          <gpxtpx:TrackPointExtension xmlns:gpxtpx="http://www.garmin.com/xmlschemas/TrackPointExtension/v1">
            <gpxtpx:hr>127</gpxtpx:hr>
          </gpxtpx:TrackPointExtension>
        </extensions>
      </trkpt>
      <trkpt lat="46.5775" lon="0.22833">
        <ele>132.39999389648</ele>
        <time>2022-04-17T08:06:49Z</time>
        <extensions>
          <gpxtpx:TrackPointExtension xmlns:gpxtpx="http://www.garmin.com/xmlschemas/TrackPointExtension/v1">
            <gpxtpx:hr>126</gpxtpx:hr>
          </gpxtpx:TrackPointExtension>
        </extensions>
      </trkpt>
      <trkpt lat="46.57744" lon="0.22834">
        <ele>132.39999389648</ele>
        <time>2022-04-17T08:06:50Z</time>
        <extensions>
          <gpxtpx:TrackPointExtension xmlns:gpxtpx="http://www.garmin.com/xmlschemas/TrackPointExtension/v1">
            <gpxtpx:hr>128</gpxtpx:hr>
          </gpxtpx:TrackPointExtension>
        </extensions>
      </trkpt>
      <trkpt lat="46.57732" lon="0.22833">
        <ele>132</ele>
        <time>2022-04-17T08:06:52Z</time>
        <extensions>
          <gpxtpx:TrackPointExtension xmlns:gpxtpx="http://www.garmin.com/xmlschemas/TrackPointExtension/v1">
            <gpxtpx:hr>128</gpxtpx:hr>
          </gpxtpx:TrackPointExtension>
        </extensions>
      </trkpt>
      <trkpt lat="46.57726" lon="0.22832">
        <ele>131.80000305176</ele>
        <time>2022-04-17T08:06:53Z</time>
        <extensions>
          <gpxtpx:TrackPointExtension xmlns:gpxtpx="http://www.garmin.com/xmlschemas/TrackPointExtension/v1">
            <gpxtpx:hr>127</gpxtpx:hr>
          </gpxtpx:TrackPointExtension>
        </extensions>
      </trkpt>
      <trkpt lat="46.57721" lon="0.22831">
        <ele>131</ele>
        <time>2022-04-17T08:06:54Z</time>
        <extensions>
          <gpxtpx:TrackPointExtension xmlns:gpxtpx="http://www.garmin.com/xmlschemas/TrackPointExtension/v1">
            <gpxtpx:hr>127</gpxtpx:hr>
          </gpxtpx:TrackPointExtension>
        </extensions>
      </trkpt>
      <trkpt lat="46.57715" lon="0.2283">
        <ele>130.80000305176</ele>
        <time>2022-04-17T08:06:55Z</time>
        <extensions>
          <gpxtpx:TrackPointExtension xmlns:gpxtpx="http://www.garmin.com/xmlschemas/TrackPointExtension/v1">
            <gpxtpx:hr>127</gpxtpx:hr>
          </gpxtpx:TrackPointExtension>
        </extensions>
      </trkpt>
      <trkpt lat="46.57709" lon="0.22829">
        <ele>130</ele>
        <time>2022-04-17T08:06:56Z</time>
        <extensions>
          <gpxtpx:TrackPointExtension xmlns:gpxtpx="http://www.garmin.com/xmlschemas/TrackPointExtension/v1">
            <gpxtpx:hr>127</gpxtpx:hr>
          </gpxtpx:TrackPointExtension>
        </extensions>
      </trkpt>
      <trkpt lat="46.57703" lon="0.22828">
        <ele>129.60000610352</ele>
        <time>2022-04-17T08:06:57Z</time>
        <extensions>
          <gpxtpx:TrackPointExtension xmlns:gpxtpx="http://www.garmin.com/xmlschemas/TrackPointExtension/v1">
            <gpxtpx:hr>127</gpxtpx:hr>
          </gpxtpx:TrackPointExtension>
        </extensions>
      </trkpt>
      <trkpt lat="46.57693" lon="0.22829">
        <ele>129</ele>
        <time>2022-04-17T08:06:59Z</time>
        <extensions>
          <gpxtpx:TrackPointExtension xmlns:gpxtpx="http://www.garmin.com/xmlschemas/TrackPointExtension/v1">
            <gpxtpx:hr>128</gpxtpx:hr>
          </gpxtpx:TrackPointExtension>
        </extensions>
      </trkpt>
      <trkpt lat="46.57688" lon="0.2283">
        <ele>128.60000610352</ele>
        <time>2022-04-17T08:07:00Z</time>
        <extensions>
          <gpxtpx:TrackPointExtension xmlns:gpxtpx="http://www.garmin.com/xmlschemas/TrackPointExtension/v1">
            <gpxtpx:hr>128</gpxtpx:hr>
          </gpxtpx:TrackPointExtension>
        </extensions>
      </trkpt>
      <trkpt lat="46.57683" lon="0.22831">
        <ele>128.19999694824</ele>
        <time>2022-04-17T08:07:01Z</time>
        <extensions>
          <gpxtpx:TrackPointExtension xmlns:gpxtpx="http://www.garmin.com/xmlschemas/TrackPointExtension/v1">
            <gpxtpx:hr>128</gpxtpx:hr>
          </gpxtpx:TrackPointExtension>
        </extensions>
      </trkpt>
      <trkpt lat="46.57672" lon="0.22832">
        <ele>127.40000152588</ele>
        <time>2022-04-17T08:07:03Z</time>
        <extensions>
          <gpxtpx:TrackPointExtension xmlns:gpxtpx="http://www.garmin.com/xmlschemas/TrackPointExtension/v1">
            <gpxtpx:hr>128</gpxtpx:hr>
          </gpxtpx:TrackPointExtension>
        </extensions>
      </trkpt>
      <trkpt lat="46.5766" lon="0.22834">
        <ele>126.59999847412</ele>
        <time>2022-04-17T08:07:05Z</time>
        <extensions>
          <gpxtpx:TrackPointExtension xmlns:gpxtpx="http://www.garmin.com/xmlschemas/TrackPointExtension/v1">
            <gpxtpx:hr>129</gpxtpx:hr>
          </gpxtpx:TrackPointExtension>
        </extensions>
      </trkpt>
      <trkpt lat="46.57652" lon="0.22835">
        <ele>126.40000152588</ele>
        <time>2022-04-17T08:07:06Z</time>
        <extensions>
          <gpxtpx:TrackPointExtension xmlns:gpxtpx="http://www.garmin.com/xmlschemas/TrackPointExtension/v1">
            <gpxtpx:hr>129</gpxtpx:hr>
          </gpxtpx:TrackPointExtension>
        </extensions>
      </trkpt>
      <trkpt lat="46.57645" lon="0.22836">
        <ele>125.59999847412</ele>
        <time>2022-04-17T08:07:07Z</time>
        <extensions>
          <gpxtpx:TrackPointExtension xmlns:gpxtpx="http://www.garmin.com/xmlschemas/TrackPointExtension/v1">
            <gpxtpx:hr>129</gpxtpx:hr>
          </gpxtpx:TrackPointExtension>
        </extensions>
      </trkpt>
      <trkpt lat="46.57633" lon="0.22841">
        <ele>124.80000305176</ele>
        <time>2022-04-17T08:07:09Z</time>
        <extensions>
          <gpxtpx:TrackPointExtension xmlns:gpxtpx="http://www.garmin.com/xmlschemas/TrackPointExtension/v1">
            <gpxtpx:hr>130</gpxtpx:hr>
          </gpxtpx:TrackPointExtension>
        </extensions>
      </trkpt>
      <trkpt lat="46.57628" lon="0.22844">
        <ele>124.19999694824</ele>
        <time>2022-04-17T08:07:10Z</time>
        <extensions>
          <gpxtpx:TrackPointExtension xmlns:gpxtpx="http://www.garmin.com/xmlschemas/TrackPointExtension/v1">
            <gpxtpx:hr>129</gpxtpx:hr>
          </gpxtpx:TrackPointExtension>
        </extensions>
      </trkpt>
      <trkpt lat="46.57623" lon="0.22845">
        <ele>124</ele>
        <time>2022-04-17T08:07:11Z</time>
        <extensions>
          <gpxtpx:TrackPointExtension xmlns:gpxtpx="http://www.garmin.com/xmlschemas/TrackPointExtension/v1">
            <gpxtpx:hr>129</gpxtpx:hr>
          </gpxtpx:TrackPointExtension>
        </extensions>
      </trkpt>
      <trkpt lat="46.57618" lon="0.22847">
        <ele>123.59999847412</ele>
        <time>2022-04-17T08:07:12Z</time>
        <extensions>
          <gpxtpx:TrackPointExtension xmlns:gpxtpx="http://www.garmin.com/xmlschemas/TrackPointExtension/v1">
            <gpxtpx:hr>129</gpxtpx:hr>
          </gpxtpx:TrackPointExtension>
        </extensions>
      </trkpt>
      <trkpt lat="46.57613" lon="0.2285">
        <ele>123.40000152588</ele>
        <time>2022-04-17T08:07:13Z</time>
        <extensions>
          <gpxtpx:TrackPointExtension xmlns:gpxtpx="http://www.garmin.com/xmlschemas/TrackPointExtension/v1">
            <gpxtpx:hr>130</gpxtpx:hr>
          </gpxtpx:TrackPointExtension>
        </extensions>
      </trkpt>
      <trkpt lat="46.57608" lon="0.22853">
        <ele>122.59999847412</ele>
        <time>2022-04-17T08:07:14Z</time>
        <extensions>
          <gpxtpx:TrackPointExtension xmlns:gpxtpx="http://www.garmin.com/xmlschemas/TrackPointExtension/v1">
            <gpxtpx:hr>130</gpxtpx:hr>
          </gpxtpx:TrackPointExtension>
        </extensions>
      </trkpt>
      <trkpt lat="46.57603" lon="0.22858">
        <ele>122.40000152588</ele>
        <time>2022-04-17T08:07:15Z</time>
        <extensions>
          <gpxtpx:TrackPointExtension xmlns:gpxtpx="http://www.garmin.com/xmlschemas/TrackPointExtension/v1">
            <gpxtpx:hr>130</gpxtpx:hr>
          </gpxtpx:TrackPointExtension>
        </extensions>
      </trkpt>
      <trkpt lat="46.5759" lon="0.22868">
        <ele>121.59999847412</ele>
        <time>2022-04-17T08:07:17Z</time>
        <extensions>
          <gpxtpx:TrackPointExtension xmlns:gpxtpx="http://www.garmin.com/xmlschemas/TrackPointExtension/v1">
            <gpxtpx:hr>131</gpxtpx:hr>
          </gpxtpx:TrackPointExtension>
        </extensions>
      </trkpt>
      <trkpt lat="46.5758" lon="0.22876">
        <ele>121.40000152588</ele>
        <time>2022-04-17T08:07:19Z</time>
        <extensions>
          <gpxtpx:TrackPointExtension xmlns:gpxtpx="http://www.garmin.com/xmlschemas/TrackPointExtension/v1">
            <gpxtpx:hr>132</gpxtpx:hr>
          </gpxtpx:TrackPointExtension>
        </extensions>
      </trkpt>
      <trkpt lat="46.57576" lon="0.2288">
        <ele>121.19999694824</ele>
        <time>2022-04-17T08:07:20Z</time>
        <extensions>
          <gpxtpx:TrackPointExtension xmlns:gpxtpx="http://www.garmin.com/xmlschemas/TrackPointExtension/v1">
            <gpxtpx:hr>132</gpxtpx:hr>
          </gpxtpx:TrackPointExtension>
        </extensions>
      </trkpt>
      <trkpt lat="46.5757" lon="0.22884">
        <ele>121.19999694824</ele>
        <time>2022-04-17T08:07:21Z</time>
        <extensions>
          <gpxtpx:TrackPointExtension xmlns:gpxtpx="http://www.garmin.com/xmlschemas/TrackPointExtension/v1">
            <gpxtpx:hr>132</gpxtpx:hr>
          </gpxtpx:TrackPointExtension>
        </extensions>
      </trkpt>
      <trkpt lat="46.57564" lon="0.22887">
        <ele>120.80000305176</ele>
        <time>2022-04-17T08:07:22Z</time>
        <extensions>
          <gpxtpx:TrackPointExtension xmlns:gpxtpx="http://www.garmin.com/xmlschemas/TrackPointExtension/v1">
            <gpxtpx:hr>132</gpxtpx:hr>
          </gpxtpx:TrackPointExtension>
        </extensions>
      </trkpt>
      <trkpt lat="46.57558" lon="0.22891">
        <ele>120.59999847412</ele>
        <time>2022-04-17T08:07:23Z</time>
        <extensions>
          <gpxtpx:TrackPointExtension xmlns:gpxtpx="http://www.garmin.com/xmlschemas/TrackPointExtension/v1">
            <gpxtpx:hr>131</gpxtpx:hr>
          </gpxtpx:TrackPointExtension>
        </extensions>
      </trkpt>
      <trkpt lat="46.57542" lon="0.229">
        <ele>120.19999694824</ele>
        <time>2022-04-17T08:07:25Z</time>
        <extensions>
          <gpxtpx:TrackPointExtension xmlns:gpxtpx="http://www.garmin.com/xmlschemas/TrackPointExtension/v1">
            <gpxtpx:hr>130</gpxtpx:hr>
          </gpxtpx:TrackPointExtension>
        </extensions>
      </trkpt>
      <trkpt lat="46.57536" lon="0.22906">
        <ele>119.59999847412</ele>
        <time>2022-04-17T08:07:26Z</time>
        <extensions>
          <gpxtpx:TrackPointExtension xmlns:gpxtpx="http://www.garmin.com/xmlschemas/TrackPointExtension/v1">
            <gpxtpx:hr>129</gpxtpx:hr>
          </gpxtpx:TrackPointExtension>
        </extensions>
      </trkpt>
      <trkpt lat="46.57528" lon="0.22913">
        <ele>119.40000152588</ele>
        <time>2022-04-17T08:07:27Z</time>
        <extensions>
          <gpxtpx:TrackPointExtension xmlns:gpxtpx="http://www.garmin.com/xmlschemas/TrackPointExtension/v1">
            <gpxtpx:hr>127</gpxtpx:hr>
          </gpxtpx:TrackPointExtension>
        </extensions>
      </trkpt>
      <trkpt lat="46.57523" lon="0.22919">
        <ele>118.80000305176</ele>
        <time>2022-04-17T08:07:28Z</time>
        <extensions>
          <gpxtpx:TrackPointExtension xmlns:gpxtpx="http://www.garmin.com/xmlschemas/TrackPointExtension/v1">
            <gpxtpx:hr>126</gpxtpx:hr>
          </gpxtpx:TrackPointExtension>
        </extensions>
      </trkpt>
      <trkpt lat="46.5752" lon="0.22923">
        <ele>118.59999847412</ele>
        <time>2022-04-17T08:07:29Z</time>
        <extensions>
          <gpxtpx:TrackPointExtension xmlns:gpxtpx="http://www.garmin.com/xmlschemas/TrackPointExtension/v1">
            <gpxtpx:hr>125</gpxtpx:hr>
          </gpxtpx:TrackPointExtension>
        </extensions>
      </trkpt>
      <trkpt lat="46.57516" lon="0.22926">
        <ele>118</ele>
        <time>2022-04-17T08:07:30Z</time>
        <extensions>
          <gpxtpx:TrackPointExtension xmlns:gpxtpx="http://www.garmin.com/xmlschemas/TrackPointExtension/v1">
            <gpxtpx:hr>125</gpxtpx:hr>
          </gpxtpx:TrackPointExtension>
        </extensions>
      </trkpt>
      <trkpt lat="46.57512" lon="0.2293">
        <ele>117.80000305176</ele>
        <time>2022-04-17T08:07:31Z</time>
        <extensions>
          <gpxtpx:TrackPointExtension xmlns:gpxtpx="http://www.garmin.com/xmlschemas/TrackPointExtension/v1">
            <gpxtpx:hr>125</gpxtpx:hr>
          </gpxtpx:TrackPointExtension>
        </extensions>
      </trkpt>
      <trkpt lat="46.57507" lon="0.22935">
        <ele>117.59999847412</ele>
        <time>2022-04-17T08:07:32Z</time>
        <extensions>
          <gpxtpx:TrackPointExtension xmlns:gpxtpx="http://www.garmin.com/xmlschemas/TrackPointExtension/v1">
            <gpxtpx:hr>125</gpxtpx:hr>
          </gpxtpx:TrackPointExtension>
        </extensions>
      </trkpt>
      <trkpt lat="46.5749" lon="0.22954">
        <ele>117</ele>
        <time>2022-04-17T08:07:35Z</time>
        <extensions>
          <gpxtpx:TrackPointExtension xmlns:gpxtpx="http://www.garmin.com/xmlschemas/TrackPointExtension/v1">
            <gpxtpx:hr>126</gpxtpx:hr>
          </gpxtpx:TrackPointExtension>
        </extensions>
      </trkpt>
      <trkpt lat="46.5748" lon="0.22966">
        <ele>116.19999694824</ele>
        <time>2022-04-17T08:07:37Z</time>
        <extensions>
          <gpxtpx:TrackPointExtension xmlns:gpxtpx="http://www.garmin.com/xmlschemas/TrackPointExtension/v1">
            <gpxtpx:hr>129</gpxtpx:hr>
          </gpxtpx:TrackPointExtension>
        </extensions>
      </trkpt>
      <trkpt lat="46.5747" lon="0.22974">
        <ele>115.19999694824</ele>
        <time>2022-04-17T08:07:39Z</time>
        <extensions>
          <gpxtpx:TrackPointExtension xmlns:gpxtpx="http://www.garmin.com/xmlschemas/TrackPointExtension/v1">
            <gpxtpx:hr>131</gpxtpx:hr>
          </gpxtpx:TrackPointExtension>
        </extensions>
      </trkpt>
      <trkpt lat="46.57453" lon="0.22988">
        <ele>114.40000152588</ele>
        <time>2022-04-17T08:07:42Z</time>
        <extensions>
          <gpxtpx:TrackPointExtension xmlns:gpxtpx="http://www.garmin.com/xmlschemas/TrackPointExtension/v1">
            <gpxtpx:hr>131</gpxtpx:hr>
          </gpxtpx:TrackPointExtension>
        </extensions>
      </trkpt>
      <trkpt lat="46.57448" lon="0.22992">
        <ele>114.19999694824</ele>
        <time>2022-04-17T08:07:43Z</time>
        <extensions>
          <gpxtpx:TrackPointExtension xmlns:gpxtpx="http://www.garmin.com/xmlschemas/TrackPointExtension/v1">
            <gpxtpx:hr>132</gpxtpx:hr>
          </gpxtpx:TrackPointExtension>
        </extensions>
      </trkpt>
      <trkpt lat="46.57443" lon="0.22994">
        <ele>113.80000305176</ele>
        <time>2022-04-17T08:07:44Z</time>
        <extensions>
          <gpxtpx:TrackPointExtension xmlns:gpxtpx="http://www.garmin.com/xmlschemas/TrackPointExtension/v1">
            <gpxtpx:hr>132</gpxtpx:hr>
          </gpxtpx:TrackPointExtension>
        </extensions>
      </trkpt>
      <trkpt lat="46.57439" lon="0.22997">
        <ele>113.59999847412</ele>
        <time>2022-04-17T08:07:45Z</time>
        <extensions>
          <gpxtpx:TrackPointExtension xmlns:gpxtpx="http://www.garmin.com/xmlschemas/TrackPointExtension/v1">
            <gpxtpx:hr>132</gpxtpx:hr>
          </gpxtpx:TrackPointExtension>
        </extensions>
      </trkpt>
      <trkpt lat="46.57435" lon="0.22999">
        <ele>113.19999694824</ele>
        <time>2022-04-17T08:07:46Z</time>
        <extensions>
          <gpxtpx:TrackPointExtension xmlns:gpxtpx="http://www.garmin.com/xmlschemas/TrackPointExtension/v1">
            <gpxtpx:hr>131</gpxtpx:hr>
          </gpxtpx:TrackPointExtension>
        </extensions>
      </trkpt>
      <trkpt lat="46.5743" lon="0.23003">
        <ele>113</ele>
        <time>2022-04-17T08:07:47Z</time>
        <extensions>
          <gpxtpx:TrackPointExtension xmlns:gpxtpx="http://www.garmin.com/xmlschemas/TrackPointExtension/v1">
            <gpxtpx:hr>131</gpxtpx:hr>
          </gpxtpx:TrackPointExtension>
        </extensions>
      </trkpt>
      <trkpt lat="46.57421" lon="0.23013">
        <ele>112.59999847412</ele>
        <time>2022-04-17T08:07:49Z</time>
        <extensions>
          <gpxtpx:TrackPointExtension xmlns:gpxtpx="http://www.garmin.com/xmlschemas/TrackPointExtension/v1">
            <gpxtpx:hr>129</gpxtpx:hr>
          </gpxtpx:TrackPointExtension>
        </extensions>
      </trkpt>
      <trkpt lat="46.57418" lon="0.23019">
        <ele>112.19999694824</ele>
        <time>2022-04-17T08:07:50Z</time>
        <extensions>
          <gpxtpx:TrackPointExtension xmlns:gpxtpx="http://www.garmin.com/xmlschemas/TrackPointExtension/v1">
            <gpxtpx:hr>130</gpxtpx:hr>
          </gpxtpx:TrackPointExtension>
        </extensions>
      </trkpt>
      <trkpt lat="46.5741" lon="0.23032">
        <ele>111.40000152588</ele>
        <time>2022-04-17T08:07:52Z</time>
        <extensions>
          <gpxtpx:TrackPointExtension xmlns:gpxtpx="http://www.garmin.com/xmlschemas/TrackPointExtension/v1">
            <gpxtpx:hr>130</gpxtpx:hr>
          </gpxtpx:TrackPointExtension>
        </extensions>
      </trkpt>
      <trkpt lat="46.57406" lon="0.23039">
        <ele>110.40000152588</ele>
        <time>2022-04-17T08:07:53Z</time>
        <extensions>
          <gpxtpx:TrackPointExtension xmlns:gpxtpx="http://www.garmin.com/xmlschemas/TrackPointExtension/v1">
            <gpxtpx:hr>130</gpxtpx:hr>
          </gpxtpx:TrackPointExtension>
        </extensions>
      </trkpt>
      <trkpt lat="46.57396" lon="0.23059">
        <ele>109.19999694824</ele>
        <time>2022-04-17T08:07:56Z</time>
        <extensions>
          <gpxtpx:TrackPointExtension xmlns:gpxtpx="http://www.garmin.com/xmlschemas/TrackPointExtension/v1">
            <gpxtpx:hr>129</gpxtpx:hr>
          </gpxtpx:TrackPointExtension>
        </extensions>
      </trkpt>
      <trkpt lat="46.57395" lon="0.23066">
        <ele>108.59999847412</ele>
        <time>2022-04-17T08:07:57Z</time>
        <extensions>
          <gpxtpx:TrackPointExtension xmlns:gpxtpx="http://www.garmin.com/xmlschemas/TrackPointExtension/v1">
            <gpxtpx:hr>130</gpxtpx:hr>
          </gpxtpx:TrackPointExtension>
        </extensions>
      </trkpt>
      <trkpt lat="46.57395" lon="0.23072">
        <ele>108</ele>
        <time>2022-04-17T08:07:58Z</time>
        <extensions>
          <gpxtpx:TrackPointExtension xmlns:gpxtpx="http://www.garmin.com/xmlschemas/TrackPointExtension/v1">
            <gpxtpx:hr>130</gpxtpx:hr>
          </gpxtpx:TrackPointExtension>
        </extensions>
      </trkpt>
      <trkpt lat="46.57395" lon="0.23079">
        <ele>107.80000305176</ele>
        <time>2022-04-17T08:07:59Z</time>
        <extensions>
          <gpxtpx:TrackPointExtension xmlns:gpxtpx="http://www.garmin.com/xmlschemas/TrackPointExtension/v1">
            <gpxtpx:hr>130</gpxtpx:hr>
          </gpxtpx:TrackPointExtension>
        </extensions>
      </trkpt>
      <trkpt lat="46.57393" lon="0.23087">
        <ele>107.40000152588</ele>
        <time>2022-04-17T08:08:00Z</time>
        <extensions>
          <gpxtpx:TrackPointExtension xmlns:gpxtpx="http://www.garmin.com/xmlschemas/TrackPointExtension/v1">
            <gpxtpx:hr>130</gpxtpx:hr>
          </gpxtpx:TrackPointExtension>
        </extensions>
      </trkpt>
      <trkpt lat="46.57391" lon="0.23094">
        <ele>107</ele>
        <time>2022-04-17T08:08:01Z</time>
        <extensions>
          <gpxtpx:TrackPointExtension xmlns:gpxtpx="http://www.garmin.com/xmlschemas/TrackPointExtension/v1">
            <gpxtpx:hr>131</gpxtpx:hr>
          </gpxtpx:TrackPointExtension>
        </extensions>
      </trkpt>
      <trkpt lat="46.57389" lon="0.23098">
        <ele>106.80000305176</ele>
        <time>2022-04-17T08:08:02Z</time>
        <extensions>
          <gpxtpx:TrackPointExtension xmlns:gpxtpx="http://www.garmin.com/xmlschemas/TrackPointExtension/v1">
            <gpxtpx:hr>130</gpxtpx:hr>
          </gpxtpx:TrackPointExtension>
        </extensions>
      </trkpt>
      <trkpt lat="46.57388" lon="0.23102">
        <ele>106.40000152588</ele>
        <time>2022-04-17T08:08:03Z</time>
        <extensions>
          <gpxtpx:TrackPointExtension xmlns:gpxtpx="http://www.garmin.com/xmlschemas/TrackPointExtension/v1">
            <gpxtpx:hr>131</gpxtpx:hr>
          </gpxtpx:TrackPointExtension>
        </extensions>
      </trkpt>
      <trkpt lat="46.57388" lon="0.23105">
        <ele>105.80000305176</ele>
        <time>2022-04-17T08:08:04Z</time>
        <extensions>
          <gpxtpx:TrackPointExtension xmlns:gpxtpx="http://www.garmin.com/xmlschemas/TrackPointExtension/v1">
            <gpxtpx:hr>131</gpxtpx:hr>
          </gpxtpx:TrackPointExtension>
        </extensions>
      </trkpt>
      <trkpt lat="46.57388" lon="0.23107">
        <ele>105.40000152588</ele>
        <time>2022-04-17T08:08:05Z</time>
        <extensions>
          <gpxtpx:TrackPointExtension xmlns:gpxtpx="http://www.garmin.com/xmlschemas/TrackPointExtension/v1">
            <gpxtpx:hr>131</gpxtpx:hr>
          </gpxtpx:TrackPointExtension>
        </extensions>
      </trkpt>
      <trkpt lat="46.57388" lon="0.23111">
        <ele>105.40000152588</ele>
        <time>2022-04-17T08:08:06Z</time>
        <extensions>
          <gpxtpx:TrackPointExtension xmlns:gpxtpx="http://www.garmin.com/xmlschemas/TrackPointExtension/v1">
            <gpxtpx:hr>131</gpxtpx:hr>
          </gpxtpx:TrackPointExtension>
        </extensions>
      </trkpt>
      <trkpt lat="46.57389" lon="0.23112">
        <ele>104.80000305176</ele>
        <time>2022-04-17T08:08:08Z</time>
        <extensions>
          <gpxtpx:TrackPointExtension xmlns:gpxtpx="http://www.garmin.com/xmlschemas/TrackPointExtension/v1">
            <gpxtpx:hr>132</gpxtpx:hr>
          </gpxtpx:TrackPointExtension>
        </extensions>
      </trkpt>
      <trkpt lat="46.5739" lon="0.2312">
        <ele>104</ele>
        <time>2022-04-17T08:08:29Z</time>
        <extensions>
          <gpxtpx:TrackPointExtension xmlns:gpxtpx="http://www.garmin.com/xmlschemas/TrackPointExtension/v1">
            <gpxtpx:hr>124</gpxtpx:hr>
          </gpxtpx:TrackPointExtension>
        </extensions>
      </trkpt>
      <trkpt lat="46.5739" lon="0.23124">
        <ele>103.80000305176</ele>
        <time>2022-04-17T08:08:30Z</time>
        <extensions>
          <gpxtpx:TrackPointExtension xmlns:gpxtpx="http://www.garmin.com/xmlschemas/TrackPointExtension/v1">
            <gpxtpx:hr>124</gpxtpx:hr>
          </gpxtpx:TrackPointExtension>
        </extensions>
      </trkpt>
      <trkpt lat="46.5739" lon="0.23126">
        <ele>103.80000305176</ele>
        <time>2022-04-17T08:08:31Z</time>
        <extensions>
          <gpxtpx:TrackPointExtension xmlns:gpxtpx="http://www.garmin.com/xmlschemas/TrackPointExtension/v1">
            <gpxtpx:hr>124</gpxtpx:hr>
          </gpxtpx:TrackPointExtension>
        </extensions>
      </trkpt>
      <trkpt lat="46.5739" lon="0.23129">
        <ele>103.80000305176</ele>
        <time>2022-04-17T08:08:32Z</time>
        <extensions>
          <gpxtpx:TrackPointExtension xmlns:gpxtpx="http://www.garmin.com/xmlschemas/TrackPointExtension/v1">
            <gpxtpx:hr>124</gpxtpx:hr>
          </gpxtpx:TrackPointExtension>
        </extensions>
      </trkpt>
      <trkpt lat="46.5739" lon="0.23131">
        <ele>103.59999847412</ele>
        <time>2022-04-17T08:08:33Z</time>
        <extensions>
          <gpxtpx:TrackPointExtension xmlns:gpxtpx="http://www.garmin.com/xmlschemas/TrackPointExtension/v1">
            <gpxtpx:hr>124</gpxtpx:hr>
          </gpxtpx:TrackPointExtension>
        </extensions>
      </trkpt>
      <trkpt lat="46.57391" lon="0.23134">
        <ele>103.59999847412</ele>
        <time>2022-04-17T08:08:34Z</time>
        <extensions>
          <gpxtpx:TrackPointExtension xmlns:gpxtpx="http://www.garmin.com/xmlschemas/TrackPointExtension/v1">
            <gpxtpx:hr>124</gpxtpx:hr>
          </gpxtpx:TrackPointExtension>
        </extensions>
      </trkpt>
      <trkpt lat="46.57391" lon="0.2314">
        <ele>103.19999694824</ele>
        <time>2022-04-17T08:08:36Z</time>
        <extensions>
          <gpxtpx:TrackPointExtension xmlns:gpxtpx="http://www.garmin.com/xmlschemas/TrackPointExtension/v1">
            <gpxtpx:hr>124</gpxtpx:hr>
          </gpxtpx:TrackPointExtension>
        </extensions>
      </trkpt>
      <trkpt lat="46.57394" lon="0.23149">
        <ele>103</ele>
        <time>2022-04-17T08:08:39Z</time>
        <extensions>
          <gpxtpx:TrackPointExtension xmlns:gpxtpx="http://www.garmin.com/xmlschemas/TrackPointExtension/v1">
            <gpxtpx:hr>124</gpxtpx:hr>
          </gpxtpx:TrackPointExtension>
        </extensions>
      </trkpt>
      <trkpt lat="46.57396" lon="0.23152">
        <ele>103</ele>
        <time>2022-04-17T08:08:40Z</time>
        <extensions>
          <gpxtpx:TrackPointExtension xmlns:gpxtpx="http://www.garmin.com/xmlschemas/TrackPointExtension/v1">
            <gpxtpx:hr>123</gpxtpx:hr>
          </gpxtpx:TrackPointExtension>
        </extensions>
      </trkpt>
      <trkpt lat="46.57398" lon="0.23154">
        <ele>102.80000305176</ele>
        <time>2022-04-17T08:08:41Z</time>
        <extensions>
          <gpxtpx:TrackPointExtension xmlns:gpxtpx="http://www.garmin.com/xmlschemas/TrackPointExtension/v1">
            <gpxtpx:hr>123</gpxtpx:hr>
          </gpxtpx:TrackPointExtension>
        </extensions>
      </trkpt>
      <trkpt lat="46.574" lon="0.23157">
        <ele>102.59999847412</ele>
        <time>2022-04-17T08:08:42Z</time>
        <extensions>
          <gpxtpx:TrackPointExtension xmlns:gpxtpx="http://www.garmin.com/xmlschemas/TrackPointExtension/v1">
            <gpxtpx:hr>123</gpxtpx:hr>
          </gpxtpx:TrackPointExtension>
        </extensions>
      </trkpt>
      <trkpt lat="46.57407" lon="0.23171">
        <ele>102.19999694824</ele>
        <time>2022-04-17T08:08:45Z</time>
        <extensions>
          <gpxtpx:TrackPointExtension xmlns:gpxtpx="http://www.garmin.com/xmlschemas/TrackPointExtension/v1">
            <gpxtpx:hr>122</gpxtpx:hr>
          </gpxtpx:TrackPointExtension>
        </extensions>
      </trkpt>
      <trkpt lat="46.57418" lon="0.23201">
        <ele>101.80000305176</ele>
        <time>2022-04-17T08:08:50Z</time>
        <extensions>
          <gpxtpx:TrackPointExtension xmlns:gpxtpx="http://www.garmin.com/xmlschemas/TrackPointExtension/v1">
            <gpxtpx:hr>119</gpxtpx:hr>
          </gpxtpx:TrackPointExtension>
        </extensions>
      </trkpt>
      <trkpt lat="46.57421" lon="0.23206">
        <ele>101.59999847412</ele>
        <time>2022-04-17T08:08:51Z</time>
        <extensions>
          <gpxtpx:TrackPointExtension xmlns:gpxtpx="http://www.garmin.com/xmlschemas/TrackPointExtension/v1">
            <gpxtpx:hr>118</gpxtpx:hr>
          </gpxtpx:TrackPointExtension>
        </extensions>
      </trkpt>
      <trkpt lat="46.57423" lon="0.2321">
        <ele>101.40000152588</ele>
        <time>2022-04-17T08:08:52Z</time>
        <extensions>
          <gpxtpx:TrackPointExtension xmlns:gpxtpx="http://www.garmin.com/xmlschemas/TrackPointExtension/v1">
            <gpxtpx:hr>117</gpxtpx:hr>
          </gpxtpx:TrackPointExtension>
        </extensions>
      </trkpt>
      <trkpt lat="46.57439" lon="0.23229">
        <ele>101.19999694824</ele>
        <time>2022-04-17T08:08:56Z</time>
        <extensions>
          <gpxtpx:TrackPointExtension xmlns:gpxtpx="http://www.garmin.com/xmlschemas/TrackPointExtension/v1">
            <gpxtpx:hr>115</gpxtpx:hr>
          </gpxtpx:TrackPointExtension>
        </extensions>
      </trkpt>
      <trkpt lat="46.57448" lon="0.23251">
        <ele>101.19999694824</ele>
        <time>2022-04-17T08:08:59Z</time>
        <extensions>
          <gpxtpx:TrackPointExtension xmlns:gpxtpx="http://www.garmin.com/xmlschemas/TrackPointExtension/v1">
            <gpxtpx:hr>114</gpxtpx:hr>
          </gpxtpx:TrackPointExtension>
        </extensions>
      </trkpt>
      <trkpt lat="46.57449" lon="0.23258">
        <ele>101.19999694824</ele>
        <time>2022-04-17T08:09:00Z</time>
        <extensions>
          <gpxtpx:TrackPointExtension xmlns:gpxtpx="http://www.garmin.com/xmlschemas/TrackPointExtension/v1">
            <gpxtpx:hr>115</gpxtpx:hr>
          </gpxtpx:TrackPointExtension>
        </extensions>
      </trkpt>
      <trkpt lat="46.57451" lon="0.23264">
        <ele>101.19999694824</ele>
        <time>2022-04-17T08:09:01Z</time>
        <extensions>
          <gpxtpx:TrackPointExtension xmlns:gpxtpx="http://www.garmin.com/xmlschemas/TrackPointExtension/v1">
            <gpxtpx:hr>115</gpxtpx:hr>
          </gpxtpx:TrackPointExtension>
        </extensions>
      </trkpt>
      <trkpt lat="46.57454" lon="0.23269">
        <ele>101.19999694824</ele>
        <time>2022-04-17T08:09:02Z</time>
        <extensions>
          <gpxtpx:TrackPointExtension xmlns:gpxtpx="http://www.garmin.com/xmlschemas/TrackPointExtension/v1">
            <gpxtpx:hr>116</gpxtpx:hr>
          </gpxtpx:TrackPointExtension>
        </extensions>
      </trkpt>
      <trkpt lat="46.57455" lon="0.23274">
        <ele>101.19999694824</ele>
        <time>2022-04-17T08:09:03Z</time>
        <extensions>
          <gpxtpx:TrackPointExtension xmlns:gpxtpx="http://www.garmin.com/xmlschemas/TrackPointExtension/v1">
            <gpxtpx:hr>116</gpxtpx:hr>
          </gpxtpx:TrackPointExtension>
        </extensions>
      </trkpt>
      <trkpt lat="46.57466" lon="0.23297">
        <ele>101.19999694824</ele>
        <time>2022-04-17T08:09:06Z</time>
        <extensions>
          <gpxtpx:TrackPointExtension xmlns:gpxtpx="http://www.garmin.com/xmlschemas/TrackPointExtension/v1">
            <gpxtpx:hr>121</gpxtpx:hr>
          </gpxtpx:TrackPointExtension>
        </extensions>
      </trkpt>
      <trkpt lat="46.57468" lon="0.23305">
        <ele>101.19999694824</ele>
        <time>2022-04-17T08:09:07Z</time>
        <extensions>
          <gpxtpx:TrackPointExtension xmlns:gpxtpx="http://www.garmin.com/xmlschemas/TrackPointExtension/v1">
            <gpxtpx:hr>124</gpxtpx:hr>
          </gpxtpx:TrackPointExtension>
        </extensions>
      </trkpt>
      <trkpt lat="46.57476" lon="0.23327">
        <ele>101.40000152588</ele>
        <time>2022-04-17T08:09:10Z</time>
        <extensions>
          <gpxtpx:TrackPointExtension xmlns:gpxtpx="http://www.garmin.com/xmlschemas/TrackPointExtension/v1">
            <gpxtpx:hr>126</gpxtpx:hr>
          </gpxtpx:TrackPointExtension>
        </extensions>
      </trkpt>
      <trkpt lat="46.5748" lon="0.23344">
        <ele>101.40000152588</ele>
        <time>2022-04-17T08:09:12Z</time>
        <extensions>
          <gpxtpx:TrackPointExtension xmlns:gpxtpx="http://www.garmin.com/xmlschemas/TrackPointExtension/v1">
            <gpxtpx:hr>127</gpxtpx:hr>
          </gpxtpx:TrackPointExtension>
        </extensions>
      </trkpt>
      <trkpt lat="46.57481" lon="0.23353">
        <ele>101.40000152588</ele>
        <time>2022-04-17T08:09:13Z</time>
        <extensions>
          <gpxtpx:TrackPointExtension xmlns:gpxtpx="http://www.garmin.com/xmlschemas/TrackPointExtension/v1">
            <gpxtpx:hr>126</gpxtpx:hr>
          </gpxtpx:TrackPointExtension>
        </extensions>
      </trkpt>
      <trkpt lat="46.57486" lon="0.2338">
        <ele>101.40000152588</ele>
        <time>2022-04-17T08:09:16Z</time>
        <extensions>
          <gpxtpx:TrackPointExtension xmlns:gpxtpx="http://www.garmin.com/xmlschemas/TrackPointExtension/v1">
            <gpxtpx:hr>125</gpxtpx:hr>
          </gpxtpx:TrackPointExtension>
        </extensions>
      </trkpt>
      <trkpt lat="46.57491" lon="0.23409">
        <ele>101.19999694824</ele>
        <time>2022-04-17T08:09:20Z</time>
        <extensions>
          <gpxtpx:TrackPointExtension xmlns:gpxtpx="http://www.garmin.com/xmlschemas/TrackPointExtension/v1">
            <gpxtpx:hr>123</gpxtpx:hr>
          </gpxtpx:TrackPointExtension>
        </extensions>
      </trkpt>
      <trkpt lat="46.57499" lon="0.23439">
        <ele>101</ele>
        <time>2022-04-17T08:09:24Z</time>
        <extensions>
          <gpxtpx:TrackPointExtension xmlns:gpxtpx="http://www.garmin.com/xmlschemas/TrackPointExtension/v1">
            <gpxtpx:hr>125</gpxtpx:hr>
          </gpxtpx:TrackPointExtension>
        </extensions>
      </trkpt>
      <trkpt lat="46.57506" lon="0.23477">
        <ele>100.80000305176</ele>
        <time>2022-04-17T08:09:29Z</time>
        <extensions>
          <gpxtpx:TrackPointExtension xmlns:gpxtpx="http://www.garmin.com/xmlschemas/TrackPointExtension/v1">
            <gpxtpx:hr>126</gpxtpx:hr>
          </gpxtpx:TrackPointExtension>
        </extensions>
      </trkpt>
      <trkpt lat="46.57508" lon="0.23484">
        <ele>100.80000305176</ele>
        <time>2022-04-17T08:09:30Z</time>
        <extensions>
          <gpxtpx:TrackPointExtension xmlns:gpxtpx="http://www.garmin.com/xmlschemas/TrackPointExtension/v1">
            <gpxtpx:hr>127</gpxtpx:hr>
          </gpxtpx:TrackPointExtension>
        </extensions>
      </trkpt>
      <trkpt lat="46.5751" lon="0.23499">
        <ele>100.80000305176</ele>
        <time>2022-04-17T08:09:32Z</time>
        <extensions>
          <gpxtpx:TrackPointExtension xmlns:gpxtpx="http://www.garmin.com/xmlschemas/TrackPointExtension/v1">
            <gpxtpx:hr>128</gpxtpx:hr>
          </gpxtpx:TrackPointExtension>
        </extensions>
      </trkpt>
      <trkpt lat="46.57511" lon="0.23506">
        <ele>100.80000305176</ele>
        <time>2022-04-17T08:09:33Z</time>
        <extensions>
          <gpxtpx:TrackPointExtension xmlns:gpxtpx="http://www.garmin.com/xmlschemas/TrackPointExtension/v1">
            <gpxtpx:hr>129</gpxtpx:hr>
          </gpxtpx:TrackPointExtension>
        </extensions>
      </trkpt>
      <trkpt lat="46.57512" lon="0.23513">
        <ele>100.80000305176</ele>
        <time>2022-04-17T08:09:34Z</time>
        <extensions>
          <gpxtpx:TrackPointExtension xmlns:gpxtpx="http://www.garmin.com/xmlschemas/TrackPointExtension/v1">
            <gpxtpx:hr>129</gpxtpx:hr>
          </gpxtpx:TrackPointExtension>
        </extensions>
      </trkpt>
      <trkpt lat="46.57513" lon="0.23521">
        <ele>100.59999847412</ele>
        <time>2022-04-17T08:09:35Z</time>
        <extensions>
          <gpxtpx:TrackPointExtension xmlns:gpxtpx="http://www.garmin.com/xmlschemas/TrackPointExtension/v1">
            <gpxtpx:hr>129</gpxtpx:hr>
          </gpxtpx:TrackPointExtension>
        </extensions>
      </trkpt>
      <trkpt lat="46.57513" lon="0.23529">
        <ele>100.40000152588</ele>
        <time>2022-04-17T08:09:36Z</time>
        <extensions>
          <gpxtpx:TrackPointExtension xmlns:gpxtpx="http://www.garmin.com/xmlschemas/TrackPointExtension/v1">
            <gpxtpx:hr>129</gpxtpx:hr>
          </gpxtpx:TrackPointExtension>
        </extensions>
      </trkpt>
      <trkpt lat="46.57515" lon="0.23545">
        <ele>100.19999694824</ele>
        <time>2022-04-17T08:09:38Z</time>
        <extensions>
          <gpxtpx:TrackPointExtension xmlns:gpxtpx="http://www.garmin.com/xmlschemas/TrackPointExtension/v1">
            <gpxtpx:hr>129</gpxtpx:hr>
          </gpxtpx:TrackPointExtension>
        </extensions>
      </trkpt>
      <trkpt lat="46.57517" lon="0.2356">
        <ele>100</ele>
        <time>2022-04-17T08:09:40Z</time>
        <extensions>
          <gpxtpx:TrackPointExtension xmlns:gpxtpx="http://www.garmin.com/xmlschemas/TrackPointExtension/v1">
            <gpxtpx:hr>128</gpxtpx:hr>
          </gpxtpx:TrackPointExtension>
        </extensions>
      </trkpt>
      <trkpt lat="46.5752" lon="0.23613">
        <ele>99.599998474121</ele>
        <time>2022-04-17T08:09:47Z</time>
        <extensions>
          <gpxtpx:TrackPointExtension xmlns:gpxtpx="http://www.garmin.com/xmlschemas/TrackPointExtension/v1">
            <gpxtpx:hr>128</gpxtpx:hr>
          </gpxtpx:TrackPointExtension>
        </extensions>
      </trkpt>
      <trkpt lat="46.57521" lon="0.23628">
        <ele>99.599998474121</ele>
        <time>2022-04-17T08:09:49Z</time>
        <extensions>
          <gpxtpx:TrackPointExtension xmlns:gpxtpx="http://www.garmin.com/xmlschemas/TrackPointExtension/v1">
            <gpxtpx:hr>128</gpxtpx:hr>
          </gpxtpx:TrackPointExtension>
        </extensions>
      </trkpt>
      <trkpt lat="46.57521" lon="0.23643">
        <ele>99.599998474121</ele>
        <time>2022-04-17T08:09:51Z</time>
        <extensions>
          <gpxtpx:TrackPointExtension xmlns:gpxtpx="http://www.garmin.com/xmlschemas/TrackPointExtension/v1">
            <gpxtpx:hr>128</gpxtpx:hr>
          </gpxtpx:TrackPointExtension>
        </extensions>
      </trkpt>
      <trkpt lat="46.5752" lon="0.23656">
        <ele>99.599998474121</ele>
        <time>2022-04-17T08:09:53Z</time>
        <extensions>
          <gpxtpx:TrackPointExtension xmlns:gpxtpx="http://www.garmin.com/xmlschemas/TrackPointExtension/v1">
            <gpxtpx:hr>127</gpxtpx:hr>
          </gpxtpx:TrackPointExtension>
        </extensions>
      </trkpt>
      <trkpt lat="46.5752" lon="0.23663">
        <ele>99.599998474121</ele>
        <time>2022-04-17T08:09:54Z</time>
        <extensions>
          <gpxtpx:TrackPointExtension xmlns:gpxtpx="http://www.garmin.com/xmlschemas/TrackPointExtension/v1">
            <gpxtpx:hr>127</gpxtpx:hr>
          </gpxtpx:TrackPointExtension>
        </extensions>
      </trkpt>
      <trkpt lat="46.57521" lon="0.23669">
        <ele>99.599998474121</ele>
        <time>2022-04-17T08:09:55Z</time>
        <extensions>
          <gpxtpx:TrackPointExtension xmlns:gpxtpx="http://www.garmin.com/xmlschemas/TrackPointExtension/v1">
            <gpxtpx:hr>127</gpxtpx:hr>
          </gpxtpx:TrackPointExtension>
        </extensions>
      </trkpt>
      <trkpt lat="46.5752" lon="0.23697">
        <ele>99.599998474121</ele>
        <time>2022-04-17T08:09:59Z</time>
        <extensions>
          <gpxtpx:TrackPointExtension xmlns:gpxtpx="http://www.garmin.com/xmlschemas/TrackPointExtension/v1">
            <gpxtpx:hr>126</gpxtpx:hr>
          </gpxtpx:TrackPointExtension>
        </extensions>
      </trkpt>
      <trkpt lat="46.5752" lon="0.23704">
        <ele>99.599998474121</ele>
        <time>2022-04-17T08:10:00Z</time>
        <extensions>
          <gpxtpx:TrackPointExtension xmlns:gpxtpx="http://www.garmin.com/xmlschemas/TrackPointExtension/v1">
            <gpxtpx:hr>125</gpxtpx:hr>
          </gpxtpx:TrackPointExtension>
        </extensions>
      </trkpt>
      <trkpt lat="46.5752" lon="0.23711">
        <ele>99.599998474121</ele>
        <time>2022-04-17T08:10:01Z</time>
        <extensions>
          <gpxtpx:TrackPointExtension xmlns:gpxtpx="http://www.garmin.com/xmlschemas/TrackPointExtension/v1">
            <gpxtpx:hr>125</gpxtpx:hr>
          </gpxtpx:TrackPointExtension>
        </extensions>
      </trkpt>
      <trkpt lat="46.5752" lon="0.23718">
        <ele>99.599998474121</ele>
        <time>2022-04-17T08:10:02Z</time>
        <extensions>
          <gpxtpx:TrackPointExtension xmlns:gpxtpx="http://www.garmin.com/xmlschemas/TrackPointExtension/v1">
            <gpxtpx:hr>125</gpxtpx:hr>
          </gpxtpx:TrackPointExtension>
        </extensions>
      </trkpt>
      <trkpt lat="46.57519" lon="0.23726">
        <ele>99.599998474121</ele>
        <time>2022-04-17T08:10:03Z</time>
        <extensions>
          <gpxtpx:TrackPointExtension xmlns:gpxtpx="http://www.garmin.com/xmlschemas/TrackPointExtension/v1">
            <gpxtpx:hr>125</gpxtpx:hr>
          </gpxtpx:TrackPointExtension>
        </extensions>
      </trkpt>
      <trkpt lat="46.57517" lon="0.23747">
        <ele>99.400001525879</ele>
        <time>2022-04-17T08:10:06Z</time>
        <extensions>
          <gpxtpx:TrackPointExtension xmlns:gpxtpx="http://www.garmin.com/xmlschemas/TrackPointExtension/v1">
            <gpxtpx:hr>124</gpxtpx:hr>
          </gpxtpx:TrackPointExtension>
        </extensions>
      </trkpt>
      <trkpt lat="46.57516" lon="0.23755">
        <ele>99.199996948242</ele>
        <time>2022-04-17T08:10:07Z</time>
        <extensions>
          <gpxtpx:TrackPointExtension xmlns:gpxtpx="http://www.garmin.com/xmlschemas/TrackPointExtension/v1">
            <gpxtpx:hr>124</gpxtpx:hr>
          </gpxtpx:TrackPointExtension>
        </extensions>
      </trkpt>
      <trkpt lat="46.5751" lon="0.23792">
        <ele>99.199996948242</ele>
        <time>2022-04-17T08:10:12Z</time>
        <extensions>
          <gpxtpx:TrackPointExtension xmlns:gpxtpx="http://www.garmin.com/xmlschemas/TrackPointExtension/v1">
            <gpxtpx:hr>122</gpxtpx:hr>
          </gpxtpx:TrackPointExtension>
        </extensions>
      </trkpt>
      <trkpt lat="46.57509" lon="0.23799">
        <ele>99.199996948242</ele>
        <time>2022-04-17T08:10:13Z</time>
        <extensions>
          <gpxtpx:TrackPointExtension xmlns:gpxtpx="http://www.garmin.com/xmlschemas/TrackPointExtension/v1">
            <gpxtpx:hr>121</gpxtpx:hr>
          </gpxtpx:TrackPointExtension>
        </extensions>
      </trkpt>
      <trkpt lat="46.57508" lon="0.23805">
        <ele>99.199996948242</ele>
        <time>2022-04-17T08:10:14Z</time>
        <extensions>
          <gpxtpx:TrackPointExtension xmlns:gpxtpx="http://www.garmin.com/xmlschemas/TrackPointExtension/v1">
            <gpxtpx:hr>121</gpxtpx:hr>
          </gpxtpx:TrackPointExtension>
        </extensions>
      </trkpt>
      <trkpt lat="46.57507" lon="0.23809">
        <ele>99.199996948242</ele>
        <time>2022-04-17T08:10:15Z</time>
        <extensions>
          <gpxtpx:TrackPointExtension xmlns:gpxtpx="http://www.garmin.com/xmlschemas/TrackPointExtension/v1">
            <gpxtpx:hr>120</gpxtpx:hr>
          </gpxtpx:TrackPointExtension>
        </extensions>
      </trkpt>
      <trkpt lat="46.57504" lon="0.23821">
        <ele>99</ele>
        <time>2022-04-17T08:10:17Z</time>
        <extensions>
          <gpxtpx:TrackPointExtension xmlns:gpxtpx="http://www.garmin.com/xmlschemas/TrackPointExtension/v1">
            <gpxtpx:hr>120</gpxtpx:hr>
          </gpxtpx:TrackPointExtension>
        </extensions>
      </trkpt>
      <trkpt lat="46.575" lon="0.2383">
        <ele>99.199996948242</ele>
        <time>2022-04-17T08:10:18Z</time>
        <extensions>
          <gpxtpx:TrackPointExtension xmlns:gpxtpx="http://www.garmin.com/xmlschemas/TrackPointExtension/v1">
            <gpxtpx:hr>121</gpxtpx:hr>
          </gpxtpx:TrackPointExtension>
        </extensions>
      </trkpt>
      <trkpt lat="46.57495" lon="0.23839">
        <ele>99.199996948242</ele>
        <time>2022-04-17T08:10:19Z</time>
        <extensions>
          <gpxtpx:TrackPointExtension xmlns:gpxtpx="http://www.garmin.com/xmlschemas/TrackPointExtension/v1">
            <gpxtpx:hr>121</gpxtpx:hr>
          </gpxtpx:TrackPointExtension>
        </extensions>
      </trkpt>
      <trkpt lat="46.57492" lon="0.23846">
        <ele>99.400001525879</ele>
        <time>2022-04-17T08:10:20Z</time>
        <extensions>
          <gpxtpx:TrackPointExtension xmlns:gpxtpx="http://www.garmin.com/xmlschemas/TrackPointExtension/v1">
            <gpxtpx:hr>121</gpxtpx:hr>
          </gpxtpx:TrackPointExtension>
        </extensions>
      </trkpt>
      <trkpt lat="46.57488" lon="0.23853">
        <ele>99.400001525879</ele>
        <time>2022-04-17T08:10:21Z</time>
        <extensions>
          <gpxtpx:TrackPointExtension xmlns:gpxtpx="http://www.garmin.com/xmlschemas/TrackPointExtension/v1">
            <gpxtpx:hr>122</gpxtpx:hr>
          </gpxtpx:TrackPointExtension>
        </extensions>
      </trkpt>
      <trkpt lat="46.57485" lon="0.2386">
        <ele>99.199996948242</ele>
        <time>2022-04-17T08:10:22Z</time>
        <extensions>
          <gpxtpx:TrackPointExtension xmlns:gpxtpx="http://www.garmin.com/xmlschemas/TrackPointExtension/v1">
            <gpxtpx:hr>122</gpxtpx:hr>
          </gpxtpx:TrackPointExtension>
        </extensions>
      </trkpt>
      <trkpt lat="46.57481" lon="0.23866">
        <ele>99</ele>
        <time>2022-04-17T08:10:23Z</time>
        <extensions>
          <gpxtpx:TrackPointExtension xmlns:gpxtpx="http://www.garmin.com/xmlschemas/TrackPointExtension/v1">
            <gpxtpx:hr>122</gpxtpx:hr>
          </gpxtpx:TrackPointExtension>
        </extensions>
      </trkpt>
      <trkpt lat="46.57469" lon="0.23888">
        <ele>98.800003051758</ele>
        <time>2022-04-17T08:10:26Z</time>
        <extensions>
          <gpxtpx:TrackPointExtension xmlns:gpxtpx="http://www.garmin.com/xmlschemas/TrackPointExtension/v1">
            <gpxtpx:hr>123</gpxtpx:hr>
          </gpxtpx:TrackPointExtension>
        </extensions>
      </trkpt>
      <trkpt lat="46.57465" lon="0.23894">
        <ele>98.800003051758</ele>
        <time>2022-04-17T08:10:27Z</time>
        <extensions>
          <gpxtpx:TrackPointExtension xmlns:gpxtpx="http://www.garmin.com/xmlschemas/TrackPointExtension/v1">
            <gpxtpx:hr>124</gpxtpx:hr>
          </gpxtpx:TrackPointExtension>
        </extensions>
      </trkpt>
      <trkpt lat="46.57461" lon="0.239">
        <ele>98.800003051758</ele>
        <time>2022-04-17T08:10:28Z</time>
        <extensions>
          <gpxtpx:TrackPointExtension xmlns:gpxtpx="http://www.garmin.com/xmlschemas/TrackPointExtension/v1">
            <gpxtpx:hr>125</gpxtpx:hr>
          </gpxtpx:TrackPointExtension>
        </extensions>
      </trkpt>
      <trkpt lat="46.57457" lon="0.23904">
        <ele>98.800003051758</ele>
        <time>2022-04-17T08:10:29Z</time>
        <extensions>
          <gpxtpx:TrackPointExtension xmlns:gpxtpx="http://www.garmin.com/xmlschemas/TrackPointExtension/v1">
            <gpxtpx:hr>126</gpxtpx:hr>
          </gpxtpx:TrackPointExtension>
        </extensions>
      </trkpt>
      <trkpt lat="46.57452" lon="0.2391">
        <ele>98.599998474121</ele>
        <time>2022-04-17T08:10:30Z</time>
        <extensions>
          <gpxtpx:TrackPointExtension xmlns:gpxtpx="http://www.garmin.com/xmlschemas/TrackPointExtension/v1">
            <gpxtpx:hr>126</gpxtpx:hr>
          </gpxtpx:TrackPointExtension>
        </extensions>
      </trkpt>
      <trkpt lat="46.57442" lon="0.23924">
        <ele>98.599998474121</ele>
        <time>2022-04-17T08:10:32Z</time>
        <extensions>
          <gpxtpx:TrackPointExtension xmlns:gpxtpx="http://www.garmin.com/xmlschemas/TrackPointExtension/v1">
            <gpxtpx:hr>125</gpxtpx:hr>
          </gpxtpx:TrackPointExtension>
        </extensions>
      </trkpt>
      <trkpt lat="46.5743" lon="0.2394">
        <ele>98.800003051758</ele>
        <time>2022-04-17T08:10:35Z</time>
        <extensions>
          <gpxtpx:TrackPointExtension xmlns:gpxtpx="http://www.garmin.com/xmlschemas/TrackPointExtension/v1">
            <gpxtpx:hr>125</gpxtpx:hr>
          </gpxtpx:TrackPointExtension>
        </extensions>
      </trkpt>
      <trkpt lat="46.57422" lon="0.2395">
        <ele>99</ele>
        <time>2022-04-17T08:10:37Z</time>
        <extensions>
          <gpxtpx:TrackPointExtension xmlns:gpxtpx="http://www.garmin.com/xmlschemas/TrackPointExtension/v1">
            <gpxtpx:hr>127</gpxtpx:hr>
          </gpxtpx:TrackPointExtension>
        </extensions>
      </trkpt>
      <trkpt lat="46.57413" lon="0.23972">
        <ele>99.199996948242</ele>
        <time>2022-04-17T08:10:40Z</time>
        <extensions>
          <gpxtpx:TrackPointExtension xmlns:gpxtpx="http://www.garmin.com/xmlschemas/TrackPointExtension/v1">
            <gpxtpx:hr>128</gpxtpx:hr>
          </gpxtpx:TrackPointExtension>
        </extensions>
      </trkpt>
      <trkpt lat="46.57407" lon="0.23983">
        <ele>99.199996948242</ele>
        <time>2022-04-17T08:10:42Z</time>
        <extensions>
          <gpxtpx:TrackPointExtension xmlns:gpxtpx="http://www.garmin.com/xmlschemas/TrackPointExtension/v1">
            <gpxtpx:hr>128</gpxtpx:hr>
          </gpxtpx:TrackPointExtension>
        </extensions>
      </trkpt>
      <trkpt lat="46.57401" lon="0.23992">
        <ele>99.199996948242</ele>
        <time>2022-04-17T08:10:44Z</time>
        <extensions>
          <gpxtpx:TrackPointExtension xmlns:gpxtpx="http://www.garmin.com/xmlschemas/TrackPointExtension/v1">
            <gpxtpx:hr>128</gpxtpx:hr>
          </gpxtpx:TrackPointExtension>
        </extensions>
      </trkpt>
      <trkpt lat="46.57396" lon="0.23999">
        <ele>99.199996948242</ele>
        <time>2022-04-17T08:10:46Z</time>
        <extensions>
          <gpxtpx:TrackPointExtension xmlns:gpxtpx="http://www.garmin.com/xmlschemas/TrackPointExtension/v1">
            <gpxtpx:hr>128</gpxtpx:hr>
          </gpxtpx:TrackPointExtension>
        </extensions>
      </trkpt>
      <trkpt lat="46.57392" lon="0.24002">
        <ele>99.199996948242</ele>
        <time>2022-04-17T08:10:47Z</time>
        <extensions>
          <gpxtpx:TrackPointExtension xmlns:gpxtpx="http://www.garmin.com/xmlschemas/TrackPointExtension/v1">
            <gpxtpx:hr>126</gpxtpx:hr>
          </gpxtpx:TrackPointExtension>
        </extensions>
      </trkpt>
      <trkpt lat="46.5738" lon="0.24014">
        <ele>99</ele>
        <time>2022-04-17T08:10:50Z</time>
        <extensions>
          <gpxtpx:TrackPointExtension xmlns:gpxtpx="http://www.garmin.com/xmlschemas/TrackPointExtension/v1">
            <gpxtpx:hr>123</gpxtpx:hr>
          </gpxtpx:TrackPointExtension>
        </extensions>
      </trkpt>
      <trkpt lat="46.57377" lon="0.24018">
        <ele>99</ele>
        <time>2022-04-17T08:10:51Z</time>
        <extensions>
          <gpxtpx:TrackPointExtension xmlns:gpxtpx="http://www.garmin.com/xmlschemas/TrackPointExtension/v1">
            <gpxtpx:hr>123</gpxtpx:hr>
          </gpxtpx:TrackPointExtension>
        </extensions>
      </trkpt>
      <trkpt lat="46.57373" lon="0.24021">
        <ele>99</ele>
        <time>2022-04-17T08:10:52Z</time>
        <extensions>
          <gpxtpx:TrackPointExtension xmlns:gpxtpx="http://www.garmin.com/xmlschemas/TrackPointExtension/v1">
            <gpxtpx:hr>122</gpxtpx:hr>
          </gpxtpx:TrackPointExtension>
        </extensions>
      </trkpt>
      <trkpt lat="46.5737" lon="0.24024">
        <ele>99.199996948242</ele>
        <time>2022-04-17T08:10:53Z</time>
        <extensions>
          <gpxtpx:TrackPointExtension xmlns:gpxtpx="http://www.garmin.com/xmlschemas/TrackPointExtension/v1">
            <gpxtpx:hr>120</gpxtpx:hr>
          </gpxtpx:TrackPointExtension>
        </extensions>
      </trkpt>
      <trkpt lat="46.57363" lon="0.24031">
        <ele>99.400001525879</ele>
        <time>2022-04-17T08:10:55Z</time>
        <extensions>
          <gpxtpx:TrackPointExtension xmlns:gpxtpx="http://www.garmin.com/xmlschemas/TrackPointExtension/v1">
            <gpxtpx:hr>115</gpxtpx:hr>
          </gpxtpx:TrackPointExtension>
        </extensions>
      </trkpt>
      <trkpt lat="46.57359" lon="0.24035">
        <ele>99.599998474121</ele>
        <time>2022-04-17T08:10:56Z</time>
        <extensions>
          <gpxtpx:TrackPointExtension xmlns:gpxtpx="http://www.garmin.com/xmlschemas/TrackPointExtension/v1">
            <gpxtpx:hr>115</gpxtpx:hr>
          </gpxtpx:TrackPointExtension>
        </extensions>
      </trkpt>
      <trkpt lat="46.57339" lon="0.24052">
        <ele>100.80000305176</ele>
        <time>2022-04-17T08:11:01Z</time>
        <extensions>
          <gpxtpx:TrackPointExtension xmlns:gpxtpx="http://www.garmin.com/xmlschemas/TrackPointExtension/v1">
            <gpxtpx:hr>113</gpxtpx:hr>
          </gpxtpx:TrackPointExtension>
        </extensions>
      </trkpt>
      <trkpt lat="46.57327" lon="0.24063">
        <ele>101.19999694824</ele>
        <time>2022-04-17T08:11:04Z</time>
        <extensions>
          <gpxtpx:TrackPointExtension xmlns:gpxtpx="http://www.garmin.com/xmlschemas/TrackPointExtension/v1">
            <gpxtpx:hr>112</gpxtpx:hr>
          </gpxtpx:TrackPointExtension>
        </extensions>
      </trkpt>
      <trkpt lat="46.57324" lon="0.24065">
        <ele>101.59999847412</ele>
        <time>2022-04-17T08:11:05Z</time>
        <extensions>
          <gpxtpx:TrackPointExtension xmlns:gpxtpx="http://www.garmin.com/xmlschemas/TrackPointExtension/v1">
            <gpxtpx:hr>111</gpxtpx:hr>
          </gpxtpx:TrackPointExtension>
        </extensions>
      </trkpt>
      <trkpt lat="46.5732" lon="0.24068">
        <ele>102</ele>
        <time>2022-04-17T08:11:06Z</time>
        <extensions>
          <gpxtpx:TrackPointExtension xmlns:gpxtpx="http://www.garmin.com/xmlschemas/TrackPointExtension/v1">
            <gpxtpx:hr>110</gpxtpx:hr>
          </gpxtpx:TrackPointExtension>
        </extensions>
      </trkpt>
      <trkpt lat="46.57313" lon="0.24072">
        <ele>103</ele>
        <time>2022-04-17T08:11:08Z</time>
        <extensions>
          <gpxtpx:TrackPointExtension xmlns:gpxtpx="http://www.garmin.com/xmlschemas/TrackPointExtension/v1">
            <gpxtpx:hr>110</gpxtpx:hr>
          </gpxtpx:TrackPointExtension>
        </extensions>
      </trkpt>
      <trkpt lat="46.5731" lon="0.24074">
        <ele>103.19999694824</ele>
        <time>2022-04-17T08:11:09Z</time>
        <extensions>
          <gpxtpx:TrackPointExtension xmlns:gpxtpx="http://www.garmin.com/xmlschemas/TrackPointExtension/v1">
            <gpxtpx:hr>110</gpxtpx:hr>
          </gpxtpx:TrackPointExtension>
        </extensions>
      </trkpt>
      <trkpt lat="46.57307" lon="0.24075">
        <ele>103</ele>
        <time>2022-04-17T08:11:10Z</time>
        <extensions>
          <gpxtpx:TrackPointExtension xmlns:gpxtpx="http://www.garmin.com/xmlschemas/TrackPointExtension/v1">
            <gpxtpx:hr>111</gpxtpx:hr>
          </gpxtpx:TrackPointExtension>
        </extensions>
      </trkpt>
      <trkpt lat="46.57303" lon="0.24076">
        <ele>103</ele>
        <time>2022-04-17T08:11:11Z</time>
        <extensions>
          <gpxtpx:TrackPointExtension xmlns:gpxtpx="http://www.garmin.com/xmlschemas/TrackPointExtension/v1">
            <gpxtpx:hr>111</gpxtpx:hr>
          </gpxtpx:TrackPointExtension>
        </extensions>
      </trkpt>
      <trkpt lat="46.573" lon="0.24077">
        <ele>102.80000305176</ele>
        <time>2022-04-17T08:11:12Z</time>
        <extensions>
          <gpxtpx:TrackPointExtension xmlns:gpxtpx="http://www.garmin.com/xmlschemas/TrackPointExtension/v1">
            <gpxtpx:hr>111</gpxtpx:hr>
          </gpxtpx:TrackPointExtension>
        </extensions>
      </trkpt>
      <trkpt lat="46.57297" lon="0.24078">
        <ele>102.80000305176</ele>
        <time>2022-04-17T08:11:13Z</time>
        <extensions>
          <gpxtpx:TrackPointExtension xmlns:gpxtpx="http://www.garmin.com/xmlschemas/TrackPointExtension/v1">
            <gpxtpx:hr>111</gpxtpx:hr>
          </gpxtpx:TrackPointExtension>
        </extensions>
      </trkpt>
      <trkpt lat="46.57295" lon="0.24078">
        <ele>102.59999847412</ele>
        <time>2022-04-17T08:11:14Z</time>
        <extensions>
          <gpxtpx:TrackPointExtension xmlns:gpxtpx="http://www.garmin.com/xmlschemas/TrackPointExtension/v1">
            <gpxtpx:hr>111</gpxtpx:hr>
          </gpxtpx:TrackPointExtension>
        </extensions>
      </trkpt>
      <trkpt lat="46.57293" lon="0.24078">
        <ele>102.40000152588</ele>
        <time>2022-04-17T08:11:15Z</time>
        <extensions>
          <gpxtpx:TrackPointExtension xmlns:gpxtpx="http://www.garmin.com/xmlschemas/TrackPointExtension/v1">
            <gpxtpx:hr>111</gpxtpx:hr>
          </gpxtpx:TrackPointExtension>
        </extensions>
      </trkpt>
      <trkpt lat="46.5729" lon="0.24078">
        <ele>102.19999694824</ele>
        <time>2022-04-17T08:11:16Z</time>
        <extensions>
          <gpxtpx:TrackPointExtension xmlns:gpxtpx="http://www.garmin.com/xmlschemas/TrackPointExtension/v1">
            <gpxtpx:hr>110</gpxtpx:hr>
          </gpxtpx:TrackPointExtension>
        </extensions>
      </trkpt>
      <trkpt lat="46.57288" lon="0.24078">
        <ele>102</ele>
        <time>2022-04-17T08:11:17Z</time>
        <extensions>
          <gpxtpx:TrackPointExtension xmlns:gpxtpx="http://www.garmin.com/xmlschemas/TrackPointExtension/v1">
            <gpxtpx:hr>110</gpxtpx:hr>
          </gpxtpx:TrackPointExtension>
        </extensions>
      </trkpt>
      <trkpt lat="46.57287" lon="0.24076">
        <ele>101.59999847412</ele>
        <time>2022-04-17T08:11:18Z</time>
        <extensions>
          <gpxtpx:TrackPointExtension xmlns:gpxtpx="http://www.garmin.com/xmlschemas/TrackPointExtension/v1">
            <gpxtpx:hr>109</gpxtpx:hr>
          </gpxtpx:TrackPointExtension>
        </extensions>
      </trkpt>
      <trkpt lat="46.57286" lon="0.24075">
        <ele>101</ele>
        <time>2022-04-17T08:11:19Z</time>
        <extensions>
          <gpxtpx:TrackPointExtension xmlns:gpxtpx="http://www.garmin.com/xmlschemas/TrackPointExtension/v1">
            <gpxtpx:hr>109</gpxtpx:hr>
          </gpxtpx:TrackPointExtension>
        </extensions>
      </trkpt>
      <trkpt lat="46.57287" lon="0.24073">
        <ele>100.40000152588</ele>
        <time>2022-04-17T08:11:20Z</time>
        <extensions>
          <gpxtpx:TrackPointExtension xmlns:gpxtpx="http://www.garmin.com/xmlschemas/TrackPointExtension/v1">
            <gpxtpx:hr>110</gpxtpx:hr>
          </gpxtpx:TrackPointExtension>
        </extensions>
      </trkpt>
      <trkpt lat="46.57287" lon="0.24071">
        <ele>99.800003051758</ele>
        <time>2022-04-17T08:11:21Z</time>
        <extensions>
          <gpxtpx:TrackPointExtension xmlns:gpxtpx="http://www.garmin.com/xmlschemas/TrackPointExtension/v1">
            <gpxtpx:hr>110</gpxtpx:hr>
          </gpxtpx:TrackPointExtension>
        </extensions>
      </trkpt>
      <trkpt lat="46.57288" lon="0.24069">
        <ele>99.599998474121</ele>
        <time>2022-04-17T08:11:22Z</time>
        <extensions>
          <gpxtpx:TrackPointExtension xmlns:gpxtpx="http://www.garmin.com/xmlschemas/TrackPointExtension/v1">
            <gpxtpx:hr>109</gpxtpx:hr>
          </gpxtpx:TrackPointExtension>
        </extensions>
      </trkpt>
      <trkpt lat="46.57288" lon="0.24068">
        <ele>99.400001525879</ele>
        <time>2022-04-17T08:11:23Z</time>
        <extensions>
          <gpxtpx:TrackPointExtension xmlns:gpxtpx="http://www.garmin.com/xmlschemas/TrackPointExtension/v1">
            <gpxtpx:hr>109</gpxtpx:hr>
          </gpxtpx:TrackPointExtension>
        </extensions>
      </trkpt>
      <trkpt lat="46.57288" lon="0.24067">
        <ele>99</ele>
        <time>2022-04-17T08:11:24Z</time>
        <extensions>
          <gpxtpx:TrackPointExtension xmlns:gpxtpx="http://www.garmin.com/xmlschemas/TrackPointExtension/v1">
            <gpxtpx:hr>110</gpxtpx:hr>
          </gpxtpx:TrackPointExtension>
        </extensions>
      </trkpt>
      <trkpt lat="46.57288" lon="0.24065">
        <ele>98.800003051758</ele>
        <time>2022-04-17T08:11:25Z</time>
        <extensions>
          <gpxtpx:TrackPointExtension xmlns:gpxtpx="http://www.garmin.com/xmlschemas/TrackPointExtension/v1">
            <gpxtpx:hr>110</gpxtpx:hr>
          </gpxtpx:TrackPointExtension>
        </extensions>
      </trkpt>
      <trkpt lat="46.57288" lon="0.24054">
        <ele>98.400001525879</ele>
        <time>2022-04-17T08:11:29Z</time>
        <extensions>
          <gpxtpx:TrackPointExtension xmlns:gpxtpx="http://www.garmin.com/xmlschemas/TrackPointExtension/v1">
            <gpxtpx:hr>111</gpxtpx:hr>
          </gpxtpx:TrackPointExtension>
        </extensions>
      </trkpt>
      <trkpt lat="46.57287" lon="0.2405">
        <ele>98.400001525879</ele>
        <time>2022-04-17T08:11:30Z</time>
        <extensions>
          <gpxtpx:TrackPointExtension xmlns:gpxtpx="http://www.garmin.com/xmlschemas/TrackPointExtension/v1">
            <gpxtpx:hr>110</gpxtpx:hr>
          </gpxtpx:TrackPointExtension>
        </extensions>
      </trkpt>
      <trkpt lat="46.57286" lon="0.24047">
        <ele>98.400001525879</ele>
        <time>2022-04-17T08:11:31Z</time>
        <extensions>
          <gpxtpx:TrackPointExtension xmlns:gpxtpx="http://www.garmin.com/xmlschemas/TrackPointExtension/v1">
            <gpxtpx:hr>110</gpxtpx:hr>
          </gpxtpx:TrackPointExtension>
        </extensions>
      </trkpt>
      <trkpt lat="46.57285" lon="0.24045">
        <ele>98.400001525879</ele>
        <time>2022-04-17T08:11:32Z</time>
        <extensions>
          <gpxtpx:TrackPointExtension xmlns:gpxtpx="http://www.garmin.com/xmlschemas/TrackPointExtension/v1">
            <gpxtpx:hr>109</gpxtpx:hr>
          </gpxtpx:TrackPointExtension>
        </extensions>
      </trkpt>
      <trkpt lat="46.57285" lon="0.24043">
        <ele>98.400001525879</ele>
        <time>2022-04-17T08:11:33Z</time>
        <extensions>
          <gpxtpx:TrackPointExtension xmlns:gpxtpx="http://www.garmin.com/xmlschemas/TrackPointExtension/v1">
            <gpxtpx:hr>108</gpxtpx:hr>
          </gpxtpx:TrackPointExtension>
        </extensions>
      </trkpt>
      <trkpt lat="46.57284" lon="0.2404">
        <ele>98.400001525879</ele>
        <time>2022-04-17T08:11:34Z</time>
        <extensions>
          <gpxtpx:TrackPointExtension xmlns:gpxtpx="http://www.garmin.com/xmlschemas/TrackPointExtension/v1">
            <gpxtpx:hr>108</gpxtpx:hr>
          </gpxtpx:TrackPointExtension>
        </extensions>
      </trkpt>
      <trkpt lat="46.57283" lon="0.24037">
        <ele>98.400001525879</ele>
        <time>2022-04-17T08:11:35Z</time>
        <extensions>
          <gpxtpx:TrackPointExtension xmlns:gpxtpx="http://www.garmin.com/xmlschemas/TrackPointExtension/v1">
            <gpxtpx:hr>108</gpxtpx:hr>
          </gpxtpx:TrackPointExtension>
        </extensions>
      </trkpt>
      <trkpt lat="46.57278" lon="0.24022">
        <ele>98.400001525879</ele>
        <time>2022-04-17T08:11:39Z</time>
        <extensions>
          <gpxtpx:TrackPointExtension xmlns:gpxtpx="http://www.garmin.com/xmlschemas/TrackPointExtension/v1">
            <gpxtpx:hr>110</gpxtpx:hr>
          </gpxtpx:TrackPointExtension>
        </extensions>
      </trkpt>
      <trkpt lat="46.57275" lon="0.24007">
        <ele>98.199996948242</ele>
        <time>2022-04-17T08:11:42Z</time>
        <extensions>
          <gpxtpx:TrackPointExtension xmlns:gpxtpx="http://www.garmin.com/xmlschemas/TrackPointExtension/v1">
            <gpxtpx:hr>108</gpxtpx:hr>
          </gpxtpx:TrackPointExtension>
        </extensions>
      </trkpt>
      <trkpt lat="46.57273" lon="0.24002">
        <ele>98.199996948242</ele>
        <time>2022-04-17T08:11:43Z</time>
        <extensions>
          <gpxtpx:TrackPointExtension xmlns:gpxtpx="http://www.garmin.com/xmlschemas/TrackPointExtension/v1">
            <gpxtpx:hr>108</gpxtpx:hr>
          </gpxtpx:TrackPointExtension>
        </extensions>
      </trkpt>
      <trkpt lat="46.57272" lon="0.23998">
        <ele>98.199996948242</ele>
        <time>2022-04-17T08:11:44Z</time>
        <extensions>
          <gpxtpx:TrackPointExtension xmlns:gpxtpx="http://www.garmin.com/xmlschemas/TrackPointExtension/v1">
            <gpxtpx:hr>107</gpxtpx:hr>
          </gpxtpx:TrackPointExtension>
        </extensions>
      </trkpt>
      <trkpt lat="46.5727" lon="0.23995">
        <ele>98</ele>
        <time>2022-04-17T08:11:45Z</time>
        <extensions>
          <gpxtpx:TrackPointExtension xmlns:gpxtpx="http://www.garmin.com/xmlschemas/TrackPointExtension/v1">
            <gpxtpx:hr>105</gpxtpx:hr>
          </gpxtpx:TrackPointExtension>
        </extensions>
      </trkpt>
      <trkpt lat="46.57268" lon="0.23991">
        <ele>98</ele>
        <time>2022-04-17T08:11:46Z</time>
        <extensions>
          <gpxtpx:TrackPointExtension xmlns:gpxtpx="http://www.garmin.com/xmlschemas/TrackPointExtension/v1">
            <gpxtpx:hr>106</gpxtpx:hr>
          </gpxtpx:TrackPointExtension>
        </extensions>
      </trkpt>
      <trkpt lat="46.5726" lon="0.2397">
        <ele>98</ele>
        <time>2022-04-17T08:11:51Z</time>
        <extensions>
          <gpxtpx:TrackPointExtension xmlns:gpxtpx="http://www.garmin.com/xmlschemas/TrackPointExtension/v1">
            <gpxtpx:hr>106</gpxtpx:hr>
          </gpxtpx:TrackPointExtension>
        </extensions>
      </trkpt>
      <trkpt lat="46.57259" lon="0.23965">
        <ele>98</ele>
        <time>2022-04-17T08:11:52Z</time>
        <extensions>
          <gpxtpx:TrackPointExtension xmlns:gpxtpx="http://www.garmin.com/xmlschemas/TrackPointExtension/v1">
            <gpxtpx:hr>105</gpxtpx:hr>
          </gpxtpx:TrackPointExtension>
        </extensions>
      </trkpt>
      <trkpt lat="46.57259" lon="0.23961">
        <ele>98</ele>
        <time>2022-04-17T08:11:53Z</time>
        <extensions>
          <gpxtpx:TrackPointExtension xmlns:gpxtpx="http://www.garmin.com/xmlschemas/TrackPointExtension/v1">
            <gpxtpx:hr>103</gpxtpx:hr>
          </gpxtpx:TrackPointExtension>
        </extensions>
      </trkpt>
      <trkpt lat="46.57258" lon="0.23957">
        <ele>98</ele>
        <time>2022-04-17T08:11:54Z</time>
        <extensions>
          <gpxtpx:TrackPointExtension xmlns:gpxtpx="http://www.garmin.com/xmlschemas/TrackPointExtension/v1">
            <gpxtpx:hr>102</gpxtpx:hr>
          </gpxtpx:TrackPointExtension>
        </extensions>
      </trkpt>
      <trkpt lat="46.57257" lon="0.23955">
        <ele>98.199996948242</ele>
        <time>2022-04-17T08:11:55Z</time>
        <extensions>
          <gpxtpx:TrackPointExtension xmlns:gpxtpx="http://www.garmin.com/xmlschemas/TrackPointExtension/v1">
            <gpxtpx:hr>101</gpxtpx:hr>
          </gpxtpx:TrackPointExtension>
        </extensions>
      </trkpt>
      <trkpt lat="46.57255" lon="0.23953">
        <ele>98.199996948242</ele>
        <time>2022-04-17T08:11:56Z</time>
        <extensions>
          <gpxtpx:TrackPointExtension xmlns:gpxtpx="http://www.garmin.com/xmlschemas/TrackPointExtension/v1">
            <gpxtpx:hr>101</gpxtpx:hr>
          </gpxtpx:TrackPointExtension>
        </extensions>
      </trkpt>
      <trkpt lat="46.57253" lon="0.23952">
        <ele>98.199996948242</ele>
        <time>2022-04-17T08:11:57Z</time>
        <extensions>
          <gpxtpx:TrackPointExtension xmlns:gpxtpx="http://www.garmin.com/xmlschemas/TrackPointExtension/v1">
            <gpxtpx:hr>100</gpxtpx:hr>
          </gpxtpx:TrackPointExtension>
        </extensions>
      </trkpt>
      <trkpt lat="46.57252" lon="0.23951">
        <ele>98.199996948242</ele>
        <time>2022-04-17T08:11:58Z</time>
        <extensions>
          <gpxtpx:TrackPointExtension xmlns:gpxtpx="http://www.garmin.com/xmlschemas/TrackPointExtension/v1">
            <gpxtpx:hr>99</gpxtpx:hr>
          </gpxtpx:TrackPointExtension>
        </extensions>
      </trkpt>
      <trkpt lat="46.5725" lon="0.23951">
        <ele>98.400001525879</ele>
        <time>2022-04-17T08:11:59Z</time>
        <extensions>
          <gpxtpx:TrackPointExtension xmlns:gpxtpx="http://www.garmin.com/xmlschemas/TrackPointExtension/v1">
            <gpxtpx:hr>99</gpxtpx:hr>
          </gpxtpx:TrackPointExtension>
        </extensions>
      </trkpt>
      <trkpt lat="46.5725" lon="0.23951">
        <ele>98.400001525879</ele>
        <time>2022-04-17T08:12:00Z</time>
        <extensions>
          <gpxtpx:TrackPointExtension xmlns:gpxtpx="http://www.garmin.com/xmlschemas/TrackPointExtension/v1">
            <gpxtpx:hr>101</gpxtpx:hr>
          </gpxtpx:TrackPointExtension>
        </extensions>
      </trkpt>
      <trkpt lat="46.57249" lon="0.23951">
        <ele>98.599998474121</ele>
        <time>2022-04-17T08:12:01Z</time>
        <extensions>
          <gpxtpx:TrackPointExtension xmlns:gpxtpx="http://www.garmin.com/xmlschemas/TrackPointExtension/v1">
            <gpxtpx:hr>101</gpxtpx:hr>
          </gpxtpx:TrackPointExtension>
        </extensions>
      </trkpt>
      <trkpt lat="46.57249" lon="0.23951">
        <ele>98.599998474121</ele>
        <time>2022-04-17T08:12:02Z</time>
        <extensions>
          <gpxtpx:TrackPointExtension xmlns:gpxtpx="http://www.garmin.com/xmlschemas/TrackPointExtension/v1">
            <gpxtpx:hr>101</gpxtpx:hr>
          </gpxtpx:TrackPointExtension>
        </extensions>
      </trkpt>
      <trkpt lat="46.57251" lon="0.23946">
        <ele>99</ele>
        <time>2022-04-17T08:14:21Z</time>
        <extensions>
          <gpxtpx:TrackPointExtension xmlns:gpxtpx="http://www.garmin.com/xmlschemas/TrackPointExtension/v1">
            <gpxtpx:hr>120</gpxtpx:hr>
          </gpxtpx:TrackPointExtension>
        </extensions>
      </trkpt>
      <trkpt lat="46.57249" lon="0.23946">
        <ele>99</ele>
        <time>2022-04-17T08:14:22Z</time>
        <extensions>
          <gpxtpx:TrackPointExtension xmlns:gpxtpx="http://www.garmin.com/xmlschemas/TrackPointExtension/v1">
            <gpxtpx:hr>120</gpxtpx:hr>
          </gpxtpx:TrackPointExtension>
        </extensions>
      </trkpt>
      <trkpt lat="46.57247" lon="0.23945">
        <ele>99.199996948242</ele>
        <time>2022-04-17T08:14:23Z</time>
        <extensions>
          <gpxtpx:TrackPointExtension xmlns:gpxtpx="http://www.garmin.com/xmlschemas/TrackPointExtension/v1">
            <gpxtpx:hr>119</gpxtpx:hr>
          </gpxtpx:TrackPointExtension>
        </extensions>
      </trkpt>
      <trkpt lat="46.57242" lon="0.23944">
        <ele>99.199996948242</ele>
        <time>2022-04-17T08:14:25Z</time>
        <extensions>
          <gpxtpx:TrackPointExtension xmlns:gpxtpx="http://www.garmin.com/xmlschemas/TrackPointExtension/v1">
            <gpxtpx:hr>118</gpxtpx:hr>
          </gpxtpx:TrackPointExtension>
        </extensions>
      </trkpt>
      <trkpt lat="46.57228" lon="0.23941">
        <ele>99.599998474121</ele>
        <time>2022-04-17T08:14:30Z</time>
        <extensions>
          <gpxtpx:TrackPointExtension xmlns:gpxtpx="http://www.garmin.com/xmlschemas/TrackPointExtension/v1">
            <gpxtpx:hr>117</gpxtpx:hr>
          </gpxtpx:TrackPointExtension>
        </extensions>
      </trkpt>
      <trkpt lat="46.57222" lon="0.2394">
        <ele>99.800003051758</ele>
        <time>2022-04-17T08:14:32Z</time>
        <extensions>
          <gpxtpx:TrackPointExtension xmlns:gpxtpx="http://www.garmin.com/xmlschemas/TrackPointExtension/v1">
            <gpxtpx:hr>116</gpxtpx:hr>
          </gpxtpx:TrackPointExtension>
        </extensions>
      </trkpt>
      <trkpt lat="46.57213" lon="0.23941">
        <ele>100.80000305176</ele>
        <time>2022-04-17T08:14:36Z</time>
        <extensions>
          <gpxtpx:TrackPointExtension xmlns:gpxtpx="http://www.garmin.com/xmlschemas/TrackPointExtension/v1">
            <gpxtpx:hr>114</gpxtpx:hr>
          </gpxtpx:TrackPointExtension>
        </extensions>
      </trkpt>
      <trkpt lat="46.57209" lon="0.2394">
        <ele>101.40000152588</ele>
        <time>2022-04-17T08:14:37Z</time>
        <extensions>
          <gpxtpx:TrackPointExtension xmlns:gpxtpx="http://www.garmin.com/xmlschemas/TrackPointExtension/v1">
            <gpxtpx:hr>113</gpxtpx:hr>
          </gpxtpx:TrackPointExtension>
        </extensions>
      </trkpt>
      <trkpt lat="46.57203" lon="0.23941">
        <ele>101.80000305176</ele>
        <time>2022-04-17T08:14:39Z</time>
        <extensions>
          <gpxtpx:TrackPointExtension xmlns:gpxtpx="http://www.garmin.com/xmlschemas/TrackPointExtension/v1">
            <gpxtpx:hr>114</gpxtpx:hr>
          </gpxtpx:TrackPointExtension>
        </extensions>
      </trkpt>
      <trkpt lat="46.572" lon="0.23941">
        <ele>102</ele>
        <time>2022-04-17T08:14:40Z</time>
        <extensions>
          <gpxtpx:TrackPointExtension xmlns:gpxtpx="http://www.garmin.com/xmlschemas/TrackPointExtension/v1">
            <gpxtpx:hr>117</gpxtpx:hr>
          </gpxtpx:TrackPointExtension>
        </extensions>
      </trkpt>
      <trkpt lat="46.57198" lon="0.23941">
        <ele>102.40000152588</ele>
        <time>2022-04-17T08:14:41Z</time>
        <extensions>
          <gpxtpx:TrackPointExtension xmlns:gpxtpx="http://www.garmin.com/xmlschemas/TrackPointExtension/v1">
            <gpxtpx:hr>119</gpxtpx:hr>
          </gpxtpx:TrackPointExtension>
        </extensions>
      </trkpt>
      <trkpt lat="46.57196" lon="0.23941">
        <ele>102.59999847412</ele>
        <time>2022-04-17T08:14:42Z</time>
        <extensions>
          <gpxtpx:TrackPointExtension xmlns:gpxtpx="http://www.garmin.com/xmlschemas/TrackPointExtension/v1">
            <gpxtpx:hr>119</gpxtpx:hr>
          </gpxtpx:TrackPointExtension>
        </extensions>
      </trkpt>
      <trkpt lat="46.57193" lon="0.23941">
        <ele>103.19999694824</ele>
        <time>2022-04-17T08:14:43Z</time>
        <extensions>
          <gpxtpx:TrackPointExtension xmlns:gpxtpx="http://www.garmin.com/xmlschemas/TrackPointExtension/v1">
            <gpxtpx:hr>121</gpxtpx:hr>
          </gpxtpx:TrackPointExtension>
        </extensions>
      </trkpt>
      <trkpt lat="46.5719" lon="0.2394">
        <ele>103.40000152588</ele>
        <time>2022-04-17T08:14:44Z</time>
        <extensions>
          <gpxtpx:TrackPointExtension xmlns:gpxtpx="http://www.garmin.com/xmlschemas/TrackPointExtension/v1">
            <gpxtpx:hr>121</gpxtpx:hr>
          </gpxtpx:TrackPointExtension>
        </extensions>
      </trkpt>
      <trkpt lat="46.57187" lon="0.23939">
        <ele>103.80000305176</ele>
        <time>2022-04-17T08:14:45Z</time>
        <extensions>
          <gpxtpx:TrackPointExtension xmlns:gpxtpx="http://www.garmin.com/xmlschemas/TrackPointExtension/v1">
            <gpxtpx:hr>121</gpxtpx:hr>
          </gpxtpx:TrackPointExtension>
        </extensions>
      </trkpt>
      <trkpt lat="46.57183" lon="0.2394">
        <ele>104.19999694824</ele>
        <time>2022-04-17T08:14:46Z</time>
        <extensions>
          <gpxtpx:TrackPointExtension xmlns:gpxtpx="http://www.garmin.com/xmlschemas/TrackPointExtension/v1">
            <gpxtpx:hr>121</gpxtpx:hr>
          </gpxtpx:TrackPointExtension>
        </extensions>
      </trkpt>
      <trkpt lat="46.57179" lon="0.23938">
        <ele>104.40000152588</ele>
        <time>2022-04-17T08:14:47Z</time>
        <extensions>
          <gpxtpx:TrackPointExtension xmlns:gpxtpx="http://www.garmin.com/xmlschemas/TrackPointExtension/v1">
            <gpxtpx:hr>120</gpxtpx:hr>
          </gpxtpx:TrackPointExtension>
        </extensions>
      </trkpt>
      <trkpt lat="46.57175" lon="0.23937">
        <ele>105.19999694824</ele>
        <time>2022-04-17T08:14:48Z</time>
        <extensions>
          <gpxtpx:TrackPointExtension xmlns:gpxtpx="http://www.garmin.com/xmlschemas/TrackPointExtension/v1">
            <gpxtpx:hr>121</gpxtpx:hr>
          </gpxtpx:TrackPointExtension>
        </extensions>
      </trkpt>
      <trkpt lat="46.57173" lon="0.23935">
        <ele>105.59999847412</ele>
        <time>2022-04-17T08:14:49Z</time>
        <extensions>
          <gpxtpx:TrackPointExtension xmlns:gpxtpx="http://www.garmin.com/xmlschemas/TrackPointExtension/v1">
            <gpxtpx:hr>121</gpxtpx:hr>
          </gpxtpx:TrackPointExtension>
        </extensions>
      </trkpt>
      <trkpt lat="46.57172" lon="0.23932">
        <ele>106</ele>
        <time>2022-04-17T08:14:50Z</time>
        <extensions>
          <gpxtpx:TrackPointExtension xmlns:gpxtpx="http://www.garmin.com/xmlschemas/TrackPointExtension/v1">
            <gpxtpx:hr>121</gpxtpx:hr>
          </gpxtpx:TrackPointExtension>
        </extensions>
      </trkpt>
      <trkpt lat="46.5717" lon="0.23929">
        <ele>106.40000152588</ele>
        <time>2022-04-17T08:14:51Z</time>
        <extensions>
          <gpxtpx:TrackPointExtension xmlns:gpxtpx="http://www.garmin.com/xmlschemas/TrackPointExtension/v1">
            <gpxtpx:hr>122</gpxtpx:hr>
          </gpxtpx:TrackPointExtension>
        </extensions>
      </trkpt>
      <trkpt lat="46.57167" lon="0.23926">
        <ele>106.80000305176</ele>
        <time>2022-04-17T08:14:52Z</time>
        <extensions>
          <gpxtpx:TrackPointExtension xmlns:gpxtpx="http://www.garmin.com/xmlschemas/TrackPointExtension/v1">
            <gpxtpx:hr>122</gpxtpx:hr>
          </gpxtpx:TrackPointExtension>
        </extensions>
      </trkpt>
      <trkpt lat="46.57165" lon="0.23922">
        <ele>107.19999694824</ele>
        <time>2022-04-17T08:14:53Z</time>
        <extensions>
          <gpxtpx:TrackPointExtension xmlns:gpxtpx="http://www.garmin.com/xmlschemas/TrackPointExtension/v1">
            <gpxtpx:hr>122</gpxtpx:hr>
          </gpxtpx:TrackPointExtension>
        </extensions>
      </trkpt>
      <trkpt lat="46.57163" lon="0.23919">
        <ele>107.59999847412</ele>
        <time>2022-04-17T08:14:54Z</time>
        <extensions>
          <gpxtpx:TrackPointExtension xmlns:gpxtpx="http://www.garmin.com/xmlschemas/TrackPointExtension/v1">
            <gpxtpx:hr>123</gpxtpx:hr>
          </gpxtpx:TrackPointExtension>
        </extensions>
      </trkpt>
      <trkpt lat="46.57162" lon="0.23916">
        <ele>107.80000305176</ele>
        <time>2022-04-17T08:14:55Z</time>
        <extensions>
          <gpxtpx:TrackPointExtension xmlns:gpxtpx="http://www.garmin.com/xmlschemas/TrackPointExtension/v1">
            <gpxtpx:hr>123</gpxtpx:hr>
          </gpxtpx:TrackPointExtension>
        </extensions>
      </trkpt>
      <trkpt lat="46.5716" lon="0.23913">
        <ele>108</ele>
        <time>2022-04-17T08:14:56Z</time>
        <extensions>
          <gpxtpx:TrackPointExtension xmlns:gpxtpx="http://www.garmin.com/xmlschemas/TrackPointExtension/v1">
            <gpxtpx:hr>124</gpxtpx:hr>
          </gpxtpx:TrackPointExtension>
        </extensions>
      </trkpt>
      <trkpt lat="46.57159" lon="0.23912">
        <ele>108.40000152588</ele>
        <time>2022-04-17T08:14:57Z</time>
        <extensions>
          <gpxtpx:TrackPointExtension xmlns:gpxtpx="http://www.garmin.com/xmlschemas/TrackPointExtension/v1">
            <gpxtpx:hr>124</gpxtpx:hr>
          </gpxtpx:TrackPointExtension>
        </extensions>
      </trkpt>
      <trkpt lat="46.57157" lon="0.23911">
        <ele>108.40000152588</ele>
        <time>2022-04-17T08:14:58Z</time>
        <extensions>
          <gpxtpx:TrackPointExtension xmlns:gpxtpx="http://www.garmin.com/xmlschemas/TrackPointExtension/v1">
            <gpxtpx:hr>125</gpxtpx:hr>
          </gpxtpx:TrackPointExtension>
        </extensions>
      </trkpt>
      <trkpt lat="46.57154" lon="0.23908">
        <ele>108.59999847412</ele>
        <time>2022-04-17T08:14:59Z</time>
        <extensions>
          <gpxtpx:TrackPointExtension xmlns:gpxtpx="http://www.garmin.com/xmlschemas/TrackPointExtension/v1">
            <gpxtpx:hr>125</gpxtpx:hr>
          </gpxtpx:TrackPointExtension>
        </extensions>
      </trkpt>
      <trkpt lat="46.57152" lon="0.23906">
        <ele>108.80000305176</ele>
        <time>2022-04-17T08:15:00Z</time>
        <extensions>
          <gpxtpx:TrackPointExtension xmlns:gpxtpx="http://www.garmin.com/xmlschemas/TrackPointExtension/v1">
            <gpxtpx:hr>124</gpxtpx:hr>
          </gpxtpx:TrackPointExtension>
        </extensions>
      </trkpt>
      <trkpt lat="46.5715" lon="0.23903">
        <ele>109</ele>
        <time>2022-04-17T08:15:01Z</time>
        <extensions>
          <gpxtpx:TrackPointExtension xmlns:gpxtpx="http://www.garmin.com/xmlschemas/TrackPointExtension/v1">
            <gpxtpx:hr>124</gpxtpx:hr>
          </gpxtpx:TrackPointExtension>
        </extensions>
      </trkpt>
      <trkpt lat="46.57148" lon="0.23901">
        <ele>109.19999694824</ele>
        <time>2022-04-17T08:15:02Z</time>
        <extensions>
          <gpxtpx:TrackPointExtension xmlns:gpxtpx="http://www.garmin.com/xmlschemas/TrackPointExtension/v1">
            <gpxtpx:hr>124</gpxtpx:hr>
          </gpxtpx:TrackPointExtension>
        </extensions>
      </trkpt>
      <trkpt lat="46.57146" lon="0.23898">
        <ele>109.40000152588</ele>
        <time>2022-04-17T08:15:03Z</time>
        <extensions>
          <gpxtpx:TrackPointExtension xmlns:gpxtpx="http://www.garmin.com/xmlschemas/TrackPointExtension/v1">
            <gpxtpx:hr>124</gpxtpx:hr>
          </gpxtpx:TrackPointExtension>
        </extensions>
      </trkpt>
      <trkpt lat="46.57144" lon="0.23896">
        <ele>109.40000152588</ele>
        <time>2022-04-17T08:15:04Z</time>
        <extensions>
          <gpxtpx:TrackPointExtension xmlns:gpxtpx="http://www.garmin.com/xmlschemas/TrackPointExtension/v1">
            <gpxtpx:hr>124</gpxtpx:hr>
          </gpxtpx:TrackPointExtension>
        </extensions>
      </trkpt>
      <trkpt lat="46.57142" lon="0.23894">
        <ele>109.59999847412</ele>
        <time>2022-04-17T08:15:05Z</time>
        <extensions>
          <gpxtpx:TrackPointExtension xmlns:gpxtpx="http://www.garmin.com/xmlschemas/TrackPointExtension/v1">
            <gpxtpx:hr>122</gpxtpx:hr>
          </gpxtpx:TrackPointExtension>
        </extensions>
      </trkpt>
      <trkpt lat="46.5714" lon="0.23891">
        <ele>109.80000305176</ele>
        <time>2022-04-17T08:15:06Z</time>
        <extensions>
          <gpxtpx:TrackPointExtension xmlns:gpxtpx="http://www.garmin.com/xmlschemas/TrackPointExtension/v1">
            <gpxtpx:hr>122</gpxtpx:hr>
          </gpxtpx:TrackPointExtension>
        </extensions>
      </trkpt>
      <trkpt lat="46.57137" lon="0.23889">
        <ele>109.80000305176</ele>
        <time>2022-04-17T08:15:07Z</time>
        <extensions>
          <gpxtpx:TrackPointExtension xmlns:gpxtpx="http://www.garmin.com/xmlschemas/TrackPointExtension/v1">
            <gpxtpx:hr>125</gpxtpx:hr>
          </gpxtpx:TrackPointExtension>
        </extensions>
      </trkpt>
      <trkpt lat="46.57135" lon="0.23886">
        <ele>110</ele>
        <time>2022-04-17T08:15:08Z</time>
        <extensions>
          <gpxtpx:TrackPointExtension xmlns:gpxtpx="http://www.garmin.com/xmlschemas/TrackPointExtension/v1">
            <gpxtpx:hr>126</gpxtpx:hr>
          </gpxtpx:TrackPointExtension>
        </extensions>
      </trkpt>
      <trkpt lat="46.57133" lon="0.23883">
        <ele>110.19999694824</ele>
        <time>2022-04-17T08:15:09Z</time>
        <extensions>
          <gpxtpx:TrackPointExtension xmlns:gpxtpx="http://www.garmin.com/xmlschemas/TrackPointExtension/v1">
            <gpxtpx:hr>126</gpxtpx:hr>
          </gpxtpx:TrackPointExtension>
        </extensions>
      </trkpt>
      <trkpt lat="46.57131" lon="0.2388">
        <ele>110.40000152588</ele>
        <time>2022-04-17T08:15:10Z</time>
        <extensions>
          <gpxtpx:TrackPointExtension xmlns:gpxtpx="http://www.garmin.com/xmlschemas/TrackPointExtension/v1">
            <gpxtpx:hr>128</gpxtpx:hr>
          </gpxtpx:TrackPointExtension>
        </extensions>
      </trkpt>
      <trkpt lat="46.57128" lon="0.23878">
        <ele>110.59999847412</ele>
        <time>2022-04-17T08:15:11Z</time>
        <extensions>
          <gpxtpx:TrackPointExtension xmlns:gpxtpx="http://www.garmin.com/xmlschemas/TrackPointExtension/v1">
            <gpxtpx:hr>129</gpxtpx:hr>
          </gpxtpx:TrackPointExtension>
        </extensions>
      </trkpt>
      <trkpt lat="46.57126" lon="0.23875">
        <ele>110.80000305176</ele>
        <time>2022-04-17T08:15:12Z</time>
        <extensions>
          <gpxtpx:TrackPointExtension xmlns:gpxtpx="http://www.garmin.com/xmlschemas/TrackPointExtension/v1">
            <gpxtpx:hr>130</gpxtpx:hr>
          </gpxtpx:TrackPointExtension>
        </extensions>
      </trkpt>
      <trkpt lat="46.57123" lon="0.23872">
        <ele>111</ele>
        <time>2022-04-17T08:15:13Z</time>
        <extensions>
          <gpxtpx:TrackPointExtension xmlns:gpxtpx="http://www.garmin.com/xmlschemas/TrackPointExtension/v1">
            <gpxtpx:hr>132</gpxtpx:hr>
          </gpxtpx:TrackPointExtension>
        </extensions>
      </trkpt>
      <trkpt lat="46.57121" lon="0.2387">
        <ele>111.19999694824</ele>
        <time>2022-04-17T08:15:14Z</time>
        <extensions>
          <gpxtpx:TrackPointExtension xmlns:gpxtpx="http://www.garmin.com/xmlschemas/TrackPointExtension/v1">
            <gpxtpx:hr>133</gpxtpx:hr>
          </gpxtpx:TrackPointExtension>
        </extensions>
      </trkpt>
      <trkpt lat="46.57119" lon="0.23868">
        <ele>111.19999694824</ele>
        <time>2022-04-17T08:15:15Z</time>
        <extensions>
          <gpxtpx:TrackPointExtension xmlns:gpxtpx="http://www.garmin.com/xmlschemas/TrackPointExtension/v1">
            <gpxtpx:hr>133</gpxtpx:hr>
          </gpxtpx:TrackPointExtension>
        </extensions>
      </trkpt>
      <trkpt lat="46.57116" lon="0.23865">
        <ele>111.40000152588</ele>
        <time>2022-04-17T08:15:16Z</time>
        <extensions>
          <gpxtpx:TrackPointExtension xmlns:gpxtpx="http://www.garmin.com/xmlschemas/TrackPointExtension/v1">
            <gpxtpx:hr>133</gpxtpx:hr>
          </gpxtpx:TrackPointExtension>
        </extensions>
      </trkpt>
      <trkpt lat="46.57113" lon="0.23862">
        <ele>111.59999847412</ele>
        <time>2022-04-17T08:15:17Z</time>
        <extensions>
          <gpxtpx:TrackPointExtension xmlns:gpxtpx="http://www.garmin.com/xmlschemas/TrackPointExtension/v1">
            <gpxtpx:hr>134</gpxtpx:hr>
          </gpxtpx:TrackPointExtension>
        </extensions>
      </trkpt>
      <trkpt lat="46.57111" lon="0.2386">
        <ele>111.80000305176</ele>
        <time>2022-04-17T08:15:18Z</time>
        <extensions>
          <gpxtpx:TrackPointExtension xmlns:gpxtpx="http://www.garmin.com/xmlschemas/TrackPointExtension/v1">
            <gpxtpx:hr>135</gpxtpx:hr>
          </gpxtpx:TrackPointExtension>
        </extensions>
      </trkpt>
      <trkpt lat="46.57108" lon="0.23857">
        <ele>112</ele>
        <time>2022-04-17T08:15:19Z</time>
        <extensions>
          <gpxtpx:TrackPointExtension xmlns:gpxtpx="http://www.garmin.com/xmlschemas/TrackPointExtension/v1">
            <gpxtpx:hr>135</gpxtpx:hr>
          </gpxtpx:TrackPointExtension>
        </extensions>
      </trkpt>
      <trkpt lat="46.57104" lon="0.23854">
        <ele>112.19999694824</ele>
        <time>2022-04-17T08:15:20Z</time>
        <extensions>
          <gpxtpx:TrackPointExtension xmlns:gpxtpx="http://www.garmin.com/xmlschemas/TrackPointExtension/v1">
            <gpxtpx:hr>136</gpxtpx:hr>
          </gpxtpx:TrackPointExtension>
        </extensions>
      </trkpt>
      <trkpt lat="46.571" lon="0.2385">
        <ele>112.19999694824</ele>
        <time>2022-04-17T08:15:21Z</time>
        <extensions>
          <gpxtpx:TrackPointExtension xmlns:gpxtpx="http://www.garmin.com/xmlschemas/TrackPointExtension/v1">
            <gpxtpx:hr>137</gpxtpx:hr>
          </gpxtpx:TrackPointExtension>
        </extensions>
      </trkpt>
      <trkpt lat="46.57098" lon="0.23848">
        <ele>112.40000152588</ele>
        <time>2022-04-17T08:15:22Z</time>
        <extensions>
          <gpxtpx:TrackPointExtension xmlns:gpxtpx="http://www.garmin.com/xmlschemas/TrackPointExtension/v1">
            <gpxtpx:hr>138</gpxtpx:hr>
          </gpxtpx:TrackPointExtension>
        </extensions>
      </trkpt>
      <trkpt lat="46.57095" lon="0.23845">
        <ele>112.40000152588</ele>
        <time>2022-04-17T08:15:23Z</time>
        <extensions>
          <gpxtpx:TrackPointExtension xmlns:gpxtpx="http://www.garmin.com/xmlschemas/TrackPointExtension/v1">
            <gpxtpx:hr>138</gpxtpx:hr>
          </gpxtpx:TrackPointExtension>
        </extensions>
      </trkpt>
      <trkpt lat="46.57092" lon="0.23843">
        <ele>112.80000305176</ele>
        <time>2022-04-17T08:15:24Z</time>
        <extensions>
          <gpxtpx:TrackPointExtension xmlns:gpxtpx="http://www.garmin.com/xmlschemas/TrackPointExtension/v1">
            <gpxtpx:hr>139</gpxtpx:hr>
          </gpxtpx:TrackPointExtension>
        </extensions>
      </trkpt>
      <trkpt lat="46.57089" lon="0.23841">
        <ele>113</ele>
        <time>2022-04-17T08:15:25Z</time>
        <extensions>
          <gpxtpx:TrackPointExtension xmlns:gpxtpx="http://www.garmin.com/xmlschemas/TrackPointExtension/v1">
            <gpxtpx:hr>140</gpxtpx:hr>
          </gpxtpx:TrackPointExtension>
        </extensions>
      </trkpt>
      <trkpt lat="46.57086" lon="0.23838">
        <ele>113</ele>
        <time>2022-04-17T08:15:26Z</time>
        <extensions>
          <gpxtpx:TrackPointExtension xmlns:gpxtpx="http://www.garmin.com/xmlschemas/TrackPointExtension/v1">
            <gpxtpx:hr>140</gpxtpx:hr>
          </gpxtpx:TrackPointExtension>
        </extensions>
      </trkpt>
      <trkpt lat="46.57083" lon="0.23835">
        <ele>113.19999694824</ele>
        <time>2022-04-17T08:15:27Z</time>
        <extensions>
          <gpxtpx:TrackPointExtension xmlns:gpxtpx="http://www.garmin.com/xmlschemas/TrackPointExtension/v1">
            <gpxtpx:hr>143</gpxtpx:hr>
          </gpxtpx:TrackPointExtension>
        </extensions>
      </trkpt>
      <trkpt lat="46.57079" lon="0.23832">
        <ele>113.19999694824</ele>
        <time>2022-04-17T08:15:28Z</time>
        <extensions>
          <gpxtpx:TrackPointExtension xmlns:gpxtpx="http://www.garmin.com/xmlschemas/TrackPointExtension/v1">
            <gpxtpx:hr>144</gpxtpx:hr>
          </gpxtpx:TrackPointExtension>
        </extensions>
      </trkpt>
      <trkpt lat="46.57077" lon="0.23829">
        <ele>113.59999847412</ele>
        <time>2022-04-17T08:15:29Z</time>
        <extensions>
          <gpxtpx:TrackPointExtension xmlns:gpxtpx="http://www.garmin.com/xmlschemas/TrackPointExtension/v1">
            <gpxtpx:hr>144</gpxtpx:hr>
          </gpxtpx:TrackPointExtension>
        </extensions>
      </trkpt>
      <trkpt lat="46.57074" lon="0.23826">
        <ele>113.59999847412</ele>
        <time>2022-04-17T08:15:30Z</time>
        <extensions>
          <gpxtpx:TrackPointExtension xmlns:gpxtpx="http://www.garmin.com/xmlschemas/TrackPointExtension/v1">
            <gpxtpx:hr>144</gpxtpx:hr>
          </gpxtpx:TrackPointExtension>
        </extensions>
      </trkpt>
      <trkpt lat="46.57071" lon="0.23823">
        <ele>113.80000305176</ele>
        <time>2022-04-17T08:15:31Z</time>
        <extensions>
          <gpxtpx:TrackPointExtension xmlns:gpxtpx="http://www.garmin.com/xmlschemas/TrackPointExtension/v1">
            <gpxtpx:hr>144</gpxtpx:hr>
          </gpxtpx:TrackPointExtension>
        </extensions>
      </trkpt>
      <trkpt lat="46.57068" lon="0.2382">
        <ele>113.80000305176</ele>
        <time>2022-04-17T08:15:32Z</time>
        <extensions>
          <gpxtpx:TrackPointExtension xmlns:gpxtpx="http://www.garmin.com/xmlschemas/TrackPointExtension/v1">
            <gpxtpx:hr>143</gpxtpx:hr>
          </gpxtpx:TrackPointExtension>
        </extensions>
      </trkpt>
      <trkpt lat="46.57064" lon="0.23817">
        <ele>114</ele>
        <time>2022-04-17T08:15:33Z</time>
        <extensions>
          <gpxtpx:TrackPointExtension xmlns:gpxtpx="http://www.garmin.com/xmlschemas/TrackPointExtension/v1">
            <gpxtpx:hr>142</gpxtpx:hr>
          </gpxtpx:TrackPointExtension>
        </extensions>
      </trkpt>
      <trkpt lat="46.57062" lon="0.23815">
        <ele>114.19999694824</ele>
        <time>2022-04-17T08:15:34Z</time>
        <extensions>
          <gpxtpx:TrackPointExtension xmlns:gpxtpx="http://www.garmin.com/xmlschemas/TrackPointExtension/v1">
            <gpxtpx:hr>143</gpxtpx:hr>
          </gpxtpx:TrackPointExtension>
        </extensions>
      </trkpt>
      <trkpt lat="46.5706" lon="0.23815">
        <ele>114.40000152588</ele>
        <time>2022-04-17T08:15:35Z</time>
        <extensions>
          <gpxtpx:TrackPointExtension xmlns:gpxtpx="http://www.garmin.com/xmlschemas/TrackPointExtension/v1">
            <gpxtpx:hr>143</gpxtpx:hr>
          </gpxtpx:TrackPointExtension>
        </extensions>
      </trkpt>
      <trkpt lat="46.57058" lon="0.23813">
        <ele>114.59999847412</ele>
        <time>2022-04-17T08:15:36Z</time>
        <extensions>
          <gpxtpx:TrackPointExtension xmlns:gpxtpx="http://www.garmin.com/xmlschemas/TrackPointExtension/v1">
            <gpxtpx:hr>144</gpxtpx:hr>
          </gpxtpx:TrackPointExtension>
        </extensions>
      </trkpt>
      <trkpt lat="46.57055" lon="0.23811">
        <ele>114.80000305176</ele>
        <time>2022-04-17T08:15:37Z</time>
        <extensions>
          <gpxtpx:TrackPointExtension xmlns:gpxtpx="http://www.garmin.com/xmlschemas/TrackPointExtension/v1">
            <gpxtpx:hr>145</gpxtpx:hr>
          </gpxtpx:TrackPointExtension>
        </extensions>
      </trkpt>
      <trkpt lat="46.57053" lon="0.2381">
        <ele>115</ele>
        <time>2022-04-17T08:15:38Z</time>
        <extensions>
          <gpxtpx:TrackPointExtension xmlns:gpxtpx="http://www.garmin.com/xmlschemas/TrackPointExtension/v1">
            <gpxtpx:hr>146</gpxtpx:hr>
          </gpxtpx:TrackPointExtension>
        </extensions>
      </trkpt>
      <trkpt lat="46.5705" lon="0.23808">
        <ele>115.19999694824</ele>
        <time>2022-04-17T08:15:39Z</time>
        <extensions>
          <gpxtpx:TrackPointExtension xmlns:gpxtpx="http://www.garmin.com/xmlschemas/TrackPointExtension/v1">
            <gpxtpx:hr>147</gpxtpx:hr>
          </gpxtpx:TrackPointExtension>
        </extensions>
      </trkpt>
      <trkpt lat="46.57047" lon="0.23807">
        <ele>115.19999694824</ele>
        <time>2022-04-17T08:15:40Z</time>
        <extensions>
          <gpxtpx:TrackPointExtension xmlns:gpxtpx="http://www.garmin.com/xmlschemas/TrackPointExtension/v1">
            <gpxtpx:hr>148</gpxtpx:hr>
          </gpxtpx:TrackPointExtension>
        </extensions>
      </trkpt>
      <trkpt lat="46.57044" lon="0.23806">
        <ele>115.40000152588</ele>
        <time>2022-04-17T08:15:41Z</time>
        <extensions>
          <gpxtpx:TrackPointExtension xmlns:gpxtpx="http://www.garmin.com/xmlschemas/TrackPointExtension/v1">
            <gpxtpx:hr>148</gpxtpx:hr>
          </gpxtpx:TrackPointExtension>
        </extensions>
      </trkpt>
      <trkpt lat="46.57041" lon="0.23806">
        <ele>115.59999847412</ele>
        <time>2022-04-17T08:15:42Z</time>
        <extensions>
          <gpxtpx:TrackPointExtension xmlns:gpxtpx="http://www.garmin.com/xmlschemas/TrackPointExtension/v1">
            <gpxtpx:hr>149</gpxtpx:hr>
          </gpxtpx:TrackPointExtension>
        </extensions>
      </trkpt>
      <trkpt lat="46.57039" lon="0.23805">
        <ele>115.59999847412</ele>
        <time>2022-04-17T08:15:43Z</time>
        <extensions>
          <gpxtpx:TrackPointExtension xmlns:gpxtpx="http://www.garmin.com/xmlschemas/TrackPointExtension/v1">
            <gpxtpx:hr>149</gpxtpx:hr>
          </gpxtpx:TrackPointExtension>
        </extensions>
      </trkpt>
      <trkpt lat="46.57037" lon="0.23804">
        <ele>115.59999847412</ele>
        <time>2022-04-17T08:15:44Z</time>
        <extensions>
          <gpxtpx:TrackPointExtension xmlns:gpxtpx="http://www.garmin.com/xmlschemas/TrackPointExtension/v1">
            <gpxtpx:hr>148</gpxtpx:hr>
          </gpxtpx:TrackPointExtension>
        </extensions>
      </trkpt>
      <trkpt lat="46.57034" lon="0.23804">
        <ele>115.80000305176</ele>
        <time>2022-04-17T08:15:45Z</time>
        <extensions>
          <gpxtpx:TrackPointExtension xmlns:gpxtpx="http://www.garmin.com/xmlschemas/TrackPointExtension/v1">
            <gpxtpx:hr>148</gpxtpx:hr>
          </gpxtpx:TrackPointExtension>
        </extensions>
      </trkpt>
      <trkpt lat="46.57032" lon="0.23804">
        <ele>116</ele>
        <time>2022-04-17T08:15:46Z</time>
        <extensions>
          <gpxtpx:TrackPointExtension xmlns:gpxtpx="http://www.garmin.com/xmlschemas/TrackPointExtension/v1">
            <gpxtpx:hr>148</gpxtpx:hr>
          </gpxtpx:TrackPointExtension>
        </extensions>
      </trkpt>
      <trkpt lat="46.57029" lon="0.23804">
        <ele>116</ele>
        <time>2022-04-17T08:15:47Z</time>
        <extensions>
          <gpxtpx:TrackPointExtension xmlns:gpxtpx="http://www.garmin.com/xmlschemas/TrackPointExtension/v1">
            <gpxtpx:hr>148</gpxtpx:hr>
          </gpxtpx:TrackPointExtension>
        </extensions>
      </trkpt>
      <trkpt lat="46.57027" lon="0.23804">
        <ele>116.19999694824</ele>
        <time>2022-04-17T08:15:48Z</time>
        <extensions>
          <gpxtpx:TrackPointExtension xmlns:gpxtpx="http://www.garmin.com/xmlschemas/TrackPointExtension/v1">
            <gpxtpx:hr>148</gpxtpx:hr>
          </gpxtpx:TrackPointExtension>
        </extensions>
      </trkpt>
      <trkpt lat="46.57025" lon="0.23804">
        <ele>116.19999694824</ele>
        <time>2022-04-17T08:15:49Z</time>
        <extensions>
          <gpxtpx:TrackPointExtension xmlns:gpxtpx="http://www.garmin.com/xmlschemas/TrackPointExtension/v1">
            <gpxtpx:hr>148</gpxtpx:hr>
          </gpxtpx:TrackPointExtension>
        </extensions>
      </trkpt>
      <trkpt lat="46.57023" lon="0.23803">
        <ele>116.59999847412</ele>
        <time>2022-04-17T08:15:50Z</time>
        <extensions>
          <gpxtpx:TrackPointExtension xmlns:gpxtpx="http://www.garmin.com/xmlschemas/TrackPointExtension/v1">
            <gpxtpx:hr>148</gpxtpx:hr>
          </gpxtpx:TrackPointExtension>
        </extensions>
      </trkpt>
      <trkpt lat="46.57021" lon="0.23803">
        <ele>116.80000305176</ele>
        <time>2022-04-17T08:15:51Z</time>
        <extensions>
          <gpxtpx:TrackPointExtension xmlns:gpxtpx="http://www.garmin.com/xmlschemas/TrackPointExtension/v1">
            <gpxtpx:hr>149</gpxtpx:hr>
          </gpxtpx:TrackPointExtension>
        </extensions>
      </trkpt>
      <trkpt lat="46.57019" lon="0.23802">
        <ele>116.80000305176</ele>
        <time>2022-04-17T08:15:52Z</time>
        <extensions>
          <gpxtpx:TrackPointExtension xmlns:gpxtpx="http://www.garmin.com/xmlschemas/TrackPointExtension/v1">
            <gpxtpx:hr>149</gpxtpx:hr>
          </gpxtpx:TrackPointExtension>
        </extensions>
      </trkpt>
      <trkpt lat="46.57016" lon="0.23801">
        <ele>117.19999694824</ele>
        <time>2022-04-17T08:15:53Z</time>
        <extensions>
          <gpxtpx:TrackPointExtension xmlns:gpxtpx="http://www.garmin.com/xmlschemas/TrackPointExtension/v1">
            <gpxtpx:hr>148</gpxtpx:hr>
          </gpxtpx:TrackPointExtension>
        </extensions>
      </trkpt>
      <trkpt lat="46.57014" lon="0.23801">
        <ele>117.80000305176</ele>
        <time>2022-04-17T08:15:54Z</time>
        <extensions>
          <gpxtpx:TrackPointExtension xmlns:gpxtpx="http://www.garmin.com/xmlschemas/TrackPointExtension/v1">
            <gpxtpx:hr>148</gpxtpx:hr>
          </gpxtpx:TrackPointExtension>
        </extensions>
      </trkpt>
      <trkpt lat="46.57011" lon="0.23801">
        <ele>118.19999694824</ele>
        <time>2022-04-17T08:15:55Z</time>
        <extensions>
          <gpxtpx:TrackPointExtension xmlns:gpxtpx="http://www.garmin.com/xmlschemas/TrackPointExtension/v1">
            <gpxtpx:hr>147</gpxtpx:hr>
          </gpxtpx:TrackPointExtension>
        </extensions>
      </trkpt>
      <trkpt lat="46.57009" lon="0.23801">
        <ele>118.80000305176</ele>
        <time>2022-04-17T08:15:56Z</time>
        <extensions>
          <gpxtpx:TrackPointExtension xmlns:gpxtpx="http://www.garmin.com/xmlschemas/TrackPointExtension/v1">
            <gpxtpx:hr>147</gpxtpx:hr>
          </gpxtpx:TrackPointExtension>
        </extensions>
      </trkpt>
      <trkpt lat="46.57007" lon="0.23801">
        <ele>119.19999694824</ele>
        <time>2022-04-17T08:15:57Z</time>
        <extensions>
          <gpxtpx:TrackPointExtension xmlns:gpxtpx="http://www.garmin.com/xmlschemas/TrackPointExtension/v1">
            <gpxtpx:hr>146</gpxtpx:hr>
          </gpxtpx:TrackPointExtension>
        </extensions>
      </trkpt>
      <trkpt lat="46.57004" lon="0.23802">
        <ele>119.19999694824</ele>
        <time>2022-04-17T08:15:58Z</time>
        <extensions>
          <gpxtpx:TrackPointExtension xmlns:gpxtpx="http://www.garmin.com/xmlschemas/TrackPointExtension/v1">
            <gpxtpx:hr>146</gpxtpx:hr>
          </gpxtpx:TrackPointExtension>
        </extensions>
      </trkpt>
      <trkpt lat="46.57002" lon="0.23802">
        <ele>119.40000152588</ele>
        <time>2022-04-17T08:15:59Z</time>
        <extensions>
          <gpxtpx:TrackPointExtension xmlns:gpxtpx="http://www.garmin.com/xmlschemas/TrackPointExtension/v1">
            <gpxtpx:hr>144</gpxtpx:hr>
          </gpxtpx:TrackPointExtension>
        </extensions>
      </trkpt>
      <trkpt lat="46.56999" lon="0.23802">
        <ele>119.40000152588</ele>
        <time>2022-04-17T08:16:00Z</time>
        <extensions>
          <gpxtpx:TrackPointExtension xmlns:gpxtpx="http://www.garmin.com/xmlschemas/TrackPointExtension/v1">
            <gpxtpx:hr>144</gpxtpx:hr>
          </gpxtpx:TrackPointExtension>
        </extensions>
      </trkpt>
      <trkpt lat="46.56997" lon="0.23803">
        <ele>119.59999847412</ele>
        <time>2022-04-17T08:16:01Z</time>
        <extensions>
          <gpxtpx:TrackPointExtension xmlns:gpxtpx="http://www.garmin.com/xmlschemas/TrackPointExtension/v1">
            <gpxtpx:hr>144</gpxtpx:hr>
          </gpxtpx:TrackPointExtension>
        </extensions>
      </trkpt>
      <trkpt lat="46.56995" lon="0.23803">
        <ele>119.80000305176</ele>
        <time>2022-04-17T08:16:02Z</time>
        <extensions>
          <gpxtpx:TrackPointExtension xmlns:gpxtpx="http://www.garmin.com/xmlschemas/TrackPointExtension/v1">
            <gpxtpx:hr>145</gpxtpx:hr>
          </gpxtpx:TrackPointExtension>
        </extensions>
      </trkpt>
      <trkpt lat="46.56993" lon="0.23803">
        <ele>119.80000305176</ele>
        <time>2022-04-17T08:16:03Z</time>
        <extensions>
          <gpxtpx:TrackPointExtension xmlns:gpxtpx="http://www.garmin.com/xmlschemas/TrackPointExtension/v1">
            <gpxtpx:hr>145</gpxtpx:hr>
          </gpxtpx:TrackPointExtension>
        </extensions>
      </trkpt>
      <trkpt lat="46.5699" lon="0.23804">
        <ele>120.19999694824</ele>
        <time>2022-04-17T08:16:04Z</time>
        <extensions>
          <gpxtpx:TrackPointExtension xmlns:gpxtpx="http://www.garmin.com/xmlschemas/TrackPointExtension/v1">
            <gpxtpx:hr>145</gpxtpx:hr>
          </gpxtpx:TrackPointExtension>
        </extensions>
      </trkpt>
      <trkpt lat="46.56988" lon="0.23804">
        <ele>120.59999847412</ele>
        <time>2022-04-17T08:16:05Z</time>
        <extensions>
          <gpxtpx:TrackPointExtension xmlns:gpxtpx="http://www.garmin.com/xmlschemas/TrackPointExtension/v1">
            <gpxtpx:hr>145</gpxtpx:hr>
          </gpxtpx:TrackPointExtension>
        </extensions>
      </trkpt>
      <trkpt lat="46.56985" lon="0.23805">
        <ele>121.40000152588</ele>
        <time>2022-04-17T08:16:06Z</time>
        <extensions>
          <gpxtpx:TrackPointExtension xmlns:gpxtpx="http://www.garmin.com/xmlschemas/TrackPointExtension/v1">
            <gpxtpx:hr>145</gpxtpx:hr>
          </gpxtpx:TrackPointExtension>
        </extensions>
      </trkpt>
      <trkpt lat="46.56982" lon="0.23806">
        <ele>121.80000305176</ele>
        <time>2022-04-17T08:16:07Z</time>
        <extensions>
          <gpxtpx:TrackPointExtension xmlns:gpxtpx="http://www.garmin.com/xmlschemas/TrackPointExtension/v1">
            <gpxtpx:hr>144</gpxtpx:hr>
          </gpxtpx:TrackPointExtension>
        </extensions>
      </trkpt>
      <trkpt lat="46.56978" lon="0.23808">
        <ele>122.40000152588</ele>
        <time>2022-04-17T08:16:08Z</time>
        <extensions>
          <gpxtpx:TrackPointExtension xmlns:gpxtpx="http://www.garmin.com/xmlschemas/TrackPointExtension/v1">
            <gpxtpx:hr>144</gpxtpx:hr>
          </gpxtpx:TrackPointExtension>
        </extensions>
      </trkpt>
      <trkpt lat="46.56976" lon="0.2381">
        <ele>122.80000305176</ele>
        <time>2022-04-17T08:16:09Z</time>
        <extensions>
          <gpxtpx:TrackPointExtension xmlns:gpxtpx="http://www.garmin.com/xmlschemas/TrackPointExtension/v1">
            <gpxtpx:hr>140</gpxtpx:hr>
          </gpxtpx:TrackPointExtension>
        </extensions>
      </trkpt>
      <trkpt lat="46.56974" lon="0.23812">
        <ele>123.40000152588</ele>
        <time>2022-04-17T08:16:10Z</time>
        <extensions>
          <gpxtpx:TrackPointExtension xmlns:gpxtpx="http://www.garmin.com/xmlschemas/TrackPointExtension/v1">
            <gpxtpx:hr>140</gpxtpx:hr>
          </gpxtpx:TrackPointExtension>
        </extensions>
      </trkpt>
      <trkpt lat="46.56972" lon="0.23815">
        <ele>123.80000305176</ele>
        <time>2022-04-17T08:16:11Z</time>
        <extensions>
          <gpxtpx:TrackPointExtension xmlns:gpxtpx="http://www.garmin.com/xmlschemas/TrackPointExtension/v1">
            <gpxtpx:hr>136</gpxtpx:hr>
          </gpxtpx:TrackPointExtension>
        </extensions>
      </trkpt>
      <trkpt lat="46.5697" lon="0.23817">
        <ele>124</ele>
        <time>2022-04-17T08:16:12Z</time>
        <extensions>
          <gpxtpx:TrackPointExtension xmlns:gpxtpx="http://www.garmin.com/xmlschemas/TrackPointExtension/v1">
            <gpxtpx:hr>136</gpxtpx:hr>
          </gpxtpx:TrackPointExtension>
        </extensions>
      </trkpt>
      <trkpt lat="46.56968" lon="0.2382">
        <ele>124.59999847412</ele>
        <time>2022-04-17T08:16:13Z</time>
        <extensions>
          <gpxtpx:TrackPointExtension xmlns:gpxtpx="http://www.garmin.com/xmlschemas/TrackPointExtension/v1">
            <gpxtpx:hr>133</gpxtpx:hr>
          </gpxtpx:TrackPointExtension>
        </extensions>
      </trkpt>
      <trkpt lat="46.56963" lon="0.23822">
        <ele>124.80000305176</ele>
        <time>2022-04-17T08:16:14Z</time>
        <extensions>
          <gpxtpx:TrackPointExtension xmlns:gpxtpx="http://www.garmin.com/xmlschemas/TrackPointExtension/v1">
            <gpxtpx:hr>126</gpxtpx:hr>
          </gpxtpx:TrackPointExtension>
        </extensions>
      </trkpt>
      <trkpt lat="46.56959" lon="0.23824">
        <ele>125.40000152588</ele>
        <time>2022-04-17T08:16:15Z</time>
        <extensions>
          <gpxtpx:TrackPointExtension xmlns:gpxtpx="http://www.garmin.com/xmlschemas/TrackPointExtension/v1">
            <gpxtpx:hr>126</gpxtpx:hr>
          </gpxtpx:TrackPointExtension>
        </extensions>
      </trkpt>
      <trkpt lat="46.56958" lon="0.23826">
        <ele>125.80000305176</ele>
        <time>2022-04-17T08:16:16Z</time>
        <extensions>
          <gpxtpx:TrackPointExtension xmlns:gpxtpx="http://www.garmin.com/xmlschemas/TrackPointExtension/v1">
            <gpxtpx:hr>124</gpxtpx:hr>
          </gpxtpx:TrackPointExtension>
        </extensions>
      </trkpt>
      <trkpt lat="46.56958" lon="0.23827">
        <ele>126.19999694824</ele>
        <time>2022-04-17T08:16:17Z</time>
        <extensions>
          <gpxtpx:TrackPointExtension xmlns:gpxtpx="http://www.garmin.com/xmlschemas/TrackPointExtension/v1">
            <gpxtpx:hr>123</gpxtpx:hr>
          </gpxtpx:TrackPointExtension>
        </extensions>
      </trkpt>
      <trkpt lat="46.56957" lon="0.2383">
        <ele>126.40000152588</ele>
        <time>2022-04-17T08:16:18Z</time>
        <extensions>
          <gpxtpx:TrackPointExtension xmlns:gpxtpx="http://www.garmin.com/xmlschemas/TrackPointExtension/v1">
            <gpxtpx:hr>125</gpxtpx:hr>
          </gpxtpx:TrackPointExtension>
        </extensions>
      </trkpt>
      <trkpt lat="46.56956" lon="0.23833">
        <ele>126.80000305176</ele>
        <time>2022-04-17T08:16:19Z</time>
        <extensions>
          <gpxtpx:TrackPointExtension xmlns:gpxtpx="http://www.garmin.com/xmlschemas/TrackPointExtension/v1">
            <gpxtpx:hr>125</gpxtpx:hr>
          </gpxtpx:TrackPointExtension>
        </extensions>
      </trkpt>
      <trkpt lat="46.56955" lon="0.23836">
        <ele>127.59999847412</ele>
        <time>2022-04-17T08:16:20Z</time>
        <extensions>
          <gpxtpx:TrackPointExtension xmlns:gpxtpx="http://www.garmin.com/xmlschemas/TrackPointExtension/v1">
            <gpxtpx:hr>124</gpxtpx:hr>
          </gpxtpx:TrackPointExtension>
        </extensions>
      </trkpt>
      <trkpt lat="46.56954" lon="0.23838">
        <ele>127.80000305176</ele>
        <time>2022-04-17T08:16:21Z</time>
        <extensions>
          <gpxtpx:TrackPointExtension xmlns:gpxtpx="http://www.garmin.com/xmlschemas/TrackPointExtension/v1">
            <gpxtpx:hr>124</gpxtpx:hr>
          </gpxtpx:TrackPointExtension>
        </extensions>
      </trkpt>
      <trkpt lat="46.56953" lon="0.2384">
        <ele>128.19999694824</ele>
        <time>2022-04-17T08:16:22Z</time>
        <extensions>
          <gpxtpx:TrackPointExtension xmlns:gpxtpx="http://www.garmin.com/xmlschemas/TrackPointExtension/v1">
            <gpxtpx:hr>120</gpxtpx:hr>
          </gpxtpx:TrackPointExtension>
        </extensions>
      </trkpt>
      <trkpt lat="46.56952" lon="0.23841">
        <ele>128.39999389648</ele>
        <time>2022-04-17T08:16:23Z</time>
        <extensions>
          <gpxtpx:TrackPointExtension xmlns:gpxtpx="http://www.garmin.com/xmlschemas/TrackPointExtension/v1">
            <gpxtpx:hr>117</gpxtpx:hr>
          </gpxtpx:TrackPointExtension>
        </extensions>
      </trkpt>
      <trkpt lat="46.56952" lon="0.23843">
        <ele>128.80000305176</ele>
        <time>2022-04-17T08:16:24Z</time>
        <extensions>
          <gpxtpx:TrackPointExtension xmlns:gpxtpx="http://www.garmin.com/xmlschemas/TrackPointExtension/v1">
            <gpxtpx:hr>114</gpxtpx:hr>
          </gpxtpx:TrackPointExtension>
        </extensions>
      </trkpt>
      <trkpt lat="46.5695" lon="0.23844">
        <ele>128.80000305176</ele>
        <time>2022-04-17T08:16:25Z</time>
        <extensions>
          <gpxtpx:TrackPointExtension xmlns:gpxtpx="http://www.garmin.com/xmlschemas/TrackPointExtension/v1">
            <gpxtpx:hr>112</gpxtpx:hr>
          </gpxtpx:TrackPointExtension>
        </extensions>
      </trkpt>
      <trkpt lat="46.56949" lon="0.23846">
        <ele>129.19999694824</ele>
        <time>2022-04-17T08:16:26Z</time>
        <extensions>
          <gpxtpx:TrackPointExtension xmlns:gpxtpx="http://www.garmin.com/xmlschemas/TrackPointExtension/v1">
            <gpxtpx:hr>110</gpxtpx:hr>
          </gpxtpx:TrackPointExtension>
        </extensions>
      </trkpt>
      <trkpt lat="46.56947" lon="0.23848">
        <ele>130</ele>
        <time>2022-04-17T08:16:27Z</time>
        <extensions>
          <gpxtpx:TrackPointExtension xmlns:gpxtpx="http://www.garmin.com/xmlschemas/TrackPointExtension/v1">
            <gpxtpx:hr>108</gpxtpx:hr>
          </gpxtpx:TrackPointExtension>
        </extensions>
      </trkpt>
      <trkpt lat="46.56945" lon="0.23851">
        <ele>130.19999694824</ele>
        <time>2022-04-17T08:16:28Z</time>
        <extensions>
          <gpxtpx:TrackPointExtension xmlns:gpxtpx="http://www.garmin.com/xmlschemas/TrackPointExtension/v1">
            <gpxtpx:hr>108</gpxtpx:hr>
          </gpxtpx:TrackPointExtension>
        </extensions>
      </trkpt>
      <trkpt lat="46.56943" lon="0.23853">
        <ele>130.60000610352</ele>
        <time>2022-04-17T08:16:29Z</time>
        <extensions>
          <gpxtpx:TrackPointExtension xmlns:gpxtpx="http://www.garmin.com/xmlschemas/TrackPointExtension/v1">
            <gpxtpx:hr>107</gpxtpx:hr>
          </gpxtpx:TrackPointExtension>
        </extensions>
      </trkpt>
      <trkpt lat="46.56942" lon="0.23853">
        <ele>130.80000305176</ele>
        <time>2022-04-17T08:16:30Z</time>
        <extensions>
          <gpxtpx:TrackPointExtension xmlns:gpxtpx="http://www.garmin.com/xmlschemas/TrackPointExtension/v1">
            <gpxtpx:hr>104</gpxtpx:hr>
          </gpxtpx:TrackPointExtension>
        </extensions>
      </trkpt>
      <trkpt lat="46.5694" lon="0.23854">
        <ele>131.39999389648</ele>
        <time>2022-04-17T08:16:31Z</time>
        <extensions>
          <gpxtpx:TrackPointExtension xmlns:gpxtpx="http://www.garmin.com/xmlschemas/TrackPointExtension/v1">
            <gpxtpx:hr>103</gpxtpx:hr>
          </gpxtpx:TrackPointExtension>
        </extensions>
      </trkpt>
      <trkpt lat="46.56939" lon="0.23855">
        <ele>131.80000305176</ele>
        <time>2022-04-17T08:16:32Z</time>
        <extensions>
          <gpxtpx:TrackPointExtension xmlns:gpxtpx="http://www.garmin.com/xmlschemas/TrackPointExtension/v1">
            <gpxtpx:hr>104</gpxtpx:hr>
          </gpxtpx:TrackPointExtension>
        </extensions>
      </trkpt>
      <trkpt lat="46.56937" lon="0.23855">
        <ele>132.60000610352</ele>
        <time>2022-04-17T08:16:33Z</time>
        <extensions>
          <gpxtpx:TrackPointExtension xmlns:gpxtpx="http://www.garmin.com/xmlschemas/TrackPointExtension/v1">
            <gpxtpx:hr>104</gpxtpx:hr>
          </gpxtpx:TrackPointExtension>
        </extensions>
      </trkpt>
      <trkpt lat="46.56935" lon="0.23855">
        <ele>132.80000305176</ele>
        <time>2022-04-17T08:16:34Z</time>
        <extensions>
          <gpxtpx:TrackPointExtension xmlns:gpxtpx="http://www.garmin.com/xmlschemas/TrackPointExtension/v1">
            <gpxtpx:hr>106</gpxtpx:hr>
          </gpxtpx:TrackPointExtension>
        </extensions>
      </trkpt>
      <trkpt lat="46.56934" lon="0.23855">
        <ele>133</ele>
        <time>2022-04-17T08:16:35Z</time>
        <extensions>
          <gpxtpx:TrackPointExtension xmlns:gpxtpx="http://www.garmin.com/xmlschemas/TrackPointExtension/v1">
            <gpxtpx:hr>105</gpxtpx:hr>
          </gpxtpx:TrackPointExtension>
        </extensions>
      </trkpt>
      <trkpt lat="46.56933" lon="0.23855">
        <ele>133.39999389648</ele>
        <time>2022-04-17T08:16:36Z</time>
        <extensions>
          <gpxtpx:TrackPointExtension xmlns:gpxtpx="http://www.garmin.com/xmlschemas/TrackPointExtension/v1">
            <gpxtpx:hr>104</gpxtpx:hr>
          </gpxtpx:TrackPointExtension>
        </extensions>
      </trkpt>
      <trkpt lat="46.56933" lon="0.23854">
        <ele>133.39999389648</ele>
        <time>2022-04-17T08:16:37Z</time>
        <extensions>
          <gpxtpx:TrackPointExtension xmlns:gpxtpx="http://www.garmin.com/xmlschemas/TrackPointExtension/v1">
            <gpxtpx:hr>104</gpxtpx:hr>
          </gpxtpx:TrackPointExtension>
        </extensions>
      </trkpt>
      <trkpt lat="46.56933" lon="0.23853">
        <ele>133.80000305176</ele>
        <time>2022-04-17T08:16:38Z</time>
        <extensions>
          <gpxtpx:TrackPointExtension xmlns:gpxtpx="http://www.garmin.com/xmlschemas/TrackPointExtension/v1">
            <gpxtpx:hr>105</gpxtpx:hr>
          </gpxtpx:TrackPointExtension>
        </extensions>
      </trkpt>
      <trkpt lat="46.56932" lon="0.23852">
        <ele>133.80000305176</ele>
        <time>2022-04-17T08:16:39Z</time>
        <extensions>
          <gpxtpx:TrackPointExtension xmlns:gpxtpx="http://www.garmin.com/xmlschemas/TrackPointExtension/v1">
            <gpxtpx:hr>108</gpxtpx:hr>
          </gpxtpx:TrackPointExtension>
        </extensions>
      </trkpt>
      <trkpt lat="46.56931" lon="0.2385">
        <ele>134.39999389648</ele>
        <time>2022-04-17T08:16:40Z</time>
        <extensions>
          <gpxtpx:TrackPointExtension xmlns:gpxtpx="http://www.garmin.com/xmlschemas/TrackPointExtension/v1">
            <gpxtpx:hr>110</gpxtpx:hr>
          </gpxtpx:TrackPointExtension>
        </extensions>
      </trkpt>
      <trkpt lat="46.5693" lon="0.23849">
        <ele>134.80000305176</ele>
        <time>2022-04-17T08:16:41Z</time>
        <extensions>
          <gpxtpx:TrackPointExtension xmlns:gpxtpx="http://www.garmin.com/xmlschemas/TrackPointExtension/v1">
            <gpxtpx:hr>111</gpxtpx:hr>
          </gpxtpx:TrackPointExtension>
        </extensions>
      </trkpt>
      <trkpt lat="46.56929" lon="0.23847">
        <ele>135.19999694824</ele>
        <time>2022-04-17T08:16:42Z</time>
        <extensions>
          <gpxtpx:TrackPointExtension xmlns:gpxtpx="http://www.garmin.com/xmlschemas/TrackPointExtension/v1">
            <gpxtpx:hr>111</gpxtpx:hr>
          </gpxtpx:TrackPointExtension>
        </extensions>
      </trkpt>
      <trkpt lat="46.56929" lon="0.23845">
        <ele>135.80000305176</ele>
        <time>2022-04-17T08:16:43Z</time>
        <extensions>
          <gpxtpx:TrackPointExtension xmlns:gpxtpx="http://www.garmin.com/xmlschemas/TrackPointExtension/v1">
            <gpxtpx:hr>112</gpxtpx:hr>
          </gpxtpx:TrackPointExtension>
        </extensions>
      </trkpt>
      <trkpt lat="46.56928" lon="0.23842">
        <ele>135.80000305176</ele>
        <time>2022-04-17T08:16:44Z</time>
        <extensions>
          <gpxtpx:TrackPointExtension xmlns:gpxtpx="http://www.garmin.com/xmlschemas/TrackPointExtension/v1">
            <gpxtpx:hr>109</gpxtpx:hr>
          </gpxtpx:TrackPointExtension>
        </extensions>
      </trkpt>
      <trkpt lat="46.56928" lon="0.23841">
        <ele>136.19999694824</ele>
        <time>2022-04-17T08:16:45Z</time>
        <extensions>
          <gpxtpx:TrackPointExtension xmlns:gpxtpx="http://www.garmin.com/xmlschemas/TrackPointExtension/v1">
            <gpxtpx:hr>109</gpxtpx:hr>
          </gpxtpx:TrackPointExtension>
        </extensions>
      </trkpt>
      <trkpt lat="46.56927" lon="0.23838">
        <ele>136.39999389648</ele>
        <time>2022-04-17T08:16:46Z</time>
        <extensions>
          <gpxtpx:TrackPointExtension xmlns:gpxtpx="http://www.garmin.com/xmlschemas/TrackPointExtension/v1">
            <gpxtpx:hr>109</gpxtpx:hr>
          </gpxtpx:TrackPointExtension>
        </extensions>
      </trkpt>
      <trkpt lat="46.56926" lon="0.23836">
        <ele>136.60000610352</ele>
        <time>2022-04-17T08:16:47Z</time>
        <extensions>
          <gpxtpx:TrackPointExtension xmlns:gpxtpx="http://www.garmin.com/xmlschemas/TrackPointExtension/v1">
            <gpxtpx:hr>111</gpxtpx:hr>
          </gpxtpx:TrackPointExtension>
        </extensions>
      </trkpt>
      <trkpt lat="46.56925" lon="0.23834">
        <ele>136.60000610352</ele>
        <time>2022-04-17T08:16:48Z</time>
        <extensions>
          <gpxtpx:TrackPointExtension xmlns:gpxtpx="http://www.garmin.com/xmlschemas/TrackPointExtension/v1">
            <gpxtpx:hr>111</gpxtpx:hr>
          </gpxtpx:TrackPointExtension>
        </extensions>
      </trkpt>
      <trkpt lat="46.56924" lon="0.23832">
        <ele>136.80000305176</ele>
        <time>2022-04-17T08:16:49Z</time>
        <extensions>
          <gpxtpx:TrackPointExtension xmlns:gpxtpx="http://www.garmin.com/xmlschemas/TrackPointExtension/v1">
            <gpxtpx:hr>113</gpxtpx:hr>
          </gpxtpx:TrackPointExtension>
        </extensions>
      </trkpt>
      <trkpt lat="46.56924" lon="0.2383">
        <ele>137</ele>
        <time>2022-04-17T08:16:50Z</time>
        <extensions>
          <gpxtpx:TrackPointExtension xmlns:gpxtpx="http://www.garmin.com/xmlschemas/TrackPointExtension/v1">
            <gpxtpx:hr>113</gpxtpx:hr>
          </gpxtpx:TrackPointExtension>
        </extensions>
      </trkpt>
      <trkpt lat="46.56923" lon="0.23828">
        <ele>137.19999694824</ele>
        <time>2022-04-17T08:16:51Z</time>
        <extensions>
          <gpxtpx:TrackPointExtension xmlns:gpxtpx="http://www.garmin.com/xmlschemas/TrackPointExtension/v1">
            <gpxtpx:hr>115</gpxtpx:hr>
          </gpxtpx:TrackPointExtension>
        </extensions>
      </trkpt>
      <trkpt lat="46.56923" lon="0.23827">
        <ele>137.39999389648</ele>
        <time>2022-04-17T08:16:52Z</time>
        <extensions>
          <gpxtpx:TrackPointExtension xmlns:gpxtpx="http://www.garmin.com/xmlschemas/TrackPointExtension/v1">
            <gpxtpx:hr>119</gpxtpx:hr>
          </gpxtpx:TrackPointExtension>
        </extensions>
      </trkpt>
      <trkpt lat="46.56922" lon="0.23825">
        <ele>137.39999389648</ele>
        <time>2022-04-17T08:16:53Z</time>
        <extensions>
          <gpxtpx:TrackPointExtension xmlns:gpxtpx="http://www.garmin.com/xmlschemas/TrackPointExtension/v1">
            <gpxtpx:hr>122</gpxtpx:hr>
          </gpxtpx:TrackPointExtension>
        </extensions>
      </trkpt>
      <trkpt lat="46.56922" lon="0.23823">
        <ele>137.60000610352</ele>
        <time>2022-04-17T08:16:54Z</time>
        <extensions>
          <gpxtpx:TrackPointExtension xmlns:gpxtpx="http://www.garmin.com/xmlschemas/TrackPointExtension/v1">
            <gpxtpx:hr>130</gpxtpx:hr>
          </gpxtpx:TrackPointExtension>
        </extensions>
      </trkpt>
      <trkpt lat="46.56921" lon="0.23821">
        <ele>137.60000610352</ele>
        <time>2022-04-17T08:16:55Z</time>
        <extensions>
          <gpxtpx:TrackPointExtension xmlns:gpxtpx="http://www.garmin.com/xmlschemas/TrackPointExtension/v1">
            <gpxtpx:hr>130</gpxtpx:hr>
          </gpxtpx:TrackPointExtension>
        </extensions>
      </trkpt>
      <trkpt lat="46.56921" lon="0.23819">
        <ele>137.80000305176</ele>
        <time>2022-04-17T08:16:56Z</time>
        <extensions>
          <gpxtpx:TrackPointExtension xmlns:gpxtpx="http://www.garmin.com/xmlschemas/TrackPointExtension/v1">
            <gpxtpx:hr>138</gpxtpx:hr>
          </gpxtpx:TrackPointExtension>
        </extensions>
      </trkpt>
      <trkpt lat="46.5692" lon="0.23817">
        <ele>137.80000305176</ele>
        <time>2022-04-17T08:16:57Z</time>
        <extensions>
          <gpxtpx:TrackPointExtension xmlns:gpxtpx="http://www.garmin.com/xmlschemas/TrackPointExtension/v1">
            <gpxtpx:hr>140</gpxtpx:hr>
          </gpxtpx:TrackPointExtension>
        </extensions>
      </trkpt>
      <trkpt lat="46.56919" lon="0.23814">
        <ele>138</ele>
        <time>2022-04-17T08:16:58Z</time>
        <extensions>
          <gpxtpx:TrackPointExtension xmlns:gpxtpx="http://www.garmin.com/xmlschemas/TrackPointExtension/v1">
            <gpxtpx:hr>140</gpxtpx:hr>
          </gpxtpx:TrackPointExtension>
        </extensions>
      </trkpt>
      <trkpt lat="46.56918" lon="0.23812">
        <ele>138.19999694824</ele>
        <time>2022-04-17T08:16:59Z</time>
        <extensions>
          <gpxtpx:TrackPointExtension xmlns:gpxtpx="http://www.garmin.com/xmlschemas/TrackPointExtension/v1">
            <gpxtpx:hr>138</gpxtpx:hr>
          </gpxtpx:TrackPointExtension>
        </extensions>
      </trkpt>
      <trkpt lat="46.56917" lon="0.23811">
        <ele>138.19999694824</ele>
        <time>2022-04-17T08:17:00Z</time>
        <extensions>
          <gpxtpx:TrackPointExtension xmlns:gpxtpx="http://www.garmin.com/xmlschemas/TrackPointExtension/v1">
            <gpxtpx:hr>136</gpxtpx:hr>
          </gpxtpx:TrackPointExtension>
        </extensions>
      </trkpt>
      <trkpt lat="46.56916" lon="0.23809">
        <ele>138.39999389648</ele>
        <time>2022-04-17T08:17:01Z</time>
        <extensions>
          <gpxtpx:TrackPointExtension xmlns:gpxtpx="http://www.garmin.com/xmlschemas/TrackPointExtension/v1">
            <gpxtpx:hr>136</gpxtpx:hr>
          </gpxtpx:TrackPointExtension>
        </extensions>
      </trkpt>
      <trkpt lat="46.56915" lon="0.23807">
        <ele>138.39999389648</ele>
        <time>2022-04-17T08:17:02Z</time>
        <extensions>
          <gpxtpx:TrackPointExtension xmlns:gpxtpx="http://www.garmin.com/xmlschemas/TrackPointExtension/v1">
            <gpxtpx:hr>132</gpxtpx:hr>
          </gpxtpx:TrackPointExtension>
        </extensions>
      </trkpt>
      <trkpt lat="46.56914" lon="0.23806">
        <ele>138.60000610352</ele>
        <time>2022-04-17T08:17:03Z</time>
        <extensions>
          <gpxtpx:TrackPointExtension xmlns:gpxtpx="http://www.garmin.com/xmlschemas/TrackPointExtension/v1">
            <gpxtpx:hr>131</gpxtpx:hr>
          </gpxtpx:TrackPointExtension>
        </extensions>
      </trkpt>
      <trkpt lat="46.56914" lon="0.23805">
        <ele>138.60000610352</ele>
        <time>2022-04-17T08:17:04Z</time>
        <extensions>
          <gpxtpx:TrackPointExtension xmlns:gpxtpx="http://www.garmin.com/xmlschemas/TrackPointExtension/v1">
            <gpxtpx:hr>132</gpxtpx:hr>
          </gpxtpx:TrackPointExtension>
        </extensions>
      </trkpt>
      <trkpt lat="46.56912" lon="0.23802">
        <ele>139</ele>
        <time>2022-04-17T08:17:27Z</time>
        <extensions>
          <gpxtpx:TrackPointExtension xmlns:gpxtpx="http://www.garmin.com/xmlschemas/TrackPointExtension/v1">
            <gpxtpx:hr>145</gpxtpx:hr>
          </gpxtpx:TrackPointExtension>
        </extensions>
      </trkpt>
      <trkpt lat="46.56912" lon="0.23799">
        <ele>139</ele>
        <time>2022-04-17T08:17:28Z</time>
        <extensions>
          <gpxtpx:TrackPointExtension xmlns:gpxtpx="http://www.garmin.com/xmlschemas/TrackPointExtension/v1">
            <gpxtpx:hr>145</gpxtpx:hr>
          </gpxtpx:TrackPointExtension>
        </extensions>
      </trkpt>
      <trkpt lat="46.56911" lon="0.23794">
        <ele>139</ele>
        <time>2022-04-17T08:17:30Z</time>
        <extensions>
          <gpxtpx:TrackPointExtension xmlns:gpxtpx="http://www.garmin.com/xmlschemas/TrackPointExtension/v1">
            <gpxtpx:hr>145</gpxtpx:hr>
          </gpxtpx:TrackPointExtension>
        </extensions>
      </trkpt>
      <trkpt lat="46.56911" lon="0.23791">
        <ele>139</ele>
        <time>2022-04-17T08:17:31Z</time>
        <extensions>
          <gpxtpx:TrackPointExtension xmlns:gpxtpx="http://www.garmin.com/xmlschemas/TrackPointExtension/v1">
            <gpxtpx:hr>144</gpxtpx:hr>
          </gpxtpx:TrackPointExtension>
        </extensions>
      </trkpt>
      <trkpt lat="46.56906" lon="0.23771">
        <ele>139.19999694824</ele>
        <time>2022-04-17T08:17:38Z</time>
        <extensions>
          <gpxtpx:TrackPointExtension xmlns:gpxtpx="http://www.garmin.com/xmlschemas/TrackPointExtension/v1">
            <gpxtpx:hr>142</gpxtpx:hr>
          </gpxtpx:TrackPointExtension>
        </extensions>
      </trkpt>
      <trkpt lat="46.56905" lon="0.23769">
        <ele>139.19999694824</ele>
        <time>2022-04-17T08:17:39Z</time>
        <extensions>
          <gpxtpx:TrackPointExtension xmlns:gpxtpx="http://www.garmin.com/xmlschemas/TrackPointExtension/v1">
            <gpxtpx:hr>142</gpxtpx:hr>
          </gpxtpx:TrackPointExtension>
        </extensions>
      </trkpt>
      <trkpt lat="46.56903" lon="0.23766">
        <ele>139.19999694824</ele>
        <time>2022-04-17T08:17:40Z</time>
        <extensions>
          <gpxtpx:TrackPointExtension xmlns:gpxtpx="http://www.garmin.com/xmlschemas/TrackPointExtension/v1">
            <gpxtpx:hr>141</gpxtpx:hr>
          </gpxtpx:TrackPointExtension>
        </extensions>
      </trkpt>
      <trkpt lat="46.56901" lon="0.23764">
        <ele>139.19999694824</ele>
        <time>2022-04-17T08:17:41Z</time>
        <extensions>
          <gpxtpx:TrackPointExtension xmlns:gpxtpx="http://www.garmin.com/xmlschemas/TrackPointExtension/v1">
            <gpxtpx:hr>139</gpxtpx:hr>
          </gpxtpx:TrackPointExtension>
        </extensions>
      </trkpt>
      <trkpt lat="46.56898" lon="0.23761">
        <ele>139.39999389648</ele>
        <time>2022-04-17T08:17:43Z</time>
        <extensions>
          <gpxtpx:TrackPointExtension xmlns:gpxtpx="http://www.garmin.com/xmlschemas/TrackPointExtension/v1">
            <gpxtpx:hr>139</gpxtpx:hr>
          </gpxtpx:TrackPointExtension>
        </extensions>
      </trkpt>
      <trkpt lat="46.5689" lon="0.23753">
        <ele>140</ele>
        <time>2022-04-17T08:17:47Z</time>
        <extensions>
          <gpxtpx:TrackPointExtension xmlns:gpxtpx="http://www.garmin.com/xmlschemas/TrackPointExtension/v1">
            <gpxtpx:hr>136</gpxtpx:hr>
          </gpxtpx:TrackPointExtension>
        </extensions>
      </trkpt>
      <trkpt lat="46.56884" lon="0.23746">
        <ele>140.39999389648</ele>
        <time>2022-04-17T08:17:50Z</time>
        <extensions>
          <gpxtpx:TrackPointExtension xmlns:gpxtpx="http://www.garmin.com/xmlschemas/TrackPointExtension/v1">
            <gpxtpx:hr>136</gpxtpx:hr>
          </gpxtpx:TrackPointExtension>
        </extensions>
      </trkpt>
      <trkpt lat="46.56876" lon="0.23735">
        <ele>141.19999694824</ele>
        <time>2022-04-17T08:17:55Z</time>
        <extensions>
          <gpxtpx:TrackPointExtension xmlns:gpxtpx="http://www.garmin.com/xmlschemas/TrackPointExtension/v1">
            <gpxtpx:hr>136</gpxtpx:hr>
          </gpxtpx:TrackPointExtension>
        </extensions>
      </trkpt>
      <trkpt lat="46.56872" lon="0.23729">
        <ele>141.39999389648</ele>
        <time>2022-04-17T08:17:57Z</time>
        <extensions>
          <gpxtpx:TrackPointExtension xmlns:gpxtpx="http://www.garmin.com/xmlschemas/TrackPointExtension/v1">
            <gpxtpx:hr>136</gpxtpx:hr>
          </gpxtpx:TrackPointExtension>
        </extensions>
      </trkpt>
      <trkpt lat="46.56863" lon="0.23715">
        <ele>142</ele>
        <time>2022-04-17T08:18:02Z</time>
        <extensions>
          <gpxtpx:TrackPointExtension xmlns:gpxtpx="http://www.garmin.com/xmlschemas/TrackPointExtension/v1">
            <gpxtpx:hr>137</gpxtpx:hr>
          </gpxtpx:TrackPointExtension>
        </extensions>
      </trkpt>
      <trkpt lat="46.5686" lon="0.23712">
        <ele>142.19999694824</ele>
        <time>2022-04-17T08:18:03Z</time>
        <extensions>
          <gpxtpx:TrackPointExtension xmlns:gpxtpx="http://www.garmin.com/xmlschemas/TrackPointExtension/v1">
            <gpxtpx:hr>135</gpxtpx:hr>
          </gpxtpx:TrackPointExtension>
        </extensions>
      </trkpt>
      <trkpt lat="46.56858" lon="0.23709">
        <ele>142.60000610352</ele>
        <time>2022-04-17T08:18:04Z</time>
        <extensions>
          <gpxtpx:TrackPointExtension xmlns:gpxtpx="http://www.garmin.com/xmlschemas/TrackPointExtension/v1">
            <gpxtpx:hr>134</gpxtpx:hr>
          </gpxtpx:TrackPointExtension>
        </extensions>
      </trkpt>
      <trkpt lat="46.56856" lon="0.23706">
        <ele>142.39999389648</ele>
        <time>2022-04-17T08:18:05Z</time>
        <extensions>
          <gpxtpx:TrackPointExtension xmlns:gpxtpx="http://www.garmin.com/xmlschemas/TrackPointExtension/v1">
            <gpxtpx:hr>134</gpxtpx:hr>
          </gpxtpx:TrackPointExtension>
        </extensions>
      </trkpt>
      <trkpt lat="46.56854" lon="0.23703">
        <ele>142.39999389648</ele>
        <time>2022-04-17T08:18:06Z</time>
        <extensions>
          <gpxtpx:TrackPointExtension xmlns:gpxtpx="http://www.garmin.com/xmlschemas/TrackPointExtension/v1">
            <gpxtpx:hr>133</gpxtpx:hr>
          </gpxtpx:TrackPointExtension>
        </extensions>
      </trkpt>
      <trkpt lat="46.56852" lon="0.23701">
        <ele>142.60000610352</ele>
        <time>2022-04-17T08:18:07Z</time>
        <extensions>
          <gpxtpx:TrackPointExtension xmlns:gpxtpx="http://www.garmin.com/xmlschemas/TrackPointExtension/v1">
            <gpxtpx:hr>132</gpxtpx:hr>
          </gpxtpx:TrackPointExtension>
        </extensions>
      </trkpt>
      <trkpt lat="46.5685" lon="0.23698">
        <ele>142.60000610352</ele>
        <time>2022-04-17T08:18:08Z</time>
        <extensions>
          <gpxtpx:TrackPointExtension xmlns:gpxtpx="http://www.garmin.com/xmlschemas/TrackPointExtension/v1">
            <gpxtpx:hr>132</gpxtpx:hr>
          </gpxtpx:TrackPointExtension>
        </extensions>
      </trkpt>
      <trkpt lat="46.56848" lon="0.23696">
        <ele>142.80000305176</ele>
        <time>2022-04-17T08:18:09Z</time>
        <extensions>
          <gpxtpx:TrackPointExtension xmlns:gpxtpx="http://www.garmin.com/xmlschemas/TrackPointExtension/v1">
            <gpxtpx:hr>132</gpxtpx:hr>
          </gpxtpx:TrackPointExtension>
        </extensions>
      </trkpt>
      <trkpt lat="46.56846" lon="0.23693">
        <ele>142.80000305176</ele>
        <time>2022-04-17T08:18:10Z</time>
        <extensions>
          <gpxtpx:TrackPointExtension xmlns:gpxtpx="http://www.garmin.com/xmlschemas/TrackPointExtension/v1">
            <gpxtpx:hr>133</gpxtpx:hr>
          </gpxtpx:TrackPointExtension>
        </extensions>
      </trkpt>
      <trkpt lat="46.56844" lon="0.23691">
        <ele>142.80000305176</ele>
        <time>2022-04-17T08:18:11Z</time>
        <extensions>
          <gpxtpx:TrackPointExtension xmlns:gpxtpx="http://www.garmin.com/xmlschemas/TrackPointExtension/v1">
            <gpxtpx:hr>133</gpxtpx:hr>
          </gpxtpx:TrackPointExtension>
        </extensions>
      </trkpt>
      <trkpt lat="46.56842" lon="0.23689">
        <ele>142.60000610352</ele>
        <time>2022-04-17T08:18:12Z</time>
        <extensions>
          <gpxtpx:TrackPointExtension xmlns:gpxtpx="http://www.garmin.com/xmlschemas/TrackPointExtension/v1">
            <gpxtpx:hr>133</gpxtpx:hr>
          </gpxtpx:TrackPointExtension>
        </extensions>
      </trkpt>
      <trkpt lat="46.5684" lon="0.23687">
        <ele>143</ele>
        <time>2022-04-17T08:18:13Z</time>
        <extensions>
          <gpxtpx:TrackPointExtension xmlns:gpxtpx="http://www.garmin.com/xmlschemas/TrackPointExtension/v1">
            <gpxtpx:hr>133</gpxtpx:hr>
          </gpxtpx:TrackPointExtension>
        </extensions>
      </trkpt>
      <trkpt lat="46.56839" lon="0.23685">
        <ele>143.19999694824</ele>
        <time>2022-04-17T08:18:14Z</time>
        <extensions>
          <gpxtpx:TrackPointExtension xmlns:gpxtpx="http://www.garmin.com/xmlschemas/TrackPointExtension/v1">
            <gpxtpx:hr>133</gpxtpx:hr>
          </gpxtpx:TrackPointExtension>
        </extensions>
      </trkpt>
      <trkpt lat="46.56837" lon="0.23684">
        <ele>143.19999694824</ele>
        <time>2022-04-17T08:18:15Z</time>
        <extensions>
          <gpxtpx:TrackPointExtension xmlns:gpxtpx="http://www.garmin.com/xmlschemas/TrackPointExtension/v1">
            <gpxtpx:hr>133</gpxtpx:hr>
          </gpxtpx:TrackPointExtension>
        </extensions>
      </trkpt>
      <trkpt lat="46.56835" lon="0.23683">
        <ele>143.19999694824</ele>
        <time>2022-04-17T08:18:16Z</time>
        <extensions>
          <gpxtpx:TrackPointExtension xmlns:gpxtpx="http://www.garmin.com/xmlschemas/TrackPointExtension/v1">
            <gpxtpx:hr>133</gpxtpx:hr>
          </gpxtpx:TrackPointExtension>
        </extensions>
      </trkpt>
      <trkpt lat="46.56834" lon="0.23681">
        <ele>143.39999389648</ele>
        <time>2022-04-17T08:18:17Z</time>
        <extensions>
          <gpxtpx:TrackPointExtension xmlns:gpxtpx="http://www.garmin.com/xmlschemas/TrackPointExtension/v1">
            <gpxtpx:hr>133</gpxtpx:hr>
          </gpxtpx:TrackPointExtension>
        </extensions>
      </trkpt>
      <trkpt lat="46.56833" lon="0.2368">
        <ele>143.39999389648</ele>
        <time>2022-04-17T08:18:18Z</time>
        <extensions>
          <gpxtpx:TrackPointExtension xmlns:gpxtpx="http://www.garmin.com/xmlschemas/TrackPointExtension/v1">
            <gpxtpx:hr>133</gpxtpx:hr>
          </gpxtpx:TrackPointExtension>
        </extensions>
      </trkpt>
      <trkpt lat="46.56831" lon="0.23678">
        <ele>143.39999389648</ele>
        <time>2022-04-17T08:18:19Z</time>
        <extensions>
          <gpxtpx:TrackPointExtension xmlns:gpxtpx="http://www.garmin.com/xmlschemas/TrackPointExtension/v1">
            <gpxtpx:hr>133</gpxtpx:hr>
          </gpxtpx:TrackPointExtension>
        </extensions>
      </trkpt>
      <trkpt lat="46.5683" lon="0.23677">
        <ele>143.39999389648</ele>
        <time>2022-04-17T08:18:20Z</time>
        <extensions>
          <gpxtpx:TrackPointExtension xmlns:gpxtpx="http://www.garmin.com/xmlschemas/TrackPointExtension/v1">
            <gpxtpx:hr>133</gpxtpx:hr>
          </gpxtpx:TrackPointExtension>
        </extensions>
      </trkpt>
      <trkpt lat="46.56828" lon="0.23676">
        <ele>143.39999389648</ele>
        <time>2022-04-17T08:18:21Z</time>
        <extensions>
          <gpxtpx:TrackPointExtension xmlns:gpxtpx="http://www.garmin.com/xmlschemas/TrackPointExtension/v1">
            <gpxtpx:hr>133</gpxtpx:hr>
          </gpxtpx:TrackPointExtension>
        </extensions>
      </trkpt>
      <trkpt lat="46.56826" lon="0.23676">
        <ele>143.39999389648</ele>
        <time>2022-04-17T08:18:22Z</time>
        <extensions>
          <gpxtpx:TrackPointExtension xmlns:gpxtpx="http://www.garmin.com/xmlschemas/TrackPointExtension/v1">
            <gpxtpx:hr>134</gpxtpx:hr>
          </gpxtpx:TrackPointExtension>
        </extensions>
      </trkpt>
      <trkpt lat="46.56824" lon="0.23676">
        <ele>143.39999389648</ele>
        <time>2022-04-17T08:18:23Z</time>
        <extensions>
          <gpxtpx:TrackPointExtension xmlns:gpxtpx="http://www.garmin.com/xmlschemas/TrackPointExtension/v1">
            <gpxtpx:hr>134</gpxtpx:hr>
          </gpxtpx:TrackPointExtension>
        </extensions>
      </trkpt>
      <trkpt lat="46.56822" lon="0.23677">
        <ele>143.39999389648</ele>
        <time>2022-04-17T08:18:24Z</time>
        <extensions>
          <gpxtpx:TrackPointExtension xmlns:gpxtpx="http://www.garmin.com/xmlschemas/TrackPointExtension/v1">
            <gpxtpx:hr>134</gpxtpx:hr>
          </gpxtpx:TrackPointExtension>
        </extensions>
      </trkpt>
      <trkpt lat="46.5682" lon="0.23677">
        <ele>143.39999389648</ele>
        <time>2022-04-17T08:18:25Z</time>
        <extensions>
          <gpxtpx:TrackPointExtension xmlns:gpxtpx="http://www.garmin.com/xmlschemas/TrackPointExtension/v1">
            <gpxtpx:hr>133</gpxtpx:hr>
          </gpxtpx:TrackPointExtension>
        </extensions>
      </trkpt>
      <trkpt lat="46.56818" lon="0.23678">
        <ele>143.60000610352</ele>
        <time>2022-04-17T08:18:26Z</time>
        <extensions>
          <gpxtpx:TrackPointExtension xmlns:gpxtpx="http://www.garmin.com/xmlschemas/TrackPointExtension/v1">
            <gpxtpx:hr>133</gpxtpx:hr>
          </gpxtpx:TrackPointExtension>
        </extensions>
      </trkpt>
      <trkpt lat="46.56816" lon="0.23678">
        <ele>143.60000610352</ele>
        <time>2022-04-17T08:18:27Z</time>
        <extensions>
          <gpxtpx:TrackPointExtension xmlns:gpxtpx="http://www.garmin.com/xmlschemas/TrackPointExtension/v1">
            <gpxtpx:hr>133</gpxtpx:hr>
          </gpxtpx:TrackPointExtension>
        </extensions>
      </trkpt>
      <trkpt lat="46.56809" lon="0.23677">
        <ele>144</ele>
        <time>2022-04-17T08:18:30Z</time>
        <extensions>
          <gpxtpx:TrackPointExtension xmlns:gpxtpx="http://www.garmin.com/xmlschemas/TrackPointExtension/v1">
            <gpxtpx:hr>130</gpxtpx:hr>
          </gpxtpx:TrackPointExtension>
        </extensions>
      </trkpt>
      <trkpt lat="46.56807" lon="0.23676">
        <ele>144</ele>
        <time>2022-04-17T08:18:31Z</time>
        <extensions>
          <gpxtpx:TrackPointExtension xmlns:gpxtpx="http://www.garmin.com/xmlschemas/TrackPointExtension/v1">
            <gpxtpx:hr>130</gpxtpx:hr>
          </gpxtpx:TrackPointExtension>
        </extensions>
      </trkpt>
      <trkpt lat="46.56792" lon="0.23672">
        <ele>144.60000610352</ele>
        <time>2022-04-17T08:18:37Z</time>
        <extensions>
          <gpxtpx:TrackPointExtension xmlns:gpxtpx="http://www.garmin.com/xmlschemas/TrackPointExtension/v1">
            <gpxtpx:hr>130</gpxtpx:hr>
          </gpxtpx:TrackPointExtension>
        </extensions>
      </trkpt>
      <trkpt lat="46.56786" lon="0.23668">
        <ele>145.19999694824</ele>
        <time>2022-04-17T08:18:40Z</time>
        <extensions>
          <gpxtpx:TrackPointExtension xmlns:gpxtpx="http://www.garmin.com/xmlschemas/TrackPointExtension/v1">
            <gpxtpx:hr>129</gpxtpx:hr>
          </gpxtpx:TrackPointExtension>
        </extensions>
      </trkpt>
      <trkpt lat="46.5678" lon="0.23665">
        <ele>145.60000610352</ele>
        <time>2022-04-17T08:18:43Z</time>
        <extensions>
          <gpxtpx:TrackPointExtension xmlns:gpxtpx="http://www.garmin.com/xmlschemas/TrackPointExtension/v1">
            <gpxtpx:hr>130</gpxtpx:hr>
          </gpxtpx:TrackPointExtension>
        </extensions>
      </trkpt>
      <trkpt lat="46.56778" lon="0.23665">
        <ele>145.60000610352</ele>
        <time>2022-04-17T08:18:44Z</time>
        <extensions>
          <gpxtpx:TrackPointExtension xmlns:gpxtpx="http://www.garmin.com/xmlschemas/TrackPointExtension/v1">
            <gpxtpx:hr>130</gpxtpx:hr>
          </gpxtpx:TrackPointExtension>
        </extensions>
      </trkpt>
      <trkpt lat="46.56772" lon="0.23665">
        <ele>145.80000305176</ele>
        <time>2022-04-17T08:18:46Z</time>
        <extensions>
          <gpxtpx:TrackPointExtension xmlns:gpxtpx="http://www.garmin.com/xmlschemas/TrackPointExtension/v1">
            <gpxtpx:hr>130</gpxtpx:hr>
          </gpxtpx:TrackPointExtension>
        </extensions>
      </trkpt>
      <trkpt lat="46.56766" lon="0.23664">
        <ele>145.80000305176</ele>
        <time>2022-04-17T08:18:48Z</time>
        <extensions>
          <gpxtpx:TrackPointExtension xmlns:gpxtpx="http://www.garmin.com/xmlschemas/TrackPointExtension/v1">
            <gpxtpx:hr>130</gpxtpx:hr>
          </gpxtpx:TrackPointExtension>
        </extensions>
      </trkpt>
      <trkpt lat="46.56763" lon="0.23664">
        <ele>145.60000610352</ele>
        <time>2022-04-17T08:18:49Z</time>
        <extensions>
          <gpxtpx:TrackPointExtension xmlns:gpxtpx="http://www.garmin.com/xmlschemas/TrackPointExtension/v1">
            <gpxtpx:hr>130</gpxtpx:hr>
          </gpxtpx:TrackPointExtension>
        </extensions>
      </trkpt>
      <trkpt lat="46.5676" lon="0.23664">
        <ele>145.60000610352</ele>
        <time>2022-04-17T08:18:50Z</time>
        <extensions>
          <gpxtpx:TrackPointExtension xmlns:gpxtpx="http://www.garmin.com/xmlschemas/TrackPointExtension/v1">
            <gpxtpx:hr>130</gpxtpx:hr>
          </gpxtpx:TrackPointExtension>
        </extensions>
      </trkpt>
      <trkpt lat="46.56749" lon="0.23664">
        <ele>146</ele>
        <time>2022-04-17T08:18:54Z</time>
        <extensions>
          <gpxtpx:TrackPointExtension xmlns:gpxtpx="http://www.garmin.com/xmlschemas/TrackPointExtension/v1">
            <gpxtpx:hr>129</gpxtpx:hr>
          </gpxtpx:TrackPointExtension>
        </extensions>
      </trkpt>
      <trkpt lat="46.56741" lon="0.23665">
        <ele>146</ele>
        <time>2022-04-17T08:18:57Z</time>
        <extensions>
          <gpxtpx:TrackPointExtension xmlns:gpxtpx="http://www.garmin.com/xmlschemas/TrackPointExtension/v1">
            <gpxtpx:hr>126</gpxtpx:hr>
          </gpxtpx:TrackPointExtension>
        </extensions>
      </trkpt>
      <trkpt lat="46.56739" lon="0.23665">
        <ele>146</ele>
        <time>2022-04-17T08:18:58Z</time>
        <extensions>
          <gpxtpx:TrackPointExtension xmlns:gpxtpx="http://www.garmin.com/xmlschemas/TrackPointExtension/v1">
            <gpxtpx:hr>126</gpxtpx:hr>
          </gpxtpx:TrackPointExtension>
        </extensions>
      </trkpt>
      <trkpt lat="46.56737" lon="0.23665">
        <ele>146</ele>
        <time>2022-04-17T08:18:59Z</time>
        <extensions>
          <gpxtpx:TrackPointExtension xmlns:gpxtpx="http://www.garmin.com/xmlschemas/TrackPointExtension/v1">
            <gpxtpx:hr>125</gpxtpx:hr>
          </gpxtpx:TrackPointExtension>
        </extensions>
      </trkpt>
      <trkpt lat="46.56734" lon="0.23664">
        <ele>146</ele>
        <time>2022-04-17T08:19:00Z</time>
        <extensions>
          <gpxtpx:TrackPointExtension xmlns:gpxtpx="http://www.garmin.com/xmlschemas/TrackPointExtension/v1">
            <gpxtpx:hr>125</gpxtpx:hr>
          </gpxtpx:TrackPointExtension>
        </extensions>
      </trkpt>
      <trkpt lat="46.56729" lon="0.23663">
        <ele>146.19999694824</ele>
        <time>2022-04-17T08:19:02Z</time>
        <extensions>
          <gpxtpx:TrackPointExtension xmlns:gpxtpx="http://www.garmin.com/xmlschemas/TrackPointExtension/v1">
            <gpxtpx:hr>125</gpxtpx:hr>
          </gpxtpx:TrackPointExtension>
        </extensions>
      </trkpt>
      <trkpt lat="46.56726" lon="0.23662">
        <ele>146</ele>
        <time>2022-04-17T08:19:03Z</time>
        <extensions>
          <gpxtpx:TrackPointExtension xmlns:gpxtpx="http://www.garmin.com/xmlschemas/TrackPointExtension/v1">
            <gpxtpx:hr>125</gpxtpx:hr>
          </gpxtpx:TrackPointExtension>
        </extensions>
      </trkpt>
      <trkpt lat="46.56723" lon="0.23662">
        <ele>146</ele>
        <time>2022-04-17T08:19:04Z</time>
        <extensions>
          <gpxtpx:TrackPointExtension xmlns:gpxtpx="http://www.garmin.com/xmlschemas/TrackPointExtension/v1">
            <gpxtpx:hr>124</gpxtpx:hr>
          </gpxtpx:TrackPointExtension>
        </extensions>
      </trkpt>
      <trkpt lat="46.56714" lon="0.23661">
        <ele>146</ele>
        <time>2022-04-17T08:19:06Z</time>
        <extensions>
          <gpxtpx:TrackPointExtension xmlns:gpxtpx="http://www.garmin.com/xmlschemas/TrackPointExtension/v1">
            <gpxtpx:hr>124</gpxtpx:hr>
          </gpxtpx:TrackPointExtension>
        </extensions>
      </trkpt>
      <trkpt lat="46.56694" lon="0.23659">
        <ele>145.39999389648</ele>
        <time>2022-04-17T08:19:11Z</time>
        <extensions>
          <gpxtpx:TrackPointExtension xmlns:gpxtpx="http://www.garmin.com/xmlschemas/TrackPointExtension/v1">
            <gpxtpx:hr>123</gpxtpx:hr>
          </gpxtpx:TrackPointExtension>
        </extensions>
      </trkpt>
      <trkpt lat="46.56685" lon="0.23656">
        <ele>145.39999389648</ele>
        <time>2022-04-17T08:19:13Z</time>
        <extensions>
          <gpxtpx:TrackPointExtension xmlns:gpxtpx="http://www.garmin.com/xmlschemas/TrackPointExtension/v1">
            <gpxtpx:hr>123</gpxtpx:hr>
          </gpxtpx:TrackPointExtension>
        </extensions>
      </trkpt>
      <trkpt lat="46.56683" lon="0.23655">
        <ele>145.39999389648</ele>
        <time>2022-04-17T08:19:14Z</time>
        <extensions>
          <gpxtpx:TrackPointExtension xmlns:gpxtpx="http://www.garmin.com/xmlschemas/TrackPointExtension/v1">
            <gpxtpx:hr>123</gpxtpx:hr>
          </gpxtpx:TrackPointExtension>
        </extensions>
      </trkpt>
      <trkpt lat="46.56681" lon="0.23652">
        <ele>145.39999389648</ele>
        <time>2022-04-17T08:19:15Z</time>
        <extensions>
          <gpxtpx:TrackPointExtension xmlns:gpxtpx="http://www.garmin.com/xmlschemas/TrackPointExtension/v1">
            <gpxtpx:hr>123</gpxtpx:hr>
          </gpxtpx:TrackPointExtension>
        </extensions>
      </trkpt>
      <trkpt lat="46.56679" lon="0.23649">
        <ele>145.39999389648</ele>
        <time>2022-04-17T08:19:16Z</time>
        <extensions>
          <gpxtpx:TrackPointExtension xmlns:gpxtpx="http://www.garmin.com/xmlschemas/TrackPointExtension/v1">
            <gpxtpx:hr>123</gpxtpx:hr>
          </gpxtpx:TrackPointExtension>
        </extensions>
      </trkpt>
      <trkpt lat="46.56676" lon="0.23644">
        <ele>145.39999389648</ele>
        <time>2022-04-17T08:19:17Z</time>
        <extensions>
          <gpxtpx:TrackPointExtension xmlns:gpxtpx="http://www.garmin.com/xmlschemas/TrackPointExtension/v1">
            <gpxtpx:hr>123</gpxtpx:hr>
          </gpxtpx:TrackPointExtension>
        </extensions>
      </trkpt>
      <trkpt lat="46.56672" lon="0.2364">
        <ele>145.19999694824</ele>
        <time>2022-04-17T08:19:18Z</time>
        <extensions>
          <gpxtpx:TrackPointExtension xmlns:gpxtpx="http://www.garmin.com/xmlschemas/TrackPointExtension/v1">
            <gpxtpx:hr>123</gpxtpx:hr>
          </gpxtpx:TrackPointExtension>
        </extensions>
      </trkpt>
      <trkpt lat="46.56663" lon="0.2363">
        <ele>145.39999389648</ele>
        <time>2022-04-17T08:19:21Z</time>
        <extensions>
          <gpxtpx:TrackPointExtension xmlns:gpxtpx="http://www.garmin.com/xmlschemas/TrackPointExtension/v1">
            <gpxtpx:hr>124</gpxtpx:hr>
          </gpxtpx:TrackPointExtension>
        </extensions>
      </trkpt>
      <trkpt lat="46.5665" lon="0.23616">
        <ele>145.19999694824</ele>
        <time>2022-04-17T08:19:25Z</time>
        <extensions>
          <gpxtpx:TrackPointExtension xmlns:gpxtpx="http://www.garmin.com/xmlschemas/TrackPointExtension/v1">
            <gpxtpx:hr>123</gpxtpx:hr>
          </gpxtpx:TrackPointExtension>
        </extensions>
      </trkpt>
      <trkpt lat="46.56642" lon="0.23603">
        <ele>145.19999694824</ele>
        <time>2022-04-17T08:19:29Z</time>
        <extensions>
          <gpxtpx:TrackPointExtension xmlns:gpxtpx="http://www.garmin.com/xmlschemas/TrackPointExtension/v1">
            <gpxtpx:hr>125</gpxtpx:hr>
          </gpxtpx:TrackPointExtension>
        </extensions>
      </trkpt>
      <trkpt lat="46.5664" lon="0.23598">
        <ele>145.19999694824</ele>
        <time>2022-04-17T08:19:30Z</time>
        <extensions>
          <gpxtpx:TrackPointExtension xmlns:gpxtpx="http://www.garmin.com/xmlschemas/TrackPointExtension/v1">
            <gpxtpx:hr>124</gpxtpx:hr>
          </gpxtpx:TrackPointExtension>
        </extensions>
      </trkpt>
      <trkpt lat="46.56638" lon="0.23594">
        <ele>145.19999694824</ele>
        <time>2022-04-17T08:19:31Z</time>
        <extensions>
          <gpxtpx:TrackPointExtension xmlns:gpxtpx="http://www.garmin.com/xmlschemas/TrackPointExtension/v1">
            <gpxtpx:hr>124</gpxtpx:hr>
          </gpxtpx:TrackPointExtension>
        </extensions>
      </trkpt>
      <trkpt lat="46.56635" lon="0.23587">
        <ele>145.19999694824</ele>
        <time>2022-04-17T08:19:33Z</time>
        <extensions>
          <gpxtpx:TrackPointExtension xmlns:gpxtpx="http://www.garmin.com/xmlschemas/TrackPointExtension/v1">
            <gpxtpx:hr>124</gpxtpx:hr>
          </gpxtpx:TrackPointExtension>
        </extensions>
      </trkpt>
      <trkpt lat="46.56634" lon="0.23583">
        <ele>145.19999694824</ele>
        <time>2022-04-17T08:19:34Z</time>
        <extensions>
          <gpxtpx:TrackPointExtension xmlns:gpxtpx="http://www.garmin.com/xmlschemas/TrackPointExtension/v1">
            <gpxtpx:hr>123</gpxtpx:hr>
          </gpxtpx:TrackPointExtension>
        </extensions>
      </trkpt>
      <trkpt lat="46.56627" lon="0.2357">
        <ele>145.19999694824</ele>
        <time>2022-04-17T08:19:37Z</time>
        <extensions>
          <gpxtpx:TrackPointExtension xmlns:gpxtpx="http://www.garmin.com/xmlschemas/TrackPointExtension/v1">
            <gpxtpx:hr>124</gpxtpx:hr>
          </gpxtpx:TrackPointExtension>
        </extensions>
      </trkpt>
      <trkpt lat="46.56622" lon="0.2356">
        <ele>145.39999389648</ele>
        <time>2022-04-17T08:19:39Z</time>
        <extensions>
          <gpxtpx:TrackPointExtension xmlns:gpxtpx="http://www.garmin.com/xmlschemas/TrackPointExtension/v1">
            <gpxtpx:hr>125</gpxtpx:hr>
          </gpxtpx:TrackPointExtension>
        </extensions>
      </trkpt>
      <trkpt lat="46.56619" lon="0.23555">
        <ele>145.60000610352</ele>
        <time>2022-04-17T08:19:40Z</time>
        <extensions>
          <gpxtpx:TrackPointExtension xmlns:gpxtpx="http://www.garmin.com/xmlschemas/TrackPointExtension/v1">
            <gpxtpx:hr>126</gpxtpx:hr>
          </gpxtpx:TrackPointExtension>
        </extensions>
      </trkpt>
      <trkpt lat="46.56617" lon="0.2355">
        <ele>145.80000305176</ele>
        <time>2022-04-17T08:19:41Z</time>
        <extensions>
          <gpxtpx:TrackPointExtension xmlns:gpxtpx="http://www.garmin.com/xmlschemas/TrackPointExtension/v1">
            <gpxtpx:hr>126</gpxtpx:hr>
          </gpxtpx:TrackPointExtension>
        </extensions>
      </trkpt>
      <trkpt lat="46.5661" lon="0.23537">
        <ele>146</ele>
        <time>2022-04-17T08:19:44Z</time>
        <extensions>
          <gpxtpx:TrackPointExtension xmlns:gpxtpx="http://www.garmin.com/xmlschemas/TrackPointExtension/v1">
            <gpxtpx:hr>126</gpxtpx:hr>
          </gpxtpx:TrackPointExtension>
        </extensions>
      </trkpt>
      <trkpt lat="46.56605" lon="0.23527">
        <ele>146.19999694824</ele>
        <time>2022-04-17T08:19:46Z</time>
        <extensions>
          <gpxtpx:TrackPointExtension xmlns:gpxtpx="http://www.garmin.com/xmlschemas/TrackPointExtension/v1">
            <gpxtpx:hr>126</gpxtpx:hr>
          </gpxtpx:TrackPointExtension>
        </extensions>
      </trkpt>
      <trkpt lat="46.56603" lon="0.23522">
        <ele>146.19999694824</ele>
        <time>2022-04-17T08:19:47Z</time>
        <extensions>
          <gpxtpx:TrackPointExtension xmlns:gpxtpx="http://www.garmin.com/xmlschemas/TrackPointExtension/v1">
            <gpxtpx:hr>127</gpxtpx:hr>
          </gpxtpx:TrackPointExtension>
        </extensions>
      </trkpt>
      <trkpt lat="46.56596" lon="0.23506">
        <ele>146.19999694824</ele>
        <time>2022-04-17T08:19:50Z</time>
        <extensions>
          <gpxtpx:TrackPointExtension xmlns:gpxtpx="http://www.garmin.com/xmlschemas/TrackPointExtension/v1">
            <gpxtpx:hr>127</gpxtpx:hr>
          </gpxtpx:TrackPointExtension>
        </extensions>
      </trkpt>
      <trkpt lat="46.56594" lon="0.23493">
        <ele>146.39999389648</ele>
        <time>2022-04-17T08:19:52Z</time>
        <extensions>
          <gpxtpx:TrackPointExtension xmlns:gpxtpx="http://www.garmin.com/xmlschemas/TrackPointExtension/v1">
            <gpxtpx:hr>127</gpxtpx:hr>
          </gpxtpx:TrackPointExtension>
        </extensions>
      </trkpt>
      <trkpt lat="46.56594" lon="0.23487">
        <ele>146.60000610352</ele>
        <time>2022-04-17T08:19:53Z</time>
        <extensions>
          <gpxtpx:TrackPointExtension xmlns:gpxtpx="http://www.garmin.com/xmlschemas/TrackPointExtension/v1">
            <gpxtpx:hr>127</gpxtpx:hr>
          </gpxtpx:TrackPointExtension>
        </extensions>
      </trkpt>
      <trkpt lat="46.56594" lon="0.23482">
        <ele>146.60000610352</ele>
        <time>2022-04-17T08:19:54Z</time>
        <extensions>
          <gpxtpx:TrackPointExtension xmlns:gpxtpx="http://www.garmin.com/xmlschemas/TrackPointExtension/v1">
            <gpxtpx:hr>128</gpxtpx:hr>
          </gpxtpx:TrackPointExtension>
        </extensions>
      </trkpt>
      <trkpt lat="46.56592" lon="0.2345">
        <ele>146.60000610352</ele>
        <time>2022-04-17T08:19:59Z</time>
        <extensions>
          <gpxtpx:TrackPointExtension xmlns:gpxtpx="http://www.garmin.com/xmlschemas/TrackPointExtension/v1">
            <gpxtpx:hr>129</gpxtpx:hr>
          </gpxtpx:TrackPointExtension>
        </extensions>
      </trkpt>
      <trkpt lat="46.56587" lon="0.23421">
        <ele>146.60000610352</ele>
        <time>2022-04-17T08:20:04Z</time>
        <extensions>
          <gpxtpx:TrackPointExtension xmlns:gpxtpx="http://www.garmin.com/xmlschemas/TrackPointExtension/v1">
            <gpxtpx:hr>128</gpxtpx:hr>
          </gpxtpx:TrackPointExtension>
        </extensions>
      </trkpt>
      <trkpt lat="46.56585" lon="0.23408">
        <ele>146.80000305176</ele>
        <time>2022-04-17T08:20:06Z</time>
        <extensions>
          <gpxtpx:TrackPointExtension xmlns:gpxtpx="http://www.garmin.com/xmlschemas/TrackPointExtension/v1">
            <gpxtpx:hr>129</gpxtpx:hr>
          </gpxtpx:TrackPointExtension>
        </extensions>
      </trkpt>
      <trkpt lat="46.56584" lon="0.23403">
        <ele>146.80000305176</ele>
        <time>2022-04-17T08:20:07Z</time>
        <extensions>
          <gpxtpx:TrackPointExtension xmlns:gpxtpx="http://www.garmin.com/xmlschemas/TrackPointExtension/v1">
            <gpxtpx:hr>132</gpxtpx:hr>
          </gpxtpx:TrackPointExtension>
        </extensions>
      </trkpt>
      <trkpt lat="46.56583" lon="0.23397">
        <ele>146.80000305176</ele>
        <time>2022-04-17T08:20:08Z</time>
        <extensions>
          <gpxtpx:TrackPointExtension xmlns:gpxtpx="http://www.garmin.com/xmlschemas/TrackPointExtension/v1">
            <gpxtpx:hr>133</gpxtpx:hr>
          </gpxtpx:TrackPointExtension>
        </extensions>
      </trkpt>
      <trkpt lat="46.56582" lon="0.23384">
        <ele>147</ele>
        <time>2022-04-17T08:20:10Z</time>
        <extensions>
          <gpxtpx:TrackPointExtension xmlns:gpxtpx="http://www.garmin.com/xmlschemas/TrackPointExtension/v1">
            <gpxtpx:hr>136</gpxtpx:hr>
          </gpxtpx:TrackPointExtension>
        </extensions>
      </trkpt>
      <trkpt lat="46.5658" lon="0.23372">
        <ele>147</ele>
        <time>2022-04-17T08:20:12Z</time>
        <extensions>
          <gpxtpx:TrackPointExtension xmlns:gpxtpx="http://www.garmin.com/xmlschemas/TrackPointExtension/v1">
            <gpxtpx:hr>137</gpxtpx:hr>
          </gpxtpx:TrackPointExtension>
        </extensions>
      </trkpt>
      <trkpt lat="46.56578" lon="0.23352">
        <ele>147</ele>
        <time>2022-04-17T08:20:15Z</time>
        <extensions>
          <gpxtpx:TrackPointExtension xmlns:gpxtpx="http://www.garmin.com/xmlschemas/TrackPointExtension/v1">
            <gpxtpx:hr>137</gpxtpx:hr>
          </gpxtpx:TrackPointExtension>
        </extensions>
      </trkpt>
      <trkpt lat="46.56576" lon="0.23345">
        <ele>146.80000305176</ele>
        <time>2022-04-17T08:20:16Z</time>
        <extensions>
          <gpxtpx:TrackPointExtension xmlns:gpxtpx="http://www.garmin.com/xmlschemas/TrackPointExtension/v1">
            <gpxtpx:hr>133</gpxtpx:hr>
          </gpxtpx:TrackPointExtension>
        </extensions>
      </trkpt>
      <trkpt lat="46.56574" lon="0.23339">
        <ele>146.80000305176</ele>
        <time>2022-04-17T08:20:17Z</time>
        <extensions>
          <gpxtpx:TrackPointExtension xmlns:gpxtpx="http://www.garmin.com/xmlschemas/TrackPointExtension/v1">
            <gpxtpx:hr>131</gpxtpx:hr>
          </gpxtpx:TrackPointExtension>
        </extensions>
      </trkpt>
      <trkpt lat="46.56572" lon="0.23327">
        <ele>146.60000610352</ele>
        <time>2022-04-17T08:20:19Z</time>
        <extensions>
          <gpxtpx:TrackPointExtension xmlns:gpxtpx="http://www.garmin.com/xmlschemas/TrackPointExtension/v1">
            <gpxtpx:hr>130</gpxtpx:hr>
          </gpxtpx:TrackPointExtension>
        </extensions>
      </trkpt>
      <trkpt lat="46.5657" lon="0.23315">
        <ele>146.39999389648</ele>
        <time>2022-04-17T08:20:21Z</time>
        <extensions>
          <gpxtpx:TrackPointExtension xmlns:gpxtpx="http://www.garmin.com/xmlschemas/TrackPointExtension/v1">
            <gpxtpx:hr>129</gpxtpx:hr>
          </gpxtpx:TrackPointExtension>
        </extensions>
      </trkpt>
      <trkpt lat="46.5657" lon="0.2331">
        <ele>146.39999389648</ele>
        <time>2022-04-17T08:20:22Z</time>
        <extensions>
          <gpxtpx:TrackPointExtension xmlns:gpxtpx="http://www.garmin.com/xmlschemas/TrackPointExtension/v1">
            <gpxtpx:hr>129</gpxtpx:hr>
          </gpxtpx:TrackPointExtension>
        </extensions>
      </trkpt>
      <trkpt lat="46.56569" lon="0.23304">
        <ele>146.39999389648</ele>
        <time>2022-04-17T08:20:23Z</time>
        <extensions>
          <gpxtpx:TrackPointExtension xmlns:gpxtpx="http://www.garmin.com/xmlschemas/TrackPointExtension/v1">
            <gpxtpx:hr>129</gpxtpx:hr>
          </gpxtpx:TrackPointExtension>
        </extensions>
      </trkpt>
      <trkpt lat="46.56568" lon="0.23298">
        <ele>146.39999389648</ele>
        <time>2022-04-17T08:20:24Z</time>
        <extensions>
          <gpxtpx:TrackPointExtension xmlns:gpxtpx="http://www.garmin.com/xmlschemas/TrackPointExtension/v1">
            <gpxtpx:hr>129</gpxtpx:hr>
          </gpxtpx:TrackPointExtension>
        </extensions>
      </trkpt>
      <trkpt lat="46.56567" lon="0.23293">
        <ele>146.39999389648</ele>
        <time>2022-04-17T08:20:25Z</time>
        <extensions>
          <gpxtpx:TrackPointExtension xmlns:gpxtpx="http://www.garmin.com/xmlschemas/TrackPointExtension/v1">
            <gpxtpx:hr>128</gpxtpx:hr>
          </gpxtpx:TrackPointExtension>
        </extensions>
      </trkpt>
      <trkpt lat="46.56565" lon="0.23284">
        <ele>146.39999389648</ele>
        <time>2022-04-17T08:20:27Z</time>
        <extensions>
          <gpxtpx:TrackPointExtension xmlns:gpxtpx="http://www.garmin.com/xmlschemas/TrackPointExtension/v1">
            <gpxtpx:hr>127</gpxtpx:hr>
          </gpxtpx:TrackPointExtension>
        </extensions>
      </trkpt>
      <trkpt lat="46.56563" lon="0.2328">
        <ele>146.39999389648</ele>
        <time>2022-04-17T08:20:28Z</time>
        <extensions>
          <gpxtpx:TrackPointExtension xmlns:gpxtpx="http://www.garmin.com/xmlschemas/TrackPointExtension/v1">
            <gpxtpx:hr>127</gpxtpx:hr>
          </gpxtpx:TrackPointExtension>
        </extensions>
      </trkpt>
      <trkpt lat="46.5656" lon="0.23277">
        <ele>146.39999389648</ele>
        <time>2022-04-17T08:20:29Z</time>
        <extensions>
          <gpxtpx:TrackPointExtension xmlns:gpxtpx="http://www.garmin.com/xmlschemas/TrackPointExtension/v1">
            <gpxtpx:hr>128</gpxtpx:hr>
          </gpxtpx:TrackPointExtension>
        </extensions>
      </trkpt>
      <trkpt lat="46.56557" lon="0.23274">
        <ele>146.39999389648</ele>
        <time>2022-04-17T08:20:30Z</time>
        <extensions>
          <gpxtpx:TrackPointExtension xmlns:gpxtpx="http://www.garmin.com/xmlschemas/TrackPointExtension/v1">
            <gpxtpx:hr>126</gpxtpx:hr>
          </gpxtpx:TrackPointExtension>
        </extensions>
      </trkpt>
      <trkpt lat="46.56554" lon="0.2327">
        <ele>146.39999389648</ele>
        <time>2022-04-17T08:20:31Z</time>
        <extensions>
          <gpxtpx:TrackPointExtension xmlns:gpxtpx="http://www.garmin.com/xmlschemas/TrackPointExtension/v1">
            <gpxtpx:hr>127</gpxtpx:hr>
          </gpxtpx:TrackPointExtension>
        </extensions>
      </trkpt>
      <trkpt lat="46.5655" lon="0.23267">
        <ele>146.60000610352</ele>
        <time>2022-04-17T08:20:32Z</time>
        <extensions>
          <gpxtpx:TrackPointExtension xmlns:gpxtpx="http://www.garmin.com/xmlschemas/TrackPointExtension/v1">
            <gpxtpx:hr>126</gpxtpx:hr>
          </gpxtpx:TrackPointExtension>
        </extensions>
      </trkpt>
      <trkpt lat="46.56535" lon="0.23254">
        <ele>146.80000305176</ele>
        <time>2022-04-17T08:20:36Z</time>
        <extensions>
          <gpxtpx:TrackPointExtension xmlns:gpxtpx="http://www.garmin.com/xmlschemas/TrackPointExtension/v1">
            <gpxtpx:hr>125</gpxtpx:hr>
          </gpxtpx:TrackPointExtension>
        </extensions>
      </trkpt>
      <trkpt lat="46.56532" lon="0.2325">
        <ele>147</ele>
        <time>2022-04-17T08:20:37Z</time>
        <extensions>
          <gpxtpx:TrackPointExtension xmlns:gpxtpx="http://www.garmin.com/xmlschemas/TrackPointExtension/v1">
            <gpxtpx:hr>125</gpxtpx:hr>
          </gpxtpx:TrackPointExtension>
        </extensions>
      </trkpt>
      <trkpt lat="46.56529" lon="0.23246">
        <ele>147</ele>
        <time>2022-04-17T08:20:38Z</time>
        <extensions>
          <gpxtpx:TrackPointExtension xmlns:gpxtpx="http://www.garmin.com/xmlschemas/TrackPointExtension/v1">
            <gpxtpx:hr>123</gpxtpx:hr>
          </gpxtpx:TrackPointExtension>
        </extensions>
      </trkpt>
      <trkpt lat="46.56525" lon="0.23243">
        <ele>147.19999694824</ele>
        <time>2022-04-17T08:20:39Z</time>
        <extensions>
          <gpxtpx:TrackPointExtension xmlns:gpxtpx="http://www.garmin.com/xmlschemas/TrackPointExtension/v1">
            <gpxtpx:hr>123</gpxtpx:hr>
          </gpxtpx:TrackPointExtension>
        </extensions>
      </trkpt>
      <trkpt lat="46.56514" lon="0.23234">
        <ele>147.39999389648</ele>
        <time>2022-04-17T08:20:42Z</time>
        <extensions>
          <gpxtpx:TrackPointExtension xmlns:gpxtpx="http://www.garmin.com/xmlschemas/TrackPointExtension/v1">
            <gpxtpx:hr>124</gpxtpx:hr>
          </gpxtpx:TrackPointExtension>
        </extensions>
      </trkpt>
      <trkpt lat="46.56502" lon="0.23227">
        <ele>147.39999389648</ele>
        <time>2022-04-17T08:20:45Z</time>
        <extensions>
          <gpxtpx:TrackPointExtension xmlns:gpxtpx="http://www.garmin.com/xmlschemas/TrackPointExtension/v1">
            <gpxtpx:hr>125</gpxtpx:hr>
          </gpxtpx:TrackPointExtension>
        </extensions>
      </trkpt>
      <trkpt lat="46.56498" lon="0.23225">
        <ele>147.39999389648</ele>
        <time>2022-04-17T08:20:46Z</time>
        <extensions>
          <gpxtpx:TrackPointExtension xmlns:gpxtpx="http://www.garmin.com/xmlschemas/TrackPointExtension/v1">
            <gpxtpx:hr>125</gpxtpx:hr>
          </gpxtpx:TrackPointExtension>
        </extensions>
      </trkpt>
      <trkpt lat="46.56495" lon="0.23222">
        <ele>147.39999389648</ele>
        <time>2022-04-17T08:20:47Z</time>
        <extensions>
          <gpxtpx:TrackPointExtension xmlns:gpxtpx="http://www.garmin.com/xmlschemas/TrackPointExtension/v1">
            <gpxtpx:hr>126</gpxtpx:hr>
          </gpxtpx:TrackPointExtension>
        </extensions>
      </trkpt>
      <trkpt lat="46.56491" lon="0.2322">
        <ele>147.19999694824</ele>
        <time>2022-04-17T08:20:48Z</time>
        <extensions>
          <gpxtpx:TrackPointExtension xmlns:gpxtpx="http://www.garmin.com/xmlschemas/TrackPointExtension/v1">
            <gpxtpx:hr>126</gpxtpx:hr>
          </gpxtpx:TrackPointExtension>
        </extensions>
      </trkpt>
      <trkpt lat="46.56486" lon="0.23217">
        <ele>147.19999694824</ele>
        <time>2022-04-17T08:20:49Z</time>
        <extensions>
          <gpxtpx:TrackPointExtension xmlns:gpxtpx="http://www.garmin.com/xmlschemas/TrackPointExtension/v1">
            <gpxtpx:hr>127</gpxtpx:hr>
          </gpxtpx:TrackPointExtension>
        </extensions>
      </trkpt>
      <trkpt lat="46.56479" lon="0.23214">
        <ele>147.19999694824</ele>
        <time>2022-04-17T08:20:51Z</time>
        <extensions>
          <gpxtpx:TrackPointExtension xmlns:gpxtpx="http://www.garmin.com/xmlschemas/TrackPointExtension/v1">
            <gpxtpx:hr>127</gpxtpx:hr>
          </gpxtpx:TrackPointExtension>
        </extensions>
      </trkpt>
      <trkpt lat="46.56476" lon="0.23213">
        <ele>147</ele>
        <time>2022-04-17T08:20:52Z</time>
        <extensions>
          <gpxtpx:TrackPointExtension xmlns:gpxtpx="http://www.garmin.com/xmlschemas/TrackPointExtension/v1">
            <gpxtpx:hr>127</gpxtpx:hr>
          </gpxtpx:TrackPointExtension>
        </extensions>
      </trkpt>
      <trkpt lat="46.56472" lon="0.23211">
        <ele>147.19999694824</ele>
        <time>2022-04-17T08:20:53Z</time>
        <extensions>
          <gpxtpx:TrackPointExtension xmlns:gpxtpx="http://www.garmin.com/xmlschemas/TrackPointExtension/v1">
            <gpxtpx:hr>128</gpxtpx:hr>
          </gpxtpx:TrackPointExtension>
        </extensions>
      </trkpt>
      <trkpt lat="46.56468" lon="0.2321">
        <ele>147.19999694824</ele>
        <time>2022-04-17T08:20:54Z</time>
        <extensions>
          <gpxtpx:TrackPointExtension xmlns:gpxtpx="http://www.garmin.com/xmlschemas/TrackPointExtension/v1">
            <gpxtpx:hr>128</gpxtpx:hr>
          </gpxtpx:TrackPointExtension>
        </extensions>
      </trkpt>
      <trkpt lat="46.56464" lon="0.2321">
        <ele>147.39999389648</ele>
        <time>2022-04-17T08:20:55Z</time>
        <extensions>
          <gpxtpx:TrackPointExtension xmlns:gpxtpx="http://www.garmin.com/xmlschemas/TrackPointExtension/v1">
            <gpxtpx:hr>128</gpxtpx:hr>
          </gpxtpx:TrackPointExtension>
        </extensions>
      </trkpt>
      <trkpt lat="46.5646" lon="0.2321">
        <ele>147.39999389648</ele>
        <time>2022-04-17T08:20:56Z</time>
        <extensions>
          <gpxtpx:TrackPointExtension xmlns:gpxtpx="http://www.garmin.com/xmlschemas/TrackPointExtension/v1">
            <gpxtpx:hr>128</gpxtpx:hr>
          </gpxtpx:TrackPointExtension>
        </extensions>
      </trkpt>
      <trkpt lat="46.56439" lon="0.23213">
        <ele>147.60000610352</ele>
        <time>2022-04-17T08:21:01Z</time>
        <extensions>
          <gpxtpx:TrackPointExtension xmlns:gpxtpx="http://www.garmin.com/xmlschemas/TrackPointExtension/v1">
            <gpxtpx:hr>127</gpxtpx:hr>
          </gpxtpx:TrackPointExtension>
        </extensions>
      </trkpt>
      <trkpt lat="46.56424" lon="0.23215">
        <ele>147.60000610352</ele>
        <time>2022-04-17T08:21:05Z</time>
        <extensions>
          <gpxtpx:TrackPointExtension xmlns:gpxtpx="http://www.garmin.com/xmlschemas/TrackPointExtension/v1">
            <gpxtpx:hr>127</gpxtpx:hr>
          </gpxtpx:TrackPointExtension>
        </extensions>
      </trkpt>
      <trkpt lat="46.5642" lon="0.23216">
        <ele>147.60000610352</ele>
        <time>2022-04-17T08:21:06Z</time>
        <extensions>
          <gpxtpx:TrackPointExtension xmlns:gpxtpx="http://www.garmin.com/xmlschemas/TrackPointExtension/v1">
            <gpxtpx:hr>127</gpxtpx:hr>
          </gpxtpx:TrackPointExtension>
        </extensions>
      </trkpt>
      <trkpt lat="46.56416" lon="0.23216">
        <ele>147.60000610352</ele>
        <time>2022-04-17T08:21:07Z</time>
        <extensions>
          <gpxtpx:TrackPointExtension xmlns:gpxtpx="http://www.garmin.com/xmlschemas/TrackPointExtension/v1">
            <gpxtpx:hr>127</gpxtpx:hr>
          </gpxtpx:TrackPointExtension>
        </extensions>
      </trkpt>
      <trkpt lat="46.56413" lon="0.23217">
        <ele>147.60000610352</ele>
        <time>2022-04-17T08:21:08Z</time>
        <extensions>
          <gpxtpx:TrackPointExtension xmlns:gpxtpx="http://www.garmin.com/xmlschemas/TrackPointExtension/v1">
            <gpxtpx:hr>127</gpxtpx:hr>
          </gpxtpx:TrackPointExtension>
        </extensions>
      </trkpt>
      <trkpt lat="46.56409" lon="0.23217">
        <ele>147.80000305176</ele>
        <time>2022-04-17T08:21:09Z</time>
        <extensions>
          <gpxtpx:TrackPointExtension xmlns:gpxtpx="http://www.garmin.com/xmlschemas/TrackPointExtension/v1">
            <gpxtpx:hr>126</gpxtpx:hr>
          </gpxtpx:TrackPointExtension>
        </extensions>
      </trkpt>
      <trkpt lat="46.56404" lon="0.23218">
        <ele>147.80000305176</ele>
        <time>2022-04-17T08:21:10Z</time>
        <extensions>
          <gpxtpx:TrackPointExtension xmlns:gpxtpx="http://www.garmin.com/xmlschemas/TrackPointExtension/v1">
            <gpxtpx:hr>126</gpxtpx:hr>
          </gpxtpx:TrackPointExtension>
        </extensions>
      </trkpt>
      <trkpt lat="46.564" lon="0.23218">
        <ele>147.80000305176</ele>
        <time>2022-04-17T08:21:11Z</time>
        <extensions>
          <gpxtpx:TrackPointExtension xmlns:gpxtpx="http://www.garmin.com/xmlschemas/TrackPointExtension/v1">
            <gpxtpx:hr>126</gpxtpx:hr>
          </gpxtpx:TrackPointExtension>
        </extensions>
      </trkpt>
      <trkpt lat="46.56395" lon="0.23218">
        <ele>148</ele>
        <time>2022-04-17T08:21:12Z</time>
        <extensions>
          <gpxtpx:TrackPointExtension xmlns:gpxtpx="http://www.garmin.com/xmlschemas/TrackPointExtension/v1">
            <gpxtpx:hr>126</gpxtpx:hr>
          </gpxtpx:TrackPointExtension>
        </extensions>
      </trkpt>
      <trkpt lat="46.56373" lon="0.23213">
        <ele>148.19999694824</ele>
        <time>2022-04-17T08:21:17Z</time>
        <extensions>
          <gpxtpx:TrackPointExtension xmlns:gpxtpx="http://www.garmin.com/xmlschemas/TrackPointExtension/v1">
            <gpxtpx:hr>126</gpxtpx:hr>
          </gpxtpx:TrackPointExtension>
        </extensions>
      </trkpt>
      <trkpt lat="46.56368" lon="0.23212">
        <ele>148.19999694824</ele>
        <time>2022-04-17T08:21:18Z</time>
        <extensions>
          <gpxtpx:TrackPointExtension xmlns:gpxtpx="http://www.garmin.com/xmlschemas/TrackPointExtension/v1">
            <gpxtpx:hr>127</gpxtpx:hr>
          </gpxtpx:TrackPointExtension>
        </extensions>
      </trkpt>
      <trkpt lat="46.56327" lon="0.23199">
        <ele>148.39999389648</ele>
        <time>2022-04-17T08:21:28Z</time>
        <extensions>
          <gpxtpx:TrackPointExtension xmlns:gpxtpx="http://www.garmin.com/xmlschemas/TrackPointExtension/v1">
            <gpxtpx:hr>127</gpxtpx:hr>
          </gpxtpx:TrackPointExtension>
        </extensions>
      </trkpt>
      <trkpt lat="46.56322" lon="0.23198">
        <ele>148.39999389648</ele>
        <time>2022-04-17T08:21:29Z</time>
        <extensions>
          <gpxtpx:TrackPointExtension xmlns:gpxtpx="http://www.garmin.com/xmlschemas/TrackPointExtension/v1">
            <gpxtpx:hr>127</gpxtpx:hr>
          </gpxtpx:TrackPointExtension>
        </extensions>
      </trkpt>
      <trkpt lat="46.56318" lon="0.23197">
        <ele>148.19999694824</ele>
        <time>2022-04-17T08:21:30Z</time>
        <extensions>
          <gpxtpx:TrackPointExtension xmlns:gpxtpx="http://www.garmin.com/xmlschemas/TrackPointExtension/v1">
            <gpxtpx:hr>127</gpxtpx:hr>
          </gpxtpx:TrackPointExtension>
        </extensions>
      </trkpt>
      <trkpt lat="46.56314" lon="0.23196">
        <ele>148.19999694824</ele>
        <time>2022-04-17T08:21:31Z</time>
        <extensions>
          <gpxtpx:TrackPointExtension xmlns:gpxtpx="http://www.garmin.com/xmlschemas/TrackPointExtension/v1">
            <gpxtpx:hr>130</gpxtpx:hr>
          </gpxtpx:TrackPointExtension>
        </extensions>
      </trkpt>
      <trkpt lat="46.5631" lon="0.23195">
        <ele>148.19999694824</ele>
        <time>2022-04-17T08:21:32Z</time>
        <extensions>
          <gpxtpx:TrackPointExtension xmlns:gpxtpx="http://www.garmin.com/xmlschemas/TrackPointExtension/v1">
            <gpxtpx:hr>130</gpxtpx:hr>
          </gpxtpx:TrackPointExtension>
        </extensions>
      </trkpt>
      <trkpt lat="46.56298" lon="0.23194">
        <ele>148.39999389648</ele>
        <time>2022-04-17T08:21:35Z</time>
        <extensions>
          <gpxtpx:TrackPointExtension xmlns:gpxtpx="http://www.garmin.com/xmlschemas/TrackPointExtension/v1">
            <gpxtpx:hr>128</gpxtpx:hr>
          </gpxtpx:TrackPointExtension>
        </extensions>
      </trkpt>
      <trkpt lat="46.56294" lon="0.23195">
        <ele>148.39999389648</ele>
        <time>2022-04-17T08:21:36Z</time>
        <extensions>
          <gpxtpx:TrackPointExtension xmlns:gpxtpx="http://www.garmin.com/xmlschemas/TrackPointExtension/v1">
            <gpxtpx:hr>127</gpxtpx:hr>
          </gpxtpx:TrackPointExtension>
        </extensions>
      </trkpt>
      <trkpt lat="46.56282" lon="0.23198">
        <ele>148.39999389648</ele>
        <time>2022-04-17T08:21:39Z</time>
        <extensions>
          <gpxtpx:TrackPointExtension xmlns:gpxtpx="http://www.garmin.com/xmlschemas/TrackPointExtension/v1">
            <gpxtpx:hr>125</gpxtpx:hr>
          </gpxtpx:TrackPointExtension>
        </extensions>
      </trkpt>
      <trkpt lat="46.56267" lon="0.23207">
        <ele>148.39999389648</ele>
        <time>2022-04-17T08:21:43Z</time>
        <extensions>
          <gpxtpx:TrackPointExtension xmlns:gpxtpx="http://www.garmin.com/xmlschemas/TrackPointExtension/v1">
            <gpxtpx:hr>125</gpxtpx:hr>
          </gpxtpx:TrackPointExtension>
        </extensions>
      </trkpt>
      <trkpt lat="46.56263" lon="0.23209">
        <ele>148.39999389648</ele>
        <time>2022-04-17T08:21:44Z</time>
        <extensions>
          <gpxtpx:TrackPointExtension xmlns:gpxtpx="http://www.garmin.com/xmlschemas/TrackPointExtension/v1">
            <gpxtpx:hr>125</gpxtpx:hr>
          </gpxtpx:TrackPointExtension>
        </extensions>
      </trkpt>
      <trkpt lat="46.56255" lon="0.23212">
        <ele>148.39999389648</ele>
        <time>2022-04-17T08:21:46Z</time>
        <extensions>
          <gpxtpx:TrackPointExtension xmlns:gpxtpx="http://www.garmin.com/xmlschemas/TrackPointExtension/v1">
            <gpxtpx:hr>126</gpxtpx:hr>
          </gpxtpx:TrackPointExtension>
        </extensions>
      </trkpt>
      <trkpt lat="46.56246" lon="0.23213">
        <ele>148.39999389648</ele>
        <time>2022-04-17T08:21:48Z</time>
        <extensions>
          <gpxtpx:TrackPointExtension xmlns:gpxtpx="http://www.garmin.com/xmlschemas/TrackPointExtension/v1">
            <gpxtpx:hr>126</gpxtpx:hr>
          </gpxtpx:TrackPointExtension>
        </extensions>
      </trkpt>
      <trkpt lat="46.56221" lon="0.23211">
        <ele>148.19999694824</ele>
        <time>2022-04-17T08:21:54Z</time>
        <extensions>
          <gpxtpx:TrackPointExtension xmlns:gpxtpx="http://www.garmin.com/xmlschemas/TrackPointExtension/v1">
            <gpxtpx:hr>123</gpxtpx:hr>
          </gpxtpx:TrackPointExtension>
        </extensions>
      </trkpt>
      <trkpt lat="46.56213" lon="0.23211">
        <ele>148</ele>
        <time>2022-04-17T08:21:56Z</time>
        <extensions>
          <gpxtpx:TrackPointExtension xmlns:gpxtpx="http://www.garmin.com/xmlschemas/TrackPointExtension/v1">
            <gpxtpx:hr>122</gpxtpx:hr>
          </gpxtpx:TrackPointExtension>
        </extensions>
      </trkpt>
      <trkpt lat="46.56209" lon="0.2321">
        <ele>147.80000305176</ele>
        <time>2022-04-17T08:21:57Z</time>
        <extensions>
          <gpxtpx:TrackPointExtension xmlns:gpxtpx="http://www.garmin.com/xmlschemas/TrackPointExtension/v1">
            <gpxtpx:hr>123</gpxtpx:hr>
          </gpxtpx:TrackPointExtension>
        </extensions>
      </trkpt>
      <trkpt lat="46.56205" lon="0.2321">
        <ele>147.80000305176</ele>
        <time>2022-04-17T08:21:58Z</time>
        <extensions>
          <gpxtpx:TrackPointExtension xmlns:gpxtpx="http://www.garmin.com/xmlschemas/TrackPointExtension/v1">
            <gpxtpx:hr>123</gpxtpx:hr>
          </gpxtpx:TrackPointExtension>
        </extensions>
      </trkpt>
      <trkpt lat="46.56192" lon="0.23209">
        <ele>148</ele>
        <time>2022-04-17T08:22:01Z</time>
        <extensions>
          <gpxtpx:TrackPointExtension xmlns:gpxtpx="http://www.garmin.com/xmlschemas/TrackPointExtension/v1">
            <gpxtpx:hr>122</gpxtpx:hr>
          </gpxtpx:TrackPointExtension>
        </extensions>
      </trkpt>
      <trkpt lat="46.56188" lon="0.23208">
        <ele>148</ele>
        <time>2022-04-17T08:22:02Z</time>
        <extensions>
          <gpxtpx:TrackPointExtension xmlns:gpxtpx="http://www.garmin.com/xmlschemas/TrackPointExtension/v1">
            <gpxtpx:hr>123</gpxtpx:hr>
          </gpxtpx:TrackPointExtension>
        </extensions>
      </trkpt>
      <trkpt lat="46.5617" lon="0.23205">
        <ele>148.19999694824</ele>
        <time>2022-04-17T08:22:06Z</time>
        <extensions>
          <gpxtpx:TrackPointExtension xmlns:gpxtpx="http://www.garmin.com/xmlschemas/TrackPointExtension/v1">
            <gpxtpx:hr>123</gpxtpx:hr>
          </gpxtpx:TrackPointExtension>
        </extensions>
      </trkpt>
      <trkpt lat="46.56161" lon="0.23203">
        <ele>148.39999389648</ele>
        <time>2022-04-17T08:22:08Z</time>
        <extensions>
          <gpxtpx:TrackPointExtension xmlns:gpxtpx="http://www.garmin.com/xmlschemas/TrackPointExtension/v1">
            <gpxtpx:hr>123</gpxtpx:hr>
          </gpxtpx:TrackPointExtension>
        </extensions>
      </trkpt>
      <trkpt lat="46.56148" lon="0.23201">
        <ele>148.39999389648</ele>
        <time>2022-04-17T08:22:11Z</time>
        <extensions>
          <gpxtpx:TrackPointExtension xmlns:gpxtpx="http://www.garmin.com/xmlschemas/TrackPointExtension/v1">
            <gpxtpx:hr>124</gpxtpx:hr>
          </gpxtpx:TrackPointExtension>
        </extensions>
      </trkpt>
      <trkpt lat="46.56127" lon="0.23196">
        <ele>148.60000610352</ele>
        <time>2022-04-17T08:22:16Z</time>
        <extensions>
          <gpxtpx:TrackPointExtension xmlns:gpxtpx="http://www.garmin.com/xmlschemas/TrackPointExtension/v1">
            <gpxtpx:hr>125</gpxtpx:hr>
          </gpxtpx:TrackPointExtension>
        </extensions>
      </trkpt>
      <trkpt lat="46.56123" lon="0.23194">
        <ele>148.60000610352</ele>
        <time>2022-04-17T08:22:17Z</time>
        <extensions>
          <gpxtpx:TrackPointExtension xmlns:gpxtpx="http://www.garmin.com/xmlschemas/TrackPointExtension/v1">
            <gpxtpx:hr>125</gpxtpx:hr>
          </gpxtpx:TrackPointExtension>
        </extensions>
      </trkpt>
      <trkpt lat="46.56119" lon="0.23193">
        <ele>148.60000610352</ele>
        <time>2022-04-17T08:22:18Z</time>
        <extensions>
          <gpxtpx:TrackPointExtension xmlns:gpxtpx="http://www.garmin.com/xmlschemas/TrackPointExtension/v1">
            <gpxtpx:hr>125</gpxtpx:hr>
          </gpxtpx:TrackPointExtension>
        </extensions>
      </trkpt>
      <trkpt lat="46.56102" lon="0.23189">
        <ele>149</ele>
        <time>2022-04-17T08:22:22Z</time>
        <extensions>
          <gpxtpx:TrackPointExtension xmlns:gpxtpx="http://www.garmin.com/xmlschemas/TrackPointExtension/v1">
            <gpxtpx:hr>127</gpxtpx:hr>
          </gpxtpx:TrackPointExtension>
        </extensions>
      </trkpt>
      <trkpt lat="46.56098" lon="0.23188">
        <ele>149</ele>
        <time>2022-04-17T08:22:23Z</time>
        <extensions>
          <gpxtpx:TrackPointExtension xmlns:gpxtpx="http://www.garmin.com/xmlschemas/TrackPointExtension/v1">
            <gpxtpx:hr>127</gpxtpx:hr>
          </gpxtpx:TrackPointExtension>
        </extensions>
      </trkpt>
      <trkpt lat="46.56094" lon="0.23186">
        <ele>149</ele>
        <time>2022-04-17T08:22:24Z</time>
        <extensions>
          <gpxtpx:TrackPointExtension xmlns:gpxtpx="http://www.garmin.com/xmlschemas/TrackPointExtension/v1">
            <gpxtpx:hr>128</gpxtpx:hr>
          </gpxtpx:TrackPointExtension>
        </extensions>
      </trkpt>
      <trkpt lat="46.56091" lon="0.23184">
        <ele>149</ele>
        <time>2022-04-17T08:22:25Z</time>
        <extensions>
          <gpxtpx:TrackPointExtension xmlns:gpxtpx="http://www.garmin.com/xmlschemas/TrackPointExtension/v1">
            <gpxtpx:hr>128</gpxtpx:hr>
          </gpxtpx:TrackPointExtension>
        </extensions>
      </trkpt>
      <trkpt lat="46.5609" lon="0.2318">
        <ele>149</ele>
        <time>2022-04-17T08:22:26Z</time>
        <extensions>
          <gpxtpx:TrackPointExtension xmlns:gpxtpx="http://www.garmin.com/xmlschemas/TrackPointExtension/v1">
            <gpxtpx:hr>128</gpxtpx:hr>
          </gpxtpx:TrackPointExtension>
        </extensions>
      </trkpt>
      <trkpt lat="46.5609" lon="0.23176">
        <ele>149</ele>
        <time>2022-04-17T08:22:27Z</time>
        <extensions>
          <gpxtpx:TrackPointExtension xmlns:gpxtpx="http://www.garmin.com/xmlschemas/TrackPointExtension/v1">
            <gpxtpx:hr>128</gpxtpx:hr>
          </gpxtpx:TrackPointExtension>
        </extensions>
      </trkpt>
      <trkpt lat="46.56091" lon="0.23171">
        <ele>149.19999694824</ele>
        <time>2022-04-17T08:22:28Z</time>
        <extensions>
          <gpxtpx:TrackPointExtension xmlns:gpxtpx="http://www.garmin.com/xmlschemas/TrackPointExtension/v1">
            <gpxtpx:hr>128</gpxtpx:hr>
          </gpxtpx:TrackPointExtension>
        </extensions>
      </trkpt>
      <trkpt lat="46.56095" lon="0.23163">
        <ele>149.39999389648</ele>
        <time>2022-04-17T08:22:30Z</time>
        <extensions>
          <gpxtpx:TrackPointExtension xmlns:gpxtpx="http://www.garmin.com/xmlschemas/TrackPointExtension/v1">
            <gpxtpx:hr>128</gpxtpx:hr>
          </gpxtpx:TrackPointExtension>
        </extensions>
      </trkpt>
      <trkpt lat="46.56098" lon="0.23159">
        <ele>149.39999389648</ele>
        <time>2022-04-17T08:22:31Z</time>
        <extensions>
          <gpxtpx:TrackPointExtension xmlns:gpxtpx="http://www.garmin.com/xmlschemas/TrackPointExtension/v1">
            <gpxtpx:hr>128</gpxtpx:hr>
          </gpxtpx:TrackPointExtension>
        </extensions>
      </trkpt>
      <trkpt lat="46.561" lon="0.23154">
        <ele>149.60000610352</ele>
        <time>2022-04-17T08:22:32Z</time>
        <extensions>
          <gpxtpx:TrackPointExtension xmlns:gpxtpx="http://www.garmin.com/xmlschemas/TrackPointExtension/v1">
            <gpxtpx:hr>128</gpxtpx:hr>
          </gpxtpx:TrackPointExtension>
        </extensions>
      </trkpt>
      <trkpt lat="46.56111" lon="0.23135">
        <ele>149.80000305176</ele>
        <time>2022-04-17T08:22:36Z</time>
        <extensions>
          <gpxtpx:TrackPointExtension xmlns:gpxtpx="http://www.garmin.com/xmlschemas/TrackPointExtension/v1">
            <gpxtpx:hr>128</gpxtpx:hr>
          </gpxtpx:TrackPointExtension>
        </extensions>
      </trkpt>
      <trkpt lat="46.56124" lon="0.23113">
        <ele>150.19999694824</ele>
        <time>2022-04-17T08:22:40Z</time>
        <extensions>
          <gpxtpx:TrackPointExtension xmlns:gpxtpx="http://www.garmin.com/xmlschemas/TrackPointExtension/v1">
            <gpxtpx:hr>129</gpxtpx:hr>
          </gpxtpx:TrackPointExtension>
        </extensions>
      </trkpt>
      <trkpt lat="46.56127" lon="0.23108">
        <ele>150.19999694824</ele>
        <time>2022-04-17T08:22:41Z</time>
        <extensions>
          <gpxtpx:TrackPointExtension xmlns:gpxtpx="http://www.garmin.com/xmlschemas/TrackPointExtension/v1">
            <gpxtpx:hr>130</gpxtpx:hr>
          </gpxtpx:TrackPointExtension>
        </extensions>
      </trkpt>
      <trkpt lat="46.5613" lon="0.23103">
        <ele>150.19999694824</ele>
        <time>2022-04-17T08:22:42Z</time>
        <extensions>
          <gpxtpx:TrackPointExtension xmlns:gpxtpx="http://www.garmin.com/xmlschemas/TrackPointExtension/v1">
            <gpxtpx:hr>131</gpxtpx:hr>
          </gpxtpx:TrackPointExtension>
        </extensions>
      </trkpt>
      <trkpt lat="46.56142" lon="0.23082">
        <ele>150.39999389648</ele>
        <time>2022-04-17T08:22:46Z</time>
        <extensions>
          <gpxtpx:TrackPointExtension xmlns:gpxtpx="http://www.garmin.com/xmlschemas/TrackPointExtension/v1">
            <gpxtpx:hr>134</gpxtpx:hr>
          </gpxtpx:TrackPointExtension>
        </extensions>
      </trkpt>
      <trkpt lat="46.56151" lon="0.23065">
        <ele>150.60000610352</ele>
        <time>2022-04-17T08:22:49Z</time>
        <extensions>
          <gpxtpx:TrackPointExtension xmlns:gpxtpx="http://www.garmin.com/xmlschemas/TrackPointExtension/v1">
            <gpxtpx:hr>134</gpxtpx:hr>
          </gpxtpx:TrackPointExtension>
        </extensions>
      </trkpt>
      <trkpt lat="46.56154" lon="0.2306">
        <ele>150.60000610352</ele>
        <time>2022-04-17T08:22:50Z</time>
        <extensions>
          <gpxtpx:TrackPointExtension xmlns:gpxtpx="http://www.garmin.com/xmlschemas/TrackPointExtension/v1">
            <gpxtpx:hr>133</gpxtpx:hr>
          </gpxtpx:TrackPointExtension>
        </extensions>
      </trkpt>
      <trkpt lat="46.56157" lon="0.23054">
        <ele>150.60000610352</ele>
        <time>2022-04-17T08:22:51Z</time>
        <extensions>
          <gpxtpx:TrackPointExtension xmlns:gpxtpx="http://www.garmin.com/xmlschemas/TrackPointExtension/v1">
            <gpxtpx:hr>133</gpxtpx:hr>
          </gpxtpx:TrackPointExtension>
        </extensions>
      </trkpt>
      <trkpt lat="46.56174" lon="0.23023">
        <ele>150.60000610352</ele>
        <time>2022-04-17T08:22:57Z</time>
        <extensions>
          <gpxtpx:TrackPointExtension xmlns:gpxtpx="http://www.garmin.com/xmlschemas/TrackPointExtension/v1">
            <gpxtpx:hr>133</gpxtpx:hr>
          </gpxtpx:TrackPointExtension>
        </extensions>
      </trkpt>
      <trkpt lat="46.56199" lon="0.22979">
        <ele>150.80000305176</ele>
        <time>2022-04-17T08:23:05Z</time>
        <extensions>
          <gpxtpx:TrackPointExtension xmlns:gpxtpx="http://www.garmin.com/xmlschemas/TrackPointExtension/v1">
            <gpxtpx:hr>133</gpxtpx:hr>
          </gpxtpx:TrackPointExtension>
        </extensions>
      </trkpt>
      <trkpt lat="46.56214" lon="0.22952">
        <ele>150.19999694824</ele>
        <time>2022-04-17T08:23:10Z</time>
        <extensions>
          <gpxtpx:TrackPointExtension xmlns:gpxtpx="http://www.garmin.com/xmlschemas/TrackPointExtension/v1">
            <gpxtpx:hr>129</gpxtpx:hr>
          </gpxtpx:TrackPointExtension>
        </extensions>
      </trkpt>
      <trkpt lat="46.5622" lon="0.22942">
        <ele>150.19999694824</ele>
        <time>2022-04-17T08:23:12Z</time>
        <extensions>
          <gpxtpx:TrackPointExtension xmlns:gpxtpx="http://www.garmin.com/xmlschemas/TrackPointExtension/v1">
            <gpxtpx:hr>129</gpxtpx:hr>
          </gpxtpx:TrackPointExtension>
        </extensions>
      </trkpt>
      <trkpt lat="46.56223" lon="0.22937">
        <ele>150.19999694824</ele>
        <time>2022-04-17T08:23:13Z</time>
        <extensions>
          <gpxtpx:TrackPointExtension xmlns:gpxtpx="http://www.garmin.com/xmlschemas/TrackPointExtension/v1">
            <gpxtpx:hr>128</gpxtpx:hr>
          </gpxtpx:TrackPointExtension>
        </extensions>
      </trkpt>
      <trkpt lat="46.56226" lon="0.22932">
        <ele>150.39999389648</ele>
        <time>2022-04-17T08:23:14Z</time>
        <extensions>
          <gpxtpx:TrackPointExtension xmlns:gpxtpx="http://www.garmin.com/xmlschemas/TrackPointExtension/v1">
            <gpxtpx:hr>128</gpxtpx:hr>
          </gpxtpx:TrackPointExtension>
        </extensions>
      </trkpt>
      <trkpt lat="46.56228" lon="0.22928">
        <ele>150.39999389648</ele>
        <time>2022-04-17T08:23:15Z</time>
        <extensions>
          <gpxtpx:TrackPointExtension xmlns:gpxtpx="http://www.garmin.com/xmlschemas/TrackPointExtension/v1">
            <gpxtpx:hr>134</gpxtpx:hr>
          </gpxtpx:TrackPointExtension>
        </extensions>
      </trkpt>
      <trkpt lat="46.56231" lon="0.22923">
        <ele>150.19999694824</ele>
        <time>2022-04-17T08:23:16Z</time>
        <extensions>
          <gpxtpx:TrackPointExtension xmlns:gpxtpx="http://www.garmin.com/xmlschemas/TrackPointExtension/v1">
            <gpxtpx:hr>135</gpxtpx:hr>
          </gpxtpx:TrackPointExtension>
        </extensions>
      </trkpt>
      <trkpt lat="46.56234" lon="0.22918">
        <ele>150.39999389648</ele>
        <time>2022-04-17T08:23:17Z</time>
        <extensions>
          <gpxtpx:TrackPointExtension xmlns:gpxtpx="http://www.garmin.com/xmlschemas/TrackPointExtension/v1">
            <gpxtpx:hr>136</gpxtpx:hr>
          </gpxtpx:TrackPointExtension>
        </extensions>
      </trkpt>
      <trkpt lat="46.56236" lon="0.22913">
        <ele>150.39999389648</ele>
        <time>2022-04-17T08:23:18Z</time>
        <extensions>
          <gpxtpx:TrackPointExtension xmlns:gpxtpx="http://www.garmin.com/xmlschemas/TrackPointExtension/v1">
            <gpxtpx:hr>137</gpxtpx:hr>
          </gpxtpx:TrackPointExtension>
        </extensions>
      </trkpt>
      <trkpt lat="46.56239" lon="0.22908">
        <ele>150.39999389648</ele>
        <time>2022-04-17T08:23:19Z</time>
        <extensions>
          <gpxtpx:TrackPointExtension xmlns:gpxtpx="http://www.garmin.com/xmlschemas/TrackPointExtension/v1">
            <gpxtpx:hr>137</gpxtpx:hr>
          </gpxtpx:TrackPointExtension>
        </extensions>
      </trkpt>
      <trkpt lat="46.56241" lon="0.22904">
        <ele>150.39999389648</ele>
        <time>2022-04-17T08:23:20Z</time>
        <extensions>
          <gpxtpx:TrackPointExtension xmlns:gpxtpx="http://www.garmin.com/xmlschemas/TrackPointExtension/v1">
            <gpxtpx:hr>136</gpxtpx:hr>
          </gpxtpx:TrackPointExtension>
        </extensions>
      </trkpt>
      <trkpt lat="46.56246" lon="0.22897">
        <ele>150.60000610352</ele>
        <time>2022-04-17T08:23:22Z</time>
        <extensions>
          <gpxtpx:TrackPointExtension xmlns:gpxtpx="http://www.garmin.com/xmlschemas/TrackPointExtension/v1">
            <gpxtpx:hr>135</gpxtpx:hr>
          </gpxtpx:TrackPointExtension>
        </extensions>
      </trkpt>
      <trkpt lat="46.56247" lon="0.22893">
        <ele>150.60000610352</ele>
        <time>2022-04-17T08:23:23Z</time>
        <extensions>
          <gpxtpx:TrackPointExtension xmlns:gpxtpx="http://www.garmin.com/xmlschemas/TrackPointExtension/v1">
            <gpxtpx:hr>134</gpxtpx:hr>
          </gpxtpx:TrackPointExtension>
        </extensions>
      </trkpt>
      <trkpt lat="46.56248" lon="0.22888">
        <ele>150.60000610352</ele>
        <time>2022-04-17T08:23:24Z</time>
        <extensions>
          <gpxtpx:TrackPointExtension xmlns:gpxtpx="http://www.garmin.com/xmlschemas/TrackPointExtension/v1">
            <gpxtpx:hr>132</gpxtpx:hr>
          </gpxtpx:TrackPointExtension>
        </extensions>
      </trkpt>
      <trkpt lat="46.56248" lon="0.22884">
        <ele>150.60000610352</ele>
        <time>2022-04-17T08:23:25Z</time>
        <extensions>
          <gpxtpx:TrackPointExtension xmlns:gpxtpx="http://www.garmin.com/xmlschemas/TrackPointExtension/v1">
            <gpxtpx:hr>131</gpxtpx:hr>
          </gpxtpx:TrackPointExtension>
        </extensions>
      </trkpt>
      <trkpt lat="46.56246" lon="0.2288">
        <ele>150.60000610352</ele>
        <time>2022-04-17T08:23:26Z</time>
        <extensions>
          <gpxtpx:TrackPointExtension xmlns:gpxtpx="http://www.garmin.com/xmlschemas/TrackPointExtension/v1">
            <gpxtpx:hr>131</gpxtpx:hr>
          </gpxtpx:TrackPointExtension>
        </extensions>
      </trkpt>
      <trkpt lat="46.56243" lon="0.22878">
        <ele>150.60000610352</ele>
        <time>2022-04-17T08:23:27Z</time>
        <extensions>
          <gpxtpx:TrackPointExtension xmlns:gpxtpx="http://www.garmin.com/xmlschemas/TrackPointExtension/v1">
            <gpxtpx:hr>130</gpxtpx:hr>
          </gpxtpx:TrackPointExtension>
        </extensions>
      </trkpt>
      <trkpt lat="46.5623" lon="0.22873">
        <ele>150.80000305176</ele>
        <time>2022-04-17T08:23:30Z</time>
        <extensions>
          <gpxtpx:TrackPointExtension xmlns:gpxtpx="http://www.garmin.com/xmlschemas/TrackPointExtension/v1">
            <gpxtpx:hr>129</gpxtpx:hr>
          </gpxtpx:TrackPointExtension>
        </extensions>
      </trkpt>
      <trkpt lat="46.56226" lon="0.22871">
        <ele>150.80000305176</ele>
        <time>2022-04-17T08:23:31Z</time>
        <extensions>
          <gpxtpx:TrackPointExtension xmlns:gpxtpx="http://www.garmin.com/xmlschemas/TrackPointExtension/v1">
            <gpxtpx:hr>129</gpxtpx:hr>
          </gpxtpx:TrackPointExtension>
        </extensions>
      </trkpt>
      <trkpt lat="46.56205" lon="0.22863">
        <ele>150.80000305176</ele>
        <time>2022-04-17T08:23:35Z</time>
        <extensions>
          <gpxtpx:TrackPointExtension xmlns:gpxtpx="http://www.garmin.com/xmlschemas/TrackPointExtension/v1">
            <gpxtpx:hr>129</gpxtpx:hr>
          </gpxtpx:TrackPointExtension>
        </extensions>
      </trkpt>
      <trkpt lat="46.562" lon="0.22862">
        <ele>151</ele>
        <time>2022-04-17T08:23:36Z</time>
        <extensions>
          <gpxtpx:TrackPointExtension xmlns:gpxtpx="http://www.garmin.com/xmlschemas/TrackPointExtension/v1">
            <gpxtpx:hr>129</gpxtpx:hr>
          </gpxtpx:TrackPointExtension>
        </extensions>
      </trkpt>
      <trkpt lat="46.56196" lon="0.2286">
        <ele>151</ele>
        <time>2022-04-17T08:23:37Z</time>
        <extensions>
          <gpxtpx:TrackPointExtension xmlns:gpxtpx="http://www.garmin.com/xmlschemas/TrackPointExtension/v1">
            <gpxtpx:hr>129</gpxtpx:hr>
          </gpxtpx:TrackPointExtension>
        </extensions>
      </trkpt>
      <trkpt lat="46.56192" lon="0.22858">
        <ele>151</ele>
        <time>2022-04-17T08:23:38Z</time>
        <extensions>
          <gpxtpx:TrackPointExtension xmlns:gpxtpx="http://www.garmin.com/xmlschemas/TrackPointExtension/v1">
            <gpxtpx:hr>129</gpxtpx:hr>
          </gpxtpx:TrackPointExtension>
        </extensions>
      </trkpt>
      <trkpt lat="46.56153" lon="0.22841">
        <ele>150.60000610352</ele>
        <time>2022-04-17T08:23:46Z</time>
        <extensions>
          <gpxtpx:TrackPointExtension xmlns:gpxtpx="http://www.garmin.com/xmlschemas/TrackPointExtension/v1">
            <gpxtpx:hr>130</gpxtpx:hr>
          </gpxtpx:TrackPointExtension>
        </extensions>
      </trkpt>
      <trkpt lat="46.56138" lon="0.22834">
        <ele>150.60000610352</ele>
        <time>2022-04-17T08:23:49Z</time>
        <extensions>
          <gpxtpx:TrackPointExtension xmlns:gpxtpx="http://www.garmin.com/xmlschemas/TrackPointExtension/v1">
            <gpxtpx:hr>126</gpxtpx:hr>
          </gpxtpx:TrackPointExtension>
        </extensions>
      </trkpt>
      <trkpt lat="46.56113" lon="0.22823">
        <ele>150.39999389648</ele>
        <time>2022-04-17T08:23:54Z</time>
        <extensions>
          <gpxtpx:TrackPointExtension xmlns:gpxtpx="http://www.garmin.com/xmlschemas/TrackPointExtension/v1">
            <gpxtpx:hr>128</gpxtpx:hr>
          </gpxtpx:TrackPointExtension>
        </extensions>
      </trkpt>
      <trkpt lat="46.56098" lon="0.22817">
        <ele>150.39999389648</ele>
        <time>2022-04-17T08:23:57Z</time>
        <extensions>
          <gpxtpx:TrackPointExtension xmlns:gpxtpx="http://www.garmin.com/xmlschemas/TrackPointExtension/v1">
            <gpxtpx:hr>128</gpxtpx:hr>
          </gpxtpx:TrackPointExtension>
        </extensions>
      </trkpt>
      <trkpt lat="46.56094" lon="0.22814">
        <ele>150.39999389648</ele>
        <time>2022-04-17T08:23:58Z</time>
        <extensions>
          <gpxtpx:TrackPointExtension xmlns:gpxtpx="http://www.garmin.com/xmlschemas/TrackPointExtension/v1">
            <gpxtpx:hr>128</gpxtpx:hr>
          </gpxtpx:TrackPointExtension>
        </extensions>
      </trkpt>
      <trkpt lat="46.56089" lon="0.22812">
        <ele>150.39999389648</ele>
        <time>2022-04-17T08:23:59Z</time>
        <extensions>
          <gpxtpx:TrackPointExtension xmlns:gpxtpx="http://www.garmin.com/xmlschemas/TrackPointExtension/v1">
            <gpxtpx:hr>128</gpxtpx:hr>
          </gpxtpx:TrackPointExtension>
        </extensions>
      </trkpt>
      <trkpt lat="46.56084" lon="0.2281">
        <ele>150.39999389648</ele>
        <time>2022-04-17T08:24:00Z</time>
        <extensions>
          <gpxtpx:TrackPointExtension xmlns:gpxtpx="http://www.garmin.com/xmlschemas/TrackPointExtension/v1">
            <gpxtpx:hr>128</gpxtpx:hr>
          </gpxtpx:TrackPointExtension>
        </extensions>
      </trkpt>
      <trkpt lat="46.56079" lon="0.22808">
        <ele>150.39999389648</ele>
        <time>2022-04-17T08:24:01Z</time>
        <extensions>
          <gpxtpx:TrackPointExtension xmlns:gpxtpx="http://www.garmin.com/xmlschemas/TrackPointExtension/v1">
            <gpxtpx:hr>128</gpxtpx:hr>
          </gpxtpx:TrackPointExtension>
        </extensions>
      </trkpt>
      <trkpt lat="46.56061" lon="0.22801">
        <ele>150.60000610352</ele>
        <time>2022-04-17T08:24:05Z</time>
        <extensions>
          <gpxtpx:TrackPointExtension xmlns:gpxtpx="http://www.garmin.com/xmlschemas/TrackPointExtension/v1">
            <gpxtpx:hr>128</gpxtpx:hr>
          </gpxtpx:TrackPointExtension>
        </extensions>
      </trkpt>
      <trkpt lat="46.56056" lon="0.22799">
        <ele>150.60000610352</ele>
        <time>2022-04-17T08:24:06Z</time>
        <extensions>
          <gpxtpx:TrackPointExtension xmlns:gpxtpx="http://www.garmin.com/xmlschemas/TrackPointExtension/v1">
            <gpxtpx:hr>128</gpxtpx:hr>
          </gpxtpx:TrackPointExtension>
        </extensions>
      </trkpt>
      <trkpt lat="46.56037" lon="0.2279">
        <ele>150.60000610352</ele>
        <time>2022-04-17T08:24:10Z</time>
        <extensions>
          <gpxtpx:TrackPointExtension xmlns:gpxtpx="http://www.garmin.com/xmlschemas/TrackPointExtension/v1">
            <gpxtpx:hr>130</gpxtpx:hr>
          </gpxtpx:TrackPointExtension>
        </extensions>
      </trkpt>
      <trkpt lat="46.56032" lon="0.22788">
        <ele>150.60000610352</ele>
        <time>2022-04-17T08:24:11Z</time>
        <extensions>
          <gpxtpx:TrackPointExtension xmlns:gpxtpx="http://www.garmin.com/xmlschemas/TrackPointExtension/v1">
            <gpxtpx:hr>130</gpxtpx:hr>
          </gpxtpx:TrackPointExtension>
        </extensions>
      </trkpt>
      <trkpt lat="46.5598" lon="0.22767">
        <ele>150.80000305176</ele>
        <time>2022-04-17T08:24:21Z</time>
        <extensions>
          <gpxtpx:TrackPointExtension xmlns:gpxtpx="http://www.garmin.com/xmlschemas/TrackPointExtension/v1">
            <gpxtpx:hr>129</gpxtpx:hr>
          </gpxtpx:TrackPointExtension>
        </extensions>
      </trkpt>
      <trkpt lat="46.55974" lon="0.22764">
        <ele>150.80000305176</ele>
        <time>2022-04-17T08:24:22Z</time>
        <extensions>
          <gpxtpx:TrackPointExtension xmlns:gpxtpx="http://www.garmin.com/xmlschemas/TrackPointExtension/v1">
            <gpxtpx:hr>130</gpxtpx:hr>
          </gpxtpx:TrackPointExtension>
        </extensions>
      </trkpt>
      <trkpt lat="46.55942" lon="0.22749">
        <ele>150.39999389648</ele>
        <time>2022-04-17T08:24:28Z</time>
        <extensions>
          <gpxtpx:TrackPointExtension xmlns:gpxtpx="http://www.garmin.com/xmlschemas/TrackPointExtension/v1">
            <gpxtpx:hr>129</gpxtpx:hr>
          </gpxtpx:TrackPointExtension>
        </extensions>
      </trkpt>
      <trkpt lat="46.55937" lon="0.22747">
        <ele>150.39999389648</ele>
        <time>2022-04-17T08:24:29Z</time>
        <extensions>
          <gpxtpx:TrackPointExtension xmlns:gpxtpx="http://www.garmin.com/xmlschemas/TrackPointExtension/v1">
            <gpxtpx:hr>131</gpxtpx:hr>
          </gpxtpx:TrackPointExtension>
        </extensions>
      </trkpt>
      <trkpt lat="46.55931" lon="0.22745">
        <ele>150.39999389648</ele>
        <time>2022-04-17T08:24:30Z</time>
        <extensions>
          <gpxtpx:TrackPointExtension xmlns:gpxtpx="http://www.garmin.com/xmlschemas/TrackPointExtension/v1">
            <gpxtpx:hr>131</gpxtpx:hr>
          </gpxtpx:TrackPointExtension>
        </extensions>
      </trkpt>
      <trkpt lat="46.55926" lon="0.22742">
        <ele>150.39999389648</ele>
        <time>2022-04-17T08:24:31Z</time>
        <extensions>
          <gpxtpx:TrackPointExtension xmlns:gpxtpx="http://www.garmin.com/xmlschemas/TrackPointExtension/v1">
            <gpxtpx:hr>132</gpxtpx:hr>
          </gpxtpx:TrackPointExtension>
        </extensions>
      </trkpt>
      <trkpt lat="46.55921" lon="0.22741">
        <ele>150.39999389648</ele>
        <time>2022-04-17T08:24:32Z</time>
        <extensions>
          <gpxtpx:TrackPointExtension xmlns:gpxtpx="http://www.garmin.com/xmlschemas/TrackPointExtension/v1">
            <gpxtpx:hr>132</gpxtpx:hr>
          </gpxtpx:TrackPointExtension>
        </extensions>
      </trkpt>
      <trkpt lat="46.55905" lon="0.22735">
        <ele>150.39999389648</ele>
        <time>2022-04-17T08:24:35Z</time>
        <extensions>
          <gpxtpx:TrackPointExtension xmlns:gpxtpx="http://www.garmin.com/xmlschemas/TrackPointExtension/v1">
            <gpxtpx:hr>134</gpxtpx:hr>
          </gpxtpx:TrackPointExtension>
        </extensions>
      </trkpt>
      <trkpt lat="46.559" lon="0.22733">
        <ele>150.60000610352</ele>
        <time>2022-04-17T08:24:36Z</time>
        <extensions>
          <gpxtpx:TrackPointExtension xmlns:gpxtpx="http://www.garmin.com/xmlschemas/TrackPointExtension/v1">
            <gpxtpx:hr>134</gpxtpx:hr>
          </gpxtpx:TrackPointExtension>
        </extensions>
      </trkpt>
      <trkpt lat="46.5589" lon="0.22729">
        <ele>150.60000610352</ele>
        <time>2022-04-17T08:24:38Z</time>
        <extensions>
          <gpxtpx:TrackPointExtension xmlns:gpxtpx="http://www.garmin.com/xmlschemas/TrackPointExtension/v1">
            <gpxtpx:hr>134</gpxtpx:hr>
          </gpxtpx:TrackPointExtension>
        </extensions>
      </trkpt>
      <trkpt lat="46.55885" lon="0.22727">
        <ele>150.80000305176</ele>
        <time>2022-04-17T08:24:39Z</time>
        <extensions>
          <gpxtpx:TrackPointExtension xmlns:gpxtpx="http://www.garmin.com/xmlschemas/TrackPointExtension/v1">
            <gpxtpx:hr>134</gpxtpx:hr>
          </gpxtpx:TrackPointExtension>
        </extensions>
      </trkpt>
      <trkpt lat="46.55881" lon="0.22725">
        <ele>150.80000305176</ele>
        <time>2022-04-17T08:24:40Z</time>
        <extensions>
          <gpxtpx:TrackPointExtension xmlns:gpxtpx="http://www.garmin.com/xmlschemas/TrackPointExtension/v1">
            <gpxtpx:hr>135</gpxtpx:hr>
          </gpxtpx:TrackPointExtension>
        </extensions>
      </trkpt>
      <trkpt lat="46.55876" lon="0.22723">
        <ele>150.80000305176</ele>
        <time>2022-04-17T08:24:41Z</time>
        <extensions>
          <gpxtpx:TrackPointExtension xmlns:gpxtpx="http://www.garmin.com/xmlschemas/TrackPointExtension/v1">
            <gpxtpx:hr>135</gpxtpx:hr>
          </gpxtpx:TrackPointExtension>
        </extensions>
      </trkpt>
      <trkpt lat="46.55872" lon="0.22721">
        <ele>151</ele>
        <time>2022-04-17T08:24:42Z</time>
        <extensions>
          <gpxtpx:TrackPointExtension xmlns:gpxtpx="http://www.garmin.com/xmlschemas/TrackPointExtension/v1">
            <gpxtpx:hr>135</gpxtpx:hr>
          </gpxtpx:TrackPointExtension>
        </extensions>
      </trkpt>
      <trkpt lat="46.55868" lon="0.2272">
        <ele>151</ele>
        <time>2022-04-17T08:24:43Z</time>
        <extensions>
          <gpxtpx:TrackPointExtension xmlns:gpxtpx="http://www.garmin.com/xmlschemas/TrackPointExtension/v1">
            <gpxtpx:hr>135</gpxtpx:hr>
          </gpxtpx:TrackPointExtension>
        </extensions>
      </trkpt>
      <trkpt lat="46.55863" lon="0.22718">
        <ele>151</ele>
        <time>2022-04-17T08:24:44Z</time>
        <extensions>
          <gpxtpx:TrackPointExtension xmlns:gpxtpx="http://www.garmin.com/xmlschemas/TrackPointExtension/v1">
            <gpxtpx:hr>135</gpxtpx:hr>
          </gpxtpx:TrackPointExtension>
        </extensions>
      </trkpt>
      <trkpt lat="46.5585" lon="0.22715">
        <ele>151.19999694824</ele>
        <time>2022-04-17T08:24:47Z</time>
        <extensions>
          <gpxtpx:TrackPointExtension xmlns:gpxtpx="http://www.garmin.com/xmlschemas/TrackPointExtension/v1">
            <gpxtpx:hr>136</gpxtpx:hr>
          </gpxtpx:TrackPointExtension>
        </extensions>
      </trkpt>
      <trkpt lat="46.55847" lon="0.22714">
        <ele>151.39999389648</ele>
        <time>2022-04-17T08:24:48Z</time>
        <extensions>
          <gpxtpx:TrackPointExtension xmlns:gpxtpx="http://www.garmin.com/xmlschemas/TrackPointExtension/v1">
            <gpxtpx:hr>136</gpxtpx:hr>
          </gpxtpx:TrackPointExtension>
        </extensions>
      </trkpt>
      <trkpt lat="46.55845" lon="0.22712">
        <ele>151.80000305176</ele>
        <time>2022-04-17T08:24:49Z</time>
        <extensions>
          <gpxtpx:TrackPointExtension xmlns:gpxtpx="http://www.garmin.com/xmlschemas/TrackPointExtension/v1">
            <gpxtpx:hr>135</gpxtpx:hr>
          </gpxtpx:TrackPointExtension>
        </extensions>
      </trkpt>
      <trkpt lat="46.55842" lon="0.2271">
        <ele>151.80000305176</ele>
        <time>2022-04-17T08:24:50Z</time>
        <extensions>
          <gpxtpx:TrackPointExtension xmlns:gpxtpx="http://www.garmin.com/xmlschemas/TrackPointExtension/v1">
            <gpxtpx:hr>136</gpxtpx:hr>
          </gpxtpx:TrackPointExtension>
        </extensions>
      </trkpt>
      <trkpt lat="46.5584" lon="0.22708">
        <ele>152</ele>
        <time>2022-04-17T08:24:51Z</time>
        <extensions>
          <gpxtpx:TrackPointExtension xmlns:gpxtpx="http://www.garmin.com/xmlschemas/TrackPointExtension/v1">
            <gpxtpx:hr>136</gpxtpx:hr>
          </gpxtpx:TrackPointExtension>
        </extensions>
      </trkpt>
      <trkpt lat="46.55829" lon="0.22699">
        <ele>152.19999694824</ele>
        <time>2022-04-17T08:24:55Z</time>
        <extensions>
          <gpxtpx:TrackPointExtension xmlns:gpxtpx="http://www.garmin.com/xmlschemas/TrackPointExtension/v1">
            <gpxtpx:hr>136</gpxtpx:hr>
          </gpxtpx:TrackPointExtension>
        </extensions>
      </trkpt>
      <trkpt lat="46.55827" lon="0.22696">
        <ele>152.39999389648</ele>
        <time>2022-04-17T08:24:56Z</time>
        <extensions>
          <gpxtpx:TrackPointExtension xmlns:gpxtpx="http://www.garmin.com/xmlschemas/TrackPointExtension/v1">
            <gpxtpx:hr>136</gpxtpx:hr>
          </gpxtpx:TrackPointExtension>
        </extensions>
      </trkpt>
      <trkpt lat="46.5582" lon="0.22685">
        <ele>152.39999389648</ele>
        <time>2022-04-17T08:24:59Z</time>
        <extensions>
          <gpxtpx:TrackPointExtension xmlns:gpxtpx="http://www.garmin.com/xmlschemas/TrackPointExtension/v1">
            <gpxtpx:hr>136</gpxtpx:hr>
          </gpxtpx:TrackPointExtension>
        </extensions>
      </trkpt>
      <trkpt lat="46.55808" lon="0.22671">
        <ele>152.80000305176</ele>
        <time>2022-04-17T08:25:03Z</time>
        <extensions>
          <gpxtpx:TrackPointExtension xmlns:gpxtpx="http://www.garmin.com/xmlschemas/TrackPointExtension/v1">
            <gpxtpx:hr>136</gpxtpx:hr>
          </gpxtpx:TrackPointExtension>
        </extensions>
      </trkpt>
      <trkpt lat="46.55786" lon="0.22648">
        <ele>153</ele>
        <time>2022-04-17T08:25:10Z</time>
        <extensions>
          <gpxtpx:TrackPointExtension xmlns:gpxtpx="http://www.garmin.com/xmlschemas/TrackPointExtension/v1">
            <gpxtpx:hr>135</gpxtpx:hr>
          </gpxtpx:TrackPointExtension>
        </extensions>
      </trkpt>
      <trkpt lat="46.55783" lon="0.22645">
        <ele>153</ele>
        <time>2022-04-17T08:25:11Z</time>
        <extensions>
          <gpxtpx:TrackPointExtension xmlns:gpxtpx="http://www.garmin.com/xmlschemas/TrackPointExtension/v1">
            <gpxtpx:hr>135</gpxtpx:hr>
          </gpxtpx:TrackPointExtension>
        </extensions>
      </trkpt>
      <trkpt lat="46.55762" lon="0.22627">
        <ele>153.19999694824</ele>
        <time>2022-04-17T08:25:17Z</time>
        <extensions>
          <gpxtpx:TrackPointExtension xmlns:gpxtpx="http://www.garmin.com/xmlschemas/TrackPointExtension/v1">
            <gpxtpx:hr>137</gpxtpx:hr>
          </gpxtpx:TrackPointExtension>
        </extensions>
      </trkpt>
      <trkpt lat="46.5575" lon="0.22617">
        <ele>153.19999694824</ele>
        <time>2022-04-17T08:25:20Z</time>
        <extensions>
          <gpxtpx:TrackPointExtension xmlns:gpxtpx="http://www.garmin.com/xmlschemas/TrackPointExtension/v1">
            <gpxtpx:hr>137</gpxtpx:hr>
          </gpxtpx:TrackPointExtension>
        </extensions>
      </trkpt>
      <trkpt lat="46.55723" lon="0.22592">
        <ele>153.39999389648</ele>
        <time>2022-04-17T08:25:27Z</time>
        <extensions>
          <gpxtpx:TrackPointExtension xmlns:gpxtpx="http://www.garmin.com/xmlschemas/TrackPointExtension/v1">
            <gpxtpx:hr>136</gpxtpx:hr>
          </gpxtpx:TrackPointExtension>
        </extensions>
      </trkpt>
      <trkpt lat="46.55694" lon="0.22567">
        <ele>153.39999389648</ele>
        <time>2022-04-17T08:25:35Z</time>
        <extensions>
          <gpxtpx:TrackPointExtension xmlns:gpxtpx="http://www.garmin.com/xmlschemas/TrackPointExtension/v1">
            <gpxtpx:hr>133</gpxtpx:hr>
          </gpxtpx:TrackPointExtension>
        </extensions>
      </trkpt>
      <trkpt lat="46.55682" lon="0.22557">
        <ele>153.39999389648</ele>
        <time>2022-04-17T08:25:38Z</time>
        <extensions>
          <gpxtpx:TrackPointExtension xmlns:gpxtpx="http://www.garmin.com/xmlschemas/TrackPointExtension/v1">
            <gpxtpx:hr>133</gpxtpx:hr>
          </gpxtpx:TrackPointExtension>
        </extensions>
      </trkpt>
      <trkpt lat="46.55673" lon="0.2255">
        <ele>153.60000610352</ele>
        <time>2022-04-17T08:25:40Z</time>
        <extensions>
          <gpxtpx:TrackPointExtension xmlns:gpxtpx="http://www.garmin.com/xmlschemas/TrackPointExtension/v1">
            <gpxtpx:hr>133</gpxtpx:hr>
          </gpxtpx:TrackPointExtension>
        </extensions>
      </trkpt>
      <trkpt lat="46.55646" lon="0.22524">
        <ele>153.39999389648</ele>
        <time>2022-04-17T08:25:47Z</time>
        <extensions>
          <gpxtpx:TrackPointExtension xmlns:gpxtpx="http://www.garmin.com/xmlschemas/TrackPointExtension/v1">
            <gpxtpx:hr>134</gpxtpx:hr>
          </gpxtpx:TrackPointExtension>
        </extensions>
      </trkpt>
      <trkpt lat="46.55613" lon="0.22485">
        <ele>153</ele>
        <time>2022-04-17T08:25:56Z</time>
        <extensions>
          <gpxtpx:TrackPointExtension xmlns:gpxtpx="http://www.garmin.com/xmlschemas/TrackPointExtension/v1">
            <gpxtpx:hr>135</gpxtpx:hr>
          </gpxtpx:TrackPointExtension>
        </extensions>
      </trkpt>
      <trkpt lat="46.5561" lon="0.22481">
        <ele>153</ele>
        <time>2022-04-17T08:25:57Z</time>
        <extensions>
          <gpxtpx:TrackPointExtension xmlns:gpxtpx="http://www.garmin.com/xmlschemas/TrackPointExtension/v1">
            <gpxtpx:hr>135</gpxtpx:hr>
          </gpxtpx:TrackPointExtension>
        </extensions>
      </trkpt>
      <trkpt lat="46.55607" lon="0.22477">
        <ele>153.19999694824</ele>
        <time>2022-04-17T08:25:58Z</time>
        <extensions>
          <gpxtpx:TrackPointExtension xmlns:gpxtpx="http://www.garmin.com/xmlschemas/TrackPointExtension/v1">
            <gpxtpx:hr>135</gpxtpx:hr>
          </gpxtpx:TrackPointExtension>
        </extensions>
      </trkpt>
      <trkpt lat="46.55586" lon="0.22447">
        <ele>153</ele>
        <time>2022-04-17T08:26:04Z</time>
        <extensions>
          <gpxtpx:TrackPointExtension xmlns:gpxtpx="http://www.garmin.com/xmlschemas/TrackPointExtension/v1">
            <gpxtpx:hr>135</gpxtpx:hr>
          </gpxtpx:TrackPointExtension>
        </extensions>
      </trkpt>
      <trkpt lat="46.55576" lon="0.22428">
        <ele>153</ele>
        <time>2022-04-17T08:26:07Z</time>
        <extensions>
          <gpxtpx:TrackPointExtension xmlns:gpxtpx="http://www.garmin.com/xmlschemas/TrackPointExtension/v1">
            <gpxtpx:hr>134</gpxtpx:hr>
          </gpxtpx:TrackPointExtension>
        </extensions>
      </trkpt>
      <trkpt lat="46.55566" lon="0.22401">
        <ele>152.80000305176</ele>
        <time>2022-04-17T08:26:11Z</time>
        <extensions>
          <gpxtpx:TrackPointExtension xmlns:gpxtpx="http://www.garmin.com/xmlschemas/TrackPointExtension/v1">
            <gpxtpx:hr>133</gpxtpx:hr>
          </gpxtpx:TrackPointExtension>
        </extensions>
      </trkpt>
      <trkpt lat="46.55562" lon="0.22388">
        <ele>152.60000610352</ele>
        <time>2022-04-17T08:26:13Z</time>
        <extensions>
          <gpxtpx:TrackPointExtension xmlns:gpxtpx="http://www.garmin.com/xmlschemas/TrackPointExtension/v1">
            <gpxtpx:hr>133</gpxtpx:hr>
          </gpxtpx:TrackPointExtension>
        </extensions>
      </trkpt>
      <trkpt lat="46.55559" lon="0.22374">
        <ele>152.39999389648</ele>
        <time>2022-04-17T08:26:15Z</time>
        <extensions>
          <gpxtpx:TrackPointExtension xmlns:gpxtpx="http://www.garmin.com/xmlschemas/TrackPointExtension/v1">
            <gpxtpx:hr>134</gpxtpx:hr>
          </gpxtpx:TrackPointExtension>
        </extensions>
      </trkpt>
      <trkpt lat="46.55557" lon="0.22361">
        <ele>152.39999389648</ele>
        <time>2022-04-17T08:26:17Z</time>
        <extensions>
          <gpxtpx:TrackPointExtension xmlns:gpxtpx="http://www.garmin.com/xmlschemas/TrackPointExtension/v1">
            <gpxtpx:hr>134</gpxtpx:hr>
          </gpxtpx:TrackPointExtension>
        </extensions>
      </trkpt>
      <trkpt lat="46.55556" lon="0.22355">
        <ele>152</ele>
        <time>2022-04-17T08:26:18Z</time>
        <extensions>
          <gpxtpx:TrackPointExtension xmlns:gpxtpx="http://www.garmin.com/xmlschemas/TrackPointExtension/v1">
            <gpxtpx:hr>134</gpxtpx:hr>
          </gpxtpx:TrackPointExtension>
        </extensions>
      </trkpt>
      <trkpt lat="46.55556" lon="0.22347">
        <ele>151.80000305176</ele>
        <time>2022-04-17T08:26:19Z</time>
        <extensions>
          <gpxtpx:TrackPointExtension xmlns:gpxtpx="http://www.garmin.com/xmlschemas/TrackPointExtension/v1">
            <gpxtpx:hr>131</gpxtpx:hr>
          </gpxtpx:TrackPointExtension>
        </extensions>
      </trkpt>
      <trkpt lat="46.55555" lon="0.22341">
        <ele>151.80000305176</ele>
        <time>2022-04-17T08:26:20Z</time>
        <extensions>
          <gpxtpx:TrackPointExtension xmlns:gpxtpx="http://www.garmin.com/xmlschemas/TrackPointExtension/v1">
            <gpxtpx:hr>130</gpxtpx:hr>
          </gpxtpx:TrackPointExtension>
        </extensions>
      </trkpt>
      <trkpt lat="46.55554" lon="0.22334">
        <ele>151.60000610352</ele>
        <time>2022-04-17T08:26:21Z</time>
        <extensions>
          <gpxtpx:TrackPointExtension xmlns:gpxtpx="http://www.garmin.com/xmlschemas/TrackPointExtension/v1">
            <gpxtpx:hr>128</gpxtpx:hr>
          </gpxtpx:TrackPointExtension>
        </extensions>
      </trkpt>
      <trkpt lat="46.55553" lon="0.22326">
        <ele>151.60000610352</ele>
        <time>2022-04-17T08:26:22Z</time>
        <extensions>
          <gpxtpx:TrackPointExtension xmlns:gpxtpx="http://www.garmin.com/xmlschemas/TrackPointExtension/v1">
            <gpxtpx:hr>129</gpxtpx:hr>
          </gpxtpx:TrackPointExtension>
        </extensions>
      </trkpt>
      <trkpt lat="46.5555" lon="0.22311">
        <ele>151.60000610352</ele>
        <time>2022-04-17T08:26:24Z</time>
        <extensions>
          <gpxtpx:TrackPointExtension xmlns:gpxtpx="http://www.garmin.com/xmlschemas/TrackPointExtension/v1">
            <gpxtpx:hr>130</gpxtpx:hr>
          </gpxtpx:TrackPointExtension>
        </extensions>
      </trkpt>
      <trkpt lat="46.55548" lon="0.22304">
        <ele>151.39999389648</ele>
        <time>2022-04-17T08:26:25Z</time>
        <extensions>
          <gpxtpx:TrackPointExtension xmlns:gpxtpx="http://www.garmin.com/xmlschemas/TrackPointExtension/v1">
            <gpxtpx:hr>130</gpxtpx:hr>
          </gpxtpx:TrackPointExtension>
        </extensions>
      </trkpt>
      <trkpt lat="46.55541" lon="0.22283">
        <ele>151.39999389648</ele>
        <time>2022-04-17T08:26:28Z</time>
        <extensions>
          <gpxtpx:TrackPointExtension xmlns:gpxtpx="http://www.garmin.com/xmlschemas/TrackPointExtension/v1">
            <gpxtpx:hr>132</gpxtpx:hr>
          </gpxtpx:TrackPointExtension>
        </extensions>
      </trkpt>
      <trkpt lat="46.55536" lon="0.2227">
        <ele>151.19999694824</ele>
        <time>2022-04-17T08:26:30Z</time>
        <extensions>
          <gpxtpx:TrackPointExtension xmlns:gpxtpx="http://www.garmin.com/xmlschemas/TrackPointExtension/v1">
            <gpxtpx:hr>134</gpxtpx:hr>
          </gpxtpx:TrackPointExtension>
        </extensions>
      </trkpt>
      <trkpt lat="46.55526" lon="0.22251">
        <ele>151.80000305176</ele>
        <time>2022-04-17T08:26:33Z</time>
        <extensions>
          <gpxtpx:TrackPointExtension xmlns:gpxtpx="http://www.garmin.com/xmlschemas/TrackPointExtension/v1">
            <gpxtpx:hr>134</gpxtpx:hr>
          </gpxtpx:TrackPointExtension>
        </extensions>
      </trkpt>
      <trkpt lat="46.55515" lon="0.22234">
        <ele>151.80000305176</ele>
        <time>2022-04-17T08:26:36Z</time>
        <extensions>
          <gpxtpx:TrackPointExtension xmlns:gpxtpx="http://www.garmin.com/xmlschemas/TrackPointExtension/v1">
            <gpxtpx:hr>135</gpxtpx:hr>
          </gpxtpx:TrackPointExtension>
        </extensions>
      </trkpt>
      <trkpt lat="46.55508" lon="0.22222">
        <ele>152</ele>
        <time>2022-04-17T08:26:38Z</time>
        <extensions>
          <gpxtpx:TrackPointExtension xmlns:gpxtpx="http://www.garmin.com/xmlschemas/TrackPointExtension/v1">
            <gpxtpx:hr>135</gpxtpx:hr>
          </gpxtpx:TrackPointExtension>
        </extensions>
      </trkpt>
      <trkpt lat="46.55497" lon="0.22199">
        <ele>152.19999694824</ele>
        <time>2022-04-17T08:26:42Z</time>
        <extensions>
          <gpxtpx:TrackPointExtension xmlns:gpxtpx="http://www.garmin.com/xmlschemas/TrackPointExtension/v1">
            <gpxtpx:hr>135</gpxtpx:hr>
          </gpxtpx:TrackPointExtension>
        </extensions>
      </trkpt>
      <trkpt lat="46.55495" lon="0.22193">
        <ele>152.19999694824</ele>
        <time>2022-04-17T08:26:43Z</time>
        <extensions>
          <gpxtpx:TrackPointExtension xmlns:gpxtpx="http://www.garmin.com/xmlschemas/TrackPointExtension/v1">
            <gpxtpx:hr>135</gpxtpx:hr>
          </gpxtpx:TrackPointExtension>
        </extensions>
      </trkpt>
      <trkpt lat="46.55492" lon="0.22186">
        <ele>152.19999694824</ele>
        <time>2022-04-17T08:26:44Z</time>
        <extensions>
          <gpxtpx:TrackPointExtension xmlns:gpxtpx="http://www.garmin.com/xmlschemas/TrackPointExtension/v1">
            <gpxtpx:hr>135</gpxtpx:hr>
          </gpxtpx:TrackPointExtension>
        </extensions>
      </trkpt>
      <trkpt lat="46.5549" lon="0.2218">
        <ele>152.19999694824</ele>
        <time>2022-04-17T08:26:45Z</time>
        <extensions>
          <gpxtpx:TrackPointExtension xmlns:gpxtpx="http://www.garmin.com/xmlschemas/TrackPointExtension/v1">
            <gpxtpx:hr>135</gpxtpx:hr>
          </gpxtpx:TrackPointExtension>
        </extensions>
      </trkpt>
      <trkpt lat="46.55488" lon="0.22174">
        <ele>152.19999694824</ele>
        <time>2022-04-17T08:26:46Z</time>
        <extensions>
          <gpxtpx:TrackPointExtension xmlns:gpxtpx="http://www.garmin.com/xmlschemas/TrackPointExtension/v1">
            <gpxtpx:hr>136</gpxtpx:hr>
          </gpxtpx:TrackPointExtension>
        </extensions>
      </trkpt>
      <trkpt lat="46.55485" lon="0.22168">
        <ele>152.39999389648</ele>
        <time>2022-04-17T08:26:47Z</time>
        <extensions>
          <gpxtpx:TrackPointExtension xmlns:gpxtpx="http://www.garmin.com/xmlschemas/TrackPointExtension/v1">
            <gpxtpx:hr>136</gpxtpx:hr>
          </gpxtpx:TrackPointExtension>
        </extensions>
      </trkpt>
      <trkpt lat="46.55483" lon="0.22162">
        <ele>152.60000610352</ele>
        <time>2022-04-17T08:26:48Z</time>
        <extensions>
          <gpxtpx:TrackPointExtension xmlns:gpxtpx="http://www.garmin.com/xmlschemas/TrackPointExtension/v1">
            <gpxtpx:hr>136</gpxtpx:hr>
          </gpxtpx:TrackPointExtension>
        </extensions>
      </trkpt>
      <trkpt lat="46.55474" lon="0.22141">
        <ele>153.19999694824</ele>
        <time>2022-04-17T08:26:51Z</time>
        <extensions>
          <gpxtpx:TrackPointExtension xmlns:gpxtpx="http://www.garmin.com/xmlschemas/TrackPointExtension/v1">
            <gpxtpx:hr>136</gpxtpx:hr>
          </gpxtpx:TrackPointExtension>
        </extensions>
      </trkpt>
      <trkpt lat="46.55472" lon="0.22134">
        <ele>153.19999694824</ele>
        <time>2022-04-17T08:26:52Z</time>
        <extensions>
          <gpxtpx:TrackPointExtension xmlns:gpxtpx="http://www.garmin.com/xmlschemas/TrackPointExtension/v1">
            <gpxtpx:hr>136</gpxtpx:hr>
          </gpxtpx:TrackPointExtension>
        </extensions>
      </trkpt>
      <trkpt lat="46.5547" lon="0.22128">
        <ele>153.39999389648</ele>
        <time>2022-04-17T08:26:53Z</time>
        <extensions>
          <gpxtpx:TrackPointExtension xmlns:gpxtpx="http://www.garmin.com/xmlschemas/TrackPointExtension/v1">
            <gpxtpx:hr>136</gpxtpx:hr>
          </gpxtpx:TrackPointExtension>
        </extensions>
      </trkpt>
      <trkpt lat="46.55468" lon="0.22121">
        <ele>153.80000305176</ele>
        <time>2022-04-17T08:26:54Z</time>
        <extensions>
          <gpxtpx:TrackPointExtension xmlns:gpxtpx="http://www.garmin.com/xmlschemas/TrackPointExtension/v1">
            <gpxtpx:hr>136</gpxtpx:hr>
          </gpxtpx:TrackPointExtension>
        </extensions>
      </trkpt>
      <trkpt lat="46.55466" lon="0.22109">
        <ele>154</ele>
        <time>2022-04-17T08:26:56Z</time>
        <extensions>
          <gpxtpx:TrackPointExtension xmlns:gpxtpx="http://www.garmin.com/xmlschemas/TrackPointExtension/v1">
            <gpxtpx:hr>137</gpxtpx:hr>
          </gpxtpx:TrackPointExtension>
        </extensions>
      </trkpt>
      <trkpt lat="46.55464" lon="0.22103">
        <ele>154.19999694824</ele>
        <time>2022-04-17T08:26:57Z</time>
        <extensions>
          <gpxtpx:TrackPointExtension xmlns:gpxtpx="http://www.garmin.com/xmlschemas/TrackPointExtension/v1">
            <gpxtpx:hr>137</gpxtpx:hr>
          </gpxtpx:TrackPointExtension>
        </extensions>
      </trkpt>
      <trkpt lat="46.55453" lon="0.22084">
        <ele>154.39999389648</ele>
        <time>2022-04-17T08:27:00Z</time>
        <extensions>
          <gpxtpx:TrackPointExtension xmlns:gpxtpx="http://www.garmin.com/xmlschemas/TrackPointExtension/v1">
            <gpxtpx:hr>137</gpxtpx:hr>
          </gpxtpx:TrackPointExtension>
        </extensions>
      </trkpt>
      <trkpt lat="46.5545" lon="0.22079">
        <ele>154.39999389648</ele>
        <time>2022-04-17T08:27:01Z</time>
        <extensions>
          <gpxtpx:TrackPointExtension xmlns:gpxtpx="http://www.garmin.com/xmlschemas/TrackPointExtension/v1">
            <gpxtpx:hr>138</gpxtpx:hr>
          </gpxtpx:TrackPointExtension>
        </extensions>
      </trkpt>
      <trkpt lat="46.55443" lon="0.2207">
        <ele>154.39999389648</ele>
        <time>2022-04-17T08:27:03Z</time>
        <extensions>
          <gpxtpx:TrackPointExtension xmlns:gpxtpx="http://www.garmin.com/xmlschemas/TrackPointExtension/v1">
            <gpxtpx:hr>138</gpxtpx:hr>
          </gpxtpx:TrackPointExtension>
        </extensions>
      </trkpt>
      <trkpt lat="46.55439" lon="0.22064">
        <ele>154.39999389648</ele>
        <time>2022-04-17T08:27:04Z</time>
        <extensions>
          <gpxtpx:TrackPointExtension xmlns:gpxtpx="http://www.garmin.com/xmlschemas/TrackPointExtension/v1">
            <gpxtpx:hr>139</gpxtpx:hr>
          </gpxtpx:TrackPointExtension>
        </extensions>
      </trkpt>
      <trkpt lat="46.55437" lon="0.22059">
        <ele>154.39999389648</ele>
        <time>2022-04-17T08:27:05Z</time>
        <extensions>
          <gpxtpx:TrackPointExtension xmlns:gpxtpx="http://www.garmin.com/xmlschemas/TrackPointExtension/v1">
            <gpxtpx:hr>139</gpxtpx:hr>
          </gpxtpx:TrackPointExtension>
        </extensions>
      </trkpt>
      <trkpt lat="46.55434" lon="0.22053">
        <ele>154.80000305176</ele>
        <time>2022-04-17T08:27:06Z</time>
        <extensions>
          <gpxtpx:TrackPointExtension xmlns:gpxtpx="http://www.garmin.com/xmlschemas/TrackPointExtension/v1">
            <gpxtpx:hr>140</gpxtpx:hr>
          </gpxtpx:TrackPointExtension>
        </extensions>
      </trkpt>
      <trkpt lat="46.55425" lon="0.22034">
        <ele>155</ele>
        <time>2022-04-17T08:27:09Z</time>
        <extensions>
          <gpxtpx:TrackPointExtension xmlns:gpxtpx="http://www.garmin.com/xmlschemas/TrackPointExtension/v1">
            <gpxtpx:hr>142</gpxtpx:hr>
          </gpxtpx:TrackPointExtension>
        </extensions>
      </trkpt>
      <trkpt lat="46.55422" lon="0.22028">
        <ele>155</ele>
        <time>2022-04-17T08:27:10Z</time>
        <extensions>
          <gpxtpx:TrackPointExtension xmlns:gpxtpx="http://www.garmin.com/xmlschemas/TrackPointExtension/v1">
            <gpxtpx:hr>142</gpxtpx:hr>
          </gpxtpx:TrackPointExtension>
        </extensions>
      </trkpt>
      <trkpt lat="46.55419" lon="0.22023">
        <ele>155</ele>
        <time>2022-04-17T08:27:11Z</time>
        <extensions>
          <gpxtpx:TrackPointExtension xmlns:gpxtpx="http://www.garmin.com/xmlschemas/TrackPointExtension/v1">
            <gpxtpx:hr>141</gpxtpx:hr>
          </gpxtpx:TrackPointExtension>
        </extensions>
      </trkpt>
      <trkpt lat="46.55416" lon="0.22017">
        <ele>155</ele>
        <time>2022-04-17T08:27:12Z</time>
        <extensions>
          <gpxtpx:TrackPointExtension xmlns:gpxtpx="http://www.garmin.com/xmlschemas/TrackPointExtension/v1">
            <gpxtpx:hr>141</gpxtpx:hr>
          </gpxtpx:TrackPointExtension>
        </extensions>
      </trkpt>
      <trkpt lat="46.55413" lon="0.22012">
        <ele>155</ele>
        <time>2022-04-17T08:27:13Z</time>
        <extensions>
          <gpxtpx:TrackPointExtension xmlns:gpxtpx="http://www.garmin.com/xmlschemas/TrackPointExtension/v1">
            <gpxtpx:hr>140</gpxtpx:hr>
          </gpxtpx:TrackPointExtension>
        </extensions>
      </trkpt>
      <trkpt lat="46.55411" lon="0.22007">
        <ele>155</ele>
        <time>2022-04-17T08:27:14Z</time>
        <extensions>
          <gpxtpx:TrackPointExtension xmlns:gpxtpx="http://www.garmin.com/xmlschemas/TrackPointExtension/v1">
            <gpxtpx:hr>141</gpxtpx:hr>
          </gpxtpx:TrackPointExtension>
        </extensions>
      </trkpt>
      <trkpt lat="46.55397" lon="0.21984">
        <ele>155</ele>
        <time>2022-04-17T08:27:18Z</time>
        <extensions>
          <gpxtpx:TrackPointExtension xmlns:gpxtpx="http://www.garmin.com/xmlschemas/TrackPointExtension/v1">
            <gpxtpx:hr>142</gpxtpx:hr>
          </gpxtpx:TrackPointExtension>
        </extensions>
      </trkpt>
      <trkpt lat="46.55369" lon="0.21932">
        <ele>154</ele>
        <time>2022-04-17T08:27:27Z</time>
        <extensions>
          <gpxtpx:TrackPointExtension xmlns:gpxtpx="http://www.garmin.com/xmlschemas/TrackPointExtension/v1">
            <gpxtpx:hr>140</gpxtpx:hr>
          </gpxtpx:TrackPointExtension>
        </extensions>
      </trkpt>
      <trkpt lat="46.55364" lon="0.21923">
        <ele>154</ele>
        <time>2022-04-17T08:27:29Z</time>
        <extensions>
          <gpxtpx:TrackPointExtension xmlns:gpxtpx="http://www.garmin.com/xmlschemas/TrackPointExtension/v1">
            <gpxtpx:hr>140</gpxtpx:hr>
          </gpxtpx:TrackPointExtension>
        </extensions>
      </trkpt>
      <trkpt lat="46.55361" lon="0.21919">
        <ele>153.80000305176</ele>
        <time>2022-04-17T08:27:30Z</time>
        <extensions>
          <gpxtpx:TrackPointExtension xmlns:gpxtpx="http://www.garmin.com/xmlschemas/TrackPointExtension/v1">
            <gpxtpx:hr>140</gpxtpx:hr>
          </gpxtpx:TrackPointExtension>
        </extensions>
      </trkpt>
      <trkpt lat="46.55357" lon="0.21915">
        <ele>153.80000305176</ele>
        <time>2022-04-17T08:27:31Z</time>
        <extensions>
          <gpxtpx:TrackPointExtension xmlns:gpxtpx="http://www.garmin.com/xmlschemas/TrackPointExtension/v1">
            <gpxtpx:hr>140</gpxtpx:hr>
          </gpxtpx:TrackPointExtension>
        </extensions>
      </trkpt>
      <trkpt lat="46.55354" lon="0.2191">
        <ele>153.80000305176</ele>
        <time>2022-04-17T08:27:32Z</time>
        <extensions>
          <gpxtpx:TrackPointExtension xmlns:gpxtpx="http://www.garmin.com/xmlschemas/TrackPointExtension/v1">
            <gpxtpx:hr>140</gpxtpx:hr>
          </gpxtpx:TrackPointExtension>
        </extensions>
      </trkpt>
      <trkpt lat="46.5535" lon="0.21905">
        <ele>153.39999389648</ele>
        <time>2022-04-17T08:27:33Z</time>
        <extensions>
          <gpxtpx:TrackPointExtension xmlns:gpxtpx="http://www.garmin.com/xmlschemas/TrackPointExtension/v1">
            <gpxtpx:hr>140</gpxtpx:hr>
          </gpxtpx:TrackPointExtension>
        </extensions>
      </trkpt>
      <trkpt lat="46.55346" lon="0.219">
        <ele>153.39999389648</ele>
        <time>2022-04-17T08:27:34Z</time>
        <extensions>
          <gpxtpx:TrackPointExtension xmlns:gpxtpx="http://www.garmin.com/xmlschemas/TrackPointExtension/v1">
            <gpxtpx:hr>140</gpxtpx:hr>
          </gpxtpx:TrackPointExtension>
        </extensions>
      </trkpt>
      <trkpt lat="46.55339" lon="0.2189">
        <ele>153.19999694824</ele>
        <time>2022-04-17T08:27:36Z</time>
        <extensions>
          <gpxtpx:TrackPointExtension xmlns:gpxtpx="http://www.garmin.com/xmlschemas/TrackPointExtension/v1">
            <gpxtpx:hr>139</gpxtpx:hr>
          </gpxtpx:TrackPointExtension>
        </extensions>
      </trkpt>
      <trkpt lat="46.55335" lon="0.21885">
        <ele>153</ele>
        <time>2022-04-17T08:27:37Z</time>
        <extensions>
          <gpxtpx:TrackPointExtension xmlns:gpxtpx="http://www.garmin.com/xmlschemas/TrackPointExtension/v1">
            <gpxtpx:hr>138</gpxtpx:hr>
          </gpxtpx:TrackPointExtension>
        </extensions>
      </trkpt>
      <trkpt lat="46.55332" lon="0.21881">
        <ele>152.80000305176</ele>
        <time>2022-04-17T08:27:38Z</time>
        <extensions>
          <gpxtpx:TrackPointExtension xmlns:gpxtpx="http://www.garmin.com/xmlschemas/TrackPointExtension/v1">
            <gpxtpx:hr>138</gpxtpx:hr>
          </gpxtpx:TrackPointExtension>
        </extensions>
      </trkpt>
      <trkpt lat="46.55328" lon="0.21876">
        <ele>152.60000610352</ele>
        <time>2022-04-17T08:27:39Z</time>
        <extensions>
          <gpxtpx:TrackPointExtension xmlns:gpxtpx="http://www.garmin.com/xmlschemas/TrackPointExtension/v1">
            <gpxtpx:hr>134</gpxtpx:hr>
          </gpxtpx:TrackPointExtension>
        </extensions>
      </trkpt>
      <trkpt lat="46.55319" lon="0.2186">
        <ele>152.39999389648</ele>
        <time>2022-04-17T08:27:42Z</time>
        <extensions>
          <gpxtpx:TrackPointExtension xmlns:gpxtpx="http://www.garmin.com/xmlschemas/TrackPointExtension/v1">
            <gpxtpx:hr>132</gpxtpx:hr>
          </gpxtpx:TrackPointExtension>
        </extensions>
      </trkpt>
      <trkpt lat="46.55318" lon="0.21856">
        <ele>152.19999694824</ele>
        <time>2022-04-17T08:27:43Z</time>
        <extensions>
          <gpxtpx:TrackPointExtension xmlns:gpxtpx="http://www.garmin.com/xmlschemas/TrackPointExtension/v1">
            <gpxtpx:hr>132</gpxtpx:hr>
          </gpxtpx:TrackPointExtension>
        </extensions>
      </trkpt>
      <trkpt lat="46.55318" lon="0.21851">
        <ele>152.19999694824</ele>
        <time>2022-04-17T08:27:44Z</time>
        <extensions>
          <gpxtpx:TrackPointExtension xmlns:gpxtpx="http://www.garmin.com/xmlschemas/TrackPointExtension/v1">
            <gpxtpx:hr>131</gpxtpx:hr>
          </gpxtpx:TrackPointExtension>
        </extensions>
      </trkpt>
      <trkpt lat="46.55318" lon="0.21847">
        <ele>152.19999694824</ele>
        <time>2022-04-17T08:27:45Z</time>
        <extensions>
          <gpxtpx:TrackPointExtension xmlns:gpxtpx="http://www.garmin.com/xmlschemas/TrackPointExtension/v1">
            <gpxtpx:hr>131</gpxtpx:hr>
          </gpxtpx:TrackPointExtension>
        </extensions>
      </trkpt>
      <trkpt lat="46.55319" lon="0.21843">
        <ele>152.19999694824</ele>
        <time>2022-04-17T08:27:46Z</time>
        <extensions>
          <gpxtpx:TrackPointExtension xmlns:gpxtpx="http://www.garmin.com/xmlschemas/TrackPointExtension/v1">
            <gpxtpx:hr>130</gpxtpx:hr>
          </gpxtpx:TrackPointExtension>
        </extensions>
      </trkpt>
      <trkpt lat="46.55321" lon="0.21839">
        <ele>152.19999694824</ele>
        <time>2022-04-17T08:27:47Z</time>
        <extensions>
          <gpxtpx:TrackPointExtension xmlns:gpxtpx="http://www.garmin.com/xmlschemas/TrackPointExtension/v1">
            <gpxtpx:hr>130</gpxtpx:hr>
          </gpxtpx:TrackPointExtension>
        </extensions>
      </trkpt>
      <trkpt lat="46.55325" lon="0.21829">
        <ele>152.19999694824</ele>
        <time>2022-04-17T08:27:49Z</time>
        <extensions>
          <gpxtpx:TrackPointExtension xmlns:gpxtpx="http://www.garmin.com/xmlschemas/TrackPointExtension/v1">
            <gpxtpx:hr>131</gpxtpx:hr>
          </gpxtpx:TrackPointExtension>
        </extensions>
      </trkpt>
      <trkpt lat="46.55325" lon="0.21822">
        <ele>152.19999694824</ele>
        <time>2022-04-17T08:27:50Z</time>
        <extensions>
          <gpxtpx:TrackPointExtension xmlns:gpxtpx="http://www.garmin.com/xmlschemas/TrackPointExtension/v1">
            <gpxtpx:hr>130</gpxtpx:hr>
          </gpxtpx:TrackPointExtension>
        </extensions>
      </trkpt>
      <trkpt lat="46.55324" lon="0.21816">
        <ele>152.19999694824</ele>
        <time>2022-04-17T08:27:51Z</time>
        <extensions>
          <gpxtpx:TrackPointExtension xmlns:gpxtpx="http://www.garmin.com/xmlschemas/TrackPointExtension/v1">
            <gpxtpx:hr>130</gpxtpx:hr>
          </gpxtpx:TrackPointExtension>
        </extensions>
      </trkpt>
      <trkpt lat="46.55322" lon="0.2181">
        <ele>152.19999694824</ele>
        <time>2022-04-17T08:27:52Z</time>
        <extensions>
          <gpxtpx:TrackPointExtension xmlns:gpxtpx="http://www.garmin.com/xmlschemas/TrackPointExtension/v1">
            <gpxtpx:hr>130</gpxtpx:hr>
          </gpxtpx:TrackPointExtension>
        </extensions>
      </trkpt>
      <trkpt lat="46.5532" lon="0.21805">
        <ele>152</ele>
        <time>2022-04-17T08:27:53Z</time>
        <extensions>
          <gpxtpx:TrackPointExtension xmlns:gpxtpx="http://www.garmin.com/xmlschemas/TrackPointExtension/v1">
            <gpxtpx:hr>130</gpxtpx:hr>
          </gpxtpx:TrackPointExtension>
        </extensions>
      </trkpt>
      <trkpt lat="46.55317" lon="0.21799">
        <ele>151.80000305176</ele>
        <time>2022-04-17T08:27:54Z</time>
        <extensions>
          <gpxtpx:TrackPointExtension xmlns:gpxtpx="http://www.garmin.com/xmlschemas/TrackPointExtension/v1">
            <gpxtpx:hr>129</gpxtpx:hr>
          </gpxtpx:TrackPointExtension>
        </extensions>
      </trkpt>
      <trkpt lat="46.55312" lon="0.21787">
        <ele>151.80000305176</ele>
        <time>2022-04-17T08:27:56Z</time>
        <extensions>
          <gpxtpx:TrackPointExtension xmlns:gpxtpx="http://www.garmin.com/xmlschemas/TrackPointExtension/v1">
            <gpxtpx:hr>130</gpxtpx:hr>
          </gpxtpx:TrackPointExtension>
        </extensions>
      </trkpt>
      <trkpt lat="46.55301" lon="0.21762">
        <ele>151.39999389648</ele>
        <time>2022-04-17T08:28:00Z</time>
        <extensions>
          <gpxtpx:TrackPointExtension xmlns:gpxtpx="http://www.garmin.com/xmlschemas/TrackPointExtension/v1">
            <gpxtpx:hr>130</gpxtpx:hr>
          </gpxtpx:TrackPointExtension>
        </extensions>
      </trkpt>
      <trkpt lat="46.55289" lon="0.21736">
        <ele>150.60000610352</ele>
        <time>2022-04-17T08:28:04Z</time>
        <extensions>
          <gpxtpx:TrackPointExtension xmlns:gpxtpx="http://www.garmin.com/xmlschemas/TrackPointExtension/v1">
            <gpxtpx:hr>129</gpxtpx:hr>
          </gpxtpx:TrackPointExtension>
        </extensions>
      </trkpt>
      <trkpt lat="46.55279" lon="0.21712">
        <ele>150</ele>
        <time>2022-04-17T08:28:07Z</time>
        <extensions>
          <gpxtpx:TrackPointExtension xmlns:gpxtpx="http://www.garmin.com/xmlschemas/TrackPointExtension/v1">
            <gpxtpx:hr>126</gpxtpx:hr>
          </gpxtpx:TrackPointExtension>
        </extensions>
      </trkpt>
      <trkpt lat="46.55267" lon="0.21684">
        <ele>149.60000610352</ele>
        <time>2022-04-17T08:28:11Z</time>
        <extensions>
          <gpxtpx:TrackPointExtension xmlns:gpxtpx="http://www.garmin.com/xmlschemas/TrackPointExtension/v1">
            <gpxtpx:hr>125</gpxtpx:hr>
          </gpxtpx:TrackPointExtension>
        </extensions>
      </trkpt>
      <trkpt lat="46.55256" lon="0.21662">
        <ele>149</ele>
        <time>2022-04-17T08:28:14Z</time>
        <extensions>
          <gpxtpx:TrackPointExtension xmlns:gpxtpx="http://www.garmin.com/xmlschemas/TrackPointExtension/v1">
            <gpxtpx:hr>124</gpxtpx:hr>
          </gpxtpx:TrackPointExtension>
        </extensions>
      </trkpt>
      <trkpt lat="46.55245" lon="0.21639">
        <ele>148.39999389648</ele>
        <time>2022-04-17T08:28:17Z</time>
        <extensions>
          <gpxtpx:TrackPointExtension xmlns:gpxtpx="http://www.garmin.com/xmlschemas/TrackPointExtension/v1">
            <gpxtpx:hr>123</gpxtpx:hr>
          </gpxtpx:TrackPointExtension>
        </extensions>
      </trkpt>
      <trkpt lat="46.55234" lon="0.21618">
        <ele>148</ele>
        <time>2022-04-17T08:28:20Z</time>
        <extensions>
          <gpxtpx:TrackPointExtension xmlns:gpxtpx="http://www.garmin.com/xmlschemas/TrackPointExtension/v1">
            <gpxtpx:hr>123</gpxtpx:hr>
          </gpxtpx:TrackPointExtension>
        </extensions>
      </trkpt>
      <trkpt lat="46.55231" lon="0.21611">
        <ele>147.80000305176</ele>
        <time>2022-04-17T08:28:21Z</time>
        <extensions>
          <gpxtpx:TrackPointExtension xmlns:gpxtpx="http://www.garmin.com/xmlschemas/TrackPointExtension/v1">
            <gpxtpx:hr>123</gpxtpx:hr>
          </gpxtpx:TrackPointExtension>
        </extensions>
      </trkpt>
      <trkpt lat="46.55228" lon="0.21605">
        <ele>147.60000610352</ele>
        <time>2022-04-17T08:28:22Z</time>
        <extensions>
          <gpxtpx:TrackPointExtension xmlns:gpxtpx="http://www.garmin.com/xmlschemas/TrackPointExtension/v1">
            <gpxtpx:hr>123</gpxtpx:hr>
          </gpxtpx:TrackPointExtension>
        </extensions>
      </trkpt>
      <trkpt lat="46.55226" lon="0.21599">
        <ele>147.19999694824</ele>
        <time>2022-04-17T08:28:23Z</time>
        <extensions>
          <gpxtpx:TrackPointExtension xmlns:gpxtpx="http://www.garmin.com/xmlschemas/TrackPointExtension/v1">
            <gpxtpx:hr>123</gpxtpx:hr>
          </gpxtpx:TrackPointExtension>
        </extensions>
      </trkpt>
      <trkpt lat="46.55223" lon="0.21591">
        <ele>147</ele>
        <time>2022-04-17T08:28:24Z</time>
        <extensions>
          <gpxtpx:TrackPointExtension xmlns:gpxtpx="http://www.garmin.com/xmlschemas/TrackPointExtension/v1">
            <gpxtpx:hr>123</gpxtpx:hr>
          </gpxtpx:TrackPointExtension>
        </extensions>
      </trkpt>
      <trkpt lat="46.55222" lon="0.21586">
        <ele>146.80000305176</ele>
        <time>2022-04-17T08:28:25Z</time>
        <extensions>
          <gpxtpx:TrackPointExtension xmlns:gpxtpx="http://www.garmin.com/xmlschemas/TrackPointExtension/v1">
            <gpxtpx:hr>122</gpxtpx:hr>
          </gpxtpx:TrackPointExtension>
        </extensions>
      </trkpt>
      <trkpt lat="46.55221" lon="0.21578">
        <ele>146.60000610352</ele>
        <time>2022-04-17T08:28:26Z</time>
        <extensions>
          <gpxtpx:TrackPointExtension xmlns:gpxtpx="http://www.garmin.com/xmlschemas/TrackPointExtension/v1">
            <gpxtpx:hr>121</gpxtpx:hr>
          </gpxtpx:TrackPointExtension>
        </extensions>
      </trkpt>
      <trkpt lat="46.5522" lon="0.2157">
        <ele>146.39999389648</ele>
        <time>2022-04-17T08:28:27Z</time>
        <extensions>
          <gpxtpx:TrackPointExtension xmlns:gpxtpx="http://www.garmin.com/xmlschemas/TrackPointExtension/v1">
            <gpxtpx:hr>119</gpxtpx:hr>
          </gpxtpx:TrackPointExtension>
        </extensions>
      </trkpt>
      <trkpt lat="46.55219" lon="0.21546">
        <ele>145.80000305176</ele>
        <time>2022-04-17T08:28:30Z</time>
        <extensions>
          <gpxtpx:TrackPointExtension xmlns:gpxtpx="http://www.garmin.com/xmlschemas/TrackPointExtension/v1">
            <gpxtpx:hr>120</gpxtpx:hr>
          </gpxtpx:TrackPointExtension>
        </extensions>
      </trkpt>
      <trkpt lat="46.55217" lon="0.21539">
        <ele>145.39999389648</ele>
        <time>2022-04-17T08:28:31Z</time>
        <extensions>
          <gpxtpx:TrackPointExtension xmlns:gpxtpx="http://www.garmin.com/xmlschemas/TrackPointExtension/v1">
            <gpxtpx:hr>120</gpxtpx:hr>
          </gpxtpx:TrackPointExtension>
        </extensions>
      </trkpt>
      <trkpt lat="46.55216" lon="0.21533">
        <ele>145</ele>
        <time>2022-04-17T08:28:32Z</time>
        <extensions>
          <gpxtpx:TrackPointExtension xmlns:gpxtpx="http://www.garmin.com/xmlschemas/TrackPointExtension/v1">
            <gpxtpx:hr>119</gpxtpx:hr>
          </gpxtpx:TrackPointExtension>
        </extensions>
      </trkpt>
      <trkpt lat="46.55214" lon="0.21527">
        <ele>144.60000610352</ele>
        <time>2022-04-17T08:28:33Z</time>
        <extensions>
          <gpxtpx:TrackPointExtension xmlns:gpxtpx="http://www.garmin.com/xmlschemas/TrackPointExtension/v1">
            <gpxtpx:hr>118</gpxtpx:hr>
          </gpxtpx:TrackPointExtension>
        </extensions>
      </trkpt>
      <trkpt lat="46.55211" lon="0.21523">
        <ele>144.39999389648</ele>
        <time>2022-04-17T08:28:34Z</time>
        <extensions>
          <gpxtpx:TrackPointExtension xmlns:gpxtpx="http://www.garmin.com/xmlschemas/TrackPointExtension/v1">
            <gpxtpx:hr>118</gpxtpx:hr>
          </gpxtpx:TrackPointExtension>
        </extensions>
      </trkpt>
      <trkpt lat="46.55207" lon="0.2152">
        <ele>144.19999694824</ele>
        <time>2022-04-17T08:28:35Z</time>
        <extensions>
          <gpxtpx:TrackPointExtension xmlns:gpxtpx="http://www.garmin.com/xmlschemas/TrackPointExtension/v1">
            <gpxtpx:hr>117</gpxtpx:hr>
          </gpxtpx:TrackPointExtension>
        </extensions>
      </trkpt>
      <trkpt lat="46.55204" lon="0.21518">
        <ele>144</ele>
        <time>2022-04-17T08:28:36Z</time>
        <extensions>
          <gpxtpx:TrackPointExtension xmlns:gpxtpx="http://www.garmin.com/xmlschemas/TrackPointExtension/v1">
            <gpxtpx:hr>116</gpxtpx:hr>
          </gpxtpx:TrackPointExtension>
        </extensions>
      </trkpt>
      <trkpt lat="46.55202" lon="0.21515">
        <ele>143.80000305176</ele>
        <time>2022-04-17T08:28:37Z</time>
        <extensions>
          <gpxtpx:TrackPointExtension xmlns:gpxtpx="http://www.garmin.com/xmlschemas/TrackPointExtension/v1">
            <gpxtpx:hr>116</gpxtpx:hr>
          </gpxtpx:TrackPointExtension>
        </extensions>
      </trkpt>
      <trkpt lat="46.55199" lon="0.21512">
        <ele>143.60000610352</ele>
        <time>2022-04-17T08:28:38Z</time>
        <extensions>
          <gpxtpx:TrackPointExtension xmlns:gpxtpx="http://www.garmin.com/xmlschemas/TrackPointExtension/v1">
            <gpxtpx:hr>114</gpxtpx:hr>
          </gpxtpx:TrackPointExtension>
        </extensions>
      </trkpt>
      <trkpt lat="46.55197" lon="0.21507">
        <ele>143.39999389648</ele>
        <time>2022-04-17T08:28:39Z</time>
        <extensions>
          <gpxtpx:TrackPointExtension xmlns:gpxtpx="http://www.garmin.com/xmlschemas/TrackPointExtension/v1">
            <gpxtpx:hr>113</gpxtpx:hr>
          </gpxtpx:TrackPointExtension>
        </extensions>
      </trkpt>
      <trkpt lat="46.55195" lon="0.21501">
        <ele>143.19999694824</ele>
        <time>2022-04-17T08:28:40Z</time>
        <extensions>
          <gpxtpx:TrackPointExtension xmlns:gpxtpx="http://www.garmin.com/xmlschemas/TrackPointExtension/v1">
            <gpxtpx:hr>113</gpxtpx:hr>
          </gpxtpx:TrackPointExtension>
        </extensions>
      </trkpt>
      <trkpt lat="46.55194" lon="0.21494">
        <ele>143</ele>
        <time>2022-04-17T08:28:41Z</time>
        <extensions>
          <gpxtpx:TrackPointExtension xmlns:gpxtpx="http://www.garmin.com/xmlschemas/TrackPointExtension/v1">
            <gpxtpx:hr>113</gpxtpx:hr>
          </gpxtpx:TrackPointExtension>
        </extensions>
      </trkpt>
      <trkpt lat="46.55193" lon="0.21487">
        <ele>142.80000305176</ele>
        <time>2022-04-17T08:28:42Z</time>
        <extensions>
          <gpxtpx:TrackPointExtension xmlns:gpxtpx="http://www.garmin.com/xmlschemas/TrackPointExtension/v1">
            <gpxtpx:hr>113</gpxtpx:hr>
          </gpxtpx:TrackPointExtension>
        </extensions>
      </trkpt>
      <trkpt lat="46.55192" lon="0.2148">
        <ele>142.60000610352</ele>
        <time>2022-04-17T08:28:43Z</time>
        <extensions>
          <gpxtpx:TrackPointExtension xmlns:gpxtpx="http://www.garmin.com/xmlschemas/TrackPointExtension/v1">
            <gpxtpx:hr>113</gpxtpx:hr>
          </gpxtpx:TrackPointExtension>
        </extensions>
      </trkpt>
      <trkpt lat="46.55189" lon="0.21458">
        <ele>142.19999694824</ele>
        <time>2022-04-17T08:28:46Z</time>
        <extensions>
          <gpxtpx:TrackPointExtension xmlns:gpxtpx="http://www.garmin.com/xmlschemas/TrackPointExtension/v1">
            <gpxtpx:hr>113</gpxtpx:hr>
          </gpxtpx:TrackPointExtension>
        </extensions>
      </trkpt>
      <trkpt lat="46.55187" lon="0.21449">
        <ele>142</ele>
        <time>2022-04-17T08:28:47Z</time>
        <extensions>
          <gpxtpx:TrackPointExtension xmlns:gpxtpx="http://www.garmin.com/xmlschemas/TrackPointExtension/v1">
            <gpxtpx:hr>113</gpxtpx:hr>
          </gpxtpx:TrackPointExtension>
        </extensions>
      </trkpt>
      <trkpt lat="46.55178" lon="0.21403">
        <ele>141</ele>
        <time>2022-04-17T08:28:53Z</time>
        <extensions>
          <gpxtpx:TrackPointExtension xmlns:gpxtpx="http://www.garmin.com/xmlschemas/TrackPointExtension/v1">
            <gpxtpx:hr>110</gpxtpx:hr>
          </gpxtpx:TrackPointExtension>
        </extensions>
      </trkpt>
      <trkpt lat="46.55178" lon="0.21396">
        <ele>140.80000305176</ele>
        <time>2022-04-17T08:28:54Z</time>
        <extensions>
          <gpxtpx:TrackPointExtension xmlns:gpxtpx="http://www.garmin.com/xmlschemas/TrackPointExtension/v1">
            <gpxtpx:hr>110</gpxtpx:hr>
          </gpxtpx:TrackPointExtension>
        </extensions>
      </trkpt>
      <trkpt lat="46.55176" lon="0.21375">
        <ele>140.19999694824</ele>
        <time>2022-04-17T08:28:57Z</time>
        <extensions>
          <gpxtpx:TrackPointExtension xmlns:gpxtpx="http://www.garmin.com/xmlschemas/TrackPointExtension/v1">
            <gpxtpx:hr>111</gpxtpx:hr>
          </gpxtpx:TrackPointExtension>
        </extensions>
      </trkpt>
      <trkpt lat="46.55175" lon="0.21368">
        <ele>140</ele>
        <time>2022-04-17T08:28:58Z</time>
        <extensions>
          <gpxtpx:TrackPointExtension xmlns:gpxtpx="http://www.garmin.com/xmlschemas/TrackPointExtension/v1">
            <gpxtpx:hr>111</gpxtpx:hr>
          </gpxtpx:TrackPointExtension>
        </extensions>
      </trkpt>
      <trkpt lat="46.55175" lon="0.2136">
        <ele>139.80000305176</ele>
        <time>2022-04-17T08:28:59Z</time>
        <extensions>
          <gpxtpx:TrackPointExtension xmlns:gpxtpx="http://www.garmin.com/xmlschemas/TrackPointExtension/v1">
            <gpxtpx:hr>110</gpxtpx:hr>
          </gpxtpx:TrackPointExtension>
        </extensions>
      </trkpt>
      <trkpt lat="46.55176" lon="0.21345">
        <ele>139.39999389648</ele>
        <time>2022-04-17T08:29:01Z</time>
        <extensions>
          <gpxtpx:TrackPointExtension xmlns:gpxtpx="http://www.garmin.com/xmlschemas/TrackPointExtension/v1">
            <gpxtpx:hr>110</gpxtpx:hr>
          </gpxtpx:TrackPointExtension>
        </extensions>
      </trkpt>
      <trkpt lat="46.55178" lon="0.21338">
        <ele>139</ele>
        <time>2022-04-17T08:29:02Z</time>
        <extensions>
          <gpxtpx:TrackPointExtension xmlns:gpxtpx="http://www.garmin.com/xmlschemas/TrackPointExtension/v1">
            <gpxtpx:hr>110</gpxtpx:hr>
          </gpxtpx:TrackPointExtension>
        </extensions>
      </trkpt>
      <trkpt lat="46.5518" lon="0.21331">
        <ele>138.60000610352</ele>
        <time>2022-04-17T08:29:03Z</time>
        <extensions>
          <gpxtpx:TrackPointExtension xmlns:gpxtpx="http://www.garmin.com/xmlschemas/TrackPointExtension/v1">
            <gpxtpx:hr>111</gpxtpx:hr>
          </gpxtpx:TrackPointExtension>
        </extensions>
      </trkpt>
      <trkpt lat="46.55181" lon="0.21324">
        <ele>138.39999389648</ele>
        <time>2022-04-17T08:29:04Z</time>
        <extensions>
          <gpxtpx:TrackPointExtension xmlns:gpxtpx="http://www.garmin.com/xmlschemas/TrackPointExtension/v1">
            <gpxtpx:hr>111</gpxtpx:hr>
          </gpxtpx:TrackPointExtension>
        </extensions>
      </trkpt>
      <trkpt lat="46.55183" lon="0.21318">
        <ele>138</ele>
        <time>2022-04-17T08:29:05Z</time>
        <extensions>
          <gpxtpx:TrackPointExtension xmlns:gpxtpx="http://www.garmin.com/xmlschemas/TrackPointExtension/v1">
            <gpxtpx:hr>111</gpxtpx:hr>
          </gpxtpx:TrackPointExtension>
        </extensions>
      </trkpt>
      <trkpt lat="46.55185" lon="0.21312">
        <ele>137.80000305176</ele>
        <time>2022-04-17T08:29:06Z</time>
        <extensions>
          <gpxtpx:TrackPointExtension xmlns:gpxtpx="http://www.garmin.com/xmlschemas/TrackPointExtension/v1">
            <gpxtpx:hr>112</gpxtpx:hr>
          </gpxtpx:TrackPointExtension>
        </extensions>
      </trkpt>
      <trkpt lat="46.55187" lon="0.21306">
        <ele>137.60000610352</ele>
        <time>2022-04-17T08:29:07Z</time>
        <extensions>
          <gpxtpx:TrackPointExtension xmlns:gpxtpx="http://www.garmin.com/xmlschemas/TrackPointExtension/v1">
            <gpxtpx:hr>112</gpxtpx:hr>
          </gpxtpx:TrackPointExtension>
        </extensions>
      </trkpt>
      <trkpt lat="46.55189" lon="0.213">
        <ele>137.60000610352</ele>
        <time>2022-04-17T08:29:08Z</time>
        <extensions>
          <gpxtpx:TrackPointExtension xmlns:gpxtpx="http://www.garmin.com/xmlschemas/TrackPointExtension/v1">
            <gpxtpx:hr>112</gpxtpx:hr>
          </gpxtpx:TrackPointExtension>
        </extensions>
      </trkpt>
      <trkpt lat="46.55191" lon="0.21292">
        <ele>137.19999694824</ele>
        <time>2022-04-17T08:29:09Z</time>
        <extensions>
          <gpxtpx:TrackPointExtension xmlns:gpxtpx="http://www.garmin.com/xmlschemas/TrackPointExtension/v1">
            <gpxtpx:hr>114</gpxtpx:hr>
          </gpxtpx:TrackPointExtension>
        </extensions>
      </trkpt>
      <trkpt lat="46.55192" lon="0.21287">
        <ele>137.19999694824</ele>
        <time>2022-04-17T08:29:10Z</time>
        <extensions>
          <gpxtpx:TrackPointExtension xmlns:gpxtpx="http://www.garmin.com/xmlschemas/TrackPointExtension/v1">
            <gpxtpx:hr>114</gpxtpx:hr>
          </gpxtpx:TrackPointExtension>
        </extensions>
      </trkpt>
      <trkpt lat="46.55192" lon="0.2128">
        <ele>137</ele>
        <time>2022-04-17T08:29:11Z</time>
        <extensions>
          <gpxtpx:TrackPointExtension xmlns:gpxtpx="http://www.garmin.com/xmlschemas/TrackPointExtension/v1">
            <gpxtpx:hr>112</gpxtpx:hr>
          </gpxtpx:TrackPointExtension>
        </extensions>
      </trkpt>
      <trkpt lat="46.55191" lon="0.21274">
        <ele>136.80000305176</ele>
        <time>2022-04-17T08:29:12Z</time>
        <extensions>
          <gpxtpx:TrackPointExtension xmlns:gpxtpx="http://www.garmin.com/xmlschemas/TrackPointExtension/v1">
            <gpxtpx:hr>112</gpxtpx:hr>
          </gpxtpx:TrackPointExtension>
        </extensions>
      </trkpt>
      <trkpt lat="46.55191" lon="0.21265">
        <ele>136.39999389648</ele>
        <time>2022-04-17T08:29:13Z</time>
        <extensions>
          <gpxtpx:TrackPointExtension xmlns:gpxtpx="http://www.garmin.com/xmlschemas/TrackPointExtension/v1">
            <gpxtpx:hr>111</gpxtpx:hr>
          </gpxtpx:TrackPointExtension>
        </extensions>
      </trkpt>
      <trkpt lat="46.55192" lon="0.21235">
        <ele>135.60000610352</ele>
        <time>2022-04-17T08:29:17Z</time>
        <extensions>
          <gpxtpx:TrackPointExtension xmlns:gpxtpx="http://www.garmin.com/xmlschemas/TrackPointExtension/v1">
            <gpxtpx:hr>111</gpxtpx:hr>
          </gpxtpx:TrackPointExtension>
        </extensions>
      </trkpt>
      <trkpt lat="46.55191" lon="0.21226">
        <ele>135.19999694824</ele>
        <time>2022-04-17T08:29:18Z</time>
        <extensions>
          <gpxtpx:TrackPointExtension xmlns:gpxtpx="http://www.garmin.com/xmlschemas/TrackPointExtension/v1">
            <gpxtpx:hr>112</gpxtpx:hr>
          </gpxtpx:TrackPointExtension>
        </extensions>
      </trkpt>
      <trkpt lat="46.55195" lon="0.21208">
        <ele>134.60000610352</ele>
        <time>2022-04-17T08:29:20Z</time>
        <extensions>
          <gpxtpx:TrackPointExtension xmlns:gpxtpx="http://www.garmin.com/xmlschemas/TrackPointExtension/v1">
            <gpxtpx:hr>111</gpxtpx:hr>
          </gpxtpx:TrackPointExtension>
        </extensions>
      </trkpt>
      <trkpt lat="46.55197" lon="0.21199">
        <ele>134.19999694824</ele>
        <time>2022-04-17T08:29:21Z</time>
        <extensions>
          <gpxtpx:TrackPointExtension xmlns:gpxtpx="http://www.garmin.com/xmlschemas/TrackPointExtension/v1">
            <gpxtpx:hr>111</gpxtpx:hr>
          </gpxtpx:TrackPointExtension>
        </extensions>
      </trkpt>
      <trkpt lat="46.55199" lon="0.21188">
        <ele>134</ele>
        <time>2022-04-17T08:29:22Z</time>
        <extensions>
          <gpxtpx:TrackPointExtension xmlns:gpxtpx="http://www.garmin.com/xmlschemas/TrackPointExtension/v1">
            <gpxtpx:hr>111</gpxtpx:hr>
          </gpxtpx:TrackPointExtension>
        </extensions>
      </trkpt>
      <trkpt lat="46.55201" lon="0.21178">
        <ele>133.60000610352</ele>
        <time>2022-04-17T08:29:23Z</time>
        <extensions>
          <gpxtpx:TrackPointExtension xmlns:gpxtpx="http://www.garmin.com/xmlschemas/TrackPointExtension/v1">
            <gpxtpx:hr>115</gpxtpx:hr>
          </gpxtpx:TrackPointExtension>
        </extensions>
      </trkpt>
      <trkpt lat="46.55199" lon="0.21168">
        <ele>133.39999389648</ele>
        <time>2022-04-17T08:29:24Z</time>
        <extensions>
          <gpxtpx:TrackPointExtension xmlns:gpxtpx="http://www.garmin.com/xmlschemas/TrackPointExtension/v1">
            <gpxtpx:hr>115</gpxtpx:hr>
          </gpxtpx:TrackPointExtension>
        </extensions>
      </trkpt>
      <trkpt lat="46.55198" lon="0.21158">
        <ele>132.80000305176</ele>
        <time>2022-04-17T08:29:25Z</time>
        <extensions>
          <gpxtpx:TrackPointExtension xmlns:gpxtpx="http://www.garmin.com/xmlschemas/TrackPointExtension/v1">
            <gpxtpx:hr>115</gpxtpx:hr>
          </gpxtpx:TrackPointExtension>
        </extensions>
      </trkpt>
      <trkpt lat="46.55197" lon="0.21148">
        <ele>132.19999694824</ele>
        <time>2022-04-17T08:29:26Z</time>
        <extensions>
          <gpxtpx:TrackPointExtension xmlns:gpxtpx="http://www.garmin.com/xmlschemas/TrackPointExtension/v1">
            <gpxtpx:hr>118</gpxtpx:hr>
          </gpxtpx:TrackPointExtension>
        </extensions>
      </trkpt>
      <trkpt lat="46.55198" lon="0.21138">
        <ele>131.60000610352</ele>
        <time>2022-04-17T08:29:27Z</time>
        <extensions>
          <gpxtpx:TrackPointExtension xmlns:gpxtpx="http://www.garmin.com/xmlschemas/TrackPointExtension/v1">
            <gpxtpx:hr>119</gpxtpx:hr>
          </gpxtpx:TrackPointExtension>
        </extensions>
      </trkpt>
      <trkpt lat="46.55201" lon="0.21128">
        <ele>131.39999389648</ele>
        <time>2022-04-17T08:29:28Z</time>
        <extensions>
          <gpxtpx:TrackPointExtension xmlns:gpxtpx="http://www.garmin.com/xmlschemas/TrackPointExtension/v1">
            <gpxtpx:hr>119</gpxtpx:hr>
          </gpxtpx:TrackPointExtension>
        </extensions>
      </trkpt>
      <trkpt lat="46.55202" lon="0.21118">
        <ele>131</ele>
        <time>2022-04-17T08:29:29Z</time>
        <extensions>
          <gpxtpx:TrackPointExtension xmlns:gpxtpx="http://www.garmin.com/xmlschemas/TrackPointExtension/v1">
            <gpxtpx:hr>120</gpxtpx:hr>
          </gpxtpx:TrackPointExtension>
        </extensions>
      </trkpt>
      <trkpt lat="46.55201" lon="0.21109">
        <ele>130.39999389648</ele>
        <time>2022-04-17T08:29:30Z</time>
        <extensions>
          <gpxtpx:TrackPointExtension xmlns:gpxtpx="http://www.garmin.com/xmlschemas/TrackPointExtension/v1">
            <gpxtpx:hr>120</gpxtpx:hr>
          </gpxtpx:TrackPointExtension>
        </extensions>
      </trkpt>
      <trkpt lat="46.55199" lon="0.21101">
        <ele>130.39999389648</ele>
        <time>2022-04-17T08:29:31Z</time>
        <extensions>
          <gpxtpx:TrackPointExtension xmlns:gpxtpx="http://www.garmin.com/xmlschemas/TrackPointExtension/v1">
            <gpxtpx:hr>122</gpxtpx:hr>
          </gpxtpx:TrackPointExtension>
        </extensions>
      </trkpt>
      <trkpt lat="46.55198" lon="0.21092">
        <ele>129.80000305176</ele>
        <time>2022-04-17T08:29:32Z</time>
        <extensions>
          <gpxtpx:TrackPointExtension xmlns:gpxtpx="http://www.garmin.com/xmlschemas/TrackPointExtension/v1">
            <gpxtpx:hr>122</gpxtpx:hr>
          </gpxtpx:TrackPointExtension>
        </extensions>
      </trkpt>
      <trkpt lat="46.55197" lon="0.21085">
        <ele>129.60000610352</ele>
        <time>2022-04-17T08:29:33Z</time>
        <extensions>
          <gpxtpx:TrackPointExtension xmlns:gpxtpx="http://www.garmin.com/xmlschemas/TrackPointExtension/v1">
            <gpxtpx:hr>122</gpxtpx:hr>
          </gpxtpx:TrackPointExtension>
        </extensions>
      </trkpt>
      <trkpt lat="46.55197" lon="0.21077">
        <ele>129</ele>
        <time>2022-04-17T08:29:34Z</time>
        <extensions>
          <gpxtpx:TrackPointExtension xmlns:gpxtpx="http://www.garmin.com/xmlschemas/TrackPointExtension/v1">
            <gpxtpx:hr>122</gpxtpx:hr>
          </gpxtpx:TrackPointExtension>
        </extensions>
      </trkpt>
      <trkpt lat="46.55197" lon="0.21071">
        <ele>128.80000305176</ele>
        <time>2022-04-17T08:29:35Z</time>
        <extensions>
          <gpxtpx:TrackPointExtension xmlns:gpxtpx="http://www.garmin.com/xmlschemas/TrackPointExtension/v1">
            <gpxtpx:hr>122</gpxtpx:hr>
          </gpxtpx:TrackPointExtension>
        </extensions>
      </trkpt>
      <trkpt lat="46.55196" lon="0.21068">
        <ele>128.60000610352</ele>
        <time>2022-04-17T08:29:36Z</time>
        <extensions>
          <gpxtpx:TrackPointExtension xmlns:gpxtpx="http://www.garmin.com/xmlschemas/TrackPointExtension/v1">
            <gpxtpx:hr>122</gpxtpx:hr>
          </gpxtpx:TrackPointExtension>
        </extensions>
      </trkpt>
      <trkpt lat="46.55196" lon="0.21063">
        <ele>128.19999694824</ele>
        <time>2022-04-17T08:29:37Z</time>
        <extensions>
          <gpxtpx:TrackPointExtension xmlns:gpxtpx="http://www.garmin.com/xmlschemas/TrackPointExtension/v1">
            <gpxtpx:hr>122</gpxtpx:hr>
          </gpxtpx:TrackPointExtension>
        </extensions>
      </trkpt>
      <trkpt lat="46.55195" lon="0.21058">
        <ele>128.19999694824</ele>
        <time>2022-04-17T08:29:38Z</time>
        <extensions>
          <gpxtpx:TrackPointExtension xmlns:gpxtpx="http://www.garmin.com/xmlschemas/TrackPointExtension/v1">
            <gpxtpx:hr>122</gpxtpx:hr>
          </gpxtpx:TrackPointExtension>
        </extensions>
      </trkpt>
      <trkpt lat="46.55194" lon="0.21054">
        <ele>128</ele>
        <time>2022-04-17T08:29:39Z</time>
        <extensions>
          <gpxtpx:TrackPointExtension xmlns:gpxtpx="http://www.garmin.com/xmlschemas/TrackPointExtension/v1">
            <gpxtpx:hr>122</gpxtpx:hr>
          </gpxtpx:TrackPointExtension>
        </extensions>
      </trkpt>
      <trkpt lat="46.55192" lon="0.21049">
        <ele>128</ele>
        <time>2022-04-17T08:29:40Z</time>
        <extensions>
          <gpxtpx:TrackPointExtension xmlns:gpxtpx="http://www.garmin.com/xmlschemas/TrackPointExtension/v1">
            <gpxtpx:hr>122</gpxtpx:hr>
          </gpxtpx:TrackPointExtension>
        </extensions>
      </trkpt>
      <trkpt lat="46.55192" lon="0.21045">
        <ele>127.59999847412</ele>
        <time>2022-04-17T08:29:41Z</time>
        <extensions>
          <gpxtpx:TrackPointExtension xmlns:gpxtpx="http://www.garmin.com/xmlschemas/TrackPointExtension/v1">
            <gpxtpx:hr>122</gpxtpx:hr>
          </gpxtpx:TrackPointExtension>
        </extensions>
      </trkpt>
      <trkpt lat="46.55191" lon="0.21042">
        <ele>127.59999847412</ele>
        <time>2022-04-17T08:29:42Z</time>
        <extensions>
          <gpxtpx:TrackPointExtension xmlns:gpxtpx="http://www.garmin.com/xmlschemas/TrackPointExtension/v1">
            <gpxtpx:hr>122</gpxtpx:hr>
          </gpxtpx:TrackPointExtension>
        </extensions>
      </trkpt>
      <trkpt lat="46.55191" lon="0.2104">
        <ele>127.40000152588</ele>
        <time>2022-04-17T08:29:43Z</time>
        <extensions>
          <gpxtpx:TrackPointExtension xmlns:gpxtpx="http://www.garmin.com/xmlschemas/TrackPointExtension/v1">
            <gpxtpx:hr>121</gpxtpx:hr>
          </gpxtpx:TrackPointExtension>
        </extensions>
      </trkpt>
      <trkpt lat="46.55192" lon="0.21038">
        <ele>127.19999694824</ele>
        <time>2022-04-17T08:29:44Z</time>
        <extensions>
          <gpxtpx:TrackPointExtension xmlns:gpxtpx="http://www.garmin.com/xmlschemas/TrackPointExtension/v1">
            <gpxtpx:hr>121</gpxtpx:hr>
          </gpxtpx:TrackPointExtension>
        </extensions>
      </trkpt>
      <trkpt lat="46.55193" lon="0.21038">
        <ele>127.19999694824</ele>
        <time>2022-04-17T08:29:45Z</time>
        <extensions>
          <gpxtpx:TrackPointExtension xmlns:gpxtpx="http://www.garmin.com/xmlschemas/TrackPointExtension/v1">
            <gpxtpx:hr>122</gpxtpx:hr>
          </gpxtpx:TrackPointExtension>
        </extensions>
      </trkpt>
      <trkpt lat="46.55194" lon="0.21037">
        <ele>127</ele>
        <time>2022-04-17T08:29:46Z</time>
        <extensions>
          <gpxtpx:TrackPointExtension xmlns:gpxtpx="http://www.garmin.com/xmlschemas/TrackPointExtension/v1">
            <gpxtpx:hr>123</gpxtpx:hr>
          </gpxtpx:TrackPointExtension>
        </extensions>
      </trkpt>
      <trkpt lat="46.55195" lon="0.21036">
        <ele>127</ele>
        <time>2022-04-17T08:29:47Z</time>
        <extensions>
          <gpxtpx:TrackPointExtension xmlns:gpxtpx="http://www.garmin.com/xmlschemas/TrackPointExtension/v1">
            <gpxtpx:hr>123</gpxtpx:hr>
          </gpxtpx:TrackPointExtension>
        </extensions>
      </trkpt>
      <trkpt lat="46.55195" lon="0.21034">
        <ele>126.80000305176</ele>
        <time>2022-04-17T08:29:48Z</time>
        <extensions>
          <gpxtpx:TrackPointExtension xmlns:gpxtpx="http://www.garmin.com/xmlschemas/TrackPointExtension/v1">
            <gpxtpx:hr>122</gpxtpx:hr>
          </gpxtpx:TrackPointExtension>
        </extensions>
      </trkpt>
      <trkpt lat="46.55195" lon="0.21033">
        <ele>126.80000305176</ele>
        <time>2022-04-17T08:29:49Z</time>
        <extensions>
          <gpxtpx:TrackPointExtension xmlns:gpxtpx="http://www.garmin.com/xmlschemas/TrackPointExtension/v1">
            <gpxtpx:hr>122</gpxtpx:hr>
          </gpxtpx:TrackPointExtension>
        </extensions>
      </trkpt>
      <trkpt lat="46.55194" lon="0.21032">
        <ele>126.80000305176</ele>
        <time>2022-04-17T08:29:50Z</time>
        <extensions>
          <gpxtpx:TrackPointExtension xmlns:gpxtpx="http://www.garmin.com/xmlschemas/TrackPointExtension/v1">
            <gpxtpx:hr>122</gpxtpx:hr>
          </gpxtpx:TrackPointExtension>
        </extensions>
      </trkpt>
      <trkpt lat="46.55194" lon="0.21032">
        <ele>126.59999847412</ele>
        <time>2022-04-17T08:29:51Z</time>
        <extensions>
          <gpxtpx:TrackPointExtension xmlns:gpxtpx="http://www.garmin.com/xmlschemas/TrackPointExtension/v1">
            <gpxtpx:hr>122</gpxtpx:hr>
          </gpxtpx:TrackPointExtension>
        </extensions>
      </trkpt>
      <trkpt lat="46.55195" lon="0.21031">
        <ele>126.59999847412</ele>
        <time>2022-04-17T08:29:53Z</time>
        <extensions>
          <gpxtpx:TrackPointExtension xmlns:gpxtpx="http://www.garmin.com/xmlschemas/TrackPointExtension/v1">
            <gpxtpx:hr>122</gpxtpx:hr>
          </gpxtpx:TrackPointExtension>
        </extensions>
      </trkpt>
      <trkpt lat="46.55196" lon="0.21029">
        <ele>126.40000152588</ele>
        <time>2022-04-17T08:29:55Z</time>
        <extensions>
          <gpxtpx:TrackPointExtension xmlns:gpxtpx="http://www.garmin.com/xmlschemas/TrackPointExtension/v1">
            <gpxtpx:hr>122</gpxtpx:hr>
          </gpxtpx:TrackPointExtension>
        </extensions>
      </trkpt>
      <trkpt lat="46.55197" lon="0.21028">
        <ele>126.40000152588</ele>
        <time>2022-04-17T08:29:56Z</time>
        <extensions>
          <gpxtpx:TrackPointExtension xmlns:gpxtpx="http://www.garmin.com/xmlschemas/TrackPointExtension/v1">
            <gpxtpx:hr>121</gpxtpx:hr>
          </gpxtpx:TrackPointExtension>
        </extensions>
      </trkpt>
      <trkpt lat="46.55207" lon="0.21021">
        <ele>126.19999694824</ele>
        <time>2022-04-17T08:30:02Z</time>
        <extensions>
          <gpxtpx:TrackPointExtension xmlns:gpxtpx="http://www.garmin.com/xmlschemas/TrackPointExtension/v1">
            <gpxtpx:hr>120</gpxtpx:hr>
          </gpxtpx:TrackPointExtension>
        </extensions>
      </trkpt>
      <trkpt lat="46.55213" lon="0.2102">
        <ele>126.40000152588</ele>
        <time>2022-04-17T08:30:04Z</time>
        <extensions>
          <gpxtpx:TrackPointExtension xmlns:gpxtpx="http://www.garmin.com/xmlschemas/TrackPointExtension/v1">
            <gpxtpx:hr>119</gpxtpx:hr>
          </gpxtpx:TrackPointExtension>
        </extensions>
      </trkpt>
      <trkpt lat="46.55217" lon="0.2102">
        <ele>126.40000152588</ele>
        <time>2022-04-17T08:30:05Z</time>
        <extensions>
          <gpxtpx:TrackPointExtension xmlns:gpxtpx="http://www.garmin.com/xmlschemas/TrackPointExtension/v1">
            <gpxtpx:hr>118</gpxtpx:hr>
          </gpxtpx:TrackPointExtension>
        </extensions>
      </trkpt>
      <trkpt lat="46.55219" lon="0.2102">
        <ele>126.59999847412</ele>
        <time>2022-04-17T08:30:06Z</time>
        <extensions>
          <gpxtpx:TrackPointExtension xmlns:gpxtpx="http://www.garmin.com/xmlschemas/TrackPointExtension/v1">
            <gpxtpx:hr>119</gpxtpx:hr>
          </gpxtpx:TrackPointExtension>
        </extensions>
      </trkpt>
      <trkpt lat="46.55221" lon="0.2102">
        <ele>126.59999847412</ele>
        <time>2022-04-17T08:30:07Z</time>
        <extensions>
          <gpxtpx:TrackPointExtension xmlns:gpxtpx="http://www.garmin.com/xmlschemas/TrackPointExtension/v1">
            <gpxtpx:hr>118</gpxtpx:hr>
          </gpxtpx:TrackPointExtension>
        </extensions>
      </trkpt>
      <trkpt lat="46.55223" lon="0.2102">
        <ele>126.80000305176</ele>
        <time>2022-04-17T08:30:08Z</time>
        <extensions>
          <gpxtpx:TrackPointExtension xmlns:gpxtpx="http://www.garmin.com/xmlschemas/TrackPointExtension/v1">
            <gpxtpx:hr>118</gpxtpx:hr>
          </gpxtpx:TrackPointExtension>
        </extensions>
      </trkpt>
      <trkpt lat="46.55233" lon="0.21017">
        <ele>127.19999694824</ele>
        <time>2022-04-17T08:30:12Z</time>
        <extensions>
          <gpxtpx:TrackPointExtension xmlns:gpxtpx="http://www.garmin.com/xmlschemas/TrackPointExtension/v1">
            <gpxtpx:hr>119</gpxtpx:hr>
          </gpxtpx:TrackPointExtension>
        </extensions>
      </trkpt>
      <trkpt lat="46.55235" lon="0.21017">
        <ele>127.19999694824</ele>
        <time>2022-04-17T08:30:13Z</time>
        <extensions>
          <gpxtpx:TrackPointExtension xmlns:gpxtpx="http://www.garmin.com/xmlschemas/TrackPointExtension/v1">
            <gpxtpx:hr>119</gpxtpx:hr>
          </gpxtpx:TrackPointExtension>
        </extensions>
      </trkpt>
      <trkpt lat="46.55242" lon="0.21015">
        <ele>127.40000152588</ele>
        <time>2022-04-17T08:30:15Z</time>
        <extensions>
          <gpxtpx:TrackPointExtension xmlns:gpxtpx="http://www.garmin.com/xmlschemas/TrackPointExtension/v1">
            <gpxtpx:hr>119</gpxtpx:hr>
          </gpxtpx:TrackPointExtension>
        </extensions>
      </trkpt>
      <trkpt lat="46.55258" lon="0.21004">
        <ele>127.80000305176</ele>
        <time>2022-04-17T08:30:20Z</time>
        <extensions>
          <gpxtpx:TrackPointExtension xmlns:gpxtpx="http://www.garmin.com/xmlschemas/TrackPointExtension/v1">
            <gpxtpx:hr>121</gpxtpx:hr>
          </gpxtpx:TrackPointExtension>
        </extensions>
      </trkpt>
      <trkpt lat="46.55259" lon="0.21001">
        <ele>127.80000305176</ele>
        <time>2022-04-17T08:30:21Z</time>
        <extensions>
          <gpxtpx:TrackPointExtension xmlns:gpxtpx="http://www.garmin.com/xmlschemas/TrackPointExtension/v1">
            <gpxtpx:hr>122</gpxtpx:hr>
          </gpxtpx:TrackPointExtension>
        </extensions>
      </trkpt>
      <trkpt lat="46.55261" lon="0.20999">
        <ele>128</ele>
        <time>2022-04-17T08:30:22Z</time>
        <extensions>
          <gpxtpx:TrackPointExtension xmlns:gpxtpx="http://www.garmin.com/xmlschemas/TrackPointExtension/v1">
            <gpxtpx:hr>123</gpxtpx:hr>
          </gpxtpx:TrackPointExtension>
        </extensions>
      </trkpt>
      <trkpt lat="46.55263" lon="0.20996">
        <ele>128.19999694824</ele>
        <time>2022-04-17T08:30:23Z</time>
        <extensions>
          <gpxtpx:TrackPointExtension xmlns:gpxtpx="http://www.garmin.com/xmlschemas/TrackPointExtension/v1">
            <gpxtpx:hr>123</gpxtpx:hr>
          </gpxtpx:TrackPointExtension>
        </extensions>
      </trkpt>
      <trkpt lat="46.55263" lon="0.20994">
        <ele>128.39999389648</ele>
        <time>2022-04-17T08:30:24Z</time>
        <extensions>
          <gpxtpx:TrackPointExtension xmlns:gpxtpx="http://www.garmin.com/xmlschemas/TrackPointExtension/v1">
            <gpxtpx:hr>124</gpxtpx:hr>
          </gpxtpx:TrackPointExtension>
        </extensions>
      </trkpt>
      <trkpt lat="46.55264" lon="0.20994">
        <ele>128.39999389648</ele>
        <time>2022-04-17T08:30:25Z</time>
        <extensions>
          <gpxtpx:TrackPointExtension xmlns:gpxtpx="http://www.garmin.com/xmlschemas/TrackPointExtension/v1">
            <gpxtpx:hr>125</gpxtpx:hr>
          </gpxtpx:TrackPointExtension>
        </extensions>
      </trkpt>
      <trkpt lat="46.55265" lon="0.20994">
        <ele>128.60000610352</ele>
        <time>2022-04-17T08:30:26Z</time>
        <extensions>
          <gpxtpx:TrackPointExtension xmlns:gpxtpx="http://www.garmin.com/xmlschemas/TrackPointExtension/v1">
            <gpxtpx:hr>126</gpxtpx:hr>
          </gpxtpx:TrackPointExtension>
        </extensions>
      </trkpt>
      <trkpt lat="46.55266" lon="0.20994">
        <ele>128.60000610352</ele>
        <time>2022-04-17T08:30:27Z</time>
        <extensions>
          <gpxtpx:TrackPointExtension xmlns:gpxtpx="http://www.garmin.com/xmlschemas/TrackPointExtension/v1">
            <gpxtpx:hr>126</gpxtpx:hr>
          </gpxtpx:TrackPointExtension>
        </extensions>
      </trkpt>
      <trkpt lat="46.55266" lon="0.20995">
        <ele>128.60000610352</ele>
        <time>2022-04-17T08:30:28Z</time>
        <extensions>
          <gpxtpx:TrackPointExtension xmlns:gpxtpx="http://www.garmin.com/xmlschemas/TrackPointExtension/v1">
            <gpxtpx:hr>127</gpxtpx:hr>
          </gpxtpx:TrackPointExtension>
        </extensions>
      </trkpt>
      <trkpt lat="46.55266" lon="0.20996">
        <ele>128.60000610352</ele>
        <time>2022-04-17T08:30:29Z</time>
        <extensions>
          <gpxtpx:TrackPointExtension xmlns:gpxtpx="http://www.garmin.com/xmlschemas/TrackPointExtension/v1">
            <gpxtpx:hr>127</gpxtpx:hr>
          </gpxtpx:TrackPointExtension>
        </extensions>
      </trkpt>
      <trkpt lat="46.55267" lon="0.20996">
        <ele>128.60000610352</ele>
        <time>2022-04-17T08:30:30Z</time>
        <extensions>
          <gpxtpx:TrackPointExtension xmlns:gpxtpx="http://www.garmin.com/xmlschemas/TrackPointExtension/v1">
            <gpxtpx:hr>127</gpxtpx:hr>
          </gpxtpx:TrackPointExtension>
        </extensions>
      </trkpt>
      <trkpt lat="46.55268" lon="0.20996">
        <ele>128.80000305176</ele>
        <time>2022-04-17T08:30:31Z</time>
        <extensions>
          <gpxtpx:TrackPointExtension xmlns:gpxtpx="http://www.garmin.com/xmlschemas/TrackPointExtension/v1">
            <gpxtpx:hr>128</gpxtpx:hr>
          </gpxtpx:TrackPointExtension>
        </extensions>
      </trkpt>
      <trkpt lat="46.55269" lon="0.20996">
        <ele>128.80000305176</ele>
        <time>2022-04-17T08:30:32Z</time>
        <extensions>
          <gpxtpx:TrackPointExtension xmlns:gpxtpx="http://www.garmin.com/xmlschemas/TrackPointExtension/v1">
            <gpxtpx:hr>128</gpxtpx:hr>
          </gpxtpx:TrackPointExtension>
        </extensions>
      </trkpt>
      <trkpt lat="46.55272" lon="0.20996">
        <ele>128.60000610352</ele>
        <time>2022-04-17T08:30:34Z</time>
        <extensions>
          <gpxtpx:TrackPointExtension xmlns:gpxtpx="http://www.garmin.com/xmlschemas/TrackPointExtension/v1">
            <gpxtpx:hr>128</gpxtpx:hr>
          </gpxtpx:TrackPointExtension>
        </extensions>
      </trkpt>
      <trkpt lat="46.55274" lon="0.20995">
        <ele>128.39999389648</ele>
        <time>2022-04-17T08:30:35Z</time>
        <extensions>
          <gpxtpx:TrackPointExtension xmlns:gpxtpx="http://www.garmin.com/xmlschemas/TrackPointExtension/v1">
            <gpxtpx:hr>127</gpxtpx:hr>
          </gpxtpx:TrackPointExtension>
        </extensions>
      </trkpt>
      <trkpt lat="46.55276" lon="0.20993">
        <ele>128.39999389648</ele>
        <time>2022-04-17T08:30:36Z</time>
        <extensions>
          <gpxtpx:TrackPointExtension xmlns:gpxtpx="http://www.garmin.com/xmlschemas/TrackPointExtension/v1">
            <gpxtpx:hr>127</gpxtpx:hr>
          </gpxtpx:TrackPointExtension>
        </extensions>
      </trkpt>
      <trkpt lat="46.55277" lon="0.20989">
        <ele>128.39999389648</ele>
        <time>2022-04-17T08:30:38Z</time>
        <extensions>
          <gpxtpx:TrackPointExtension xmlns:gpxtpx="http://www.garmin.com/xmlschemas/TrackPointExtension/v1">
            <gpxtpx:hr>125</gpxtpx:hr>
          </gpxtpx:TrackPointExtension>
        </extensions>
      </trkpt>
      <trkpt lat="46.55278" lon="0.20987">
        <ele>128.39999389648</ele>
        <time>2022-04-17T08:30:39Z</time>
        <extensions>
          <gpxtpx:TrackPointExtension xmlns:gpxtpx="http://www.garmin.com/xmlschemas/TrackPointExtension/v1">
            <gpxtpx:hr>125</gpxtpx:hr>
          </gpxtpx:TrackPointExtension>
        </extensions>
      </trkpt>
      <trkpt lat="46.55279" lon="0.20985">
        <ele>128.80000305176</ele>
        <time>2022-04-17T08:30:40Z</time>
        <extensions>
          <gpxtpx:TrackPointExtension xmlns:gpxtpx="http://www.garmin.com/xmlschemas/TrackPointExtension/v1">
            <gpxtpx:hr>124</gpxtpx:hr>
          </gpxtpx:TrackPointExtension>
        </extensions>
      </trkpt>
      <trkpt lat="46.5528" lon="0.20984">
        <ele>128.80000305176</ele>
        <time>2022-04-17T08:30:41Z</time>
        <extensions>
          <gpxtpx:TrackPointExtension xmlns:gpxtpx="http://www.garmin.com/xmlschemas/TrackPointExtension/v1">
            <gpxtpx:hr>125</gpxtpx:hr>
          </gpxtpx:TrackPointExtension>
        </extensions>
      </trkpt>
      <trkpt lat="46.55283" lon="0.2098">
        <ele>129</ele>
        <time>2022-04-17T08:30:43Z</time>
        <extensions>
          <gpxtpx:TrackPointExtension xmlns:gpxtpx="http://www.garmin.com/xmlschemas/TrackPointExtension/v1">
            <gpxtpx:hr>124</gpxtpx:hr>
          </gpxtpx:TrackPointExtension>
        </extensions>
      </trkpt>
      <trkpt lat="46.55284" lon="0.20977">
        <ele>129.19999694824</ele>
        <time>2022-04-17T08:30:44Z</time>
        <extensions>
          <gpxtpx:TrackPointExtension xmlns:gpxtpx="http://www.garmin.com/xmlschemas/TrackPointExtension/v1">
            <gpxtpx:hr>124</gpxtpx:hr>
          </gpxtpx:TrackPointExtension>
        </extensions>
      </trkpt>
      <trkpt lat="46.55284" lon="0.20976">
        <ele>129.19999694824</ele>
        <time>2022-04-17T08:30:45Z</time>
        <extensions>
          <gpxtpx:TrackPointExtension xmlns:gpxtpx="http://www.garmin.com/xmlschemas/TrackPointExtension/v1">
            <gpxtpx:hr>124</gpxtpx:hr>
          </gpxtpx:TrackPointExtension>
        </extensions>
      </trkpt>
      <trkpt lat="46.55285" lon="0.20973">
        <ele>129.60000610352</ele>
        <time>2022-04-17T08:30:46Z</time>
        <extensions>
          <gpxtpx:TrackPointExtension xmlns:gpxtpx="http://www.garmin.com/xmlschemas/TrackPointExtension/v1">
            <gpxtpx:hr>123</gpxtpx:hr>
          </gpxtpx:TrackPointExtension>
        </extensions>
      </trkpt>
      <trkpt lat="46.55284" lon="0.20971">
        <ele>129.60000610352</ele>
        <time>2022-04-17T08:30:47Z</time>
        <extensions>
          <gpxtpx:TrackPointExtension xmlns:gpxtpx="http://www.garmin.com/xmlschemas/TrackPointExtension/v1">
            <gpxtpx:hr>123</gpxtpx:hr>
          </gpxtpx:TrackPointExtension>
        </extensions>
      </trkpt>
      <trkpt lat="46.55284" lon="0.2097">
        <ele>130</ele>
        <time>2022-04-17T08:30:48Z</time>
        <extensions>
          <gpxtpx:TrackPointExtension xmlns:gpxtpx="http://www.garmin.com/xmlschemas/TrackPointExtension/v1">
            <gpxtpx:hr>123</gpxtpx:hr>
          </gpxtpx:TrackPointExtension>
        </extensions>
      </trkpt>
      <trkpt lat="46.55283" lon="0.20968">
        <ele>130.19999694824</ele>
        <time>2022-04-17T08:30:49Z</time>
        <extensions>
          <gpxtpx:TrackPointExtension xmlns:gpxtpx="http://www.garmin.com/xmlschemas/TrackPointExtension/v1">
            <gpxtpx:hr>123</gpxtpx:hr>
          </gpxtpx:TrackPointExtension>
        </extensions>
      </trkpt>
      <trkpt lat="46.55284" lon="0.20961">
        <ele>130.80000305176</ele>
        <time>2022-04-17T08:30:51Z</time>
        <extensions>
          <gpxtpx:TrackPointExtension xmlns:gpxtpx="http://www.garmin.com/xmlschemas/TrackPointExtension/v1">
            <gpxtpx:hr>123</gpxtpx:hr>
          </gpxtpx:TrackPointExtension>
        </extensions>
      </trkpt>
      <trkpt lat="46.55284" lon="0.20957">
        <ele>131</ele>
        <time>2022-04-17T08:30:52Z</time>
        <extensions>
          <gpxtpx:TrackPointExtension xmlns:gpxtpx="http://www.garmin.com/xmlschemas/TrackPointExtension/v1">
            <gpxtpx:hr>123</gpxtpx:hr>
          </gpxtpx:TrackPointExtension>
        </extensions>
      </trkpt>
      <trkpt lat="46.55286" lon="0.20955">
        <ele>131.39999389648</ele>
        <time>2022-04-17T08:30:53Z</time>
        <extensions>
          <gpxtpx:TrackPointExtension xmlns:gpxtpx="http://www.garmin.com/xmlschemas/TrackPointExtension/v1">
            <gpxtpx:hr>123</gpxtpx:hr>
          </gpxtpx:TrackPointExtension>
        </extensions>
      </trkpt>
      <trkpt lat="46.55287" lon="0.20952">
        <ele>131.80000305176</ele>
        <time>2022-04-17T08:30:54Z</time>
        <extensions>
          <gpxtpx:TrackPointExtension xmlns:gpxtpx="http://www.garmin.com/xmlschemas/TrackPointExtension/v1">
            <gpxtpx:hr>123</gpxtpx:hr>
          </gpxtpx:TrackPointExtension>
        </extensions>
      </trkpt>
      <trkpt lat="46.55289" lon="0.20949">
        <ele>132</ele>
        <time>2022-04-17T08:30:55Z</time>
        <extensions>
          <gpxtpx:TrackPointExtension xmlns:gpxtpx="http://www.garmin.com/xmlschemas/TrackPointExtension/v1">
            <gpxtpx:hr>123</gpxtpx:hr>
          </gpxtpx:TrackPointExtension>
        </extensions>
      </trkpt>
      <trkpt lat="46.55289" lon="0.20946">
        <ele>132.60000610352</ele>
        <time>2022-04-17T08:30:56Z</time>
        <extensions>
          <gpxtpx:TrackPointExtension xmlns:gpxtpx="http://www.garmin.com/xmlschemas/TrackPointExtension/v1">
            <gpxtpx:hr>124</gpxtpx:hr>
          </gpxtpx:TrackPointExtension>
        </extensions>
      </trkpt>
      <trkpt lat="46.5529" lon="0.20943">
        <ele>132.80000305176</ele>
        <time>2022-04-17T08:30:57Z</time>
        <extensions>
          <gpxtpx:TrackPointExtension xmlns:gpxtpx="http://www.garmin.com/xmlschemas/TrackPointExtension/v1">
            <gpxtpx:hr>124</gpxtpx:hr>
          </gpxtpx:TrackPointExtension>
        </extensions>
      </trkpt>
      <trkpt lat="46.5529" lon="0.20941">
        <ele>133</ele>
        <time>2022-04-17T08:30:58Z</time>
        <extensions>
          <gpxtpx:TrackPointExtension xmlns:gpxtpx="http://www.garmin.com/xmlschemas/TrackPointExtension/v1">
            <gpxtpx:hr>122</gpxtpx:hr>
          </gpxtpx:TrackPointExtension>
        </extensions>
      </trkpt>
      <trkpt lat="46.55291" lon="0.20939">
        <ele>133.19999694824</ele>
        <time>2022-04-17T08:30:59Z</time>
        <extensions>
          <gpxtpx:TrackPointExtension xmlns:gpxtpx="http://www.garmin.com/xmlschemas/TrackPointExtension/v1">
            <gpxtpx:hr>120</gpxtpx:hr>
          </gpxtpx:TrackPointExtension>
        </extensions>
      </trkpt>
      <trkpt lat="46.5529" lon="0.20936">
        <ele>133.39999389648</ele>
        <time>2022-04-17T08:31:00Z</time>
        <extensions>
          <gpxtpx:TrackPointExtension xmlns:gpxtpx="http://www.garmin.com/xmlschemas/TrackPointExtension/v1">
            <gpxtpx:hr>121</gpxtpx:hr>
          </gpxtpx:TrackPointExtension>
        </extensions>
      </trkpt>
      <trkpt lat="46.5529" lon="0.20933">
        <ele>133.60000610352</ele>
        <time>2022-04-17T08:31:01Z</time>
        <extensions>
          <gpxtpx:TrackPointExtension xmlns:gpxtpx="http://www.garmin.com/xmlschemas/TrackPointExtension/v1">
            <gpxtpx:hr>120</gpxtpx:hr>
          </gpxtpx:TrackPointExtension>
        </extensions>
      </trkpt>
      <trkpt lat="46.5529" lon="0.2093">
        <ele>133.60000610352</ele>
        <time>2022-04-17T08:31:02Z</time>
        <extensions>
          <gpxtpx:TrackPointExtension xmlns:gpxtpx="http://www.garmin.com/xmlschemas/TrackPointExtension/v1">
            <gpxtpx:hr>120</gpxtpx:hr>
          </gpxtpx:TrackPointExtension>
        </extensions>
      </trkpt>
      <trkpt lat="46.5529" lon="0.20926">
        <ele>133.80000305176</ele>
        <time>2022-04-17T08:31:03Z</time>
        <extensions>
          <gpxtpx:TrackPointExtension xmlns:gpxtpx="http://www.garmin.com/xmlschemas/TrackPointExtension/v1">
            <gpxtpx:hr>120</gpxtpx:hr>
          </gpxtpx:TrackPointExtension>
        </extensions>
      </trkpt>
      <trkpt lat="46.5529" lon="0.20923">
        <ele>134</ele>
        <time>2022-04-17T08:31:04Z</time>
        <extensions>
          <gpxtpx:TrackPointExtension xmlns:gpxtpx="http://www.garmin.com/xmlschemas/TrackPointExtension/v1">
            <gpxtpx:hr>121</gpxtpx:hr>
          </gpxtpx:TrackPointExtension>
        </extensions>
      </trkpt>
      <trkpt lat="46.55291" lon="0.20921">
        <ele>134</ele>
        <time>2022-04-17T08:31:05Z</time>
        <extensions>
          <gpxtpx:TrackPointExtension xmlns:gpxtpx="http://www.garmin.com/xmlschemas/TrackPointExtension/v1">
            <gpxtpx:hr>123</gpxtpx:hr>
          </gpxtpx:TrackPointExtension>
        </extensions>
      </trkpt>
      <trkpt lat="46.55293" lon="0.20918">
        <ele>134.19999694824</ele>
        <time>2022-04-17T08:31:06Z</time>
        <extensions>
          <gpxtpx:TrackPointExtension xmlns:gpxtpx="http://www.garmin.com/xmlschemas/TrackPointExtension/v1">
            <gpxtpx:hr>123</gpxtpx:hr>
          </gpxtpx:TrackPointExtension>
        </extensions>
      </trkpt>
      <trkpt lat="46.55294" lon="0.20916">
        <ele>134.39999389648</ele>
        <time>2022-04-17T08:31:07Z</time>
        <extensions>
          <gpxtpx:TrackPointExtension xmlns:gpxtpx="http://www.garmin.com/xmlschemas/TrackPointExtension/v1">
            <gpxtpx:hr>125</gpxtpx:hr>
          </gpxtpx:TrackPointExtension>
        </extensions>
      </trkpt>
      <trkpt lat="46.55296" lon="0.20915">
        <ele>134.60000610352</ele>
        <time>2022-04-17T08:31:08Z</time>
        <extensions>
          <gpxtpx:TrackPointExtension xmlns:gpxtpx="http://www.garmin.com/xmlschemas/TrackPointExtension/v1">
            <gpxtpx:hr>128</gpxtpx:hr>
          </gpxtpx:TrackPointExtension>
        </extensions>
      </trkpt>
      <trkpt lat="46.55297" lon="0.20914">
        <ele>134.60000610352</ele>
        <time>2022-04-17T08:31:09Z</time>
        <extensions>
          <gpxtpx:TrackPointExtension xmlns:gpxtpx="http://www.garmin.com/xmlschemas/TrackPointExtension/v1">
            <gpxtpx:hr>128</gpxtpx:hr>
          </gpxtpx:TrackPointExtension>
        </extensions>
      </trkpt>
      <trkpt lat="46.55297" lon="0.20911">
        <ele>134.80000305176</ele>
        <time>2022-04-17T08:31:10Z</time>
        <extensions>
          <gpxtpx:TrackPointExtension xmlns:gpxtpx="http://www.garmin.com/xmlschemas/TrackPointExtension/v1">
            <gpxtpx:hr>128</gpxtpx:hr>
          </gpxtpx:TrackPointExtension>
        </extensions>
      </trkpt>
      <trkpt lat="46.55295" lon="0.20909">
        <ele>135</ele>
        <time>2022-04-17T08:31:11Z</time>
        <extensions>
          <gpxtpx:TrackPointExtension xmlns:gpxtpx="http://www.garmin.com/xmlschemas/TrackPointExtension/v1">
            <gpxtpx:hr>131</gpxtpx:hr>
          </gpxtpx:TrackPointExtension>
        </extensions>
      </trkpt>
      <trkpt lat="46.55295" lon="0.20907">
        <ele>135.19999694824</ele>
        <time>2022-04-17T08:31:12Z</time>
        <extensions>
          <gpxtpx:TrackPointExtension xmlns:gpxtpx="http://www.garmin.com/xmlschemas/TrackPointExtension/v1">
            <gpxtpx:hr>132</gpxtpx:hr>
          </gpxtpx:TrackPointExtension>
        </extensions>
      </trkpt>
      <trkpt lat="46.55295" lon="0.20905">
        <ele>135.19999694824</ele>
        <time>2022-04-17T08:31:13Z</time>
        <extensions>
          <gpxtpx:TrackPointExtension xmlns:gpxtpx="http://www.garmin.com/xmlschemas/TrackPointExtension/v1">
            <gpxtpx:hr>133</gpxtpx:hr>
          </gpxtpx:TrackPointExtension>
        </extensions>
      </trkpt>
      <trkpt lat="46.55294" lon="0.20903">
        <ele>135.39999389648</ele>
        <time>2022-04-17T08:31:14Z</time>
        <extensions>
          <gpxtpx:TrackPointExtension xmlns:gpxtpx="http://www.garmin.com/xmlschemas/TrackPointExtension/v1">
            <gpxtpx:hr>135</gpxtpx:hr>
          </gpxtpx:TrackPointExtension>
        </extensions>
      </trkpt>
      <trkpt lat="46.55294" lon="0.20901">
        <ele>135.39999389648</ele>
        <time>2022-04-17T08:31:15Z</time>
        <extensions>
          <gpxtpx:TrackPointExtension xmlns:gpxtpx="http://www.garmin.com/xmlschemas/TrackPointExtension/v1">
            <gpxtpx:hr>137</gpxtpx:hr>
          </gpxtpx:TrackPointExtension>
        </extensions>
      </trkpt>
      <trkpt lat="46.55293" lon="0.20898">
        <ele>135.39999389648</ele>
        <time>2022-04-17T08:31:16Z</time>
        <extensions>
          <gpxtpx:TrackPointExtension xmlns:gpxtpx="http://www.garmin.com/xmlschemas/TrackPointExtension/v1">
            <gpxtpx:hr>139</gpxtpx:hr>
          </gpxtpx:TrackPointExtension>
        </extensions>
      </trkpt>
      <trkpt lat="46.55294" lon="0.20896">
        <ele>135.60000610352</ele>
        <time>2022-04-17T08:31:17Z</time>
        <extensions>
          <gpxtpx:TrackPointExtension xmlns:gpxtpx="http://www.garmin.com/xmlschemas/TrackPointExtension/v1">
            <gpxtpx:hr>140</gpxtpx:hr>
          </gpxtpx:TrackPointExtension>
        </extensions>
      </trkpt>
      <trkpt lat="46.55294" lon="0.20894">
        <ele>135.60000610352</ele>
        <time>2022-04-17T08:31:18Z</time>
        <extensions>
          <gpxtpx:TrackPointExtension xmlns:gpxtpx="http://www.garmin.com/xmlschemas/TrackPointExtension/v1">
            <gpxtpx:hr>140</gpxtpx:hr>
          </gpxtpx:TrackPointExtension>
        </extensions>
      </trkpt>
      <trkpt lat="46.55293" lon="0.20892">
        <ele>135.80000305176</ele>
        <time>2022-04-17T08:31:19Z</time>
        <extensions>
          <gpxtpx:TrackPointExtension xmlns:gpxtpx="http://www.garmin.com/xmlschemas/TrackPointExtension/v1">
            <gpxtpx:hr>141</gpxtpx:hr>
          </gpxtpx:TrackPointExtension>
        </extensions>
      </trkpt>
      <trkpt lat="46.55292" lon="0.20889">
        <ele>136</ele>
        <time>2022-04-17T08:31:20Z</time>
        <extensions>
          <gpxtpx:TrackPointExtension xmlns:gpxtpx="http://www.garmin.com/xmlschemas/TrackPointExtension/v1">
            <gpxtpx:hr>142</gpxtpx:hr>
          </gpxtpx:TrackPointExtension>
        </extensions>
      </trkpt>
      <trkpt lat="46.55293" lon="0.20885">
        <ele>136.19999694824</ele>
        <time>2022-04-17T08:31:21Z</time>
        <extensions>
          <gpxtpx:TrackPointExtension xmlns:gpxtpx="http://www.garmin.com/xmlschemas/TrackPointExtension/v1">
            <gpxtpx:hr>142</gpxtpx:hr>
          </gpxtpx:TrackPointExtension>
        </extensions>
      </trkpt>
      <trkpt lat="46.55293" lon="0.20882">
        <ele>136.39999389648</ele>
        <time>2022-04-17T08:31:22Z</time>
        <extensions>
          <gpxtpx:TrackPointExtension xmlns:gpxtpx="http://www.garmin.com/xmlschemas/TrackPointExtension/v1">
            <gpxtpx:hr>142</gpxtpx:hr>
          </gpxtpx:TrackPointExtension>
        </extensions>
      </trkpt>
      <trkpt lat="46.55294" lon="0.20879">
        <ele>136.39999389648</ele>
        <time>2022-04-17T08:31:23Z</time>
        <extensions>
          <gpxtpx:TrackPointExtension xmlns:gpxtpx="http://www.garmin.com/xmlschemas/TrackPointExtension/v1">
            <gpxtpx:hr>142</gpxtpx:hr>
          </gpxtpx:TrackPointExtension>
        </extensions>
      </trkpt>
      <trkpt lat="46.55295" lon="0.20877">
        <ele>136.60000610352</ele>
        <time>2022-04-17T08:31:24Z</time>
        <extensions>
          <gpxtpx:TrackPointExtension xmlns:gpxtpx="http://www.garmin.com/xmlschemas/TrackPointExtension/v1">
            <gpxtpx:hr>142</gpxtpx:hr>
          </gpxtpx:TrackPointExtension>
        </extensions>
      </trkpt>
      <trkpt lat="46.55296" lon="0.20875">
        <ele>136.60000610352</ele>
        <time>2022-04-17T08:31:25Z</time>
        <extensions>
          <gpxtpx:TrackPointExtension xmlns:gpxtpx="http://www.garmin.com/xmlschemas/TrackPointExtension/v1">
            <gpxtpx:hr>143</gpxtpx:hr>
          </gpxtpx:TrackPointExtension>
        </extensions>
      </trkpt>
      <trkpt lat="46.55298" lon="0.20872">
        <ele>136.60000610352</ele>
        <time>2022-04-17T08:31:26Z</time>
        <extensions>
          <gpxtpx:TrackPointExtension xmlns:gpxtpx="http://www.garmin.com/xmlschemas/TrackPointExtension/v1">
            <gpxtpx:hr>143</gpxtpx:hr>
          </gpxtpx:TrackPointExtension>
        </extensions>
      </trkpt>
      <trkpt lat="46.55298" lon="0.20869">
        <ele>136.60000610352</ele>
        <time>2022-04-17T08:31:27Z</time>
        <extensions>
          <gpxtpx:TrackPointExtension xmlns:gpxtpx="http://www.garmin.com/xmlschemas/TrackPointExtension/v1">
            <gpxtpx:hr>143</gpxtpx:hr>
          </gpxtpx:TrackPointExtension>
        </extensions>
      </trkpt>
      <trkpt lat="46.55298" lon="0.20865">
        <ele>136.60000610352</ele>
        <time>2022-04-17T08:31:28Z</time>
        <extensions>
          <gpxtpx:TrackPointExtension xmlns:gpxtpx="http://www.garmin.com/xmlschemas/TrackPointExtension/v1">
            <gpxtpx:hr>143</gpxtpx:hr>
          </gpxtpx:TrackPointExtension>
        </extensions>
      </trkpt>
      <trkpt lat="46.553" lon="0.2086">
        <ele>136.60000610352</ele>
        <time>2022-04-17T08:31:29Z</time>
        <extensions>
          <gpxtpx:TrackPointExtension xmlns:gpxtpx="http://www.garmin.com/xmlschemas/TrackPointExtension/v1">
            <gpxtpx:hr>143</gpxtpx:hr>
          </gpxtpx:TrackPointExtension>
        </extensions>
      </trkpt>
      <trkpt lat="46.553" lon="0.20855">
        <ele>136.60000610352</ele>
        <time>2022-04-17T08:31:30Z</time>
        <extensions>
          <gpxtpx:TrackPointExtension xmlns:gpxtpx="http://www.garmin.com/xmlschemas/TrackPointExtension/v1">
            <gpxtpx:hr>144</gpxtpx:hr>
          </gpxtpx:TrackPointExtension>
        </extensions>
      </trkpt>
      <trkpt lat="46.55301" lon="0.2085">
        <ele>136.39999389648</ele>
        <time>2022-04-17T08:31:31Z</time>
        <extensions>
          <gpxtpx:TrackPointExtension xmlns:gpxtpx="http://www.garmin.com/xmlschemas/TrackPointExtension/v1">
            <gpxtpx:hr>144</gpxtpx:hr>
          </gpxtpx:TrackPointExtension>
        </extensions>
      </trkpt>
      <trkpt lat="46.55302" lon="0.20845">
        <ele>136.19999694824</ele>
        <time>2022-04-17T08:31:32Z</time>
        <extensions>
          <gpxtpx:TrackPointExtension xmlns:gpxtpx="http://www.garmin.com/xmlschemas/TrackPointExtension/v1">
            <gpxtpx:hr>143</gpxtpx:hr>
          </gpxtpx:TrackPointExtension>
        </extensions>
      </trkpt>
      <trkpt lat="46.55303" lon="0.20841">
        <ele>136</ele>
        <time>2022-04-17T08:31:33Z</time>
        <extensions>
          <gpxtpx:TrackPointExtension xmlns:gpxtpx="http://www.garmin.com/xmlschemas/TrackPointExtension/v1">
            <gpxtpx:hr>143</gpxtpx:hr>
          </gpxtpx:TrackPointExtension>
        </extensions>
      </trkpt>
      <trkpt lat="46.55302" lon="0.20835">
        <ele>135.80000305176</ele>
        <time>2022-04-17T08:31:34Z</time>
        <extensions>
          <gpxtpx:TrackPointExtension xmlns:gpxtpx="http://www.garmin.com/xmlschemas/TrackPointExtension/v1">
            <gpxtpx:hr>143</gpxtpx:hr>
          </gpxtpx:TrackPointExtension>
        </extensions>
      </trkpt>
      <trkpt lat="46.55308" lon="0.20816">
        <ele>134.60000610352</ele>
        <time>2022-04-17T08:31:38Z</time>
        <extensions>
          <gpxtpx:TrackPointExtension xmlns:gpxtpx="http://www.garmin.com/xmlschemas/TrackPointExtension/v1">
            <gpxtpx:hr>143</gpxtpx:hr>
          </gpxtpx:TrackPointExtension>
        </extensions>
      </trkpt>
      <trkpt lat="46.55309" lon="0.20814">
        <ele>134.39999389648</ele>
        <time>2022-04-17T08:31:39Z</time>
        <extensions>
          <gpxtpx:TrackPointExtension xmlns:gpxtpx="http://www.garmin.com/xmlschemas/TrackPointExtension/v1">
            <gpxtpx:hr>143</gpxtpx:hr>
          </gpxtpx:TrackPointExtension>
        </extensions>
      </trkpt>
      <trkpt lat="46.55308" lon="0.20809">
        <ele>134.19999694824</ele>
        <time>2022-04-17T08:31:40Z</time>
        <extensions>
          <gpxtpx:TrackPointExtension xmlns:gpxtpx="http://www.garmin.com/xmlschemas/TrackPointExtension/v1">
            <gpxtpx:hr>142</gpxtpx:hr>
          </gpxtpx:TrackPointExtension>
        </extensions>
      </trkpt>
      <trkpt lat="46.55306" lon="0.20806">
        <ele>134.19999694824</ele>
        <time>2022-04-17T08:31:41Z</time>
        <extensions>
          <gpxtpx:TrackPointExtension xmlns:gpxtpx="http://www.garmin.com/xmlschemas/TrackPointExtension/v1">
            <gpxtpx:hr>142</gpxtpx:hr>
          </gpxtpx:TrackPointExtension>
        </extensions>
      </trkpt>
      <trkpt lat="46.55303" lon="0.20799">
        <ele>134</ele>
        <time>2022-04-17T08:31:43Z</time>
        <extensions>
          <gpxtpx:TrackPointExtension xmlns:gpxtpx="http://www.garmin.com/xmlschemas/TrackPointExtension/v1">
            <gpxtpx:hr>142</gpxtpx:hr>
          </gpxtpx:TrackPointExtension>
        </extensions>
      </trkpt>
      <trkpt lat="46.55302" lon="0.20793">
        <ele>133.80000305176</ele>
        <time>2022-04-17T08:31:44Z</time>
        <extensions>
          <gpxtpx:TrackPointExtension xmlns:gpxtpx="http://www.garmin.com/xmlschemas/TrackPointExtension/v1">
            <gpxtpx:hr>142</gpxtpx:hr>
          </gpxtpx:TrackPointExtension>
        </extensions>
      </trkpt>
      <trkpt lat="46.55302" lon="0.20788">
        <ele>133.80000305176</ele>
        <time>2022-04-17T08:31:45Z</time>
        <extensions>
          <gpxtpx:TrackPointExtension xmlns:gpxtpx="http://www.garmin.com/xmlschemas/TrackPointExtension/v1">
            <gpxtpx:hr>141</gpxtpx:hr>
          </gpxtpx:TrackPointExtension>
        </extensions>
      </trkpt>
      <trkpt lat="46.55303" lon="0.20782">
        <ele>133.80000305176</ele>
        <time>2022-04-17T08:31:46Z</time>
        <extensions>
          <gpxtpx:TrackPointExtension xmlns:gpxtpx="http://www.garmin.com/xmlschemas/TrackPointExtension/v1">
            <gpxtpx:hr>141</gpxtpx:hr>
          </gpxtpx:TrackPointExtension>
        </extensions>
      </trkpt>
      <trkpt lat="46.55305" lon="0.20777">
        <ele>133.60000610352</ele>
        <time>2022-04-17T08:31:47Z</time>
        <extensions>
          <gpxtpx:TrackPointExtension xmlns:gpxtpx="http://www.garmin.com/xmlschemas/TrackPointExtension/v1">
            <gpxtpx:hr>141</gpxtpx:hr>
          </gpxtpx:TrackPointExtension>
        </extensions>
      </trkpt>
      <trkpt lat="46.55306" lon="0.20772">
        <ele>133.60000610352</ele>
        <time>2022-04-17T08:31:48Z</time>
        <extensions>
          <gpxtpx:TrackPointExtension xmlns:gpxtpx="http://www.garmin.com/xmlschemas/TrackPointExtension/v1">
            <gpxtpx:hr>141</gpxtpx:hr>
          </gpxtpx:TrackPointExtension>
        </extensions>
      </trkpt>
      <trkpt lat="46.55307" lon="0.20767">
        <ele>133.60000610352</ele>
        <time>2022-04-17T08:31:49Z</time>
        <extensions>
          <gpxtpx:TrackPointExtension xmlns:gpxtpx="http://www.garmin.com/xmlschemas/TrackPointExtension/v1">
            <gpxtpx:hr>141</gpxtpx:hr>
          </gpxtpx:TrackPointExtension>
        </extensions>
      </trkpt>
      <trkpt lat="46.55307" lon="0.20761">
        <ele>133.60000610352</ele>
        <time>2022-04-17T08:31:50Z</time>
        <extensions>
          <gpxtpx:TrackPointExtension xmlns:gpxtpx="http://www.garmin.com/xmlschemas/TrackPointExtension/v1">
            <gpxtpx:hr>141</gpxtpx:hr>
          </gpxtpx:TrackPointExtension>
        </extensions>
      </trkpt>
      <trkpt lat="46.55306" lon="0.20756">
        <ele>133.39999389648</ele>
        <time>2022-04-17T08:31:51Z</time>
        <extensions>
          <gpxtpx:TrackPointExtension xmlns:gpxtpx="http://www.garmin.com/xmlschemas/TrackPointExtension/v1">
            <gpxtpx:hr>141</gpxtpx:hr>
          </gpxtpx:TrackPointExtension>
        </extensions>
      </trkpt>
      <trkpt lat="46.55307" lon="0.20749">
        <ele>133</ele>
        <time>2022-04-17T08:31:52Z</time>
        <extensions>
          <gpxtpx:TrackPointExtension xmlns:gpxtpx="http://www.garmin.com/xmlschemas/TrackPointExtension/v1">
            <gpxtpx:hr>140</gpxtpx:hr>
          </gpxtpx:TrackPointExtension>
        </extensions>
      </trkpt>
      <trkpt lat="46.55309" lon="0.20741">
        <ele>132.60000610352</ele>
        <time>2022-04-17T08:31:53Z</time>
        <extensions>
          <gpxtpx:TrackPointExtension xmlns:gpxtpx="http://www.garmin.com/xmlschemas/TrackPointExtension/v1">
            <gpxtpx:hr>140</gpxtpx:hr>
          </gpxtpx:TrackPointExtension>
        </extensions>
      </trkpt>
      <trkpt lat="46.55311" lon="0.20733">
        <ele>132.19999694824</ele>
        <time>2022-04-17T08:31:54Z</time>
        <extensions>
          <gpxtpx:TrackPointExtension xmlns:gpxtpx="http://www.garmin.com/xmlschemas/TrackPointExtension/v1">
            <gpxtpx:hr>139</gpxtpx:hr>
          </gpxtpx:TrackPointExtension>
        </extensions>
      </trkpt>
      <trkpt lat="46.55313" lon="0.20727">
        <ele>132</ele>
        <time>2022-04-17T08:31:55Z</time>
        <extensions>
          <gpxtpx:TrackPointExtension xmlns:gpxtpx="http://www.garmin.com/xmlschemas/TrackPointExtension/v1">
            <gpxtpx:hr>139</gpxtpx:hr>
          </gpxtpx:TrackPointExtension>
        </extensions>
      </trkpt>
      <trkpt lat="46.55316" lon="0.20723">
        <ele>131.80000305176</ele>
        <time>2022-04-17T08:31:56Z</time>
        <extensions>
          <gpxtpx:TrackPointExtension xmlns:gpxtpx="http://www.garmin.com/xmlschemas/TrackPointExtension/v1">
            <gpxtpx:hr>137</gpxtpx:hr>
          </gpxtpx:TrackPointExtension>
        </extensions>
      </trkpt>
      <trkpt lat="46.55318" lon="0.20719">
        <ele>131.80000305176</ele>
        <time>2022-04-17T08:31:57Z</time>
        <extensions>
          <gpxtpx:TrackPointExtension xmlns:gpxtpx="http://www.garmin.com/xmlschemas/TrackPointExtension/v1">
            <gpxtpx:hr>137</gpxtpx:hr>
          </gpxtpx:TrackPointExtension>
        </extensions>
      </trkpt>
      <trkpt lat="46.55322" lon="0.20711">
        <ele>132</ele>
        <time>2022-04-17T08:31:59Z</time>
        <extensions>
          <gpxtpx:TrackPointExtension xmlns:gpxtpx="http://www.garmin.com/xmlschemas/TrackPointExtension/v1">
            <gpxtpx:hr>137</gpxtpx:hr>
          </gpxtpx:TrackPointExtension>
        </extensions>
      </trkpt>
      <trkpt lat="46.55323" lon="0.20707">
        <ele>132.39999389648</ele>
        <time>2022-04-17T08:32:00Z</time>
        <extensions>
          <gpxtpx:TrackPointExtension xmlns:gpxtpx="http://www.garmin.com/xmlschemas/TrackPointExtension/v1">
            <gpxtpx:hr>136</gpxtpx:hr>
          </gpxtpx:TrackPointExtension>
        </extensions>
      </trkpt>
      <trkpt lat="46.55324" lon="0.20701">
        <ele>132.60000610352</ele>
        <time>2022-04-17T08:32:01Z</time>
        <extensions>
          <gpxtpx:TrackPointExtension xmlns:gpxtpx="http://www.garmin.com/xmlschemas/TrackPointExtension/v1">
            <gpxtpx:hr>134</gpxtpx:hr>
          </gpxtpx:TrackPointExtension>
        </extensions>
      </trkpt>
      <trkpt lat="46.55327" lon="0.20695">
        <ele>132.60000610352</ele>
        <time>2022-04-17T08:32:02Z</time>
        <extensions>
          <gpxtpx:TrackPointExtension xmlns:gpxtpx="http://www.garmin.com/xmlschemas/TrackPointExtension/v1">
            <gpxtpx:hr>134</gpxtpx:hr>
          </gpxtpx:TrackPointExtension>
        </extensions>
      </trkpt>
      <trkpt lat="46.55328" lon="0.20691">
        <ele>132.80000305176</ele>
        <time>2022-04-17T08:32:03Z</time>
        <extensions>
          <gpxtpx:TrackPointExtension xmlns:gpxtpx="http://www.garmin.com/xmlschemas/TrackPointExtension/v1">
            <gpxtpx:hr>135</gpxtpx:hr>
          </gpxtpx:TrackPointExtension>
        </extensions>
      </trkpt>
      <trkpt lat="46.55327" lon="0.20687">
        <ele>132.80000305176</ele>
        <time>2022-04-17T08:32:04Z</time>
        <extensions>
          <gpxtpx:TrackPointExtension xmlns:gpxtpx="http://www.garmin.com/xmlschemas/TrackPointExtension/v1">
            <gpxtpx:hr>135</gpxtpx:hr>
          </gpxtpx:TrackPointExtension>
        </extensions>
      </trkpt>
      <trkpt lat="46.55326" lon="0.20682">
        <ele>133</ele>
        <time>2022-04-17T08:32:05Z</time>
        <extensions>
          <gpxtpx:TrackPointExtension xmlns:gpxtpx="http://www.garmin.com/xmlschemas/TrackPointExtension/v1">
            <gpxtpx:hr>136</gpxtpx:hr>
          </gpxtpx:TrackPointExtension>
        </extensions>
      </trkpt>
      <trkpt lat="46.55326" lon="0.20678">
        <ele>133</ele>
        <time>2022-04-17T08:32:06Z</time>
        <extensions>
          <gpxtpx:TrackPointExtension xmlns:gpxtpx="http://www.garmin.com/xmlschemas/TrackPointExtension/v1">
            <gpxtpx:hr>137</gpxtpx:hr>
          </gpxtpx:TrackPointExtension>
        </extensions>
      </trkpt>
      <trkpt lat="46.55325" lon="0.20674">
        <ele>133</ele>
        <time>2022-04-17T08:32:07Z</time>
        <extensions>
          <gpxtpx:TrackPointExtension xmlns:gpxtpx="http://www.garmin.com/xmlschemas/TrackPointExtension/v1">
            <gpxtpx:hr>138</gpxtpx:hr>
          </gpxtpx:TrackPointExtension>
        </extensions>
      </trkpt>
      <trkpt lat="46.55325" lon="0.20671">
        <ele>133.60000610352</ele>
        <time>2022-04-17T08:32:08Z</time>
        <extensions>
          <gpxtpx:TrackPointExtension xmlns:gpxtpx="http://www.garmin.com/xmlschemas/TrackPointExtension/v1">
            <gpxtpx:hr>139</gpxtpx:hr>
          </gpxtpx:TrackPointExtension>
        </extensions>
      </trkpt>
      <trkpt lat="46.55326" lon="0.20669">
        <ele>134</ele>
        <time>2022-04-17T08:32:09Z</time>
        <extensions>
          <gpxtpx:TrackPointExtension xmlns:gpxtpx="http://www.garmin.com/xmlschemas/TrackPointExtension/v1">
            <gpxtpx:hr>139</gpxtpx:hr>
          </gpxtpx:TrackPointExtension>
        </extensions>
      </trkpt>
      <trkpt lat="46.55327" lon="0.20667">
        <ele>134.39999389648</ele>
        <time>2022-04-17T08:32:10Z</time>
        <extensions>
          <gpxtpx:TrackPointExtension xmlns:gpxtpx="http://www.garmin.com/xmlschemas/TrackPointExtension/v1">
            <gpxtpx:hr>139</gpxtpx:hr>
          </gpxtpx:TrackPointExtension>
        </extensions>
      </trkpt>
      <trkpt lat="46.55328" lon="0.20665">
        <ele>134.60000610352</ele>
        <time>2022-04-17T08:32:11Z</time>
        <extensions>
          <gpxtpx:TrackPointExtension xmlns:gpxtpx="http://www.garmin.com/xmlschemas/TrackPointExtension/v1">
            <gpxtpx:hr>139</gpxtpx:hr>
          </gpxtpx:TrackPointExtension>
        </extensions>
      </trkpt>
      <trkpt lat="46.55328" lon="0.20663">
        <ele>134.80000305176</ele>
        <time>2022-04-17T08:32:12Z</time>
        <extensions>
          <gpxtpx:TrackPointExtension xmlns:gpxtpx="http://www.garmin.com/xmlschemas/TrackPointExtension/v1">
            <gpxtpx:hr>139</gpxtpx:hr>
          </gpxtpx:TrackPointExtension>
        </extensions>
      </trkpt>
      <trkpt lat="46.55329" lon="0.2066">
        <ele>135</ele>
        <time>2022-04-17T08:32:13Z</time>
        <extensions>
          <gpxtpx:TrackPointExtension xmlns:gpxtpx="http://www.garmin.com/xmlschemas/TrackPointExtension/v1">
            <gpxtpx:hr>139</gpxtpx:hr>
          </gpxtpx:TrackPointExtension>
        </extensions>
      </trkpt>
      <trkpt lat="46.55329" lon="0.20655">
        <ele>135.19999694824</ele>
        <time>2022-04-17T08:32:14Z</time>
        <extensions>
          <gpxtpx:TrackPointExtension xmlns:gpxtpx="http://www.garmin.com/xmlschemas/TrackPointExtension/v1">
            <gpxtpx:hr>139</gpxtpx:hr>
          </gpxtpx:TrackPointExtension>
        </extensions>
      </trkpt>
      <trkpt lat="46.5533" lon="0.20651">
        <ele>135.39999389648</ele>
        <time>2022-04-17T08:32:15Z</time>
        <extensions>
          <gpxtpx:TrackPointExtension xmlns:gpxtpx="http://www.garmin.com/xmlschemas/TrackPointExtension/v1">
            <gpxtpx:hr>138</gpxtpx:hr>
          </gpxtpx:TrackPointExtension>
        </extensions>
      </trkpt>
      <trkpt lat="46.5533" lon="0.20648">
        <ele>135.60000610352</ele>
        <time>2022-04-17T08:32:16Z</time>
        <extensions>
          <gpxtpx:TrackPointExtension xmlns:gpxtpx="http://www.garmin.com/xmlschemas/TrackPointExtension/v1">
            <gpxtpx:hr>138</gpxtpx:hr>
          </gpxtpx:TrackPointExtension>
        </extensions>
      </trkpt>
      <trkpt lat="46.55332" lon="0.20639">
        <ele>135.80000305176</ele>
        <time>2022-04-17T08:32:18Z</time>
        <extensions>
          <gpxtpx:TrackPointExtension xmlns:gpxtpx="http://www.garmin.com/xmlschemas/TrackPointExtension/v1">
            <gpxtpx:hr>138</gpxtpx:hr>
          </gpxtpx:TrackPointExtension>
        </extensions>
      </trkpt>
      <trkpt lat="46.55333" lon="0.20629">
        <ele>136.39999389648</ele>
        <time>2022-04-17T08:32:20Z</time>
        <extensions>
          <gpxtpx:TrackPointExtension xmlns:gpxtpx="http://www.garmin.com/xmlschemas/TrackPointExtension/v1">
            <gpxtpx:hr>139</gpxtpx:hr>
          </gpxtpx:TrackPointExtension>
        </extensions>
      </trkpt>
      <trkpt lat="46.55333" lon="0.20625">
        <ele>136.80000305176</ele>
        <time>2022-04-17T08:32:21Z</time>
        <extensions>
          <gpxtpx:TrackPointExtension xmlns:gpxtpx="http://www.garmin.com/xmlschemas/TrackPointExtension/v1">
            <gpxtpx:hr>140</gpxtpx:hr>
          </gpxtpx:TrackPointExtension>
        </extensions>
      </trkpt>
      <trkpt lat="46.55334" lon="0.2062">
        <ele>137</ele>
        <time>2022-04-17T08:32:22Z</time>
        <extensions>
          <gpxtpx:TrackPointExtension xmlns:gpxtpx="http://www.garmin.com/xmlschemas/TrackPointExtension/v1">
            <gpxtpx:hr>140</gpxtpx:hr>
          </gpxtpx:TrackPointExtension>
        </extensions>
      </trkpt>
      <trkpt lat="46.55336" lon="0.20614">
        <ele>137.19999694824</ele>
        <time>2022-04-17T08:32:23Z</time>
        <extensions>
          <gpxtpx:TrackPointExtension xmlns:gpxtpx="http://www.garmin.com/xmlschemas/TrackPointExtension/v1">
            <gpxtpx:hr>140</gpxtpx:hr>
          </gpxtpx:TrackPointExtension>
        </extensions>
      </trkpt>
      <trkpt lat="46.55336" lon="0.2061">
        <ele>137.39999389648</ele>
        <time>2022-04-17T08:32:24Z</time>
        <extensions>
          <gpxtpx:TrackPointExtension xmlns:gpxtpx="http://www.garmin.com/xmlschemas/TrackPointExtension/v1">
            <gpxtpx:hr>140</gpxtpx:hr>
          </gpxtpx:TrackPointExtension>
        </extensions>
      </trkpt>
      <trkpt lat="46.55337" lon="0.20606">
        <ele>137.39999389648</ele>
        <time>2022-04-17T08:32:25Z</time>
        <extensions>
          <gpxtpx:TrackPointExtension xmlns:gpxtpx="http://www.garmin.com/xmlschemas/TrackPointExtension/v1">
            <gpxtpx:hr>140</gpxtpx:hr>
          </gpxtpx:TrackPointExtension>
        </extensions>
      </trkpt>
      <trkpt lat="46.55338" lon="0.20602">
        <ele>137.39999389648</ele>
        <time>2022-04-17T08:32:26Z</time>
        <extensions>
          <gpxtpx:TrackPointExtension xmlns:gpxtpx="http://www.garmin.com/xmlschemas/TrackPointExtension/v1">
            <gpxtpx:hr>140</gpxtpx:hr>
          </gpxtpx:TrackPointExtension>
        </extensions>
      </trkpt>
      <trkpt lat="46.55339" lon="0.20597">
        <ele>137.60000610352</ele>
        <time>2022-04-17T08:32:27Z</time>
        <extensions>
          <gpxtpx:TrackPointExtension xmlns:gpxtpx="http://www.garmin.com/xmlschemas/TrackPointExtension/v1">
            <gpxtpx:hr>140</gpxtpx:hr>
          </gpxtpx:TrackPointExtension>
        </extensions>
      </trkpt>
      <trkpt lat="46.5534" lon="0.20592">
        <ele>137.60000610352</ele>
        <time>2022-04-17T08:32:28Z</time>
        <extensions>
          <gpxtpx:TrackPointExtension xmlns:gpxtpx="http://www.garmin.com/xmlschemas/TrackPointExtension/v1">
            <gpxtpx:hr>140</gpxtpx:hr>
          </gpxtpx:TrackPointExtension>
        </extensions>
      </trkpt>
      <trkpt lat="46.5534" lon="0.20588">
        <ele>137.60000610352</ele>
        <time>2022-04-17T08:32:29Z</time>
        <extensions>
          <gpxtpx:TrackPointExtension xmlns:gpxtpx="http://www.garmin.com/xmlschemas/TrackPointExtension/v1">
            <gpxtpx:hr>141</gpxtpx:hr>
          </gpxtpx:TrackPointExtension>
        </extensions>
      </trkpt>
      <trkpt lat="46.5534" lon="0.20586">
        <ele>137.80000305176</ele>
        <time>2022-04-17T08:32:30Z</time>
        <extensions>
          <gpxtpx:TrackPointExtension xmlns:gpxtpx="http://www.garmin.com/xmlschemas/TrackPointExtension/v1">
            <gpxtpx:hr>142</gpxtpx:hr>
          </gpxtpx:TrackPointExtension>
        </extensions>
      </trkpt>
      <trkpt lat="46.55341" lon="0.20583">
        <ele>137.80000305176</ele>
        <time>2022-04-17T08:32:31Z</time>
        <extensions>
          <gpxtpx:TrackPointExtension xmlns:gpxtpx="http://www.garmin.com/xmlschemas/TrackPointExtension/v1">
            <gpxtpx:hr>142</gpxtpx:hr>
          </gpxtpx:TrackPointExtension>
        </extensions>
      </trkpt>
      <trkpt lat="46.55341" lon="0.20578">
        <ele>138</ele>
        <time>2022-04-17T08:32:32Z</time>
        <extensions>
          <gpxtpx:TrackPointExtension xmlns:gpxtpx="http://www.garmin.com/xmlschemas/TrackPointExtension/v1">
            <gpxtpx:hr>143</gpxtpx:hr>
          </gpxtpx:TrackPointExtension>
        </extensions>
      </trkpt>
      <trkpt lat="46.5534" lon="0.20573">
        <ele>138</ele>
        <time>2022-04-17T08:32:33Z</time>
        <extensions>
          <gpxtpx:TrackPointExtension xmlns:gpxtpx="http://www.garmin.com/xmlschemas/TrackPointExtension/v1">
            <gpxtpx:hr>143</gpxtpx:hr>
          </gpxtpx:TrackPointExtension>
        </extensions>
      </trkpt>
      <trkpt lat="46.5534" lon="0.20568">
        <ele>138</ele>
        <time>2022-04-17T08:32:34Z</time>
        <extensions>
          <gpxtpx:TrackPointExtension xmlns:gpxtpx="http://www.garmin.com/xmlschemas/TrackPointExtension/v1">
            <gpxtpx:hr>143</gpxtpx:hr>
          </gpxtpx:TrackPointExtension>
        </extensions>
      </trkpt>
      <trkpt lat="46.55339" lon="0.20561">
        <ele>138</ele>
        <time>2022-04-17T08:32:35Z</time>
        <extensions>
          <gpxtpx:TrackPointExtension xmlns:gpxtpx="http://www.garmin.com/xmlschemas/TrackPointExtension/v1">
            <gpxtpx:hr>144</gpxtpx:hr>
          </gpxtpx:TrackPointExtension>
        </extensions>
      </trkpt>
      <trkpt lat="46.55338" lon="0.20556">
        <ele>138</ele>
        <time>2022-04-17T08:32:36Z</time>
        <extensions>
          <gpxtpx:TrackPointExtension xmlns:gpxtpx="http://www.garmin.com/xmlschemas/TrackPointExtension/v1">
            <gpxtpx:hr>145</gpxtpx:hr>
          </gpxtpx:TrackPointExtension>
        </extensions>
      </trkpt>
      <trkpt lat="46.55338" lon="0.2055">
        <ele>138</ele>
        <time>2022-04-17T08:32:37Z</time>
        <extensions>
          <gpxtpx:TrackPointExtension xmlns:gpxtpx="http://www.garmin.com/xmlschemas/TrackPointExtension/v1">
            <gpxtpx:hr>146</gpxtpx:hr>
          </gpxtpx:TrackPointExtension>
        </extensions>
      </trkpt>
      <trkpt lat="46.55337" lon="0.20545">
        <ele>138</ele>
        <time>2022-04-17T08:32:38Z</time>
        <extensions>
          <gpxtpx:TrackPointExtension xmlns:gpxtpx="http://www.garmin.com/xmlschemas/TrackPointExtension/v1">
            <gpxtpx:hr>148</gpxtpx:hr>
          </gpxtpx:TrackPointExtension>
        </extensions>
      </trkpt>
      <trkpt lat="46.55336" lon="0.20542">
        <ele>138</ele>
        <time>2022-04-17T08:32:39Z</time>
        <extensions>
          <gpxtpx:TrackPointExtension xmlns:gpxtpx="http://www.garmin.com/xmlschemas/TrackPointExtension/v1">
            <gpxtpx:hr>148</gpxtpx:hr>
          </gpxtpx:TrackPointExtension>
        </extensions>
      </trkpt>
      <trkpt lat="46.55332" lon="0.2054">
        <ele>138</ele>
        <time>2022-04-17T08:32:40Z</time>
        <extensions>
          <gpxtpx:TrackPointExtension xmlns:gpxtpx="http://www.garmin.com/xmlschemas/TrackPointExtension/v1">
            <gpxtpx:hr>149</gpxtpx:hr>
          </gpxtpx:TrackPointExtension>
        </extensions>
      </trkpt>
      <trkpt lat="46.55329" lon="0.20537">
        <ele>138</ele>
        <time>2022-04-17T08:32:41Z</time>
        <extensions>
          <gpxtpx:TrackPointExtension xmlns:gpxtpx="http://www.garmin.com/xmlschemas/TrackPointExtension/v1">
            <gpxtpx:hr>150</gpxtpx:hr>
          </gpxtpx:TrackPointExtension>
        </extensions>
      </trkpt>
      <trkpt lat="46.55326" lon="0.20533">
        <ele>138</ele>
        <time>2022-04-17T08:32:42Z</time>
        <extensions>
          <gpxtpx:TrackPointExtension xmlns:gpxtpx="http://www.garmin.com/xmlschemas/TrackPointExtension/v1">
            <gpxtpx:hr>151</gpxtpx:hr>
          </gpxtpx:TrackPointExtension>
        </extensions>
      </trkpt>
      <trkpt lat="46.55324" lon="0.20529">
        <ele>138</ele>
        <time>2022-04-17T08:32:43Z</time>
        <extensions>
          <gpxtpx:TrackPointExtension xmlns:gpxtpx="http://www.garmin.com/xmlschemas/TrackPointExtension/v1">
            <gpxtpx:hr>152</gpxtpx:hr>
          </gpxtpx:TrackPointExtension>
        </extensions>
      </trkpt>
      <trkpt lat="46.55323" lon="0.2052">
        <ele>138.19999694824</ele>
        <time>2022-04-17T08:32:45Z</time>
        <extensions>
          <gpxtpx:TrackPointExtension xmlns:gpxtpx="http://www.garmin.com/xmlschemas/TrackPointExtension/v1">
            <gpxtpx:hr>152</gpxtpx:hr>
          </gpxtpx:TrackPointExtension>
        </extensions>
      </trkpt>
      <trkpt lat="46.5532" lon="0.20509">
        <ele>138.60000610352</ele>
        <time>2022-04-17T08:32:48Z</time>
        <extensions>
          <gpxtpx:TrackPointExtension xmlns:gpxtpx="http://www.garmin.com/xmlschemas/TrackPointExtension/v1">
            <gpxtpx:hr>153</gpxtpx:hr>
          </gpxtpx:TrackPointExtension>
        </extensions>
      </trkpt>
      <trkpt lat="46.5532" lon="0.20508">
        <ele>138.60000610352</ele>
        <time>2022-04-17T08:32:49Z</time>
        <extensions>
          <gpxtpx:TrackPointExtension xmlns:gpxtpx="http://www.garmin.com/xmlschemas/TrackPointExtension/v1">
            <gpxtpx:hr>153</gpxtpx:hr>
          </gpxtpx:TrackPointExtension>
        </extensions>
      </trkpt>
      <trkpt lat="46.55312" lon="0.20496">
        <ele>138.39999389648</ele>
        <time>2022-04-17T08:33:09Z</time>
        <extensions>
          <gpxtpx:TrackPointExtension xmlns:gpxtpx="http://www.garmin.com/xmlschemas/TrackPointExtension/v1">
            <gpxtpx:hr>148</gpxtpx:hr>
          </gpxtpx:TrackPointExtension>
        </extensions>
      </trkpt>
      <trkpt lat="46.55302" lon="0.20475">
        <ele>138.39999389648</ele>
        <time>2022-04-17T08:33:10Z</time>
        <extensions>
          <gpxtpx:TrackPointExtension xmlns:gpxtpx="http://www.garmin.com/xmlschemas/TrackPointExtension/v1">
            <gpxtpx:hr>148</gpxtpx:hr>
          </gpxtpx:TrackPointExtension>
        </extensions>
      </trkpt>
      <trkpt lat="46.55299" lon="0.20472">
        <ele>137.80000305176</ele>
        <time>2022-04-17T08:33:11Z</time>
        <extensions>
          <gpxtpx:TrackPointExtension xmlns:gpxtpx="http://www.garmin.com/xmlschemas/TrackPointExtension/v1">
            <gpxtpx:hr>148</gpxtpx:hr>
          </gpxtpx:TrackPointExtension>
        </extensions>
      </trkpt>
      <trkpt lat="46.55296" lon="0.20471">
        <ele>137</ele>
        <time>2022-04-17T08:33:13Z</time>
        <extensions>
          <gpxtpx:TrackPointExtension xmlns:gpxtpx="http://www.garmin.com/xmlschemas/TrackPointExtension/v1">
            <gpxtpx:hr>145</gpxtpx:hr>
          </gpxtpx:TrackPointExtension>
        </extensions>
      </trkpt>
      <trkpt lat="46.55291" lon="0.20463">
        <ele>128.5</ele>
      </trkpt>
      <trkpt lat="46.55303" lon="0.20446">
        <ele>136.60000610352</ele>
        <time>2022-04-17T08:33:14Z</time>
        <extensions>
          <gpxtpx:TrackPointExtension xmlns:gpxtpx="http://www.garmin.com/xmlschemas/TrackPointExtension/v1">
            <gpxtpx:hr>144</gpxtpx:hr>
          </gpxtpx:TrackPointExtension>
        </extensions>
      </trkpt>
      <trkpt lat="46.55308" lon="0.20434">
        <ele>135.80000305176</ele>
        <time>2022-04-17T08:33:16Z</time>
        <extensions>
          <gpxtpx:TrackPointExtension xmlns:gpxtpx="http://www.garmin.com/xmlschemas/TrackPointExtension/v1">
            <gpxtpx:hr>144</gpxtpx:hr>
          </gpxtpx:TrackPointExtension>
        </extensions>
      </trkpt>
      <trkpt lat="46.55309" lon="0.2043">
        <ele>135.39999389648</ele>
        <time>2022-04-17T08:33:17Z</time>
        <extensions>
          <gpxtpx:TrackPointExtension xmlns:gpxtpx="http://www.garmin.com/xmlschemas/TrackPointExtension/v1">
            <gpxtpx:hr>144</gpxtpx:hr>
          </gpxtpx:TrackPointExtension>
        </extensions>
      </trkpt>
      <trkpt lat="46.55314" lon="0.20427">
        <ele>134.60000610352</ele>
        <time>2022-04-17T08:33:18Z</time>
        <extensions>
          <gpxtpx:TrackPointExtension xmlns:gpxtpx="http://www.garmin.com/xmlschemas/TrackPointExtension/v1">
            <gpxtpx:hr>144</gpxtpx:hr>
          </gpxtpx:TrackPointExtension>
        </extensions>
      </trkpt>
      <trkpt lat="46.55318" lon="0.20425">
        <ele>122.6</ele>
      </trkpt>
      <trkpt lat="46.55322" lon="0.2042">
        <ele>134.19999694824</ele>
        <time>2022-04-17T08:33:19Z</time>
        <extensions>
          <gpxtpx:TrackPointExtension xmlns:gpxtpx="http://www.garmin.com/xmlschemas/TrackPointExtension/v1">
            <gpxtpx:hr>143</gpxtpx:hr>
          </gpxtpx:TrackPointExtension>
        </extensions>
      </trkpt>
      <trkpt lat="46.55326" lon="0.20417">
        <ele>133</ele>
        <time>2022-04-17T08:33:20Z</time>
        <extensions>
          <gpxtpx:TrackPointExtension xmlns:gpxtpx="http://www.garmin.com/xmlschemas/TrackPointExtension/v1">
            <gpxtpx:hr>143</gpxtpx:hr>
          </gpxtpx:TrackPointExtension>
        </extensions>
      </trkpt>
      <trkpt lat="46.55343" lon="0.20432">
        <ele>121.4</ele>
      </trkpt>
      <trkpt lat="46.55348" lon="0.20434">
        <ele>132</ele>
        <time>2022-04-17T08:33:21Z</time>
        <extensions>
          <gpxtpx:TrackPointExtension xmlns:gpxtpx="http://www.garmin.com/xmlschemas/TrackPointExtension/v1">
            <gpxtpx:hr>143</gpxtpx:hr>
          </gpxtpx:TrackPointExtension>
        </extensions>
      </trkpt>
      <trkpt lat="46.55351" lon="0.20432">
        <ele>131.60000610352</ele>
        <time>2022-04-17T08:33:22Z</time>
        <extensions>
          <gpxtpx:TrackPointExtension xmlns:gpxtpx="http://www.garmin.com/xmlschemas/TrackPointExtension/v1">
            <gpxtpx:hr>142</gpxtpx:hr>
          </gpxtpx:TrackPointExtension>
        </extensions>
      </trkpt>
      <trkpt lat="46.55355" lon="0.20435">
        <ele>130.80000305176</ele>
        <time>2022-04-17T08:33:23Z</time>
        <extensions>
          <gpxtpx:TrackPointExtension xmlns:gpxtpx="http://www.garmin.com/xmlschemas/TrackPointExtension/v1">
            <gpxtpx:hr>142</gpxtpx:hr>
          </gpxtpx:TrackPointExtension>
        </extensions>
      </trkpt>
      <trkpt lat="46.55365" lon="0.20427">
        <ele>130</ele>
        <time>2022-04-17T08:33:25Z</time>
        <extensions>
          <gpxtpx:TrackPointExtension xmlns:gpxtpx="http://www.garmin.com/xmlschemas/TrackPointExtension/v1">
            <gpxtpx:hr>141</gpxtpx:hr>
          </gpxtpx:TrackPointExtension>
        </extensions>
      </trkpt>
      <trkpt lat="46.5537" lon="0.20429">
        <ele>128.19999694824</ele>
        <time>2022-04-17T08:34:05Z</time>
        <extensions>
          <gpxtpx:TrackPointExtension xmlns:gpxtpx="http://www.garmin.com/xmlschemas/TrackPointExtension/v1">
            <gpxtpx:hr>132</gpxtpx:hr>
          </gpxtpx:TrackPointExtension>
        </extensions>
      </trkpt>
      <trkpt lat="46.55367" lon="0.2045">
        <ele>128.19999694824</ele>
        <time>2022-04-17T08:34:06Z</time>
        <extensions>
          <gpxtpx:TrackPointExtension xmlns:gpxtpx="http://www.garmin.com/xmlschemas/TrackPointExtension/v1">
            <gpxtpx:hr>132</gpxtpx:hr>
          </gpxtpx:TrackPointExtension>
        </extensions>
      </trkpt>
      <trkpt lat="46.5537" lon="0.20458">
        <ele>128</ele>
        <time>2022-04-17T08:34:07Z</time>
        <extensions>
          <gpxtpx:TrackPointExtension xmlns:gpxtpx="http://www.garmin.com/xmlschemas/TrackPointExtension/v1">
            <gpxtpx:hr>133</gpxtpx:hr>
          </gpxtpx:TrackPointExtension>
        </extensions>
      </trkpt>
      <trkpt lat="46.55371" lon="0.2046">
        <ele>121.5</ele>
      </trkpt>
      <trkpt lat="46.55373" lon="0.20466">
        <ele>127.40000152588</ele>
        <time>2022-04-17T08:34:10Z</time>
        <extensions>
          <gpxtpx:TrackPointExtension xmlns:gpxtpx="http://www.garmin.com/xmlschemas/TrackPointExtension/v1">
            <gpxtpx:hr>131</gpxtpx:hr>
          </gpxtpx:TrackPointExtension>
        </extensions>
      </trkpt>
      <trkpt lat="46.55377" lon="0.20469">
        <ele>126.80000305176</ele>
        <time>2022-04-17T08:34:11Z</time>
        <extensions>
          <gpxtpx:TrackPointExtension xmlns:gpxtpx="http://www.garmin.com/xmlschemas/TrackPointExtension/v1">
            <gpxtpx:hr>130</gpxtpx:hr>
          </gpxtpx:TrackPointExtension>
        </extensions>
      </trkpt>
      <trkpt lat="46.55382" lon="0.20477">
        <ele>121.5</ele>
      </trkpt>
      <trkpt lat="46.55386" lon="0.20488">
        <ele>120.9</ele>
      </trkpt>
      <trkpt lat="46.5539" lon="0.20496">
        <ele>126.59999847412</ele>
        <time>2022-04-17T08:34:12Z</time>
        <extensions>
          <gpxtpx:TrackPointExtension xmlns:gpxtpx="http://www.garmin.com/xmlschemas/TrackPointExtension/v1">
            <gpxtpx:hr>130</gpxtpx:hr>
          </gpxtpx:TrackPointExtension>
        </extensions>
      </trkpt>
      <trkpt lat="46.55391" lon="0.20502">
        <ele>126.19999694824</ele>
        <time>2022-04-17T08:34:13Z</time>
        <extensions>
          <gpxtpx:TrackPointExtension xmlns:gpxtpx="http://www.garmin.com/xmlschemas/TrackPointExtension/v1">
            <gpxtpx:hr>133</gpxtpx:hr>
          </gpxtpx:TrackPointExtension>
        </extensions>
      </trkpt>
      <trkpt lat="46.554" lon="0.20513">
        <ele>126.19999694824</ele>
        <time>2022-04-17T08:34:14Z</time>
        <extensions>
          <gpxtpx:TrackPointExtension xmlns:gpxtpx="http://www.garmin.com/xmlschemas/TrackPointExtension/v1">
            <gpxtpx:hr>133</gpxtpx:hr>
          </gpxtpx:TrackPointExtension>
        </extensions>
      </trkpt>
      <trkpt lat="46.55405" lon="0.20522">
        <ele>125.80000305176</ele>
        <time>2022-04-17T08:34:15Z</time>
        <extensions>
          <gpxtpx:TrackPointExtension xmlns:gpxtpx="http://www.garmin.com/xmlschemas/TrackPointExtension/v1">
            <gpxtpx:hr>131</gpxtpx:hr>
          </gpxtpx:TrackPointExtension>
        </extensions>
      </trkpt>
      <trkpt lat="46.55433" lon="0.2054">
        <ele>121.5</ele>
      </trkpt>
      <trkpt lat="46.55452" lon="0.20554">
        <ele>125.59999847412</ele>
        <time>2022-04-17T08:34:16Z</time>
        <extensions>
          <gpxtpx:TrackPointExtension xmlns:gpxtpx="http://www.garmin.com/xmlschemas/TrackPointExtension/v1">
            <gpxtpx:hr>131</gpxtpx:hr>
          </gpxtpx:TrackPointExtension>
        </extensions>
      </trkpt>
      <trkpt lat="46.55461" lon="0.20561">
        <ele>125.59999847412</ele>
        <time>2022-04-17T08:34:17Z</time>
        <extensions>
          <gpxtpx:TrackPointExtension xmlns:gpxtpx="http://www.garmin.com/xmlschemas/TrackPointExtension/v1">
            <gpxtpx:hr>130</gpxtpx:hr>
          </gpxtpx:TrackPointExtension>
        </extensions>
      </trkpt>
      <trkpt lat="46.55464" lon="0.20519">
        <ele>125.40000152588</ele>
        <time>2022-04-17T08:34:19Z</time>
        <extensions>
          <gpxtpx:TrackPointExtension xmlns:gpxtpx="http://www.garmin.com/xmlschemas/TrackPointExtension/v1">
            <gpxtpx:hr>129</gpxtpx:hr>
          </gpxtpx:TrackPointExtension>
        </extensions>
      </trkpt>
      <trkpt lat="46.55484" lon="0.20507">
        <ele>125.19999694824</ele>
        <time>2022-04-17T08:34:20Z</time>
        <extensions>
          <gpxtpx:TrackPointExtension xmlns:gpxtpx="http://www.garmin.com/xmlschemas/TrackPointExtension/v1">
            <gpxtpx:hr>129</gpxtpx:hr>
          </gpxtpx:TrackPointExtension>
        </extensions>
      </trkpt>
      <trkpt lat="46.5553" lon="0.20492">
        <ele>125.19999694824</ele>
        <time>2022-04-17T08:34:21Z</time>
        <extensions>
          <gpxtpx:TrackPointExtension xmlns:gpxtpx="http://www.garmin.com/xmlschemas/TrackPointExtension/v1">
            <gpxtpx:hr>127</gpxtpx:hr>
          </gpxtpx:TrackPointExtension>
        </extensions>
      </trkpt>
      <trkpt lat="46.55548" lon="0.20492">
        <ele>125.19999694824</ele>
        <time>2022-04-17T08:34:22Z</time>
        <extensions>
          <gpxtpx:TrackPointExtension xmlns:gpxtpx="http://www.garmin.com/xmlschemas/TrackPointExtension/v1">
            <gpxtpx:hr>128</gpxtpx:hr>
          </gpxtpx:TrackPointExtension>
        </extensions>
      </trkpt>
      <trkpt lat="46.55567" lon="0.20501">
        <ele>125</ele>
        <time>2022-04-17T08:34:24Z</time>
        <extensions>
          <gpxtpx:TrackPointExtension xmlns:gpxtpx="http://www.garmin.com/xmlschemas/TrackPointExtension/v1">
            <gpxtpx:hr>127</gpxtpx:hr>
          </gpxtpx:TrackPointExtension>
        </extensions>
      </trkpt>
      <trkpt lat="46.55595" lon="0.20514">
        <ele>125</ele>
        <time>2022-04-17T08:34:25Z</time>
        <extensions>
          <gpxtpx:TrackPointExtension xmlns:gpxtpx="http://www.garmin.com/xmlschemas/TrackPointExtension/v1">
            <gpxtpx:hr>127</gpxtpx:hr>
          </gpxtpx:TrackPointExtension>
        </extensions>
      </trkpt>
      <trkpt lat="46.55601" lon="0.20518">
        <ele>135</ele>
      </trkpt>
      <trkpt lat="46.5562" lon="0.20516">
        <ele>125</ele>
        <time>2022-04-17T08:34:26Z</time>
        <extensions>
          <gpxtpx:TrackPointExtension xmlns:gpxtpx="http://www.garmin.com/xmlschemas/TrackPointExtension/v1">
            <gpxtpx:hr>126</gpxtpx:hr>
          </gpxtpx:TrackPointExtension>
        </extensions>
      </trkpt>
      <trkpt lat="46.55629" lon="0.20511">
        <ele>124.80000305176</ele>
        <time>2022-04-17T08:34:28Z</time>
        <extensions>
          <gpxtpx:TrackPointExtension xmlns:gpxtpx="http://www.garmin.com/xmlschemas/TrackPointExtension/v1">
            <gpxtpx:hr>127</gpxtpx:hr>
          </gpxtpx:TrackPointExtension>
        </extensions>
      </trkpt>
      <trkpt lat="46.55669" lon="0.20509">
        <ele>124.59999847412</ele>
        <time>2022-04-17T08:34:36Z</time>
        <extensions>
          <gpxtpx:TrackPointExtension xmlns:gpxtpx="http://www.garmin.com/xmlschemas/TrackPointExtension/v1">
            <gpxtpx:hr>126</gpxtpx:hr>
          </gpxtpx:TrackPointExtension>
        </extensions>
      </trkpt>
      <trkpt lat="46.55713" lon="0.20513">
        <ele>124.59999847412</ele>
        <time>2022-04-17T08:34:37Z</time>
        <extensions>
          <gpxtpx:TrackPointExtension xmlns:gpxtpx="http://www.garmin.com/xmlschemas/TrackPointExtension/v1">
            <gpxtpx:hr>127</gpxtpx:hr>
          </gpxtpx:TrackPointExtension>
        </extensions>
      </trkpt>
      <trkpt lat="46.55757" lon="0.20529">
        <ele>136.7</ele>
      </trkpt>
      <trkpt lat="46.55795" lon="0.20569">
        <ele>123.80000305176</ele>
        <time>2022-04-17T08:34:41Z</time>
        <extensions>
          <gpxtpx:TrackPointExtension xmlns:gpxtpx="http://www.garmin.com/xmlschemas/TrackPointExtension/v1">
            <gpxtpx:hr>129</gpxtpx:hr>
          </gpxtpx:TrackPointExtension>
        </extensions>
      </trkpt>
      <trkpt lat="46.55798" lon="0.20567">
        <ele>123.59999847412</ele>
        <time>2022-04-17T08:34:42Z</time>
        <extensions>
          <gpxtpx:TrackPointExtension xmlns:gpxtpx="http://www.garmin.com/xmlschemas/TrackPointExtension/v1">
            <gpxtpx:hr>129</gpxtpx:hr>
          </gpxtpx:TrackPointExtension>
        </extensions>
      </trkpt>
      <trkpt lat="46.55813" lon="0.20563">
        <ele>123.19999694824</ele>
        <time>2022-04-17T08:34:43Z</time>
        <extensions>
          <gpxtpx:TrackPointExtension xmlns:gpxtpx="http://www.garmin.com/xmlschemas/TrackPointExtension/v1">
            <gpxtpx:hr>130</gpxtpx:hr>
          </gpxtpx:TrackPointExtension>
        </extensions>
      </trkpt>
      <trkpt lat="46.5581" lon="0.20577">
        <ele>134.1</ele>
      </trkpt>
      <trkpt lat="46.5582" lon="0.20582">
        <ele>133.5</ele>
      </trkpt>
      <trkpt lat="46.55825" lon="0.20587">
        <ele>123</ele>
        <time>2022-04-17T08:34:44Z</time>
        <extensions>
          <gpxtpx:TrackPointExtension xmlns:gpxtpx="http://www.garmin.com/xmlschemas/TrackPointExtension/v1">
            <gpxtpx:hr>131</gpxtpx:hr>
          </gpxtpx:TrackPointExtension>
        </extensions>
      </trkpt>
      <trkpt lat="46.55839" lon="0.20595">
        <ele>122.80000305176</ele>
        <time>2022-04-17T08:34:45Z</time>
        <extensions>
          <gpxtpx:TrackPointExtension xmlns:gpxtpx="http://www.garmin.com/xmlschemas/TrackPointExtension/v1">
            <gpxtpx:hr>131</gpxtpx:hr>
          </gpxtpx:TrackPointExtension>
        </extensions>
      </trkpt>
      <trkpt lat="46.55845" lon="0.20618">
        <ele>122.80000305176</ele>
        <time>2022-04-17T08:34:46Z</time>
        <extensions>
          <gpxtpx:TrackPointExtension xmlns:gpxtpx="http://www.garmin.com/xmlschemas/TrackPointExtension/v1">
            <gpxtpx:hr>132</gpxtpx:hr>
          </gpxtpx:TrackPointExtension>
        </extensions>
      </trkpt>
      <trkpt lat="46.55848" lon="0.20636">
        <ele>122.59999847412</ele>
        <time>2022-04-17T08:34:47Z</time>
        <extensions>
          <gpxtpx:TrackPointExtension xmlns:gpxtpx="http://www.garmin.com/xmlschemas/TrackPointExtension/v1">
            <gpxtpx:hr>132</gpxtpx:hr>
          </gpxtpx:TrackPointExtension>
        </extensions>
      </trkpt>
      <trkpt lat="46.55833" lon="0.20665">
        <ele>127.3</ele>
      </trkpt>
      <trkpt lat="46.55806" lon="0.20671">
        <ele>122.59999847412</ele>
        <time>2022-04-17T08:34:48Z</time>
        <extensions>
          <gpxtpx:TrackPointExtension xmlns:gpxtpx="http://www.garmin.com/xmlschemas/TrackPointExtension/v1">
            <gpxtpx:hr>132</gpxtpx:hr>
          </gpxtpx:TrackPointExtension>
        </extensions>
      </trkpt>
      <trkpt lat="46.55751" lon="0.2065">
        <ele>126.2</ele>
      </trkpt>
      <trkpt lat="46.55715" lon="0.2062">
        <ele>127.7</ele>
      </trkpt>
      <trkpt lat="46.55688" lon="0.20596">
        <ele>130.5</ele>
      </trkpt>
      <trkpt lat="46.55647" lon="0.20568">
        <ele>122.59999847412</ele>
        <time>2022-04-17T08:34:49Z</time>
        <extensions>
          <gpxtpx:TrackPointExtension xmlns:gpxtpx="http://www.garmin.com/xmlschemas/TrackPointExtension/v1">
            <gpxtpx:hr>132</gpxtpx:hr>
          </gpxtpx:TrackPointExtension>
        </extensions>
      </trkpt>
      <trkpt lat="46.55624" lon="0.20577">
        <ele>136.80000305176</ele>
        <time>2022-04-17T08:47:26Z</time>
        <extensions>
          <gpxtpx:TrackPointExtension xmlns:gpxtpx="http://www.garmin.com/xmlschemas/TrackPointExtension/v1">
            <gpxtpx:hr>148</gpxtpx:hr>
          </gpxtpx:TrackPointExtension>
        </extensions>
      </trkpt>
      <trkpt lat="46.55623" lon="0.20578">
        <ele>136.39999389648</ele>
        <time>2022-04-17T08:47:27Z</time>
        <extensions>
          <gpxtpx:TrackPointExtension xmlns:gpxtpx="http://www.garmin.com/xmlschemas/TrackPointExtension/v1">
            <gpxtpx:hr>148</gpxtpx:hr>
          </gpxtpx:TrackPointExtension>
        </extensions>
      </trkpt>
      <trkpt lat="46.55618" lon="0.20581">
        <ele>135.60000610352</ele>
        <time>2022-04-17T08:47:30Z</time>
        <extensions>
          <gpxtpx:TrackPointExtension xmlns:gpxtpx="http://www.garmin.com/xmlschemas/TrackPointExtension/v1">
            <gpxtpx:hr>149</gpxtpx:hr>
          </gpxtpx:TrackPointExtension>
        </extensions>
      </trkpt>
      <trkpt lat="46.55616" lon="0.20582">
        <ele>135.19999694824</ele>
        <time>2022-04-17T08:47:31Z</time>
        <extensions>
          <gpxtpx:TrackPointExtension xmlns:gpxtpx="http://www.garmin.com/xmlschemas/TrackPointExtension/v1">
            <gpxtpx:hr>150</gpxtpx:hr>
          </gpxtpx:TrackPointExtension>
        </extensions>
      </trkpt>
      <trkpt lat="46.55613" lon="0.20584">
        <ele>134.39999389648</ele>
        <time>2022-04-17T08:47:33Z</time>
        <extensions>
          <gpxtpx:TrackPointExtension xmlns:gpxtpx="http://www.garmin.com/xmlschemas/TrackPointExtension/v1">
            <gpxtpx:hr>150</gpxtpx:hr>
          </gpxtpx:TrackPointExtension>
        </extensions>
      </trkpt>
      <trkpt lat="46.55612" lon="0.20584">
        <ele>134.19999694824</ele>
        <time>2022-04-17T08:47:34Z</time>
        <extensions>
          <gpxtpx:TrackPointExtension xmlns:gpxtpx="http://www.garmin.com/xmlschemas/TrackPointExtension/v1">
            <gpxtpx:hr>150</gpxtpx:hr>
          </gpxtpx:TrackPointExtension>
        </extensions>
      </trkpt>
      <trkpt lat="46.5561" lon="0.20583">
        <ele>134</ele>
        <time>2022-04-17T08:47:35Z</time>
        <extensions>
          <gpxtpx:TrackPointExtension xmlns:gpxtpx="http://www.garmin.com/xmlschemas/TrackPointExtension/v1">
            <gpxtpx:hr>150</gpxtpx:hr>
          </gpxtpx:TrackPointExtension>
        </extensions>
      </trkpt>
      <trkpt lat="46.55609" lon="0.20583">
        <ele>133.39999389648</ele>
        <time>2022-04-17T08:47:36Z</time>
        <extensions>
          <gpxtpx:TrackPointExtension xmlns:gpxtpx="http://www.garmin.com/xmlschemas/TrackPointExtension/v1">
            <gpxtpx:hr>151</gpxtpx:hr>
          </gpxtpx:TrackPointExtension>
        </extensions>
      </trkpt>
      <trkpt lat="46.55607" lon="0.20582">
        <ele>133.19999694824</ele>
        <time>2022-04-17T08:47:37Z</time>
        <extensions>
          <gpxtpx:TrackPointExtension xmlns:gpxtpx="http://www.garmin.com/xmlschemas/TrackPointExtension/v1">
            <gpxtpx:hr>151</gpxtpx:hr>
          </gpxtpx:TrackPointExtension>
        </extensions>
      </trkpt>
      <trkpt lat="46.55606" lon="0.20582">
        <ele>132.60000610352</ele>
        <time>2022-04-17T08:47:38Z</time>
        <extensions>
          <gpxtpx:TrackPointExtension xmlns:gpxtpx="http://www.garmin.com/xmlschemas/TrackPointExtension/v1">
            <gpxtpx:hr>151</gpxtpx:hr>
          </gpxtpx:TrackPointExtension>
        </extensions>
      </trkpt>
      <trkpt lat="46.55604" lon="0.20582">
        <ele>132.60000610352</ele>
        <time>2022-04-17T08:47:39Z</time>
        <extensions>
          <gpxtpx:TrackPointExtension xmlns:gpxtpx="http://www.garmin.com/xmlschemas/TrackPointExtension/v1">
            <gpxtpx:hr>151</gpxtpx:hr>
          </gpxtpx:TrackPointExtension>
        </extensions>
      </trkpt>
      <trkpt lat="46.55597" lon="0.20581">
        <ele>132</ele>
        <time>2022-04-17T08:47:42Z</time>
        <extensions>
          <gpxtpx:TrackPointExtension xmlns:gpxtpx="http://www.garmin.com/xmlschemas/TrackPointExtension/v1">
            <gpxtpx:hr>153</gpxtpx:hr>
          </gpxtpx:TrackPointExtension>
        </extensions>
      </trkpt>
      <trkpt lat="46.55588" lon="0.2058">
        <ele>132</ele>
        <time>2022-04-17T08:47:45Z</time>
        <extensions>
          <gpxtpx:TrackPointExtension xmlns:gpxtpx="http://www.garmin.com/xmlschemas/TrackPointExtension/v1">
            <gpxtpx:hr>153</gpxtpx:hr>
          </gpxtpx:TrackPointExtension>
        </extensions>
      </trkpt>
      <trkpt lat="46.55583" lon="0.20581">
        <ele>131.80000305176</ele>
        <time>2022-04-17T08:47:47Z</time>
        <extensions>
          <gpxtpx:TrackPointExtension xmlns:gpxtpx="http://www.garmin.com/xmlschemas/TrackPointExtension/v1">
            <gpxtpx:hr>153</gpxtpx:hr>
          </gpxtpx:TrackPointExtension>
        </extensions>
      </trkpt>
      <trkpt lat="46.55581" lon="0.20581">
        <ele>131.80000305176</ele>
        <time>2022-04-17T08:47:48Z</time>
        <extensions>
          <gpxtpx:TrackPointExtension xmlns:gpxtpx="http://www.garmin.com/xmlschemas/TrackPointExtension/v1">
            <gpxtpx:hr>153</gpxtpx:hr>
          </gpxtpx:TrackPointExtension>
        </extensions>
      </trkpt>
      <trkpt lat="46.55579" lon="0.20582">
        <ele>132</ele>
        <time>2022-04-17T08:47:49Z</time>
        <extensions>
          <gpxtpx:TrackPointExtension xmlns:gpxtpx="http://www.garmin.com/xmlschemas/TrackPointExtension/v1">
            <gpxtpx:hr>153</gpxtpx:hr>
          </gpxtpx:TrackPointExtension>
        </extensions>
      </trkpt>
      <trkpt lat="46.55571" lon="0.20581">
        <ele>131.80000305176</ele>
        <time>2022-04-17T08:47:52Z</time>
        <extensions>
          <gpxtpx:TrackPointExtension xmlns:gpxtpx="http://www.garmin.com/xmlschemas/TrackPointExtension/v1">
            <gpxtpx:hr>152</gpxtpx:hr>
          </gpxtpx:TrackPointExtension>
        </extensions>
      </trkpt>
      <trkpt lat="46.55569" lon="0.20581">
        <ele>131.80000305176</ele>
        <time>2022-04-17T08:47:53Z</time>
        <extensions>
          <gpxtpx:TrackPointExtension xmlns:gpxtpx="http://www.garmin.com/xmlschemas/TrackPointExtension/v1">
            <gpxtpx:hr>151</gpxtpx:hr>
          </gpxtpx:TrackPointExtension>
        </extensions>
      </trkpt>
      <trkpt lat="46.55569" lon="0.20581">
        <ele>131.80000305176</ele>
        <time>2022-04-17T08:47:54Z</time>
        <extensions>
          <gpxtpx:TrackPointExtension xmlns:gpxtpx="http://www.garmin.com/xmlschemas/TrackPointExtension/v1">
            <gpxtpx:hr>151</gpxtpx:hr>
          </gpxtpx:TrackPointExtension>
        </extensions>
      </trkpt>
      <trkpt lat="46.55568" lon="0.2058">
        <ele>131.60000610352</ele>
        <time>2022-04-17T08:47:56Z</time>
        <extensions>
          <gpxtpx:TrackPointExtension xmlns:gpxtpx="http://www.garmin.com/xmlschemas/TrackPointExtension/v1">
            <gpxtpx:hr>150</gpxtpx:hr>
          </gpxtpx:TrackPointExtension>
        </extensions>
      </trkpt>
      <trkpt lat="46.55551" lon="0.20584">
        <ele>131.60000610352</ele>
        <time>2022-04-17T08:48:56Z</time>
        <extensions>
          <gpxtpx:TrackPointExtension xmlns:gpxtpx="http://www.garmin.com/xmlschemas/TrackPointExtension/v1">
            <gpxtpx:hr>140</gpxtpx:hr>
          </gpxtpx:TrackPointExtension>
        </extensions>
      </trkpt>
      <trkpt lat="46.55551" lon="0.20585">
        <ele>131.60000610352</ele>
        <time>2022-04-17T08:48:57Z</time>
        <extensions>
          <gpxtpx:TrackPointExtension xmlns:gpxtpx="http://www.garmin.com/xmlschemas/TrackPointExtension/v1">
            <gpxtpx:hr>140</gpxtpx:hr>
          </gpxtpx:TrackPointExtension>
        </extensions>
      </trkpt>
      <trkpt lat="46.5555" lon="0.20587">
        <ele>131.39999389648</ele>
        <time>2022-04-17T08:48:58Z</time>
        <extensions>
          <gpxtpx:TrackPointExtension xmlns:gpxtpx="http://www.garmin.com/xmlschemas/TrackPointExtension/v1">
            <gpxtpx:hr>141</gpxtpx:hr>
          </gpxtpx:TrackPointExtension>
        </extensions>
      </trkpt>
      <trkpt lat="46.55549" lon="0.20588">
        <ele>131.39999389648</ele>
        <time>2022-04-17T08:48:59Z</time>
        <extensions>
          <gpxtpx:TrackPointExtension xmlns:gpxtpx="http://www.garmin.com/xmlschemas/TrackPointExtension/v1">
            <gpxtpx:hr>141</gpxtpx:hr>
          </gpxtpx:TrackPointExtension>
        </extensions>
      </trkpt>
      <trkpt lat="46.55545" lon="0.2059">
        <ele>130.80000305176</ele>
        <time>2022-04-17T08:49:01Z</time>
        <extensions>
          <gpxtpx:TrackPointExtension xmlns:gpxtpx="http://www.garmin.com/xmlschemas/TrackPointExtension/v1">
            <gpxtpx:hr>141</gpxtpx:hr>
          </gpxtpx:TrackPointExtension>
        </extensions>
      </trkpt>
      <trkpt lat="46.55544" lon="0.20591">
        <ele>130.39999389648</ele>
        <time>2022-04-17T08:49:02Z</time>
        <extensions>
          <gpxtpx:TrackPointExtension xmlns:gpxtpx="http://www.garmin.com/xmlschemas/TrackPointExtension/v1">
            <gpxtpx:hr>140</gpxtpx:hr>
          </gpxtpx:TrackPointExtension>
        </extensions>
      </trkpt>
      <trkpt lat="46.55539" lon="0.20595">
        <ele>129.80000305176</ele>
        <time>2022-04-17T08:49:04Z</time>
        <extensions>
          <gpxtpx:TrackPointExtension xmlns:gpxtpx="http://www.garmin.com/xmlschemas/TrackPointExtension/v1">
            <gpxtpx:hr>140</gpxtpx:hr>
          </gpxtpx:TrackPointExtension>
        </extensions>
      </trkpt>
      <trkpt lat="46.55537" lon="0.20596">
        <ele>129</ele>
        <time>2022-04-17T08:49:05Z</time>
        <extensions>
          <gpxtpx:TrackPointExtension xmlns:gpxtpx="http://www.garmin.com/xmlschemas/TrackPointExtension/v1">
            <gpxtpx:hr>140</gpxtpx:hr>
          </gpxtpx:TrackPointExtension>
        </extensions>
      </trkpt>
      <trkpt lat="46.55534" lon="0.20597">
        <ele>127.59999847412</ele>
        <time>2022-04-17T08:49:07Z</time>
        <extensions>
          <gpxtpx:TrackPointExtension xmlns:gpxtpx="http://www.garmin.com/xmlschemas/TrackPointExtension/v1">
            <gpxtpx:hr>139</gpxtpx:hr>
          </gpxtpx:TrackPointExtension>
        </extensions>
      </trkpt>
      <trkpt lat="46.55532" lon="0.20598">
        <ele>127.19999694824</ele>
        <time>2022-04-17T08:49:08Z</time>
        <extensions>
          <gpxtpx:TrackPointExtension xmlns:gpxtpx="http://www.garmin.com/xmlschemas/TrackPointExtension/v1">
            <gpxtpx:hr>139</gpxtpx:hr>
          </gpxtpx:TrackPointExtension>
        </extensions>
      </trkpt>
      <trkpt lat="46.5553" lon="0.206">
        <ele>126.19999694824</ele>
        <time>2022-04-17T08:49:09Z</time>
        <extensions>
          <gpxtpx:TrackPointExtension xmlns:gpxtpx="http://www.garmin.com/xmlschemas/TrackPointExtension/v1">
            <gpxtpx:hr>139</gpxtpx:hr>
          </gpxtpx:TrackPointExtension>
        </extensions>
      </trkpt>
      <trkpt lat="46.5552" lon="0.2061">
        <ele>125.19999694824</ele>
        <time>2022-04-17T08:49:12Z</time>
        <extensions>
          <gpxtpx:TrackPointExtension xmlns:gpxtpx="http://www.garmin.com/xmlschemas/TrackPointExtension/v1">
            <gpxtpx:hr>139</gpxtpx:hr>
          </gpxtpx:TrackPointExtension>
        </extensions>
      </trkpt>
      <trkpt lat="46.55518" lon="0.20614">
        <ele>124.59999847412</ele>
        <time>2022-04-17T08:49:13Z</time>
        <extensions>
          <gpxtpx:TrackPointExtension xmlns:gpxtpx="http://www.garmin.com/xmlschemas/TrackPointExtension/v1">
            <gpxtpx:hr>138</gpxtpx:hr>
          </gpxtpx:TrackPointExtension>
        </extensions>
      </trkpt>
      <trkpt lat="46.55516" lon="0.20616">
        <ele>123.80000305176</ele>
        <time>2022-04-17T08:49:14Z</time>
        <extensions>
          <gpxtpx:TrackPointExtension xmlns:gpxtpx="http://www.garmin.com/xmlschemas/TrackPointExtension/v1">
            <gpxtpx:hr>138</gpxtpx:hr>
          </gpxtpx:TrackPointExtension>
        </extensions>
      </trkpt>
      <trkpt lat="46.55515" lon="0.20617">
        <ele>123.40000152588</ele>
        <time>2022-04-17T08:49:15Z</time>
        <extensions>
          <gpxtpx:TrackPointExtension xmlns:gpxtpx="http://www.garmin.com/xmlschemas/TrackPointExtension/v1">
            <gpxtpx:hr>138</gpxtpx:hr>
          </gpxtpx:TrackPointExtension>
        </extensions>
      </trkpt>
      <trkpt lat="46.55514" lon="0.20618">
        <ele>122.19999694824</ele>
        <time>2022-04-17T08:49:17Z</time>
        <extensions>
          <gpxtpx:TrackPointExtension xmlns:gpxtpx="http://www.garmin.com/xmlschemas/TrackPointExtension/v1">
            <gpxtpx:hr>138</gpxtpx:hr>
          </gpxtpx:TrackPointExtension>
        </extensions>
      </trkpt>
      <trkpt lat="46.55513" lon="0.20619">
        <ele>121.80000305176</ele>
        <time>2022-04-17T08:49:18Z</time>
        <extensions>
          <gpxtpx:TrackPointExtension xmlns:gpxtpx="http://www.garmin.com/xmlschemas/TrackPointExtension/v1">
            <gpxtpx:hr>138</gpxtpx:hr>
          </gpxtpx:TrackPointExtension>
        </extensions>
      </trkpt>
      <trkpt lat="46.55513" lon="0.20619">
        <ele>121.40000152588</ele>
        <time>2022-04-17T08:49:19Z</time>
        <extensions>
          <gpxtpx:TrackPointExtension xmlns:gpxtpx="http://www.garmin.com/xmlschemas/TrackPointExtension/v1">
            <gpxtpx:hr>138</gpxtpx:hr>
          </gpxtpx:TrackPointExtension>
        </extensions>
      </trkpt>
      <trkpt lat="46.55508" lon="0.2062">
        <ele>121.19999694824</ele>
        <time>2022-04-17T08:49:20Z</time>
        <extensions>
          <gpxtpx:TrackPointExtension xmlns:gpxtpx="http://www.garmin.com/xmlschemas/TrackPointExtension/v1">
            <gpxtpx:hr>138</gpxtpx:hr>
          </gpxtpx:TrackPointExtension>
        </extensions>
      </trkpt>
      <trkpt lat="46.55501" lon="0.20608">
        <ele>120.80000305176</ele>
        <time>2022-04-17T08:49:25Z</time>
        <extensions>
          <gpxtpx:TrackPointExtension xmlns:gpxtpx="http://www.garmin.com/xmlschemas/TrackPointExtension/v1">
            <gpxtpx:hr>138</gpxtpx:hr>
          </gpxtpx:TrackPointExtension>
        </extensions>
      </trkpt>
      <trkpt lat="46.55499" lon="0.20607">
        <ele>120.80000305176</ele>
        <time>2022-04-17T08:49:26Z</time>
        <extensions>
          <gpxtpx:TrackPointExtension xmlns:gpxtpx="http://www.garmin.com/xmlschemas/TrackPointExtension/v1">
            <gpxtpx:hr>137</gpxtpx:hr>
          </gpxtpx:TrackPointExtension>
        </extensions>
      </trkpt>
      <trkpt lat="46.55497" lon="0.20606">
        <ele>120.80000305176</ele>
        <time>2022-04-17T08:49:27Z</time>
        <extensions>
          <gpxtpx:TrackPointExtension xmlns:gpxtpx="http://www.garmin.com/xmlschemas/TrackPointExtension/v1">
            <gpxtpx:hr>136</gpxtpx:hr>
          </gpxtpx:TrackPointExtension>
        </extensions>
      </trkpt>
      <trkpt lat="46.55494" lon="0.20605">
        <ele>121</ele>
        <time>2022-04-17T08:49:28Z</time>
        <extensions>
          <gpxtpx:TrackPointExtension xmlns:gpxtpx="http://www.garmin.com/xmlschemas/TrackPointExtension/v1">
            <gpxtpx:hr>136</gpxtpx:hr>
          </gpxtpx:TrackPointExtension>
        </extensions>
      </trkpt>
      <trkpt lat="46.55491" lon="0.20605">
        <ele>121.19999694824</ele>
        <time>2022-04-17T08:49:29Z</time>
        <extensions>
          <gpxtpx:TrackPointExtension xmlns:gpxtpx="http://www.garmin.com/xmlschemas/TrackPointExtension/v1">
            <gpxtpx:hr>137</gpxtpx:hr>
          </gpxtpx:TrackPointExtension>
        </extensions>
      </trkpt>
      <trkpt lat="46.55488" lon="0.20606">
        <ele>121.19999694824</ele>
        <time>2022-04-17T08:49:30Z</time>
        <extensions>
          <gpxtpx:TrackPointExtension xmlns:gpxtpx="http://www.garmin.com/xmlschemas/TrackPointExtension/v1">
            <gpxtpx:hr>137</gpxtpx:hr>
          </gpxtpx:TrackPointExtension>
        </extensions>
      </trkpt>
      <trkpt lat="46.55485" lon="0.20608">
        <ele>121.19999694824</ele>
        <time>2022-04-17T08:49:31Z</time>
        <extensions>
          <gpxtpx:TrackPointExtension xmlns:gpxtpx="http://www.garmin.com/xmlschemas/TrackPointExtension/v1">
            <gpxtpx:hr>137</gpxtpx:hr>
          </gpxtpx:TrackPointExtension>
        </extensions>
      </trkpt>
      <trkpt lat="46.55483" lon="0.20609">
        <ele>121.40000152588</ele>
        <time>2022-04-17T08:49:32Z</time>
        <extensions>
          <gpxtpx:TrackPointExtension xmlns:gpxtpx="http://www.garmin.com/xmlschemas/TrackPointExtension/v1">
            <gpxtpx:hr>137</gpxtpx:hr>
          </gpxtpx:TrackPointExtension>
        </extensions>
      </trkpt>
      <trkpt lat="46.5548" lon="0.2061">
        <ele>121.40000152588</ele>
        <time>2022-04-17T08:49:33Z</time>
        <extensions>
          <gpxtpx:TrackPointExtension xmlns:gpxtpx="http://www.garmin.com/xmlschemas/TrackPointExtension/v1">
            <gpxtpx:hr>137</gpxtpx:hr>
          </gpxtpx:TrackPointExtension>
        </extensions>
      </trkpt>
      <trkpt lat="46.55478" lon="0.2061">
        <ele>121.40000152588</ele>
        <time>2022-04-17T08:49:34Z</time>
        <extensions>
          <gpxtpx:TrackPointExtension xmlns:gpxtpx="http://www.garmin.com/xmlschemas/TrackPointExtension/v1">
            <gpxtpx:hr>136</gpxtpx:hr>
          </gpxtpx:TrackPointExtension>
        </extensions>
      </trkpt>
      <trkpt lat="46.55476" lon="0.20609">
        <ele>121.40000152588</ele>
        <time>2022-04-17T08:49:35Z</time>
        <extensions>
          <gpxtpx:TrackPointExtension xmlns:gpxtpx="http://www.garmin.com/xmlschemas/TrackPointExtension/v1">
            <gpxtpx:hr>137</gpxtpx:hr>
          </gpxtpx:TrackPointExtension>
        </extensions>
      </trkpt>
      <trkpt lat="46.55474" lon="0.20608">
        <ele>121.40000152588</ele>
        <time>2022-04-17T08:49:36Z</time>
        <extensions>
          <gpxtpx:TrackPointExtension xmlns:gpxtpx="http://www.garmin.com/xmlschemas/TrackPointExtension/v1">
            <gpxtpx:hr>137</gpxtpx:hr>
          </gpxtpx:TrackPointExtension>
        </extensions>
      </trkpt>
      <trkpt lat="46.55473" lon="0.20607">
        <ele>121.40000152588</ele>
        <time>2022-04-17T08:49:37Z</time>
        <extensions>
          <gpxtpx:TrackPointExtension xmlns:gpxtpx="http://www.garmin.com/xmlschemas/TrackPointExtension/v1">
            <gpxtpx:hr>138</gpxtpx:hr>
          </gpxtpx:TrackPointExtension>
        </extensions>
      </trkpt>
      <trkpt lat="46.55467" lon="0.20604">
        <ele>121.40000152588</ele>
        <time>2022-04-17T08:49:39Z</time>
        <extensions>
          <gpxtpx:TrackPointExtension xmlns:gpxtpx="http://www.garmin.com/xmlschemas/TrackPointExtension/v1">
            <gpxtpx:hr>141</gpxtpx:hr>
          </gpxtpx:TrackPointExtension>
        </extensions>
      </trkpt>
      <trkpt lat="46.55465" lon="0.20602">
        <ele>121.19999694824</ele>
        <time>2022-04-17T08:49:40Z</time>
        <extensions>
          <gpxtpx:TrackPointExtension xmlns:gpxtpx="http://www.garmin.com/xmlschemas/TrackPointExtension/v1">
            <gpxtpx:hr>140</gpxtpx:hr>
          </gpxtpx:TrackPointExtension>
        </extensions>
      </trkpt>
      <trkpt lat="46.55463" lon="0.206">
        <ele>121.19999694824</ele>
        <time>2022-04-17T08:49:41Z</time>
        <extensions>
          <gpxtpx:TrackPointExtension xmlns:gpxtpx="http://www.garmin.com/xmlschemas/TrackPointExtension/v1">
            <gpxtpx:hr>141</gpxtpx:hr>
          </gpxtpx:TrackPointExtension>
        </extensions>
      </trkpt>
      <trkpt lat="46.55461" lon="0.20598">
        <ele>121.19999694824</ele>
        <time>2022-04-17T08:49:42Z</time>
        <extensions>
          <gpxtpx:TrackPointExtension xmlns:gpxtpx="http://www.garmin.com/xmlschemas/TrackPointExtension/v1">
            <gpxtpx:hr>140</gpxtpx:hr>
          </gpxtpx:TrackPointExtension>
        </extensions>
      </trkpt>
      <trkpt lat="46.55457" lon="0.20596">
        <ele>121.40000152588</ele>
        <time>2022-04-17T08:49:43Z</time>
        <extensions>
          <gpxtpx:TrackPointExtension xmlns:gpxtpx="http://www.garmin.com/xmlschemas/TrackPointExtension/v1">
            <gpxtpx:hr>140</gpxtpx:hr>
          </gpxtpx:TrackPointExtension>
        </extensions>
      </trkpt>
      <trkpt lat="46.55456" lon="0.20594">
        <ele>121.40000152588</ele>
        <time>2022-04-17T08:49:44Z</time>
        <extensions>
          <gpxtpx:TrackPointExtension xmlns:gpxtpx="http://www.garmin.com/xmlschemas/TrackPointExtension/v1">
            <gpxtpx:hr>140</gpxtpx:hr>
          </gpxtpx:TrackPointExtension>
        </extensions>
      </trkpt>
      <trkpt lat="46.55454" lon="0.20592">
        <ele>121.40000152588</ele>
        <time>2022-04-17T08:49:45Z</time>
        <extensions>
          <gpxtpx:TrackPointExtension xmlns:gpxtpx="http://www.garmin.com/xmlschemas/TrackPointExtension/v1">
            <gpxtpx:hr>140</gpxtpx:hr>
          </gpxtpx:TrackPointExtension>
        </extensions>
      </trkpt>
      <trkpt lat="46.55452" lon="0.20591">
        <ele>121.40000152588</ele>
        <time>2022-04-17T08:49:46Z</time>
        <extensions>
          <gpxtpx:TrackPointExtension xmlns:gpxtpx="http://www.garmin.com/xmlschemas/TrackPointExtension/v1">
            <gpxtpx:hr>140</gpxtpx:hr>
          </gpxtpx:TrackPointExtension>
        </extensions>
      </trkpt>
      <trkpt lat="46.55451" lon="0.20589">
        <ele>121.40000152588</ele>
        <time>2022-04-17T08:49:47Z</time>
        <extensions>
          <gpxtpx:TrackPointExtension xmlns:gpxtpx="http://www.garmin.com/xmlschemas/TrackPointExtension/v1">
            <gpxtpx:hr>139</gpxtpx:hr>
          </gpxtpx:TrackPointExtension>
        </extensions>
      </trkpt>
      <trkpt lat="46.55449" lon="0.20588">
        <ele>121.40000152588</ele>
        <time>2022-04-17T08:49:48Z</time>
        <extensions>
          <gpxtpx:TrackPointExtension xmlns:gpxtpx="http://www.garmin.com/xmlschemas/TrackPointExtension/v1">
            <gpxtpx:hr>138</gpxtpx:hr>
          </gpxtpx:TrackPointExtension>
        </extensions>
      </trkpt>
      <trkpt lat="46.55448" lon="0.20588">
        <ele>121.40000152588</ele>
        <time>2022-04-17T08:49:49Z</time>
        <extensions>
          <gpxtpx:TrackPointExtension xmlns:gpxtpx="http://www.garmin.com/xmlschemas/TrackPointExtension/v1">
            <gpxtpx:hr>137</gpxtpx:hr>
          </gpxtpx:TrackPointExtension>
        </extensions>
      </trkpt>
      <trkpt lat="46.55446" lon="0.20588">
        <ele>121.40000152588</ele>
        <time>2022-04-17T08:49:50Z</time>
        <extensions>
          <gpxtpx:TrackPointExtension xmlns:gpxtpx="http://www.garmin.com/xmlschemas/TrackPointExtension/v1">
            <gpxtpx:hr>137</gpxtpx:hr>
          </gpxtpx:TrackPointExtension>
        </extensions>
      </trkpt>
      <trkpt lat="46.55427" lon="0.20597">
        <ele>121.19999694824</ele>
        <time>2022-04-17T08:50:43Z</time>
        <extensions>
          <gpxtpx:TrackPointExtension xmlns:gpxtpx="http://www.garmin.com/xmlschemas/TrackPointExtension/v1">
            <gpxtpx:hr>132</gpxtpx:hr>
          </gpxtpx:TrackPointExtension>
        </extensions>
      </trkpt>
      <trkpt lat="46.55426" lon="0.20599">
        <ele>121</ele>
        <time>2022-04-17T08:50:44Z</time>
        <extensions>
          <gpxtpx:TrackPointExtension xmlns:gpxtpx="http://www.garmin.com/xmlschemas/TrackPointExtension/v1">
            <gpxtpx:hr>132</gpxtpx:hr>
          </gpxtpx:TrackPointExtension>
        </extensions>
      </trkpt>
      <trkpt lat="46.55424" lon="0.20601">
        <ele>120.80000305176</ele>
        <time>2022-04-17T08:50:45Z</time>
        <extensions>
          <gpxtpx:TrackPointExtension xmlns:gpxtpx="http://www.garmin.com/xmlschemas/TrackPointExtension/v1">
            <gpxtpx:hr>133</gpxtpx:hr>
          </gpxtpx:TrackPointExtension>
        </extensions>
      </trkpt>
      <trkpt lat="46.55423" lon="0.20603">
        <ele>120.80000305176</ele>
        <time>2022-04-17T08:50:46Z</time>
        <extensions>
          <gpxtpx:TrackPointExtension xmlns:gpxtpx="http://www.garmin.com/xmlschemas/TrackPointExtension/v1">
            <gpxtpx:hr>133</gpxtpx:hr>
          </gpxtpx:TrackPointExtension>
        </extensions>
      </trkpt>
      <trkpt lat="46.55414" lon="0.20614">
        <ele>120.59999847412</ele>
        <time>2022-04-17T08:50:50Z</time>
        <extensions>
          <gpxtpx:TrackPointExtension xmlns:gpxtpx="http://www.garmin.com/xmlschemas/TrackPointExtension/v1">
            <gpxtpx:hr>132</gpxtpx:hr>
          </gpxtpx:TrackPointExtension>
        </extensions>
      </trkpt>
      <trkpt lat="46.55404" lon="0.20622">
        <ele>120.59999847412</ele>
        <time>2022-04-17T08:50:54Z</time>
        <extensions>
          <gpxtpx:TrackPointExtension xmlns:gpxtpx="http://www.garmin.com/xmlschemas/TrackPointExtension/v1">
            <gpxtpx:hr>133</gpxtpx:hr>
          </gpxtpx:TrackPointExtension>
        </extensions>
      </trkpt>
      <trkpt lat="46.554" lon="0.20625">
        <ele>120.59999847412</ele>
        <time>2022-04-17T08:50:55Z</time>
        <extensions>
          <gpxtpx:TrackPointExtension xmlns:gpxtpx="http://www.garmin.com/xmlschemas/TrackPointExtension/v1">
            <gpxtpx:hr>133</gpxtpx:hr>
          </gpxtpx:TrackPointExtension>
        </extensions>
      </trkpt>
      <trkpt lat="46.55398" lon="0.20627">
        <ele>120.59999847412</ele>
        <time>2022-04-17T08:50:56Z</time>
        <extensions>
          <gpxtpx:TrackPointExtension xmlns:gpxtpx="http://www.garmin.com/xmlschemas/TrackPointExtension/v1">
            <gpxtpx:hr>134</gpxtpx:hr>
          </gpxtpx:TrackPointExtension>
        </extensions>
      </trkpt>
      <trkpt lat="46.55394" lon="0.20632">
        <ele>120.59999847412</ele>
        <time>2022-04-17T08:50:58Z</time>
        <extensions>
          <gpxtpx:TrackPointExtension xmlns:gpxtpx="http://www.garmin.com/xmlschemas/TrackPointExtension/v1">
            <gpxtpx:hr>133</gpxtpx:hr>
          </gpxtpx:TrackPointExtension>
        </extensions>
      </trkpt>
      <trkpt lat="46.55392" lon="0.20636">
        <ele>120.59999847412</ele>
        <time>2022-04-17T08:50:59Z</time>
        <extensions>
          <gpxtpx:TrackPointExtension xmlns:gpxtpx="http://www.garmin.com/xmlschemas/TrackPointExtension/v1">
            <gpxtpx:hr>133</gpxtpx:hr>
          </gpxtpx:TrackPointExtension>
        </extensions>
      </trkpt>
      <trkpt lat="46.5539" lon="0.20644">
        <ele>120.59999847412</ele>
        <time>2022-04-17T08:51:00Z</time>
        <extensions>
          <gpxtpx:TrackPointExtension xmlns:gpxtpx="http://www.garmin.com/xmlschemas/TrackPointExtension/v1">
            <gpxtpx:hr>133</gpxtpx:hr>
          </gpxtpx:TrackPointExtension>
        </extensions>
      </trkpt>
      <trkpt lat="46.55385" lon="0.20652">
        <ele>120.80000305176</ele>
        <time>2022-04-17T08:51:01Z</time>
        <extensions>
          <gpxtpx:TrackPointExtension xmlns:gpxtpx="http://www.garmin.com/xmlschemas/TrackPointExtension/v1">
            <gpxtpx:hr>133</gpxtpx:hr>
          </gpxtpx:TrackPointExtension>
        </extensions>
      </trkpt>
      <trkpt lat="46.5538" lon="0.20658">
        <ele>121</ele>
        <time>2022-04-17T08:51:02Z</time>
        <extensions>
          <gpxtpx:TrackPointExtension xmlns:gpxtpx="http://www.garmin.com/xmlschemas/TrackPointExtension/v1">
            <gpxtpx:hr>133</gpxtpx:hr>
          </gpxtpx:TrackPointExtension>
        </extensions>
      </trkpt>
      <trkpt lat="46.55375" lon="0.20663">
        <ele>121</ele>
        <time>2022-04-17T08:51:03Z</time>
        <extensions>
          <gpxtpx:TrackPointExtension xmlns:gpxtpx="http://www.garmin.com/xmlschemas/TrackPointExtension/v1">
            <gpxtpx:hr>133</gpxtpx:hr>
          </gpxtpx:TrackPointExtension>
        </extensions>
      </trkpt>
      <trkpt lat="46.55371" lon="0.20668">
        <ele>121</ele>
        <time>2022-04-17T08:51:04Z</time>
        <extensions>
          <gpxtpx:TrackPointExtension xmlns:gpxtpx="http://www.garmin.com/xmlschemas/TrackPointExtension/v1">
            <gpxtpx:hr>133</gpxtpx:hr>
          </gpxtpx:TrackPointExtension>
        </extensions>
      </trkpt>
      <trkpt lat="46.55363" lon="0.20678">
        <ele>121.40000152588</ele>
        <time>2022-04-17T08:51:07Z</time>
        <extensions>
          <gpxtpx:TrackPointExtension xmlns:gpxtpx="http://www.garmin.com/xmlschemas/TrackPointExtension/v1">
            <gpxtpx:hr>133</gpxtpx:hr>
          </gpxtpx:TrackPointExtension>
        </extensions>
      </trkpt>
      <trkpt lat="46.5536" lon="0.20683">
        <ele>121.40000152588</ele>
        <time>2022-04-17T08:51:08Z</time>
        <extensions>
          <gpxtpx:TrackPointExtension xmlns:gpxtpx="http://www.garmin.com/xmlschemas/TrackPointExtension/v1">
            <gpxtpx:hr>133</gpxtpx:hr>
          </gpxtpx:TrackPointExtension>
        </extensions>
      </trkpt>
      <trkpt lat="46.55359" lon="0.20687">
        <ele>121.59999847412</ele>
        <time>2022-04-17T08:51:09Z</time>
        <extensions>
          <gpxtpx:TrackPointExtension xmlns:gpxtpx="http://www.garmin.com/xmlschemas/TrackPointExtension/v1">
            <gpxtpx:hr>134</gpxtpx:hr>
          </gpxtpx:TrackPointExtension>
        </extensions>
      </trkpt>
      <trkpt lat="46.55354" lon="0.20692">
        <ele>121.59999847412</ele>
        <time>2022-04-17T08:51:10Z</time>
        <extensions>
          <gpxtpx:TrackPointExtension xmlns:gpxtpx="http://www.garmin.com/xmlschemas/TrackPointExtension/v1">
            <gpxtpx:hr>134</gpxtpx:hr>
          </gpxtpx:TrackPointExtension>
        </extensions>
      </trkpt>
      <trkpt lat="46.55349" lon="0.207">
        <ele>121.80000305176</ele>
        <time>2022-04-17T08:51:12Z</time>
        <extensions>
          <gpxtpx:TrackPointExtension xmlns:gpxtpx="http://www.garmin.com/xmlschemas/TrackPointExtension/v1">
            <gpxtpx:hr>133</gpxtpx:hr>
          </gpxtpx:TrackPointExtension>
        </extensions>
      </trkpt>
      <trkpt lat="46.55346" lon="0.20712">
        <ele>122.19999694824</ele>
        <time>2022-04-17T08:51:15Z</time>
        <extensions>
          <gpxtpx:TrackPointExtension xmlns:gpxtpx="http://www.garmin.com/xmlschemas/TrackPointExtension/v1">
            <gpxtpx:hr>134</gpxtpx:hr>
          </gpxtpx:TrackPointExtension>
        </extensions>
      </trkpt>
      <trkpt lat="46.55341" lon="0.20719">
        <ele>122.19999694824</ele>
        <time>2022-04-17T08:51:16Z</time>
        <extensions>
          <gpxtpx:TrackPointExtension xmlns:gpxtpx="http://www.garmin.com/xmlschemas/TrackPointExtension/v1">
            <gpxtpx:hr>131</gpxtpx:hr>
          </gpxtpx:TrackPointExtension>
        </extensions>
      </trkpt>
      <trkpt lat="46.5534" lon="0.20723">
        <ele>122.59999847412</ele>
        <time>2022-04-17T08:51:17Z</time>
        <extensions>
          <gpxtpx:TrackPointExtension xmlns:gpxtpx="http://www.garmin.com/xmlschemas/TrackPointExtension/v1">
            <gpxtpx:hr>132</gpxtpx:hr>
          </gpxtpx:TrackPointExtension>
        </extensions>
      </trkpt>
      <trkpt lat="46.5534" lon="0.20728">
        <ele>122.80000305176</ele>
        <time>2022-04-17T08:51:18Z</time>
        <extensions>
          <gpxtpx:TrackPointExtension xmlns:gpxtpx="http://www.garmin.com/xmlschemas/TrackPointExtension/v1">
            <gpxtpx:hr>131</gpxtpx:hr>
          </gpxtpx:TrackPointExtension>
        </extensions>
      </trkpt>
      <trkpt lat="46.55336" lon="0.2074">
        <ele>123.19999694824</ele>
        <time>2022-04-17T08:51:20Z</time>
        <extensions>
          <gpxtpx:TrackPointExtension xmlns:gpxtpx="http://www.garmin.com/xmlschemas/TrackPointExtension/v1">
            <gpxtpx:hr>131</gpxtpx:hr>
          </gpxtpx:TrackPointExtension>
        </extensions>
      </trkpt>
      <trkpt lat="46.55337" lon="0.20745">
        <ele>123.19999694824</ele>
        <time>2022-04-17T08:51:21Z</time>
        <extensions>
          <gpxtpx:TrackPointExtension xmlns:gpxtpx="http://www.garmin.com/xmlschemas/TrackPointExtension/v1">
            <gpxtpx:hr>130</gpxtpx:hr>
          </gpxtpx:TrackPointExtension>
        </extensions>
      </trkpt>
      <trkpt lat="46.55338" lon="0.20748">
        <ele>123.40000152588</ele>
        <time>2022-04-17T08:51:22Z</time>
        <extensions>
          <gpxtpx:TrackPointExtension xmlns:gpxtpx="http://www.garmin.com/xmlschemas/TrackPointExtension/v1">
            <gpxtpx:hr>129</gpxtpx:hr>
          </gpxtpx:TrackPointExtension>
        </extensions>
      </trkpt>
      <trkpt lat="46.55339" lon="0.20753">
        <ele>123.40000152588</ele>
        <time>2022-04-17T08:51:23Z</time>
        <extensions>
          <gpxtpx:TrackPointExtension xmlns:gpxtpx="http://www.garmin.com/xmlschemas/TrackPointExtension/v1">
            <gpxtpx:hr>129</gpxtpx:hr>
          </gpxtpx:TrackPointExtension>
        </extensions>
      </trkpt>
      <trkpt lat="46.55337" lon="0.20764">
        <ele>123.59999847412</ele>
        <time>2022-04-17T08:51:25Z</time>
        <extensions>
          <gpxtpx:TrackPointExtension xmlns:gpxtpx="http://www.garmin.com/xmlschemas/TrackPointExtension/v1">
            <gpxtpx:hr>129</gpxtpx:hr>
          </gpxtpx:TrackPointExtension>
        </extensions>
      </trkpt>
      <trkpt lat="46.55337" lon="0.20771">
        <ele>123.80000305176</ele>
        <time>2022-04-17T08:51:26Z</time>
        <extensions>
          <gpxtpx:TrackPointExtension xmlns:gpxtpx="http://www.garmin.com/xmlschemas/TrackPointExtension/v1">
            <gpxtpx:hr>129</gpxtpx:hr>
          </gpxtpx:TrackPointExtension>
        </extensions>
      </trkpt>
      <trkpt lat="46.55337" lon="0.20775">
        <ele>123.80000305176</ele>
        <time>2022-04-17T08:51:27Z</time>
        <extensions>
          <gpxtpx:TrackPointExtension xmlns:gpxtpx="http://www.garmin.com/xmlschemas/TrackPointExtension/v1">
            <gpxtpx:hr>129</gpxtpx:hr>
          </gpxtpx:TrackPointExtension>
        </extensions>
      </trkpt>
      <trkpt lat="46.55337" lon="0.2078">
        <ele>123.80000305176</ele>
        <time>2022-04-17T08:51:28Z</time>
        <extensions>
          <gpxtpx:TrackPointExtension xmlns:gpxtpx="http://www.garmin.com/xmlschemas/TrackPointExtension/v1">
            <gpxtpx:hr>128</gpxtpx:hr>
          </gpxtpx:TrackPointExtension>
        </extensions>
      </trkpt>
      <trkpt lat="46.55338" lon="0.20786">
        <ele>124.19999694824</ele>
        <time>2022-04-17T08:51:29Z</time>
        <extensions>
          <gpxtpx:TrackPointExtension xmlns:gpxtpx="http://www.garmin.com/xmlschemas/TrackPointExtension/v1">
            <gpxtpx:hr>128</gpxtpx:hr>
          </gpxtpx:TrackPointExtension>
        </extensions>
      </trkpt>
      <trkpt lat="46.55339" lon="0.2079">
        <ele>124.40000152588</ele>
        <time>2022-04-17T08:51:30Z</time>
        <extensions>
          <gpxtpx:TrackPointExtension xmlns:gpxtpx="http://www.garmin.com/xmlschemas/TrackPointExtension/v1">
            <gpxtpx:hr>129</gpxtpx:hr>
          </gpxtpx:TrackPointExtension>
        </extensions>
      </trkpt>
      <trkpt lat="46.5534" lon="0.20794">
        <ele>124.40000152588</ele>
        <time>2022-04-17T08:51:31Z</time>
        <extensions>
          <gpxtpx:TrackPointExtension xmlns:gpxtpx="http://www.garmin.com/xmlschemas/TrackPointExtension/v1">
            <gpxtpx:hr>129</gpxtpx:hr>
          </gpxtpx:TrackPointExtension>
        </extensions>
      </trkpt>
      <trkpt lat="46.5534" lon="0.20798">
        <ele>124.19999694824</ele>
        <time>2022-04-17T08:51:32Z</time>
        <extensions>
          <gpxtpx:TrackPointExtension xmlns:gpxtpx="http://www.garmin.com/xmlschemas/TrackPointExtension/v1">
            <gpxtpx:hr>129</gpxtpx:hr>
          </gpxtpx:TrackPointExtension>
        </extensions>
      </trkpt>
      <trkpt lat="46.55339" lon="0.20803">
        <ele>124.19999694824</ele>
        <time>2022-04-17T08:51:33Z</time>
        <extensions>
          <gpxtpx:TrackPointExtension xmlns:gpxtpx="http://www.garmin.com/xmlschemas/TrackPointExtension/v1">
            <gpxtpx:hr>129</gpxtpx:hr>
          </gpxtpx:TrackPointExtension>
        </extensions>
      </trkpt>
      <trkpt lat="46.55338" lon="0.20809">
        <ele>124</ele>
        <time>2022-04-17T08:51:34Z</time>
        <extensions>
          <gpxtpx:TrackPointExtension xmlns:gpxtpx="http://www.garmin.com/xmlschemas/TrackPointExtension/v1">
            <gpxtpx:hr>129</gpxtpx:hr>
          </gpxtpx:TrackPointExtension>
        </extensions>
      </trkpt>
      <trkpt lat="46.55339" lon="0.20815">
        <ele>124</ele>
        <time>2022-04-17T08:51:35Z</time>
        <extensions>
          <gpxtpx:TrackPointExtension xmlns:gpxtpx="http://www.garmin.com/xmlschemas/TrackPointExtension/v1">
            <gpxtpx:hr>129</gpxtpx:hr>
          </gpxtpx:TrackPointExtension>
        </extensions>
      </trkpt>
      <trkpt lat="46.55339" lon="0.2082">
        <ele>124.19999694824</ele>
        <time>2022-04-17T08:51:36Z</time>
        <extensions>
          <gpxtpx:TrackPointExtension xmlns:gpxtpx="http://www.garmin.com/xmlschemas/TrackPointExtension/v1">
            <gpxtpx:hr>128</gpxtpx:hr>
          </gpxtpx:TrackPointExtension>
        </extensions>
      </trkpt>
      <trkpt lat="46.5534" lon="0.20825">
        <ele>124.19999694824</ele>
        <time>2022-04-17T08:51:37Z</time>
        <extensions>
          <gpxtpx:TrackPointExtension xmlns:gpxtpx="http://www.garmin.com/xmlschemas/TrackPointExtension/v1">
            <gpxtpx:hr>128</gpxtpx:hr>
          </gpxtpx:TrackPointExtension>
        </extensions>
      </trkpt>
      <trkpt lat="46.55337" lon="0.20831">
        <ele>124.59999847412</ele>
        <time>2022-04-17T08:51:38Z</time>
        <extensions>
          <gpxtpx:TrackPointExtension xmlns:gpxtpx="http://www.garmin.com/xmlschemas/TrackPointExtension/v1">
            <gpxtpx:hr>128</gpxtpx:hr>
          </gpxtpx:TrackPointExtension>
        </extensions>
      </trkpt>
      <trkpt lat="46.55336" lon="0.20849">
        <ele>125</ele>
        <time>2022-04-17T08:51:41Z</time>
        <extensions>
          <gpxtpx:TrackPointExtension xmlns:gpxtpx="http://www.garmin.com/xmlschemas/TrackPointExtension/v1">
            <gpxtpx:hr>128</gpxtpx:hr>
          </gpxtpx:TrackPointExtension>
        </extensions>
      </trkpt>
      <trkpt lat="46.55339" lon="0.20868">
        <ele>125.40000152588</ele>
        <time>2022-04-17T08:51:45Z</time>
        <extensions>
          <gpxtpx:TrackPointExtension xmlns:gpxtpx="http://www.garmin.com/xmlschemas/TrackPointExtension/v1">
            <gpxtpx:hr>127</gpxtpx:hr>
          </gpxtpx:TrackPointExtension>
        </extensions>
      </trkpt>
      <trkpt lat="46.55341" lon="0.20872">
        <ele>125.59999847412</ele>
        <time>2022-04-17T08:51:46Z</time>
        <extensions>
          <gpxtpx:TrackPointExtension xmlns:gpxtpx="http://www.garmin.com/xmlschemas/TrackPointExtension/v1">
            <gpxtpx:hr>127</gpxtpx:hr>
          </gpxtpx:TrackPointExtension>
        </extensions>
      </trkpt>
      <trkpt lat="46.55343" lon="0.20878">
        <ele>125.59999847412</ele>
        <time>2022-04-17T08:51:47Z</time>
        <extensions>
          <gpxtpx:TrackPointExtension xmlns:gpxtpx="http://www.garmin.com/xmlschemas/TrackPointExtension/v1">
            <gpxtpx:hr>127</gpxtpx:hr>
          </gpxtpx:TrackPointExtension>
        </extensions>
      </trkpt>
      <trkpt lat="46.55344" lon="0.20884">
        <ele>125.59999847412</ele>
        <time>2022-04-17T08:51:48Z</time>
        <extensions>
          <gpxtpx:TrackPointExtension xmlns:gpxtpx="http://www.garmin.com/xmlschemas/TrackPointExtension/v1">
            <gpxtpx:hr>127</gpxtpx:hr>
          </gpxtpx:TrackPointExtension>
        </extensions>
      </trkpt>
      <trkpt lat="46.55347" lon="0.20893">
        <ele>125.59999847412</ele>
        <time>2022-04-17T08:51:50Z</time>
        <extensions>
          <gpxtpx:TrackPointExtension xmlns:gpxtpx="http://www.garmin.com/xmlschemas/TrackPointExtension/v1">
            <gpxtpx:hr>128</gpxtpx:hr>
          </gpxtpx:TrackPointExtension>
        </extensions>
      </trkpt>
      <trkpt lat="46.5535" lon="0.20903">
        <ele>125.59999847412</ele>
        <time>2022-04-17T08:51:52Z</time>
        <extensions>
          <gpxtpx:TrackPointExtension xmlns:gpxtpx="http://www.garmin.com/xmlschemas/TrackPointExtension/v1">
            <gpxtpx:hr>128</gpxtpx:hr>
          </gpxtpx:TrackPointExtension>
        </extensions>
      </trkpt>
      <trkpt lat="46.5535" lon="0.20909">
        <ele>125.59999847412</ele>
        <time>2022-04-17T08:51:53Z</time>
        <extensions>
          <gpxtpx:TrackPointExtension xmlns:gpxtpx="http://www.garmin.com/xmlschemas/TrackPointExtension/v1">
            <gpxtpx:hr>129</gpxtpx:hr>
          </gpxtpx:TrackPointExtension>
        </extensions>
      </trkpt>
      <trkpt lat="46.55351" lon="0.2092">
        <ele>125.80000305176</ele>
        <time>2022-04-17T08:51:55Z</time>
        <extensions>
          <gpxtpx:TrackPointExtension xmlns:gpxtpx="http://www.garmin.com/xmlschemas/TrackPointExtension/v1">
            <gpxtpx:hr>129</gpxtpx:hr>
          </gpxtpx:TrackPointExtension>
        </extensions>
      </trkpt>
      <trkpt lat="46.55351" lon="0.20926">
        <ele>125.80000305176</ele>
        <time>2022-04-17T08:51:56Z</time>
        <extensions>
          <gpxtpx:TrackPointExtension xmlns:gpxtpx="http://www.garmin.com/xmlschemas/TrackPointExtension/v1">
            <gpxtpx:hr>131</gpxtpx:hr>
          </gpxtpx:TrackPointExtension>
        </extensions>
      </trkpt>
      <trkpt lat="46.55351" lon="0.20931">
        <ele>125.80000305176</ele>
        <time>2022-04-17T08:51:57Z</time>
        <extensions>
          <gpxtpx:TrackPointExtension xmlns:gpxtpx="http://www.garmin.com/xmlschemas/TrackPointExtension/v1">
            <gpxtpx:hr>130</gpxtpx:hr>
          </gpxtpx:TrackPointExtension>
        </extensions>
      </trkpt>
      <trkpt lat="46.5535" lon="0.20936">
        <ele>125.80000305176</ele>
        <time>2022-04-17T08:51:58Z</time>
        <extensions>
          <gpxtpx:TrackPointExtension xmlns:gpxtpx="http://www.garmin.com/xmlschemas/TrackPointExtension/v1">
            <gpxtpx:hr>132</gpxtpx:hr>
          </gpxtpx:TrackPointExtension>
        </extensions>
      </trkpt>
      <trkpt lat="46.55349" lon="0.2094">
        <ele>125.80000305176</ele>
        <time>2022-04-17T08:51:59Z</time>
        <extensions>
          <gpxtpx:TrackPointExtension xmlns:gpxtpx="http://www.garmin.com/xmlschemas/TrackPointExtension/v1">
            <gpxtpx:hr>132</gpxtpx:hr>
          </gpxtpx:TrackPointExtension>
        </extensions>
      </trkpt>
      <trkpt lat="46.55348" lon="0.20944">
        <ele>125.59999847412</ele>
        <time>2022-04-17T08:52:00Z</time>
        <extensions>
          <gpxtpx:TrackPointExtension xmlns:gpxtpx="http://www.garmin.com/xmlschemas/TrackPointExtension/v1">
            <gpxtpx:hr>132</gpxtpx:hr>
          </gpxtpx:TrackPointExtension>
        </extensions>
      </trkpt>
      <trkpt lat="46.55348" lon="0.20947">
        <ele>125.59999847412</ele>
        <time>2022-04-17T08:52:01Z</time>
        <extensions>
          <gpxtpx:TrackPointExtension xmlns:gpxtpx="http://www.garmin.com/xmlschemas/TrackPointExtension/v1">
            <gpxtpx:hr>132</gpxtpx:hr>
          </gpxtpx:TrackPointExtension>
        </extensions>
      </trkpt>
      <trkpt lat="46.55348" lon="0.20951">
        <ele>125.59999847412</ele>
        <time>2022-04-17T08:52:02Z</time>
        <extensions>
          <gpxtpx:TrackPointExtension xmlns:gpxtpx="http://www.garmin.com/xmlschemas/TrackPointExtension/v1">
            <gpxtpx:hr>132</gpxtpx:hr>
          </gpxtpx:TrackPointExtension>
        </extensions>
      </trkpt>
      <trkpt lat="46.55348" lon="0.20955">
        <ele>125.59999847412</ele>
        <time>2022-04-17T08:52:03Z</time>
        <extensions>
          <gpxtpx:TrackPointExtension xmlns:gpxtpx="http://www.garmin.com/xmlschemas/TrackPointExtension/v1">
            <gpxtpx:hr>132</gpxtpx:hr>
          </gpxtpx:TrackPointExtension>
        </extensions>
      </trkpt>
      <trkpt lat="46.55355" lon="0.20943">
        <ele>125.59999847412</ele>
        <time>2022-04-17T08:52:23Z</time>
        <extensions>
          <gpxtpx:TrackPointExtension xmlns:gpxtpx="http://www.garmin.com/xmlschemas/TrackPointExtension/v1">
            <gpxtpx:hr>133</gpxtpx:hr>
          </gpxtpx:TrackPointExtension>
        </extensions>
      </trkpt>
      <trkpt lat="46.55355" lon="0.20942">
        <ele>125.40000152588</ele>
        <time>2022-04-17T08:52:24Z</time>
        <extensions>
          <gpxtpx:TrackPointExtension xmlns:gpxtpx="http://www.garmin.com/xmlschemas/TrackPointExtension/v1">
            <gpxtpx:hr>132</gpxtpx:hr>
          </gpxtpx:TrackPointExtension>
        </extensions>
      </trkpt>
      <trkpt lat="46.55355" lon="0.20942">
        <ele>125.40000152588</ele>
        <time>2022-04-17T08:52:26Z</time>
        <extensions>
          <gpxtpx:TrackPointExtension xmlns:gpxtpx="http://www.garmin.com/xmlschemas/TrackPointExtension/v1">
            <gpxtpx:hr>132</gpxtpx:hr>
          </gpxtpx:TrackPointExtension>
        </extensions>
      </trkpt>
      <trkpt lat="46.55358" lon="0.20942">
        <ele>125.19999694824</ele>
        <time>2022-04-17T08:52:28Z</time>
        <extensions>
          <gpxtpx:TrackPointExtension xmlns:gpxtpx="http://www.garmin.com/xmlschemas/TrackPointExtension/v1">
            <gpxtpx:hr>133</gpxtpx:hr>
          </gpxtpx:TrackPointExtension>
        </extensions>
      </trkpt>
      <trkpt lat="46.55363" lon="0.20944">
        <ele>125.19999694824</ele>
        <time>2022-04-17T08:52:30Z</time>
        <extensions>
          <gpxtpx:TrackPointExtension xmlns:gpxtpx="http://www.garmin.com/xmlschemas/TrackPointExtension/v1">
            <gpxtpx:hr>133</gpxtpx:hr>
          </gpxtpx:TrackPointExtension>
        </extensions>
      </trkpt>
      <trkpt lat="46.55364" lon="0.20946">
        <ele>125</ele>
        <time>2022-04-17T08:52:31Z</time>
        <extensions>
          <gpxtpx:TrackPointExtension xmlns:gpxtpx="http://www.garmin.com/xmlschemas/TrackPointExtension/v1">
            <gpxtpx:hr>134</gpxtpx:hr>
          </gpxtpx:TrackPointExtension>
        </extensions>
      </trkpt>
      <trkpt lat="46.55365" lon="0.20948">
        <ele>125</ele>
        <time>2022-04-17T08:52:32Z</time>
        <extensions>
          <gpxtpx:TrackPointExtension xmlns:gpxtpx="http://www.garmin.com/xmlschemas/TrackPointExtension/v1">
            <gpxtpx:hr>133</gpxtpx:hr>
          </gpxtpx:TrackPointExtension>
        </extensions>
      </trkpt>
      <trkpt lat="46.55366" lon="0.20949">
        <ele>124.80000305176</ele>
        <time>2022-04-17T08:52:33Z</time>
        <extensions>
          <gpxtpx:TrackPointExtension xmlns:gpxtpx="http://www.garmin.com/xmlschemas/TrackPointExtension/v1">
            <gpxtpx:hr>133</gpxtpx:hr>
          </gpxtpx:TrackPointExtension>
        </extensions>
      </trkpt>
      <trkpt lat="46.55366" lon="0.20951">
        <ele>124.80000305176</ele>
        <time>2022-04-17T08:52:34Z</time>
        <extensions>
          <gpxtpx:TrackPointExtension xmlns:gpxtpx="http://www.garmin.com/xmlschemas/TrackPointExtension/v1">
            <gpxtpx:hr>133</gpxtpx:hr>
          </gpxtpx:TrackPointExtension>
        </extensions>
      </trkpt>
      <trkpt lat="46.55366" lon="0.20953">
        <ele>124.59999847412</ele>
        <time>2022-04-17T08:52:35Z</time>
        <extensions>
          <gpxtpx:TrackPointExtension xmlns:gpxtpx="http://www.garmin.com/xmlschemas/TrackPointExtension/v1">
            <gpxtpx:hr>133</gpxtpx:hr>
          </gpxtpx:TrackPointExtension>
        </extensions>
      </trkpt>
      <trkpt lat="46.55366" lon="0.20954">
        <ele>124.59999847412</ele>
        <time>2022-04-17T08:52:36Z</time>
        <extensions>
          <gpxtpx:TrackPointExtension xmlns:gpxtpx="http://www.garmin.com/xmlschemas/TrackPointExtension/v1">
            <gpxtpx:hr>132</gpxtpx:hr>
          </gpxtpx:TrackPointExtension>
        </extensions>
      </trkpt>
      <trkpt lat="46.55366" lon="0.20957">
        <ele>124.59999847412</ele>
        <time>2022-04-17T08:52:37Z</time>
        <extensions>
          <gpxtpx:TrackPointExtension xmlns:gpxtpx="http://www.garmin.com/xmlschemas/TrackPointExtension/v1">
            <gpxtpx:hr>133</gpxtpx:hr>
          </gpxtpx:TrackPointExtension>
        </extensions>
      </trkpt>
      <trkpt lat="46.55367" lon="0.20959">
        <ele>124.59999847412</ele>
        <time>2022-04-17T08:52:38Z</time>
        <extensions>
          <gpxtpx:TrackPointExtension xmlns:gpxtpx="http://www.garmin.com/xmlschemas/TrackPointExtension/v1">
            <gpxtpx:hr>133</gpxtpx:hr>
          </gpxtpx:TrackPointExtension>
        </extensions>
      </trkpt>
      <trkpt lat="46.55369" lon="0.20961">
        <ele>124.59999847412</ele>
        <time>2022-04-17T08:52:39Z</time>
        <extensions>
          <gpxtpx:TrackPointExtension xmlns:gpxtpx="http://www.garmin.com/xmlschemas/TrackPointExtension/v1">
            <gpxtpx:hr>133</gpxtpx:hr>
          </gpxtpx:TrackPointExtension>
        </extensions>
      </trkpt>
      <trkpt lat="46.55371" lon="0.20963">
        <ele>124.40000152588</ele>
        <time>2022-04-17T08:52:40Z</time>
        <extensions>
          <gpxtpx:TrackPointExtension xmlns:gpxtpx="http://www.garmin.com/xmlschemas/TrackPointExtension/v1">
            <gpxtpx:hr>132</gpxtpx:hr>
          </gpxtpx:TrackPointExtension>
        </extensions>
      </trkpt>
      <trkpt lat="46.55373" lon="0.20966">
        <ele>124.40000152588</ele>
        <time>2022-04-17T08:52:41Z</time>
        <extensions>
          <gpxtpx:TrackPointExtension xmlns:gpxtpx="http://www.garmin.com/xmlschemas/TrackPointExtension/v1">
            <gpxtpx:hr>132</gpxtpx:hr>
          </gpxtpx:TrackPointExtension>
        </extensions>
      </trkpt>
      <trkpt lat="46.55375" lon="0.20968">
        <ele>124.40000152588</ele>
        <time>2022-04-17T08:52:42Z</time>
        <extensions>
          <gpxtpx:TrackPointExtension xmlns:gpxtpx="http://www.garmin.com/xmlschemas/TrackPointExtension/v1">
            <gpxtpx:hr>133</gpxtpx:hr>
          </gpxtpx:TrackPointExtension>
        </extensions>
      </trkpt>
      <trkpt lat="46.55382" lon="0.20969">
        <ele>124.40000152588</ele>
        <time>2022-04-17T08:52:45Z</time>
        <extensions>
          <gpxtpx:TrackPointExtension xmlns:gpxtpx="http://www.garmin.com/xmlschemas/TrackPointExtension/v1">
            <gpxtpx:hr>132</gpxtpx:hr>
          </gpxtpx:TrackPointExtension>
        </extensions>
      </trkpt>
      <trkpt lat="46.55384" lon="0.20969">
        <ele>124.19999694824</ele>
        <time>2022-04-17T08:52:46Z</time>
        <extensions>
          <gpxtpx:TrackPointExtension xmlns:gpxtpx="http://www.garmin.com/xmlschemas/TrackPointExtension/v1">
            <gpxtpx:hr>132</gpxtpx:hr>
          </gpxtpx:TrackPointExtension>
        </extensions>
      </trkpt>
      <trkpt lat="46.55385" lon="0.2097">
        <ele>124.19999694824</ele>
        <time>2022-04-17T08:52:47Z</time>
        <extensions>
          <gpxtpx:TrackPointExtension xmlns:gpxtpx="http://www.garmin.com/xmlschemas/TrackPointExtension/v1">
            <gpxtpx:hr>132</gpxtpx:hr>
          </gpxtpx:TrackPointExtension>
        </extensions>
      </trkpt>
      <trkpt lat="46.55386" lon="0.20972">
        <ele>124.19999694824</ele>
        <time>2022-04-17T08:52:48Z</time>
        <extensions>
          <gpxtpx:TrackPointExtension xmlns:gpxtpx="http://www.garmin.com/xmlschemas/TrackPointExtension/v1">
            <gpxtpx:hr>133</gpxtpx:hr>
          </gpxtpx:TrackPointExtension>
        </extensions>
      </trkpt>
      <trkpt lat="46.55391" lon="0.20982">
        <ele>124.19999694824</ele>
        <time>2022-04-17T08:52:53Z</time>
        <extensions>
          <gpxtpx:TrackPointExtension xmlns:gpxtpx="http://www.garmin.com/xmlschemas/TrackPointExtension/v1">
            <gpxtpx:hr>134</gpxtpx:hr>
          </gpxtpx:TrackPointExtension>
        </extensions>
      </trkpt>
      <trkpt lat="46.55391" lon="0.20984">
        <ele>124.40000152588</ele>
        <time>2022-04-17T08:52:54Z</time>
        <extensions>
          <gpxtpx:TrackPointExtension xmlns:gpxtpx="http://www.garmin.com/xmlschemas/TrackPointExtension/v1">
            <gpxtpx:hr>134</gpxtpx:hr>
          </gpxtpx:TrackPointExtension>
        </extensions>
      </trkpt>
      <trkpt lat="46.55389" lon="0.20986">
        <ele>124.40000152588</ele>
        <time>2022-04-17T08:52:55Z</time>
        <extensions>
          <gpxtpx:TrackPointExtension xmlns:gpxtpx="http://www.garmin.com/xmlschemas/TrackPointExtension/v1">
            <gpxtpx:hr>134</gpxtpx:hr>
          </gpxtpx:TrackPointExtension>
        </extensions>
      </trkpt>
      <trkpt lat="46.55387" lon="0.20989">
        <ele>124.59999847412</ele>
        <time>2022-04-17T08:52:56Z</time>
        <extensions>
          <gpxtpx:TrackPointExtension xmlns:gpxtpx="http://www.garmin.com/xmlschemas/TrackPointExtension/v1">
            <gpxtpx:hr>134</gpxtpx:hr>
          </gpxtpx:TrackPointExtension>
        </extensions>
      </trkpt>
      <trkpt lat="46.55385" lon="0.20991">
        <ele>124.59999847412</ele>
        <time>2022-04-17T08:52:57Z</time>
        <extensions>
          <gpxtpx:TrackPointExtension xmlns:gpxtpx="http://www.garmin.com/xmlschemas/TrackPointExtension/v1">
            <gpxtpx:hr>133</gpxtpx:hr>
          </gpxtpx:TrackPointExtension>
        </extensions>
      </trkpt>
      <trkpt lat="46.55384" lon="0.20993">
        <ele>124.59999847412</ele>
        <time>2022-04-17T08:52:58Z</time>
        <extensions>
          <gpxtpx:TrackPointExtension xmlns:gpxtpx="http://www.garmin.com/xmlschemas/TrackPointExtension/v1">
            <gpxtpx:hr>133</gpxtpx:hr>
          </gpxtpx:TrackPointExtension>
        </extensions>
      </trkpt>
      <trkpt lat="46.55381" lon="0.20996">
        <ele>124.80000305176</ele>
        <time>2022-04-17T08:52:59Z</time>
        <extensions>
          <gpxtpx:TrackPointExtension xmlns:gpxtpx="http://www.garmin.com/xmlschemas/TrackPointExtension/v1">
            <gpxtpx:hr>132</gpxtpx:hr>
          </gpxtpx:TrackPointExtension>
        </extensions>
      </trkpt>
      <trkpt lat="46.5538" lon="0.20998">
        <ele>124.80000305176</ele>
        <time>2022-04-17T08:53:00Z</time>
        <extensions>
          <gpxtpx:TrackPointExtension xmlns:gpxtpx="http://www.garmin.com/xmlschemas/TrackPointExtension/v1">
            <gpxtpx:hr>132</gpxtpx:hr>
          </gpxtpx:TrackPointExtension>
        </extensions>
      </trkpt>
      <trkpt lat="46.55379" lon="0.21001">
        <ele>125</ele>
        <time>2022-04-17T08:53:01Z</time>
        <extensions>
          <gpxtpx:TrackPointExtension xmlns:gpxtpx="http://www.garmin.com/xmlschemas/TrackPointExtension/v1">
            <gpxtpx:hr>132</gpxtpx:hr>
          </gpxtpx:TrackPointExtension>
        </extensions>
      </trkpt>
      <trkpt lat="46.55378" lon="0.21004">
        <ele>125.19999694824</ele>
        <time>2022-04-17T08:53:02Z</time>
        <extensions>
          <gpxtpx:TrackPointExtension xmlns:gpxtpx="http://www.garmin.com/xmlschemas/TrackPointExtension/v1">
            <gpxtpx:hr>132</gpxtpx:hr>
          </gpxtpx:TrackPointExtension>
        </extensions>
      </trkpt>
      <trkpt lat="46.55377" lon="0.21006">
        <ele>125.40000152588</ele>
        <time>2022-04-17T08:53:03Z</time>
        <extensions>
          <gpxtpx:TrackPointExtension xmlns:gpxtpx="http://www.garmin.com/xmlschemas/TrackPointExtension/v1">
            <gpxtpx:hr>132</gpxtpx:hr>
          </gpxtpx:TrackPointExtension>
        </extensions>
      </trkpt>
      <trkpt lat="46.55376" lon="0.21007">
        <ele>125.80000305176</ele>
        <time>2022-04-17T08:53:04Z</time>
        <extensions>
          <gpxtpx:TrackPointExtension xmlns:gpxtpx="http://www.garmin.com/xmlschemas/TrackPointExtension/v1">
            <gpxtpx:hr>133</gpxtpx:hr>
          </gpxtpx:TrackPointExtension>
        </extensions>
      </trkpt>
      <trkpt lat="46.55375" lon="0.21006">
        <ele>126</ele>
        <time>2022-04-17T08:53:05Z</time>
        <extensions>
          <gpxtpx:TrackPointExtension xmlns:gpxtpx="http://www.garmin.com/xmlschemas/TrackPointExtension/v1">
            <gpxtpx:hr>133</gpxtpx:hr>
          </gpxtpx:TrackPointExtension>
        </extensions>
      </trkpt>
      <trkpt lat="46.55374" lon="0.21006">
        <ele>126</ele>
        <time>2022-04-17T08:53:06Z</time>
        <extensions>
          <gpxtpx:TrackPointExtension xmlns:gpxtpx="http://www.garmin.com/xmlschemas/TrackPointExtension/v1">
            <gpxtpx:hr>133</gpxtpx:hr>
          </gpxtpx:TrackPointExtension>
        </extensions>
      </trkpt>
      <trkpt lat="46.55374" lon="0.21008">
        <ele>126</ele>
        <time>2022-04-17T08:53:07Z</time>
        <extensions>
          <gpxtpx:TrackPointExtension xmlns:gpxtpx="http://www.garmin.com/xmlschemas/TrackPointExtension/v1">
            <gpxtpx:hr>133</gpxtpx:hr>
          </gpxtpx:TrackPointExtension>
        </extensions>
      </trkpt>
      <trkpt lat="46.55373" lon="0.21009">
        <ele>126.19999694824</ele>
        <time>2022-04-17T08:53:08Z</time>
        <extensions>
          <gpxtpx:TrackPointExtension xmlns:gpxtpx="http://www.garmin.com/xmlschemas/TrackPointExtension/v1">
            <gpxtpx:hr>133</gpxtpx:hr>
          </gpxtpx:TrackPointExtension>
        </extensions>
      </trkpt>
      <trkpt lat="46.55371" lon="0.21009">
        <ele>126.19999694824</ele>
        <time>2022-04-17T08:53:09Z</time>
        <extensions>
          <gpxtpx:TrackPointExtension xmlns:gpxtpx="http://www.garmin.com/xmlschemas/TrackPointExtension/v1">
            <gpxtpx:hr>133</gpxtpx:hr>
          </gpxtpx:TrackPointExtension>
        </extensions>
      </trkpt>
      <trkpt lat="46.55369" lon="0.21009">
        <ele>126.19999694824</ele>
        <time>2022-04-17T08:53:10Z</time>
        <extensions>
          <gpxtpx:TrackPointExtension xmlns:gpxtpx="http://www.garmin.com/xmlschemas/TrackPointExtension/v1">
            <gpxtpx:hr>132</gpxtpx:hr>
          </gpxtpx:TrackPointExtension>
        </extensions>
      </trkpt>
      <trkpt lat="46.55366" lon="0.21009">
        <ele>126.19999694824</ele>
        <time>2022-04-17T08:53:11Z</time>
        <extensions>
          <gpxtpx:TrackPointExtension xmlns:gpxtpx="http://www.garmin.com/xmlschemas/TrackPointExtension/v1">
            <gpxtpx:hr>131</gpxtpx:hr>
          </gpxtpx:TrackPointExtension>
        </extensions>
      </trkpt>
      <trkpt lat="46.55364" lon="0.21011">
        <ele>126.19999694824</ele>
        <time>2022-04-17T08:53:12Z</time>
        <extensions>
          <gpxtpx:TrackPointExtension xmlns:gpxtpx="http://www.garmin.com/xmlschemas/TrackPointExtension/v1">
            <gpxtpx:hr>131</gpxtpx:hr>
          </gpxtpx:TrackPointExtension>
        </extensions>
      </trkpt>
      <trkpt lat="46.55363" lon="0.21012">
        <ele>126.19999694824</ele>
        <time>2022-04-17T08:53:13Z</time>
        <extensions>
          <gpxtpx:TrackPointExtension xmlns:gpxtpx="http://www.garmin.com/xmlschemas/TrackPointExtension/v1">
            <gpxtpx:hr>131</gpxtpx:hr>
          </gpxtpx:TrackPointExtension>
        </extensions>
      </trkpt>
      <trkpt lat="46.55361" lon="0.21014">
        <ele>126</ele>
        <time>2022-04-17T08:53:14Z</time>
        <extensions>
          <gpxtpx:TrackPointExtension xmlns:gpxtpx="http://www.garmin.com/xmlschemas/TrackPointExtension/v1">
            <gpxtpx:hr>129</gpxtpx:hr>
          </gpxtpx:TrackPointExtension>
        </extensions>
      </trkpt>
      <trkpt lat="46.55359" lon="0.21016">
        <ele>125.80000305176</ele>
        <time>2022-04-17T08:53:15Z</time>
        <extensions>
          <gpxtpx:TrackPointExtension xmlns:gpxtpx="http://www.garmin.com/xmlschemas/TrackPointExtension/v1">
            <gpxtpx:hr>129</gpxtpx:hr>
          </gpxtpx:TrackPointExtension>
        </extensions>
      </trkpt>
      <trkpt lat="46.55356" lon="0.21019">
        <ele>125.80000305176</ele>
        <time>2022-04-17T08:53:16Z</time>
        <extensions>
          <gpxtpx:TrackPointExtension xmlns:gpxtpx="http://www.garmin.com/xmlschemas/TrackPointExtension/v1">
            <gpxtpx:hr>131</gpxtpx:hr>
          </gpxtpx:TrackPointExtension>
        </extensions>
      </trkpt>
      <trkpt lat="46.55354" lon="0.21021">
        <ele>125.80000305176</ele>
        <time>2022-04-17T08:53:17Z</time>
        <extensions>
          <gpxtpx:TrackPointExtension xmlns:gpxtpx="http://www.garmin.com/xmlschemas/TrackPointExtension/v1">
            <gpxtpx:hr>131</gpxtpx:hr>
          </gpxtpx:TrackPointExtension>
        </extensions>
      </trkpt>
      <trkpt lat="46.55352" lon="0.21023">
        <ele>125.80000305176</ele>
        <time>2022-04-17T08:53:18Z</time>
        <extensions>
          <gpxtpx:TrackPointExtension xmlns:gpxtpx="http://www.garmin.com/xmlschemas/TrackPointExtension/v1">
            <gpxtpx:hr>130</gpxtpx:hr>
          </gpxtpx:TrackPointExtension>
        </extensions>
      </trkpt>
      <trkpt lat="46.55349" lon="0.21026">
        <ele>125.80000305176</ele>
        <time>2022-04-17T08:53:19Z</time>
        <extensions>
          <gpxtpx:TrackPointExtension xmlns:gpxtpx="http://www.garmin.com/xmlschemas/TrackPointExtension/v1">
            <gpxtpx:hr>133</gpxtpx:hr>
          </gpxtpx:TrackPointExtension>
        </extensions>
      </trkpt>
      <trkpt lat="46.55347" lon="0.21027">
        <ele>125.80000305176</ele>
        <time>2022-04-17T08:53:20Z</time>
        <extensions>
          <gpxtpx:TrackPointExtension xmlns:gpxtpx="http://www.garmin.com/xmlschemas/TrackPointExtension/v1">
            <gpxtpx:hr>131</gpxtpx:hr>
          </gpxtpx:TrackPointExtension>
        </extensions>
      </trkpt>
      <trkpt lat="46.55344" lon="0.21027">
        <ele>126</ele>
        <time>2022-04-17T08:53:21Z</time>
        <extensions>
          <gpxtpx:TrackPointExtension xmlns:gpxtpx="http://www.garmin.com/xmlschemas/TrackPointExtension/v1">
            <gpxtpx:hr>132</gpxtpx:hr>
          </gpxtpx:TrackPointExtension>
        </extensions>
      </trkpt>
      <trkpt lat="46.5534" lon="0.21028">
        <ele>126</ele>
        <time>2022-04-17T08:53:22Z</time>
        <extensions>
          <gpxtpx:TrackPointExtension xmlns:gpxtpx="http://www.garmin.com/xmlschemas/TrackPointExtension/v1">
            <gpxtpx:hr>132</gpxtpx:hr>
          </gpxtpx:TrackPointExtension>
        </extensions>
      </trkpt>
      <trkpt lat="46.55338" lon="0.21028">
        <ele>126</ele>
        <time>2022-04-17T08:53:23Z</time>
        <extensions>
          <gpxtpx:TrackPointExtension xmlns:gpxtpx="http://www.garmin.com/xmlschemas/TrackPointExtension/v1">
            <gpxtpx:hr>134</gpxtpx:hr>
          </gpxtpx:TrackPointExtension>
        </extensions>
      </trkpt>
      <trkpt lat="46.55336" lon="0.21029">
        <ele>126</ele>
        <time>2022-04-17T08:53:24Z</time>
        <extensions>
          <gpxtpx:TrackPointExtension xmlns:gpxtpx="http://www.garmin.com/xmlschemas/TrackPointExtension/v1">
            <gpxtpx:hr>135</gpxtpx:hr>
          </gpxtpx:TrackPointExtension>
        </extensions>
      </trkpt>
      <trkpt lat="46.55336" lon="0.2103">
        <ele>126.19999694824</ele>
        <time>2022-04-17T08:53:25Z</time>
        <extensions>
          <gpxtpx:TrackPointExtension xmlns:gpxtpx="http://www.garmin.com/xmlschemas/TrackPointExtension/v1">
            <gpxtpx:hr>136</gpxtpx:hr>
          </gpxtpx:TrackPointExtension>
        </extensions>
      </trkpt>
      <trkpt lat="46.55334" lon="0.21032">
        <ele>126.19999694824</ele>
        <time>2022-04-17T08:53:26Z</time>
        <extensions>
          <gpxtpx:TrackPointExtension xmlns:gpxtpx="http://www.garmin.com/xmlschemas/TrackPointExtension/v1">
            <gpxtpx:hr>136</gpxtpx:hr>
          </gpxtpx:TrackPointExtension>
        </extensions>
      </trkpt>
      <trkpt lat="46.5533" lon="0.21034">
        <ele>126.19999694824</ele>
        <time>2022-04-17T08:53:27Z</time>
        <extensions>
          <gpxtpx:TrackPointExtension xmlns:gpxtpx="http://www.garmin.com/xmlschemas/TrackPointExtension/v1">
            <gpxtpx:hr>136</gpxtpx:hr>
          </gpxtpx:TrackPointExtension>
        </extensions>
      </trkpt>
      <trkpt lat="46.55327" lon="0.21037">
        <ele>126.19999694824</ele>
        <time>2022-04-17T08:53:28Z</time>
        <extensions>
          <gpxtpx:TrackPointExtension xmlns:gpxtpx="http://www.garmin.com/xmlschemas/TrackPointExtension/v1">
            <gpxtpx:hr>137</gpxtpx:hr>
          </gpxtpx:TrackPointExtension>
        </extensions>
      </trkpt>
      <trkpt lat="46.55325" lon="0.2104">
        <ele>126</ele>
        <time>2022-04-17T08:53:29Z</time>
        <extensions>
          <gpxtpx:TrackPointExtension xmlns:gpxtpx="http://www.garmin.com/xmlschemas/TrackPointExtension/v1">
            <gpxtpx:hr>137</gpxtpx:hr>
          </gpxtpx:TrackPointExtension>
        </extensions>
      </trkpt>
      <trkpt lat="46.55325" lon="0.2104">
        <ele>126</ele>
        <time>2022-04-17T08:53:30Z</time>
        <extensions>
          <gpxtpx:TrackPointExtension xmlns:gpxtpx="http://www.garmin.com/xmlschemas/TrackPointExtension/v1">
            <gpxtpx:hr>137</gpxtpx:hr>
          </gpxtpx:TrackPointExtension>
        </extensions>
      </trkpt>
      <trkpt lat="46.55322" lon="0.2104">
        <ele>126</ele>
        <time>2022-04-17T08:53:31Z</time>
        <extensions>
          <gpxtpx:TrackPointExtension xmlns:gpxtpx="http://www.garmin.com/xmlschemas/TrackPointExtension/v1">
            <gpxtpx:hr>136</gpxtpx:hr>
          </gpxtpx:TrackPointExtension>
        </extensions>
      </trkpt>
      <trkpt lat="46.55321" lon="0.2104">
        <ele>126</ele>
        <time>2022-04-17T08:53:32Z</time>
        <extensions>
          <gpxtpx:TrackPointExtension xmlns:gpxtpx="http://www.garmin.com/xmlschemas/TrackPointExtension/v1">
            <gpxtpx:hr>135</gpxtpx:hr>
          </gpxtpx:TrackPointExtension>
        </extensions>
      </trkpt>
      <trkpt lat="46.55321" lon="0.21041">
        <ele>126</ele>
        <time>2022-04-17T08:53:33Z</time>
        <extensions>
          <gpxtpx:TrackPointExtension xmlns:gpxtpx="http://www.garmin.com/xmlschemas/TrackPointExtension/v1">
            <gpxtpx:hr>135</gpxtpx:hr>
          </gpxtpx:TrackPointExtension>
        </extensions>
      </trkpt>
      <trkpt lat="46.55312" lon="0.21048">
        <ele>126.19999694824</ele>
        <time>2022-04-17T08:53:54Z</time>
        <extensions>
          <gpxtpx:TrackPointExtension xmlns:gpxtpx="http://www.garmin.com/xmlschemas/TrackPointExtension/v1">
            <gpxtpx:hr>143</gpxtpx:hr>
          </gpxtpx:TrackPointExtension>
        </extensions>
      </trkpt>
      <trkpt lat="46.55309" lon="0.21049">
        <ele>126.19999694824</ele>
        <time>2022-04-17T08:53:55Z</time>
        <extensions>
          <gpxtpx:TrackPointExtension xmlns:gpxtpx="http://www.garmin.com/xmlschemas/TrackPointExtension/v1">
            <gpxtpx:hr>144</gpxtpx:hr>
          </gpxtpx:TrackPointExtension>
        </extensions>
      </trkpt>
      <trkpt lat="46.55307" lon="0.21051">
        <ele>126.19999694824</ele>
        <time>2022-04-17T08:53:56Z</time>
        <extensions>
          <gpxtpx:TrackPointExtension xmlns:gpxtpx="http://www.garmin.com/xmlschemas/TrackPointExtension/v1">
            <gpxtpx:hr>145</gpxtpx:hr>
          </gpxtpx:TrackPointExtension>
        </extensions>
      </trkpt>
      <trkpt lat="46.55305" lon="0.21053">
        <ele>126.19999694824</ele>
        <time>2022-04-17T08:53:57Z</time>
        <extensions>
          <gpxtpx:TrackPointExtension xmlns:gpxtpx="http://www.garmin.com/xmlschemas/TrackPointExtension/v1">
            <gpxtpx:hr>145</gpxtpx:hr>
          </gpxtpx:TrackPointExtension>
        </extensions>
      </trkpt>
      <trkpt lat="46.55303" lon="0.21055">
        <ele>126.40000152588</ele>
        <time>2022-04-17T08:53:58Z</time>
        <extensions>
          <gpxtpx:TrackPointExtension xmlns:gpxtpx="http://www.garmin.com/xmlschemas/TrackPointExtension/v1">
            <gpxtpx:hr>145</gpxtpx:hr>
          </gpxtpx:TrackPointExtension>
        </extensions>
      </trkpt>
      <trkpt lat="46.55297" lon="0.21057">
        <ele>126.40000152588</ele>
        <time>2022-04-17T08:53:59Z</time>
        <extensions>
          <gpxtpx:TrackPointExtension xmlns:gpxtpx="http://www.garmin.com/xmlschemas/TrackPointExtension/v1">
            <gpxtpx:hr>145</gpxtpx:hr>
          </gpxtpx:TrackPointExtension>
        </extensions>
      </trkpt>
      <trkpt lat="46.55295" lon="0.21059">
        <ele>126.59999847412</ele>
        <time>2022-04-17T08:54:00Z</time>
        <extensions>
          <gpxtpx:TrackPointExtension xmlns:gpxtpx="http://www.garmin.com/xmlschemas/TrackPointExtension/v1">
            <gpxtpx:hr>144</gpxtpx:hr>
          </gpxtpx:TrackPointExtension>
        </extensions>
      </trkpt>
      <trkpt lat="46.55293" lon="0.2106">
        <ele>126.59999847412</ele>
        <time>2022-04-17T08:54:01Z</time>
        <extensions>
          <gpxtpx:TrackPointExtension xmlns:gpxtpx="http://www.garmin.com/xmlschemas/TrackPointExtension/v1">
            <gpxtpx:hr>145</gpxtpx:hr>
          </gpxtpx:TrackPointExtension>
        </extensions>
      </trkpt>
      <trkpt lat="46.55292" lon="0.21061">
        <ele>127</ele>
        <time>2022-04-17T08:54:02Z</time>
        <extensions>
          <gpxtpx:TrackPointExtension xmlns:gpxtpx="http://www.garmin.com/xmlschemas/TrackPointExtension/v1">
            <gpxtpx:hr>145</gpxtpx:hr>
          </gpxtpx:TrackPointExtension>
        </extensions>
      </trkpt>
      <trkpt lat="46.5529" lon="0.21062">
        <ele>127.40000152588</ele>
        <time>2022-04-17T08:54:03Z</time>
        <extensions>
          <gpxtpx:TrackPointExtension xmlns:gpxtpx="http://www.garmin.com/xmlschemas/TrackPointExtension/v1">
            <gpxtpx:hr>145</gpxtpx:hr>
          </gpxtpx:TrackPointExtension>
        </extensions>
      </trkpt>
      <trkpt lat="46.55287" lon="0.21062">
        <ele>127.59999847412</ele>
        <time>2022-04-17T08:54:04Z</time>
        <extensions>
          <gpxtpx:TrackPointExtension xmlns:gpxtpx="http://www.garmin.com/xmlschemas/TrackPointExtension/v1">
            <gpxtpx:hr>145</gpxtpx:hr>
          </gpxtpx:TrackPointExtension>
        </extensions>
      </trkpt>
      <trkpt lat="46.55284" lon="0.21061">
        <ele>127.80000305176</ele>
        <time>2022-04-17T08:54:05Z</time>
        <extensions>
          <gpxtpx:TrackPointExtension xmlns:gpxtpx="http://www.garmin.com/xmlschemas/TrackPointExtension/v1">
            <gpxtpx:hr>144</gpxtpx:hr>
          </gpxtpx:TrackPointExtension>
        </extensions>
      </trkpt>
      <trkpt lat="46.55281" lon="0.21059">
        <ele>127.80000305176</ele>
        <time>2022-04-17T08:54:06Z</time>
        <extensions>
          <gpxtpx:TrackPointExtension xmlns:gpxtpx="http://www.garmin.com/xmlschemas/TrackPointExtension/v1">
            <gpxtpx:hr>144</gpxtpx:hr>
          </gpxtpx:TrackPointExtension>
        </extensions>
      </trkpt>
      <trkpt lat="46.55278" lon="0.21058">
        <ele>127.80000305176</ele>
        <time>2022-04-17T08:54:07Z</time>
        <extensions>
          <gpxtpx:TrackPointExtension xmlns:gpxtpx="http://www.garmin.com/xmlschemas/TrackPointExtension/v1">
            <gpxtpx:hr>144</gpxtpx:hr>
          </gpxtpx:TrackPointExtension>
        </extensions>
      </trkpt>
      <trkpt lat="46.55274" lon="0.21058">
        <ele>127.80000305176</ele>
        <time>2022-04-17T08:54:08Z</time>
        <extensions>
          <gpxtpx:TrackPointExtension xmlns:gpxtpx="http://www.garmin.com/xmlschemas/TrackPointExtension/v1">
            <gpxtpx:hr>143</gpxtpx:hr>
          </gpxtpx:TrackPointExtension>
        </extensions>
      </trkpt>
      <trkpt lat="46.55271" lon="0.21059">
        <ele>127.80000305176</ele>
        <time>2022-04-17T08:54:09Z</time>
        <extensions>
          <gpxtpx:TrackPointExtension xmlns:gpxtpx="http://www.garmin.com/xmlschemas/TrackPointExtension/v1">
            <gpxtpx:hr>143</gpxtpx:hr>
          </gpxtpx:TrackPointExtension>
        </extensions>
      </trkpt>
      <trkpt lat="46.55268" lon="0.2106">
        <ele>127.80000305176</ele>
        <time>2022-04-17T08:54:10Z</time>
        <extensions>
          <gpxtpx:TrackPointExtension xmlns:gpxtpx="http://www.garmin.com/xmlschemas/TrackPointExtension/v1">
            <gpxtpx:hr>143</gpxtpx:hr>
          </gpxtpx:TrackPointExtension>
        </extensions>
      </trkpt>
      <trkpt lat="46.55264" lon="0.21061">
        <ele>127.80000305176</ele>
        <time>2022-04-17T08:54:11Z</time>
        <extensions>
          <gpxtpx:TrackPointExtension xmlns:gpxtpx="http://www.garmin.com/xmlschemas/TrackPointExtension/v1">
            <gpxtpx:hr>142</gpxtpx:hr>
          </gpxtpx:TrackPointExtension>
        </extensions>
      </trkpt>
      <trkpt lat="46.55263" lon="0.21063">
        <ele>127.80000305176</ele>
        <time>2022-04-17T08:54:12Z</time>
        <extensions>
          <gpxtpx:TrackPointExtension xmlns:gpxtpx="http://www.garmin.com/xmlschemas/TrackPointExtension/v1">
            <gpxtpx:hr>141</gpxtpx:hr>
          </gpxtpx:TrackPointExtension>
        </extensions>
      </trkpt>
      <trkpt lat="46.55262" lon="0.21063">
        <ele>127.80000305176</ele>
        <time>2022-04-17T08:54:13Z</time>
        <extensions>
          <gpxtpx:TrackPointExtension xmlns:gpxtpx="http://www.garmin.com/xmlschemas/TrackPointExtension/v1">
            <gpxtpx:hr>142</gpxtpx:hr>
          </gpxtpx:TrackPointExtension>
        </extensions>
      </trkpt>
      <trkpt lat="46.55261" lon="0.21064">
        <ele>127.59999847412</ele>
        <time>2022-04-17T08:54:14Z</time>
        <extensions>
          <gpxtpx:TrackPointExtension xmlns:gpxtpx="http://www.garmin.com/xmlschemas/TrackPointExtension/v1">
            <gpxtpx:hr>143</gpxtpx:hr>
          </gpxtpx:TrackPointExtension>
        </extensions>
      </trkpt>
      <trkpt lat="46.55259" lon="0.21066">
        <ele>127.59999847412</ele>
        <time>2022-04-17T08:54:15Z</time>
        <extensions>
          <gpxtpx:TrackPointExtension xmlns:gpxtpx="http://www.garmin.com/xmlschemas/TrackPointExtension/v1">
            <gpxtpx:hr>143</gpxtpx:hr>
          </gpxtpx:TrackPointExtension>
        </extensions>
      </trkpt>
      <trkpt lat="46.55256" lon="0.21068">
        <ele>127.59999847412</ele>
        <time>2022-04-17T08:54:16Z</time>
        <extensions>
          <gpxtpx:TrackPointExtension xmlns:gpxtpx="http://www.garmin.com/xmlschemas/TrackPointExtension/v1">
            <gpxtpx:hr>144</gpxtpx:hr>
          </gpxtpx:TrackPointExtension>
        </extensions>
      </trkpt>
      <trkpt lat="46.55253" lon="0.21069">
        <ele>127.59999847412</ele>
        <time>2022-04-17T08:54:17Z</time>
        <extensions>
          <gpxtpx:TrackPointExtension xmlns:gpxtpx="http://www.garmin.com/xmlschemas/TrackPointExtension/v1">
            <gpxtpx:hr>144</gpxtpx:hr>
          </gpxtpx:TrackPointExtension>
        </extensions>
      </trkpt>
      <trkpt lat="46.55253" lon="0.21069">
        <ele>127.59999847412</ele>
        <time>2022-04-17T08:54:18Z</time>
        <extensions>
          <gpxtpx:TrackPointExtension xmlns:gpxtpx="http://www.garmin.com/xmlschemas/TrackPointExtension/v1">
            <gpxtpx:hr>143</gpxtpx:hr>
          </gpxtpx:TrackPointExtension>
        </extensions>
      </trkpt>
      <trkpt lat="46.55252" lon="0.21069">
        <ele>127.40000152588</ele>
        <time>2022-04-17T08:54:19Z</time>
        <extensions>
          <gpxtpx:TrackPointExtension xmlns:gpxtpx="http://www.garmin.com/xmlschemas/TrackPointExtension/v1">
            <gpxtpx:hr>142</gpxtpx:hr>
          </gpxtpx:TrackPointExtension>
        </extensions>
      </trkpt>
      <trkpt lat="46.55248" lon="0.2107">
        <ele>127.40000152588</ele>
        <time>2022-04-17T08:54:21Z</time>
        <extensions>
          <gpxtpx:TrackPointExtension xmlns:gpxtpx="http://www.garmin.com/xmlschemas/TrackPointExtension/v1">
            <gpxtpx:hr>142</gpxtpx:hr>
          </gpxtpx:TrackPointExtension>
        </extensions>
      </trkpt>
      <trkpt lat="46.55242" lon="0.21071">
        <ele>127.59999847412</ele>
        <time>2022-04-17T08:54:23Z</time>
        <extensions>
          <gpxtpx:TrackPointExtension xmlns:gpxtpx="http://www.garmin.com/xmlschemas/TrackPointExtension/v1">
            <gpxtpx:hr>140</gpxtpx:hr>
          </gpxtpx:TrackPointExtension>
        </extensions>
      </trkpt>
      <trkpt lat="46.55241" lon="0.21071">
        <ele>127.59999847412</ele>
        <time>2022-04-17T08:54:24Z</time>
        <extensions>
          <gpxtpx:TrackPointExtension xmlns:gpxtpx="http://www.garmin.com/xmlschemas/TrackPointExtension/v1">
            <gpxtpx:hr>139</gpxtpx:hr>
          </gpxtpx:TrackPointExtension>
        </extensions>
      </trkpt>
      <trkpt lat="46.5524" lon="0.21071">
        <ele>127.59999847412</ele>
        <time>2022-04-17T08:54:25Z</time>
        <extensions>
          <gpxtpx:TrackPointExtension xmlns:gpxtpx="http://www.garmin.com/xmlschemas/TrackPointExtension/v1">
            <gpxtpx:hr>138</gpxtpx:hr>
          </gpxtpx:TrackPointExtension>
        </extensions>
      </trkpt>
      <trkpt lat="46.55238" lon="0.21072">
        <ele>127.59999847412</ele>
        <time>2022-04-17T08:54:26Z</time>
        <extensions>
          <gpxtpx:TrackPointExtension xmlns:gpxtpx="http://www.garmin.com/xmlschemas/TrackPointExtension/v1">
            <gpxtpx:hr>138</gpxtpx:hr>
          </gpxtpx:TrackPointExtension>
        </extensions>
      </trkpt>
      <trkpt lat="46.5523" lon="0.21071">
        <ele>127.59999847412</ele>
        <time>2022-04-17T08:54:30Z</time>
        <extensions>
          <gpxtpx:TrackPointExtension xmlns:gpxtpx="http://www.garmin.com/xmlschemas/TrackPointExtension/v1">
            <gpxtpx:hr>137</gpxtpx:hr>
          </gpxtpx:TrackPointExtension>
        </extensions>
      </trkpt>
      <trkpt lat="46.55229" lon="0.2107">
        <ele>127.59999847412</ele>
        <time>2022-04-17T08:54:31Z</time>
        <extensions>
          <gpxtpx:TrackPointExtension xmlns:gpxtpx="http://www.garmin.com/xmlschemas/TrackPointExtension/v1">
            <gpxtpx:hr>137</gpxtpx:hr>
          </gpxtpx:TrackPointExtension>
        </extensions>
      </trkpt>
      <trkpt lat="46.55228" lon="0.21069">
        <ele>127.59999847412</ele>
        <time>2022-04-17T08:54:32Z</time>
        <extensions>
          <gpxtpx:TrackPointExtension xmlns:gpxtpx="http://www.garmin.com/xmlschemas/TrackPointExtension/v1">
            <gpxtpx:hr>137</gpxtpx:hr>
          </gpxtpx:TrackPointExtension>
        </extensions>
      </trkpt>
      <trkpt lat="46.55226" lon="0.21068">
        <ele>127.59999847412</ele>
        <time>2022-04-17T08:54:33Z</time>
        <extensions>
          <gpxtpx:TrackPointExtension xmlns:gpxtpx="http://www.garmin.com/xmlschemas/TrackPointExtension/v1">
            <gpxtpx:hr>138</gpxtpx:hr>
          </gpxtpx:TrackPointExtension>
        </extensions>
      </trkpt>
      <trkpt lat="46.55224" lon="0.21068">
        <ele>127.40000152588</ele>
        <time>2022-04-17T08:54:34Z</time>
        <extensions>
          <gpxtpx:TrackPointExtension xmlns:gpxtpx="http://www.garmin.com/xmlschemas/TrackPointExtension/v1">
            <gpxtpx:hr>139</gpxtpx:hr>
          </gpxtpx:TrackPointExtension>
        </extensions>
      </trkpt>
      <trkpt lat="46.55221" lon="0.21067">
        <ele>127.40000152588</ele>
        <time>2022-04-17T08:54:35Z</time>
        <extensions>
          <gpxtpx:TrackPointExtension xmlns:gpxtpx="http://www.garmin.com/xmlschemas/TrackPointExtension/v1">
            <gpxtpx:hr>139</gpxtpx:hr>
          </gpxtpx:TrackPointExtension>
        </extensions>
      </trkpt>
      <trkpt lat="46.5522" lon="0.21067">
        <ele>127.59999847412</ele>
        <time>2022-04-17T08:54:38Z</time>
        <extensions>
          <gpxtpx:TrackPointExtension xmlns:gpxtpx="http://www.garmin.com/xmlschemas/TrackPointExtension/v1">
            <gpxtpx:hr>141</gpxtpx:hr>
          </gpxtpx:TrackPointExtension>
        </extensions>
      </trkpt>
      <trkpt lat="46.552" lon="0.21065">
        <ele>128</ele>
        <time>2022-04-17T08:55:03Z</time>
        <extensions>
          <gpxtpx:TrackPointExtension xmlns:gpxtpx="http://www.garmin.com/xmlschemas/TrackPointExtension/v1">
            <gpxtpx:hr>140</gpxtpx:hr>
          </gpxtpx:TrackPointExtension>
        </extensions>
      </trkpt>
      <trkpt lat="46.55201" lon="0.21076">
        <ele>127.80000305176</ele>
        <time>2022-04-17T08:55:05Z</time>
        <extensions>
          <gpxtpx:TrackPointExtension xmlns:gpxtpx="http://www.garmin.com/xmlschemas/TrackPointExtension/v1">
            <gpxtpx:hr>140</gpxtpx:hr>
          </gpxtpx:TrackPointExtension>
        </extensions>
      </trkpt>
      <trkpt lat="46.55202" lon="0.21082">
        <ele>127.80000305176</ele>
        <time>2022-04-17T08:55:06Z</time>
        <extensions>
          <gpxtpx:TrackPointExtension xmlns:gpxtpx="http://www.garmin.com/xmlschemas/TrackPointExtension/v1">
            <gpxtpx:hr>140</gpxtpx:hr>
          </gpxtpx:TrackPointExtension>
        </extensions>
      </trkpt>
      <trkpt lat="46.55203" lon="0.21087">
        <ele>127.80000305176</ele>
        <time>2022-04-17T08:55:07Z</time>
        <extensions>
          <gpxtpx:TrackPointExtension xmlns:gpxtpx="http://www.garmin.com/xmlschemas/TrackPointExtension/v1">
            <gpxtpx:hr>140</gpxtpx:hr>
          </gpxtpx:TrackPointExtension>
        </extensions>
      </trkpt>
      <trkpt lat="46.55203" lon="0.21092">
        <ele>127.80000305176</ele>
        <time>2022-04-17T08:55:08Z</time>
        <extensions>
          <gpxtpx:TrackPointExtension xmlns:gpxtpx="http://www.garmin.com/xmlschemas/TrackPointExtension/v1">
            <gpxtpx:hr>140</gpxtpx:hr>
          </gpxtpx:TrackPointExtension>
        </extensions>
      </trkpt>
      <trkpt lat="46.55203" lon="0.21096">
        <ele>127.80000305176</ele>
        <time>2022-04-17T08:55:09Z</time>
        <extensions>
          <gpxtpx:TrackPointExtension xmlns:gpxtpx="http://www.garmin.com/xmlschemas/TrackPointExtension/v1">
            <gpxtpx:hr>140</gpxtpx:hr>
          </gpxtpx:TrackPointExtension>
        </extensions>
      </trkpt>
      <trkpt lat="46.55204" lon="0.211">
        <ele>127.80000305176</ele>
        <time>2022-04-17T08:55:10Z</time>
        <extensions>
          <gpxtpx:TrackPointExtension xmlns:gpxtpx="http://www.garmin.com/xmlschemas/TrackPointExtension/v1">
            <gpxtpx:hr>140</gpxtpx:hr>
          </gpxtpx:TrackPointExtension>
        </extensions>
      </trkpt>
      <trkpt lat="46.55204" lon="0.21103">
        <ele>128</ele>
        <time>2022-04-17T08:55:11Z</time>
        <extensions>
          <gpxtpx:TrackPointExtension xmlns:gpxtpx="http://www.garmin.com/xmlschemas/TrackPointExtension/v1">
            <gpxtpx:hr>140</gpxtpx:hr>
          </gpxtpx:TrackPointExtension>
        </extensions>
      </trkpt>
      <trkpt lat="46.55204" lon="0.21108">
        <ele>128</ele>
        <time>2022-04-17T08:55:12Z</time>
        <extensions>
          <gpxtpx:TrackPointExtension xmlns:gpxtpx="http://www.garmin.com/xmlschemas/TrackPointExtension/v1">
            <gpxtpx:hr>140</gpxtpx:hr>
          </gpxtpx:TrackPointExtension>
        </extensions>
      </trkpt>
      <trkpt lat="46.55203" lon="0.21115">
        <ele>128.19999694824</ele>
        <time>2022-04-17T08:55:14Z</time>
        <extensions>
          <gpxtpx:TrackPointExtension xmlns:gpxtpx="http://www.garmin.com/xmlschemas/TrackPointExtension/v1">
            <gpxtpx:hr>141</gpxtpx:hr>
          </gpxtpx:TrackPointExtension>
        </extensions>
      </trkpt>
      <trkpt lat="46.55203" lon="0.21118">
        <ele>128.39999389648</ele>
        <time>2022-04-17T08:55:15Z</time>
        <extensions>
          <gpxtpx:TrackPointExtension xmlns:gpxtpx="http://www.garmin.com/xmlschemas/TrackPointExtension/v1">
            <gpxtpx:hr>141</gpxtpx:hr>
          </gpxtpx:TrackPointExtension>
        </extensions>
      </trkpt>
      <trkpt lat="46.55203" lon="0.21119">
        <ele>128.39999389648</ele>
        <time>2022-04-17T08:55:16Z</time>
        <extensions>
          <gpxtpx:TrackPointExtension xmlns:gpxtpx="http://www.garmin.com/xmlschemas/TrackPointExtension/v1">
            <gpxtpx:hr>141</gpxtpx:hr>
          </gpxtpx:TrackPointExtension>
        </extensions>
      </trkpt>
      <trkpt lat="46.55203" lon="0.2112">
        <ele>128.39999389648</ele>
        <time>2022-04-17T08:55:17Z</time>
        <extensions>
          <gpxtpx:TrackPointExtension xmlns:gpxtpx="http://www.garmin.com/xmlschemas/TrackPointExtension/v1">
            <gpxtpx:hr>141</gpxtpx:hr>
          </gpxtpx:TrackPointExtension>
        </extensions>
      </trkpt>
      <trkpt lat="46.55237" lon="0.21111">
        <ele>133.19999694824</ele>
        <time>2022-04-17T08:57:51Z</time>
        <extensions>
          <gpxtpx:TrackPointExtension xmlns:gpxtpx="http://www.garmin.com/xmlschemas/TrackPointExtension/v1">
            <gpxtpx:hr>130</gpxtpx:hr>
          </gpxtpx:TrackPointExtension>
        </extensions>
      </trkpt>
      <trkpt lat="46.55238" lon="0.21111">
        <ele>133.39999389648</ele>
        <time>2022-04-17T08:57:52Z</time>
        <extensions>
          <gpxtpx:TrackPointExtension xmlns:gpxtpx="http://www.garmin.com/xmlschemas/TrackPointExtension/v1">
            <gpxtpx:hr>130</gpxtpx:hr>
          </gpxtpx:TrackPointExtension>
        </extensions>
      </trkpt>
      <trkpt lat="46.5524" lon="0.21111">
        <ele>134</ele>
        <time>2022-04-17T08:57:53Z</time>
        <extensions>
          <gpxtpx:TrackPointExtension xmlns:gpxtpx="http://www.garmin.com/xmlschemas/TrackPointExtension/v1">
            <gpxtpx:hr>131</gpxtpx:hr>
          </gpxtpx:TrackPointExtension>
        </extensions>
      </trkpt>
      <trkpt lat="46.55241" lon="0.21111">
        <ele>134.19999694824</ele>
        <time>2022-04-17T08:57:54Z</time>
        <extensions>
          <gpxtpx:TrackPointExtension xmlns:gpxtpx="http://www.garmin.com/xmlschemas/TrackPointExtension/v1">
            <gpxtpx:hr>131</gpxtpx:hr>
          </gpxtpx:TrackPointExtension>
        </extensions>
      </trkpt>
      <trkpt lat="46.55243" lon="0.21112">
        <ele>134.39999389648</ele>
        <time>2022-04-17T08:57:55Z</time>
        <extensions>
          <gpxtpx:TrackPointExtension xmlns:gpxtpx="http://www.garmin.com/xmlschemas/TrackPointExtension/v1">
            <gpxtpx:hr>131</gpxtpx:hr>
          </gpxtpx:TrackPointExtension>
        </extensions>
      </trkpt>
      <trkpt lat="46.55244" lon="0.21112">
        <ele>134.80000305176</ele>
        <time>2022-04-17T08:57:56Z</time>
        <extensions>
          <gpxtpx:TrackPointExtension xmlns:gpxtpx="http://www.garmin.com/xmlschemas/TrackPointExtension/v1">
            <gpxtpx:hr>131</gpxtpx:hr>
          </gpxtpx:TrackPointExtension>
        </extensions>
      </trkpt>
      <trkpt lat="46.55246" lon="0.21112">
        <ele>135</ele>
        <time>2022-04-17T08:57:57Z</time>
        <extensions>
          <gpxtpx:TrackPointExtension xmlns:gpxtpx="http://www.garmin.com/xmlschemas/TrackPointExtension/v1">
            <gpxtpx:hr>131</gpxtpx:hr>
          </gpxtpx:TrackPointExtension>
        </extensions>
      </trkpt>
      <trkpt lat="46.55249" lon="0.21113">
        <ele>135.19999694824</ele>
        <time>2022-04-17T08:57:58Z</time>
        <extensions>
          <gpxtpx:TrackPointExtension xmlns:gpxtpx="http://www.garmin.com/xmlschemas/TrackPointExtension/v1">
            <gpxtpx:hr>132</gpxtpx:hr>
          </gpxtpx:TrackPointExtension>
        </extensions>
      </trkpt>
      <trkpt lat="46.55251" lon="0.21113">
        <ele>135.39999389648</ele>
        <time>2022-04-17T08:57:59Z</time>
        <extensions>
          <gpxtpx:TrackPointExtension xmlns:gpxtpx="http://www.garmin.com/xmlschemas/TrackPointExtension/v1">
            <gpxtpx:hr>132</gpxtpx:hr>
          </gpxtpx:TrackPointExtension>
        </extensions>
      </trkpt>
      <trkpt lat="46.55253" lon="0.21113">
        <ele>135.39999389648</ele>
        <time>2022-04-17T08:58:00Z</time>
        <extensions>
          <gpxtpx:TrackPointExtension xmlns:gpxtpx="http://www.garmin.com/xmlschemas/TrackPointExtension/v1">
            <gpxtpx:hr>131</gpxtpx:hr>
          </gpxtpx:TrackPointExtension>
        </extensions>
      </trkpt>
      <trkpt lat="46.55254" lon="0.21113">
        <ele>135.80000305176</ele>
        <time>2022-04-17T08:58:01Z</time>
        <extensions>
          <gpxtpx:TrackPointExtension xmlns:gpxtpx="http://www.garmin.com/xmlschemas/TrackPointExtension/v1">
            <gpxtpx:hr>131</gpxtpx:hr>
          </gpxtpx:TrackPointExtension>
        </extensions>
      </trkpt>
      <trkpt lat="46.55256" lon="0.21113">
        <ele>136.19999694824</ele>
        <time>2022-04-17T08:58:02Z</time>
        <extensions>
          <gpxtpx:TrackPointExtension xmlns:gpxtpx="http://www.garmin.com/xmlschemas/TrackPointExtension/v1">
            <gpxtpx:hr>131</gpxtpx:hr>
          </gpxtpx:TrackPointExtension>
        </extensions>
      </trkpt>
      <trkpt lat="46.55259" lon="0.21113">
        <ele>136.39999389648</ele>
        <time>2022-04-17T08:58:03Z</time>
        <extensions>
          <gpxtpx:TrackPointExtension xmlns:gpxtpx="http://www.garmin.com/xmlschemas/TrackPointExtension/v1">
            <gpxtpx:hr>133</gpxtpx:hr>
          </gpxtpx:TrackPointExtension>
        </extensions>
      </trkpt>
      <trkpt lat="46.55263" lon="0.21113">
        <ele>136.39999389648</ele>
        <time>2022-04-17T08:58:04Z</time>
        <extensions>
          <gpxtpx:TrackPointExtension xmlns:gpxtpx="http://www.garmin.com/xmlschemas/TrackPointExtension/v1">
            <gpxtpx:hr>133</gpxtpx:hr>
          </gpxtpx:TrackPointExtension>
        </extensions>
      </trkpt>
      <trkpt lat="46.55266" lon="0.21113">
        <ele>136.80000305176</ele>
        <time>2022-04-17T08:58:05Z</time>
        <extensions>
          <gpxtpx:TrackPointExtension xmlns:gpxtpx="http://www.garmin.com/xmlschemas/TrackPointExtension/v1">
            <gpxtpx:hr>134</gpxtpx:hr>
          </gpxtpx:TrackPointExtension>
        </extensions>
      </trkpt>
      <trkpt lat="46.55267" lon="0.21115">
        <ele>136.80000305176</ele>
        <time>2022-04-17T08:58:06Z</time>
        <extensions>
          <gpxtpx:TrackPointExtension xmlns:gpxtpx="http://www.garmin.com/xmlschemas/TrackPointExtension/v1">
            <gpxtpx:hr>135</gpxtpx:hr>
          </gpxtpx:TrackPointExtension>
        </extensions>
      </trkpt>
      <trkpt lat="46.5527" lon="0.21116">
        <ele>137.19999694824</ele>
        <time>2022-04-17T08:58:07Z</time>
        <extensions>
          <gpxtpx:TrackPointExtension xmlns:gpxtpx="http://www.garmin.com/xmlschemas/TrackPointExtension/v1">
            <gpxtpx:hr>136</gpxtpx:hr>
          </gpxtpx:TrackPointExtension>
        </extensions>
      </trkpt>
      <trkpt lat="46.55274" lon="0.21116">
        <ele>137.19999694824</ele>
        <time>2022-04-17T08:58:08Z</time>
        <extensions>
          <gpxtpx:TrackPointExtension xmlns:gpxtpx="http://www.garmin.com/xmlschemas/TrackPointExtension/v1">
            <gpxtpx:hr>137</gpxtpx:hr>
          </gpxtpx:TrackPointExtension>
        </extensions>
      </trkpt>
      <trkpt lat="46.55276" lon="0.21117">
        <ele>137.39999389648</ele>
        <time>2022-04-17T08:58:09Z</time>
        <extensions>
          <gpxtpx:TrackPointExtension xmlns:gpxtpx="http://www.garmin.com/xmlschemas/TrackPointExtension/v1">
            <gpxtpx:hr>138</gpxtpx:hr>
          </gpxtpx:TrackPointExtension>
        </extensions>
      </trkpt>
      <trkpt lat="46.55277" lon="0.21117">
        <ele>137.60000610352</ele>
        <time>2022-04-17T08:58:10Z</time>
        <extensions>
          <gpxtpx:TrackPointExtension xmlns:gpxtpx="http://www.garmin.com/xmlschemas/TrackPointExtension/v1">
            <gpxtpx:hr>140</gpxtpx:hr>
          </gpxtpx:TrackPointExtension>
        </extensions>
      </trkpt>
      <trkpt lat="46.55278" lon="0.21117">
        <ele>137.80000305176</ele>
        <time>2022-04-17T08:58:11Z</time>
        <extensions>
          <gpxtpx:TrackPointExtension xmlns:gpxtpx="http://www.garmin.com/xmlschemas/TrackPointExtension/v1">
            <gpxtpx:hr>140</gpxtpx:hr>
          </gpxtpx:TrackPointExtension>
        </extensions>
      </trkpt>
      <trkpt lat="46.5528" lon="0.21118">
        <ele>138.19999694824</ele>
        <time>2022-04-17T08:58:12Z</time>
        <extensions>
          <gpxtpx:TrackPointExtension xmlns:gpxtpx="http://www.garmin.com/xmlschemas/TrackPointExtension/v1">
            <gpxtpx:hr>141</gpxtpx:hr>
          </gpxtpx:TrackPointExtension>
        </extensions>
      </trkpt>
      <trkpt lat="46.55282" lon="0.21118">
        <ele>138.39999389648</ele>
        <time>2022-04-17T08:58:13Z</time>
        <extensions>
          <gpxtpx:TrackPointExtension xmlns:gpxtpx="http://www.garmin.com/xmlschemas/TrackPointExtension/v1">
            <gpxtpx:hr>140</gpxtpx:hr>
          </gpxtpx:TrackPointExtension>
        </extensions>
      </trkpt>
      <trkpt lat="46.55284" lon="0.2112">
        <ele>138.39999389648</ele>
        <time>2022-04-17T08:58:14Z</time>
        <extensions>
          <gpxtpx:TrackPointExtension xmlns:gpxtpx="http://www.garmin.com/xmlschemas/TrackPointExtension/v1">
            <gpxtpx:hr>140</gpxtpx:hr>
          </gpxtpx:TrackPointExtension>
        </extensions>
      </trkpt>
      <trkpt lat="46.55287" lon="0.21122">
        <ele>138.60000610352</ele>
        <time>2022-04-17T08:58:15Z</time>
        <extensions>
          <gpxtpx:TrackPointExtension xmlns:gpxtpx="http://www.garmin.com/xmlschemas/TrackPointExtension/v1">
            <gpxtpx:hr>140</gpxtpx:hr>
          </gpxtpx:TrackPointExtension>
        </extensions>
      </trkpt>
      <trkpt lat="46.5529" lon="0.21123">
        <ele>138.80000305176</ele>
        <time>2022-04-17T08:58:16Z</time>
        <extensions>
          <gpxtpx:TrackPointExtension xmlns:gpxtpx="http://www.garmin.com/xmlschemas/TrackPointExtension/v1">
            <gpxtpx:hr>140</gpxtpx:hr>
          </gpxtpx:TrackPointExtension>
        </extensions>
      </trkpt>
      <trkpt lat="46.55293" lon="0.21126">
        <ele>140</ele>
        <time>2022-04-17T08:58:17Z</time>
        <extensions>
          <gpxtpx:TrackPointExtension xmlns:gpxtpx="http://www.garmin.com/xmlschemas/TrackPointExtension/v1">
            <gpxtpx:hr>139</gpxtpx:hr>
          </gpxtpx:TrackPointExtension>
        </extensions>
      </trkpt>
      <trkpt lat="46.55295" lon="0.21126">
        <ele>140.19999694824</ele>
        <time>2022-04-17T08:58:18Z</time>
        <extensions>
          <gpxtpx:TrackPointExtension xmlns:gpxtpx="http://www.garmin.com/xmlschemas/TrackPointExtension/v1">
            <gpxtpx:hr>139</gpxtpx:hr>
          </gpxtpx:TrackPointExtension>
        </extensions>
      </trkpt>
      <trkpt lat="46.55297" lon="0.21127">
        <ele>140.60000610352</ele>
        <time>2022-04-17T08:58:19Z</time>
        <extensions>
          <gpxtpx:TrackPointExtension xmlns:gpxtpx="http://www.garmin.com/xmlschemas/TrackPointExtension/v1">
            <gpxtpx:hr>139</gpxtpx:hr>
          </gpxtpx:TrackPointExtension>
        </extensions>
      </trkpt>
      <trkpt lat="46.55299" lon="0.21129">
        <ele>140.80000305176</ele>
        <time>2022-04-17T08:58:20Z</time>
        <extensions>
          <gpxtpx:TrackPointExtension xmlns:gpxtpx="http://www.garmin.com/xmlschemas/TrackPointExtension/v1">
            <gpxtpx:hr>138</gpxtpx:hr>
          </gpxtpx:TrackPointExtension>
        </extensions>
      </trkpt>
      <trkpt lat="46.55302" lon="0.21131">
        <ele>141.39999389648</ele>
        <time>2022-04-17T08:58:21Z</time>
        <extensions>
          <gpxtpx:TrackPointExtension xmlns:gpxtpx="http://www.garmin.com/xmlschemas/TrackPointExtension/v1">
            <gpxtpx:hr>139</gpxtpx:hr>
          </gpxtpx:TrackPointExtension>
        </extensions>
      </trkpt>
      <trkpt lat="46.55306" lon="0.21133">
        <ele>141.60000610352</ele>
        <time>2022-04-17T08:58:22Z</time>
        <extensions>
          <gpxtpx:TrackPointExtension xmlns:gpxtpx="http://www.garmin.com/xmlschemas/TrackPointExtension/v1">
            <gpxtpx:hr>139</gpxtpx:hr>
          </gpxtpx:TrackPointExtension>
        </extensions>
      </trkpt>
      <trkpt lat="46.5531" lon="0.21135">
        <ele>142</ele>
        <time>2022-04-17T08:58:23Z</time>
        <extensions>
          <gpxtpx:TrackPointExtension xmlns:gpxtpx="http://www.garmin.com/xmlschemas/TrackPointExtension/v1">
            <gpxtpx:hr>140</gpxtpx:hr>
          </gpxtpx:TrackPointExtension>
        </extensions>
      </trkpt>
      <trkpt lat="46.55313" lon="0.21136">
        <ele>142.19999694824</ele>
        <time>2022-04-17T08:58:24Z</time>
        <extensions>
          <gpxtpx:TrackPointExtension xmlns:gpxtpx="http://www.garmin.com/xmlschemas/TrackPointExtension/v1">
            <gpxtpx:hr>141</gpxtpx:hr>
          </gpxtpx:TrackPointExtension>
        </extensions>
      </trkpt>
      <trkpt lat="46.55316" lon="0.21136">
        <ele>142.80000305176</ele>
        <time>2022-04-17T08:58:25Z</time>
        <extensions>
          <gpxtpx:TrackPointExtension xmlns:gpxtpx="http://www.garmin.com/xmlschemas/TrackPointExtension/v1">
            <gpxtpx:hr>144</gpxtpx:hr>
          </gpxtpx:TrackPointExtension>
        </extensions>
      </trkpt>
      <trkpt lat="46.55318" lon="0.21136">
        <ele>143.60000610352</ele>
        <time>2022-04-17T08:58:26Z</time>
        <extensions>
          <gpxtpx:TrackPointExtension xmlns:gpxtpx="http://www.garmin.com/xmlschemas/TrackPointExtension/v1">
            <gpxtpx:hr>145</gpxtpx:hr>
          </gpxtpx:TrackPointExtension>
        </extensions>
      </trkpt>
      <trkpt lat="46.55319" lon="0.21135">
        <ele>143.80000305176</ele>
        <time>2022-04-17T08:58:27Z</time>
        <extensions>
          <gpxtpx:TrackPointExtension xmlns:gpxtpx="http://www.garmin.com/xmlschemas/TrackPointExtension/v1">
            <gpxtpx:hr>145</gpxtpx:hr>
          </gpxtpx:TrackPointExtension>
        </extensions>
      </trkpt>
      <trkpt lat="46.55321" lon="0.21134">
        <ele>144.39999389648</ele>
        <time>2022-04-17T08:58:28Z</time>
        <extensions>
          <gpxtpx:TrackPointExtension xmlns:gpxtpx="http://www.garmin.com/xmlschemas/TrackPointExtension/v1">
            <gpxtpx:hr>146</gpxtpx:hr>
          </gpxtpx:TrackPointExtension>
        </extensions>
      </trkpt>
      <trkpt lat="46.55322" lon="0.21133">
        <ele>144.60000610352</ele>
        <time>2022-04-17T08:58:29Z</time>
        <extensions>
          <gpxtpx:TrackPointExtension xmlns:gpxtpx="http://www.garmin.com/xmlschemas/TrackPointExtension/v1">
            <gpxtpx:hr>147</gpxtpx:hr>
          </gpxtpx:TrackPointExtension>
        </extensions>
      </trkpt>
      <trkpt lat="46.55323" lon="0.21134">
        <ele>144.60000610352</ele>
        <time>2022-04-17T08:58:30Z</time>
        <extensions>
          <gpxtpx:TrackPointExtension xmlns:gpxtpx="http://www.garmin.com/xmlschemas/TrackPointExtension/v1">
            <gpxtpx:hr>147</gpxtpx:hr>
          </gpxtpx:TrackPointExtension>
        </extensions>
      </trkpt>
      <trkpt lat="46.55324" lon="0.21134">
        <ele>144.80000305176</ele>
        <time>2022-04-17T08:58:31Z</time>
        <extensions>
          <gpxtpx:TrackPointExtension xmlns:gpxtpx="http://www.garmin.com/xmlschemas/TrackPointExtension/v1">
            <gpxtpx:hr>148</gpxtpx:hr>
          </gpxtpx:TrackPointExtension>
        </extensions>
      </trkpt>
      <trkpt lat="46.55323" lon="0.21135">
        <ele>145.19999694824</ele>
        <time>2022-04-17T08:58:32Z</time>
        <extensions>
          <gpxtpx:TrackPointExtension xmlns:gpxtpx="http://www.garmin.com/xmlschemas/TrackPointExtension/v1">
            <gpxtpx:hr>148</gpxtpx:hr>
          </gpxtpx:TrackPointExtension>
        </extensions>
      </trkpt>
      <trkpt lat="46.55325" lon="0.21137">
        <ele>145.39999389648</ele>
        <time>2022-04-17T08:58:33Z</time>
        <extensions>
          <gpxtpx:TrackPointExtension xmlns:gpxtpx="http://www.garmin.com/xmlschemas/TrackPointExtension/v1">
            <gpxtpx:hr>149</gpxtpx:hr>
          </gpxtpx:TrackPointExtension>
        </extensions>
      </trkpt>
      <trkpt lat="46.55326" lon="0.21138">
        <ele>145.60000610352</ele>
        <time>2022-04-17T08:58:34Z</time>
        <extensions>
          <gpxtpx:TrackPointExtension xmlns:gpxtpx="http://www.garmin.com/xmlschemas/TrackPointExtension/v1">
            <gpxtpx:hr>149</gpxtpx:hr>
          </gpxtpx:TrackPointExtension>
        </extensions>
      </trkpt>
      <trkpt lat="46.55326" lon="0.21138">
        <ele>146</ele>
        <time>2022-04-17T08:58:35Z</time>
        <extensions>
          <gpxtpx:TrackPointExtension xmlns:gpxtpx="http://www.garmin.com/xmlschemas/TrackPointExtension/v1">
            <gpxtpx:hr>149</gpxtpx:hr>
          </gpxtpx:TrackPointExtension>
        </extensions>
      </trkpt>
      <trkpt lat="46.55332" lon="0.21142">
        <ele>147</ele>
        <time>2022-04-17T08:58:57Z</time>
        <extensions>
          <gpxtpx:TrackPointExtension xmlns:gpxtpx="http://www.garmin.com/xmlschemas/TrackPointExtension/v1">
            <gpxtpx:hr>152</gpxtpx:hr>
          </gpxtpx:TrackPointExtension>
        </extensions>
      </trkpt>
      <trkpt lat="46.55334" lon="0.21144">
        <ele>147</ele>
        <time>2022-04-17T08:58:58Z</time>
        <extensions>
          <gpxtpx:TrackPointExtension xmlns:gpxtpx="http://www.garmin.com/xmlschemas/TrackPointExtension/v1">
            <gpxtpx:hr>152</gpxtpx:hr>
          </gpxtpx:TrackPointExtension>
        </extensions>
      </trkpt>
      <trkpt lat="46.55336" lon="0.21146">
        <ele>147.19999694824</ele>
        <time>2022-04-17T08:58:59Z</time>
        <extensions>
          <gpxtpx:TrackPointExtension xmlns:gpxtpx="http://www.garmin.com/xmlschemas/TrackPointExtension/v1">
            <gpxtpx:hr>152</gpxtpx:hr>
          </gpxtpx:TrackPointExtension>
        </extensions>
      </trkpt>
      <trkpt lat="46.55339" lon="0.21148">
        <ele>147.19999694824</ele>
        <time>2022-04-17T08:59:00Z</time>
        <extensions>
          <gpxtpx:TrackPointExtension xmlns:gpxtpx="http://www.garmin.com/xmlschemas/TrackPointExtension/v1">
            <gpxtpx:hr>152</gpxtpx:hr>
          </gpxtpx:TrackPointExtension>
        </extensions>
      </trkpt>
      <trkpt lat="46.55341" lon="0.21149">
        <ele>147.39999389648</ele>
        <time>2022-04-17T08:59:01Z</time>
        <extensions>
          <gpxtpx:TrackPointExtension xmlns:gpxtpx="http://www.garmin.com/xmlschemas/TrackPointExtension/v1">
            <gpxtpx:hr>152</gpxtpx:hr>
          </gpxtpx:TrackPointExtension>
        </extensions>
      </trkpt>
      <trkpt lat="46.55343" lon="0.21151">
        <ele>147.60000610352</ele>
        <time>2022-04-17T08:59:02Z</time>
        <extensions>
          <gpxtpx:TrackPointExtension xmlns:gpxtpx="http://www.garmin.com/xmlschemas/TrackPointExtension/v1">
            <gpxtpx:hr>152</gpxtpx:hr>
          </gpxtpx:TrackPointExtension>
        </extensions>
      </trkpt>
      <trkpt lat="46.55347" lon="0.21152">
        <ele>148</ele>
        <time>2022-04-17T08:59:04Z</time>
        <extensions>
          <gpxtpx:TrackPointExtension xmlns:gpxtpx="http://www.garmin.com/xmlschemas/TrackPointExtension/v1">
            <gpxtpx:hr>152</gpxtpx:hr>
          </gpxtpx:TrackPointExtension>
        </extensions>
      </trkpt>
      <trkpt lat="46.5535" lon="0.21153">
        <ele>148.39999389648</ele>
        <time>2022-04-17T08:59:06Z</time>
        <extensions>
          <gpxtpx:TrackPointExtension xmlns:gpxtpx="http://www.garmin.com/xmlschemas/TrackPointExtension/v1">
            <gpxtpx:hr>152</gpxtpx:hr>
          </gpxtpx:TrackPointExtension>
        </extensions>
      </trkpt>
      <trkpt lat="46.55353" lon="0.21154">
        <ele>148.60000610352</ele>
        <time>2022-04-17T08:59:07Z</time>
        <extensions>
          <gpxtpx:TrackPointExtension xmlns:gpxtpx="http://www.garmin.com/xmlschemas/TrackPointExtension/v1">
            <gpxtpx:hr>153</gpxtpx:hr>
          </gpxtpx:TrackPointExtension>
        </extensions>
      </trkpt>
      <trkpt lat="46.55355" lon="0.21154">
        <ele>148.80000305176</ele>
        <time>2022-04-17T08:59:08Z</time>
        <extensions>
          <gpxtpx:TrackPointExtension xmlns:gpxtpx="http://www.garmin.com/xmlschemas/TrackPointExtension/v1">
            <gpxtpx:hr>152</gpxtpx:hr>
          </gpxtpx:TrackPointExtension>
        </extensions>
      </trkpt>
      <trkpt lat="46.55357" lon="0.21154">
        <ele>148.80000305176</ele>
        <time>2022-04-17T08:59:09Z</time>
        <extensions>
          <gpxtpx:TrackPointExtension xmlns:gpxtpx="http://www.garmin.com/xmlschemas/TrackPointExtension/v1">
            <gpxtpx:hr>152</gpxtpx:hr>
          </gpxtpx:TrackPointExtension>
        </extensions>
      </trkpt>
      <trkpt lat="46.55358" lon="0.21154">
        <ele>148.80000305176</ele>
        <time>2022-04-17T08:59:10Z</time>
        <extensions>
          <gpxtpx:TrackPointExtension xmlns:gpxtpx="http://www.garmin.com/xmlschemas/TrackPointExtension/v1">
            <gpxtpx:hr>152</gpxtpx:hr>
          </gpxtpx:TrackPointExtension>
        </extensions>
      </trkpt>
      <trkpt lat="46.5536" lon="0.21154">
        <ele>149</ele>
        <time>2022-04-17T08:59:11Z</time>
        <extensions>
          <gpxtpx:TrackPointExtension xmlns:gpxtpx="http://www.garmin.com/xmlschemas/TrackPointExtension/v1">
            <gpxtpx:hr>151</gpxtpx:hr>
          </gpxtpx:TrackPointExtension>
        </extensions>
      </trkpt>
      <trkpt lat="46.55362" lon="0.21154">
        <ele>149</ele>
        <time>2022-04-17T08:59:12Z</time>
        <extensions>
          <gpxtpx:TrackPointExtension xmlns:gpxtpx="http://www.garmin.com/xmlschemas/TrackPointExtension/v1">
            <gpxtpx:hr>151</gpxtpx:hr>
          </gpxtpx:TrackPointExtension>
        </extensions>
      </trkpt>
      <trkpt lat="46.55363" lon="0.21154">
        <ele>149</ele>
        <time>2022-04-17T08:59:13Z</time>
        <extensions>
          <gpxtpx:TrackPointExtension xmlns:gpxtpx="http://www.garmin.com/xmlschemas/TrackPointExtension/v1">
            <gpxtpx:hr>151</gpxtpx:hr>
          </gpxtpx:TrackPointExtension>
        </extensions>
      </trkpt>
      <trkpt lat="46.55365" lon="0.21155">
        <ele>149</ele>
        <time>2022-04-17T08:59:14Z</time>
        <extensions>
          <gpxtpx:TrackPointExtension xmlns:gpxtpx="http://www.garmin.com/xmlschemas/TrackPointExtension/v1">
            <gpxtpx:hr>150</gpxtpx:hr>
          </gpxtpx:TrackPointExtension>
        </extensions>
      </trkpt>
      <trkpt lat="46.55366" lon="0.21155">
        <ele>149</ele>
        <time>2022-04-17T08:59:15Z</time>
        <extensions>
          <gpxtpx:TrackPointExtension xmlns:gpxtpx="http://www.garmin.com/xmlschemas/TrackPointExtension/v1">
            <gpxtpx:hr>150</gpxtpx:hr>
          </gpxtpx:TrackPointExtension>
        </extensions>
      </trkpt>
      <trkpt lat="46.55368" lon="0.21156">
        <ele>149</ele>
        <time>2022-04-17T08:59:16Z</time>
        <extensions>
          <gpxtpx:TrackPointExtension xmlns:gpxtpx="http://www.garmin.com/xmlschemas/TrackPointExtension/v1">
            <gpxtpx:hr>150</gpxtpx:hr>
          </gpxtpx:TrackPointExtension>
        </extensions>
      </trkpt>
      <trkpt lat="46.5537" lon="0.21156">
        <ele>149</ele>
        <time>2022-04-17T08:59:17Z</time>
        <extensions>
          <gpxtpx:TrackPointExtension xmlns:gpxtpx="http://www.garmin.com/xmlschemas/TrackPointExtension/v1">
            <gpxtpx:hr>150</gpxtpx:hr>
          </gpxtpx:TrackPointExtension>
        </extensions>
      </trkpt>
      <trkpt lat="46.55372" lon="0.21156">
        <ele>149</ele>
        <time>2022-04-17T08:59:18Z</time>
        <extensions>
          <gpxtpx:TrackPointExtension xmlns:gpxtpx="http://www.garmin.com/xmlschemas/TrackPointExtension/v1">
            <gpxtpx:hr>149</gpxtpx:hr>
          </gpxtpx:TrackPointExtension>
        </extensions>
      </trkpt>
      <trkpt lat="46.55375" lon="0.21155">
        <ele>149</ele>
        <time>2022-04-17T08:59:19Z</time>
        <extensions>
          <gpxtpx:TrackPointExtension xmlns:gpxtpx="http://www.garmin.com/xmlschemas/TrackPointExtension/v1">
            <gpxtpx:hr>150</gpxtpx:hr>
          </gpxtpx:TrackPointExtension>
        </extensions>
      </trkpt>
      <trkpt lat="46.55378" lon="0.21153">
        <ele>149</ele>
        <time>2022-04-17T08:59:20Z</time>
        <extensions>
          <gpxtpx:TrackPointExtension xmlns:gpxtpx="http://www.garmin.com/xmlschemas/TrackPointExtension/v1">
            <gpxtpx:hr>150</gpxtpx:hr>
          </gpxtpx:TrackPointExtension>
        </extensions>
      </trkpt>
      <trkpt lat="46.55381" lon="0.2115">
        <ele>149</ele>
        <time>2022-04-17T08:59:21Z</time>
        <extensions>
          <gpxtpx:TrackPointExtension xmlns:gpxtpx="http://www.garmin.com/xmlschemas/TrackPointExtension/v1">
            <gpxtpx:hr>150</gpxtpx:hr>
          </gpxtpx:TrackPointExtension>
        </extensions>
      </trkpt>
      <trkpt lat="46.55385" lon="0.21146">
        <ele>149</ele>
        <time>2022-04-17T08:59:22Z</time>
        <extensions>
          <gpxtpx:TrackPointExtension xmlns:gpxtpx="http://www.garmin.com/xmlschemas/TrackPointExtension/v1">
            <gpxtpx:hr>150</gpxtpx:hr>
          </gpxtpx:TrackPointExtension>
        </extensions>
      </trkpt>
      <trkpt lat="46.55394" lon="0.21138">
        <ele>149</ele>
        <time>2022-04-17T08:59:25Z</time>
        <extensions>
          <gpxtpx:TrackPointExtension xmlns:gpxtpx="http://www.garmin.com/xmlschemas/TrackPointExtension/v1">
            <gpxtpx:hr>151</gpxtpx:hr>
          </gpxtpx:TrackPointExtension>
        </extensions>
      </trkpt>
      <trkpt lat="46.55395" lon="0.21137">
        <ele>149</ele>
        <time>2022-04-17T08:59:26Z</time>
        <extensions>
          <gpxtpx:TrackPointExtension xmlns:gpxtpx="http://www.garmin.com/xmlschemas/TrackPointExtension/v1">
            <gpxtpx:hr>151</gpxtpx:hr>
          </gpxtpx:TrackPointExtension>
        </extensions>
      </trkpt>
      <trkpt lat="46.55396" lon="0.21135">
        <ele>149</ele>
        <time>2022-04-17T08:59:27Z</time>
        <extensions>
          <gpxtpx:TrackPointExtension xmlns:gpxtpx="http://www.garmin.com/xmlschemas/TrackPointExtension/v1">
            <gpxtpx:hr>151</gpxtpx:hr>
          </gpxtpx:TrackPointExtension>
        </extensions>
      </trkpt>
      <trkpt lat="46.55397" lon="0.21134">
        <ele>149</ele>
        <time>2022-04-17T08:59:28Z</time>
        <extensions>
          <gpxtpx:TrackPointExtension xmlns:gpxtpx="http://www.garmin.com/xmlschemas/TrackPointExtension/v1">
            <gpxtpx:hr>150</gpxtpx:hr>
          </gpxtpx:TrackPointExtension>
        </extensions>
      </trkpt>
      <trkpt lat="46.55399" lon="0.21135">
        <ele>149</ele>
        <time>2022-04-17T08:59:29Z</time>
        <extensions>
          <gpxtpx:TrackPointExtension xmlns:gpxtpx="http://www.garmin.com/xmlschemas/TrackPointExtension/v1">
            <gpxtpx:hr>151</gpxtpx:hr>
          </gpxtpx:TrackPointExtension>
        </extensions>
      </trkpt>
      <trkpt lat="46.55402" lon="0.21136">
        <ele>149.19999694824</ele>
        <time>2022-04-17T08:59:30Z</time>
        <extensions>
          <gpxtpx:TrackPointExtension xmlns:gpxtpx="http://www.garmin.com/xmlschemas/TrackPointExtension/v1">
            <gpxtpx:hr>151</gpxtpx:hr>
          </gpxtpx:TrackPointExtension>
        </extensions>
      </trkpt>
      <trkpt lat="46.55408" lon="0.21133">
        <ele>149.19999694824</ele>
        <time>2022-04-17T08:59:32Z</time>
        <extensions>
          <gpxtpx:TrackPointExtension xmlns:gpxtpx="http://www.garmin.com/xmlschemas/TrackPointExtension/v1">
            <gpxtpx:hr>151</gpxtpx:hr>
          </gpxtpx:TrackPointExtension>
        </extensions>
      </trkpt>
      <trkpt lat="46.5541" lon="0.21132">
        <ele>149.39999389648</ele>
        <time>2022-04-17T08:59:33Z</time>
        <extensions>
          <gpxtpx:TrackPointExtension xmlns:gpxtpx="http://www.garmin.com/xmlschemas/TrackPointExtension/v1">
            <gpxtpx:hr>150</gpxtpx:hr>
          </gpxtpx:TrackPointExtension>
        </extensions>
      </trkpt>
      <trkpt lat="46.5541" lon="0.21131">
        <ele>149.39999389648</ele>
        <time>2022-04-17T08:59:34Z</time>
        <extensions>
          <gpxtpx:TrackPointExtension xmlns:gpxtpx="http://www.garmin.com/xmlschemas/TrackPointExtension/v1">
            <gpxtpx:hr>149</gpxtpx:hr>
          </gpxtpx:TrackPointExtension>
        </extensions>
      </trkpt>
      <trkpt lat="46.55411" lon="0.21129">
        <ele>149.60000610352</ele>
        <time>2022-04-17T08:59:35Z</time>
        <extensions>
          <gpxtpx:TrackPointExtension xmlns:gpxtpx="http://www.garmin.com/xmlschemas/TrackPointExtension/v1">
            <gpxtpx:hr>149</gpxtpx:hr>
          </gpxtpx:TrackPointExtension>
        </extensions>
      </trkpt>
      <trkpt lat="46.55412" lon="0.21127">
        <ele>149.60000610352</ele>
        <time>2022-04-17T08:59:36Z</time>
        <extensions>
          <gpxtpx:TrackPointExtension xmlns:gpxtpx="http://www.garmin.com/xmlschemas/TrackPointExtension/v1">
            <gpxtpx:hr>148</gpxtpx:hr>
          </gpxtpx:TrackPointExtension>
        </extensions>
      </trkpt>
      <trkpt lat="46.55415" lon="0.21125">
        <ele>149.60000610352</ele>
        <time>2022-04-17T08:59:37Z</time>
        <extensions>
          <gpxtpx:TrackPointExtension xmlns:gpxtpx="http://www.garmin.com/xmlschemas/TrackPointExtension/v1">
            <gpxtpx:hr>147</gpxtpx:hr>
          </gpxtpx:TrackPointExtension>
        </extensions>
      </trkpt>
      <trkpt lat="46.55423" lon="0.21119">
        <ele>149.60000610352</ele>
        <time>2022-04-17T08:59:39Z</time>
        <extensions>
          <gpxtpx:TrackPointExtension xmlns:gpxtpx="http://www.garmin.com/xmlschemas/TrackPointExtension/v1">
            <gpxtpx:hr>146</gpxtpx:hr>
          </gpxtpx:TrackPointExtension>
        </extensions>
      </trkpt>
      <trkpt lat="46.55425" lon="0.21117">
        <ele>149.60000610352</ele>
        <time>2022-04-17T08:59:40Z</time>
        <extensions>
          <gpxtpx:TrackPointExtension xmlns:gpxtpx="http://www.garmin.com/xmlschemas/TrackPointExtension/v1">
            <gpxtpx:hr>146</gpxtpx:hr>
          </gpxtpx:TrackPointExtension>
        </extensions>
      </trkpt>
      <trkpt lat="46.55426" lon="0.21116">
        <ele>149.39999389648</ele>
        <time>2022-04-17T08:59:41Z</time>
        <extensions>
          <gpxtpx:TrackPointExtension xmlns:gpxtpx="http://www.garmin.com/xmlschemas/TrackPointExtension/v1">
            <gpxtpx:hr>146</gpxtpx:hr>
          </gpxtpx:TrackPointExtension>
        </extensions>
      </trkpt>
      <trkpt lat="46.55427" lon="0.21115">
        <ele>149.19999694824</ele>
        <time>2022-04-17T08:59:42Z</time>
        <extensions>
          <gpxtpx:TrackPointExtension xmlns:gpxtpx="http://www.garmin.com/xmlschemas/TrackPointExtension/v1">
            <gpxtpx:hr>146</gpxtpx:hr>
          </gpxtpx:TrackPointExtension>
        </extensions>
      </trkpt>
      <trkpt lat="46.55427" lon="0.21115">
        <ele>149.19999694824</ele>
        <time>2022-04-17T08:59:43Z</time>
        <extensions>
          <gpxtpx:TrackPointExtension xmlns:gpxtpx="http://www.garmin.com/xmlschemas/TrackPointExtension/v1">
            <gpxtpx:hr>146</gpxtpx:hr>
          </gpxtpx:TrackPointExtension>
        </extensions>
      </trkpt>
      <trkpt lat="46.55436" lon="0.21101">
        <ele>148.39999389648</ele>
        <time>2022-04-17T09:01:38Z</time>
        <extensions>
          <gpxtpx:TrackPointExtension xmlns:gpxtpx="http://www.garmin.com/xmlschemas/TrackPointExtension/v1">
            <gpxtpx:hr>141</gpxtpx:hr>
          </gpxtpx:TrackPointExtension>
        </extensions>
      </trkpt>
      <trkpt lat="46.55442" lon="0.21104">
        <ele>148.60000610352</ele>
        <time>2022-04-17T09:01:40Z</time>
        <extensions>
          <gpxtpx:TrackPointExtension xmlns:gpxtpx="http://www.garmin.com/xmlschemas/TrackPointExtension/v1">
            <gpxtpx:hr>143</gpxtpx:hr>
          </gpxtpx:TrackPointExtension>
        </extensions>
      </trkpt>
      <trkpt lat="46.55445" lon="0.21106">
        <ele>148.60000610352</ele>
        <time>2022-04-17T09:01:41Z</time>
        <extensions>
          <gpxtpx:TrackPointExtension xmlns:gpxtpx="http://www.garmin.com/xmlschemas/TrackPointExtension/v1">
            <gpxtpx:hr>144</gpxtpx:hr>
          </gpxtpx:TrackPointExtension>
        </extensions>
      </trkpt>
      <trkpt lat="46.55448" lon="0.21108">
        <ele>148.80000305176</ele>
        <time>2022-04-17T09:01:42Z</time>
        <extensions>
          <gpxtpx:TrackPointExtension xmlns:gpxtpx="http://www.garmin.com/xmlschemas/TrackPointExtension/v1">
            <gpxtpx:hr>144</gpxtpx:hr>
          </gpxtpx:TrackPointExtension>
        </extensions>
      </trkpt>
      <trkpt lat="46.55461" lon="0.21118">
        <ele>149.39999389648</ele>
        <time>2022-04-17T09:01:46Z</time>
        <extensions>
          <gpxtpx:TrackPointExtension xmlns:gpxtpx="http://www.garmin.com/xmlschemas/TrackPointExtension/v1">
            <gpxtpx:hr>142</gpxtpx:hr>
          </gpxtpx:TrackPointExtension>
        </extensions>
      </trkpt>
      <trkpt lat="46.55466" lon="0.21126">
        <ele>149.39999389648</ele>
        <time>2022-04-17T09:01:48Z</time>
        <extensions>
          <gpxtpx:TrackPointExtension xmlns:gpxtpx="http://www.garmin.com/xmlschemas/TrackPointExtension/v1">
            <gpxtpx:hr>139</gpxtpx:hr>
          </gpxtpx:TrackPointExtension>
        </extensions>
      </trkpt>
      <trkpt lat="46.55474" lon="0.21134">
        <ele>149.80000305176</ele>
        <time>2022-04-17T09:01:50Z</time>
        <extensions>
          <gpxtpx:TrackPointExtension xmlns:gpxtpx="http://www.garmin.com/xmlschemas/TrackPointExtension/v1">
            <gpxtpx:hr>136</gpxtpx:hr>
          </gpxtpx:TrackPointExtension>
        </extensions>
      </trkpt>
      <trkpt lat="46.55477" lon="0.2114">
        <ele>149.80000305176</ele>
        <time>2022-04-17T09:01:51Z</time>
        <extensions>
          <gpxtpx:TrackPointExtension xmlns:gpxtpx="http://www.garmin.com/xmlschemas/TrackPointExtension/v1">
            <gpxtpx:hr>136</gpxtpx:hr>
          </gpxtpx:TrackPointExtension>
        </extensions>
      </trkpt>
      <trkpt lat="46.55485" lon="0.21154">
        <ele>149.80000305176</ele>
        <time>2022-04-17T09:01:54Z</time>
        <extensions>
          <gpxtpx:TrackPointExtension xmlns:gpxtpx="http://www.garmin.com/xmlschemas/TrackPointExtension/v1">
            <gpxtpx:hr>135</gpxtpx:hr>
          </gpxtpx:TrackPointExtension>
        </extensions>
      </trkpt>
      <trkpt lat="46.55489" lon="0.21159">
        <ele>149.80000305176</ele>
        <time>2022-04-17T09:01:55Z</time>
        <extensions>
          <gpxtpx:TrackPointExtension xmlns:gpxtpx="http://www.garmin.com/xmlschemas/TrackPointExtension/v1">
            <gpxtpx:hr>135</gpxtpx:hr>
          </gpxtpx:TrackPointExtension>
        </extensions>
      </trkpt>
      <trkpt lat="46.55492" lon="0.21165">
        <ele>149.80000305176</ele>
        <time>2022-04-17T09:01:56Z</time>
        <extensions>
          <gpxtpx:TrackPointExtension xmlns:gpxtpx="http://www.garmin.com/xmlschemas/TrackPointExtension/v1">
            <gpxtpx:hr>135</gpxtpx:hr>
          </gpxtpx:TrackPointExtension>
        </extensions>
      </trkpt>
      <trkpt lat="46.55496" lon="0.2117">
        <ele>149.80000305176</ele>
        <time>2022-04-17T09:01:57Z</time>
        <extensions>
          <gpxtpx:TrackPointExtension xmlns:gpxtpx="http://www.garmin.com/xmlschemas/TrackPointExtension/v1">
            <gpxtpx:hr>135</gpxtpx:hr>
          </gpxtpx:TrackPointExtension>
        </extensions>
      </trkpt>
      <trkpt lat="46.55506" lon="0.21185">
        <ele>149.80000305176</ele>
        <time>2022-04-17T09:02:00Z</time>
        <extensions>
          <gpxtpx:TrackPointExtension xmlns:gpxtpx="http://www.garmin.com/xmlschemas/TrackPointExtension/v1">
            <gpxtpx:hr>136</gpxtpx:hr>
          </gpxtpx:TrackPointExtension>
        </extensions>
      </trkpt>
      <trkpt lat="46.55508" lon="0.2119">
        <ele>149.80000305176</ele>
        <time>2022-04-17T09:02:01Z</time>
        <extensions>
          <gpxtpx:TrackPointExtension xmlns:gpxtpx="http://www.garmin.com/xmlschemas/TrackPointExtension/v1">
            <gpxtpx:hr>137</gpxtpx:hr>
          </gpxtpx:TrackPointExtension>
        </extensions>
      </trkpt>
      <trkpt lat="46.5551" lon="0.21195">
        <ele>149.80000305176</ele>
        <time>2022-04-17T09:02:02Z</time>
        <extensions>
          <gpxtpx:TrackPointExtension xmlns:gpxtpx="http://www.garmin.com/xmlschemas/TrackPointExtension/v1">
            <gpxtpx:hr>137</gpxtpx:hr>
          </gpxtpx:TrackPointExtension>
        </extensions>
      </trkpt>
      <trkpt lat="46.55511" lon="0.21199">
        <ele>149.80000305176</ele>
        <time>2022-04-17T09:02:03Z</time>
        <extensions>
          <gpxtpx:TrackPointExtension xmlns:gpxtpx="http://www.garmin.com/xmlschemas/TrackPointExtension/v1">
            <gpxtpx:hr>137</gpxtpx:hr>
          </gpxtpx:TrackPointExtension>
        </extensions>
      </trkpt>
      <trkpt lat="46.55514" lon="0.21207">
        <ele>149.80000305176</ele>
        <time>2022-04-17T09:02:05Z</time>
        <extensions>
          <gpxtpx:TrackPointExtension xmlns:gpxtpx="http://www.garmin.com/xmlschemas/TrackPointExtension/v1">
            <gpxtpx:hr>138</gpxtpx:hr>
          </gpxtpx:TrackPointExtension>
        </extensions>
      </trkpt>
      <trkpt lat="46.55515" lon="0.21211">
        <ele>149.80000305176</ele>
        <time>2022-04-17T09:02:06Z</time>
        <extensions>
          <gpxtpx:TrackPointExtension xmlns:gpxtpx="http://www.garmin.com/xmlschemas/TrackPointExtension/v1">
            <gpxtpx:hr>139</gpxtpx:hr>
          </gpxtpx:TrackPointExtension>
        </extensions>
      </trkpt>
      <trkpt lat="46.55517" lon="0.21216">
        <ele>149.80000305176</ele>
        <time>2022-04-17T09:02:07Z</time>
        <extensions>
          <gpxtpx:TrackPointExtension xmlns:gpxtpx="http://www.garmin.com/xmlschemas/TrackPointExtension/v1">
            <gpxtpx:hr>139</gpxtpx:hr>
          </gpxtpx:TrackPointExtension>
        </extensions>
      </trkpt>
      <trkpt lat="46.55519" lon="0.2122">
        <ele>149.80000305176</ele>
        <time>2022-04-17T09:02:08Z</time>
        <extensions>
          <gpxtpx:TrackPointExtension xmlns:gpxtpx="http://www.garmin.com/xmlschemas/TrackPointExtension/v1">
            <gpxtpx:hr>140</gpxtpx:hr>
          </gpxtpx:TrackPointExtension>
        </extensions>
      </trkpt>
      <trkpt lat="46.55521" lon="0.21224">
        <ele>149.80000305176</ele>
        <time>2022-04-17T09:02:09Z</time>
        <extensions>
          <gpxtpx:TrackPointExtension xmlns:gpxtpx="http://www.garmin.com/xmlschemas/TrackPointExtension/v1">
            <gpxtpx:hr>140</gpxtpx:hr>
          </gpxtpx:TrackPointExtension>
        </extensions>
      </trkpt>
      <trkpt lat="46.55523" lon="0.21228">
        <ele>149.60000610352</ele>
        <time>2022-04-17T09:02:10Z</time>
        <extensions>
          <gpxtpx:TrackPointExtension xmlns:gpxtpx="http://www.garmin.com/xmlschemas/TrackPointExtension/v1">
            <gpxtpx:hr>141</gpxtpx:hr>
          </gpxtpx:TrackPointExtension>
        </extensions>
      </trkpt>
      <trkpt lat="46.55525" lon="0.21231">
        <ele>149.60000610352</ele>
        <time>2022-04-17T09:02:11Z</time>
        <extensions>
          <gpxtpx:TrackPointExtension xmlns:gpxtpx="http://www.garmin.com/xmlschemas/TrackPointExtension/v1">
            <gpxtpx:hr>141</gpxtpx:hr>
          </gpxtpx:TrackPointExtension>
        </extensions>
      </trkpt>
      <trkpt lat="46.55527" lon="0.21235">
        <ele>149.60000610352</ele>
        <time>2022-04-17T09:02:12Z</time>
        <extensions>
          <gpxtpx:TrackPointExtension xmlns:gpxtpx="http://www.garmin.com/xmlschemas/TrackPointExtension/v1">
            <gpxtpx:hr>141</gpxtpx:hr>
          </gpxtpx:TrackPointExtension>
        </extensions>
      </trkpt>
      <trkpt lat="46.55529" lon="0.2124">
        <ele>149.39999389648</ele>
        <time>2022-04-17T09:02:13Z</time>
        <extensions>
          <gpxtpx:TrackPointExtension xmlns:gpxtpx="http://www.garmin.com/xmlschemas/TrackPointExtension/v1">
            <gpxtpx:hr>141</gpxtpx:hr>
          </gpxtpx:TrackPointExtension>
        </extensions>
      </trkpt>
      <trkpt lat="46.55531" lon="0.21244">
        <ele>149.39999389648</ele>
        <time>2022-04-17T09:02:14Z</time>
        <extensions>
          <gpxtpx:TrackPointExtension xmlns:gpxtpx="http://www.garmin.com/xmlschemas/TrackPointExtension/v1">
            <gpxtpx:hr>141</gpxtpx:hr>
          </gpxtpx:TrackPointExtension>
        </extensions>
      </trkpt>
      <trkpt lat="46.55538" lon="0.21256">
        <ele>149.39999389648</ele>
        <time>2022-04-17T09:02:17Z</time>
        <extensions>
          <gpxtpx:TrackPointExtension xmlns:gpxtpx="http://www.garmin.com/xmlschemas/TrackPointExtension/v1">
            <gpxtpx:hr>139</gpxtpx:hr>
          </gpxtpx:TrackPointExtension>
        </extensions>
      </trkpt>
      <trkpt lat="46.55552" lon="0.21278">
        <ele>149.60000610352</ele>
        <time>2022-04-17T09:02:22Z</time>
        <extensions>
          <gpxtpx:TrackPointExtension xmlns:gpxtpx="http://www.garmin.com/xmlschemas/TrackPointExtension/v1">
            <gpxtpx:hr>136</gpxtpx:hr>
          </gpxtpx:TrackPointExtension>
        </extensions>
      </trkpt>
      <trkpt lat="46.55558" lon="0.21286">
        <ele>149.60000610352</ele>
        <time>2022-04-17T09:02:24Z</time>
        <extensions>
          <gpxtpx:TrackPointExtension xmlns:gpxtpx="http://www.garmin.com/xmlschemas/TrackPointExtension/v1">
            <gpxtpx:hr>137</gpxtpx:hr>
          </gpxtpx:TrackPointExtension>
        </extensions>
      </trkpt>
      <trkpt lat="46.5558" lon="0.21309">
        <ele>149.60000610352</ele>
        <time>2022-04-17T09:02:31Z</time>
        <extensions>
          <gpxtpx:TrackPointExtension xmlns:gpxtpx="http://www.garmin.com/xmlschemas/TrackPointExtension/v1">
            <gpxtpx:hr>138</gpxtpx:hr>
          </gpxtpx:TrackPointExtension>
        </extensions>
      </trkpt>
      <trkpt lat="46.55599" lon="0.2132">
        <ele>149.39999389648</ele>
        <time>2022-04-17T09:02:36Z</time>
        <extensions>
          <gpxtpx:TrackPointExtension xmlns:gpxtpx="http://www.garmin.com/xmlschemas/TrackPointExtension/v1">
            <gpxtpx:hr>138</gpxtpx:hr>
          </gpxtpx:TrackPointExtension>
        </extensions>
      </trkpt>
      <trkpt lat="46.55603" lon="0.21322">
        <ele>149.39999389648</ele>
        <time>2022-04-17T09:02:37Z</time>
        <extensions>
          <gpxtpx:TrackPointExtension xmlns:gpxtpx="http://www.garmin.com/xmlschemas/TrackPointExtension/v1">
            <gpxtpx:hr>138</gpxtpx:hr>
          </gpxtpx:TrackPointExtension>
        </extensions>
      </trkpt>
      <trkpt lat="46.55627" lon="0.2133">
        <ele>149</ele>
        <time>2022-04-17T09:02:43Z</time>
        <extensions>
          <gpxtpx:TrackPointExtension xmlns:gpxtpx="http://www.garmin.com/xmlschemas/TrackPointExtension/v1">
            <gpxtpx:hr>137</gpxtpx:hr>
          </gpxtpx:TrackPointExtension>
        </extensions>
      </trkpt>
      <trkpt lat="46.55636" lon="0.21332">
        <ele>148.80000305176</ele>
        <time>2022-04-17T09:02:45Z</time>
        <extensions>
          <gpxtpx:TrackPointExtension xmlns:gpxtpx="http://www.garmin.com/xmlschemas/TrackPointExtension/v1">
            <gpxtpx:hr>135</gpxtpx:hr>
          </gpxtpx:TrackPointExtension>
        </extensions>
      </trkpt>
      <trkpt lat="46.55657" lon="0.21336">
        <ele>148.39999389648</ele>
        <time>2022-04-17T09:02:48Z</time>
        <extensions>
          <gpxtpx:TrackPointExtension xmlns:gpxtpx="http://www.garmin.com/xmlschemas/TrackPointExtension/v1">
            <gpxtpx:hr>135</gpxtpx:hr>
          </gpxtpx:TrackPointExtension>
        </extensions>
      </trkpt>
      <trkpt lat="46.55662" lon="0.21336">
        <ele>148</ele>
        <time>2022-04-17T09:02:49Z</time>
        <extensions>
          <gpxtpx:TrackPointExtension xmlns:gpxtpx="http://www.garmin.com/xmlschemas/TrackPointExtension/v1">
            <gpxtpx:hr>134</gpxtpx:hr>
          </gpxtpx:TrackPointExtension>
        </extensions>
      </trkpt>
      <trkpt lat="46.55667" lon="0.21336">
        <ele>148</ele>
        <time>2022-04-17T09:02:50Z</time>
        <extensions>
          <gpxtpx:TrackPointExtension xmlns:gpxtpx="http://www.garmin.com/xmlschemas/TrackPointExtension/v1">
            <gpxtpx:hr>133</gpxtpx:hr>
          </gpxtpx:TrackPointExtension>
        </extensions>
      </trkpt>
      <trkpt lat="46.55672" lon="0.21336">
        <ele>147.60000610352</ele>
        <time>2022-04-17T09:02:52Z</time>
        <extensions>
          <gpxtpx:TrackPointExtension xmlns:gpxtpx="http://www.garmin.com/xmlschemas/TrackPointExtension/v1">
            <gpxtpx:hr>132</gpxtpx:hr>
          </gpxtpx:TrackPointExtension>
        </extensions>
      </trkpt>
      <trkpt lat="46.55682" lon="0.21335">
        <ele>147.19999694824</ele>
        <time>2022-04-17T09:02:53Z</time>
        <extensions>
          <gpxtpx:TrackPointExtension xmlns:gpxtpx="http://www.garmin.com/xmlschemas/TrackPointExtension/v1">
            <gpxtpx:hr>131</gpxtpx:hr>
          </gpxtpx:TrackPointExtension>
        </extensions>
      </trkpt>
      <trkpt lat="46.557" lon="0.21334">
        <ele>146.39999389648</ele>
        <time>2022-04-17T09:02:56Z</time>
        <extensions>
          <gpxtpx:TrackPointExtension xmlns:gpxtpx="http://www.garmin.com/xmlschemas/TrackPointExtension/v1">
            <gpxtpx:hr>131</gpxtpx:hr>
          </gpxtpx:TrackPointExtension>
        </extensions>
      </trkpt>
      <trkpt lat="46.55714" lon="0.21337">
        <ele>146</ele>
        <time>2022-04-17T09:02:58Z</time>
        <extensions>
          <gpxtpx:TrackPointExtension xmlns:gpxtpx="http://www.garmin.com/xmlschemas/TrackPointExtension/v1">
            <gpxtpx:hr>130</gpxtpx:hr>
          </gpxtpx:TrackPointExtension>
        </extensions>
      </trkpt>
      <trkpt lat="46.55721" lon="0.21339">
        <ele>146</ele>
        <time>2022-04-17T09:02:59Z</time>
        <extensions>
          <gpxtpx:TrackPointExtension xmlns:gpxtpx="http://www.garmin.com/xmlschemas/TrackPointExtension/v1">
            <gpxtpx:hr>131</gpxtpx:hr>
          </gpxtpx:TrackPointExtension>
        </extensions>
      </trkpt>
      <trkpt lat="46.55727" lon="0.21343">
        <ele>145.60000610352</ele>
        <time>2022-04-17T09:03:00Z</time>
        <extensions>
          <gpxtpx:TrackPointExtension xmlns:gpxtpx="http://www.garmin.com/xmlschemas/TrackPointExtension/v1">
            <gpxtpx:hr>131</gpxtpx:hr>
          </gpxtpx:TrackPointExtension>
        </extensions>
      </trkpt>
      <trkpt lat="46.55732" lon="0.21348">
        <ele>145.19999694824</ele>
        <time>2022-04-17T09:03:01Z</time>
        <extensions>
          <gpxtpx:TrackPointExtension xmlns:gpxtpx="http://www.garmin.com/xmlschemas/TrackPointExtension/v1">
            <gpxtpx:hr>131</gpxtpx:hr>
          </gpxtpx:TrackPointExtension>
        </extensions>
      </trkpt>
      <trkpt lat="46.55737" lon="0.21351">
        <ele>144.60000610352</ele>
        <time>2022-04-17T09:03:02Z</time>
        <extensions>
          <gpxtpx:TrackPointExtension xmlns:gpxtpx="http://www.garmin.com/xmlschemas/TrackPointExtension/v1">
            <gpxtpx:hr>130</gpxtpx:hr>
          </gpxtpx:TrackPointExtension>
        </extensions>
      </trkpt>
      <trkpt lat="46.5574" lon="0.21354">
        <ele>143.80000305176</ele>
        <time>2022-04-17T09:03:03Z</time>
        <extensions>
          <gpxtpx:TrackPointExtension xmlns:gpxtpx="http://www.garmin.com/xmlschemas/TrackPointExtension/v1">
            <gpxtpx:hr>131</gpxtpx:hr>
          </gpxtpx:TrackPointExtension>
        </extensions>
      </trkpt>
      <trkpt lat="46.5574" lon="0.21357">
        <ele>143.39999389648</ele>
        <time>2022-04-17T09:03:04Z</time>
        <extensions>
          <gpxtpx:TrackPointExtension xmlns:gpxtpx="http://www.garmin.com/xmlschemas/TrackPointExtension/v1">
            <gpxtpx:hr>130</gpxtpx:hr>
          </gpxtpx:TrackPointExtension>
        </extensions>
      </trkpt>
      <trkpt lat="46.55741" lon="0.21358">
        <ele>143.19999694824</ele>
        <time>2022-04-17T09:03:05Z</time>
        <extensions>
          <gpxtpx:TrackPointExtension xmlns:gpxtpx="http://www.garmin.com/xmlschemas/TrackPointExtension/v1">
            <gpxtpx:hr>130</gpxtpx:hr>
          </gpxtpx:TrackPointExtension>
        </extensions>
      </trkpt>
      <trkpt lat="46.55742" lon="0.2136">
        <ele>143</ele>
        <time>2022-04-17T09:03:06Z</time>
        <extensions>
          <gpxtpx:TrackPointExtension xmlns:gpxtpx="http://www.garmin.com/xmlschemas/TrackPointExtension/v1">
            <gpxtpx:hr>129</gpxtpx:hr>
          </gpxtpx:TrackPointExtension>
        </extensions>
      </trkpt>
      <trkpt lat="46.55744" lon="0.21361">
        <ele>142.80000305176</ele>
        <time>2022-04-17T09:03:07Z</time>
        <extensions>
          <gpxtpx:TrackPointExtension xmlns:gpxtpx="http://www.garmin.com/xmlschemas/TrackPointExtension/v1">
            <gpxtpx:hr>128</gpxtpx:hr>
          </gpxtpx:TrackPointExtension>
        </extensions>
      </trkpt>
      <trkpt lat="46.55749" lon="0.21352">
        <ele>142</ele>
        <time>2022-04-17T09:04:42Z</time>
        <extensions>
          <gpxtpx:TrackPointExtension xmlns:gpxtpx="http://www.garmin.com/xmlschemas/TrackPointExtension/v1">
            <gpxtpx:hr>137</gpxtpx:hr>
          </gpxtpx:TrackPointExtension>
        </extensions>
      </trkpt>
      <trkpt lat="46.55749" lon="0.2135">
        <ele>142</ele>
        <time>2022-04-17T09:04:43Z</time>
        <extensions>
          <gpxtpx:TrackPointExtension xmlns:gpxtpx="http://www.garmin.com/xmlschemas/TrackPointExtension/v1">
            <gpxtpx:hr>136</gpxtpx:hr>
          </gpxtpx:TrackPointExtension>
        </extensions>
      </trkpt>
      <trkpt lat="46.55748" lon="0.21348">
        <ele>142</ele>
        <time>2022-04-17T09:04:44Z</time>
        <extensions>
          <gpxtpx:TrackPointExtension xmlns:gpxtpx="http://www.garmin.com/xmlschemas/TrackPointExtension/v1">
            <gpxtpx:hr>135</gpxtpx:hr>
          </gpxtpx:TrackPointExtension>
        </extensions>
      </trkpt>
      <trkpt lat="46.55748" lon="0.21346">
        <ele>142.19999694824</ele>
        <time>2022-04-17T09:04:45Z</time>
        <extensions>
          <gpxtpx:TrackPointExtension xmlns:gpxtpx="http://www.garmin.com/xmlschemas/TrackPointExtension/v1">
            <gpxtpx:hr>136</gpxtpx:hr>
          </gpxtpx:TrackPointExtension>
        </extensions>
      </trkpt>
      <trkpt lat="46.55747" lon="0.21344">
        <ele>142.19999694824</ele>
        <time>2022-04-17T09:04:46Z</time>
        <extensions>
          <gpxtpx:TrackPointExtension xmlns:gpxtpx="http://www.garmin.com/xmlschemas/TrackPointExtension/v1">
            <gpxtpx:hr>136</gpxtpx:hr>
          </gpxtpx:TrackPointExtension>
        </extensions>
      </trkpt>
      <trkpt lat="46.55747" lon="0.21343">
        <ele>142.19999694824</ele>
        <time>2022-04-17T09:04:47Z</time>
        <extensions>
          <gpxtpx:TrackPointExtension xmlns:gpxtpx="http://www.garmin.com/xmlschemas/TrackPointExtension/v1">
            <gpxtpx:hr>137</gpxtpx:hr>
          </gpxtpx:TrackPointExtension>
        </extensions>
      </trkpt>
      <trkpt lat="46.55747" lon="0.2134">
        <ele>142.19999694824</ele>
        <time>2022-04-17T09:04:48Z</time>
        <extensions>
          <gpxtpx:TrackPointExtension xmlns:gpxtpx="http://www.garmin.com/xmlschemas/TrackPointExtension/v1">
            <gpxtpx:hr>137</gpxtpx:hr>
          </gpxtpx:TrackPointExtension>
        </extensions>
      </trkpt>
      <trkpt lat="46.55747" lon="0.21338">
        <ele>142.19999694824</ele>
        <time>2022-04-17T09:04:49Z</time>
        <extensions>
          <gpxtpx:TrackPointExtension xmlns:gpxtpx="http://www.garmin.com/xmlschemas/TrackPointExtension/v1">
            <gpxtpx:hr>138</gpxtpx:hr>
          </gpxtpx:TrackPointExtension>
        </extensions>
      </trkpt>
      <trkpt lat="46.55747" lon="0.21336">
        <ele>142.39999389648</ele>
        <time>2022-04-17T09:04:50Z</time>
        <extensions>
          <gpxtpx:TrackPointExtension xmlns:gpxtpx="http://www.garmin.com/xmlschemas/TrackPointExtension/v1">
            <gpxtpx:hr>138</gpxtpx:hr>
          </gpxtpx:TrackPointExtension>
        </extensions>
      </trkpt>
      <trkpt lat="46.55746" lon="0.21333">
        <ele>142.39999389648</ele>
        <time>2022-04-17T09:04:51Z</time>
        <extensions>
          <gpxtpx:TrackPointExtension xmlns:gpxtpx="http://www.garmin.com/xmlschemas/TrackPointExtension/v1">
            <gpxtpx:hr>139</gpxtpx:hr>
          </gpxtpx:TrackPointExtension>
        </extensions>
      </trkpt>
      <trkpt lat="46.55744" lon="0.21329">
        <ele>142.39999389648</ele>
        <time>2022-04-17T09:04:52Z</time>
        <extensions>
          <gpxtpx:TrackPointExtension xmlns:gpxtpx="http://www.garmin.com/xmlschemas/TrackPointExtension/v1">
            <gpxtpx:hr>140</gpxtpx:hr>
          </gpxtpx:TrackPointExtension>
        </extensions>
      </trkpt>
      <trkpt lat="46.55743" lon="0.21326">
        <ele>142.39999389648</ele>
        <time>2022-04-17T09:04:53Z</time>
        <extensions>
          <gpxtpx:TrackPointExtension xmlns:gpxtpx="http://www.garmin.com/xmlschemas/TrackPointExtension/v1">
            <gpxtpx:hr>140</gpxtpx:hr>
          </gpxtpx:TrackPointExtension>
        </extensions>
      </trkpt>
      <trkpt lat="46.55742" lon="0.21322">
        <ele>142.60000610352</ele>
        <time>2022-04-17T09:04:54Z</time>
        <extensions>
          <gpxtpx:TrackPointExtension xmlns:gpxtpx="http://www.garmin.com/xmlschemas/TrackPointExtension/v1">
            <gpxtpx:hr>140</gpxtpx:hr>
          </gpxtpx:TrackPointExtension>
        </extensions>
      </trkpt>
      <trkpt lat="46.55742" lon="0.2132">
        <ele>142.60000610352</ele>
        <time>2022-04-17T09:04:55Z</time>
        <extensions>
          <gpxtpx:TrackPointExtension xmlns:gpxtpx="http://www.garmin.com/xmlschemas/TrackPointExtension/v1">
            <gpxtpx:hr>140</gpxtpx:hr>
          </gpxtpx:TrackPointExtension>
        </extensions>
      </trkpt>
      <trkpt lat="46.55739" lon="0.21301">
        <ele>143</ele>
        <time>2022-04-17T09:05:00Z</time>
        <extensions>
          <gpxtpx:TrackPointExtension xmlns:gpxtpx="http://www.garmin.com/xmlschemas/TrackPointExtension/v1">
            <gpxtpx:hr>141</gpxtpx:hr>
          </gpxtpx:TrackPointExtension>
        </extensions>
      </trkpt>
      <trkpt lat="46.55738" lon="0.21297">
        <ele>143.19999694824</ele>
        <time>2022-04-17T09:05:01Z</time>
        <extensions>
          <gpxtpx:TrackPointExtension xmlns:gpxtpx="http://www.garmin.com/xmlschemas/TrackPointExtension/v1">
            <gpxtpx:hr>141</gpxtpx:hr>
          </gpxtpx:TrackPointExtension>
        </extensions>
      </trkpt>
      <trkpt lat="46.55734" lon="0.21285">
        <ele>144.19999694824</ele>
        <time>2022-04-17T09:05:04Z</time>
        <extensions>
          <gpxtpx:TrackPointExtension xmlns:gpxtpx="http://www.garmin.com/xmlschemas/TrackPointExtension/v1">
            <gpxtpx:hr>142</gpxtpx:hr>
          </gpxtpx:TrackPointExtension>
        </extensions>
      </trkpt>
      <trkpt lat="46.55733" lon="0.21281">
        <ele>144.19999694824</ele>
        <time>2022-04-17T09:05:05Z</time>
        <extensions>
          <gpxtpx:TrackPointExtension xmlns:gpxtpx="http://www.garmin.com/xmlschemas/TrackPointExtension/v1">
            <gpxtpx:hr>144</gpxtpx:hr>
          </gpxtpx:TrackPointExtension>
        </extensions>
      </trkpt>
      <trkpt lat="46.55731" lon="0.21276">
        <ele>144.60000610352</ele>
        <time>2022-04-17T09:05:06Z</time>
        <extensions>
          <gpxtpx:TrackPointExtension xmlns:gpxtpx="http://www.garmin.com/xmlschemas/TrackPointExtension/v1">
            <gpxtpx:hr>145</gpxtpx:hr>
          </gpxtpx:TrackPointExtension>
        </extensions>
      </trkpt>
      <trkpt lat="46.55729" lon="0.21271">
        <ele>145</ele>
        <time>2022-04-17T09:05:08Z</time>
        <extensions>
          <gpxtpx:TrackPointExtension xmlns:gpxtpx="http://www.garmin.com/xmlschemas/TrackPointExtension/v1">
            <gpxtpx:hr>145</gpxtpx:hr>
          </gpxtpx:TrackPointExtension>
        </extensions>
      </trkpt>
      <trkpt lat="46.55727" lon="0.21268">
        <ele>145.19999694824</ele>
        <time>2022-04-17T09:05:09Z</time>
        <extensions>
          <gpxtpx:TrackPointExtension xmlns:gpxtpx="http://www.garmin.com/xmlschemas/TrackPointExtension/v1">
            <gpxtpx:hr>146</gpxtpx:hr>
          </gpxtpx:TrackPointExtension>
        </extensions>
      </trkpt>
      <trkpt lat="46.55726" lon="0.21265">
        <ele>145.39999389648</ele>
        <time>2022-04-17T09:05:10Z</time>
        <extensions>
          <gpxtpx:TrackPointExtension xmlns:gpxtpx="http://www.garmin.com/xmlschemas/TrackPointExtension/v1">
            <gpxtpx:hr>146</gpxtpx:hr>
          </gpxtpx:TrackPointExtension>
        </extensions>
      </trkpt>
      <trkpt lat="46.55726" lon="0.21262">
        <ele>145.60000610352</ele>
        <time>2022-04-17T09:05:11Z</time>
        <extensions>
          <gpxtpx:TrackPointExtension xmlns:gpxtpx="http://www.garmin.com/xmlschemas/TrackPointExtension/v1">
            <gpxtpx:hr>146</gpxtpx:hr>
          </gpxtpx:TrackPointExtension>
        </extensions>
      </trkpt>
      <trkpt lat="46.55725" lon="0.21258">
        <ele>145.60000610352</ele>
        <time>2022-04-17T09:05:12Z</time>
        <extensions>
          <gpxtpx:TrackPointExtension xmlns:gpxtpx="http://www.garmin.com/xmlschemas/TrackPointExtension/v1">
            <gpxtpx:hr>145</gpxtpx:hr>
          </gpxtpx:TrackPointExtension>
        </extensions>
      </trkpt>
      <trkpt lat="46.55724" lon="0.21255">
        <ele>145.80000305176</ele>
        <time>2022-04-17T09:05:13Z</time>
        <extensions>
          <gpxtpx:TrackPointExtension xmlns:gpxtpx="http://www.garmin.com/xmlschemas/TrackPointExtension/v1">
            <gpxtpx:hr>145</gpxtpx:hr>
          </gpxtpx:TrackPointExtension>
        </extensions>
      </trkpt>
      <trkpt lat="46.55723" lon="0.21252">
        <ele>146</ele>
        <time>2022-04-17T09:05:14Z</time>
        <extensions>
          <gpxtpx:TrackPointExtension xmlns:gpxtpx="http://www.garmin.com/xmlschemas/TrackPointExtension/v1">
            <gpxtpx:hr>145</gpxtpx:hr>
          </gpxtpx:TrackPointExtension>
        </extensions>
      </trkpt>
      <trkpt lat="46.55724" lon="0.21248">
        <ele>146</ele>
        <time>2022-04-17T09:05:15Z</time>
        <extensions>
          <gpxtpx:TrackPointExtension xmlns:gpxtpx="http://www.garmin.com/xmlschemas/TrackPointExtension/v1">
            <gpxtpx:hr>146</gpxtpx:hr>
          </gpxtpx:TrackPointExtension>
        </extensions>
      </trkpt>
      <trkpt lat="46.55723" lon="0.21246">
        <ele>146.19999694824</ele>
        <time>2022-04-17T09:05:16Z</time>
        <extensions>
          <gpxtpx:TrackPointExtension xmlns:gpxtpx="http://www.garmin.com/xmlschemas/TrackPointExtension/v1">
            <gpxtpx:hr>146</gpxtpx:hr>
          </gpxtpx:TrackPointExtension>
        </extensions>
      </trkpt>
      <trkpt lat="46.55723" lon="0.21244">
        <ele>146.19999694824</ele>
        <time>2022-04-17T09:05:17Z</time>
        <extensions>
          <gpxtpx:TrackPointExtension xmlns:gpxtpx="http://www.garmin.com/xmlschemas/TrackPointExtension/v1">
            <gpxtpx:hr>147</gpxtpx:hr>
          </gpxtpx:TrackPointExtension>
        </extensions>
      </trkpt>
      <trkpt lat="46.55723" lon="0.21242">
        <ele>146.39999389648</ele>
        <time>2022-04-17T09:05:18Z</time>
        <extensions>
          <gpxtpx:TrackPointExtension xmlns:gpxtpx="http://www.garmin.com/xmlschemas/TrackPointExtension/v1">
            <gpxtpx:hr>147</gpxtpx:hr>
          </gpxtpx:TrackPointExtension>
        </extensions>
      </trkpt>
      <trkpt lat="46.55722" lon="0.2124">
        <ele>146.60000610352</ele>
        <time>2022-04-17T09:05:19Z</time>
        <extensions>
          <gpxtpx:TrackPointExtension xmlns:gpxtpx="http://www.garmin.com/xmlschemas/TrackPointExtension/v1">
            <gpxtpx:hr>148</gpxtpx:hr>
          </gpxtpx:TrackPointExtension>
        </extensions>
      </trkpt>
      <trkpt lat="46.55722" lon="0.21239">
        <ele>146.60000610352</ele>
        <time>2022-04-17T09:05:20Z</time>
        <extensions>
          <gpxtpx:TrackPointExtension xmlns:gpxtpx="http://www.garmin.com/xmlschemas/TrackPointExtension/v1">
            <gpxtpx:hr>148</gpxtpx:hr>
          </gpxtpx:TrackPointExtension>
        </extensions>
      </trkpt>
      <trkpt lat="46.55722" lon="0.21238">
        <ele>146.60000610352</ele>
        <time>2022-04-17T09:05:21Z</time>
        <extensions>
          <gpxtpx:TrackPointExtension xmlns:gpxtpx="http://www.garmin.com/xmlschemas/TrackPointExtension/v1">
            <gpxtpx:hr>148</gpxtpx:hr>
          </gpxtpx:TrackPointExtension>
        </extensions>
      </trkpt>
      <trkpt lat="46.55722" lon="0.21236">
        <ele>146.80000305176</ele>
        <time>2022-04-17T09:05:22Z</time>
        <extensions>
          <gpxtpx:TrackPointExtension xmlns:gpxtpx="http://www.garmin.com/xmlschemas/TrackPointExtension/v1">
            <gpxtpx:hr>148</gpxtpx:hr>
          </gpxtpx:TrackPointExtension>
        </extensions>
      </trkpt>
      <trkpt lat="46.55721" lon="0.21234">
        <ele>146.80000305176</ele>
        <time>2022-04-17T09:05:23Z</time>
        <extensions>
          <gpxtpx:TrackPointExtension xmlns:gpxtpx="http://www.garmin.com/xmlschemas/TrackPointExtension/v1">
            <gpxtpx:hr>148</gpxtpx:hr>
          </gpxtpx:TrackPointExtension>
        </extensions>
      </trkpt>
      <trkpt lat="46.5572" lon="0.21232">
        <ele>146.80000305176</ele>
        <time>2022-04-17T09:05:24Z</time>
        <extensions>
          <gpxtpx:TrackPointExtension xmlns:gpxtpx="http://www.garmin.com/xmlschemas/TrackPointExtension/v1">
            <gpxtpx:hr>148</gpxtpx:hr>
          </gpxtpx:TrackPointExtension>
        </extensions>
      </trkpt>
      <trkpt lat="46.55718" lon="0.21229">
        <ele>147</ele>
        <time>2022-04-17T09:05:25Z</time>
        <extensions>
          <gpxtpx:TrackPointExtension xmlns:gpxtpx="http://www.garmin.com/xmlschemas/TrackPointExtension/v1">
            <gpxtpx:hr>148</gpxtpx:hr>
          </gpxtpx:TrackPointExtension>
        </extensions>
      </trkpt>
      <trkpt lat="46.55716" lon="0.21227">
        <ele>147</ele>
        <time>2022-04-17T09:05:26Z</time>
        <extensions>
          <gpxtpx:TrackPointExtension xmlns:gpxtpx="http://www.garmin.com/xmlschemas/TrackPointExtension/v1">
            <gpxtpx:hr>148</gpxtpx:hr>
          </gpxtpx:TrackPointExtension>
        </extensions>
      </trkpt>
      <trkpt lat="46.55715" lon="0.21226">
        <ele>147.19999694824</ele>
        <time>2022-04-17T09:05:27Z</time>
        <extensions>
          <gpxtpx:TrackPointExtension xmlns:gpxtpx="http://www.garmin.com/xmlschemas/TrackPointExtension/v1">
            <gpxtpx:hr>149</gpxtpx:hr>
          </gpxtpx:TrackPointExtension>
        </extensions>
      </trkpt>
      <trkpt lat="46.55715" lon="0.21225">
        <ele>147.19999694824</ele>
        <time>2022-04-17T09:05:28Z</time>
        <extensions>
          <gpxtpx:TrackPointExtension xmlns:gpxtpx="http://www.garmin.com/xmlschemas/TrackPointExtension/v1">
            <gpxtpx:hr>149</gpxtpx:hr>
          </gpxtpx:TrackPointExtension>
        </extensions>
      </trkpt>
      <trkpt lat="46.55714" lon="0.21223">
        <ele>147.19999694824</ele>
        <time>2022-04-17T09:05:29Z</time>
        <extensions>
          <gpxtpx:TrackPointExtension xmlns:gpxtpx="http://www.garmin.com/xmlschemas/TrackPointExtension/v1">
            <gpxtpx:hr>149</gpxtpx:hr>
          </gpxtpx:TrackPointExtension>
        </extensions>
      </trkpt>
      <trkpt lat="46.55714" lon="0.21221">
        <ele>147.39999389648</ele>
        <time>2022-04-17T09:05:30Z</time>
        <extensions>
          <gpxtpx:TrackPointExtension xmlns:gpxtpx="http://www.garmin.com/xmlschemas/TrackPointExtension/v1">
            <gpxtpx:hr>149</gpxtpx:hr>
          </gpxtpx:TrackPointExtension>
        </extensions>
      </trkpt>
      <trkpt lat="46.55713" lon="0.21219">
        <ele>147.39999389648</ele>
        <time>2022-04-17T09:05:31Z</time>
        <extensions>
          <gpxtpx:TrackPointExtension xmlns:gpxtpx="http://www.garmin.com/xmlschemas/TrackPointExtension/v1">
            <gpxtpx:hr>149</gpxtpx:hr>
          </gpxtpx:TrackPointExtension>
        </extensions>
      </trkpt>
      <trkpt lat="46.55712" lon="0.21217">
        <ele>147.60000610352</ele>
        <time>2022-04-17T09:05:32Z</time>
        <extensions>
          <gpxtpx:TrackPointExtension xmlns:gpxtpx="http://www.garmin.com/xmlschemas/TrackPointExtension/v1">
            <gpxtpx:hr>149</gpxtpx:hr>
          </gpxtpx:TrackPointExtension>
        </extensions>
      </trkpt>
      <trkpt lat="46.55711" lon="0.21215">
        <ele>147.60000610352</ele>
        <time>2022-04-17T09:05:33Z</time>
        <extensions>
          <gpxtpx:TrackPointExtension xmlns:gpxtpx="http://www.garmin.com/xmlschemas/TrackPointExtension/v1">
            <gpxtpx:hr>148</gpxtpx:hr>
          </gpxtpx:TrackPointExtension>
        </extensions>
      </trkpt>
      <trkpt lat="46.55711" lon="0.21213">
        <ele>147.60000610352</ele>
        <time>2022-04-17T09:05:34Z</time>
        <extensions>
          <gpxtpx:TrackPointExtension xmlns:gpxtpx="http://www.garmin.com/xmlschemas/TrackPointExtension/v1">
            <gpxtpx:hr>148</gpxtpx:hr>
          </gpxtpx:TrackPointExtension>
        </extensions>
      </trkpt>
      <trkpt lat="46.55711" lon="0.21211">
        <ele>147.80000305176</ele>
        <time>2022-04-17T09:05:35Z</time>
        <extensions>
          <gpxtpx:TrackPointExtension xmlns:gpxtpx="http://www.garmin.com/xmlschemas/TrackPointExtension/v1">
            <gpxtpx:hr>149</gpxtpx:hr>
          </gpxtpx:TrackPointExtension>
        </extensions>
      </trkpt>
      <trkpt lat="46.55711" lon="0.21208">
        <ele>147.80000305176</ele>
        <time>2022-04-17T09:05:36Z</time>
        <extensions>
          <gpxtpx:TrackPointExtension xmlns:gpxtpx="http://www.garmin.com/xmlschemas/TrackPointExtension/v1">
            <gpxtpx:hr>149</gpxtpx:hr>
          </gpxtpx:TrackPointExtension>
        </extensions>
      </trkpt>
      <trkpt lat="46.55711" lon="0.21206">
        <ele>147.80000305176</ele>
        <time>2022-04-17T09:05:37Z</time>
        <extensions>
          <gpxtpx:TrackPointExtension xmlns:gpxtpx="http://www.garmin.com/xmlschemas/TrackPointExtension/v1">
            <gpxtpx:hr>149</gpxtpx:hr>
          </gpxtpx:TrackPointExtension>
        </extensions>
      </trkpt>
      <trkpt lat="46.55711" lon="0.21204">
        <ele>147.80000305176</ele>
        <time>2022-04-17T09:05:38Z</time>
        <extensions>
          <gpxtpx:TrackPointExtension xmlns:gpxtpx="http://www.garmin.com/xmlschemas/TrackPointExtension/v1">
            <gpxtpx:hr>149</gpxtpx:hr>
          </gpxtpx:TrackPointExtension>
        </extensions>
      </trkpt>
      <trkpt lat="46.5571" lon="0.212">
        <ele>148</ele>
        <time>2022-04-17T09:05:39Z</time>
        <extensions>
          <gpxtpx:TrackPointExtension xmlns:gpxtpx="http://www.garmin.com/xmlschemas/TrackPointExtension/v1">
            <gpxtpx:hr>149</gpxtpx:hr>
          </gpxtpx:TrackPointExtension>
        </extensions>
      </trkpt>
      <trkpt lat="46.5571" lon="0.21197">
        <ele>148</ele>
        <time>2022-04-17T09:05:40Z</time>
        <extensions>
          <gpxtpx:TrackPointExtension xmlns:gpxtpx="http://www.garmin.com/xmlschemas/TrackPointExtension/v1">
            <gpxtpx:hr>149</gpxtpx:hr>
          </gpxtpx:TrackPointExtension>
        </extensions>
      </trkpt>
      <trkpt lat="46.55708" lon="0.21193">
        <ele>148.19999694824</ele>
        <time>2022-04-17T09:05:41Z</time>
        <extensions>
          <gpxtpx:TrackPointExtension xmlns:gpxtpx="http://www.garmin.com/xmlschemas/TrackPointExtension/v1">
            <gpxtpx:hr>148</gpxtpx:hr>
          </gpxtpx:TrackPointExtension>
        </extensions>
      </trkpt>
      <trkpt lat="46.55707" lon="0.21184">
        <ele>148.19999694824</ele>
        <time>2022-04-17T09:05:43Z</time>
        <extensions>
          <gpxtpx:TrackPointExtension xmlns:gpxtpx="http://www.garmin.com/xmlschemas/TrackPointExtension/v1">
            <gpxtpx:hr>148</gpxtpx:hr>
          </gpxtpx:TrackPointExtension>
        </extensions>
      </trkpt>
      <trkpt lat="46.55705" lon="0.21177">
        <ele>148.39999389648</ele>
        <time>2022-04-17T09:05:45Z</time>
        <extensions>
          <gpxtpx:TrackPointExtension xmlns:gpxtpx="http://www.garmin.com/xmlschemas/TrackPointExtension/v1">
            <gpxtpx:hr>148</gpxtpx:hr>
          </gpxtpx:TrackPointExtension>
        </extensions>
      </trkpt>
      <trkpt lat="46.55702" lon="0.21174">
        <ele>148.39999389648</ele>
        <time>2022-04-17T09:05:46Z</time>
        <extensions>
          <gpxtpx:TrackPointExtension xmlns:gpxtpx="http://www.garmin.com/xmlschemas/TrackPointExtension/v1">
            <gpxtpx:hr>147</gpxtpx:hr>
          </gpxtpx:TrackPointExtension>
        </extensions>
      </trkpt>
      <trkpt lat="46.55699" lon="0.21172">
        <ele>148.39999389648</ele>
        <time>2022-04-17T09:05:47Z</time>
        <extensions>
          <gpxtpx:TrackPointExtension xmlns:gpxtpx="http://www.garmin.com/xmlschemas/TrackPointExtension/v1">
            <gpxtpx:hr>147</gpxtpx:hr>
          </gpxtpx:TrackPointExtension>
        </extensions>
      </trkpt>
      <trkpt lat="46.55696" lon="0.2117">
        <ele>148.60000610352</ele>
        <time>2022-04-17T09:05:48Z</time>
        <extensions>
          <gpxtpx:TrackPointExtension xmlns:gpxtpx="http://www.garmin.com/xmlschemas/TrackPointExtension/v1">
            <gpxtpx:hr>147</gpxtpx:hr>
          </gpxtpx:TrackPointExtension>
        </extensions>
      </trkpt>
      <trkpt lat="46.55694" lon="0.21168">
        <ele>148.60000610352</ele>
        <time>2022-04-17T09:05:49Z</time>
        <extensions>
          <gpxtpx:TrackPointExtension xmlns:gpxtpx="http://www.garmin.com/xmlschemas/TrackPointExtension/v1">
            <gpxtpx:hr>147</gpxtpx:hr>
          </gpxtpx:TrackPointExtension>
        </extensions>
      </trkpt>
      <trkpt lat="46.55693" lon="0.21167">
        <ele>148.60000610352</ele>
        <time>2022-04-17T09:05:50Z</time>
        <extensions>
          <gpxtpx:TrackPointExtension xmlns:gpxtpx="http://www.garmin.com/xmlschemas/TrackPointExtension/v1">
            <gpxtpx:hr>147</gpxtpx:hr>
          </gpxtpx:TrackPointExtension>
        </extensions>
      </trkpt>
      <trkpt lat="46.55694" lon="0.21165">
        <ele>148.60000610352</ele>
        <time>2022-04-17T09:05:51Z</time>
        <extensions>
          <gpxtpx:TrackPointExtension xmlns:gpxtpx="http://www.garmin.com/xmlschemas/TrackPointExtension/v1">
            <gpxtpx:hr>147</gpxtpx:hr>
          </gpxtpx:TrackPointExtension>
        </extensions>
      </trkpt>
      <trkpt lat="46.55694" lon="0.21163">
        <ele>148.60000610352</ele>
        <time>2022-04-17T09:05:52Z</time>
        <extensions>
          <gpxtpx:TrackPointExtension xmlns:gpxtpx="http://www.garmin.com/xmlschemas/TrackPointExtension/v1">
            <gpxtpx:hr>147</gpxtpx:hr>
          </gpxtpx:TrackPointExtension>
        </extensions>
      </trkpt>
      <trkpt lat="46.55695" lon="0.2116">
        <ele>148.80000305176</ele>
        <time>2022-04-17T09:05:53Z</time>
        <extensions>
          <gpxtpx:TrackPointExtension xmlns:gpxtpx="http://www.garmin.com/xmlschemas/TrackPointExtension/v1">
            <gpxtpx:hr>147</gpxtpx:hr>
          </gpxtpx:TrackPointExtension>
        </extensions>
      </trkpt>
      <trkpt lat="46.55697" lon="0.21148">
        <ele>149</ele>
        <time>2022-04-17T09:05:56Z</time>
        <extensions>
          <gpxtpx:TrackPointExtension xmlns:gpxtpx="http://www.garmin.com/xmlschemas/TrackPointExtension/v1">
            <gpxtpx:hr>146</gpxtpx:hr>
          </gpxtpx:TrackPointExtension>
        </extensions>
      </trkpt>
      <trkpt lat="46.55699" lon="0.21141">
        <ele>149</ele>
        <time>2022-04-17T09:05:58Z</time>
        <extensions>
          <gpxtpx:TrackPointExtension xmlns:gpxtpx="http://www.garmin.com/xmlschemas/TrackPointExtension/v1">
            <gpxtpx:hr>146</gpxtpx:hr>
          </gpxtpx:TrackPointExtension>
        </extensions>
      </trkpt>
      <trkpt lat="46.55701" lon="0.21134">
        <ele>149.19999694824</ele>
        <time>2022-04-17T09:06:00Z</time>
        <extensions>
          <gpxtpx:TrackPointExtension xmlns:gpxtpx="http://www.garmin.com/xmlschemas/TrackPointExtension/v1">
            <gpxtpx:hr>147</gpxtpx:hr>
          </gpxtpx:TrackPointExtension>
        </extensions>
      </trkpt>
      <trkpt lat="46.55704" lon="0.21124">
        <ele>149.19999694824</ele>
        <time>2022-04-17T09:06:02Z</time>
        <extensions>
          <gpxtpx:TrackPointExtension xmlns:gpxtpx="http://www.garmin.com/xmlschemas/TrackPointExtension/v1">
            <gpxtpx:hr>147</gpxtpx:hr>
          </gpxtpx:TrackPointExtension>
        </extensions>
      </trkpt>
      <trkpt lat="46.55705" lon="0.21112">
        <ele>149.39999389648</ele>
        <time>2022-04-17T09:06:04Z</time>
        <extensions>
          <gpxtpx:TrackPointExtension xmlns:gpxtpx="http://www.garmin.com/xmlschemas/TrackPointExtension/v1">
            <gpxtpx:hr>147</gpxtpx:hr>
          </gpxtpx:TrackPointExtension>
        </extensions>
      </trkpt>
      <trkpt lat="46.55705" lon="0.21105">
        <ele>149.39999389648</ele>
        <time>2022-04-17T09:06:05Z</time>
        <extensions>
          <gpxtpx:TrackPointExtension xmlns:gpxtpx="http://www.garmin.com/xmlschemas/TrackPointExtension/v1">
            <gpxtpx:hr>148</gpxtpx:hr>
          </gpxtpx:TrackPointExtension>
        </extensions>
      </trkpt>
      <trkpt lat="46.55705" lon="0.21102">
        <ele>149.39999389648</ele>
        <time>2022-04-17T09:06:06Z</time>
        <extensions>
          <gpxtpx:TrackPointExtension xmlns:gpxtpx="http://www.garmin.com/xmlschemas/TrackPointExtension/v1">
            <gpxtpx:hr>148</gpxtpx:hr>
          </gpxtpx:TrackPointExtension>
        </extensions>
      </trkpt>
      <trkpt lat="46.55705" lon="0.21097">
        <ele>149.39999389648</ele>
        <time>2022-04-17T09:06:07Z</time>
        <extensions>
          <gpxtpx:TrackPointExtension xmlns:gpxtpx="http://www.garmin.com/xmlschemas/TrackPointExtension/v1">
            <gpxtpx:hr>147</gpxtpx:hr>
          </gpxtpx:TrackPointExtension>
        </extensions>
      </trkpt>
      <trkpt lat="46.55704" lon="0.21091">
        <ele>149.60000610352</ele>
        <time>2022-04-17T09:06:09Z</time>
        <extensions>
          <gpxtpx:TrackPointExtension xmlns:gpxtpx="http://www.garmin.com/xmlschemas/TrackPointExtension/v1">
            <gpxtpx:hr>147</gpxtpx:hr>
          </gpxtpx:TrackPointExtension>
        </extensions>
      </trkpt>
      <trkpt lat="46.55702" lon="0.21088">
        <ele>149.60000610352</ele>
        <time>2022-04-17T09:06:10Z</time>
        <extensions>
          <gpxtpx:TrackPointExtension xmlns:gpxtpx="http://www.garmin.com/xmlschemas/TrackPointExtension/v1">
            <gpxtpx:hr>146</gpxtpx:hr>
          </gpxtpx:TrackPointExtension>
        </extensions>
      </trkpt>
      <trkpt lat="46.55701" lon="0.21084">
        <ele>149.60000610352</ele>
        <time>2022-04-17T09:06:11Z</time>
        <extensions>
          <gpxtpx:TrackPointExtension xmlns:gpxtpx="http://www.garmin.com/xmlschemas/TrackPointExtension/v1">
            <gpxtpx:hr>146</gpxtpx:hr>
          </gpxtpx:TrackPointExtension>
        </extensions>
      </trkpt>
      <trkpt lat="46.557" lon="0.21082">
        <ele>149.60000610352</ele>
        <time>2022-04-17T09:06:12Z</time>
        <extensions>
          <gpxtpx:TrackPointExtension xmlns:gpxtpx="http://www.garmin.com/xmlschemas/TrackPointExtension/v1">
            <gpxtpx:hr>146</gpxtpx:hr>
          </gpxtpx:TrackPointExtension>
        </extensions>
      </trkpt>
      <trkpt lat="46.55699" lon="0.21079">
        <ele>149.39999389648</ele>
        <time>2022-04-17T09:06:13Z</time>
        <extensions>
          <gpxtpx:TrackPointExtension xmlns:gpxtpx="http://www.garmin.com/xmlschemas/TrackPointExtension/v1">
            <gpxtpx:hr>147</gpxtpx:hr>
          </gpxtpx:TrackPointExtension>
        </extensions>
      </trkpt>
      <trkpt lat="46.55695" lon="0.2107">
        <ele>149.60000610352</ele>
        <time>2022-04-17T09:06:16Z</time>
        <extensions>
          <gpxtpx:TrackPointExtension xmlns:gpxtpx="http://www.garmin.com/xmlschemas/TrackPointExtension/v1">
            <gpxtpx:hr>145</gpxtpx:hr>
          </gpxtpx:TrackPointExtension>
        </extensions>
      </trkpt>
      <trkpt lat="46.55693" lon="0.21064">
        <ele>149.60000610352</ele>
        <time>2022-04-17T09:06:18Z</time>
        <extensions>
          <gpxtpx:TrackPointExtension xmlns:gpxtpx="http://www.garmin.com/xmlschemas/TrackPointExtension/v1">
            <gpxtpx:hr>145</gpxtpx:hr>
          </gpxtpx:TrackPointExtension>
        </extensions>
      </trkpt>
      <trkpt lat="46.55693" lon="0.2106">
        <ele>149.60000610352</ele>
        <time>2022-04-17T09:06:19Z</time>
        <extensions>
          <gpxtpx:TrackPointExtension xmlns:gpxtpx="http://www.garmin.com/xmlschemas/TrackPointExtension/v1">
            <gpxtpx:hr>144</gpxtpx:hr>
          </gpxtpx:TrackPointExtension>
        </extensions>
      </trkpt>
      <trkpt lat="46.55692" lon="0.21056">
        <ele>149.60000610352</ele>
        <time>2022-04-17T09:06:20Z</time>
        <extensions>
          <gpxtpx:TrackPointExtension xmlns:gpxtpx="http://www.garmin.com/xmlschemas/TrackPointExtension/v1">
            <gpxtpx:hr>142</gpxtpx:hr>
          </gpxtpx:TrackPointExtension>
        </extensions>
      </trkpt>
      <trkpt lat="46.55692" lon="0.21053">
        <ele>149.60000610352</ele>
        <time>2022-04-17T09:06:21Z</time>
        <extensions>
          <gpxtpx:TrackPointExtension xmlns:gpxtpx="http://www.garmin.com/xmlschemas/TrackPointExtension/v1">
            <gpxtpx:hr>141</gpxtpx:hr>
          </gpxtpx:TrackPointExtension>
        </extensions>
      </trkpt>
      <trkpt lat="46.55692" lon="0.2105">
        <ele>149.60000610352</ele>
        <time>2022-04-17T09:06:22Z</time>
        <extensions>
          <gpxtpx:TrackPointExtension xmlns:gpxtpx="http://www.garmin.com/xmlschemas/TrackPointExtension/v1">
            <gpxtpx:hr>141</gpxtpx:hr>
          </gpxtpx:TrackPointExtension>
        </extensions>
      </trkpt>
      <trkpt lat="46.55692" lon="0.21047">
        <ele>149.80000305176</ele>
        <time>2022-04-17T09:06:23Z</time>
        <extensions>
          <gpxtpx:TrackPointExtension xmlns:gpxtpx="http://www.garmin.com/xmlschemas/TrackPointExtension/v1">
            <gpxtpx:hr>142</gpxtpx:hr>
          </gpxtpx:TrackPointExtension>
        </extensions>
      </trkpt>
      <trkpt lat="46.55691" lon="0.21044">
        <ele>149.80000305176</ele>
        <time>2022-04-17T09:06:24Z</time>
        <extensions>
          <gpxtpx:TrackPointExtension xmlns:gpxtpx="http://www.garmin.com/xmlschemas/TrackPointExtension/v1">
            <gpxtpx:hr>142</gpxtpx:hr>
          </gpxtpx:TrackPointExtension>
        </extensions>
      </trkpt>
      <trkpt lat="46.5569" lon="0.21039">
        <ele>149.80000305176</ele>
        <time>2022-04-17T09:06:25Z</time>
        <extensions>
          <gpxtpx:TrackPointExtension xmlns:gpxtpx="http://www.garmin.com/xmlschemas/TrackPointExtension/v1">
            <gpxtpx:hr>142</gpxtpx:hr>
          </gpxtpx:TrackPointExtension>
        </extensions>
      </trkpt>
      <trkpt lat="46.55689" lon="0.21035">
        <ele>149.80000305176</ele>
        <time>2022-04-17T09:06:26Z</time>
        <extensions>
          <gpxtpx:TrackPointExtension xmlns:gpxtpx="http://www.garmin.com/xmlschemas/TrackPointExtension/v1">
            <gpxtpx:hr>141</gpxtpx:hr>
          </gpxtpx:TrackPointExtension>
        </extensions>
      </trkpt>
      <trkpt lat="46.55688" lon="0.21031">
        <ele>149.60000610352</ele>
        <time>2022-04-17T09:06:27Z</time>
        <extensions>
          <gpxtpx:TrackPointExtension xmlns:gpxtpx="http://www.garmin.com/xmlschemas/TrackPointExtension/v1">
            <gpxtpx:hr>141</gpxtpx:hr>
          </gpxtpx:TrackPointExtension>
        </extensions>
      </trkpt>
      <trkpt lat="46.55685" lon="0.21008">
        <ele>149.80000305176</ele>
        <time>2022-04-17T09:06:32Z</time>
        <extensions>
          <gpxtpx:TrackPointExtension xmlns:gpxtpx="http://www.garmin.com/xmlschemas/TrackPointExtension/v1">
            <gpxtpx:hr>140</gpxtpx:hr>
          </gpxtpx:TrackPointExtension>
        </extensions>
      </trkpt>
      <trkpt lat="46.55685" lon="0.21004">
        <ele>149.60000610352</ele>
        <time>2022-04-17T09:06:33Z</time>
        <extensions>
          <gpxtpx:TrackPointExtension xmlns:gpxtpx="http://www.garmin.com/xmlschemas/TrackPointExtension/v1">
            <gpxtpx:hr>141</gpxtpx:hr>
          </gpxtpx:TrackPointExtension>
        </extensions>
      </trkpt>
      <trkpt lat="46.55685" lon="0.21">
        <ele>149.60000610352</ele>
        <time>2022-04-17T09:06:34Z</time>
        <extensions>
          <gpxtpx:TrackPointExtension xmlns:gpxtpx="http://www.garmin.com/xmlschemas/TrackPointExtension/v1">
            <gpxtpx:hr>141</gpxtpx:hr>
          </gpxtpx:TrackPointExtension>
        </extensions>
      </trkpt>
      <trkpt lat="46.55684" lon="0.20995">
        <ele>149.39999389648</ele>
        <time>2022-04-17T09:06:35Z</time>
        <extensions>
          <gpxtpx:TrackPointExtension xmlns:gpxtpx="http://www.garmin.com/xmlschemas/TrackPointExtension/v1">
            <gpxtpx:hr>141</gpxtpx:hr>
          </gpxtpx:TrackPointExtension>
        </extensions>
      </trkpt>
      <trkpt lat="46.55682" lon="0.20986">
        <ele>149.60000610352</ele>
        <time>2022-04-17T09:06:37Z</time>
        <extensions>
          <gpxtpx:TrackPointExtension xmlns:gpxtpx="http://www.garmin.com/xmlschemas/TrackPointExtension/v1">
            <gpxtpx:hr>143</gpxtpx:hr>
          </gpxtpx:TrackPointExtension>
        </extensions>
      </trkpt>
      <trkpt lat="46.55682" lon="0.20982">
        <ele>149.60000610352</ele>
        <time>2022-04-17T09:06:38Z</time>
        <extensions>
          <gpxtpx:TrackPointExtension xmlns:gpxtpx="http://www.garmin.com/xmlschemas/TrackPointExtension/v1">
            <gpxtpx:hr>143</gpxtpx:hr>
          </gpxtpx:TrackPointExtension>
        </extensions>
      </trkpt>
      <trkpt lat="46.55683" lon="0.20976">
        <ele>149.60000610352</ele>
        <time>2022-04-17T09:06:39Z</time>
        <extensions>
          <gpxtpx:TrackPointExtension xmlns:gpxtpx="http://www.garmin.com/xmlschemas/TrackPointExtension/v1">
            <gpxtpx:hr>143</gpxtpx:hr>
          </gpxtpx:TrackPointExtension>
        </extensions>
      </trkpt>
      <trkpt lat="46.55683" lon="0.20973">
        <ele>149.60000610352</ele>
        <time>2022-04-17T09:06:40Z</time>
        <extensions>
          <gpxtpx:TrackPointExtension xmlns:gpxtpx="http://www.garmin.com/xmlschemas/TrackPointExtension/v1">
            <gpxtpx:hr>143</gpxtpx:hr>
          </gpxtpx:TrackPointExtension>
        </extensions>
      </trkpt>
      <trkpt lat="46.55683" lon="0.20969">
        <ele>149.19999694824</ele>
        <time>2022-04-17T09:06:41Z</time>
        <extensions>
          <gpxtpx:TrackPointExtension xmlns:gpxtpx="http://www.garmin.com/xmlschemas/TrackPointExtension/v1">
            <gpxtpx:hr>142</gpxtpx:hr>
          </gpxtpx:TrackPointExtension>
        </extensions>
      </trkpt>
      <trkpt lat="46.55683" lon="0.20964">
        <ele>149.19999694824</ele>
        <time>2022-04-17T09:06:42Z</time>
        <extensions>
          <gpxtpx:TrackPointExtension xmlns:gpxtpx="http://www.garmin.com/xmlschemas/TrackPointExtension/v1">
            <gpxtpx:hr>141</gpxtpx:hr>
          </gpxtpx:TrackPointExtension>
        </extensions>
      </trkpt>
      <trkpt lat="46.55684" lon="0.20953">
        <ele>149.19999694824</ele>
        <time>2022-04-17T09:06:44Z</time>
        <extensions>
          <gpxtpx:TrackPointExtension xmlns:gpxtpx="http://www.garmin.com/xmlschemas/TrackPointExtension/v1">
            <gpxtpx:hr>139</gpxtpx:hr>
          </gpxtpx:TrackPointExtension>
        </extensions>
      </trkpt>
      <trkpt lat="46.55685" lon="0.20943">
        <ele>149.19999694824</ele>
        <time>2022-04-17T09:06:46Z</time>
        <extensions>
          <gpxtpx:TrackPointExtension xmlns:gpxtpx="http://www.garmin.com/xmlschemas/TrackPointExtension/v1">
            <gpxtpx:hr>138</gpxtpx:hr>
          </gpxtpx:TrackPointExtension>
        </extensions>
      </trkpt>
      <trkpt lat="46.55682" lon="0.20938">
        <ele>149.19999694824</ele>
        <time>2022-04-17T09:06:47Z</time>
        <extensions>
          <gpxtpx:TrackPointExtension xmlns:gpxtpx="http://www.garmin.com/xmlschemas/TrackPointExtension/v1">
            <gpxtpx:hr>138</gpxtpx:hr>
          </gpxtpx:TrackPointExtension>
        </extensions>
      </trkpt>
      <trkpt lat="46.55677" lon="0.20934">
        <ele>149.19999694824</ele>
        <time>2022-04-17T09:06:48Z</time>
        <extensions>
          <gpxtpx:TrackPointExtension xmlns:gpxtpx="http://www.garmin.com/xmlschemas/TrackPointExtension/v1">
            <gpxtpx:hr>138</gpxtpx:hr>
          </gpxtpx:TrackPointExtension>
        </extensions>
      </trkpt>
      <trkpt lat="46.55669" lon="0.20928">
        <ele>149</ele>
        <time>2022-04-17T09:06:50Z</time>
        <extensions>
          <gpxtpx:TrackPointExtension xmlns:gpxtpx="http://www.garmin.com/xmlschemas/TrackPointExtension/v1">
            <gpxtpx:hr>140</gpxtpx:hr>
          </gpxtpx:TrackPointExtension>
        </extensions>
      </trkpt>
      <trkpt lat="46.55664" lon="0.20925">
        <ele>148.80000305176</ele>
        <time>2022-04-17T09:06:52Z</time>
        <extensions>
          <gpxtpx:TrackPointExtension xmlns:gpxtpx="http://www.garmin.com/xmlschemas/TrackPointExtension/v1">
            <gpxtpx:hr>140</gpxtpx:hr>
          </gpxtpx:TrackPointExtension>
        </extensions>
      </trkpt>
      <trkpt lat="46.55663" lon="0.20922">
        <ele>148.39999389648</ele>
        <time>2022-04-17T09:06:53Z</time>
        <extensions>
          <gpxtpx:TrackPointExtension xmlns:gpxtpx="http://www.garmin.com/xmlschemas/TrackPointExtension/v1">
            <gpxtpx:hr>141</gpxtpx:hr>
          </gpxtpx:TrackPointExtension>
        </extensions>
      </trkpt>
      <trkpt lat="46.55664" lon="0.2092">
        <ele>148.19999694824</ele>
        <time>2022-04-17T09:06:54Z</time>
        <extensions>
          <gpxtpx:TrackPointExtension xmlns:gpxtpx="http://www.garmin.com/xmlschemas/TrackPointExtension/v1">
            <gpxtpx:hr>141</gpxtpx:hr>
          </gpxtpx:TrackPointExtension>
        </extensions>
      </trkpt>
      <trkpt lat="46.55664" lon="0.20917">
        <ele>148.19999694824</ele>
        <time>2022-04-17T09:06:55Z</time>
        <extensions>
          <gpxtpx:TrackPointExtension xmlns:gpxtpx="http://www.garmin.com/xmlschemas/TrackPointExtension/v1">
            <gpxtpx:hr>141</gpxtpx:hr>
          </gpxtpx:TrackPointExtension>
        </extensions>
      </trkpt>
      <trkpt lat="46.55654" lon="0.209">
        <ele>147.80000305176</ele>
        <time>2022-04-17T09:06:59Z</time>
        <extensions>
          <gpxtpx:TrackPointExtension xmlns:gpxtpx="http://www.garmin.com/xmlschemas/TrackPointExtension/v1">
            <gpxtpx:hr>141</gpxtpx:hr>
          </gpxtpx:TrackPointExtension>
        </extensions>
      </trkpt>
      <trkpt lat="46.55648" lon="0.20891">
        <ele>147.80000305176</ele>
        <time>2022-04-17T09:07:01Z</time>
        <extensions>
          <gpxtpx:TrackPointExtension xmlns:gpxtpx="http://www.garmin.com/xmlschemas/TrackPointExtension/v1">
            <gpxtpx:hr>142</gpxtpx:hr>
          </gpxtpx:TrackPointExtension>
        </extensions>
      </trkpt>
      <trkpt lat="46.55639" lon="0.20889">
        <ele>147.80000305176</ele>
        <time>2022-04-17T09:07:03Z</time>
        <extensions>
          <gpxtpx:TrackPointExtension xmlns:gpxtpx="http://www.garmin.com/xmlschemas/TrackPointExtension/v1">
            <gpxtpx:hr>143</gpxtpx:hr>
          </gpxtpx:TrackPointExtension>
        </extensions>
      </trkpt>
      <trkpt lat="46.55638" lon="0.20888">
        <ele>148</ele>
        <time>2022-04-17T09:07:04Z</time>
        <extensions>
          <gpxtpx:TrackPointExtension xmlns:gpxtpx="http://www.garmin.com/xmlschemas/TrackPointExtension/v1">
            <gpxtpx:hr>143</gpxtpx:hr>
          </gpxtpx:TrackPointExtension>
        </extensions>
      </trkpt>
      <trkpt lat="46.55636" lon="0.20888">
        <ele>148</ele>
        <time>2022-04-17T09:07:05Z</time>
        <extensions>
          <gpxtpx:TrackPointExtension xmlns:gpxtpx="http://www.garmin.com/xmlschemas/TrackPointExtension/v1">
            <gpxtpx:hr>144</gpxtpx:hr>
          </gpxtpx:TrackPointExtension>
        </extensions>
      </trkpt>
      <trkpt lat="46.55635" lon="0.20887">
        <ele>148</ele>
        <time>2022-04-17T09:07:06Z</time>
        <extensions>
          <gpxtpx:TrackPointExtension xmlns:gpxtpx="http://www.garmin.com/xmlschemas/TrackPointExtension/v1">
            <gpxtpx:hr>144</gpxtpx:hr>
          </gpxtpx:TrackPointExtension>
        </extensions>
      </trkpt>
      <trkpt lat="46.55627" lon="0.20885">
        <ele>148</ele>
        <time>2022-04-17T09:07:08Z</time>
        <extensions>
          <gpxtpx:TrackPointExtension xmlns:gpxtpx="http://www.garmin.com/xmlschemas/TrackPointExtension/v1">
            <gpxtpx:hr>145</gpxtpx:hr>
          </gpxtpx:TrackPointExtension>
        </extensions>
      </trkpt>
      <trkpt lat="46.55614" lon="0.20875">
        <ele>148</ele>
        <time>2022-04-17T09:07:13Z</time>
        <extensions>
          <gpxtpx:TrackPointExtension xmlns:gpxtpx="http://www.garmin.com/xmlschemas/TrackPointExtension/v1">
            <gpxtpx:hr>146</gpxtpx:hr>
          </gpxtpx:TrackPointExtension>
        </extensions>
      </trkpt>
      <trkpt lat="46.55612" lon="0.20873">
        <ele>148</ele>
        <time>2022-04-17T09:07:14Z</time>
        <extensions>
          <gpxtpx:TrackPointExtension xmlns:gpxtpx="http://www.garmin.com/xmlschemas/TrackPointExtension/v1">
            <gpxtpx:hr>146</gpxtpx:hr>
          </gpxtpx:TrackPointExtension>
        </extensions>
      </trkpt>
      <trkpt lat="46.55608" lon="0.2087">
        <ele>148</ele>
        <time>2022-04-17T09:07:15Z</time>
        <extensions>
          <gpxtpx:TrackPointExtension xmlns:gpxtpx="http://www.garmin.com/xmlschemas/TrackPointExtension/v1">
            <gpxtpx:hr>145</gpxtpx:hr>
          </gpxtpx:TrackPointExtension>
        </extensions>
      </trkpt>
      <trkpt lat="46.55605" lon="0.20867">
        <ele>148</ele>
        <time>2022-04-17T09:07:16Z</time>
        <extensions>
          <gpxtpx:TrackPointExtension xmlns:gpxtpx="http://www.garmin.com/xmlschemas/TrackPointExtension/v1">
            <gpxtpx:hr>145</gpxtpx:hr>
          </gpxtpx:TrackPointExtension>
        </extensions>
      </trkpt>
      <trkpt lat="46.55602" lon="0.20859">
        <ele>148</ele>
        <time>2022-04-17T09:07:18Z</time>
        <extensions>
          <gpxtpx:TrackPointExtension xmlns:gpxtpx="http://www.garmin.com/xmlschemas/TrackPointExtension/v1">
            <gpxtpx:hr>145</gpxtpx:hr>
          </gpxtpx:TrackPointExtension>
        </extensions>
      </trkpt>
      <trkpt lat="46.55601" lon="0.20857">
        <ele>147.80000305176</ele>
        <time>2022-04-17T09:07:19Z</time>
        <extensions>
          <gpxtpx:TrackPointExtension xmlns:gpxtpx="http://www.garmin.com/xmlschemas/TrackPointExtension/v1">
            <gpxtpx:hr>145</gpxtpx:hr>
          </gpxtpx:TrackPointExtension>
        </extensions>
      </trkpt>
      <trkpt lat="46.556" lon="0.20854">
        <ele>147.80000305176</ele>
        <time>2022-04-17T09:07:20Z</time>
        <extensions>
          <gpxtpx:TrackPointExtension xmlns:gpxtpx="http://www.garmin.com/xmlschemas/TrackPointExtension/v1">
            <gpxtpx:hr>146</gpxtpx:hr>
          </gpxtpx:TrackPointExtension>
        </extensions>
      </trkpt>
      <trkpt lat="46.55599" lon="0.20852">
        <ele>147.80000305176</ele>
        <time>2022-04-17T09:07:21Z</time>
        <extensions>
          <gpxtpx:TrackPointExtension xmlns:gpxtpx="http://www.garmin.com/xmlschemas/TrackPointExtension/v1">
            <gpxtpx:hr>146</gpxtpx:hr>
          </gpxtpx:TrackPointExtension>
        </extensions>
      </trkpt>
      <trkpt lat="46.55596" lon="0.2085">
        <ele>147.60000610352</ele>
        <time>2022-04-17T09:07:22Z</time>
        <extensions>
          <gpxtpx:TrackPointExtension xmlns:gpxtpx="http://www.garmin.com/xmlschemas/TrackPointExtension/v1">
            <gpxtpx:hr>146</gpxtpx:hr>
          </gpxtpx:TrackPointExtension>
        </extensions>
      </trkpt>
      <trkpt lat="46.55594" lon="0.20849">
        <ele>147.60000610352</ele>
        <time>2022-04-17T09:07:23Z</time>
        <extensions>
          <gpxtpx:TrackPointExtension xmlns:gpxtpx="http://www.garmin.com/xmlschemas/TrackPointExtension/v1">
            <gpxtpx:hr>146</gpxtpx:hr>
          </gpxtpx:TrackPointExtension>
        </extensions>
      </trkpt>
      <trkpt lat="46.55592" lon="0.20848">
        <ele>147.39999389648</ele>
        <time>2022-04-17T09:07:24Z</time>
        <extensions>
          <gpxtpx:TrackPointExtension xmlns:gpxtpx="http://www.garmin.com/xmlschemas/TrackPointExtension/v1">
            <gpxtpx:hr>146</gpxtpx:hr>
          </gpxtpx:TrackPointExtension>
        </extensions>
      </trkpt>
      <trkpt lat="46.55589" lon="0.20846">
        <ele>147.39999389648</ele>
        <time>2022-04-17T09:07:25Z</time>
        <extensions>
          <gpxtpx:TrackPointExtension xmlns:gpxtpx="http://www.garmin.com/xmlschemas/TrackPointExtension/v1">
            <gpxtpx:hr>145</gpxtpx:hr>
          </gpxtpx:TrackPointExtension>
        </extensions>
      </trkpt>
      <trkpt lat="46.55588" lon="0.20844">
        <ele>147.39999389648</ele>
        <time>2022-04-17T09:07:26Z</time>
        <extensions>
          <gpxtpx:TrackPointExtension xmlns:gpxtpx="http://www.garmin.com/xmlschemas/TrackPointExtension/v1">
            <gpxtpx:hr>145</gpxtpx:hr>
          </gpxtpx:TrackPointExtension>
        </extensions>
      </trkpt>
      <trkpt lat="46.55579" lon="0.20831">
        <ele>147.39999389648</ele>
        <time>2022-04-17T09:07:31Z</time>
        <extensions>
          <gpxtpx:TrackPointExtension xmlns:gpxtpx="http://www.garmin.com/xmlschemas/TrackPointExtension/v1">
            <gpxtpx:hr>147</gpxtpx:hr>
          </gpxtpx:TrackPointExtension>
        </extensions>
      </trkpt>
      <trkpt lat="46.55579" lon="0.20829">
        <ele>147.60000610352</ele>
        <time>2022-04-17T09:07:32Z</time>
        <extensions>
          <gpxtpx:TrackPointExtension xmlns:gpxtpx="http://www.garmin.com/xmlschemas/TrackPointExtension/v1">
            <gpxtpx:hr>148</gpxtpx:hr>
          </gpxtpx:TrackPointExtension>
        </extensions>
      </trkpt>
      <trkpt lat="46.5558" lon="0.20828">
        <ele>147.60000610352</ele>
        <time>2022-04-17T09:07:33Z</time>
        <extensions>
          <gpxtpx:TrackPointExtension xmlns:gpxtpx="http://www.garmin.com/xmlschemas/TrackPointExtension/v1">
            <gpxtpx:hr>148</gpxtpx:hr>
          </gpxtpx:TrackPointExtension>
        </extensions>
      </trkpt>
      <trkpt lat="46.5558" lon="0.20826">
        <ele>147.60000610352</ele>
        <time>2022-04-17T09:07:34Z</time>
        <extensions>
          <gpxtpx:TrackPointExtension xmlns:gpxtpx="http://www.garmin.com/xmlschemas/TrackPointExtension/v1">
            <gpxtpx:hr>149</gpxtpx:hr>
          </gpxtpx:TrackPointExtension>
        </extensions>
      </trkpt>
      <trkpt lat="46.55581" lon="0.20824">
        <ele>147.60000610352</ele>
        <time>2022-04-17T09:07:35Z</time>
        <extensions>
          <gpxtpx:TrackPointExtension xmlns:gpxtpx="http://www.garmin.com/xmlschemas/TrackPointExtension/v1">
            <gpxtpx:hr>150</gpxtpx:hr>
          </gpxtpx:TrackPointExtension>
        </extensions>
      </trkpt>
      <trkpt lat="46.5558" lon="0.20822">
        <ele>147.60000610352</ele>
        <time>2022-04-17T09:07:36Z</time>
        <extensions>
          <gpxtpx:TrackPointExtension xmlns:gpxtpx="http://www.garmin.com/xmlschemas/TrackPointExtension/v1">
            <gpxtpx:hr>149</gpxtpx:hr>
          </gpxtpx:TrackPointExtension>
        </extensions>
      </trkpt>
      <trkpt lat="46.5558" lon="0.2082">
        <ele>147.39999389648</ele>
        <time>2022-04-17T09:07:37Z</time>
        <extensions>
          <gpxtpx:TrackPointExtension xmlns:gpxtpx="http://www.garmin.com/xmlschemas/TrackPointExtension/v1">
            <gpxtpx:hr>149</gpxtpx:hr>
          </gpxtpx:TrackPointExtension>
        </extensions>
      </trkpt>
      <trkpt lat="46.5558" lon="0.20819">
        <ele>147.19999694824</ele>
        <time>2022-04-17T09:07:38Z</time>
        <extensions>
          <gpxtpx:TrackPointExtension xmlns:gpxtpx="http://www.garmin.com/xmlschemas/TrackPointExtension/v1">
            <gpxtpx:hr>149</gpxtpx:hr>
          </gpxtpx:TrackPointExtension>
        </extensions>
      </trkpt>
      <trkpt lat="46.55603" lon="0.20808">
        <ele>145</ele>
        <time>2022-04-17T09:08:04Z</time>
        <extensions>
          <gpxtpx:TrackPointExtension xmlns:gpxtpx="http://www.garmin.com/xmlschemas/TrackPointExtension/v1">
            <gpxtpx:hr>138</gpxtpx:hr>
          </gpxtpx:TrackPointExtension>
        </extensions>
      </trkpt>
      <trkpt lat="46.55608" lon="0.20808">
        <ele>144.80000305176</ele>
        <time>2022-04-17T09:08:05Z</time>
        <extensions>
          <gpxtpx:TrackPointExtension xmlns:gpxtpx="http://www.garmin.com/xmlschemas/TrackPointExtension/v1">
            <gpxtpx:hr>138</gpxtpx:hr>
          </gpxtpx:TrackPointExtension>
        </extensions>
      </trkpt>
      <trkpt lat="46.55615" lon="0.20806">
        <ele>144.60000610352</ele>
        <time>2022-04-17T09:08:08Z</time>
        <extensions>
          <gpxtpx:TrackPointExtension xmlns:gpxtpx="http://www.garmin.com/xmlschemas/TrackPointExtension/v1">
            <gpxtpx:hr>138</gpxtpx:hr>
          </gpxtpx:TrackPointExtension>
        </extensions>
      </trkpt>
      <trkpt lat="46.55618" lon="0.20806">
        <ele>144.60000610352</ele>
        <time>2022-04-17T09:08:09Z</time>
        <extensions>
          <gpxtpx:TrackPointExtension xmlns:gpxtpx="http://www.garmin.com/xmlschemas/TrackPointExtension/v1">
            <gpxtpx:hr>138</gpxtpx:hr>
          </gpxtpx:TrackPointExtension>
        </extensions>
      </trkpt>
      <trkpt lat="46.5562" lon="0.20806">
        <ele>144.60000610352</ele>
        <time>2022-04-17T09:08:10Z</time>
        <extensions>
          <gpxtpx:TrackPointExtension xmlns:gpxtpx="http://www.garmin.com/xmlschemas/TrackPointExtension/v1">
            <gpxtpx:hr>139</gpxtpx:hr>
          </gpxtpx:TrackPointExtension>
        </extensions>
      </trkpt>
      <trkpt lat="46.55629" lon="0.20808">
        <ele>144.19999694824</ele>
        <time>2022-04-17T09:08:12Z</time>
        <extensions>
          <gpxtpx:TrackPointExtension xmlns:gpxtpx="http://www.garmin.com/xmlschemas/TrackPointExtension/v1">
            <gpxtpx:hr>138</gpxtpx:hr>
          </gpxtpx:TrackPointExtension>
        </extensions>
      </trkpt>
      <trkpt lat="46.55633" lon="0.2081">
        <ele>144.19999694824</ele>
        <time>2022-04-17T09:08:13Z</time>
        <extensions>
          <gpxtpx:TrackPointExtension xmlns:gpxtpx="http://www.garmin.com/xmlschemas/TrackPointExtension/v1">
            <gpxtpx:hr>138</gpxtpx:hr>
          </gpxtpx:TrackPointExtension>
        </extensions>
      </trkpt>
      <trkpt lat="46.55642" lon="0.20815">
        <ele>143.80000305176</ele>
        <time>2022-04-17T09:08:16Z</time>
        <extensions>
          <gpxtpx:TrackPointExtension xmlns:gpxtpx="http://www.garmin.com/xmlschemas/TrackPointExtension/v1">
            <gpxtpx:hr>137</gpxtpx:hr>
          </gpxtpx:TrackPointExtension>
        </extensions>
      </trkpt>
      <trkpt lat="46.55645" lon="0.20816">
        <ele>143.60000610352</ele>
        <time>2022-04-17T09:08:17Z</time>
        <extensions>
          <gpxtpx:TrackPointExtension xmlns:gpxtpx="http://www.garmin.com/xmlschemas/TrackPointExtension/v1">
            <gpxtpx:hr>137</gpxtpx:hr>
          </gpxtpx:TrackPointExtension>
        </extensions>
      </trkpt>
      <trkpt lat="46.55648" lon="0.20816">
        <ele>143.60000610352</ele>
        <time>2022-04-17T09:08:18Z</time>
        <extensions>
          <gpxtpx:TrackPointExtension xmlns:gpxtpx="http://www.garmin.com/xmlschemas/TrackPointExtension/v1">
            <gpxtpx:hr>137</gpxtpx:hr>
          </gpxtpx:TrackPointExtension>
        </extensions>
      </trkpt>
      <trkpt lat="46.55652" lon="0.20816">
        <ele>143.39999389648</ele>
        <time>2022-04-17T09:08:19Z</time>
        <extensions>
          <gpxtpx:TrackPointExtension xmlns:gpxtpx="http://www.garmin.com/xmlschemas/TrackPointExtension/v1">
            <gpxtpx:hr>137</gpxtpx:hr>
          </gpxtpx:TrackPointExtension>
        </extensions>
      </trkpt>
      <trkpt lat="46.55656" lon="0.20816">
        <ele>143.39999389648</ele>
        <time>2022-04-17T09:08:20Z</time>
        <extensions>
          <gpxtpx:TrackPointExtension xmlns:gpxtpx="http://www.garmin.com/xmlschemas/TrackPointExtension/v1">
            <gpxtpx:hr>137</gpxtpx:hr>
          </gpxtpx:TrackPointExtension>
        </extensions>
      </trkpt>
      <trkpt lat="46.55659" lon="0.20817">
        <ele>143.39999389648</ele>
        <time>2022-04-17T09:08:21Z</time>
        <extensions>
          <gpxtpx:TrackPointExtension xmlns:gpxtpx="http://www.garmin.com/xmlschemas/TrackPointExtension/v1">
            <gpxtpx:hr>138</gpxtpx:hr>
          </gpxtpx:TrackPointExtension>
        </extensions>
      </trkpt>
      <trkpt lat="46.55661" lon="0.20819">
        <ele>143.39999389648</ele>
        <time>2022-04-17T09:08:22Z</time>
        <extensions>
          <gpxtpx:TrackPointExtension xmlns:gpxtpx="http://www.garmin.com/xmlschemas/TrackPointExtension/v1">
            <gpxtpx:hr>138</gpxtpx:hr>
          </gpxtpx:TrackPointExtension>
        </extensions>
      </trkpt>
      <trkpt lat="46.55664" lon="0.20821">
        <ele>143.39999389648</ele>
        <time>2022-04-17T09:08:23Z</time>
        <extensions>
          <gpxtpx:TrackPointExtension xmlns:gpxtpx="http://www.garmin.com/xmlschemas/TrackPointExtension/v1">
            <gpxtpx:hr>138</gpxtpx:hr>
          </gpxtpx:TrackPointExtension>
        </extensions>
      </trkpt>
      <trkpt lat="46.55668" lon="0.20824">
        <ele>143.39999389648</ele>
        <time>2022-04-17T09:08:24Z</time>
        <extensions>
          <gpxtpx:TrackPointExtension xmlns:gpxtpx="http://www.garmin.com/xmlschemas/TrackPointExtension/v1">
            <gpxtpx:hr>138</gpxtpx:hr>
          </gpxtpx:TrackPointExtension>
        </extensions>
      </trkpt>
      <trkpt lat="46.55684" lon="0.20831">
        <ele>143.39999389648</ele>
        <time>2022-04-17T09:08:27Z</time>
        <extensions>
          <gpxtpx:TrackPointExtension xmlns:gpxtpx="http://www.garmin.com/xmlschemas/TrackPointExtension/v1">
            <gpxtpx:hr>137</gpxtpx:hr>
          </gpxtpx:TrackPointExtension>
        </extensions>
      </trkpt>
      <trkpt lat="46.55694" lon="0.20832">
        <ele>143.19999694824</ele>
        <time>2022-04-17T09:08:29Z</time>
        <extensions>
          <gpxtpx:TrackPointExtension xmlns:gpxtpx="http://www.garmin.com/xmlschemas/TrackPointExtension/v1">
            <gpxtpx:hr>136</gpxtpx:hr>
          </gpxtpx:TrackPointExtension>
        </extensions>
      </trkpt>
      <trkpt lat="46.55696" lon="0.20831">
        <ele>143.19999694824</ele>
        <time>2022-04-17T09:08:30Z</time>
        <extensions>
          <gpxtpx:TrackPointExtension xmlns:gpxtpx="http://www.garmin.com/xmlschemas/TrackPointExtension/v1">
            <gpxtpx:hr>135</gpxtpx:hr>
          </gpxtpx:TrackPointExtension>
        </extensions>
      </trkpt>
      <trkpt lat="46.55699" lon="0.20831">
        <ele>143.19999694824</ele>
        <time>2022-04-17T09:08:31Z</time>
        <extensions>
          <gpxtpx:TrackPointExtension xmlns:gpxtpx="http://www.garmin.com/xmlschemas/TrackPointExtension/v1">
            <gpxtpx:hr>133</gpxtpx:hr>
          </gpxtpx:TrackPointExtension>
        </extensions>
      </trkpt>
      <trkpt lat="46.55702" lon="0.2083">
        <ele>143</ele>
        <time>2022-04-17T09:08:32Z</time>
        <extensions>
          <gpxtpx:TrackPointExtension xmlns:gpxtpx="http://www.garmin.com/xmlschemas/TrackPointExtension/v1">
            <gpxtpx:hr>133</gpxtpx:hr>
          </gpxtpx:TrackPointExtension>
        </extensions>
      </trkpt>
      <trkpt lat="46.55704" lon="0.2083">
        <ele>142.80000305176</ele>
        <time>2022-04-17T09:08:33Z</time>
        <extensions>
          <gpxtpx:TrackPointExtension xmlns:gpxtpx="http://www.garmin.com/xmlschemas/TrackPointExtension/v1">
            <gpxtpx:hr>134</gpxtpx:hr>
          </gpxtpx:TrackPointExtension>
        </extensions>
      </trkpt>
      <trkpt lat="46.55709" lon="0.2083">
        <ele>142.80000305176</ele>
        <time>2022-04-17T09:08:34Z</time>
        <extensions>
          <gpxtpx:TrackPointExtension xmlns:gpxtpx="http://www.garmin.com/xmlschemas/TrackPointExtension/v1">
            <gpxtpx:hr>133</gpxtpx:hr>
          </gpxtpx:TrackPointExtension>
        </extensions>
      </trkpt>
      <trkpt lat="46.55714" lon="0.20829">
        <ele>142.39999389648</ele>
        <time>2022-04-17T09:08:35Z</time>
        <extensions>
          <gpxtpx:TrackPointExtension xmlns:gpxtpx="http://www.garmin.com/xmlschemas/TrackPointExtension/v1">
            <gpxtpx:hr>132</gpxtpx:hr>
          </gpxtpx:TrackPointExtension>
        </extensions>
      </trkpt>
      <trkpt lat="46.55718" lon="0.20829">
        <ele>142.39999389648</ele>
        <time>2022-04-17T09:08:36Z</time>
        <extensions>
          <gpxtpx:TrackPointExtension xmlns:gpxtpx="http://www.garmin.com/xmlschemas/TrackPointExtension/v1">
            <gpxtpx:hr>131</gpxtpx:hr>
          </gpxtpx:TrackPointExtension>
        </extensions>
      </trkpt>
      <trkpt lat="46.55721" lon="0.20827">
        <ele>142.19999694824</ele>
        <time>2022-04-17T09:08:37Z</time>
        <extensions>
          <gpxtpx:TrackPointExtension xmlns:gpxtpx="http://www.garmin.com/xmlschemas/TrackPointExtension/v1">
            <gpxtpx:hr>130</gpxtpx:hr>
          </gpxtpx:TrackPointExtension>
        </extensions>
      </trkpt>
      <trkpt lat="46.55729" lon="0.20823">
        <ele>141.80000305176</ele>
        <time>2022-04-17T09:08:39Z</time>
        <extensions>
          <gpxtpx:TrackPointExtension xmlns:gpxtpx="http://www.garmin.com/xmlschemas/TrackPointExtension/v1">
            <gpxtpx:hr>129</gpxtpx:hr>
          </gpxtpx:TrackPointExtension>
        </extensions>
      </trkpt>
      <trkpt lat="46.55733" lon="0.20824">
        <ele>141.60000610352</ele>
        <time>2022-04-17T09:08:40Z</time>
        <extensions>
          <gpxtpx:TrackPointExtension xmlns:gpxtpx="http://www.garmin.com/xmlschemas/TrackPointExtension/v1">
            <gpxtpx:hr>129</gpxtpx:hr>
          </gpxtpx:TrackPointExtension>
        </extensions>
      </trkpt>
      <trkpt lat="46.55745" lon="0.2083">
        <ele>141</ele>
        <time>2022-04-17T09:08:43Z</time>
        <extensions>
          <gpxtpx:TrackPointExtension xmlns:gpxtpx="http://www.garmin.com/xmlschemas/TrackPointExtension/v1">
            <gpxtpx:hr>129</gpxtpx:hr>
          </gpxtpx:TrackPointExtension>
        </extensions>
      </trkpt>
      <trkpt lat="46.55748" lon="0.20832">
        <ele>140.80000305176</ele>
        <time>2022-04-17T09:08:44Z</time>
        <extensions>
          <gpxtpx:TrackPointExtension xmlns:gpxtpx="http://www.garmin.com/xmlschemas/TrackPointExtension/v1">
            <gpxtpx:hr>130</gpxtpx:hr>
          </gpxtpx:TrackPointExtension>
        </extensions>
      </trkpt>
      <trkpt lat="46.55755" lon="0.20837">
        <ele>140.19999694824</ele>
        <time>2022-04-17T09:08:46Z</time>
        <extensions>
          <gpxtpx:TrackPointExtension xmlns:gpxtpx="http://www.garmin.com/xmlschemas/TrackPointExtension/v1">
            <gpxtpx:hr>132</gpxtpx:hr>
          </gpxtpx:TrackPointExtension>
        </extensions>
      </trkpt>
      <trkpt lat="46.55764" lon="0.20838">
        <ele>140</ele>
        <time>2022-04-17T09:08:48Z</time>
        <extensions>
          <gpxtpx:TrackPointExtension xmlns:gpxtpx="http://www.garmin.com/xmlschemas/TrackPointExtension/v1">
            <gpxtpx:hr>132</gpxtpx:hr>
          </gpxtpx:TrackPointExtension>
        </extensions>
      </trkpt>
      <trkpt lat="46.55767" lon="0.20841">
        <ele>140</ele>
        <time>2022-04-17T09:08:49Z</time>
        <extensions>
          <gpxtpx:TrackPointExtension xmlns:gpxtpx="http://www.garmin.com/xmlschemas/TrackPointExtension/v1">
            <gpxtpx:hr>133</gpxtpx:hr>
          </gpxtpx:TrackPointExtension>
        </extensions>
      </trkpt>
      <trkpt lat="46.55771" lon="0.20841">
        <ele>140</ele>
        <time>2022-04-17T09:08:50Z</time>
        <extensions>
          <gpxtpx:TrackPointExtension xmlns:gpxtpx="http://www.garmin.com/xmlschemas/TrackPointExtension/v1">
            <gpxtpx:hr>135</gpxtpx:hr>
          </gpxtpx:TrackPointExtension>
        </extensions>
      </trkpt>
      <trkpt lat="46.55775" lon="0.20842">
        <ele>139.80000305176</ele>
        <time>2022-04-17T09:08:51Z</time>
        <extensions>
          <gpxtpx:TrackPointExtension xmlns:gpxtpx="http://www.garmin.com/xmlschemas/TrackPointExtension/v1">
            <gpxtpx:hr>135</gpxtpx:hr>
          </gpxtpx:TrackPointExtension>
        </extensions>
      </trkpt>
      <trkpt lat="46.55787" lon="0.20846">
        <ele>139.80000305176</ele>
        <time>2022-04-17T09:08:54Z</time>
        <extensions>
          <gpxtpx:TrackPointExtension xmlns:gpxtpx="http://www.garmin.com/xmlschemas/TrackPointExtension/v1">
            <gpxtpx:hr>134</gpxtpx:hr>
          </gpxtpx:TrackPointExtension>
        </extensions>
      </trkpt>
      <trkpt lat="46.55788" lon="0.20847">
        <ele>139.60000610352</ele>
        <time>2022-04-17T09:08:55Z</time>
        <extensions>
          <gpxtpx:TrackPointExtension xmlns:gpxtpx="http://www.garmin.com/xmlschemas/TrackPointExtension/v1">
            <gpxtpx:hr>134</gpxtpx:hr>
          </gpxtpx:TrackPointExtension>
        </extensions>
      </trkpt>
      <trkpt lat="46.5579" lon="0.2085">
        <ele>138.80000305176</ele>
        <time>2022-04-17T09:09:48Z</time>
        <extensions>
          <gpxtpx:TrackPointExtension xmlns:gpxtpx="http://www.garmin.com/xmlschemas/TrackPointExtension/v1">
            <gpxtpx:hr>128</gpxtpx:hr>
          </gpxtpx:TrackPointExtension>
        </extensions>
      </trkpt>
      <trkpt lat="46.5579" lon="0.20852">
        <ele>139</ele>
        <time>2022-04-17T09:09:49Z</time>
        <extensions>
          <gpxtpx:TrackPointExtension xmlns:gpxtpx="http://www.garmin.com/xmlschemas/TrackPointExtension/v1">
            <gpxtpx:hr>129</gpxtpx:hr>
          </gpxtpx:TrackPointExtension>
        </extensions>
      </trkpt>
      <trkpt lat="46.5579" lon="0.20855">
        <ele>139.39999389648</ele>
        <time>2022-04-17T09:09:50Z</time>
        <extensions>
          <gpxtpx:TrackPointExtension xmlns:gpxtpx="http://www.garmin.com/xmlschemas/TrackPointExtension/v1">
            <gpxtpx:hr>130</gpxtpx:hr>
          </gpxtpx:TrackPointExtension>
        </extensions>
      </trkpt>
      <trkpt lat="46.55789" lon="0.20862">
        <ele>139.60000610352</ele>
        <time>2022-04-17T09:09:52Z</time>
        <extensions>
          <gpxtpx:TrackPointExtension xmlns:gpxtpx="http://www.garmin.com/xmlschemas/TrackPointExtension/v1">
            <gpxtpx:hr>130</gpxtpx:hr>
          </gpxtpx:TrackPointExtension>
        </extensions>
      </trkpt>
      <trkpt lat="46.55789" lon="0.20865">
        <ele>140</ele>
        <time>2022-04-17T09:09:53Z</time>
        <extensions>
          <gpxtpx:TrackPointExtension xmlns:gpxtpx="http://www.garmin.com/xmlschemas/TrackPointExtension/v1">
            <gpxtpx:hr>131</gpxtpx:hr>
          </gpxtpx:TrackPointExtension>
        </extensions>
      </trkpt>
      <trkpt lat="46.5579" lon="0.20867">
        <ele>140.39999389648</ele>
        <time>2022-04-17T09:09:54Z</time>
        <extensions>
          <gpxtpx:TrackPointExtension xmlns:gpxtpx="http://www.garmin.com/xmlschemas/TrackPointExtension/v1">
            <gpxtpx:hr>131</gpxtpx:hr>
          </gpxtpx:TrackPointExtension>
        </extensions>
      </trkpt>
      <trkpt lat="46.55791" lon="0.20873">
        <ele>141.39999389648</ele>
        <time>2022-04-17T09:09:56Z</time>
        <extensions>
          <gpxtpx:TrackPointExtension xmlns:gpxtpx="http://www.garmin.com/xmlschemas/TrackPointExtension/v1">
            <gpxtpx:hr>135</gpxtpx:hr>
          </gpxtpx:TrackPointExtension>
        </extensions>
      </trkpt>
      <trkpt lat="46.55792" lon="0.20876">
        <ele>141.80000305176</ele>
        <time>2022-04-17T09:09:57Z</time>
        <extensions>
          <gpxtpx:TrackPointExtension xmlns:gpxtpx="http://www.garmin.com/xmlschemas/TrackPointExtension/v1">
            <gpxtpx:hr>134</gpxtpx:hr>
          </gpxtpx:TrackPointExtension>
        </extensions>
      </trkpt>
      <trkpt lat="46.55792" lon="0.20878">
        <ele>142</ele>
        <time>2022-04-17T09:09:58Z</time>
        <extensions>
          <gpxtpx:TrackPointExtension xmlns:gpxtpx="http://www.garmin.com/xmlschemas/TrackPointExtension/v1">
            <gpxtpx:hr>134</gpxtpx:hr>
          </gpxtpx:TrackPointExtension>
        </extensions>
      </trkpt>
      <trkpt lat="46.55792" lon="0.20883">
        <ele>142.80000305176</ele>
        <time>2022-04-17T09:10:00Z</time>
        <extensions>
          <gpxtpx:TrackPointExtension xmlns:gpxtpx="http://www.garmin.com/xmlschemas/TrackPointExtension/v1">
            <gpxtpx:hr>135</gpxtpx:hr>
          </gpxtpx:TrackPointExtension>
        </extensions>
      </trkpt>
      <trkpt lat="46.55792" lon="0.20883">
        <ele>143</ele>
        <time>2022-04-17T09:10:01Z</time>
        <extensions>
          <gpxtpx:TrackPointExtension xmlns:gpxtpx="http://www.garmin.com/xmlschemas/TrackPointExtension/v1">
            <gpxtpx:hr>135</gpxtpx:hr>
          </gpxtpx:TrackPointExtension>
        </extensions>
      </trkpt>
      <trkpt lat="46.55792" lon="0.20884">
        <ele>143.19999694824</ele>
        <time>2022-04-17T09:10:02Z</time>
        <extensions>
          <gpxtpx:TrackPointExtension xmlns:gpxtpx="http://www.garmin.com/xmlschemas/TrackPointExtension/v1">
            <gpxtpx:hr>135</gpxtpx:hr>
          </gpxtpx:TrackPointExtension>
        </extensions>
      </trkpt>
      <trkpt lat="46.55791" lon="0.20886">
        <ele>143.19999694824</ele>
        <time>2022-04-17T09:10:03Z</time>
        <extensions>
          <gpxtpx:TrackPointExtension xmlns:gpxtpx="http://www.garmin.com/xmlschemas/TrackPointExtension/v1">
            <gpxtpx:hr>136</gpxtpx:hr>
          </gpxtpx:TrackPointExtension>
        </extensions>
      </trkpt>
      <trkpt lat="46.55791" lon="0.2089">
        <ele>143.60000610352</ele>
        <time>2022-04-17T09:10:04Z</time>
        <extensions>
          <gpxtpx:TrackPointExtension xmlns:gpxtpx="http://www.garmin.com/xmlschemas/TrackPointExtension/v1">
            <gpxtpx:hr>136</gpxtpx:hr>
          </gpxtpx:TrackPointExtension>
        </extensions>
      </trkpt>
      <trkpt lat="46.5579" lon="0.20893">
        <ele>143.60000610352</ele>
        <time>2022-04-17T09:10:05Z</time>
        <extensions>
          <gpxtpx:TrackPointExtension xmlns:gpxtpx="http://www.garmin.com/xmlschemas/TrackPointExtension/v1">
            <gpxtpx:hr>136</gpxtpx:hr>
          </gpxtpx:TrackPointExtension>
        </extensions>
      </trkpt>
      <trkpt lat="46.55791" lon="0.20896">
        <ele>144</ele>
        <time>2022-04-17T09:10:06Z</time>
        <extensions>
          <gpxtpx:TrackPointExtension xmlns:gpxtpx="http://www.garmin.com/xmlschemas/TrackPointExtension/v1">
            <gpxtpx:hr>136</gpxtpx:hr>
          </gpxtpx:TrackPointExtension>
        </extensions>
      </trkpt>
      <trkpt lat="46.55792" lon="0.20898">
        <ele>144.19999694824</ele>
        <time>2022-04-17T09:10:07Z</time>
        <extensions>
          <gpxtpx:TrackPointExtension xmlns:gpxtpx="http://www.garmin.com/xmlschemas/TrackPointExtension/v1">
            <gpxtpx:hr>136</gpxtpx:hr>
          </gpxtpx:TrackPointExtension>
        </extensions>
      </trkpt>
      <trkpt lat="46.55793" lon="0.209">
        <ele>144.39999389648</ele>
        <time>2022-04-17T09:10:08Z</time>
        <extensions>
          <gpxtpx:TrackPointExtension xmlns:gpxtpx="http://www.garmin.com/xmlschemas/TrackPointExtension/v1">
            <gpxtpx:hr>137</gpxtpx:hr>
          </gpxtpx:TrackPointExtension>
        </extensions>
      </trkpt>
      <trkpt lat="46.55794" lon="0.20903">
        <ele>144.60000610352</ele>
        <time>2022-04-17T09:10:09Z</time>
        <extensions>
          <gpxtpx:TrackPointExtension xmlns:gpxtpx="http://www.garmin.com/xmlschemas/TrackPointExtension/v1">
            <gpxtpx:hr>136</gpxtpx:hr>
          </gpxtpx:TrackPointExtension>
        </extensions>
      </trkpt>
      <trkpt lat="46.55795" lon="0.20906">
        <ele>144.60000610352</ele>
        <time>2022-04-17T09:10:10Z</time>
        <extensions>
          <gpxtpx:TrackPointExtension xmlns:gpxtpx="http://www.garmin.com/xmlschemas/TrackPointExtension/v1">
            <gpxtpx:hr>137</gpxtpx:hr>
          </gpxtpx:TrackPointExtension>
        </extensions>
      </trkpt>
      <trkpt lat="46.55796" lon="0.20909">
        <ele>144.80000305176</ele>
        <time>2022-04-17T09:10:11Z</time>
        <extensions>
          <gpxtpx:TrackPointExtension xmlns:gpxtpx="http://www.garmin.com/xmlschemas/TrackPointExtension/v1">
            <gpxtpx:hr>136</gpxtpx:hr>
          </gpxtpx:TrackPointExtension>
        </extensions>
      </trkpt>
      <trkpt lat="46.55797" lon="0.20911">
        <ele>145</ele>
        <time>2022-04-17T09:10:12Z</time>
        <extensions>
          <gpxtpx:TrackPointExtension xmlns:gpxtpx="http://www.garmin.com/xmlschemas/TrackPointExtension/v1">
            <gpxtpx:hr>139</gpxtpx:hr>
          </gpxtpx:TrackPointExtension>
        </extensions>
      </trkpt>
      <trkpt lat="46.55798" lon="0.20915">
        <ele>145.39999389648</ele>
        <time>2022-04-17T09:10:13Z</time>
        <extensions>
          <gpxtpx:TrackPointExtension xmlns:gpxtpx="http://www.garmin.com/xmlschemas/TrackPointExtension/v1">
            <gpxtpx:hr>139</gpxtpx:hr>
          </gpxtpx:TrackPointExtension>
        </extensions>
      </trkpt>
      <trkpt lat="46.55799" lon="0.20918">
        <ele>145.60000610352</ele>
        <time>2022-04-17T09:10:14Z</time>
        <extensions>
          <gpxtpx:TrackPointExtension xmlns:gpxtpx="http://www.garmin.com/xmlschemas/TrackPointExtension/v1">
            <gpxtpx:hr>141</gpxtpx:hr>
          </gpxtpx:TrackPointExtension>
        </extensions>
      </trkpt>
      <trkpt lat="46.55799" lon="0.20921">
        <ele>145.60000610352</ele>
        <time>2022-04-17T09:10:15Z</time>
        <extensions>
          <gpxtpx:TrackPointExtension xmlns:gpxtpx="http://www.garmin.com/xmlschemas/TrackPointExtension/v1">
            <gpxtpx:hr>142</gpxtpx:hr>
          </gpxtpx:TrackPointExtension>
        </extensions>
      </trkpt>
      <trkpt lat="46.55799" lon="0.20924">
        <ele>145.80000305176</ele>
        <time>2022-04-17T09:10:16Z</time>
        <extensions>
          <gpxtpx:TrackPointExtension xmlns:gpxtpx="http://www.garmin.com/xmlschemas/TrackPointExtension/v1">
            <gpxtpx:hr>143</gpxtpx:hr>
          </gpxtpx:TrackPointExtension>
        </extensions>
      </trkpt>
      <trkpt lat="46.55799" lon="0.20928">
        <ele>145.80000305176</ele>
        <time>2022-04-17T09:10:17Z</time>
        <extensions>
          <gpxtpx:TrackPointExtension xmlns:gpxtpx="http://www.garmin.com/xmlschemas/TrackPointExtension/v1">
            <gpxtpx:hr>144</gpxtpx:hr>
          </gpxtpx:TrackPointExtension>
        </extensions>
      </trkpt>
      <trkpt lat="46.558" lon="0.2093">
        <ele>146</ele>
        <time>2022-04-17T09:10:18Z</time>
        <extensions>
          <gpxtpx:TrackPointExtension xmlns:gpxtpx="http://www.garmin.com/xmlschemas/TrackPointExtension/v1">
            <gpxtpx:hr>145</gpxtpx:hr>
          </gpxtpx:TrackPointExtension>
        </extensions>
      </trkpt>
      <trkpt lat="46.55802" lon="0.20933">
        <ele>146</ele>
        <time>2022-04-17T09:10:19Z</time>
        <extensions>
          <gpxtpx:TrackPointExtension xmlns:gpxtpx="http://www.garmin.com/xmlschemas/TrackPointExtension/v1">
            <gpxtpx:hr>146</gpxtpx:hr>
          </gpxtpx:TrackPointExtension>
        </extensions>
      </trkpt>
      <trkpt lat="46.55803" lon="0.20936">
        <ele>146.19999694824</ele>
        <time>2022-04-17T09:10:20Z</time>
        <extensions>
          <gpxtpx:TrackPointExtension xmlns:gpxtpx="http://www.garmin.com/xmlschemas/TrackPointExtension/v1">
            <gpxtpx:hr>147</gpxtpx:hr>
          </gpxtpx:TrackPointExtension>
        </extensions>
      </trkpt>
      <trkpt lat="46.55805" lon="0.20939">
        <ele>146.19999694824</ele>
        <time>2022-04-17T09:10:21Z</time>
        <extensions>
          <gpxtpx:TrackPointExtension xmlns:gpxtpx="http://www.garmin.com/xmlschemas/TrackPointExtension/v1">
            <gpxtpx:hr>147</gpxtpx:hr>
          </gpxtpx:TrackPointExtension>
        </extensions>
      </trkpt>
      <trkpt lat="46.55805" lon="0.20943">
        <ele>146.39999389648</ele>
        <time>2022-04-17T09:10:22Z</time>
        <extensions>
          <gpxtpx:TrackPointExtension xmlns:gpxtpx="http://www.garmin.com/xmlschemas/TrackPointExtension/v1">
            <gpxtpx:hr>148</gpxtpx:hr>
          </gpxtpx:TrackPointExtension>
        </extensions>
      </trkpt>
      <trkpt lat="46.55807" lon="0.20945">
        <ele>146.60000610352</ele>
        <time>2022-04-17T09:10:23Z</time>
        <extensions>
          <gpxtpx:TrackPointExtension xmlns:gpxtpx="http://www.garmin.com/xmlschemas/TrackPointExtension/v1">
            <gpxtpx:hr>148</gpxtpx:hr>
          </gpxtpx:TrackPointExtension>
        </extensions>
      </trkpt>
      <trkpt lat="46.55808" lon="0.20948">
        <ele>146.60000610352</ele>
        <time>2022-04-17T09:10:24Z</time>
        <extensions>
          <gpxtpx:TrackPointExtension xmlns:gpxtpx="http://www.garmin.com/xmlschemas/TrackPointExtension/v1">
            <gpxtpx:hr>149</gpxtpx:hr>
          </gpxtpx:TrackPointExtension>
        </extensions>
      </trkpt>
      <trkpt lat="46.55809" lon="0.20951">
        <ele>146.60000610352</ele>
        <time>2022-04-17T09:10:25Z</time>
        <extensions>
          <gpxtpx:TrackPointExtension xmlns:gpxtpx="http://www.garmin.com/xmlschemas/TrackPointExtension/v1">
            <gpxtpx:hr>149</gpxtpx:hr>
          </gpxtpx:TrackPointExtension>
        </extensions>
      </trkpt>
      <trkpt lat="46.55809" lon="0.20953">
        <ele>146.80000305176</ele>
        <time>2022-04-17T09:10:26Z</time>
        <extensions>
          <gpxtpx:TrackPointExtension xmlns:gpxtpx="http://www.garmin.com/xmlschemas/TrackPointExtension/v1">
            <gpxtpx:hr>150</gpxtpx:hr>
          </gpxtpx:TrackPointExtension>
        </extensions>
      </trkpt>
      <trkpt lat="46.55809" lon="0.20956">
        <ele>146.80000305176</ele>
        <time>2022-04-17T09:10:27Z</time>
        <extensions>
          <gpxtpx:TrackPointExtension xmlns:gpxtpx="http://www.garmin.com/xmlschemas/TrackPointExtension/v1">
            <gpxtpx:hr>150</gpxtpx:hr>
          </gpxtpx:TrackPointExtension>
        </extensions>
      </trkpt>
      <trkpt lat="46.55809" lon="0.20959">
        <ele>147</ele>
        <time>2022-04-17T09:10:28Z</time>
        <extensions>
          <gpxtpx:TrackPointExtension xmlns:gpxtpx="http://www.garmin.com/xmlschemas/TrackPointExtension/v1">
            <gpxtpx:hr>150</gpxtpx:hr>
          </gpxtpx:TrackPointExtension>
        </extensions>
      </trkpt>
      <trkpt lat="46.55808" lon="0.20964">
        <ele>147</ele>
        <time>2022-04-17T09:10:29Z</time>
        <extensions>
          <gpxtpx:TrackPointExtension xmlns:gpxtpx="http://www.garmin.com/xmlschemas/TrackPointExtension/v1">
            <gpxtpx:hr>151</gpxtpx:hr>
          </gpxtpx:TrackPointExtension>
        </extensions>
      </trkpt>
      <trkpt lat="46.55807" lon="0.20966">
        <ele>147</ele>
        <time>2022-04-17T09:10:30Z</time>
        <extensions>
          <gpxtpx:TrackPointExtension xmlns:gpxtpx="http://www.garmin.com/xmlschemas/TrackPointExtension/v1">
            <gpxtpx:hr>151</gpxtpx:hr>
          </gpxtpx:TrackPointExtension>
        </extensions>
      </trkpt>
      <trkpt lat="46.55806" lon="0.20968">
        <ele>147.19999694824</ele>
        <time>2022-04-17T09:10:31Z</time>
        <extensions>
          <gpxtpx:TrackPointExtension xmlns:gpxtpx="http://www.garmin.com/xmlschemas/TrackPointExtension/v1">
            <gpxtpx:hr>151</gpxtpx:hr>
          </gpxtpx:TrackPointExtension>
        </extensions>
      </trkpt>
      <trkpt lat="46.55806" lon="0.20969">
        <ele>147.19999694824</ele>
        <time>2022-04-17T09:10:32Z</time>
        <extensions>
          <gpxtpx:TrackPointExtension xmlns:gpxtpx="http://www.garmin.com/xmlschemas/TrackPointExtension/v1">
            <gpxtpx:hr>151</gpxtpx:hr>
          </gpxtpx:TrackPointExtension>
        </extensions>
      </trkpt>
      <trkpt lat="46.55802" lon="0.20971">
        <ele>148</ele>
        <time>2022-04-17T09:10:57Z</time>
        <extensions>
          <gpxtpx:TrackPointExtension xmlns:gpxtpx="http://www.garmin.com/xmlschemas/TrackPointExtension/v1">
            <gpxtpx:hr>146</gpxtpx:hr>
          </gpxtpx:TrackPointExtension>
        </extensions>
      </trkpt>
      <trkpt lat="46.55801" lon="0.20972">
        <ele>148</ele>
        <time>2022-04-17T09:10:59Z</time>
        <extensions>
          <gpxtpx:TrackPointExtension xmlns:gpxtpx="http://www.garmin.com/xmlschemas/TrackPointExtension/v1">
            <gpxtpx:hr>144</gpxtpx:hr>
          </gpxtpx:TrackPointExtension>
        </extensions>
      </trkpt>
      <trkpt lat="46.55806" lon="0.20976">
        <ele>148</ele>
        <time>2022-04-17T09:11:13Z</time>
        <extensions>
          <gpxtpx:TrackPointExtension xmlns:gpxtpx="http://www.garmin.com/xmlschemas/TrackPointExtension/v1">
            <gpxtpx:hr>139</gpxtpx:hr>
          </gpxtpx:TrackPointExtension>
        </extensions>
      </trkpt>
      <trkpt lat="46.55811" lon="0.20981">
        <ele>148</ele>
        <time>2022-04-17T09:11:16Z</time>
        <extensions>
          <gpxtpx:TrackPointExtension xmlns:gpxtpx="http://www.garmin.com/xmlschemas/TrackPointExtension/v1">
            <gpxtpx:hr>138</gpxtpx:hr>
          </gpxtpx:TrackPointExtension>
        </extensions>
      </trkpt>
      <trkpt lat="46.55814" lon="0.20988">
        <ele>148</ele>
        <time>2022-04-17T09:11:18Z</time>
        <extensions>
          <gpxtpx:TrackPointExtension xmlns:gpxtpx="http://www.garmin.com/xmlschemas/TrackPointExtension/v1">
            <gpxtpx:hr>139</gpxtpx:hr>
          </gpxtpx:TrackPointExtension>
        </extensions>
      </trkpt>
      <trkpt lat="46.55815" lon="0.2099">
        <ele>148</ele>
        <time>2022-04-17T09:11:19Z</time>
        <extensions>
          <gpxtpx:TrackPointExtension xmlns:gpxtpx="http://www.garmin.com/xmlschemas/TrackPointExtension/v1">
            <gpxtpx:hr>140</gpxtpx:hr>
          </gpxtpx:TrackPointExtension>
        </extensions>
      </trkpt>
      <trkpt lat="46.55817" lon="0.20992">
        <ele>148</ele>
        <time>2022-04-17T09:11:20Z</time>
        <extensions>
          <gpxtpx:TrackPointExtension xmlns:gpxtpx="http://www.garmin.com/xmlschemas/TrackPointExtension/v1">
            <gpxtpx:hr>141</gpxtpx:hr>
          </gpxtpx:TrackPointExtension>
        </extensions>
      </trkpt>
      <trkpt lat="46.55819" lon="0.20994">
        <ele>148.19999694824</ele>
        <time>2022-04-17T09:11:21Z</time>
        <extensions>
          <gpxtpx:TrackPointExtension xmlns:gpxtpx="http://www.garmin.com/xmlschemas/TrackPointExtension/v1">
            <gpxtpx:hr>142</gpxtpx:hr>
          </gpxtpx:TrackPointExtension>
        </extensions>
      </trkpt>
      <trkpt lat="46.55824" lon="0.20995">
        <ele>148</ele>
        <time>2022-04-17T09:11:23Z</time>
        <extensions>
          <gpxtpx:TrackPointExtension xmlns:gpxtpx="http://www.garmin.com/xmlschemas/TrackPointExtension/v1">
            <gpxtpx:hr>143</gpxtpx:hr>
          </gpxtpx:TrackPointExtension>
        </extensions>
      </trkpt>
      <trkpt lat="46.55827" lon="0.20994">
        <ele>148</ele>
        <time>2022-04-17T09:11:24Z</time>
        <extensions>
          <gpxtpx:TrackPointExtension xmlns:gpxtpx="http://www.garmin.com/xmlschemas/TrackPointExtension/v1">
            <gpxtpx:hr>144</gpxtpx:hr>
          </gpxtpx:TrackPointExtension>
        </extensions>
      </trkpt>
      <trkpt lat="46.55829" lon="0.20993">
        <ele>148</ele>
        <time>2022-04-17T09:11:25Z</time>
        <extensions>
          <gpxtpx:TrackPointExtension xmlns:gpxtpx="http://www.garmin.com/xmlschemas/TrackPointExtension/v1">
            <gpxtpx:hr>146</gpxtpx:hr>
          </gpxtpx:TrackPointExtension>
        </extensions>
      </trkpt>
      <trkpt lat="46.55832" lon="0.20994">
        <ele>148</ele>
        <time>2022-04-17T09:11:26Z</time>
        <extensions>
          <gpxtpx:TrackPointExtension xmlns:gpxtpx="http://www.garmin.com/xmlschemas/TrackPointExtension/v1">
            <gpxtpx:hr>144</gpxtpx:hr>
          </gpxtpx:TrackPointExtension>
        </extensions>
      </trkpt>
      <trkpt lat="46.55839" lon="0.20995">
        <ele>147.80000305176</ele>
        <time>2022-04-17T09:11:29Z</time>
        <extensions>
          <gpxtpx:TrackPointExtension xmlns:gpxtpx="http://www.garmin.com/xmlschemas/TrackPointExtension/v1">
            <gpxtpx:hr>144</gpxtpx:hr>
          </gpxtpx:TrackPointExtension>
        </extensions>
      </trkpt>
      <trkpt lat="46.55846" lon="0.20993">
        <ele>147.60000610352</ele>
        <time>2022-04-17T09:11:31Z</time>
        <extensions>
          <gpxtpx:TrackPointExtension xmlns:gpxtpx="http://www.garmin.com/xmlschemas/TrackPointExtension/v1">
            <gpxtpx:hr>143</gpxtpx:hr>
          </gpxtpx:TrackPointExtension>
        </extensions>
      </trkpt>
      <trkpt lat="46.55849" lon="0.20992">
        <ele>147.60000610352</ele>
        <time>2022-04-17T09:11:32Z</time>
        <extensions>
          <gpxtpx:TrackPointExtension xmlns:gpxtpx="http://www.garmin.com/xmlschemas/TrackPointExtension/v1">
            <gpxtpx:hr>143</gpxtpx:hr>
          </gpxtpx:TrackPointExtension>
        </extensions>
      </trkpt>
      <trkpt lat="46.55863" lon="0.20982">
        <ele>147.19999694824</ele>
        <time>2022-04-17T09:11:36Z</time>
        <extensions>
          <gpxtpx:TrackPointExtension xmlns:gpxtpx="http://www.garmin.com/xmlschemas/TrackPointExtension/v1">
            <gpxtpx:hr>143</gpxtpx:hr>
          </gpxtpx:TrackPointExtension>
        </extensions>
      </trkpt>
      <trkpt lat="46.55865" lon="0.20982">
        <ele>147</ele>
        <time>2022-04-17T09:11:37Z</time>
        <extensions>
          <gpxtpx:TrackPointExtension xmlns:gpxtpx="http://www.garmin.com/xmlschemas/TrackPointExtension/v1">
            <gpxtpx:hr>142</gpxtpx:hr>
          </gpxtpx:TrackPointExtension>
        </extensions>
      </trkpt>
      <trkpt lat="46.55867" lon="0.20983">
        <ele>147</ele>
        <time>2022-04-17T09:11:38Z</time>
        <extensions>
          <gpxtpx:TrackPointExtension xmlns:gpxtpx="http://www.garmin.com/xmlschemas/TrackPointExtension/v1">
            <gpxtpx:hr>141</gpxtpx:hr>
          </gpxtpx:TrackPointExtension>
        </extensions>
      </trkpt>
      <trkpt lat="46.5587" lon="0.20984">
        <ele>146.80000305176</ele>
        <time>2022-04-17T09:11:39Z</time>
        <extensions>
          <gpxtpx:TrackPointExtension xmlns:gpxtpx="http://www.garmin.com/xmlschemas/TrackPointExtension/v1">
            <gpxtpx:hr>141</gpxtpx:hr>
          </gpxtpx:TrackPointExtension>
        </extensions>
      </trkpt>
      <trkpt lat="46.5587" lon="0.20985">
        <ele>146.80000305176</ele>
        <time>2022-04-17T09:11:40Z</time>
        <extensions>
          <gpxtpx:TrackPointExtension xmlns:gpxtpx="http://www.garmin.com/xmlschemas/TrackPointExtension/v1">
            <gpxtpx:hr>141</gpxtpx:hr>
          </gpxtpx:TrackPointExtension>
        </extensions>
      </trkpt>
      <trkpt lat="46.55871" lon="0.20988">
        <ele>146.60000610352</ele>
        <time>2022-04-17T09:11:41Z</time>
        <extensions>
          <gpxtpx:TrackPointExtension xmlns:gpxtpx="http://www.garmin.com/xmlschemas/TrackPointExtension/v1">
            <gpxtpx:hr>141</gpxtpx:hr>
          </gpxtpx:TrackPointExtension>
        </extensions>
      </trkpt>
      <trkpt lat="46.55873" lon="0.2099">
        <ele>146.60000610352</ele>
        <time>2022-04-17T09:11:42Z</time>
        <extensions>
          <gpxtpx:TrackPointExtension xmlns:gpxtpx="http://www.garmin.com/xmlschemas/TrackPointExtension/v1">
            <gpxtpx:hr>141</gpxtpx:hr>
          </gpxtpx:TrackPointExtension>
        </extensions>
      </trkpt>
      <trkpt lat="46.55875" lon="0.20992">
        <ele>146.19999694824</ele>
        <time>2022-04-17T09:11:43Z</time>
        <extensions>
          <gpxtpx:TrackPointExtension xmlns:gpxtpx="http://www.garmin.com/xmlschemas/TrackPointExtension/v1">
            <gpxtpx:hr>141</gpxtpx:hr>
          </gpxtpx:TrackPointExtension>
        </extensions>
      </trkpt>
      <trkpt lat="46.55876" lon="0.20993">
        <ele>146.19999694824</ele>
        <time>2022-04-17T09:11:44Z</time>
        <extensions>
          <gpxtpx:TrackPointExtension xmlns:gpxtpx="http://www.garmin.com/xmlschemas/TrackPointExtension/v1">
            <gpxtpx:hr>141</gpxtpx:hr>
          </gpxtpx:TrackPointExtension>
        </extensions>
      </trkpt>
      <trkpt lat="46.55877" lon="0.20997">
        <ele>146</ele>
        <time>2022-04-17T09:11:45Z</time>
        <extensions>
          <gpxtpx:TrackPointExtension xmlns:gpxtpx="http://www.garmin.com/xmlschemas/TrackPointExtension/v1">
            <gpxtpx:hr>140</gpxtpx:hr>
          </gpxtpx:TrackPointExtension>
        </extensions>
      </trkpt>
      <trkpt lat="46.55878" lon="0.20999">
        <ele>146</ele>
        <time>2022-04-17T09:11:46Z</time>
        <extensions>
          <gpxtpx:TrackPointExtension xmlns:gpxtpx="http://www.garmin.com/xmlschemas/TrackPointExtension/v1">
            <gpxtpx:hr>140</gpxtpx:hr>
          </gpxtpx:TrackPointExtension>
        </extensions>
      </trkpt>
      <trkpt lat="46.55878" lon="0.21001">
        <ele>146</ele>
        <time>2022-04-17T09:11:47Z</time>
        <extensions>
          <gpxtpx:TrackPointExtension xmlns:gpxtpx="http://www.garmin.com/xmlschemas/TrackPointExtension/v1">
            <gpxtpx:hr>140</gpxtpx:hr>
          </gpxtpx:TrackPointExtension>
        </extensions>
      </trkpt>
      <trkpt lat="46.55878" lon="0.21004">
        <ele>145.80000305176</ele>
        <time>2022-04-17T09:11:48Z</time>
        <extensions>
          <gpxtpx:TrackPointExtension xmlns:gpxtpx="http://www.garmin.com/xmlschemas/TrackPointExtension/v1">
            <gpxtpx:hr>140</gpxtpx:hr>
          </gpxtpx:TrackPointExtension>
        </extensions>
      </trkpt>
      <trkpt lat="46.55879" lon="0.21007">
        <ele>145.80000305176</ele>
        <time>2022-04-17T09:11:49Z</time>
        <extensions>
          <gpxtpx:TrackPointExtension xmlns:gpxtpx="http://www.garmin.com/xmlschemas/TrackPointExtension/v1">
            <gpxtpx:hr>141</gpxtpx:hr>
          </gpxtpx:TrackPointExtension>
        </extensions>
      </trkpt>
      <trkpt lat="46.55881" lon="0.21011">
        <ele>145.80000305176</ele>
        <time>2022-04-17T09:11:50Z</time>
        <extensions>
          <gpxtpx:TrackPointExtension xmlns:gpxtpx="http://www.garmin.com/xmlschemas/TrackPointExtension/v1">
            <gpxtpx:hr>141</gpxtpx:hr>
          </gpxtpx:TrackPointExtension>
        </extensions>
      </trkpt>
      <trkpt lat="46.55884" lon="0.21015">
        <ele>145.80000305176</ele>
        <time>2022-04-17T09:11:51Z</time>
        <extensions>
          <gpxtpx:TrackPointExtension xmlns:gpxtpx="http://www.garmin.com/xmlschemas/TrackPointExtension/v1">
            <gpxtpx:hr>141</gpxtpx:hr>
          </gpxtpx:TrackPointExtension>
        </extensions>
      </trkpt>
      <trkpt lat="46.55886" lon="0.21018">
        <ele>145.80000305176</ele>
        <time>2022-04-17T09:11:52Z</time>
        <extensions>
          <gpxtpx:TrackPointExtension xmlns:gpxtpx="http://www.garmin.com/xmlschemas/TrackPointExtension/v1">
            <gpxtpx:hr>141</gpxtpx:hr>
          </gpxtpx:TrackPointExtension>
        </extensions>
      </trkpt>
      <trkpt lat="46.55888" lon="0.21021">
        <ele>145.80000305176</ele>
        <time>2022-04-17T09:11:53Z</time>
        <extensions>
          <gpxtpx:TrackPointExtension xmlns:gpxtpx="http://www.garmin.com/xmlschemas/TrackPointExtension/v1">
            <gpxtpx:hr>142</gpxtpx:hr>
          </gpxtpx:TrackPointExtension>
        </extensions>
      </trkpt>
      <trkpt lat="46.55893" lon="0.21024">
        <ele>145.80000305176</ele>
        <time>2022-04-17T09:11:54Z</time>
        <extensions>
          <gpxtpx:TrackPointExtension xmlns:gpxtpx="http://www.garmin.com/xmlschemas/TrackPointExtension/v1">
            <gpxtpx:hr>143</gpxtpx:hr>
          </gpxtpx:TrackPointExtension>
        </extensions>
      </trkpt>
      <trkpt lat="46.55897" lon="0.21027">
        <ele>145.80000305176</ele>
        <time>2022-04-17T09:11:55Z</time>
        <extensions>
          <gpxtpx:TrackPointExtension xmlns:gpxtpx="http://www.garmin.com/xmlschemas/TrackPointExtension/v1">
            <gpxtpx:hr>143</gpxtpx:hr>
          </gpxtpx:TrackPointExtension>
        </extensions>
      </trkpt>
      <trkpt lat="46.559" lon="0.2103">
        <ele>145.80000305176</ele>
        <time>2022-04-17T09:11:56Z</time>
        <extensions>
          <gpxtpx:TrackPointExtension xmlns:gpxtpx="http://www.garmin.com/xmlschemas/TrackPointExtension/v1">
            <gpxtpx:hr>143</gpxtpx:hr>
          </gpxtpx:TrackPointExtension>
        </extensions>
      </trkpt>
      <trkpt lat="46.55905" lon="0.21037">
        <ele>145.80000305176</ele>
        <time>2022-04-17T09:11:59Z</time>
        <extensions>
          <gpxtpx:TrackPointExtension xmlns:gpxtpx="http://www.garmin.com/xmlschemas/TrackPointExtension/v1">
            <gpxtpx:hr>144</gpxtpx:hr>
          </gpxtpx:TrackPointExtension>
        </extensions>
      </trkpt>
      <trkpt lat="46.55905" lon="0.21042">
        <ele>145.60000610352</ele>
        <time>2022-04-17T09:12:01Z</time>
        <extensions>
          <gpxtpx:TrackPointExtension xmlns:gpxtpx="http://www.garmin.com/xmlschemas/TrackPointExtension/v1">
            <gpxtpx:hr>145</gpxtpx:hr>
          </gpxtpx:TrackPointExtension>
        </extensions>
      </trkpt>
      <trkpt lat="46.55902" lon="0.21045">
        <ele>145.60000610352</ele>
        <time>2022-04-17T09:12:02Z</time>
        <extensions>
          <gpxtpx:TrackPointExtension xmlns:gpxtpx="http://www.garmin.com/xmlschemas/TrackPointExtension/v1">
            <gpxtpx:hr>145</gpxtpx:hr>
          </gpxtpx:TrackPointExtension>
        </extensions>
      </trkpt>
      <trkpt lat="46.559" lon="0.21047">
        <ele>145.60000610352</ele>
        <time>2022-04-17T09:12:03Z</time>
        <extensions>
          <gpxtpx:TrackPointExtension xmlns:gpxtpx="http://www.garmin.com/xmlschemas/TrackPointExtension/v1">
            <gpxtpx:hr>145</gpxtpx:hr>
          </gpxtpx:TrackPointExtension>
        </extensions>
      </trkpt>
      <trkpt lat="46.55899" lon="0.21051">
        <ele>145.60000610352</ele>
        <time>2022-04-17T09:12:04Z</time>
        <extensions>
          <gpxtpx:TrackPointExtension xmlns:gpxtpx="http://www.garmin.com/xmlschemas/TrackPointExtension/v1">
            <gpxtpx:hr>145</gpxtpx:hr>
          </gpxtpx:TrackPointExtension>
        </extensions>
      </trkpt>
      <trkpt lat="46.55899" lon="0.21055">
        <ele>145.60000610352</ele>
        <time>2022-04-17T09:12:05Z</time>
        <extensions>
          <gpxtpx:TrackPointExtension xmlns:gpxtpx="http://www.garmin.com/xmlschemas/TrackPointExtension/v1">
            <gpxtpx:hr>145</gpxtpx:hr>
          </gpxtpx:TrackPointExtension>
        </extensions>
      </trkpt>
      <trkpt lat="46.559" lon="0.21059">
        <ele>145.60000610352</ele>
        <time>2022-04-17T09:12:06Z</time>
        <extensions>
          <gpxtpx:TrackPointExtension xmlns:gpxtpx="http://www.garmin.com/xmlschemas/TrackPointExtension/v1">
            <gpxtpx:hr>145</gpxtpx:hr>
          </gpxtpx:TrackPointExtension>
        </extensions>
      </trkpt>
      <trkpt lat="46.55899" lon="0.21061">
        <ele>145.60000610352</ele>
        <time>2022-04-17T09:12:07Z</time>
        <extensions>
          <gpxtpx:TrackPointExtension xmlns:gpxtpx="http://www.garmin.com/xmlschemas/TrackPointExtension/v1">
            <gpxtpx:hr>145</gpxtpx:hr>
          </gpxtpx:TrackPointExtension>
        </extensions>
      </trkpt>
      <trkpt lat="46.55898" lon="0.21063">
        <ele>145.60000610352</ele>
        <time>2022-04-17T09:12:08Z</time>
        <extensions>
          <gpxtpx:TrackPointExtension xmlns:gpxtpx="http://www.garmin.com/xmlschemas/TrackPointExtension/v1">
            <gpxtpx:hr>145</gpxtpx:hr>
          </gpxtpx:TrackPointExtension>
        </extensions>
      </trkpt>
      <trkpt lat="46.55898" lon="0.21065">
        <ele>145.60000610352</ele>
        <time>2022-04-17T09:12:09Z</time>
        <extensions>
          <gpxtpx:TrackPointExtension xmlns:gpxtpx="http://www.garmin.com/xmlschemas/TrackPointExtension/v1">
            <gpxtpx:hr>145</gpxtpx:hr>
          </gpxtpx:TrackPointExtension>
        </extensions>
      </trkpt>
      <trkpt lat="46.55897" lon="0.21067">
        <ele>145.80000305176</ele>
        <time>2022-04-17T09:12:10Z</time>
        <extensions>
          <gpxtpx:TrackPointExtension xmlns:gpxtpx="http://www.garmin.com/xmlschemas/TrackPointExtension/v1">
            <gpxtpx:hr>146</gpxtpx:hr>
          </gpxtpx:TrackPointExtension>
        </extensions>
      </trkpt>
      <trkpt lat="46.55896" lon="0.2107">
        <ele>145.80000305176</ele>
        <time>2022-04-17T09:12:11Z</time>
        <extensions>
          <gpxtpx:TrackPointExtension xmlns:gpxtpx="http://www.garmin.com/xmlschemas/TrackPointExtension/v1">
            <gpxtpx:hr>147</gpxtpx:hr>
          </gpxtpx:TrackPointExtension>
        </extensions>
      </trkpt>
      <trkpt lat="46.55896" lon="0.21073">
        <ele>145.80000305176</ele>
        <time>2022-04-17T09:12:12Z</time>
        <extensions>
          <gpxtpx:TrackPointExtension xmlns:gpxtpx="http://www.garmin.com/xmlschemas/TrackPointExtension/v1">
            <gpxtpx:hr>147</gpxtpx:hr>
          </gpxtpx:TrackPointExtension>
        </extensions>
      </trkpt>
      <trkpt lat="46.55896" lon="0.21076">
        <ele>146</ele>
        <time>2022-04-17T09:12:13Z</time>
        <extensions>
          <gpxtpx:TrackPointExtension xmlns:gpxtpx="http://www.garmin.com/xmlschemas/TrackPointExtension/v1">
            <gpxtpx:hr>147</gpxtpx:hr>
          </gpxtpx:TrackPointExtension>
        </extensions>
      </trkpt>
      <trkpt lat="46.55897" lon="0.21082">
        <ele>145.60000610352</ele>
        <time>2022-04-17T09:12:15Z</time>
        <extensions>
          <gpxtpx:TrackPointExtension xmlns:gpxtpx="http://www.garmin.com/xmlschemas/TrackPointExtension/v1">
            <gpxtpx:hr>147</gpxtpx:hr>
          </gpxtpx:TrackPointExtension>
        </extensions>
      </trkpt>
      <trkpt lat="46.55895" lon="0.21084">
        <ele>145.60000610352</ele>
        <time>2022-04-17T09:12:16Z</time>
        <extensions>
          <gpxtpx:TrackPointExtension xmlns:gpxtpx="http://www.garmin.com/xmlschemas/TrackPointExtension/v1">
            <gpxtpx:hr>147</gpxtpx:hr>
          </gpxtpx:TrackPointExtension>
        </extensions>
      </trkpt>
      <trkpt lat="46.55894" lon="0.21086">
        <ele>145.39999389648</ele>
        <time>2022-04-17T09:12:17Z</time>
        <extensions>
          <gpxtpx:TrackPointExtension xmlns:gpxtpx="http://www.garmin.com/xmlschemas/TrackPointExtension/v1">
            <gpxtpx:hr>147</gpxtpx:hr>
          </gpxtpx:TrackPointExtension>
        </extensions>
      </trkpt>
      <trkpt lat="46.55892" lon="0.21089">
        <ele>145.39999389648</ele>
        <time>2022-04-17T09:12:18Z</time>
        <extensions>
          <gpxtpx:TrackPointExtension xmlns:gpxtpx="http://www.garmin.com/xmlschemas/TrackPointExtension/v1">
            <gpxtpx:hr>148</gpxtpx:hr>
          </gpxtpx:TrackPointExtension>
        </extensions>
      </trkpt>
      <trkpt lat="46.55885" lon="0.21093">
        <ele>145.39999389648</ele>
        <time>2022-04-17T09:12:20Z</time>
        <extensions>
          <gpxtpx:TrackPointExtension xmlns:gpxtpx="http://www.garmin.com/xmlschemas/TrackPointExtension/v1">
            <gpxtpx:hr>148</gpxtpx:hr>
          </gpxtpx:TrackPointExtension>
        </extensions>
      </trkpt>
      <trkpt lat="46.55882" lon="0.21093">
        <ele>145.39999389648</ele>
        <time>2022-04-17T09:12:21Z</time>
        <extensions>
          <gpxtpx:TrackPointExtension xmlns:gpxtpx="http://www.garmin.com/xmlschemas/TrackPointExtension/v1">
            <gpxtpx:hr>148</gpxtpx:hr>
          </gpxtpx:TrackPointExtension>
        </extensions>
      </trkpt>
      <trkpt lat="46.55877" lon="0.21095">
        <ele>145.39999389648</ele>
        <time>2022-04-17T09:12:23Z</time>
        <extensions>
          <gpxtpx:TrackPointExtension xmlns:gpxtpx="http://www.garmin.com/xmlschemas/TrackPointExtension/v1">
            <gpxtpx:hr>148</gpxtpx:hr>
          </gpxtpx:TrackPointExtension>
        </extensions>
      </trkpt>
      <trkpt lat="46.55875" lon="0.21096">
        <ele>145.60000610352</ele>
        <time>2022-04-17T09:12:24Z</time>
        <extensions>
          <gpxtpx:TrackPointExtension xmlns:gpxtpx="http://www.garmin.com/xmlschemas/TrackPointExtension/v1">
            <gpxtpx:hr>149</gpxtpx:hr>
          </gpxtpx:TrackPointExtension>
        </extensions>
      </trkpt>
      <trkpt lat="46.55873" lon="0.21097">
        <ele>145.60000610352</ele>
        <time>2022-04-17T09:12:25Z</time>
        <extensions>
          <gpxtpx:TrackPointExtension xmlns:gpxtpx="http://www.garmin.com/xmlschemas/TrackPointExtension/v1">
            <gpxtpx:hr>149</gpxtpx:hr>
          </gpxtpx:TrackPointExtension>
        </extensions>
      </trkpt>
      <trkpt lat="46.55871" lon="0.21101">
        <ele>145.80000305176</ele>
        <time>2022-04-17T09:12:27Z</time>
        <extensions>
          <gpxtpx:TrackPointExtension xmlns:gpxtpx="http://www.garmin.com/xmlschemas/TrackPointExtension/v1">
            <gpxtpx:hr>149</gpxtpx:hr>
          </gpxtpx:TrackPointExtension>
        </extensions>
      </trkpt>
      <trkpt lat="46.55871" lon="0.21102">
        <ele>145.80000305176</ele>
        <time>2022-04-17T09:12:28Z</time>
        <extensions>
          <gpxtpx:TrackPointExtension xmlns:gpxtpx="http://www.garmin.com/xmlschemas/TrackPointExtension/v1">
            <gpxtpx:hr>149</gpxtpx:hr>
          </gpxtpx:TrackPointExtension>
        </extensions>
      </trkpt>
      <trkpt lat="46.5587" lon="0.21104">
        <ele>145.80000305176</ele>
        <time>2022-04-17T09:12:29Z</time>
        <extensions>
          <gpxtpx:TrackPointExtension xmlns:gpxtpx="http://www.garmin.com/xmlschemas/TrackPointExtension/v1">
            <gpxtpx:hr>149</gpxtpx:hr>
          </gpxtpx:TrackPointExtension>
        </extensions>
      </trkpt>
      <trkpt lat="46.5587" lon="0.21108">
        <ele>146</ele>
        <time>2022-04-17T09:12:30Z</time>
        <extensions>
          <gpxtpx:TrackPointExtension xmlns:gpxtpx="http://www.garmin.com/xmlschemas/TrackPointExtension/v1">
            <gpxtpx:hr>149</gpxtpx:hr>
          </gpxtpx:TrackPointExtension>
        </extensions>
      </trkpt>
      <trkpt lat="46.55868" lon="0.21112">
        <ele>146.19999694824</ele>
        <time>2022-04-17T09:12:31Z</time>
        <extensions>
          <gpxtpx:TrackPointExtension xmlns:gpxtpx="http://www.garmin.com/xmlschemas/TrackPointExtension/v1">
            <gpxtpx:hr>149</gpxtpx:hr>
          </gpxtpx:TrackPointExtension>
        </extensions>
      </trkpt>
      <trkpt lat="46.55866" lon="0.21116">
        <ele>146</ele>
        <time>2022-04-17T09:12:32Z</time>
        <extensions>
          <gpxtpx:TrackPointExtension xmlns:gpxtpx="http://www.garmin.com/xmlschemas/TrackPointExtension/v1">
            <gpxtpx:hr>150</gpxtpx:hr>
          </gpxtpx:TrackPointExtension>
        </extensions>
      </trkpt>
      <trkpt lat="46.55865" lon="0.21118">
        <ele>146.19999694824</ele>
        <time>2022-04-17T09:12:33Z</time>
        <extensions>
          <gpxtpx:TrackPointExtension xmlns:gpxtpx="http://www.garmin.com/xmlschemas/TrackPointExtension/v1">
            <gpxtpx:hr>150</gpxtpx:hr>
          </gpxtpx:TrackPointExtension>
        </extensions>
      </trkpt>
      <trkpt lat="46.55863" lon="0.2112">
        <ele>146.19999694824</ele>
        <time>2022-04-17T09:12:34Z</time>
        <extensions>
          <gpxtpx:TrackPointExtension xmlns:gpxtpx="http://www.garmin.com/xmlschemas/TrackPointExtension/v1">
            <gpxtpx:hr>150</gpxtpx:hr>
          </gpxtpx:TrackPointExtension>
        </extensions>
      </trkpt>
      <trkpt lat="46.5586" lon="0.21122">
        <ele>146</ele>
        <time>2022-04-17T09:12:35Z</time>
        <extensions>
          <gpxtpx:TrackPointExtension xmlns:gpxtpx="http://www.garmin.com/xmlschemas/TrackPointExtension/v1">
            <gpxtpx:hr>151</gpxtpx:hr>
          </gpxtpx:TrackPointExtension>
        </extensions>
      </trkpt>
      <trkpt lat="46.55856" lon="0.21125">
        <ele>146</ele>
        <time>2022-04-17T09:12:36Z</time>
        <extensions>
          <gpxtpx:TrackPointExtension xmlns:gpxtpx="http://www.garmin.com/xmlschemas/TrackPointExtension/v1">
            <gpxtpx:hr>150</gpxtpx:hr>
          </gpxtpx:TrackPointExtension>
        </extensions>
      </trkpt>
      <trkpt lat="46.55851" lon="0.21134">
        <ele>146</ele>
        <time>2022-04-17T09:12:38Z</time>
        <extensions>
          <gpxtpx:TrackPointExtension xmlns:gpxtpx="http://www.garmin.com/xmlschemas/TrackPointExtension/v1">
            <gpxtpx:hr>149</gpxtpx:hr>
          </gpxtpx:TrackPointExtension>
        </extensions>
      </trkpt>
      <trkpt lat="46.55849" lon="0.21139">
        <ele>146</ele>
        <time>2022-04-17T09:12:39Z</time>
        <extensions>
          <gpxtpx:TrackPointExtension xmlns:gpxtpx="http://www.garmin.com/xmlschemas/TrackPointExtension/v1">
            <gpxtpx:hr>150</gpxtpx:hr>
          </gpxtpx:TrackPointExtension>
        </extensions>
      </trkpt>
      <trkpt lat="46.55847" lon="0.21141">
        <ele>146</ele>
        <time>2022-04-17T09:12:40Z</time>
        <extensions>
          <gpxtpx:TrackPointExtension xmlns:gpxtpx="http://www.garmin.com/xmlschemas/TrackPointExtension/v1">
            <gpxtpx:hr>150</gpxtpx:hr>
          </gpxtpx:TrackPointExtension>
        </extensions>
      </trkpt>
      <trkpt lat="46.55844" lon="0.21145">
        <ele>146</ele>
        <time>2022-04-17T09:12:41Z</time>
        <extensions>
          <gpxtpx:TrackPointExtension xmlns:gpxtpx="http://www.garmin.com/xmlschemas/TrackPointExtension/v1">
            <gpxtpx:hr>150</gpxtpx:hr>
          </gpxtpx:TrackPointExtension>
        </extensions>
      </trkpt>
      <trkpt lat="46.55839" lon="0.21153">
        <ele>146</ele>
        <time>2022-04-17T09:12:43Z</time>
        <extensions>
          <gpxtpx:TrackPointExtension xmlns:gpxtpx="http://www.garmin.com/xmlschemas/TrackPointExtension/v1">
            <gpxtpx:hr>152</gpxtpx:hr>
          </gpxtpx:TrackPointExtension>
        </extensions>
      </trkpt>
      <trkpt lat="46.55838" lon="0.21157">
        <ele>145.80000305176</ele>
        <time>2022-04-17T09:12:45Z</time>
        <extensions>
          <gpxtpx:TrackPointExtension xmlns:gpxtpx="http://www.garmin.com/xmlschemas/TrackPointExtension/v1">
            <gpxtpx:hr>152</gpxtpx:hr>
          </gpxtpx:TrackPointExtension>
        </extensions>
      </trkpt>
      <trkpt lat="46.55837" lon="0.21159">
        <ele>145.80000305176</ele>
        <time>2022-04-17T09:12:46Z</time>
        <extensions>
          <gpxtpx:TrackPointExtension xmlns:gpxtpx="http://www.garmin.com/xmlschemas/TrackPointExtension/v1">
            <gpxtpx:hr>151</gpxtpx:hr>
          </gpxtpx:TrackPointExtension>
        </extensions>
      </trkpt>
      <trkpt lat="46.55838" lon="0.2116">
        <ele>145.80000305176</ele>
        <time>2022-04-17T09:12:47Z</time>
        <extensions>
          <gpxtpx:TrackPointExtension xmlns:gpxtpx="http://www.garmin.com/xmlschemas/TrackPointExtension/v1">
            <gpxtpx:hr>151</gpxtpx:hr>
          </gpxtpx:TrackPointExtension>
        </extensions>
      </trkpt>
      <trkpt lat="46.55837" lon="0.21162">
        <ele>145.80000305176</ele>
        <time>2022-04-17T09:12:48Z</time>
        <extensions>
          <gpxtpx:TrackPointExtension xmlns:gpxtpx="http://www.garmin.com/xmlschemas/TrackPointExtension/v1">
            <gpxtpx:hr>151</gpxtpx:hr>
          </gpxtpx:TrackPointExtension>
        </extensions>
      </trkpt>
      <trkpt lat="46.55836" lon="0.21163">
        <ele>145.80000305176</ele>
        <time>2022-04-17T09:12:49Z</time>
        <extensions>
          <gpxtpx:TrackPointExtension xmlns:gpxtpx="http://www.garmin.com/xmlschemas/TrackPointExtension/v1">
            <gpxtpx:hr>151</gpxtpx:hr>
          </gpxtpx:TrackPointExtension>
        </extensions>
      </trkpt>
      <trkpt lat="46.55834" lon="0.21166">
        <ele>145.80000305176</ele>
        <time>2022-04-17T09:12:50Z</time>
        <extensions>
          <gpxtpx:TrackPointExtension xmlns:gpxtpx="http://www.garmin.com/xmlschemas/TrackPointExtension/v1">
            <gpxtpx:hr>150</gpxtpx:hr>
          </gpxtpx:TrackPointExtension>
        </extensions>
      </trkpt>
      <trkpt lat="46.55833" lon="0.21169">
        <ele>145.80000305176</ele>
        <time>2022-04-17T09:12:51Z</time>
        <extensions>
          <gpxtpx:TrackPointExtension xmlns:gpxtpx="http://www.garmin.com/xmlschemas/TrackPointExtension/v1">
            <gpxtpx:hr>150</gpxtpx:hr>
          </gpxtpx:TrackPointExtension>
        </extensions>
      </trkpt>
      <trkpt lat="46.55831" lon="0.21174">
        <ele>146</ele>
        <time>2022-04-17T09:12:52Z</time>
        <extensions>
          <gpxtpx:TrackPointExtension xmlns:gpxtpx="http://www.garmin.com/xmlschemas/TrackPointExtension/v1">
            <gpxtpx:hr>150</gpxtpx:hr>
          </gpxtpx:TrackPointExtension>
        </extensions>
      </trkpt>
      <trkpt lat="46.55831" lon="0.21177">
        <ele>146</ele>
        <time>2022-04-17T09:12:53Z</time>
        <extensions>
          <gpxtpx:TrackPointExtension xmlns:gpxtpx="http://www.garmin.com/xmlschemas/TrackPointExtension/v1">
            <gpxtpx:hr>150</gpxtpx:hr>
          </gpxtpx:TrackPointExtension>
        </extensions>
      </trkpt>
      <trkpt lat="46.55831" lon="0.2118">
        <ele>146</ele>
        <time>2022-04-17T09:12:54Z</time>
        <extensions>
          <gpxtpx:TrackPointExtension xmlns:gpxtpx="http://www.garmin.com/xmlschemas/TrackPointExtension/v1">
            <gpxtpx:hr>150</gpxtpx:hr>
          </gpxtpx:TrackPointExtension>
        </extensions>
      </trkpt>
      <trkpt lat="46.55833" lon="0.21186">
        <ele>145.80000305176</ele>
        <time>2022-04-17T09:12:56Z</time>
        <extensions>
          <gpxtpx:TrackPointExtension xmlns:gpxtpx="http://www.garmin.com/xmlschemas/TrackPointExtension/v1">
            <gpxtpx:hr>151</gpxtpx:hr>
          </gpxtpx:TrackPointExtension>
        </extensions>
      </trkpt>
      <trkpt lat="46.55833" lon="0.21188">
        <ele>145.80000305176</ele>
        <time>2022-04-17T09:12:57Z</time>
        <extensions>
          <gpxtpx:TrackPointExtension xmlns:gpxtpx="http://www.garmin.com/xmlschemas/TrackPointExtension/v1">
            <gpxtpx:hr>151</gpxtpx:hr>
          </gpxtpx:TrackPointExtension>
        </extensions>
      </trkpt>
      <trkpt lat="46.55835" lon="0.21189">
        <ele>145.80000305176</ele>
        <time>2022-04-17T09:12:58Z</time>
        <extensions>
          <gpxtpx:TrackPointExtension xmlns:gpxtpx="http://www.garmin.com/xmlschemas/TrackPointExtension/v1">
            <gpxtpx:hr>151</gpxtpx:hr>
          </gpxtpx:TrackPointExtension>
        </extensions>
      </trkpt>
      <trkpt lat="46.55837" lon="0.2119">
        <ele>145.60000610352</ele>
        <time>2022-04-17T09:12:59Z</time>
        <extensions>
          <gpxtpx:TrackPointExtension xmlns:gpxtpx="http://www.garmin.com/xmlschemas/TrackPointExtension/v1">
            <gpxtpx:hr>150</gpxtpx:hr>
          </gpxtpx:TrackPointExtension>
        </extensions>
      </trkpt>
      <trkpt lat="46.55838" lon="0.21191">
        <ele>145.19999694824</ele>
        <time>2022-04-17T09:13:00Z</time>
        <extensions>
          <gpxtpx:TrackPointExtension xmlns:gpxtpx="http://www.garmin.com/xmlschemas/TrackPointExtension/v1">
            <gpxtpx:hr>150</gpxtpx:hr>
          </gpxtpx:TrackPointExtension>
        </extensions>
      </trkpt>
      <trkpt lat="46.5584" lon="0.21193">
        <ele>145.19999694824</ele>
        <time>2022-04-17T09:13:01Z</time>
        <extensions>
          <gpxtpx:TrackPointExtension xmlns:gpxtpx="http://www.garmin.com/xmlschemas/TrackPointExtension/v1">
            <gpxtpx:hr>150</gpxtpx:hr>
          </gpxtpx:TrackPointExtension>
        </extensions>
      </trkpt>
      <trkpt lat="46.55843" lon="0.21198">
        <ele>144.80000305176</ele>
        <time>2022-04-17T09:13:03Z</time>
        <extensions>
          <gpxtpx:TrackPointExtension xmlns:gpxtpx="http://www.garmin.com/xmlschemas/TrackPointExtension/v1">
            <gpxtpx:hr>150</gpxtpx:hr>
          </gpxtpx:TrackPointExtension>
        </extensions>
      </trkpt>
      <trkpt lat="46.55845" lon="0.21201">
        <ele>144.60000610352</ele>
        <time>2022-04-17T09:13:04Z</time>
        <extensions>
          <gpxtpx:TrackPointExtension xmlns:gpxtpx="http://www.garmin.com/xmlschemas/TrackPointExtension/v1">
            <gpxtpx:hr>151</gpxtpx:hr>
          </gpxtpx:TrackPointExtension>
        </extensions>
      </trkpt>
      <trkpt lat="46.55847" lon="0.21204">
        <ele>144</ele>
        <time>2022-04-17T09:13:05Z</time>
        <extensions>
          <gpxtpx:TrackPointExtension xmlns:gpxtpx="http://www.garmin.com/xmlschemas/TrackPointExtension/v1">
            <gpxtpx:hr>151</gpxtpx:hr>
          </gpxtpx:TrackPointExtension>
        </extensions>
      </trkpt>
      <trkpt lat="46.55851" lon="0.2121">
        <ele>143</ele>
        <time>2022-04-17T09:13:07Z</time>
        <extensions>
          <gpxtpx:TrackPointExtension xmlns:gpxtpx="http://www.garmin.com/xmlschemas/TrackPointExtension/v1">
            <gpxtpx:hr>151</gpxtpx:hr>
          </gpxtpx:TrackPointExtension>
        </extensions>
      </trkpt>
      <trkpt lat="46.55852" lon="0.21213">
        <ele>142.80000305176</ele>
        <time>2022-04-17T09:13:08Z</time>
        <extensions>
          <gpxtpx:TrackPointExtension xmlns:gpxtpx="http://www.garmin.com/xmlschemas/TrackPointExtension/v1">
            <gpxtpx:hr>151</gpxtpx:hr>
          </gpxtpx:TrackPointExtension>
        </extensions>
      </trkpt>
      <trkpt lat="46.55854" lon="0.21216">
        <ele>141.80000305176</ele>
        <time>2022-04-17T09:13:10Z</time>
        <extensions>
          <gpxtpx:TrackPointExtension xmlns:gpxtpx="http://www.garmin.com/xmlschemas/TrackPointExtension/v1">
            <gpxtpx:hr>151</gpxtpx:hr>
          </gpxtpx:TrackPointExtension>
        </extensions>
      </trkpt>
      <trkpt lat="46.55855" lon="0.21216">
        <ele>141.60000610352</ele>
        <time>2022-04-17T09:13:11Z</time>
        <extensions>
          <gpxtpx:TrackPointExtension xmlns:gpxtpx="http://www.garmin.com/xmlschemas/TrackPointExtension/v1">
            <gpxtpx:hr>151</gpxtpx:hr>
          </gpxtpx:TrackPointExtension>
        </extensions>
      </trkpt>
      <trkpt lat="46.55856" lon="0.21216">
        <ele>141.19999694824</ele>
        <time>2022-04-17T09:13:12Z</time>
        <extensions>
          <gpxtpx:TrackPointExtension xmlns:gpxtpx="http://www.garmin.com/xmlschemas/TrackPointExtension/v1">
            <gpxtpx:hr>152</gpxtpx:hr>
          </gpxtpx:TrackPointExtension>
        </extensions>
      </trkpt>
      <trkpt lat="46.55857" lon="0.21216">
        <ele>141</ele>
        <time>2022-04-17T09:13:13Z</time>
        <extensions>
          <gpxtpx:TrackPointExtension xmlns:gpxtpx="http://www.garmin.com/xmlschemas/TrackPointExtension/v1">
            <gpxtpx:hr>152</gpxtpx:hr>
          </gpxtpx:TrackPointExtension>
        </extensions>
      </trkpt>
      <trkpt lat="46.55859" lon="0.21217">
        <ele>140.39999389648</ele>
        <time>2022-04-17T09:13:14Z</time>
        <extensions>
          <gpxtpx:TrackPointExtension xmlns:gpxtpx="http://www.garmin.com/xmlschemas/TrackPointExtension/v1">
            <gpxtpx:hr>152</gpxtpx:hr>
          </gpxtpx:TrackPointExtension>
        </extensions>
      </trkpt>
      <trkpt lat="46.55861" lon="0.21216">
        <ele>140</ele>
        <time>2022-04-17T09:13:15Z</time>
        <extensions>
          <gpxtpx:TrackPointExtension xmlns:gpxtpx="http://www.garmin.com/xmlschemas/TrackPointExtension/v1">
            <gpxtpx:hr>151</gpxtpx:hr>
          </gpxtpx:TrackPointExtension>
        </extensions>
      </trkpt>
      <trkpt lat="46.55864" lon="0.21214">
        <ele>139.60000610352</ele>
        <time>2022-04-17T09:13:16Z</time>
        <extensions>
          <gpxtpx:TrackPointExtension xmlns:gpxtpx="http://www.garmin.com/xmlschemas/TrackPointExtension/v1">
            <gpxtpx:hr>150</gpxtpx:hr>
          </gpxtpx:TrackPointExtension>
        </extensions>
      </trkpt>
      <trkpt lat="46.55867" lon="0.21213">
        <ele>139.39999389648</ele>
        <time>2022-04-17T09:13:17Z</time>
        <extensions>
          <gpxtpx:TrackPointExtension xmlns:gpxtpx="http://www.garmin.com/xmlschemas/TrackPointExtension/v1">
            <gpxtpx:hr>149</gpxtpx:hr>
          </gpxtpx:TrackPointExtension>
        </extensions>
      </trkpt>
      <trkpt lat="46.55868" lon="0.21212">
        <ele>139</ele>
        <time>2022-04-17T09:13:18Z</time>
        <extensions>
          <gpxtpx:TrackPointExtension xmlns:gpxtpx="http://www.garmin.com/xmlschemas/TrackPointExtension/v1">
            <gpxtpx:hr>148</gpxtpx:hr>
          </gpxtpx:TrackPointExtension>
        </extensions>
      </trkpt>
      <trkpt lat="46.5587" lon="0.21212">
        <ele>138.80000305176</ele>
        <time>2022-04-17T09:13:19Z</time>
        <extensions>
          <gpxtpx:TrackPointExtension xmlns:gpxtpx="http://www.garmin.com/xmlschemas/TrackPointExtension/v1">
            <gpxtpx:hr>147</gpxtpx:hr>
          </gpxtpx:TrackPointExtension>
        </extensions>
      </trkpt>
      <trkpt lat="46.55873" lon="0.21213">
        <ele>138.60000610352</ele>
        <time>2022-04-17T09:13:20Z</time>
        <extensions>
          <gpxtpx:TrackPointExtension xmlns:gpxtpx="http://www.garmin.com/xmlschemas/TrackPointExtension/v1">
            <gpxtpx:hr>146</gpxtpx:hr>
          </gpxtpx:TrackPointExtension>
        </extensions>
      </trkpt>
      <trkpt lat="46.55875" lon="0.21213">
        <ele>138.19999694824</ele>
        <time>2022-04-17T09:13:21Z</time>
        <extensions>
          <gpxtpx:TrackPointExtension xmlns:gpxtpx="http://www.garmin.com/xmlschemas/TrackPointExtension/v1">
            <gpxtpx:hr>145</gpxtpx:hr>
          </gpxtpx:TrackPointExtension>
        </extensions>
      </trkpt>
      <trkpt lat="46.55878" lon="0.21213">
        <ele>138</ele>
        <time>2022-04-17T09:13:22Z</time>
        <extensions>
          <gpxtpx:TrackPointExtension xmlns:gpxtpx="http://www.garmin.com/xmlschemas/TrackPointExtension/v1">
            <gpxtpx:hr>145</gpxtpx:hr>
          </gpxtpx:TrackPointExtension>
        </extensions>
      </trkpt>
      <trkpt lat="46.55882" lon="0.21211">
        <ele>137.60000610352</ele>
        <time>2022-04-17T09:13:24Z</time>
        <extensions>
          <gpxtpx:TrackPointExtension xmlns:gpxtpx="http://www.garmin.com/xmlschemas/TrackPointExtension/v1">
            <gpxtpx:hr>144</gpxtpx:hr>
          </gpxtpx:TrackPointExtension>
        </extensions>
      </trkpt>
      <trkpt lat="46.55883" lon="0.21212">
        <ele>137.19999694824</ele>
        <time>2022-04-17T09:13:25Z</time>
        <extensions>
          <gpxtpx:TrackPointExtension xmlns:gpxtpx="http://www.garmin.com/xmlschemas/TrackPointExtension/v1">
            <gpxtpx:hr>143</gpxtpx:hr>
          </gpxtpx:TrackPointExtension>
        </extensions>
      </trkpt>
      <trkpt lat="46.55885" lon="0.21213">
        <ele>136.60000610352</ele>
        <time>2022-04-17T09:13:26Z</time>
        <extensions>
          <gpxtpx:TrackPointExtension xmlns:gpxtpx="http://www.garmin.com/xmlschemas/TrackPointExtension/v1">
            <gpxtpx:hr>143</gpxtpx:hr>
          </gpxtpx:TrackPointExtension>
        </extensions>
      </trkpt>
      <trkpt lat="46.55887" lon="0.21215">
        <ele>136.39999389648</ele>
        <time>2022-04-17T09:13:27Z</time>
        <extensions>
          <gpxtpx:TrackPointExtension xmlns:gpxtpx="http://www.garmin.com/xmlschemas/TrackPointExtension/v1">
            <gpxtpx:hr>144</gpxtpx:hr>
          </gpxtpx:TrackPointExtension>
        </extensions>
      </trkpt>
      <trkpt lat="46.55889" lon="0.21218">
        <ele>136</ele>
        <time>2022-04-17T09:13:28Z</time>
        <extensions>
          <gpxtpx:TrackPointExtension xmlns:gpxtpx="http://www.garmin.com/xmlschemas/TrackPointExtension/v1">
            <gpxtpx:hr>143</gpxtpx:hr>
          </gpxtpx:TrackPointExtension>
        </extensions>
      </trkpt>
      <trkpt lat="46.55893" lon="0.21223">
        <ele>136</ele>
        <time>2022-04-17T09:13:29Z</time>
        <extensions>
          <gpxtpx:TrackPointExtension xmlns:gpxtpx="http://www.garmin.com/xmlschemas/TrackPointExtension/v1">
            <gpxtpx:hr>144</gpxtpx:hr>
          </gpxtpx:TrackPointExtension>
        </extensions>
      </trkpt>
      <trkpt lat="46.55895" lon="0.21226">
        <ele>135.80000305176</ele>
        <time>2022-04-17T09:13:30Z</time>
        <extensions>
          <gpxtpx:TrackPointExtension xmlns:gpxtpx="http://www.garmin.com/xmlschemas/TrackPointExtension/v1">
            <gpxtpx:hr>143</gpxtpx:hr>
          </gpxtpx:TrackPointExtension>
        </extensions>
      </trkpt>
      <trkpt lat="46.55897" lon="0.21228">
        <ele>135.60000610352</ele>
        <time>2022-04-17T09:13:31Z</time>
        <extensions>
          <gpxtpx:TrackPointExtension xmlns:gpxtpx="http://www.garmin.com/xmlschemas/TrackPointExtension/v1">
            <gpxtpx:hr>143</gpxtpx:hr>
          </gpxtpx:TrackPointExtension>
        </extensions>
      </trkpt>
      <trkpt lat="46.559" lon="0.21228">
        <ele>135.19999694824</ele>
        <time>2022-04-17T09:13:32Z</time>
        <extensions>
          <gpxtpx:TrackPointExtension xmlns:gpxtpx="http://www.garmin.com/xmlschemas/TrackPointExtension/v1">
            <gpxtpx:hr>143</gpxtpx:hr>
          </gpxtpx:TrackPointExtension>
        </extensions>
      </trkpt>
      <trkpt lat="46.55902" lon="0.21228">
        <ele>134.80000305176</ele>
        <time>2022-04-17T09:13:33Z</time>
        <extensions>
          <gpxtpx:TrackPointExtension xmlns:gpxtpx="http://www.garmin.com/xmlschemas/TrackPointExtension/v1">
            <gpxtpx:hr>144</gpxtpx:hr>
          </gpxtpx:TrackPointExtension>
        </extensions>
      </trkpt>
      <trkpt lat="46.55925" lon="0.21228">
        <ele>133.39999389648</ele>
        <time>2022-04-17T09:29:57Z</time>
        <extensions>
          <gpxtpx:TrackPointExtension xmlns:gpxtpx="http://www.garmin.com/xmlschemas/TrackPointExtension/v1">
            <gpxtpx:hr>146</gpxtpx:hr>
          </gpxtpx:TrackPointExtension>
        </extensions>
      </trkpt>
      <trkpt lat="46.55939" lon="0.21214">
        <ele>133</ele>
        <time>2022-04-17T09:30:01Z</time>
        <extensions>
          <gpxtpx:TrackPointExtension xmlns:gpxtpx="http://www.garmin.com/xmlschemas/TrackPointExtension/v1">
            <gpxtpx:hr>145</gpxtpx:hr>
          </gpxtpx:TrackPointExtension>
        </extensions>
      </trkpt>
      <trkpt lat="46.55941" lon="0.21213">
        <ele>132.80000305176</ele>
        <time>2022-04-17T09:30:02Z</time>
        <extensions>
          <gpxtpx:TrackPointExtension xmlns:gpxtpx="http://www.garmin.com/xmlschemas/TrackPointExtension/v1">
            <gpxtpx:hr>145</gpxtpx:hr>
          </gpxtpx:TrackPointExtension>
        </extensions>
      </trkpt>
      <trkpt lat="46.55944" lon="0.21211">
        <ele>132.80000305176</ele>
        <time>2022-04-17T09:30:03Z</time>
        <extensions>
          <gpxtpx:TrackPointExtension xmlns:gpxtpx="http://www.garmin.com/xmlschemas/TrackPointExtension/v1">
            <gpxtpx:hr>144</gpxtpx:hr>
          </gpxtpx:TrackPointExtension>
        </extensions>
      </trkpt>
      <trkpt lat="46.55951" lon="0.21205">
        <ele>132.39999389648</ele>
        <time>2022-04-17T09:30:05Z</time>
        <extensions>
          <gpxtpx:TrackPointExtension xmlns:gpxtpx="http://www.garmin.com/xmlschemas/TrackPointExtension/v1">
            <gpxtpx:hr>142</gpxtpx:hr>
          </gpxtpx:TrackPointExtension>
        </extensions>
      </trkpt>
      <trkpt lat="46.55959" lon="0.212">
        <ele>132</ele>
        <time>2022-04-17T09:30:07Z</time>
        <extensions>
          <gpxtpx:TrackPointExtension xmlns:gpxtpx="http://www.garmin.com/xmlschemas/TrackPointExtension/v1">
            <gpxtpx:hr>140</gpxtpx:hr>
          </gpxtpx:TrackPointExtension>
        </extensions>
      </trkpt>
      <trkpt lat="46.5597" lon="0.21189">
        <ele>131.19999694824</ele>
        <time>2022-04-17T09:30:10Z</time>
        <extensions>
          <gpxtpx:TrackPointExtension xmlns:gpxtpx="http://www.garmin.com/xmlschemas/TrackPointExtension/v1">
            <gpxtpx:hr>140</gpxtpx:hr>
          </gpxtpx:TrackPointExtension>
        </extensions>
      </trkpt>
      <trkpt lat="46.55974" lon="0.21183">
        <ele>131</ele>
        <time>2022-04-17T09:30:11Z</time>
        <extensions>
          <gpxtpx:TrackPointExtension xmlns:gpxtpx="http://www.garmin.com/xmlschemas/TrackPointExtension/v1">
            <gpxtpx:hr>139</gpxtpx:hr>
          </gpxtpx:TrackPointExtension>
        </extensions>
      </trkpt>
      <trkpt lat="46.55977" lon="0.21177">
        <ele>130.60000610352</ele>
        <time>2022-04-17T09:30:12Z</time>
        <extensions>
          <gpxtpx:TrackPointExtension xmlns:gpxtpx="http://www.garmin.com/xmlschemas/TrackPointExtension/v1">
            <gpxtpx:hr>138</gpxtpx:hr>
          </gpxtpx:TrackPointExtension>
        </extensions>
      </trkpt>
      <trkpt lat="46.55979" lon="0.2117">
        <ele>130.19999694824</ele>
        <time>2022-04-17T09:30:13Z</time>
        <extensions>
          <gpxtpx:TrackPointExtension xmlns:gpxtpx="http://www.garmin.com/xmlschemas/TrackPointExtension/v1">
            <gpxtpx:hr>137</gpxtpx:hr>
          </gpxtpx:TrackPointExtension>
        </extensions>
      </trkpt>
      <trkpt lat="46.55981" lon="0.21162">
        <ele>129.60000610352</ele>
        <time>2022-04-17T09:30:14Z</time>
        <extensions>
          <gpxtpx:TrackPointExtension xmlns:gpxtpx="http://www.garmin.com/xmlschemas/TrackPointExtension/v1">
            <gpxtpx:hr>136</gpxtpx:hr>
          </gpxtpx:TrackPointExtension>
        </extensions>
      </trkpt>
      <trkpt lat="46.55983" lon="0.21155">
        <ele>129.39999389648</ele>
        <time>2022-04-17T09:30:15Z</time>
        <extensions>
          <gpxtpx:TrackPointExtension xmlns:gpxtpx="http://www.garmin.com/xmlschemas/TrackPointExtension/v1">
            <gpxtpx:hr>135</gpxtpx:hr>
          </gpxtpx:TrackPointExtension>
        </extensions>
      </trkpt>
      <trkpt lat="46.55985" lon="0.21148">
        <ele>129</ele>
        <time>2022-04-17T09:30:16Z</time>
        <extensions>
          <gpxtpx:TrackPointExtension xmlns:gpxtpx="http://www.garmin.com/xmlschemas/TrackPointExtension/v1">
            <gpxtpx:hr>134</gpxtpx:hr>
          </gpxtpx:TrackPointExtension>
        </extensions>
      </trkpt>
      <trkpt lat="46.55987" lon="0.21142">
        <ele>128.19999694824</ele>
        <time>2022-04-17T09:30:17Z</time>
        <extensions>
          <gpxtpx:TrackPointExtension xmlns:gpxtpx="http://www.garmin.com/xmlschemas/TrackPointExtension/v1">
            <gpxtpx:hr>133</gpxtpx:hr>
          </gpxtpx:TrackPointExtension>
        </extensions>
      </trkpt>
      <trkpt lat="46.55992" lon="0.21134">
        <ele>127.80000305176</ele>
        <time>2022-04-17T09:30:18Z</time>
        <extensions>
          <gpxtpx:TrackPointExtension xmlns:gpxtpx="http://www.garmin.com/xmlschemas/TrackPointExtension/v1">
            <gpxtpx:hr>132</gpxtpx:hr>
          </gpxtpx:TrackPointExtension>
        </extensions>
      </trkpt>
      <trkpt lat="46.56" lon="0.21122">
        <ele>127.19999694824</ele>
        <time>2022-04-17T09:30:20Z</time>
        <extensions>
          <gpxtpx:TrackPointExtension xmlns:gpxtpx="http://www.garmin.com/xmlschemas/TrackPointExtension/v1">
            <gpxtpx:hr>131</gpxtpx:hr>
          </gpxtpx:TrackPointExtension>
        </extensions>
      </trkpt>
      <trkpt lat="46.56003" lon="0.21116">
        <ele>126.80000305176</ele>
        <time>2022-04-17T09:30:21Z</time>
        <extensions>
          <gpxtpx:TrackPointExtension xmlns:gpxtpx="http://www.garmin.com/xmlschemas/TrackPointExtension/v1">
            <gpxtpx:hr>132</gpxtpx:hr>
          </gpxtpx:TrackPointExtension>
        </extensions>
      </trkpt>
      <trkpt lat="46.56003" lon="0.21109">
        <ele>126.80000305176</ele>
        <time>2022-04-17T09:30:22Z</time>
        <extensions>
          <gpxtpx:TrackPointExtension xmlns:gpxtpx="http://www.garmin.com/xmlschemas/TrackPointExtension/v1">
            <gpxtpx:hr>131</gpxtpx:hr>
          </gpxtpx:TrackPointExtension>
        </extensions>
      </trkpt>
      <trkpt lat="46.56009" lon="0.21089">
        <ele>126</ele>
        <time>2022-04-17T09:30:25Z</time>
        <extensions>
          <gpxtpx:TrackPointExtension xmlns:gpxtpx="http://www.garmin.com/xmlschemas/TrackPointExtension/v1">
            <gpxtpx:hr>132</gpxtpx:hr>
          </gpxtpx:TrackPointExtension>
        </extensions>
      </trkpt>
      <trkpt lat="46.56013" lon="0.21083">
        <ele>125.59999847412</ele>
        <time>2022-04-17T09:30:26Z</time>
        <extensions>
          <gpxtpx:TrackPointExtension xmlns:gpxtpx="http://www.garmin.com/xmlschemas/TrackPointExtension/v1">
            <gpxtpx:hr>132</gpxtpx:hr>
          </gpxtpx:TrackPointExtension>
        </extensions>
      </trkpt>
      <trkpt lat="46.56017" lon="0.21077">
        <ele>125.40000152588</ele>
        <time>2022-04-17T09:30:27Z</time>
        <extensions>
          <gpxtpx:TrackPointExtension xmlns:gpxtpx="http://www.garmin.com/xmlschemas/TrackPointExtension/v1">
            <gpxtpx:hr>131</gpxtpx:hr>
          </gpxtpx:TrackPointExtension>
        </extensions>
      </trkpt>
      <trkpt lat="46.5602" lon="0.21074">
        <ele>124.59999847412</ele>
        <time>2022-04-17T09:30:28Z</time>
        <extensions>
          <gpxtpx:TrackPointExtension xmlns:gpxtpx="http://www.garmin.com/xmlschemas/TrackPointExtension/v1">
            <gpxtpx:hr>130</gpxtpx:hr>
          </gpxtpx:TrackPointExtension>
        </extensions>
      </trkpt>
      <trkpt lat="46.56026" lon="0.21068">
        <ele>124.40000152588</ele>
        <time>2022-04-17T09:30:29Z</time>
        <extensions>
          <gpxtpx:TrackPointExtension xmlns:gpxtpx="http://www.garmin.com/xmlschemas/TrackPointExtension/v1">
            <gpxtpx:hr>130</gpxtpx:hr>
          </gpxtpx:TrackPointExtension>
        </extensions>
      </trkpt>
      <trkpt lat="46.56029" lon="0.2106">
        <ele>124</ele>
        <time>2022-04-17T09:30:30Z</time>
        <extensions>
          <gpxtpx:TrackPointExtension xmlns:gpxtpx="http://www.garmin.com/xmlschemas/TrackPointExtension/v1">
            <gpxtpx:hr>130</gpxtpx:hr>
          </gpxtpx:TrackPointExtension>
        </extensions>
      </trkpt>
      <trkpt lat="46.56031" lon="0.21055">
        <ele>123.80000305176</ele>
        <time>2022-04-17T09:30:31Z</time>
        <extensions>
          <gpxtpx:TrackPointExtension xmlns:gpxtpx="http://www.garmin.com/xmlschemas/TrackPointExtension/v1">
            <gpxtpx:hr>129</gpxtpx:hr>
          </gpxtpx:TrackPointExtension>
        </extensions>
      </trkpt>
      <trkpt lat="46.56033" lon="0.21049">
        <ele>123.40000152588</ele>
        <time>2022-04-17T09:30:32Z</time>
        <extensions>
          <gpxtpx:TrackPointExtension xmlns:gpxtpx="http://www.garmin.com/xmlschemas/TrackPointExtension/v1">
            <gpxtpx:hr>129</gpxtpx:hr>
          </gpxtpx:TrackPointExtension>
        </extensions>
      </trkpt>
      <trkpt lat="46.56033" lon="0.21045">
        <ele>122</ele>
        <time>2022-04-17T09:30:33Z</time>
        <extensions>
          <gpxtpx:TrackPointExtension xmlns:gpxtpx="http://www.garmin.com/xmlschemas/TrackPointExtension/v1">
            <gpxtpx:hr>130</gpxtpx:hr>
          </gpxtpx:TrackPointExtension>
        </extensions>
      </trkpt>
      <trkpt lat="46.56034" lon="0.2104">
        <ele>121.59999847412</ele>
        <time>2022-04-17T09:30:34Z</time>
        <extensions>
          <gpxtpx:TrackPointExtension xmlns:gpxtpx="http://www.garmin.com/xmlschemas/TrackPointExtension/v1">
            <gpxtpx:hr>130</gpxtpx:hr>
          </gpxtpx:TrackPointExtension>
        </extensions>
      </trkpt>
      <trkpt lat="46.56036" lon="0.21037">
        <ele>121</ele>
        <time>2022-04-17T09:30:35Z</time>
        <extensions>
          <gpxtpx:TrackPointExtension xmlns:gpxtpx="http://www.garmin.com/xmlschemas/TrackPointExtension/v1">
            <gpxtpx:hr>131</gpxtpx:hr>
          </gpxtpx:TrackPointExtension>
        </extensions>
      </trkpt>
      <trkpt lat="46.56037" lon="0.21032">
        <ele>121</ele>
        <time>2022-04-17T09:30:36Z</time>
        <extensions>
          <gpxtpx:TrackPointExtension xmlns:gpxtpx="http://www.garmin.com/xmlschemas/TrackPointExtension/v1">
            <gpxtpx:hr>131</gpxtpx:hr>
          </gpxtpx:TrackPointExtension>
        </extensions>
      </trkpt>
      <trkpt lat="46.56038" lon="0.21029">
        <ele>120.59999847412</ele>
        <time>2022-04-17T09:30:37Z</time>
        <extensions>
          <gpxtpx:TrackPointExtension xmlns:gpxtpx="http://www.garmin.com/xmlschemas/TrackPointExtension/v1">
            <gpxtpx:hr>131</gpxtpx:hr>
          </gpxtpx:TrackPointExtension>
        </extensions>
      </trkpt>
      <trkpt lat="46.56038" lon="0.21028">
        <ele>120.40000152588</ele>
        <time>2022-04-17T09:30:38Z</time>
        <extensions>
          <gpxtpx:TrackPointExtension xmlns:gpxtpx="http://www.garmin.com/xmlschemas/TrackPointExtension/v1">
            <gpxtpx:hr>131</gpxtpx:hr>
          </gpxtpx:TrackPointExtension>
        </extensions>
      </trkpt>
      <trkpt lat="46.56039" lon="0.21028">
        <ele>120.19999694824</ele>
        <time>2022-04-17T09:30:39Z</time>
        <extensions>
          <gpxtpx:TrackPointExtension xmlns:gpxtpx="http://www.garmin.com/xmlschemas/TrackPointExtension/v1">
            <gpxtpx:hr>131</gpxtpx:hr>
          </gpxtpx:TrackPointExtension>
        </extensions>
      </trkpt>
      <trkpt lat="46.56039" lon="0.21027">
        <ele>120.19999694824</ele>
        <time>2022-04-17T09:30:40Z</time>
        <extensions>
          <gpxtpx:TrackPointExtension xmlns:gpxtpx="http://www.garmin.com/xmlschemas/TrackPointExtension/v1">
            <gpxtpx:hr>131</gpxtpx:hr>
          </gpxtpx:TrackPointExtension>
        </extensions>
      </trkpt>
      <trkpt lat="46.56039" lon="0.21026">
        <ele>120</ele>
        <time>2022-04-17T09:30:41Z</time>
        <extensions>
          <gpxtpx:TrackPointExtension xmlns:gpxtpx="http://www.garmin.com/xmlschemas/TrackPointExtension/v1">
            <gpxtpx:hr>131</gpxtpx:hr>
          </gpxtpx:TrackPointExtension>
        </extensions>
      </trkpt>
      <trkpt lat="46.56038" lon="0.21025">
        <ele>120</ele>
        <time>2022-04-17T09:30:42Z</time>
        <extensions>
          <gpxtpx:TrackPointExtension xmlns:gpxtpx="http://www.garmin.com/xmlschemas/TrackPointExtension/v1">
            <gpxtpx:hr>131</gpxtpx:hr>
          </gpxtpx:TrackPointExtension>
        </extensions>
      </trkpt>
      <trkpt lat="46.56039" lon="0.21023">
        <ele>120</ele>
        <time>2022-04-17T09:30:43Z</time>
        <extensions>
          <gpxtpx:TrackPointExtension xmlns:gpxtpx="http://www.garmin.com/xmlschemas/TrackPointExtension/v1">
            <gpxtpx:hr>130</gpxtpx:hr>
          </gpxtpx:TrackPointExtension>
        </extensions>
      </trkpt>
      <trkpt lat="46.5604" lon="0.21022">
        <ele>119.80000305176</ele>
        <time>2022-04-17T09:30:44Z</time>
        <extensions>
          <gpxtpx:TrackPointExtension xmlns:gpxtpx="http://www.garmin.com/xmlschemas/TrackPointExtension/v1">
            <gpxtpx:hr>131</gpxtpx:hr>
          </gpxtpx:TrackPointExtension>
        </extensions>
      </trkpt>
      <trkpt lat="46.56041" lon="0.21019">
        <ele>119.80000305176</ele>
        <time>2022-04-17T09:30:46Z</time>
        <extensions>
          <gpxtpx:TrackPointExtension xmlns:gpxtpx="http://www.garmin.com/xmlschemas/TrackPointExtension/v1">
            <gpxtpx:hr>132</gpxtpx:hr>
          </gpxtpx:TrackPointExtension>
        </extensions>
      </trkpt>
      <trkpt lat="46.56042" lon="0.21017">
        <ele>119.59999847412</ele>
        <time>2022-04-17T09:30:47Z</time>
        <extensions>
          <gpxtpx:TrackPointExtension xmlns:gpxtpx="http://www.garmin.com/xmlschemas/TrackPointExtension/v1">
            <gpxtpx:hr>133</gpxtpx:hr>
          </gpxtpx:TrackPointExtension>
        </extensions>
      </trkpt>
      <trkpt lat="46.56042" lon="0.21015">
        <ele>119.59999847412</ele>
        <time>2022-04-17T09:30:48Z</time>
        <extensions>
          <gpxtpx:TrackPointExtension xmlns:gpxtpx="http://www.garmin.com/xmlschemas/TrackPointExtension/v1">
            <gpxtpx:hr>133</gpxtpx:hr>
          </gpxtpx:TrackPointExtension>
        </extensions>
      </trkpt>
      <trkpt lat="46.56042" lon="0.21012">
        <ele>119.40000152588</ele>
        <time>2022-04-17T09:30:49Z</time>
        <extensions>
          <gpxtpx:TrackPointExtension xmlns:gpxtpx="http://www.garmin.com/xmlschemas/TrackPointExtension/v1">
            <gpxtpx:hr>135</gpxtpx:hr>
          </gpxtpx:TrackPointExtension>
        </extensions>
      </trkpt>
      <trkpt lat="46.56042" lon="0.21009">
        <ele>119.40000152588</ele>
        <time>2022-04-17T09:30:50Z</time>
        <extensions>
          <gpxtpx:TrackPointExtension xmlns:gpxtpx="http://www.garmin.com/xmlschemas/TrackPointExtension/v1">
            <gpxtpx:hr>135</gpxtpx:hr>
          </gpxtpx:TrackPointExtension>
        </extensions>
      </trkpt>
      <trkpt lat="46.56043" lon="0.21007">
        <ele>119.19999694824</ele>
        <time>2022-04-17T09:30:51Z</time>
        <extensions>
          <gpxtpx:TrackPointExtension xmlns:gpxtpx="http://www.garmin.com/xmlschemas/TrackPointExtension/v1">
            <gpxtpx:hr>136</gpxtpx:hr>
          </gpxtpx:TrackPointExtension>
        </extensions>
      </trkpt>
      <trkpt lat="46.56044" lon="0.21007">
        <ele>119</ele>
        <time>2022-04-17T09:30:52Z</time>
        <extensions>
          <gpxtpx:TrackPointExtension xmlns:gpxtpx="http://www.garmin.com/xmlschemas/TrackPointExtension/v1">
            <gpxtpx:hr>137</gpxtpx:hr>
          </gpxtpx:TrackPointExtension>
        </extensions>
      </trkpt>
      <trkpt lat="46.56045" lon="0.21006">
        <ele>118.80000305176</ele>
        <time>2022-04-17T09:30:53Z</time>
        <extensions>
          <gpxtpx:TrackPointExtension xmlns:gpxtpx="http://www.garmin.com/xmlschemas/TrackPointExtension/v1">
            <gpxtpx:hr>137</gpxtpx:hr>
          </gpxtpx:TrackPointExtension>
        </extensions>
      </trkpt>
      <trkpt lat="46.56047" lon="0.21007">
        <ele>118.59999847412</ele>
        <time>2022-04-17T09:30:54Z</time>
        <extensions>
          <gpxtpx:TrackPointExtension xmlns:gpxtpx="http://www.garmin.com/xmlschemas/TrackPointExtension/v1">
            <gpxtpx:hr>137</gpxtpx:hr>
          </gpxtpx:TrackPointExtension>
        </extensions>
      </trkpt>
      <trkpt lat="46.56056" lon="0.21004">
        <ele>117.80000305176</ele>
        <time>2022-04-17T09:30:58Z</time>
        <extensions>
          <gpxtpx:TrackPointExtension xmlns:gpxtpx="http://www.garmin.com/xmlschemas/TrackPointExtension/v1">
            <gpxtpx:hr>135</gpxtpx:hr>
          </gpxtpx:TrackPointExtension>
        </extensions>
      </trkpt>
      <trkpt lat="46.56059" lon="0.21002">
        <ele>117.59999847412</ele>
        <time>2022-04-17T09:30:59Z</time>
        <extensions>
          <gpxtpx:TrackPointExtension xmlns:gpxtpx="http://www.garmin.com/xmlschemas/TrackPointExtension/v1">
            <gpxtpx:hr>134</gpxtpx:hr>
          </gpxtpx:TrackPointExtension>
        </extensions>
      </trkpt>
      <trkpt lat="46.56063" lon="0.21001">
        <ele>117.40000152588</ele>
        <time>2022-04-17T09:31:00Z</time>
        <extensions>
          <gpxtpx:TrackPointExtension xmlns:gpxtpx="http://www.garmin.com/xmlschemas/TrackPointExtension/v1">
            <gpxtpx:hr>133</gpxtpx:hr>
          </gpxtpx:TrackPointExtension>
        </extensions>
      </trkpt>
      <trkpt lat="46.56069" lon="0.20997">
        <ele>117.19999694824</ele>
        <time>2022-04-17T09:31:02Z</time>
        <extensions>
          <gpxtpx:TrackPointExtension xmlns:gpxtpx="http://www.garmin.com/xmlschemas/TrackPointExtension/v1">
            <gpxtpx:hr>130</gpxtpx:hr>
          </gpxtpx:TrackPointExtension>
        </extensions>
      </trkpt>
      <trkpt lat="46.56075" lon="0.20993">
        <ele>116.80000305176</ele>
        <time>2022-04-17T09:31:04Z</time>
        <extensions>
          <gpxtpx:TrackPointExtension xmlns:gpxtpx="http://www.garmin.com/xmlschemas/TrackPointExtension/v1">
            <gpxtpx:hr>128</gpxtpx:hr>
          </gpxtpx:TrackPointExtension>
        </extensions>
      </trkpt>
      <trkpt lat="46.56078" lon="0.20991">
        <ele>116.80000305176</ele>
        <time>2022-04-17T09:31:05Z</time>
        <extensions>
          <gpxtpx:TrackPointExtension xmlns:gpxtpx="http://www.garmin.com/xmlschemas/TrackPointExtension/v1">
            <gpxtpx:hr>128</gpxtpx:hr>
          </gpxtpx:TrackPointExtension>
        </extensions>
      </trkpt>
      <trkpt lat="46.56081" lon="0.2099">
        <ele>116.59999847412</ele>
        <time>2022-04-17T09:31:06Z</time>
        <extensions>
          <gpxtpx:TrackPointExtension xmlns:gpxtpx="http://www.garmin.com/xmlschemas/TrackPointExtension/v1">
            <gpxtpx:hr>127</gpxtpx:hr>
          </gpxtpx:TrackPointExtension>
        </extensions>
      </trkpt>
      <trkpt lat="46.56085" lon="0.20988">
        <ele>116.40000152588</ele>
        <time>2022-04-17T09:31:07Z</time>
        <extensions>
          <gpxtpx:TrackPointExtension xmlns:gpxtpx="http://www.garmin.com/xmlschemas/TrackPointExtension/v1">
            <gpxtpx:hr>126</gpxtpx:hr>
          </gpxtpx:TrackPointExtension>
        </extensions>
      </trkpt>
      <trkpt lat="46.56096" lon="0.20984">
        <ele>116.19999694824</ele>
        <time>2022-04-17T09:31:10Z</time>
        <extensions>
          <gpxtpx:TrackPointExtension xmlns:gpxtpx="http://www.garmin.com/xmlschemas/TrackPointExtension/v1">
            <gpxtpx:hr>124</gpxtpx:hr>
          </gpxtpx:TrackPointExtension>
        </extensions>
      </trkpt>
      <trkpt lat="46.56099" lon="0.20983">
        <ele>116.19999694824</ele>
        <time>2022-04-17T09:31:11Z</time>
        <extensions>
          <gpxtpx:TrackPointExtension xmlns:gpxtpx="http://www.garmin.com/xmlschemas/TrackPointExtension/v1">
            <gpxtpx:hr>125</gpxtpx:hr>
          </gpxtpx:TrackPointExtension>
        </extensions>
      </trkpt>
      <trkpt lat="46.56102" lon="0.20982">
        <ele>116.19999694824</ele>
        <time>2022-04-17T09:31:12Z</time>
        <extensions>
          <gpxtpx:TrackPointExtension xmlns:gpxtpx="http://www.garmin.com/xmlschemas/TrackPointExtension/v1">
            <gpxtpx:hr>125</gpxtpx:hr>
          </gpxtpx:TrackPointExtension>
        </extensions>
      </trkpt>
      <trkpt lat="46.56105" lon="0.20981">
        <ele>116.19999694824</ele>
        <time>2022-04-17T09:31:13Z</time>
        <extensions>
          <gpxtpx:TrackPointExtension xmlns:gpxtpx="http://www.garmin.com/xmlschemas/TrackPointExtension/v1">
            <gpxtpx:hr>125</gpxtpx:hr>
          </gpxtpx:TrackPointExtension>
        </extensions>
      </trkpt>
      <trkpt lat="46.5614" lon="0.20977">
        <ele>117.19999694824</ele>
        <time>2022-04-17T09:31:22Z</time>
        <extensions>
          <gpxtpx:TrackPointExtension xmlns:gpxtpx="http://www.garmin.com/xmlschemas/TrackPointExtension/v1">
            <gpxtpx:hr>126</gpxtpx:hr>
          </gpxtpx:TrackPointExtension>
        </extensions>
      </trkpt>
      <trkpt lat="46.56158" lon="0.20975">
        <ele>117</ele>
        <time>2022-04-17T09:31:25Z</time>
        <extensions>
          <gpxtpx:TrackPointExtension xmlns:gpxtpx="http://www.garmin.com/xmlschemas/TrackPointExtension/v1">
            <gpxtpx:hr>128</gpxtpx:hr>
          </gpxtpx:TrackPointExtension>
        </extensions>
      </trkpt>
      <trkpt lat="46.56163" lon="0.20974">
        <ele>117</ele>
        <time>2022-04-17T09:31:26Z</time>
        <extensions>
          <gpxtpx:TrackPointExtension xmlns:gpxtpx="http://www.garmin.com/xmlschemas/TrackPointExtension/v1">
            <gpxtpx:hr>129</gpxtpx:hr>
          </gpxtpx:TrackPointExtension>
        </extensions>
      </trkpt>
      <trkpt lat="46.56168" lon="0.20974">
        <ele>116.80000305176</ele>
        <time>2022-04-17T09:31:27Z</time>
        <extensions>
          <gpxtpx:TrackPointExtension xmlns:gpxtpx="http://www.garmin.com/xmlschemas/TrackPointExtension/v1">
            <gpxtpx:hr>129</gpxtpx:hr>
          </gpxtpx:TrackPointExtension>
        </extensions>
      </trkpt>
      <trkpt lat="46.56192" lon="0.20982">
        <ele>115.80000305176</ele>
        <time>2022-04-17T09:31:31Z</time>
        <extensions>
          <gpxtpx:TrackPointExtension xmlns:gpxtpx="http://www.garmin.com/xmlschemas/TrackPointExtension/v1">
            <gpxtpx:hr>130</gpxtpx:hr>
          </gpxtpx:TrackPointExtension>
        </extensions>
      </trkpt>
      <trkpt lat="46.56199" lon="0.20984">
        <ele>115</ele>
        <time>2022-04-17T09:31:32Z</time>
        <extensions>
          <gpxtpx:TrackPointExtension xmlns:gpxtpx="http://www.garmin.com/xmlschemas/TrackPointExtension/v1">
            <gpxtpx:hr>130</gpxtpx:hr>
          </gpxtpx:TrackPointExtension>
        </extensions>
      </trkpt>
      <trkpt lat="46.56218" lon="0.20991">
        <ele>114</ele>
        <time>2022-04-17T09:31:36Z</time>
        <extensions>
          <gpxtpx:TrackPointExtension xmlns:gpxtpx="http://www.garmin.com/xmlschemas/TrackPointExtension/v1">
            <gpxtpx:hr>129</gpxtpx:hr>
          </gpxtpx:TrackPointExtension>
        </extensions>
      </trkpt>
      <trkpt lat="46.56233" lon="0.20997">
        <ele>113.59999847412</ele>
        <time>2022-04-17T09:31:39Z</time>
        <extensions>
          <gpxtpx:TrackPointExtension xmlns:gpxtpx="http://www.garmin.com/xmlschemas/TrackPointExtension/v1">
            <gpxtpx:hr>130</gpxtpx:hr>
          </gpxtpx:TrackPointExtension>
        </extensions>
      </trkpt>
      <trkpt lat="46.56238" lon="0.21">
        <ele>113.59999847412</ele>
        <time>2022-04-17T09:31:41Z</time>
        <extensions>
          <gpxtpx:TrackPointExtension xmlns:gpxtpx="http://www.garmin.com/xmlschemas/TrackPointExtension/v1">
            <gpxtpx:hr>130</gpxtpx:hr>
          </gpxtpx:TrackPointExtension>
        </extensions>
      </trkpt>
      <trkpt lat="46.56241" lon="0.21002">
        <ele>113.59999847412</ele>
        <time>2022-04-17T09:31:42Z</time>
        <extensions>
          <gpxtpx:TrackPointExtension xmlns:gpxtpx="http://www.garmin.com/xmlschemas/TrackPointExtension/v1">
            <gpxtpx:hr>130</gpxtpx:hr>
          </gpxtpx:TrackPointExtension>
        </extensions>
      </trkpt>
      <trkpt lat="46.56244" lon="0.21003">
        <ele>113.80000305176</ele>
        <time>2022-04-17T09:31:43Z</time>
        <extensions>
          <gpxtpx:TrackPointExtension xmlns:gpxtpx="http://www.garmin.com/xmlschemas/TrackPointExtension/v1">
            <gpxtpx:hr>131</gpxtpx:hr>
          </gpxtpx:TrackPointExtension>
        </extensions>
      </trkpt>
      <trkpt lat="46.56246" lon="0.21004">
        <ele>113.80000305176</ele>
        <time>2022-04-17T09:31:44Z</time>
        <extensions>
          <gpxtpx:TrackPointExtension xmlns:gpxtpx="http://www.garmin.com/xmlschemas/TrackPointExtension/v1">
            <gpxtpx:hr>131</gpxtpx:hr>
          </gpxtpx:TrackPointExtension>
        </extensions>
      </trkpt>
      <trkpt lat="46.56249" lon="0.21006">
        <ele>114</ele>
        <time>2022-04-17T09:31:45Z</time>
        <extensions>
          <gpxtpx:TrackPointExtension xmlns:gpxtpx="http://www.garmin.com/xmlschemas/TrackPointExtension/v1">
            <gpxtpx:hr>131</gpxtpx:hr>
          </gpxtpx:TrackPointExtension>
        </extensions>
      </trkpt>
      <trkpt lat="46.56257" lon="0.2101">
        <ele>114</ele>
        <time>2022-04-17T09:31:47Z</time>
        <extensions>
          <gpxtpx:TrackPointExtension xmlns:gpxtpx="http://www.garmin.com/xmlschemas/TrackPointExtension/v1">
            <gpxtpx:hr>132</gpxtpx:hr>
          </gpxtpx:TrackPointExtension>
        </extensions>
      </trkpt>
      <trkpt lat="46.56261" lon="0.21011">
        <ele>114</ele>
        <time>2022-04-17T09:31:48Z</time>
        <extensions>
          <gpxtpx:TrackPointExtension xmlns:gpxtpx="http://www.garmin.com/xmlschemas/TrackPointExtension/v1">
            <gpxtpx:hr>132</gpxtpx:hr>
          </gpxtpx:TrackPointExtension>
        </extensions>
      </trkpt>
      <trkpt lat="46.56264" lon="0.21013">
        <ele>114</ele>
        <time>2022-04-17T09:31:49Z</time>
        <extensions>
          <gpxtpx:TrackPointExtension xmlns:gpxtpx="http://www.garmin.com/xmlschemas/TrackPointExtension/v1">
            <gpxtpx:hr>132</gpxtpx:hr>
          </gpxtpx:TrackPointExtension>
        </extensions>
      </trkpt>
      <trkpt lat="46.56266" lon="0.21013">
        <ele>114.19999694824</ele>
        <time>2022-04-17T09:31:50Z</time>
        <extensions>
          <gpxtpx:TrackPointExtension xmlns:gpxtpx="http://www.garmin.com/xmlschemas/TrackPointExtension/v1">
            <gpxtpx:hr>132</gpxtpx:hr>
          </gpxtpx:TrackPointExtension>
        </extensions>
      </trkpt>
      <trkpt lat="46.56266" lon="0.21014">
        <ele>114.19999694824</ele>
        <time>2022-04-17T09:31:51Z</time>
        <extensions>
          <gpxtpx:TrackPointExtension xmlns:gpxtpx="http://www.garmin.com/xmlschemas/TrackPointExtension/v1">
            <gpxtpx:hr>132</gpxtpx:hr>
          </gpxtpx:TrackPointExtension>
        </extensions>
      </trkpt>
      <trkpt lat="46.56269" lon="0.21015">
        <ele>114.19999694824</ele>
        <time>2022-04-17T09:31:52Z</time>
        <extensions>
          <gpxtpx:TrackPointExtension xmlns:gpxtpx="http://www.garmin.com/xmlschemas/TrackPointExtension/v1">
            <gpxtpx:hr>132</gpxtpx:hr>
          </gpxtpx:TrackPointExtension>
        </extensions>
      </trkpt>
      <trkpt lat="46.56273" lon="0.21016">
        <ele>114.40000152588</ele>
        <time>2022-04-17T09:31:53Z</time>
        <extensions>
          <gpxtpx:TrackPointExtension xmlns:gpxtpx="http://www.garmin.com/xmlschemas/TrackPointExtension/v1">
            <gpxtpx:hr>131</gpxtpx:hr>
          </gpxtpx:TrackPointExtension>
        </extensions>
      </trkpt>
      <trkpt lat="46.5628" lon="0.21018">
        <ele>114.59999847412</ele>
        <time>2022-04-17T09:31:55Z</time>
        <extensions>
          <gpxtpx:TrackPointExtension xmlns:gpxtpx="http://www.garmin.com/xmlschemas/TrackPointExtension/v1">
            <gpxtpx:hr>130</gpxtpx:hr>
          </gpxtpx:TrackPointExtension>
        </extensions>
      </trkpt>
      <trkpt lat="46.56283" lon="0.21023">
        <ele>114.59999847412</ele>
        <time>2022-04-17T09:31:57Z</time>
        <extensions>
          <gpxtpx:TrackPointExtension xmlns:gpxtpx="http://www.garmin.com/xmlschemas/TrackPointExtension/v1">
            <gpxtpx:hr>129</gpxtpx:hr>
          </gpxtpx:TrackPointExtension>
        </extensions>
      </trkpt>
      <trkpt lat="46.56285" lon="0.21025">
        <ele>114.59999847412</ele>
        <time>2022-04-17T09:31:58Z</time>
        <extensions>
          <gpxtpx:TrackPointExtension xmlns:gpxtpx="http://www.garmin.com/xmlschemas/TrackPointExtension/v1">
            <gpxtpx:hr>130</gpxtpx:hr>
          </gpxtpx:TrackPointExtension>
        </extensions>
      </trkpt>
      <trkpt lat="46.56288" lon="0.21026">
        <ele>114.59999847412</ele>
        <time>2022-04-17T09:31:59Z</time>
        <extensions>
          <gpxtpx:TrackPointExtension xmlns:gpxtpx="http://www.garmin.com/xmlschemas/TrackPointExtension/v1">
            <gpxtpx:hr>131</gpxtpx:hr>
          </gpxtpx:TrackPointExtension>
        </extensions>
      </trkpt>
      <trkpt lat="46.56296" lon="0.2103">
        <ele>114.59999847412</ele>
        <time>2022-04-17T09:32:02Z</time>
        <extensions>
          <gpxtpx:TrackPointExtension xmlns:gpxtpx="http://www.garmin.com/xmlschemas/TrackPointExtension/v1">
            <gpxtpx:hr>128</gpxtpx:hr>
          </gpxtpx:TrackPointExtension>
        </extensions>
      </trkpt>
      <trkpt lat="46.56298" lon="0.21031">
        <ele>114.59999847412</ele>
        <time>2022-04-17T09:32:03Z</time>
        <extensions>
          <gpxtpx:TrackPointExtension xmlns:gpxtpx="http://www.garmin.com/xmlschemas/TrackPointExtension/v1">
            <gpxtpx:hr>127</gpxtpx:hr>
          </gpxtpx:TrackPointExtension>
        </extensions>
      </trkpt>
      <trkpt lat="46.56302" lon="0.21034">
        <ele>114.59999847412</ele>
        <time>2022-04-17T09:32:05Z</time>
        <extensions>
          <gpxtpx:TrackPointExtension xmlns:gpxtpx="http://www.garmin.com/xmlschemas/TrackPointExtension/v1">
            <gpxtpx:hr>130</gpxtpx:hr>
          </gpxtpx:TrackPointExtension>
        </extensions>
      </trkpt>
      <trkpt lat="46.56305" lon="0.21035">
        <ele>114.40000152588</ele>
        <time>2022-04-17T09:32:06Z</time>
        <extensions>
          <gpxtpx:TrackPointExtension xmlns:gpxtpx="http://www.garmin.com/xmlschemas/TrackPointExtension/v1">
            <gpxtpx:hr>132</gpxtpx:hr>
          </gpxtpx:TrackPointExtension>
        </extensions>
      </trkpt>
      <trkpt lat="46.56307" lon="0.21036">
        <ele>114.40000152588</ele>
        <time>2022-04-17T09:32:07Z</time>
        <extensions>
          <gpxtpx:TrackPointExtension xmlns:gpxtpx="http://www.garmin.com/xmlschemas/TrackPointExtension/v1">
            <gpxtpx:hr>134</gpxtpx:hr>
          </gpxtpx:TrackPointExtension>
        </extensions>
      </trkpt>
      <trkpt lat="46.56309" lon="0.21037">
        <ele>114.59999847412</ele>
        <time>2022-04-17T09:32:08Z</time>
        <extensions>
          <gpxtpx:TrackPointExtension xmlns:gpxtpx="http://www.garmin.com/xmlschemas/TrackPointExtension/v1">
            <gpxtpx:hr>134</gpxtpx:hr>
          </gpxtpx:TrackPointExtension>
        </extensions>
      </trkpt>
      <trkpt lat="46.56312" lon="0.21038">
        <ele>114.59999847412</ele>
        <time>2022-04-17T09:32:09Z</time>
        <extensions>
          <gpxtpx:TrackPointExtension xmlns:gpxtpx="http://www.garmin.com/xmlschemas/TrackPointExtension/v1">
            <gpxtpx:hr>134</gpxtpx:hr>
          </gpxtpx:TrackPointExtension>
        </extensions>
      </trkpt>
      <trkpt lat="46.56315" lon="0.21039">
        <ele>114.80000305176</ele>
        <time>2022-04-17T09:32:10Z</time>
        <extensions>
          <gpxtpx:TrackPointExtension xmlns:gpxtpx="http://www.garmin.com/xmlschemas/TrackPointExtension/v1">
            <gpxtpx:hr>135</gpxtpx:hr>
          </gpxtpx:TrackPointExtension>
        </extensions>
      </trkpt>
      <trkpt lat="46.56317" lon="0.2104">
        <ele>114.80000305176</ele>
        <time>2022-04-17T09:32:11Z</time>
        <extensions>
          <gpxtpx:TrackPointExtension xmlns:gpxtpx="http://www.garmin.com/xmlschemas/TrackPointExtension/v1">
            <gpxtpx:hr>136</gpxtpx:hr>
          </gpxtpx:TrackPointExtension>
        </extensions>
      </trkpt>
      <trkpt lat="46.56319" lon="0.2104">
        <ele>114.80000305176</ele>
        <time>2022-04-17T09:32:12Z</time>
        <extensions>
          <gpxtpx:TrackPointExtension xmlns:gpxtpx="http://www.garmin.com/xmlschemas/TrackPointExtension/v1">
            <gpxtpx:hr>136</gpxtpx:hr>
          </gpxtpx:TrackPointExtension>
        </extensions>
      </trkpt>
      <trkpt lat="46.56322" lon="0.21041">
        <ele>114.80000305176</ele>
        <time>2022-04-17T09:32:13Z</time>
        <extensions>
          <gpxtpx:TrackPointExtension xmlns:gpxtpx="http://www.garmin.com/xmlschemas/TrackPointExtension/v1">
            <gpxtpx:hr>137</gpxtpx:hr>
          </gpxtpx:TrackPointExtension>
        </extensions>
      </trkpt>
      <trkpt lat="46.56326" lon="0.21042">
        <ele>115</ele>
        <time>2022-04-17T09:32:14Z</time>
        <extensions>
          <gpxtpx:TrackPointExtension xmlns:gpxtpx="http://www.garmin.com/xmlschemas/TrackPointExtension/v1">
            <gpxtpx:hr>138</gpxtpx:hr>
          </gpxtpx:TrackPointExtension>
        </extensions>
      </trkpt>
      <trkpt lat="46.56343" lon="0.21049">
        <ele>115.19999694824</ele>
        <time>2022-04-17T09:32:18Z</time>
        <extensions>
          <gpxtpx:TrackPointExtension xmlns:gpxtpx="http://www.garmin.com/xmlschemas/TrackPointExtension/v1">
            <gpxtpx:hr>139</gpxtpx:hr>
          </gpxtpx:TrackPointExtension>
        </extensions>
      </trkpt>
      <trkpt lat="46.5636" lon="0.21054">
        <ele>115</ele>
        <time>2022-04-17T09:32:21Z</time>
        <extensions>
          <gpxtpx:TrackPointExtension xmlns:gpxtpx="http://www.garmin.com/xmlschemas/TrackPointExtension/v1">
            <gpxtpx:hr>136</gpxtpx:hr>
          </gpxtpx:TrackPointExtension>
        </extensions>
      </trkpt>
      <trkpt lat="46.56366" lon="0.21057">
        <ele>115</ele>
        <time>2022-04-17T09:32:22Z</time>
        <extensions>
          <gpxtpx:TrackPointExtension xmlns:gpxtpx="http://www.garmin.com/xmlschemas/TrackPointExtension/v1">
            <gpxtpx:hr>134</gpxtpx:hr>
          </gpxtpx:TrackPointExtension>
        </extensions>
      </trkpt>
      <trkpt lat="46.56372" lon="0.2106">
        <ele>114.80000305176</ele>
        <time>2022-04-17T09:32:23Z</time>
        <extensions>
          <gpxtpx:TrackPointExtension xmlns:gpxtpx="http://www.garmin.com/xmlschemas/TrackPointExtension/v1">
            <gpxtpx:hr>132</gpxtpx:hr>
          </gpxtpx:TrackPointExtension>
        </extensions>
      </trkpt>
      <trkpt lat="46.56384" lon="0.21069">
        <ele>113.80000305176</ele>
        <time>2022-04-17T09:32:25Z</time>
        <extensions>
          <gpxtpx:TrackPointExtension xmlns:gpxtpx="http://www.garmin.com/xmlschemas/TrackPointExtension/v1">
            <gpxtpx:hr>130</gpxtpx:hr>
          </gpxtpx:TrackPointExtension>
        </extensions>
      </trkpt>
      <trkpt lat="46.56389" lon="0.21071">
        <ele>113.40000152588</ele>
        <time>2022-04-17T09:32:26Z</time>
        <extensions>
          <gpxtpx:TrackPointExtension xmlns:gpxtpx="http://www.garmin.com/xmlschemas/TrackPointExtension/v1">
            <gpxtpx:hr>129</gpxtpx:hr>
          </gpxtpx:TrackPointExtension>
        </extensions>
      </trkpt>
      <trkpt lat="46.56396" lon="0.21076">
        <ele>113</ele>
        <time>2022-04-17T09:32:27Z</time>
        <extensions>
          <gpxtpx:TrackPointExtension xmlns:gpxtpx="http://www.garmin.com/xmlschemas/TrackPointExtension/v1">
            <gpxtpx:hr>129</gpxtpx:hr>
          </gpxtpx:TrackPointExtension>
        </extensions>
      </trkpt>
      <trkpt lat="46.56404" lon="0.21086">
        <ele>112.40000152588</ele>
        <time>2022-04-17T09:32:29Z</time>
        <extensions>
          <gpxtpx:TrackPointExtension xmlns:gpxtpx="http://www.garmin.com/xmlschemas/TrackPointExtension/v1">
            <gpxtpx:hr>132</gpxtpx:hr>
          </gpxtpx:TrackPointExtension>
        </extensions>
      </trkpt>
      <trkpt lat="46.56409" lon="0.21095">
        <ele>112.19999694824</ele>
        <time>2022-04-17T09:32:31Z</time>
        <extensions>
          <gpxtpx:TrackPointExtension xmlns:gpxtpx="http://www.garmin.com/xmlschemas/TrackPointExtension/v1">
            <gpxtpx:hr>135</gpxtpx:hr>
          </gpxtpx:TrackPointExtension>
        </extensions>
      </trkpt>
      <trkpt lat="46.56411" lon="0.211">
        <ele>112.19999694824</ele>
        <time>2022-04-17T09:32:32Z</time>
        <extensions>
          <gpxtpx:TrackPointExtension xmlns:gpxtpx="http://www.garmin.com/xmlschemas/TrackPointExtension/v1">
            <gpxtpx:hr>137</gpxtpx:hr>
          </gpxtpx:TrackPointExtension>
        </extensions>
      </trkpt>
      <trkpt lat="46.56415" lon="0.21103">
        <ele>112.19999694824</ele>
        <time>2022-04-17T09:32:33Z</time>
        <extensions>
          <gpxtpx:TrackPointExtension xmlns:gpxtpx="http://www.garmin.com/xmlschemas/TrackPointExtension/v1">
            <gpxtpx:hr>138</gpxtpx:hr>
          </gpxtpx:TrackPointExtension>
        </extensions>
      </trkpt>
      <trkpt lat="46.56417" lon="0.21106">
        <ele>112.19999694824</ele>
        <time>2022-04-17T09:32:34Z</time>
        <extensions>
          <gpxtpx:TrackPointExtension xmlns:gpxtpx="http://www.garmin.com/xmlschemas/TrackPointExtension/v1">
            <gpxtpx:hr>139</gpxtpx:hr>
          </gpxtpx:TrackPointExtension>
        </extensions>
      </trkpt>
      <trkpt lat="46.56419" lon="0.21109">
        <ele>112.40000152588</ele>
        <time>2022-04-17T09:32:35Z</time>
        <extensions>
          <gpxtpx:TrackPointExtension xmlns:gpxtpx="http://www.garmin.com/xmlschemas/TrackPointExtension/v1">
            <gpxtpx:hr>140</gpxtpx:hr>
          </gpxtpx:TrackPointExtension>
        </extensions>
      </trkpt>
      <trkpt lat="46.5642" lon="0.21114">
        <ele>112.40000152588</ele>
        <time>2022-04-17T09:32:36Z</time>
        <extensions>
          <gpxtpx:TrackPointExtension xmlns:gpxtpx="http://www.garmin.com/xmlschemas/TrackPointExtension/v1">
            <gpxtpx:hr>141</gpxtpx:hr>
          </gpxtpx:TrackPointExtension>
        </extensions>
      </trkpt>
      <trkpt lat="46.56421" lon="0.2112">
        <ele>112.40000152588</ele>
        <time>2022-04-17T09:32:37Z</time>
        <extensions>
          <gpxtpx:TrackPointExtension xmlns:gpxtpx="http://www.garmin.com/xmlschemas/TrackPointExtension/v1">
            <gpxtpx:hr>141</gpxtpx:hr>
          </gpxtpx:TrackPointExtension>
        </extensions>
      </trkpt>
      <trkpt lat="46.56428" lon="0.2113">
        <ele>112.59999847412</ele>
        <time>2022-04-17T09:32:39Z</time>
        <extensions>
          <gpxtpx:TrackPointExtension xmlns:gpxtpx="http://www.garmin.com/xmlschemas/TrackPointExtension/v1">
            <gpxtpx:hr>141</gpxtpx:hr>
          </gpxtpx:TrackPointExtension>
        </extensions>
      </trkpt>
      <trkpt lat="46.56432" lon="0.21139">
        <ele>113.19999694824</ele>
        <time>2022-04-17T09:32:41Z</time>
        <extensions>
          <gpxtpx:TrackPointExtension xmlns:gpxtpx="http://www.garmin.com/xmlschemas/TrackPointExtension/v1">
            <gpxtpx:hr>141</gpxtpx:hr>
          </gpxtpx:TrackPointExtension>
        </extensions>
      </trkpt>
      <trkpt lat="46.56434" lon="0.2115">
        <ele>113.80000305176</ele>
        <time>2022-04-17T09:32:43Z</time>
        <extensions>
          <gpxtpx:TrackPointExtension xmlns:gpxtpx="http://www.garmin.com/xmlschemas/TrackPointExtension/v1">
            <gpxtpx:hr>140</gpxtpx:hr>
          </gpxtpx:TrackPointExtension>
        </extensions>
      </trkpt>
      <trkpt lat="46.56434" lon="0.2116">
        <ele>114.19999694824</ele>
        <time>2022-04-17T09:32:46Z</time>
        <extensions>
          <gpxtpx:TrackPointExtension xmlns:gpxtpx="http://www.garmin.com/xmlschemas/TrackPointExtension/v1">
            <gpxtpx:hr>139</gpxtpx:hr>
          </gpxtpx:TrackPointExtension>
        </extensions>
      </trkpt>
      <trkpt lat="46.56436" lon="0.21162">
        <ele>114.40000152588</ele>
        <time>2022-04-17T09:32:47Z</time>
        <extensions>
          <gpxtpx:TrackPointExtension xmlns:gpxtpx="http://www.garmin.com/xmlschemas/TrackPointExtension/v1">
            <gpxtpx:hr>140</gpxtpx:hr>
          </gpxtpx:TrackPointExtension>
        </extensions>
      </trkpt>
      <trkpt lat="46.56436" lon="0.21162">
        <ele>114.40000152588</ele>
        <time>2022-04-17T09:32:48Z</time>
        <extensions>
          <gpxtpx:TrackPointExtension xmlns:gpxtpx="http://www.garmin.com/xmlschemas/TrackPointExtension/v1">
            <gpxtpx:hr>141</gpxtpx:hr>
          </gpxtpx:TrackPointExtension>
        </extensions>
      </trkpt>
      <trkpt lat="46.56435" lon="0.2116">
        <ele>115.40000152588</ele>
        <time>2022-04-17T09:34:45Z</time>
        <extensions>
          <gpxtpx:TrackPointExtension xmlns:gpxtpx="http://www.garmin.com/xmlschemas/TrackPointExtension/v1">
            <gpxtpx:hr>124</gpxtpx:hr>
          </gpxtpx:TrackPointExtension>
        </extensions>
      </trkpt>
      <trkpt lat="46.56435" lon="0.21162">
        <ele>115.40000152588</ele>
        <time>2022-04-17T09:34:46Z</time>
        <extensions>
          <gpxtpx:TrackPointExtension xmlns:gpxtpx="http://www.garmin.com/xmlschemas/TrackPointExtension/v1">
            <gpxtpx:hr>125</gpxtpx:hr>
          </gpxtpx:TrackPointExtension>
        </extensions>
      </trkpt>
      <trkpt lat="46.5643" lon="0.2117">
        <ele>115.80000305176</ele>
        <time>2022-04-17T09:34:49Z</time>
        <extensions>
          <gpxtpx:TrackPointExtension xmlns:gpxtpx="http://www.garmin.com/xmlschemas/TrackPointExtension/v1">
            <gpxtpx:hr>122</gpxtpx:hr>
          </gpxtpx:TrackPointExtension>
        </extensions>
      </trkpt>
      <trkpt lat="46.56428" lon="0.21172">
        <ele>115.80000305176</ele>
        <time>2022-04-17T09:34:50Z</time>
        <extensions>
          <gpxtpx:TrackPointExtension xmlns:gpxtpx="http://www.garmin.com/xmlschemas/TrackPointExtension/v1">
            <gpxtpx:hr>121</gpxtpx:hr>
          </gpxtpx:TrackPointExtension>
        </extensions>
      </trkpt>
      <trkpt lat="46.56426" lon="0.21174">
        <ele>116</ele>
        <time>2022-04-17T09:34:51Z</time>
        <extensions>
          <gpxtpx:TrackPointExtension xmlns:gpxtpx="http://www.garmin.com/xmlschemas/TrackPointExtension/v1">
            <gpxtpx:hr>121</gpxtpx:hr>
          </gpxtpx:TrackPointExtension>
        </extensions>
      </trkpt>
      <trkpt lat="46.5641" lon="0.21195">
        <ele>116.59999847412</ele>
        <time>2022-04-17T09:34:58Z</time>
        <extensions>
          <gpxtpx:TrackPointExtension xmlns:gpxtpx="http://www.garmin.com/xmlschemas/TrackPointExtension/v1">
            <gpxtpx:hr>123</gpxtpx:hr>
          </gpxtpx:TrackPointExtension>
        </extensions>
      </trkpt>
      <trkpt lat="46.56407" lon="0.21199">
        <ele>116.80000305176</ele>
        <time>2022-04-17T09:34:59Z</time>
        <extensions>
          <gpxtpx:TrackPointExtension xmlns:gpxtpx="http://www.garmin.com/xmlschemas/TrackPointExtension/v1">
            <gpxtpx:hr>124</gpxtpx:hr>
          </gpxtpx:TrackPointExtension>
        </extensions>
      </trkpt>
      <trkpt lat="46.56404" lon="0.21203">
        <ele>117</ele>
        <time>2022-04-17T09:35:00Z</time>
        <extensions>
          <gpxtpx:TrackPointExtension xmlns:gpxtpx="http://www.garmin.com/xmlschemas/TrackPointExtension/v1">
            <gpxtpx:hr>125</gpxtpx:hr>
          </gpxtpx:TrackPointExtension>
        </extensions>
      </trkpt>
      <trkpt lat="46.56403" lon="0.21207">
        <ele>117.19999694824</ele>
        <time>2022-04-17T09:35:01Z</time>
        <extensions>
          <gpxtpx:TrackPointExtension xmlns:gpxtpx="http://www.garmin.com/xmlschemas/TrackPointExtension/v1">
            <gpxtpx:hr>126</gpxtpx:hr>
          </gpxtpx:TrackPointExtension>
        </extensions>
      </trkpt>
      <trkpt lat="46.564" lon="0.21212">
        <ele>117.19999694824</ele>
        <time>2022-04-17T09:35:02Z</time>
        <extensions>
          <gpxtpx:TrackPointExtension xmlns:gpxtpx="http://www.garmin.com/xmlschemas/TrackPointExtension/v1">
            <gpxtpx:hr>126</gpxtpx:hr>
          </gpxtpx:TrackPointExtension>
        </extensions>
      </trkpt>
      <trkpt lat="46.56399" lon="0.21215">
        <ele>117.40000152588</ele>
        <time>2022-04-17T09:35:03Z</time>
        <extensions>
          <gpxtpx:TrackPointExtension xmlns:gpxtpx="http://www.garmin.com/xmlschemas/TrackPointExtension/v1">
            <gpxtpx:hr>126</gpxtpx:hr>
          </gpxtpx:TrackPointExtension>
        </extensions>
      </trkpt>
      <trkpt lat="46.56395" lon="0.21219">
        <ele>117.59999847412</ele>
        <time>2022-04-17T09:35:05Z</time>
        <extensions>
          <gpxtpx:TrackPointExtension xmlns:gpxtpx="http://www.garmin.com/xmlschemas/TrackPointExtension/v1">
            <gpxtpx:hr>126</gpxtpx:hr>
          </gpxtpx:TrackPointExtension>
        </extensions>
      </trkpt>
      <trkpt lat="46.56394" lon="0.21222">
        <ele>117.59999847412</ele>
        <time>2022-04-17T09:35:06Z</time>
        <extensions>
          <gpxtpx:TrackPointExtension xmlns:gpxtpx="http://www.garmin.com/xmlschemas/TrackPointExtension/v1">
            <gpxtpx:hr>126</gpxtpx:hr>
          </gpxtpx:TrackPointExtension>
        </extensions>
      </trkpt>
      <trkpt lat="46.5639" lon="0.21227">
        <ele>117.80000305176</ele>
        <time>2022-04-17T09:35:08Z</time>
        <extensions>
          <gpxtpx:TrackPointExtension xmlns:gpxtpx="http://www.garmin.com/xmlschemas/TrackPointExtension/v1">
            <gpxtpx:hr>127</gpxtpx:hr>
          </gpxtpx:TrackPointExtension>
        </extensions>
      </trkpt>
      <trkpt lat="46.56389" lon="0.2123">
        <ele>117.80000305176</ele>
        <time>2022-04-17T09:35:09Z</time>
        <extensions>
          <gpxtpx:TrackPointExtension xmlns:gpxtpx="http://www.garmin.com/xmlschemas/TrackPointExtension/v1">
            <gpxtpx:hr>127</gpxtpx:hr>
          </gpxtpx:TrackPointExtension>
        </extensions>
      </trkpt>
      <trkpt lat="46.56386" lon="0.21234">
        <ele>118</ele>
        <time>2022-04-17T09:35:10Z</time>
        <extensions>
          <gpxtpx:TrackPointExtension xmlns:gpxtpx="http://www.garmin.com/xmlschemas/TrackPointExtension/v1">
            <gpxtpx:hr>127</gpxtpx:hr>
          </gpxtpx:TrackPointExtension>
        </extensions>
      </trkpt>
      <trkpt lat="46.56383" lon="0.21236">
        <ele>118</ele>
        <time>2022-04-17T09:35:11Z</time>
        <extensions>
          <gpxtpx:TrackPointExtension xmlns:gpxtpx="http://www.garmin.com/xmlschemas/TrackPointExtension/v1">
            <gpxtpx:hr>128</gpxtpx:hr>
          </gpxtpx:TrackPointExtension>
        </extensions>
      </trkpt>
      <trkpt lat="46.5638" lon="0.21237">
        <ele>118.40000152588</ele>
        <time>2022-04-17T09:35:12Z</time>
        <extensions>
          <gpxtpx:TrackPointExtension xmlns:gpxtpx="http://www.garmin.com/xmlschemas/TrackPointExtension/v1">
            <gpxtpx:hr>128</gpxtpx:hr>
          </gpxtpx:TrackPointExtension>
        </extensions>
      </trkpt>
      <trkpt lat="46.56377" lon="0.21239">
        <ele>118.59999847412</ele>
        <time>2022-04-17T09:35:13Z</time>
        <extensions>
          <gpxtpx:TrackPointExtension xmlns:gpxtpx="http://www.garmin.com/xmlschemas/TrackPointExtension/v1">
            <gpxtpx:hr>128</gpxtpx:hr>
          </gpxtpx:TrackPointExtension>
        </extensions>
      </trkpt>
      <trkpt lat="46.56376" lon="0.21242">
        <ele>118.59999847412</ele>
        <time>2022-04-17T09:35:14Z</time>
        <extensions>
          <gpxtpx:TrackPointExtension xmlns:gpxtpx="http://www.garmin.com/xmlschemas/TrackPointExtension/v1">
            <gpxtpx:hr>128</gpxtpx:hr>
          </gpxtpx:TrackPointExtension>
        </extensions>
      </trkpt>
      <trkpt lat="46.56374" lon="0.21244">
        <ele>118.80000305176</ele>
        <time>2022-04-17T09:35:15Z</time>
        <extensions>
          <gpxtpx:TrackPointExtension xmlns:gpxtpx="http://www.garmin.com/xmlschemas/TrackPointExtension/v1">
            <gpxtpx:hr>129</gpxtpx:hr>
          </gpxtpx:TrackPointExtension>
        </extensions>
      </trkpt>
      <trkpt lat="46.56373" lon="0.21248">
        <ele>119</ele>
        <time>2022-04-17T09:35:16Z</time>
        <extensions>
          <gpxtpx:TrackPointExtension xmlns:gpxtpx="http://www.garmin.com/xmlschemas/TrackPointExtension/v1">
            <gpxtpx:hr>130</gpxtpx:hr>
          </gpxtpx:TrackPointExtension>
        </extensions>
      </trkpt>
      <trkpt lat="46.56371" lon="0.21252">
        <ele>119</ele>
        <time>2022-04-17T09:35:17Z</time>
        <extensions>
          <gpxtpx:TrackPointExtension xmlns:gpxtpx="http://www.garmin.com/xmlschemas/TrackPointExtension/v1">
            <gpxtpx:hr>130</gpxtpx:hr>
          </gpxtpx:TrackPointExtension>
        </extensions>
      </trkpt>
      <trkpt lat="46.56368" lon="0.21256">
        <ele>119.19999694824</ele>
        <time>2022-04-17T09:35:18Z</time>
        <extensions>
          <gpxtpx:TrackPointExtension xmlns:gpxtpx="http://www.garmin.com/xmlschemas/TrackPointExtension/v1">
            <gpxtpx:hr>131</gpxtpx:hr>
          </gpxtpx:TrackPointExtension>
        </extensions>
      </trkpt>
      <trkpt lat="46.56366" lon="0.21258">
        <ele>119.40000152588</ele>
        <time>2022-04-17T09:35:19Z</time>
        <extensions>
          <gpxtpx:TrackPointExtension xmlns:gpxtpx="http://www.garmin.com/xmlschemas/TrackPointExtension/v1">
            <gpxtpx:hr>130</gpxtpx:hr>
          </gpxtpx:TrackPointExtension>
        </extensions>
      </trkpt>
      <trkpt lat="46.56365" lon="0.21261">
        <ele>119.40000152588</ele>
        <time>2022-04-17T09:35:20Z</time>
        <extensions>
          <gpxtpx:TrackPointExtension xmlns:gpxtpx="http://www.garmin.com/xmlschemas/TrackPointExtension/v1">
            <gpxtpx:hr>130</gpxtpx:hr>
          </gpxtpx:TrackPointExtension>
        </extensions>
      </trkpt>
      <trkpt lat="46.56364" lon="0.21266">
        <ele>119.59999847412</ele>
        <time>2022-04-17T09:35:21Z</time>
        <extensions>
          <gpxtpx:TrackPointExtension xmlns:gpxtpx="http://www.garmin.com/xmlschemas/TrackPointExtension/v1">
            <gpxtpx:hr>130</gpxtpx:hr>
          </gpxtpx:TrackPointExtension>
        </extensions>
      </trkpt>
      <trkpt lat="46.56363" lon="0.21271">
        <ele>119.80000305176</ele>
        <time>2022-04-17T09:35:22Z</time>
        <extensions>
          <gpxtpx:TrackPointExtension xmlns:gpxtpx="http://www.garmin.com/xmlschemas/TrackPointExtension/v1">
            <gpxtpx:hr>130</gpxtpx:hr>
          </gpxtpx:TrackPointExtension>
        </extensions>
      </trkpt>
      <trkpt lat="46.56363" lon="0.21275">
        <ele>120</ele>
        <time>2022-04-17T09:35:23Z</time>
        <extensions>
          <gpxtpx:TrackPointExtension xmlns:gpxtpx="http://www.garmin.com/xmlschemas/TrackPointExtension/v1">
            <gpxtpx:hr>130</gpxtpx:hr>
          </gpxtpx:TrackPointExtension>
        </extensions>
      </trkpt>
      <trkpt lat="46.56362" lon="0.21279">
        <ele>120</ele>
        <time>2022-04-17T09:35:24Z</time>
        <extensions>
          <gpxtpx:TrackPointExtension xmlns:gpxtpx="http://www.garmin.com/xmlschemas/TrackPointExtension/v1">
            <gpxtpx:hr>129</gpxtpx:hr>
          </gpxtpx:TrackPointExtension>
        </extensions>
      </trkpt>
      <trkpt lat="46.56358" lon="0.21284">
        <ele>120.19999694824</ele>
        <time>2022-04-17T09:35:25Z</time>
        <extensions>
          <gpxtpx:TrackPointExtension xmlns:gpxtpx="http://www.garmin.com/xmlschemas/TrackPointExtension/v1">
            <gpxtpx:hr>130</gpxtpx:hr>
          </gpxtpx:TrackPointExtension>
        </extensions>
      </trkpt>
      <trkpt lat="46.56358" lon="0.21287">
        <ele>120.40000152588</ele>
        <time>2022-04-17T09:35:26Z</time>
        <extensions>
          <gpxtpx:TrackPointExtension xmlns:gpxtpx="http://www.garmin.com/xmlschemas/TrackPointExtension/v1">
            <gpxtpx:hr>130</gpxtpx:hr>
          </gpxtpx:TrackPointExtension>
        </extensions>
      </trkpt>
      <trkpt lat="46.56358" lon="0.21289">
        <ele>120.59999847412</ele>
        <time>2022-04-17T09:35:27Z</time>
        <extensions>
          <gpxtpx:TrackPointExtension xmlns:gpxtpx="http://www.garmin.com/xmlschemas/TrackPointExtension/v1">
            <gpxtpx:hr>130</gpxtpx:hr>
          </gpxtpx:TrackPointExtension>
        </extensions>
      </trkpt>
      <trkpt lat="46.56358" lon="0.21292">
        <ele>120.59999847412</ele>
        <time>2022-04-17T09:35:28Z</time>
        <extensions>
          <gpxtpx:TrackPointExtension xmlns:gpxtpx="http://www.garmin.com/xmlschemas/TrackPointExtension/v1">
            <gpxtpx:hr>129</gpxtpx:hr>
          </gpxtpx:TrackPointExtension>
        </extensions>
      </trkpt>
      <trkpt lat="46.56358" lon="0.21295">
        <ele>120.80000305176</ele>
        <time>2022-04-17T09:35:29Z</time>
        <extensions>
          <gpxtpx:TrackPointExtension xmlns:gpxtpx="http://www.garmin.com/xmlschemas/TrackPointExtension/v1">
            <gpxtpx:hr>130</gpxtpx:hr>
          </gpxtpx:TrackPointExtension>
        </extensions>
      </trkpt>
      <trkpt lat="46.56358" lon="0.21298">
        <ele>121</ele>
        <time>2022-04-17T09:35:30Z</time>
        <extensions>
          <gpxtpx:TrackPointExtension xmlns:gpxtpx="http://www.garmin.com/xmlschemas/TrackPointExtension/v1">
            <gpxtpx:hr>129</gpxtpx:hr>
          </gpxtpx:TrackPointExtension>
        </extensions>
      </trkpt>
      <trkpt lat="46.56358" lon="0.21303">
        <ele>121</ele>
        <time>2022-04-17T09:35:31Z</time>
        <extensions>
          <gpxtpx:TrackPointExtension xmlns:gpxtpx="http://www.garmin.com/xmlschemas/TrackPointExtension/v1">
            <gpxtpx:hr>129</gpxtpx:hr>
          </gpxtpx:TrackPointExtension>
        </extensions>
      </trkpt>
      <trkpt lat="46.56357" lon="0.21308">
        <ele>121.19999694824</ele>
        <time>2022-04-17T09:35:32Z</time>
        <extensions>
          <gpxtpx:TrackPointExtension xmlns:gpxtpx="http://www.garmin.com/xmlschemas/TrackPointExtension/v1">
            <gpxtpx:hr>129</gpxtpx:hr>
          </gpxtpx:TrackPointExtension>
        </extensions>
      </trkpt>
      <trkpt lat="46.56356" lon="0.21311">
        <ele>121.40000152588</ele>
        <time>2022-04-17T09:35:33Z</time>
        <extensions>
          <gpxtpx:TrackPointExtension xmlns:gpxtpx="http://www.garmin.com/xmlschemas/TrackPointExtension/v1">
            <gpxtpx:hr>129</gpxtpx:hr>
          </gpxtpx:TrackPointExtension>
        </extensions>
      </trkpt>
      <trkpt lat="46.56356" lon="0.21315">
        <ele>121.40000152588</ele>
        <time>2022-04-17T09:35:34Z</time>
        <extensions>
          <gpxtpx:TrackPointExtension xmlns:gpxtpx="http://www.garmin.com/xmlschemas/TrackPointExtension/v1">
            <gpxtpx:hr>128</gpxtpx:hr>
          </gpxtpx:TrackPointExtension>
        </extensions>
      </trkpt>
      <trkpt lat="46.56355" lon="0.21318">
        <ele>121.59999847412</ele>
        <time>2022-04-17T09:35:35Z</time>
        <extensions>
          <gpxtpx:TrackPointExtension xmlns:gpxtpx="http://www.garmin.com/xmlschemas/TrackPointExtension/v1">
            <gpxtpx:hr>128</gpxtpx:hr>
          </gpxtpx:TrackPointExtension>
        </extensions>
      </trkpt>
      <trkpt lat="46.56356" lon="0.21322">
        <ele>121.80000305176</ele>
        <time>2022-04-17T09:35:36Z</time>
        <extensions>
          <gpxtpx:TrackPointExtension xmlns:gpxtpx="http://www.garmin.com/xmlschemas/TrackPointExtension/v1">
            <gpxtpx:hr>129</gpxtpx:hr>
          </gpxtpx:TrackPointExtension>
        </extensions>
      </trkpt>
      <trkpt lat="46.56356" lon="0.21326">
        <ele>122</ele>
        <time>2022-04-17T09:35:37Z</time>
        <extensions>
          <gpxtpx:TrackPointExtension xmlns:gpxtpx="http://www.garmin.com/xmlschemas/TrackPointExtension/v1">
            <gpxtpx:hr>130</gpxtpx:hr>
          </gpxtpx:TrackPointExtension>
        </extensions>
      </trkpt>
      <trkpt lat="46.56356" lon="0.2133">
        <ele>122</ele>
        <time>2022-04-17T09:35:38Z</time>
        <extensions>
          <gpxtpx:TrackPointExtension xmlns:gpxtpx="http://www.garmin.com/xmlschemas/TrackPointExtension/v1">
            <gpxtpx:hr>130</gpxtpx:hr>
          </gpxtpx:TrackPointExtension>
        </extensions>
      </trkpt>
      <trkpt lat="46.56356" lon="0.21335">
        <ele>122.40000152588</ele>
        <time>2022-04-17T09:35:39Z</time>
        <extensions>
          <gpxtpx:TrackPointExtension xmlns:gpxtpx="http://www.garmin.com/xmlschemas/TrackPointExtension/v1">
            <gpxtpx:hr>130</gpxtpx:hr>
          </gpxtpx:TrackPointExtension>
        </extensions>
      </trkpt>
      <trkpt lat="46.56355" lon="0.21339">
        <ele>122.40000152588</ele>
        <time>2022-04-17T09:35:40Z</time>
        <extensions>
          <gpxtpx:TrackPointExtension xmlns:gpxtpx="http://www.garmin.com/xmlschemas/TrackPointExtension/v1">
            <gpxtpx:hr>130</gpxtpx:hr>
          </gpxtpx:TrackPointExtension>
        </extensions>
      </trkpt>
      <trkpt lat="46.56356" lon="0.21342">
        <ele>122.59999847412</ele>
        <time>2022-04-17T09:35:41Z</time>
        <extensions>
          <gpxtpx:TrackPointExtension xmlns:gpxtpx="http://www.garmin.com/xmlschemas/TrackPointExtension/v1">
            <gpxtpx:hr>130</gpxtpx:hr>
          </gpxtpx:TrackPointExtension>
        </extensions>
      </trkpt>
      <trkpt lat="46.56356" lon="0.21347">
        <ele>122.80000305176</ele>
        <time>2022-04-17T09:35:42Z</time>
        <extensions>
          <gpxtpx:TrackPointExtension xmlns:gpxtpx="http://www.garmin.com/xmlschemas/TrackPointExtension/v1">
            <gpxtpx:hr>130</gpxtpx:hr>
          </gpxtpx:TrackPointExtension>
        </extensions>
      </trkpt>
      <trkpt lat="46.56356" lon="0.21351">
        <ele>123.19999694824</ele>
        <time>2022-04-17T09:35:43Z</time>
        <extensions>
          <gpxtpx:TrackPointExtension xmlns:gpxtpx="http://www.garmin.com/xmlschemas/TrackPointExtension/v1">
            <gpxtpx:hr>130</gpxtpx:hr>
          </gpxtpx:TrackPointExtension>
        </extensions>
      </trkpt>
      <trkpt lat="46.56355" lon="0.21355">
        <ele>123.40000152588</ele>
        <time>2022-04-17T09:35:44Z</time>
        <extensions>
          <gpxtpx:TrackPointExtension xmlns:gpxtpx="http://www.garmin.com/xmlschemas/TrackPointExtension/v1">
            <gpxtpx:hr>128</gpxtpx:hr>
          </gpxtpx:TrackPointExtension>
        </extensions>
      </trkpt>
      <trkpt lat="46.56355" lon="0.21358">
        <ele>123.40000152588</ele>
        <time>2022-04-17T09:35:45Z</time>
        <extensions>
          <gpxtpx:TrackPointExtension xmlns:gpxtpx="http://www.garmin.com/xmlschemas/TrackPointExtension/v1">
            <gpxtpx:hr>127</gpxtpx:hr>
          </gpxtpx:TrackPointExtension>
        </extensions>
      </trkpt>
      <trkpt lat="46.56354" lon="0.21362">
        <ele>123.59999847412</ele>
        <time>2022-04-17T09:35:46Z</time>
        <extensions>
          <gpxtpx:TrackPointExtension xmlns:gpxtpx="http://www.garmin.com/xmlschemas/TrackPointExtension/v1">
            <gpxtpx:hr>127</gpxtpx:hr>
          </gpxtpx:TrackPointExtension>
        </extensions>
      </trkpt>
      <trkpt lat="46.56353" lon="0.21366">
        <ele>123.80000305176</ele>
        <time>2022-04-17T09:35:47Z</time>
        <extensions>
          <gpxtpx:TrackPointExtension xmlns:gpxtpx="http://www.garmin.com/xmlschemas/TrackPointExtension/v1">
            <gpxtpx:hr>127</gpxtpx:hr>
          </gpxtpx:TrackPointExtension>
        </extensions>
      </trkpt>
      <trkpt lat="46.56353" lon="0.21369">
        <ele>123.80000305176</ele>
        <time>2022-04-17T09:35:48Z</time>
        <extensions>
          <gpxtpx:TrackPointExtension xmlns:gpxtpx="http://www.garmin.com/xmlschemas/TrackPointExtension/v1">
            <gpxtpx:hr>126</gpxtpx:hr>
          </gpxtpx:TrackPointExtension>
        </extensions>
      </trkpt>
      <trkpt lat="46.56351" lon="0.21373">
        <ele>124</ele>
        <time>2022-04-17T09:35:49Z</time>
        <extensions>
          <gpxtpx:TrackPointExtension xmlns:gpxtpx="http://www.garmin.com/xmlschemas/TrackPointExtension/v1">
            <gpxtpx:hr>126</gpxtpx:hr>
          </gpxtpx:TrackPointExtension>
        </extensions>
      </trkpt>
      <trkpt lat="46.56349" lon="0.21378">
        <ele>124.19999694824</ele>
        <time>2022-04-17T09:35:50Z</time>
        <extensions>
          <gpxtpx:TrackPointExtension xmlns:gpxtpx="http://www.garmin.com/xmlschemas/TrackPointExtension/v1">
            <gpxtpx:hr>126</gpxtpx:hr>
          </gpxtpx:TrackPointExtension>
        </extensions>
      </trkpt>
      <trkpt lat="46.56348" lon="0.21381">
        <ele>124.40000152588</ele>
        <time>2022-04-17T09:35:51Z</time>
        <extensions>
          <gpxtpx:TrackPointExtension xmlns:gpxtpx="http://www.garmin.com/xmlschemas/TrackPointExtension/v1">
            <gpxtpx:hr>126</gpxtpx:hr>
          </gpxtpx:TrackPointExtension>
        </extensions>
      </trkpt>
      <trkpt lat="46.56347" lon="0.21386">
        <ele>124.59999847412</ele>
        <time>2022-04-17T09:35:52Z</time>
        <extensions>
          <gpxtpx:TrackPointExtension xmlns:gpxtpx="http://www.garmin.com/xmlschemas/TrackPointExtension/v1">
            <gpxtpx:hr>126</gpxtpx:hr>
          </gpxtpx:TrackPointExtension>
        </extensions>
      </trkpt>
      <trkpt lat="46.56346" lon="0.2139">
        <ele>124.80000305176</ele>
        <time>2022-04-17T09:35:53Z</time>
        <extensions>
          <gpxtpx:TrackPointExtension xmlns:gpxtpx="http://www.garmin.com/xmlschemas/TrackPointExtension/v1">
            <gpxtpx:hr>127</gpxtpx:hr>
          </gpxtpx:TrackPointExtension>
        </extensions>
      </trkpt>
      <trkpt lat="46.56345" lon="0.21394">
        <ele>125</ele>
        <time>2022-04-17T09:35:54Z</time>
        <extensions>
          <gpxtpx:TrackPointExtension xmlns:gpxtpx="http://www.garmin.com/xmlschemas/TrackPointExtension/v1">
            <gpxtpx:hr>128</gpxtpx:hr>
          </gpxtpx:TrackPointExtension>
        </extensions>
      </trkpt>
      <trkpt lat="46.56342" lon="0.21398">
        <ele>125.19999694824</ele>
        <time>2022-04-17T09:35:55Z</time>
        <extensions>
          <gpxtpx:TrackPointExtension xmlns:gpxtpx="http://www.garmin.com/xmlschemas/TrackPointExtension/v1">
            <gpxtpx:hr>129</gpxtpx:hr>
          </gpxtpx:TrackPointExtension>
        </extensions>
      </trkpt>
      <trkpt lat="46.5634" lon="0.214">
        <ele>125.19999694824</ele>
        <time>2022-04-17T09:35:56Z</time>
        <extensions>
          <gpxtpx:TrackPointExtension xmlns:gpxtpx="http://www.garmin.com/xmlschemas/TrackPointExtension/v1">
            <gpxtpx:hr>131</gpxtpx:hr>
          </gpxtpx:TrackPointExtension>
        </extensions>
      </trkpt>
      <trkpt lat="46.56339" lon="0.21402">
        <ele>125.40000152588</ele>
        <time>2022-04-17T09:35:57Z</time>
        <extensions>
          <gpxtpx:TrackPointExtension xmlns:gpxtpx="http://www.garmin.com/xmlschemas/TrackPointExtension/v1">
            <gpxtpx:hr>132</gpxtpx:hr>
          </gpxtpx:TrackPointExtension>
        </extensions>
      </trkpt>
      <trkpt lat="46.56338" lon="0.21405">
        <ele>125.80000305176</ele>
        <time>2022-04-17T09:35:58Z</time>
        <extensions>
          <gpxtpx:TrackPointExtension xmlns:gpxtpx="http://www.garmin.com/xmlschemas/TrackPointExtension/v1">
            <gpxtpx:hr>132</gpxtpx:hr>
          </gpxtpx:TrackPointExtension>
        </extensions>
      </trkpt>
      <trkpt lat="46.56337" lon="0.21411">
        <ele>126</ele>
        <time>2022-04-17T09:35:59Z</time>
        <extensions>
          <gpxtpx:TrackPointExtension xmlns:gpxtpx="http://www.garmin.com/xmlschemas/TrackPointExtension/v1">
            <gpxtpx:hr>133</gpxtpx:hr>
          </gpxtpx:TrackPointExtension>
        </extensions>
      </trkpt>
      <trkpt lat="46.56335" lon="0.21415">
        <ele>126.19999694824</ele>
        <time>2022-04-17T09:36:00Z</time>
        <extensions>
          <gpxtpx:TrackPointExtension xmlns:gpxtpx="http://www.garmin.com/xmlschemas/TrackPointExtension/v1">
            <gpxtpx:hr>133</gpxtpx:hr>
          </gpxtpx:TrackPointExtension>
        </extensions>
      </trkpt>
      <trkpt lat="46.56334" lon="0.21417">
        <ele>126.40000152588</ele>
        <time>2022-04-17T09:36:01Z</time>
        <extensions>
          <gpxtpx:TrackPointExtension xmlns:gpxtpx="http://www.garmin.com/xmlschemas/TrackPointExtension/v1">
            <gpxtpx:hr>133</gpxtpx:hr>
          </gpxtpx:TrackPointExtension>
        </extensions>
      </trkpt>
      <trkpt lat="46.56333" lon="0.2142">
        <ele>126.59999847412</ele>
        <time>2022-04-17T09:36:02Z</time>
        <extensions>
          <gpxtpx:TrackPointExtension xmlns:gpxtpx="http://www.garmin.com/xmlschemas/TrackPointExtension/v1">
            <gpxtpx:hr>134</gpxtpx:hr>
          </gpxtpx:TrackPointExtension>
        </extensions>
      </trkpt>
      <trkpt lat="46.5633" lon="0.21424">
        <ele>126.59999847412</ele>
        <time>2022-04-17T09:36:03Z</time>
        <extensions>
          <gpxtpx:TrackPointExtension xmlns:gpxtpx="http://www.garmin.com/xmlschemas/TrackPointExtension/v1">
            <gpxtpx:hr>134</gpxtpx:hr>
          </gpxtpx:TrackPointExtension>
        </extensions>
      </trkpt>
      <trkpt lat="46.56328" lon="0.21427">
        <ele>126.80000305176</ele>
        <time>2022-04-17T09:36:04Z</time>
        <extensions>
          <gpxtpx:TrackPointExtension xmlns:gpxtpx="http://www.garmin.com/xmlschemas/TrackPointExtension/v1">
            <gpxtpx:hr>134</gpxtpx:hr>
          </gpxtpx:TrackPointExtension>
        </extensions>
      </trkpt>
      <trkpt lat="46.56326" lon="0.21431">
        <ele>127</ele>
        <time>2022-04-17T09:36:05Z</time>
        <extensions>
          <gpxtpx:TrackPointExtension xmlns:gpxtpx="http://www.garmin.com/xmlschemas/TrackPointExtension/v1">
            <gpxtpx:hr>134</gpxtpx:hr>
          </gpxtpx:TrackPointExtension>
        </extensions>
      </trkpt>
      <trkpt lat="46.56322" lon="0.21435">
        <ele>127.19999694824</ele>
        <time>2022-04-17T09:36:06Z</time>
        <extensions>
          <gpxtpx:TrackPointExtension xmlns:gpxtpx="http://www.garmin.com/xmlschemas/TrackPointExtension/v1">
            <gpxtpx:hr>134</gpxtpx:hr>
          </gpxtpx:TrackPointExtension>
        </extensions>
      </trkpt>
      <trkpt lat="46.56319" lon="0.21438">
        <ele>127.40000152588</ele>
        <time>2022-04-17T09:36:07Z</time>
        <extensions>
          <gpxtpx:TrackPointExtension xmlns:gpxtpx="http://www.garmin.com/xmlschemas/TrackPointExtension/v1">
            <gpxtpx:hr>134</gpxtpx:hr>
          </gpxtpx:TrackPointExtension>
        </extensions>
      </trkpt>
      <trkpt lat="46.56317" lon="0.21443">
        <ele>127.40000152588</ele>
        <time>2022-04-17T09:36:08Z</time>
        <extensions>
          <gpxtpx:TrackPointExtension xmlns:gpxtpx="http://www.garmin.com/xmlschemas/TrackPointExtension/v1">
            <gpxtpx:hr>133</gpxtpx:hr>
          </gpxtpx:TrackPointExtension>
        </extensions>
      </trkpt>
      <trkpt lat="46.56315" lon="0.21447">
        <ele>127.59999847412</ele>
        <time>2022-04-17T09:36:09Z</time>
        <extensions>
          <gpxtpx:TrackPointExtension xmlns:gpxtpx="http://www.garmin.com/xmlschemas/TrackPointExtension/v1">
            <gpxtpx:hr>133</gpxtpx:hr>
          </gpxtpx:TrackPointExtension>
        </extensions>
      </trkpt>
      <trkpt lat="46.56312" lon="0.2145">
        <ele>127.80000305176</ele>
        <time>2022-04-17T09:36:10Z</time>
        <extensions>
          <gpxtpx:TrackPointExtension xmlns:gpxtpx="http://www.garmin.com/xmlschemas/TrackPointExtension/v1">
            <gpxtpx:hr>133</gpxtpx:hr>
          </gpxtpx:TrackPointExtension>
        </extensions>
      </trkpt>
      <trkpt lat="46.56311" lon="0.21453">
        <ele>128.19999694824</ele>
        <time>2022-04-17T09:36:11Z</time>
        <extensions>
          <gpxtpx:TrackPointExtension xmlns:gpxtpx="http://www.garmin.com/xmlschemas/TrackPointExtension/v1">
            <gpxtpx:hr>133</gpxtpx:hr>
          </gpxtpx:TrackPointExtension>
        </extensions>
      </trkpt>
      <trkpt lat="46.56311" lon="0.21454">
        <ele>129.19999694824</ele>
        <time>2022-04-17T09:36:32Z</time>
        <extensions>
          <gpxtpx:TrackPointExtension xmlns:gpxtpx="http://www.garmin.com/xmlschemas/TrackPointExtension/v1">
            <gpxtpx:hr>132</gpxtpx:hr>
          </gpxtpx:TrackPointExtension>
        </extensions>
      </trkpt>
      <trkpt lat="46.56309" lon="0.21455">
        <ele>129.19999694824</ele>
        <time>2022-04-17T09:36:33Z</time>
        <extensions>
          <gpxtpx:TrackPointExtension xmlns:gpxtpx="http://www.garmin.com/xmlschemas/TrackPointExtension/v1">
            <gpxtpx:hr>132</gpxtpx:hr>
          </gpxtpx:TrackPointExtension>
        </extensions>
      </trkpt>
      <trkpt lat="46.56307" lon="0.21456">
        <ele>129.60000610352</ele>
        <time>2022-04-17T09:36:34Z</time>
        <extensions>
          <gpxtpx:TrackPointExtension xmlns:gpxtpx="http://www.garmin.com/xmlschemas/TrackPointExtension/v1">
            <gpxtpx:hr>131</gpxtpx:hr>
          </gpxtpx:TrackPointExtension>
        </extensions>
      </trkpt>
      <trkpt lat="46.56306" lon="0.21457">
        <ele>129.60000610352</ele>
        <time>2022-04-17T09:36:35Z</time>
        <extensions>
          <gpxtpx:TrackPointExtension xmlns:gpxtpx="http://www.garmin.com/xmlschemas/TrackPointExtension/v1">
            <gpxtpx:hr>130</gpxtpx:hr>
          </gpxtpx:TrackPointExtension>
        </extensions>
      </trkpt>
      <trkpt lat="46.56303" lon="0.21457">
        <ele>129.60000610352</ele>
        <time>2022-04-17T09:36:36Z</time>
        <extensions>
          <gpxtpx:TrackPointExtension xmlns:gpxtpx="http://www.garmin.com/xmlschemas/TrackPointExtension/v1">
            <gpxtpx:hr>130</gpxtpx:hr>
          </gpxtpx:TrackPointExtension>
        </extensions>
      </trkpt>
      <trkpt lat="46.56302" lon="0.21457">
        <ele>129.39999389648</ele>
        <time>2022-04-17T09:36:37Z</time>
        <extensions>
          <gpxtpx:TrackPointExtension xmlns:gpxtpx="http://www.garmin.com/xmlschemas/TrackPointExtension/v1">
            <gpxtpx:hr>130</gpxtpx:hr>
          </gpxtpx:TrackPointExtension>
        </extensions>
      </trkpt>
      <trkpt lat="46.563" lon="0.21458">
        <ele>129.80000305176</ele>
        <time>2022-04-17T09:36:38Z</time>
        <extensions>
          <gpxtpx:TrackPointExtension xmlns:gpxtpx="http://www.garmin.com/xmlschemas/TrackPointExtension/v1">
            <gpxtpx:hr>130</gpxtpx:hr>
          </gpxtpx:TrackPointExtension>
        </extensions>
      </trkpt>
      <trkpt lat="46.56298" lon="0.21458">
        <ele>130.39999389648</ele>
        <time>2022-04-17T09:36:39Z</time>
        <extensions>
          <gpxtpx:TrackPointExtension xmlns:gpxtpx="http://www.garmin.com/xmlschemas/TrackPointExtension/v1">
            <gpxtpx:hr>130</gpxtpx:hr>
          </gpxtpx:TrackPointExtension>
        </extensions>
      </trkpt>
      <trkpt lat="46.56296" lon="0.21459">
        <ele>130.60000610352</ele>
        <time>2022-04-17T09:36:40Z</time>
        <extensions>
          <gpxtpx:TrackPointExtension xmlns:gpxtpx="http://www.garmin.com/xmlschemas/TrackPointExtension/v1">
            <gpxtpx:hr>129</gpxtpx:hr>
          </gpxtpx:TrackPointExtension>
        </extensions>
      </trkpt>
      <trkpt lat="46.56295" lon="0.21459">
        <ele>131.19999694824</ele>
        <time>2022-04-17T09:36:41Z</time>
        <extensions>
          <gpxtpx:TrackPointExtension xmlns:gpxtpx="http://www.garmin.com/xmlschemas/TrackPointExtension/v1">
            <gpxtpx:hr>127</gpxtpx:hr>
          </gpxtpx:TrackPointExtension>
        </extensions>
      </trkpt>
      <trkpt lat="46.56293" lon="0.21459">
        <ele>131.19999694824</ele>
        <time>2022-04-17T09:36:42Z</time>
        <extensions>
          <gpxtpx:TrackPointExtension xmlns:gpxtpx="http://www.garmin.com/xmlschemas/TrackPointExtension/v1">
            <gpxtpx:hr>129</gpxtpx:hr>
          </gpxtpx:TrackPointExtension>
        </extensions>
      </trkpt>
      <trkpt lat="46.56287" lon="0.21461">
        <ele>132.39999389648</ele>
        <time>2022-04-17T09:36:45Z</time>
        <extensions>
          <gpxtpx:TrackPointExtension xmlns:gpxtpx="http://www.garmin.com/xmlschemas/TrackPointExtension/v1">
            <gpxtpx:hr>128</gpxtpx:hr>
          </gpxtpx:TrackPointExtension>
        </extensions>
      </trkpt>
      <trkpt lat="46.56285" lon="0.21462">
        <ele>132.80000305176</ele>
        <time>2022-04-17T09:36:46Z</time>
        <extensions>
          <gpxtpx:TrackPointExtension xmlns:gpxtpx="http://www.garmin.com/xmlschemas/TrackPointExtension/v1">
            <gpxtpx:hr>129</gpxtpx:hr>
          </gpxtpx:TrackPointExtension>
        </extensions>
      </trkpt>
      <trkpt lat="46.56284" lon="0.21462">
        <ele>133</ele>
        <time>2022-04-17T09:36:47Z</time>
        <extensions>
          <gpxtpx:TrackPointExtension xmlns:gpxtpx="http://www.garmin.com/xmlschemas/TrackPointExtension/v1">
            <gpxtpx:hr>131</gpxtpx:hr>
          </gpxtpx:TrackPointExtension>
        </extensions>
      </trkpt>
      <trkpt lat="46.56282" lon="0.21463">
        <ele>133.39999389648</ele>
        <time>2022-04-17T09:36:48Z</time>
        <extensions>
          <gpxtpx:TrackPointExtension xmlns:gpxtpx="http://www.garmin.com/xmlschemas/TrackPointExtension/v1">
            <gpxtpx:hr>131</gpxtpx:hr>
          </gpxtpx:TrackPointExtension>
        </extensions>
      </trkpt>
      <trkpt lat="46.5628" lon="0.21463">
        <ele>133.60000610352</ele>
        <time>2022-04-17T09:36:49Z</time>
        <extensions>
          <gpxtpx:TrackPointExtension xmlns:gpxtpx="http://www.garmin.com/xmlschemas/TrackPointExtension/v1">
            <gpxtpx:hr>132</gpxtpx:hr>
          </gpxtpx:TrackPointExtension>
        </extensions>
      </trkpt>
      <trkpt lat="46.5628" lon="0.21463">
        <ele>134</ele>
        <time>2022-04-17T09:36:50Z</time>
        <extensions>
          <gpxtpx:TrackPointExtension xmlns:gpxtpx="http://www.garmin.com/xmlschemas/TrackPointExtension/v1">
            <gpxtpx:hr>133</gpxtpx:hr>
          </gpxtpx:TrackPointExtension>
        </extensions>
      </trkpt>
      <trkpt lat="46.56279" lon="0.21464">
        <ele>134</ele>
        <time>2022-04-17T09:36:51Z</time>
        <extensions>
          <gpxtpx:TrackPointExtension xmlns:gpxtpx="http://www.garmin.com/xmlschemas/TrackPointExtension/v1">
            <gpxtpx:hr>133</gpxtpx:hr>
          </gpxtpx:TrackPointExtension>
        </extensions>
      </trkpt>
      <trkpt lat="46.56278" lon="0.21464">
        <ele>134.19999694824</ele>
        <time>2022-04-17T09:36:52Z</time>
        <extensions>
          <gpxtpx:TrackPointExtension xmlns:gpxtpx="http://www.garmin.com/xmlschemas/TrackPointExtension/v1">
            <gpxtpx:hr>135</gpxtpx:hr>
          </gpxtpx:TrackPointExtension>
        </extensions>
      </trkpt>
      <trkpt lat="46.56277" lon="0.21464">
        <ele>134.39999389648</ele>
        <time>2022-04-17T09:36:53Z</time>
        <extensions>
          <gpxtpx:TrackPointExtension xmlns:gpxtpx="http://www.garmin.com/xmlschemas/TrackPointExtension/v1">
            <gpxtpx:hr>136</gpxtpx:hr>
          </gpxtpx:TrackPointExtension>
        </extensions>
      </trkpt>
      <trkpt lat="46.56275" lon="0.21464">
        <ele>134.39999389648</ele>
        <time>2022-04-17T09:36:54Z</time>
        <extensions>
          <gpxtpx:TrackPointExtension xmlns:gpxtpx="http://www.garmin.com/xmlschemas/TrackPointExtension/v1">
            <gpxtpx:hr>137</gpxtpx:hr>
          </gpxtpx:TrackPointExtension>
        </extensions>
      </trkpt>
      <trkpt lat="46.56273" lon="0.21463">
        <ele>135</ele>
        <time>2022-04-17T09:36:55Z</time>
        <extensions>
          <gpxtpx:TrackPointExtension xmlns:gpxtpx="http://www.garmin.com/xmlschemas/TrackPointExtension/v1">
            <gpxtpx:hr>138</gpxtpx:hr>
          </gpxtpx:TrackPointExtension>
        </extensions>
      </trkpt>
      <trkpt lat="46.56271" lon="0.21463">
        <ele>135.19999694824</ele>
        <time>2022-04-17T09:36:56Z</time>
        <extensions>
          <gpxtpx:TrackPointExtension xmlns:gpxtpx="http://www.garmin.com/xmlschemas/TrackPointExtension/v1">
            <gpxtpx:hr>138</gpxtpx:hr>
          </gpxtpx:TrackPointExtension>
        </extensions>
      </trkpt>
      <trkpt lat="46.56269" lon="0.21463">
        <ele>135.80000305176</ele>
        <time>2022-04-17T09:36:57Z</time>
        <extensions>
          <gpxtpx:TrackPointExtension xmlns:gpxtpx="http://www.garmin.com/xmlschemas/TrackPointExtension/v1">
            <gpxtpx:hr>138</gpxtpx:hr>
          </gpxtpx:TrackPointExtension>
        </extensions>
      </trkpt>
      <trkpt lat="46.56268" lon="0.21462">
        <ele>136</ele>
        <time>2022-04-17T09:36:58Z</time>
        <extensions>
          <gpxtpx:TrackPointExtension xmlns:gpxtpx="http://www.garmin.com/xmlschemas/TrackPointExtension/v1">
            <gpxtpx:hr>138</gpxtpx:hr>
          </gpxtpx:TrackPointExtension>
        </extensions>
      </trkpt>
      <trkpt lat="46.56267" lon="0.21462">
        <ele>136.19999694824</ele>
        <time>2022-04-17T09:36:59Z</time>
        <extensions>
          <gpxtpx:TrackPointExtension xmlns:gpxtpx="http://www.garmin.com/xmlschemas/TrackPointExtension/v1">
            <gpxtpx:hr>139</gpxtpx:hr>
          </gpxtpx:TrackPointExtension>
        </extensions>
      </trkpt>
      <trkpt lat="46.56264" lon="0.21462">
        <ele>136.39999389648</ele>
        <time>2022-04-17T09:37:00Z</time>
        <extensions>
          <gpxtpx:TrackPointExtension xmlns:gpxtpx="http://www.garmin.com/xmlschemas/TrackPointExtension/v1">
            <gpxtpx:hr>140</gpxtpx:hr>
          </gpxtpx:TrackPointExtension>
        </extensions>
      </trkpt>
      <trkpt lat="46.56263" lon="0.21462">
        <ele>136.60000610352</ele>
        <time>2022-04-17T09:37:01Z</time>
        <extensions>
          <gpxtpx:TrackPointExtension xmlns:gpxtpx="http://www.garmin.com/xmlschemas/TrackPointExtension/v1">
            <gpxtpx:hr>140</gpxtpx:hr>
          </gpxtpx:TrackPointExtension>
        </extensions>
      </trkpt>
      <trkpt lat="46.56262" lon="0.21461">
        <ele>137</ele>
        <time>2022-04-17T09:37:02Z</time>
        <extensions>
          <gpxtpx:TrackPointExtension xmlns:gpxtpx="http://www.garmin.com/xmlschemas/TrackPointExtension/v1">
            <gpxtpx:hr>140</gpxtpx:hr>
          </gpxtpx:TrackPointExtension>
        </extensions>
      </trkpt>
      <trkpt lat="46.56259" lon="0.2146">
        <ele>137</ele>
        <time>2022-04-17T09:37:03Z</time>
        <extensions>
          <gpxtpx:TrackPointExtension xmlns:gpxtpx="http://www.garmin.com/xmlschemas/TrackPointExtension/v1">
            <gpxtpx:hr>140</gpxtpx:hr>
          </gpxtpx:TrackPointExtension>
        </extensions>
      </trkpt>
      <trkpt lat="46.56258" lon="0.21459">
        <ele>137.80000305176</ele>
        <time>2022-04-17T09:37:04Z</time>
        <extensions>
          <gpxtpx:TrackPointExtension xmlns:gpxtpx="http://www.garmin.com/xmlschemas/TrackPointExtension/v1">
            <gpxtpx:hr>140</gpxtpx:hr>
          </gpxtpx:TrackPointExtension>
        </extensions>
      </trkpt>
      <trkpt lat="46.56256" lon="0.21458">
        <ele>137.80000305176</ele>
        <time>2022-04-17T09:37:05Z</time>
        <extensions>
          <gpxtpx:TrackPointExtension xmlns:gpxtpx="http://www.garmin.com/xmlschemas/TrackPointExtension/v1">
            <gpxtpx:hr>141</gpxtpx:hr>
          </gpxtpx:TrackPointExtension>
        </extensions>
      </trkpt>
      <trkpt lat="46.56253" lon="0.21458">
        <ele>138.19999694824</ele>
        <time>2022-04-17T09:37:06Z</time>
        <extensions>
          <gpxtpx:TrackPointExtension xmlns:gpxtpx="http://www.garmin.com/xmlschemas/TrackPointExtension/v1">
            <gpxtpx:hr>141</gpxtpx:hr>
          </gpxtpx:TrackPointExtension>
        </extensions>
      </trkpt>
      <trkpt lat="46.56251" lon="0.21458">
        <ele>138.60000610352</ele>
        <time>2022-04-17T09:37:07Z</time>
        <extensions>
          <gpxtpx:TrackPointExtension xmlns:gpxtpx="http://www.garmin.com/xmlschemas/TrackPointExtension/v1">
            <gpxtpx:hr>141</gpxtpx:hr>
          </gpxtpx:TrackPointExtension>
        </extensions>
      </trkpt>
      <trkpt lat="46.5625" lon="0.21457">
        <ele>138.80000305176</ele>
        <time>2022-04-17T09:37:08Z</time>
        <extensions>
          <gpxtpx:TrackPointExtension xmlns:gpxtpx="http://www.garmin.com/xmlschemas/TrackPointExtension/v1">
            <gpxtpx:hr>141</gpxtpx:hr>
          </gpxtpx:TrackPointExtension>
        </extensions>
      </trkpt>
      <trkpt lat="46.56249" lon="0.21456">
        <ele>139.19999694824</ele>
        <time>2022-04-17T09:37:09Z</time>
        <extensions>
          <gpxtpx:TrackPointExtension xmlns:gpxtpx="http://www.garmin.com/xmlschemas/TrackPointExtension/v1">
            <gpxtpx:hr>142</gpxtpx:hr>
          </gpxtpx:TrackPointExtension>
        </extensions>
      </trkpt>
      <trkpt lat="46.56246" lon="0.21455">
        <ele>139.39999389648</ele>
        <time>2022-04-17T09:37:10Z</time>
        <extensions>
          <gpxtpx:TrackPointExtension xmlns:gpxtpx="http://www.garmin.com/xmlschemas/TrackPointExtension/v1">
            <gpxtpx:hr>142</gpxtpx:hr>
          </gpxtpx:TrackPointExtension>
        </extensions>
      </trkpt>
      <trkpt lat="46.56241" lon="0.21455">
        <ele>139.80000305176</ele>
        <time>2022-04-17T09:37:11Z</time>
        <extensions>
          <gpxtpx:TrackPointExtension xmlns:gpxtpx="http://www.garmin.com/xmlschemas/TrackPointExtension/v1">
            <gpxtpx:hr>142</gpxtpx:hr>
          </gpxtpx:TrackPointExtension>
        </extensions>
      </trkpt>
      <trkpt lat="46.5624" lon="0.21454">
        <ele>139.60000610352</ele>
        <time>2022-04-17T09:37:12Z</time>
        <extensions>
          <gpxtpx:TrackPointExtension xmlns:gpxtpx="http://www.garmin.com/xmlschemas/TrackPointExtension/v1">
            <gpxtpx:hr>142</gpxtpx:hr>
          </gpxtpx:TrackPointExtension>
        </extensions>
      </trkpt>
      <trkpt lat="46.56238" lon="0.21453">
        <ele>140</ele>
        <time>2022-04-17T09:37:13Z</time>
        <extensions>
          <gpxtpx:TrackPointExtension xmlns:gpxtpx="http://www.garmin.com/xmlschemas/TrackPointExtension/v1">
            <gpxtpx:hr>142</gpxtpx:hr>
          </gpxtpx:TrackPointExtension>
        </extensions>
      </trkpt>
      <trkpt lat="46.56236" lon="0.21452">
        <ele>140</ele>
        <time>2022-04-17T09:37:14Z</time>
        <extensions>
          <gpxtpx:TrackPointExtension xmlns:gpxtpx="http://www.garmin.com/xmlschemas/TrackPointExtension/v1">
            <gpxtpx:hr>142</gpxtpx:hr>
          </gpxtpx:TrackPointExtension>
        </extensions>
      </trkpt>
      <trkpt lat="46.56234" lon="0.21451">
        <ele>140.19999694824</ele>
        <time>2022-04-17T09:37:15Z</time>
        <extensions>
          <gpxtpx:TrackPointExtension xmlns:gpxtpx="http://www.garmin.com/xmlschemas/TrackPointExtension/v1">
            <gpxtpx:hr>142</gpxtpx:hr>
          </gpxtpx:TrackPointExtension>
        </extensions>
      </trkpt>
      <trkpt lat="46.56234" lon="0.2145">
        <ele>140.39999389648</ele>
        <time>2022-04-17T09:37:16Z</time>
        <extensions>
          <gpxtpx:TrackPointExtension xmlns:gpxtpx="http://www.garmin.com/xmlschemas/TrackPointExtension/v1">
            <gpxtpx:hr>142</gpxtpx:hr>
          </gpxtpx:TrackPointExtension>
        </extensions>
      </trkpt>
      <trkpt lat="46.56233" lon="0.2145">
        <ele>141</ele>
        <time>2022-04-17T09:37:17Z</time>
        <extensions>
          <gpxtpx:TrackPointExtension xmlns:gpxtpx="http://www.garmin.com/xmlschemas/TrackPointExtension/v1">
            <gpxtpx:hr>142</gpxtpx:hr>
          </gpxtpx:TrackPointExtension>
        </extensions>
      </trkpt>
      <trkpt lat="46.56231" lon="0.21449">
        <ele>141.39999389648</ele>
        <time>2022-04-17T09:37:18Z</time>
        <extensions>
          <gpxtpx:TrackPointExtension xmlns:gpxtpx="http://www.garmin.com/xmlschemas/TrackPointExtension/v1">
            <gpxtpx:hr>143</gpxtpx:hr>
          </gpxtpx:TrackPointExtension>
        </extensions>
      </trkpt>
      <trkpt lat="46.56229" lon="0.21449">
        <ele>141.60000610352</ele>
        <time>2022-04-17T09:37:19Z</time>
        <extensions>
          <gpxtpx:TrackPointExtension xmlns:gpxtpx="http://www.garmin.com/xmlschemas/TrackPointExtension/v1">
            <gpxtpx:hr>142</gpxtpx:hr>
          </gpxtpx:TrackPointExtension>
        </extensions>
      </trkpt>
      <trkpt lat="46.56229" lon="0.21449">
        <ele>141.80000305176</ele>
        <time>2022-04-17T09:37:20Z</time>
        <extensions>
          <gpxtpx:TrackPointExtension xmlns:gpxtpx="http://www.garmin.com/xmlschemas/TrackPointExtension/v1">
            <gpxtpx:hr>142</gpxtpx:hr>
          </gpxtpx:TrackPointExtension>
        </extensions>
      </trkpt>
      <trkpt lat="46.56228" lon="0.21448">
        <ele>142</ele>
        <time>2022-04-17T09:37:21Z</time>
        <extensions>
          <gpxtpx:TrackPointExtension xmlns:gpxtpx="http://www.garmin.com/xmlschemas/TrackPointExtension/v1">
            <gpxtpx:hr>143</gpxtpx:hr>
          </gpxtpx:TrackPointExtension>
        </extensions>
      </trkpt>
      <trkpt lat="46.56227" lon="0.21447">
        <ele>142.39999389648</ele>
        <time>2022-04-17T09:37:22Z</time>
        <extensions>
          <gpxtpx:TrackPointExtension xmlns:gpxtpx="http://www.garmin.com/xmlschemas/TrackPointExtension/v1">
            <gpxtpx:hr>144</gpxtpx:hr>
          </gpxtpx:TrackPointExtension>
        </extensions>
      </trkpt>
      <trkpt lat="46.56225" lon="0.21446">
        <ele>142.60000610352</ele>
        <time>2022-04-17T09:37:23Z</time>
        <extensions>
          <gpxtpx:TrackPointExtension xmlns:gpxtpx="http://www.garmin.com/xmlschemas/TrackPointExtension/v1">
            <gpxtpx:hr>144</gpxtpx:hr>
          </gpxtpx:TrackPointExtension>
        </extensions>
      </trkpt>
      <trkpt lat="46.56224" lon="0.21445">
        <ele>142.80000305176</ele>
        <time>2022-04-17T09:37:24Z</time>
        <extensions>
          <gpxtpx:TrackPointExtension xmlns:gpxtpx="http://www.garmin.com/xmlschemas/TrackPointExtension/v1">
            <gpxtpx:hr>145</gpxtpx:hr>
          </gpxtpx:TrackPointExtension>
        </extensions>
      </trkpt>
      <trkpt lat="46.56222" lon="0.21445">
        <ele>142.80000305176</ele>
        <time>2022-04-17T09:37:25Z</time>
        <extensions>
          <gpxtpx:TrackPointExtension xmlns:gpxtpx="http://www.garmin.com/xmlschemas/TrackPointExtension/v1">
            <gpxtpx:hr>146</gpxtpx:hr>
          </gpxtpx:TrackPointExtension>
        </extensions>
      </trkpt>
      <trkpt lat="46.56221" lon="0.21444">
        <ele>143</ele>
        <time>2022-04-17T09:37:26Z</time>
        <extensions>
          <gpxtpx:TrackPointExtension xmlns:gpxtpx="http://www.garmin.com/xmlschemas/TrackPointExtension/v1">
            <gpxtpx:hr>147</gpxtpx:hr>
          </gpxtpx:TrackPointExtension>
        </extensions>
      </trkpt>
      <trkpt lat="46.5622" lon="0.21443">
        <ele>143.19999694824</ele>
        <time>2022-04-17T09:37:27Z</time>
        <extensions>
          <gpxtpx:TrackPointExtension xmlns:gpxtpx="http://www.garmin.com/xmlschemas/TrackPointExtension/v1">
            <gpxtpx:hr>147</gpxtpx:hr>
          </gpxtpx:TrackPointExtension>
        </extensions>
      </trkpt>
      <trkpt lat="46.56219" lon="0.21442">
        <ele>143.19999694824</ele>
        <time>2022-04-17T09:37:28Z</time>
        <extensions>
          <gpxtpx:TrackPointExtension xmlns:gpxtpx="http://www.garmin.com/xmlschemas/TrackPointExtension/v1">
            <gpxtpx:hr>146</gpxtpx:hr>
          </gpxtpx:TrackPointExtension>
        </extensions>
      </trkpt>
      <trkpt lat="46.56218" lon="0.21441">
        <ele>143.60000610352</ele>
        <time>2022-04-17T09:37:29Z</time>
        <extensions>
          <gpxtpx:TrackPointExtension xmlns:gpxtpx="http://www.garmin.com/xmlschemas/TrackPointExtension/v1">
            <gpxtpx:hr>146</gpxtpx:hr>
          </gpxtpx:TrackPointExtension>
        </extensions>
      </trkpt>
      <trkpt lat="46.56217" lon="0.21441">
        <ele>144</ele>
        <time>2022-04-17T09:37:30Z</time>
        <extensions>
          <gpxtpx:TrackPointExtension xmlns:gpxtpx="http://www.garmin.com/xmlschemas/TrackPointExtension/v1">
            <gpxtpx:hr>146</gpxtpx:hr>
          </gpxtpx:TrackPointExtension>
        </extensions>
      </trkpt>
      <trkpt lat="46.56216" lon="0.21441">
        <ele>144.19999694824</ele>
        <time>2022-04-17T09:37:31Z</time>
        <extensions>
          <gpxtpx:TrackPointExtension xmlns:gpxtpx="http://www.garmin.com/xmlschemas/TrackPointExtension/v1">
            <gpxtpx:hr>145</gpxtpx:hr>
          </gpxtpx:TrackPointExtension>
        </extensions>
      </trkpt>
      <trkpt lat="46.56213" lon="0.21441">
        <ele>144.19999694824</ele>
        <time>2022-04-17T09:37:32Z</time>
        <extensions>
          <gpxtpx:TrackPointExtension xmlns:gpxtpx="http://www.garmin.com/xmlschemas/TrackPointExtension/v1">
            <gpxtpx:hr>144</gpxtpx:hr>
          </gpxtpx:TrackPointExtension>
        </extensions>
      </trkpt>
      <trkpt lat="46.56211" lon="0.2144">
        <ele>144.39999389648</ele>
        <time>2022-04-17T09:37:33Z</time>
        <extensions>
          <gpxtpx:TrackPointExtension xmlns:gpxtpx="http://www.garmin.com/xmlschemas/TrackPointExtension/v1">
            <gpxtpx:hr>145</gpxtpx:hr>
          </gpxtpx:TrackPointExtension>
        </extensions>
      </trkpt>
      <trkpt lat="46.56208" lon="0.2144">
        <ele>144.60000610352</ele>
        <time>2022-04-17T09:37:34Z</time>
        <extensions>
          <gpxtpx:TrackPointExtension xmlns:gpxtpx="http://www.garmin.com/xmlschemas/TrackPointExtension/v1">
            <gpxtpx:hr>145</gpxtpx:hr>
          </gpxtpx:TrackPointExtension>
        </extensions>
      </trkpt>
      <trkpt lat="46.56206" lon="0.21439">
        <ele>144.60000610352</ele>
        <time>2022-04-17T09:37:35Z</time>
        <extensions>
          <gpxtpx:TrackPointExtension xmlns:gpxtpx="http://www.garmin.com/xmlschemas/TrackPointExtension/v1">
            <gpxtpx:hr>146</gpxtpx:hr>
          </gpxtpx:TrackPointExtension>
        </extensions>
      </trkpt>
      <trkpt lat="46.56206" lon="0.21439">
        <ele>145</ele>
        <time>2022-04-17T09:37:36Z</time>
        <extensions>
          <gpxtpx:TrackPointExtension xmlns:gpxtpx="http://www.garmin.com/xmlschemas/TrackPointExtension/v1">
            <gpxtpx:hr>147</gpxtpx:hr>
          </gpxtpx:TrackPointExtension>
        </extensions>
      </trkpt>
      <trkpt lat="46.56204" lon="0.21438">
        <ele>145</ele>
        <time>2022-04-17T09:37:37Z</time>
        <extensions>
          <gpxtpx:TrackPointExtension xmlns:gpxtpx="http://www.garmin.com/xmlschemas/TrackPointExtension/v1">
            <gpxtpx:hr>147</gpxtpx:hr>
          </gpxtpx:TrackPointExtension>
        </extensions>
      </trkpt>
      <trkpt lat="46.56201" lon="0.21437">
        <ele>145.39999389648</ele>
        <time>2022-04-17T09:37:38Z</time>
        <extensions>
          <gpxtpx:TrackPointExtension xmlns:gpxtpx="http://www.garmin.com/xmlschemas/TrackPointExtension/v1">
            <gpxtpx:hr>147</gpxtpx:hr>
          </gpxtpx:TrackPointExtension>
        </extensions>
      </trkpt>
      <trkpt lat="46.56199" lon="0.21437">
        <ele>145.39999389648</ele>
        <time>2022-04-17T09:37:39Z</time>
        <extensions>
          <gpxtpx:TrackPointExtension xmlns:gpxtpx="http://www.garmin.com/xmlschemas/TrackPointExtension/v1">
            <gpxtpx:hr>148</gpxtpx:hr>
          </gpxtpx:TrackPointExtension>
        </extensions>
      </trkpt>
      <trkpt lat="46.56196" lon="0.21437">
        <ele>145.80000305176</ele>
        <time>2022-04-17T09:37:40Z</time>
        <extensions>
          <gpxtpx:TrackPointExtension xmlns:gpxtpx="http://www.garmin.com/xmlschemas/TrackPointExtension/v1">
            <gpxtpx:hr>148</gpxtpx:hr>
          </gpxtpx:TrackPointExtension>
        </extensions>
      </trkpt>
      <trkpt lat="46.56195" lon="0.21437">
        <ele>146</ele>
        <time>2022-04-17T09:37:41Z</time>
        <extensions>
          <gpxtpx:TrackPointExtension xmlns:gpxtpx="http://www.garmin.com/xmlschemas/TrackPointExtension/v1">
            <gpxtpx:hr>148</gpxtpx:hr>
          </gpxtpx:TrackPointExtension>
        </extensions>
      </trkpt>
      <trkpt lat="46.56193" lon="0.21437">
        <ele>146.19999694824</ele>
        <time>2022-04-17T09:37:42Z</time>
        <extensions>
          <gpxtpx:TrackPointExtension xmlns:gpxtpx="http://www.garmin.com/xmlschemas/TrackPointExtension/v1">
            <gpxtpx:hr>148</gpxtpx:hr>
          </gpxtpx:TrackPointExtension>
        </extensions>
      </trkpt>
      <trkpt lat="46.56192" lon="0.21436">
        <ele>146.19999694824</ele>
        <time>2022-04-17T09:37:43Z</time>
        <extensions>
          <gpxtpx:TrackPointExtension xmlns:gpxtpx="http://www.garmin.com/xmlschemas/TrackPointExtension/v1">
            <gpxtpx:hr>148</gpxtpx:hr>
          </gpxtpx:TrackPointExtension>
        </extensions>
      </trkpt>
      <trkpt lat="46.5619" lon="0.21436">
        <ele>146.39999389648</ele>
        <time>2022-04-17T09:37:44Z</time>
        <extensions>
          <gpxtpx:TrackPointExtension xmlns:gpxtpx="http://www.garmin.com/xmlschemas/TrackPointExtension/v1">
            <gpxtpx:hr>148</gpxtpx:hr>
          </gpxtpx:TrackPointExtension>
        </extensions>
      </trkpt>
      <trkpt lat="46.56189" lon="0.21437">
        <ele>146.60000610352</ele>
        <time>2022-04-17T09:37:45Z</time>
        <extensions>
          <gpxtpx:TrackPointExtension xmlns:gpxtpx="http://www.garmin.com/xmlschemas/TrackPointExtension/v1">
            <gpxtpx:hr>148</gpxtpx:hr>
          </gpxtpx:TrackPointExtension>
        </extensions>
      </trkpt>
      <trkpt lat="46.56186" lon="0.21437">
        <ele>146.60000610352</ele>
        <time>2022-04-17T09:37:46Z</time>
        <extensions>
          <gpxtpx:TrackPointExtension xmlns:gpxtpx="http://www.garmin.com/xmlschemas/TrackPointExtension/v1">
            <gpxtpx:hr>148</gpxtpx:hr>
          </gpxtpx:TrackPointExtension>
        </extensions>
      </trkpt>
      <trkpt lat="46.56183" lon="0.21438">
        <ele>146.80000305176</ele>
        <time>2022-04-17T09:37:47Z</time>
        <extensions>
          <gpxtpx:TrackPointExtension xmlns:gpxtpx="http://www.garmin.com/xmlschemas/TrackPointExtension/v1">
            <gpxtpx:hr>148</gpxtpx:hr>
          </gpxtpx:TrackPointExtension>
        </extensions>
      </trkpt>
      <trkpt lat="46.56181" lon="0.21438">
        <ele>147</ele>
        <time>2022-04-17T09:37:48Z</time>
        <extensions>
          <gpxtpx:TrackPointExtension xmlns:gpxtpx="http://www.garmin.com/xmlschemas/TrackPointExtension/v1">
            <gpxtpx:hr>148</gpxtpx:hr>
          </gpxtpx:TrackPointExtension>
        </extensions>
      </trkpt>
      <trkpt lat="46.56179" lon="0.21438">
        <ele>147.19999694824</ele>
        <time>2022-04-17T09:37:49Z</time>
        <extensions>
          <gpxtpx:TrackPointExtension xmlns:gpxtpx="http://www.garmin.com/xmlschemas/TrackPointExtension/v1">
            <gpxtpx:hr>148</gpxtpx:hr>
          </gpxtpx:TrackPointExtension>
        </extensions>
      </trkpt>
      <trkpt lat="46.56177" lon="0.21439">
        <ele>147.39999389648</ele>
        <time>2022-04-17T09:37:50Z</time>
        <extensions>
          <gpxtpx:TrackPointExtension xmlns:gpxtpx="http://www.garmin.com/xmlschemas/TrackPointExtension/v1">
            <gpxtpx:hr>148</gpxtpx:hr>
          </gpxtpx:TrackPointExtension>
        </extensions>
      </trkpt>
      <trkpt lat="46.56174" lon="0.21439">
        <ele>147.60000610352</ele>
        <time>2022-04-17T09:37:51Z</time>
        <extensions>
          <gpxtpx:TrackPointExtension xmlns:gpxtpx="http://www.garmin.com/xmlschemas/TrackPointExtension/v1">
            <gpxtpx:hr>148</gpxtpx:hr>
          </gpxtpx:TrackPointExtension>
        </extensions>
      </trkpt>
      <trkpt lat="46.56171" lon="0.2144">
        <ele>147.80000305176</ele>
        <time>2022-04-17T09:37:52Z</time>
        <extensions>
          <gpxtpx:TrackPointExtension xmlns:gpxtpx="http://www.garmin.com/xmlschemas/TrackPointExtension/v1">
            <gpxtpx:hr>148</gpxtpx:hr>
          </gpxtpx:TrackPointExtension>
        </extensions>
      </trkpt>
      <trkpt lat="46.56169" lon="0.2144">
        <ele>147.80000305176</ele>
        <time>2022-04-17T09:37:53Z</time>
        <extensions>
          <gpxtpx:TrackPointExtension xmlns:gpxtpx="http://www.garmin.com/xmlschemas/TrackPointExtension/v1">
            <gpxtpx:hr>148</gpxtpx:hr>
          </gpxtpx:TrackPointExtension>
        </extensions>
      </trkpt>
      <trkpt lat="46.56167" lon="0.21441">
        <ele>148</ele>
        <time>2022-04-17T09:37:54Z</time>
        <extensions>
          <gpxtpx:TrackPointExtension xmlns:gpxtpx="http://www.garmin.com/xmlschemas/TrackPointExtension/v1">
            <gpxtpx:hr>148</gpxtpx:hr>
          </gpxtpx:TrackPointExtension>
        </extensions>
      </trkpt>
      <trkpt lat="46.56164" lon="0.21443">
        <ele>148</ele>
        <time>2022-04-17T09:37:55Z</time>
        <extensions>
          <gpxtpx:TrackPointExtension xmlns:gpxtpx="http://www.garmin.com/xmlschemas/TrackPointExtension/v1">
            <gpxtpx:hr>148</gpxtpx:hr>
          </gpxtpx:TrackPointExtension>
        </extensions>
      </trkpt>
      <trkpt lat="46.56161" lon="0.21444">
        <ele>148</ele>
        <time>2022-04-17T09:37:56Z</time>
        <extensions>
          <gpxtpx:TrackPointExtension xmlns:gpxtpx="http://www.garmin.com/xmlschemas/TrackPointExtension/v1">
            <gpxtpx:hr>148</gpxtpx:hr>
          </gpxtpx:TrackPointExtension>
        </extensions>
      </trkpt>
      <trkpt lat="46.5616" lon="0.21446">
        <ele>148</ele>
        <time>2022-04-17T09:37:57Z</time>
        <extensions>
          <gpxtpx:TrackPointExtension xmlns:gpxtpx="http://www.garmin.com/xmlschemas/TrackPointExtension/v1">
            <gpxtpx:hr>148</gpxtpx:hr>
          </gpxtpx:TrackPointExtension>
        </extensions>
      </trkpt>
      <trkpt lat="46.56159" lon="0.21447">
        <ele>148.19999694824</ele>
        <time>2022-04-17T09:37:58Z</time>
        <extensions>
          <gpxtpx:TrackPointExtension xmlns:gpxtpx="http://www.garmin.com/xmlschemas/TrackPointExtension/v1">
            <gpxtpx:hr>148</gpxtpx:hr>
          </gpxtpx:TrackPointExtension>
        </extensions>
      </trkpt>
      <trkpt lat="46.56157" lon="0.21449">
        <ele>148.39999389648</ele>
        <time>2022-04-17T09:37:59Z</time>
        <extensions>
          <gpxtpx:TrackPointExtension xmlns:gpxtpx="http://www.garmin.com/xmlschemas/TrackPointExtension/v1">
            <gpxtpx:hr>148</gpxtpx:hr>
          </gpxtpx:TrackPointExtension>
        </extensions>
      </trkpt>
      <trkpt lat="46.56155" lon="0.21449">
        <ele>148.39999389648</ele>
        <time>2022-04-17T09:38:00Z</time>
        <extensions>
          <gpxtpx:TrackPointExtension xmlns:gpxtpx="http://www.garmin.com/xmlschemas/TrackPointExtension/v1">
            <gpxtpx:hr>148</gpxtpx:hr>
          </gpxtpx:TrackPointExtension>
        </extensions>
      </trkpt>
      <trkpt lat="46.56154" lon="0.21449">
        <ele>148.39999389648</ele>
        <time>2022-04-17T09:38:01Z</time>
        <extensions>
          <gpxtpx:TrackPointExtension xmlns:gpxtpx="http://www.garmin.com/xmlschemas/TrackPointExtension/v1">
            <gpxtpx:hr>148</gpxtpx:hr>
          </gpxtpx:TrackPointExtension>
        </extensions>
      </trkpt>
      <trkpt lat="46.56153" lon="0.2145">
        <ele>148.60000610352</ele>
        <time>2022-04-17T09:38:02Z</time>
        <extensions>
          <gpxtpx:TrackPointExtension xmlns:gpxtpx="http://www.garmin.com/xmlschemas/TrackPointExtension/v1">
            <gpxtpx:hr>148</gpxtpx:hr>
          </gpxtpx:TrackPointExtension>
        </extensions>
      </trkpt>
      <trkpt lat="46.56151" lon="0.21451">
        <ele>148.80000305176</ele>
        <time>2022-04-17T09:38:03Z</time>
        <extensions>
          <gpxtpx:TrackPointExtension xmlns:gpxtpx="http://www.garmin.com/xmlschemas/TrackPointExtension/v1">
            <gpxtpx:hr>148</gpxtpx:hr>
          </gpxtpx:TrackPointExtension>
        </extensions>
      </trkpt>
      <trkpt lat="46.56149" lon="0.21452">
        <ele>149</ele>
        <time>2022-04-17T09:38:04Z</time>
        <extensions>
          <gpxtpx:TrackPointExtension xmlns:gpxtpx="http://www.garmin.com/xmlschemas/TrackPointExtension/v1">
            <gpxtpx:hr>148</gpxtpx:hr>
          </gpxtpx:TrackPointExtension>
        </extensions>
      </trkpt>
      <trkpt lat="46.56147" lon="0.21453">
        <ele>149</ele>
        <time>2022-04-17T09:38:05Z</time>
        <extensions>
          <gpxtpx:TrackPointExtension xmlns:gpxtpx="http://www.garmin.com/xmlschemas/TrackPointExtension/v1">
            <gpxtpx:hr>148</gpxtpx:hr>
          </gpxtpx:TrackPointExtension>
        </extensions>
      </trkpt>
      <trkpt lat="46.56146" lon="0.21455">
        <ele>149.19999694824</ele>
        <time>2022-04-17T09:38:06Z</time>
        <extensions>
          <gpxtpx:TrackPointExtension xmlns:gpxtpx="http://www.garmin.com/xmlschemas/TrackPointExtension/v1">
            <gpxtpx:hr>148</gpxtpx:hr>
          </gpxtpx:TrackPointExtension>
        </extensions>
      </trkpt>
      <trkpt lat="46.56145" lon="0.21456">
        <ele>149.19999694824</ele>
        <time>2022-04-17T09:38:07Z</time>
        <extensions>
          <gpxtpx:TrackPointExtension xmlns:gpxtpx="http://www.garmin.com/xmlschemas/TrackPointExtension/v1">
            <gpxtpx:hr>147</gpxtpx:hr>
          </gpxtpx:TrackPointExtension>
        </extensions>
      </trkpt>
      <trkpt lat="46.56143" lon="0.21458">
        <ele>149.19999694824</ele>
        <time>2022-04-17T09:38:08Z</time>
        <extensions>
          <gpxtpx:TrackPointExtension xmlns:gpxtpx="http://www.garmin.com/xmlschemas/TrackPointExtension/v1">
            <gpxtpx:hr>147</gpxtpx:hr>
          </gpxtpx:TrackPointExtension>
        </extensions>
      </trkpt>
      <trkpt lat="46.56141" lon="0.2146">
        <ele>149.39999389648</ele>
        <time>2022-04-17T09:38:09Z</time>
        <extensions>
          <gpxtpx:TrackPointExtension xmlns:gpxtpx="http://www.garmin.com/xmlschemas/TrackPointExtension/v1">
            <gpxtpx:hr>146</gpxtpx:hr>
          </gpxtpx:TrackPointExtension>
        </extensions>
      </trkpt>
      <trkpt lat="46.56139" lon="0.21462">
        <ele>149.39999389648</ele>
        <time>2022-04-17T09:38:10Z</time>
        <extensions>
          <gpxtpx:TrackPointExtension xmlns:gpxtpx="http://www.garmin.com/xmlschemas/TrackPointExtension/v1">
            <gpxtpx:hr>146</gpxtpx:hr>
          </gpxtpx:TrackPointExtension>
        </extensions>
      </trkpt>
      <trkpt lat="46.56136" lon="0.21464">
        <ele>149.39999389648</ele>
        <time>2022-04-17T09:38:11Z</time>
        <extensions>
          <gpxtpx:TrackPointExtension xmlns:gpxtpx="http://www.garmin.com/xmlschemas/TrackPointExtension/v1">
            <gpxtpx:hr>146</gpxtpx:hr>
          </gpxtpx:TrackPointExtension>
        </extensions>
      </trkpt>
      <trkpt lat="46.56134" lon="0.21466">
        <ele>149.60000610352</ele>
        <time>2022-04-17T09:38:12Z</time>
        <extensions>
          <gpxtpx:TrackPointExtension xmlns:gpxtpx="http://www.garmin.com/xmlschemas/TrackPointExtension/v1">
            <gpxtpx:hr>147</gpxtpx:hr>
          </gpxtpx:TrackPointExtension>
        </extensions>
      </trkpt>
      <trkpt lat="46.56132" lon="0.21468">
        <ele>149.60000610352</ele>
        <time>2022-04-17T09:38:13Z</time>
        <extensions>
          <gpxtpx:TrackPointExtension xmlns:gpxtpx="http://www.garmin.com/xmlschemas/TrackPointExtension/v1">
            <gpxtpx:hr>146</gpxtpx:hr>
          </gpxtpx:TrackPointExtension>
        </extensions>
      </trkpt>
      <trkpt lat="46.56129" lon="0.21471">
        <ele>149.60000610352</ele>
        <time>2022-04-17T09:38:14Z</time>
        <extensions>
          <gpxtpx:TrackPointExtension xmlns:gpxtpx="http://www.garmin.com/xmlschemas/TrackPointExtension/v1">
            <gpxtpx:hr>148</gpxtpx:hr>
          </gpxtpx:TrackPointExtension>
        </extensions>
      </trkpt>
      <trkpt lat="46.56126" lon="0.21473">
        <ele>150</ele>
        <time>2022-04-17T09:38:15Z</time>
        <extensions>
          <gpxtpx:TrackPointExtension xmlns:gpxtpx="http://www.garmin.com/xmlschemas/TrackPointExtension/v1">
            <gpxtpx:hr>145</gpxtpx:hr>
          </gpxtpx:TrackPointExtension>
        </extensions>
      </trkpt>
      <trkpt lat="46.56124" lon="0.21476">
        <ele>150.19999694824</ele>
        <time>2022-04-17T09:38:16Z</time>
        <extensions>
          <gpxtpx:TrackPointExtension xmlns:gpxtpx="http://www.garmin.com/xmlschemas/TrackPointExtension/v1">
            <gpxtpx:hr>145</gpxtpx:hr>
          </gpxtpx:TrackPointExtension>
        </extensions>
      </trkpt>
      <trkpt lat="46.56121" lon="0.21479">
        <ele>150.19999694824</ele>
        <time>2022-04-17T09:38:17Z</time>
        <extensions>
          <gpxtpx:TrackPointExtension xmlns:gpxtpx="http://www.garmin.com/xmlschemas/TrackPointExtension/v1">
            <gpxtpx:hr>145</gpxtpx:hr>
          </gpxtpx:TrackPointExtension>
        </extensions>
      </trkpt>
      <trkpt lat="46.56118" lon="0.21481">
        <ele>150.39999389648</ele>
        <time>2022-04-17T09:38:18Z</time>
        <extensions>
          <gpxtpx:TrackPointExtension xmlns:gpxtpx="http://www.garmin.com/xmlschemas/TrackPointExtension/v1">
            <gpxtpx:hr>144</gpxtpx:hr>
          </gpxtpx:TrackPointExtension>
        </extensions>
      </trkpt>
      <trkpt lat="46.56116" lon="0.21483">
        <ele>150.60000610352</ele>
        <time>2022-04-17T09:38:19Z</time>
        <extensions>
          <gpxtpx:TrackPointExtension xmlns:gpxtpx="http://www.garmin.com/xmlschemas/TrackPointExtension/v1">
            <gpxtpx:hr>144</gpxtpx:hr>
          </gpxtpx:TrackPointExtension>
        </extensions>
      </trkpt>
      <trkpt lat="46.56114" lon="0.21485">
        <ele>150.60000610352</ele>
        <time>2022-04-17T09:38:20Z</time>
        <extensions>
          <gpxtpx:TrackPointExtension xmlns:gpxtpx="http://www.garmin.com/xmlschemas/TrackPointExtension/v1">
            <gpxtpx:hr>143</gpxtpx:hr>
          </gpxtpx:TrackPointExtension>
        </extensions>
      </trkpt>
      <trkpt lat="46.56111" lon="0.21487">
        <ele>150.60000610352</ele>
        <time>2022-04-17T09:38:21Z</time>
        <extensions>
          <gpxtpx:TrackPointExtension xmlns:gpxtpx="http://www.garmin.com/xmlschemas/TrackPointExtension/v1">
            <gpxtpx:hr>143</gpxtpx:hr>
          </gpxtpx:TrackPointExtension>
        </extensions>
      </trkpt>
      <trkpt lat="46.56108" lon="0.21489">
        <ele>150.80000305176</ele>
        <time>2022-04-17T09:38:22Z</time>
        <extensions>
          <gpxtpx:TrackPointExtension xmlns:gpxtpx="http://www.garmin.com/xmlschemas/TrackPointExtension/v1">
            <gpxtpx:hr>141</gpxtpx:hr>
          </gpxtpx:TrackPointExtension>
        </extensions>
      </trkpt>
      <trkpt lat="46.56105" lon="0.2149">
        <ele>150.80000305176</ele>
        <time>2022-04-17T09:38:23Z</time>
        <extensions>
          <gpxtpx:TrackPointExtension xmlns:gpxtpx="http://www.garmin.com/xmlschemas/TrackPointExtension/v1">
            <gpxtpx:hr>141</gpxtpx:hr>
          </gpxtpx:TrackPointExtension>
        </extensions>
      </trkpt>
      <trkpt lat="46.56103" lon="0.21492">
        <ele>151</ele>
        <time>2022-04-17T09:38:24Z</time>
        <extensions>
          <gpxtpx:TrackPointExtension xmlns:gpxtpx="http://www.garmin.com/xmlschemas/TrackPointExtension/v1">
            <gpxtpx:hr>141</gpxtpx:hr>
          </gpxtpx:TrackPointExtension>
        </extensions>
      </trkpt>
      <trkpt lat="46.561" lon="0.21493">
        <ele>151</ele>
        <time>2022-04-17T09:38:25Z</time>
        <extensions>
          <gpxtpx:TrackPointExtension xmlns:gpxtpx="http://www.garmin.com/xmlschemas/TrackPointExtension/v1">
            <gpxtpx:hr>140</gpxtpx:hr>
          </gpxtpx:TrackPointExtension>
        </extensions>
      </trkpt>
      <trkpt lat="46.56097" lon="0.21494">
        <ele>151.19999694824</ele>
        <time>2022-04-17T09:38:26Z</time>
        <extensions>
          <gpxtpx:TrackPointExtension xmlns:gpxtpx="http://www.garmin.com/xmlschemas/TrackPointExtension/v1">
            <gpxtpx:hr>140</gpxtpx:hr>
          </gpxtpx:TrackPointExtension>
        </extensions>
      </trkpt>
      <trkpt lat="46.56095" lon="0.21495">
        <ele>151.19999694824</ele>
        <time>2022-04-17T09:38:27Z</time>
        <extensions>
          <gpxtpx:TrackPointExtension xmlns:gpxtpx="http://www.garmin.com/xmlschemas/TrackPointExtension/v1">
            <gpxtpx:hr>139</gpxtpx:hr>
          </gpxtpx:TrackPointExtension>
        </extensions>
      </trkpt>
      <trkpt lat="46.56093" lon="0.21495">
        <ele>151.39999389648</ele>
        <time>2022-04-17T09:38:28Z</time>
        <extensions>
          <gpxtpx:TrackPointExtension xmlns:gpxtpx="http://www.garmin.com/xmlschemas/TrackPointExtension/v1">
            <gpxtpx:hr>139</gpxtpx:hr>
          </gpxtpx:TrackPointExtension>
        </extensions>
      </trkpt>
      <trkpt lat="46.56091" lon="0.21495">
        <ele>151.39999389648</ele>
        <time>2022-04-17T09:38:29Z</time>
        <extensions>
          <gpxtpx:TrackPointExtension xmlns:gpxtpx="http://www.garmin.com/xmlschemas/TrackPointExtension/v1">
            <gpxtpx:hr>138</gpxtpx:hr>
          </gpxtpx:TrackPointExtension>
        </extensions>
      </trkpt>
      <trkpt lat="46.5609" lon="0.21495">
        <ele>151.60000610352</ele>
        <time>2022-04-17T09:38:30Z</time>
        <extensions>
          <gpxtpx:TrackPointExtension xmlns:gpxtpx="http://www.garmin.com/xmlschemas/TrackPointExtension/v1">
            <gpxtpx:hr>138</gpxtpx:hr>
          </gpxtpx:TrackPointExtension>
        </extensions>
      </trkpt>
      <trkpt lat="46.56088" lon="0.21495">
        <ele>151.60000610352</ele>
        <time>2022-04-17T09:38:31Z</time>
        <extensions>
          <gpxtpx:TrackPointExtension xmlns:gpxtpx="http://www.garmin.com/xmlschemas/TrackPointExtension/v1">
            <gpxtpx:hr>139</gpxtpx:hr>
          </gpxtpx:TrackPointExtension>
        </extensions>
      </trkpt>
      <trkpt lat="46.56088" lon="0.21494">
        <ele>151.60000610352</ele>
        <time>2022-04-17T09:38:32Z</time>
        <extensions>
          <gpxtpx:TrackPointExtension xmlns:gpxtpx="http://www.garmin.com/xmlschemas/TrackPointExtension/v1">
            <gpxtpx:hr>138</gpxtpx:hr>
          </gpxtpx:TrackPointExtension>
        </extensions>
      </trkpt>
      <trkpt lat="46.56087" lon="0.21494">
        <ele>151.80000305176</ele>
        <time>2022-04-17T09:38:33Z</time>
        <extensions>
          <gpxtpx:TrackPointExtension xmlns:gpxtpx="http://www.garmin.com/xmlschemas/TrackPointExtension/v1">
            <gpxtpx:hr>138</gpxtpx:hr>
          </gpxtpx:TrackPointExtension>
        </extensions>
      </trkpt>
      <trkpt lat="46.56086" lon="0.21494">
        <ele>151.80000305176</ele>
        <time>2022-04-17T09:38:34Z</time>
        <extensions>
          <gpxtpx:TrackPointExtension xmlns:gpxtpx="http://www.garmin.com/xmlschemas/TrackPointExtension/v1">
            <gpxtpx:hr>139</gpxtpx:hr>
          </gpxtpx:TrackPointExtension>
        </extensions>
      </trkpt>
      <trkpt lat="46.56084" lon="0.21494">
        <ele>152</ele>
        <time>2022-04-17T09:38:35Z</time>
        <extensions>
          <gpxtpx:TrackPointExtension xmlns:gpxtpx="http://www.garmin.com/xmlschemas/TrackPointExtension/v1">
            <gpxtpx:hr>139</gpxtpx:hr>
          </gpxtpx:TrackPointExtension>
        </extensions>
      </trkpt>
      <trkpt lat="46.56083" lon="0.21493">
        <ele>152</ele>
        <time>2022-04-17T09:38:36Z</time>
        <extensions>
          <gpxtpx:TrackPointExtension xmlns:gpxtpx="http://www.garmin.com/xmlschemas/TrackPointExtension/v1">
            <gpxtpx:hr>138</gpxtpx:hr>
          </gpxtpx:TrackPointExtension>
        </extensions>
      </trkpt>
      <trkpt lat="46.56081" lon="0.21492">
        <ele>152.19999694824</ele>
        <time>2022-04-17T09:38:37Z</time>
        <extensions>
          <gpxtpx:TrackPointExtension xmlns:gpxtpx="http://www.garmin.com/xmlschemas/TrackPointExtension/v1">
            <gpxtpx:hr>138</gpxtpx:hr>
          </gpxtpx:TrackPointExtension>
        </extensions>
      </trkpt>
      <trkpt lat="46.5608" lon="0.21491">
        <ele>152.19999694824</ele>
        <time>2022-04-17T09:38:38Z</time>
        <extensions>
          <gpxtpx:TrackPointExtension xmlns:gpxtpx="http://www.garmin.com/xmlschemas/TrackPointExtension/v1">
            <gpxtpx:hr>138</gpxtpx:hr>
          </gpxtpx:TrackPointExtension>
        </extensions>
      </trkpt>
      <trkpt lat="46.56078" lon="0.21491">
        <ele>152.19999694824</ele>
        <time>2022-04-17T09:38:39Z</time>
        <extensions>
          <gpxtpx:TrackPointExtension xmlns:gpxtpx="http://www.garmin.com/xmlschemas/TrackPointExtension/v1">
            <gpxtpx:hr>138</gpxtpx:hr>
          </gpxtpx:TrackPointExtension>
        </extensions>
      </trkpt>
      <trkpt lat="46.56076" lon="0.2149">
        <ele>152.39999389648</ele>
        <time>2022-04-17T09:38:40Z</time>
        <extensions>
          <gpxtpx:TrackPointExtension xmlns:gpxtpx="http://www.garmin.com/xmlschemas/TrackPointExtension/v1">
            <gpxtpx:hr>138</gpxtpx:hr>
          </gpxtpx:TrackPointExtension>
        </extensions>
      </trkpt>
      <trkpt lat="46.56074" lon="0.21489">
        <ele>152.60000610352</ele>
        <time>2022-04-17T09:38:42Z</time>
        <extensions>
          <gpxtpx:TrackPointExtension xmlns:gpxtpx="http://www.garmin.com/xmlschemas/TrackPointExtension/v1">
            <gpxtpx:hr>138</gpxtpx:hr>
          </gpxtpx:TrackPointExtension>
        </extensions>
      </trkpt>
      <trkpt lat="46.56072" lon="0.21488">
        <ele>152.60000610352</ele>
        <time>2022-04-17T09:38:43Z</time>
        <extensions>
          <gpxtpx:TrackPointExtension xmlns:gpxtpx="http://www.garmin.com/xmlschemas/TrackPointExtension/v1">
            <gpxtpx:hr>137</gpxtpx:hr>
          </gpxtpx:TrackPointExtension>
        </extensions>
      </trkpt>
      <trkpt lat="46.56069" lon="0.21487">
        <ele>152.60000610352</ele>
        <time>2022-04-17T09:38:44Z</time>
        <extensions>
          <gpxtpx:TrackPointExtension xmlns:gpxtpx="http://www.garmin.com/xmlschemas/TrackPointExtension/v1">
            <gpxtpx:hr>137</gpxtpx:hr>
          </gpxtpx:TrackPointExtension>
        </extensions>
      </trkpt>
      <trkpt lat="46.5606" lon="0.21487">
        <ele>152.80000305176</ele>
        <time>2022-04-17T09:38:47Z</time>
        <extensions>
          <gpxtpx:TrackPointExtension xmlns:gpxtpx="http://www.garmin.com/xmlschemas/TrackPointExtension/v1">
            <gpxtpx:hr>137</gpxtpx:hr>
          </gpxtpx:TrackPointExtension>
        </extensions>
      </trkpt>
      <trkpt lat="46.56054" lon="0.21484">
        <ele>153.19999694824</ele>
        <time>2022-04-17T09:38:50Z</time>
        <extensions>
          <gpxtpx:TrackPointExtension xmlns:gpxtpx="http://www.garmin.com/xmlschemas/TrackPointExtension/v1">
            <gpxtpx:hr>136</gpxtpx:hr>
          </gpxtpx:TrackPointExtension>
        </extensions>
      </trkpt>
      <trkpt lat="46.56052" lon="0.21483">
        <ele>153.39999389648</ele>
        <time>2022-04-17T09:38:51Z</time>
        <extensions>
          <gpxtpx:TrackPointExtension xmlns:gpxtpx="http://www.garmin.com/xmlschemas/TrackPointExtension/v1">
            <gpxtpx:hr>136</gpxtpx:hr>
          </gpxtpx:TrackPointExtension>
        </extensions>
      </trkpt>
      <trkpt lat="46.56049" lon="0.21483">
        <ele>153.39999389648</ele>
        <time>2022-04-17T09:38:52Z</time>
        <extensions>
          <gpxtpx:TrackPointExtension xmlns:gpxtpx="http://www.garmin.com/xmlschemas/TrackPointExtension/v1">
            <gpxtpx:hr>135</gpxtpx:hr>
          </gpxtpx:TrackPointExtension>
        </extensions>
      </trkpt>
      <trkpt lat="46.56028" lon="0.21481">
        <ele>153.60000610352</ele>
        <time>2022-04-17T09:38:59Z</time>
        <extensions>
          <gpxtpx:TrackPointExtension xmlns:gpxtpx="http://www.garmin.com/xmlschemas/TrackPointExtension/v1">
            <gpxtpx:hr>134</gpxtpx:hr>
          </gpxtpx:TrackPointExtension>
        </extensions>
      </trkpt>
      <trkpt lat="46.56025" lon="0.21482">
        <ele>153.60000610352</ele>
        <time>2022-04-17T09:39:00Z</time>
        <extensions>
          <gpxtpx:TrackPointExtension xmlns:gpxtpx="http://www.garmin.com/xmlschemas/TrackPointExtension/v1">
            <gpxtpx:hr>133</gpxtpx:hr>
          </gpxtpx:TrackPointExtension>
        </extensions>
      </trkpt>
      <trkpt lat="46.56015" lon="0.21483">
        <ele>153.60000610352</ele>
        <time>2022-04-17T09:39:04Z</time>
        <extensions>
          <gpxtpx:TrackPointExtension xmlns:gpxtpx="http://www.garmin.com/xmlschemas/TrackPointExtension/v1">
            <gpxtpx:hr>133</gpxtpx:hr>
          </gpxtpx:TrackPointExtension>
        </extensions>
      </trkpt>
      <trkpt lat="46.56012" lon="0.21482">
        <ele>153.60000610352</ele>
        <time>2022-04-17T09:39:05Z</time>
        <extensions>
          <gpxtpx:TrackPointExtension xmlns:gpxtpx="http://www.garmin.com/xmlschemas/TrackPointExtension/v1">
            <gpxtpx:hr>133</gpxtpx:hr>
          </gpxtpx:TrackPointExtension>
        </extensions>
      </trkpt>
      <trkpt lat="46.56008" lon="0.21482">
        <ele>153.60000610352</ele>
        <time>2022-04-17T09:39:06Z</time>
        <extensions>
          <gpxtpx:TrackPointExtension xmlns:gpxtpx="http://www.garmin.com/xmlschemas/TrackPointExtension/v1">
            <gpxtpx:hr>133</gpxtpx:hr>
          </gpxtpx:TrackPointExtension>
        </extensions>
      </trkpt>
      <trkpt lat="46.56004" lon="0.21481">
        <ele>153.80000305176</ele>
        <time>2022-04-17T09:39:07Z</time>
        <extensions>
          <gpxtpx:TrackPointExtension xmlns:gpxtpx="http://www.garmin.com/xmlschemas/TrackPointExtension/v1">
            <gpxtpx:hr>132</gpxtpx:hr>
          </gpxtpx:TrackPointExtension>
        </extensions>
      </trkpt>
      <trkpt lat="46.56002" lon="0.21481">
        <ele>153.80000305176</ele>
        <time>2022-04-17T09:39:08Z</time>
        <extensions>
          <gpxtpx:TrackPointExtension xmlns:gpxtpx="http://www.garmin.com/xmlschemas/TrackPointExtension/v1">
            <gpxtpx:hr>132</gpxtpx:hr>
          </gpxtpx:TrackPointExtension>
        </extensions>
      </trkpt>
      <trkpt lat="46.55998" lon="0.2148">
        <ele>154</ele>
        <time>2022-04-17T09:39:09Z</time>
        <extensions>
          <gpxtpx:TrackPointExtension xmlns:gpxtpx="http://www.garmin.com/xmlschemas/TrackPointExtension/v1">
            <gpxtpx:hr>132</gpxtpx:hr>
          </gpxtpx:TrackPointExtension>
        </extensions>
      </trkpt>
      <trkpt lat="46.55983" lon="0.2148">
        <ele>154</ele>
        <time>2022-04-17T09:39:12Z</time>
        <extensions>
          <gpxtpx:TrackPointExtension xmlns:gpxtpx="http://www.garmin.com/xmlschemas/TrackPointExtension/v1">
            <gpxtpx:hr>131</gpxtpx:hr>
          </gpxtpx:TrackPointExtension>
        </extensions>
      </trkpt>
      <trkpt lat="46.55981" lon="0.2148">
        <ele>154</ele>
        <time>2022-04-17T09:39:13Z</time>
        <extensions>
          <gpxtpx:TrackPointExtension xmlns:gpxtpx="http://www.garmin.com/xmlschemas/TrackPointExtension/v1">
            <gpxtpx:hr>131</gpxtpx:hr>
          </gpxtpx:TrackPointExtension>
        </extensions>
      </trkpt>
      <trkpt lat="46.55977" lon="0.21479">
        <ele>154</ele>
        <time>2022-04-17T09:39:14Z</time>
        <extensions>
          <gpxtpx:TrackPointExtension xmlns:gpxtpx="http://www.garmin.com/xmlschemas/TrackPointExtension/v1">
            <gpxtpx:hr>131</gpxtpx:hr>
          </gpxtpx:TrackPointExtension>
        </extensions>
      </trkpt>
      <trkpt lat="46.55973" lon="0.21479">
        <ele>154.19999694824</ele>
        <time>2022-04-17T09:39:15Z</time>
        <extensions>
          <gpxtpx:TrackPointExtension xmlns:gpxtpx="http://www.garmin.com/xmlschemas/TrackPointExtension/v1">
            <gpxtpx:hr>131</gpxtpx:hr>
          </gpxtpx:TrackPointExtension>
        </extensions>
      </trkpt>
      <trkpt lat="46.55961" lon="0.21482">
        <ele>154.19999694824</ele>
        <time>2022-04-17T09:39:19Z</time>
        <extensions>
          <gpxtpx:TrackPointExtension xmlns:gpxtpx="http://www.garmin.com/xmlschemas/TrackPointExtension/v1">
            <gpxtpx:hr>129</gpxtpx:hr>
          </gpxtpx:TrackPointExtension>
        </extensions>
      </trkpt>
      <trkpt lat="46.5596" lon="0.21482">
        <ele>154.19999694824</ele>
        <time>2022-04-17T09:39:20Z</time>
        <extensions>
          <gpxtpx:TrackPointExtension xmlns:gpxtpx="http://www.garmin.com/xmlschemas/TrackPointExtension/v1">
            <gpxtpx:hr>129</gpxtpx:hr>
          </gpxtpx:TrackPointExtension>
        </extensions>
      </trkpt>
      <trkpt lat="46.55959" lon="0.21482">
        <ele>154.19999694824</ele>
        <time>2022-04-17T09:39:21Z</time>
        <extensions>
          <gpxtpx:TrackPointExtension xmlns:gpxtpx="http://www.garmin.com/xmlschemas/TrackPointExtension/v1">
            <gpxtpx:hr>129</gpxtpx:hr>
          </gpxtpx:TrackPointExtension>
        </extensions>
      </trkpt>
      <trkpt lat="46.55957" lon="0.21482">
        <ele>154.19999694824</ele>
        <time>2022-04-17T09:39:22Z</time>
        <extensions>
          <gpxtpx:TrackPointExtension xmlns:gpxtpx="http://www.garmin.com/xmlschemas/TrackPointExtension/v1">
            <gpxtpx:hr>129</gpxtpx:hr>
          </gpxtpx:TrackPointExtension>
        </extensions>
      </trkpt>
      <trkpt lat="46.55955" lon="0.21484">
        <ele>154.19999694824</ele>
        <time>2022-04-17T09:39:23Z</time>
        <extensions>
          <gpxtpx:TrackPointExtension xmlns:gpxtpx="http://www.garmin.com/xmlschemas/TrackPointExtension/v1">
            <gpxtpx:hr>130</gpxtpx:hr>
          </gpxtpx:TrackPointExtension>
        </extensions>
      </trkpt>
      <trkpt lat="46.55954" lon="0.21484">
        <ele>154.19999694824</ele>
        <time>2022-04-17T09:39:24Z</time>
        <extensions>
          <gpxtpx:TrackPointExtension xmlns:gpxtpx="http://www.garmin.com/xmlschemas/TrackPointExtension/v1">
            <gpxtpx:hr>130</gpxtpx:hr>
          </gpxtpx:TrackPointExtension>
        </extensions>
      </trkpt>
      <trkpt lat="46.55952" lon="0.21484">
        <ele>154</ele>
        <time>2022-04-17T09:39:25Z</time>
        <extensions>
          <gpxtpx:TrackPointExtension xmlns:gpxtpx="http://www.garmin.com/xmlschemas/TrackPointExtension/v1">
            <gpxtpx:hr>131</gpxtpx:hr>
          </gpxtpx:TrackPointExtension>
        </extensions>
      </trkpt>
      <trkpt lat="46.55949" lon="0.21484">
        <ele>154</ele>
        <time>2022-04-17T09:39:26Z</time>
        <extensions>
          <gpxtpx:TrackPointExtension xmlns:gpxtpx="http://www.garmin.com/xmlschemas/TrackPointExtension/v1">
            <gpxtpx:hr>130</gpxtpx:hr>
          </gpxtpx:TrackPointExtension>
        </extensions>
      </trkpt>
      <trkpt lat="46.55946" lon="0.21483">
        <ele>154</ele>
        <time>2022-04-17T09:39:27Z</time>
        <extensions>
          <gpxtpx:TrackPointExtension xmlns:gpxtpx="http://www.garmin.com/xmlschemas/TrackPointExtension/v1">
            <gpxtpx:hr>130</gpxtpx:hr>
          </gpxtpx:TrackPointExtension>
        </extensions>
      </trkpt>
      <trkpt lat="46.55943" lon="0.21483">
        <ele>154</ele>
        <time>2022-04-17T09:39:28Z</time>
        <extensions>
          <gpxtpx:TrackPointExtension xmlns:gpxtpx="http://www.garmin.com/xmlschemas/TrackPointExtension/v1">
            <gpxtpx:hr>130</gpxtpx:hr>
          </gpxtpx:TrackPointExtension>
        </extensions>
      </trkpt>
      <trkpt lat="46.55941" lon="0.21483">
        <ele>154</ele>
        <time>2022-04-17T09:39:29Z</time>
        <extensions>
          <gpxtpx:TrackPointExtension xmlns:gpxtpx="http://www.garmin.com/xmlschemas/TrackPointExtension/v1">
            <gpxtpx:hr>130</gpxtpx:hr>
          </gpxtpx:TrackPointExtension>
        </extensions>
      </trkpt>
      <trkpt lat="46.55939" lon="0.21483">
        <ele>154</ele>
        <time>2022-04-17T09:39:30Z</time>
        <extensions>
          <gpxtpx:TrackPointExtension xmlns:gpxtpx="http://www.garmin.com/xmlschemas/TrackPointExtension/v1">
            <gpxtpx:hr>129</gpxtpx:hr>
          </gpxtpx:TrackPointExtension>
        </extensions>
      </trkpt>
      <trkpt lat="46.55937" lon="0.21482">
        <ele>153.80000305176</ele>
        <time>2022-04-17T09:39:31Z</time>
        <extensions>
          <gpxtpx:TrackPointExtension xmlns:gpxtpx="http://www.garmin.com/xmlschemas/TrackPointExtension/v1">
            <gpxtpx:hr>128</gpxtpx:hr>
          </gpxtpx:TrackPointExtension>
        </extensions>
      </trkpt>
      <trkpt lat="46.55935" lon="0.21482">
        <ele>153.80000305176</ele>
        <time>2022-04-17T09:39:32Z</time>
        <extensions>
          <gpxtpx:TrackPointExtension xmlns:gpxtpx="http://www.garmin.com/xmlschemas/TrackPointExtension/v1">
            <gpxtpx:hr>125</gpxtpx:hr>
          </gpxtpx:TrackPointExtension>
        </extensions>
      </trkpt>
      <trkpt lat="46.55934" lon="0.21483">
        <ele>153.80000305176</ele>
        <time>2022-04-17T09:39:33Z</time>
        <extensions>
          <gpxtpx:TrackPointExtension xmlns:gpxtpx="http://www.garmin.com/xmlschemas/TrackPointExtension/v1">
            <gpxtpx:hr>123</gpxtpx:hr>
          </gpxtpx:TrackPointExtension>
        </extensions>
      </trkpt>
      <trkpt lat="46.55932" lon="0.21484">
        <ele>153.80000305176</ele>
        <time>2022-04-17T09:39:34Z</time>
        <extensions>
          <gpxtpx:TrackPointExtension xmlns:gpxtpx="http://www.garmin.com/xmlschemas/TrackPointExtension/v1">
            <gpxtpx:hr>125</gpxtpx:hr>
          </gpxtpx:TrackPointExtension>
        </extensions>
      </trkpt>
      <trkpt lat="46.55932" lon="0.21486">
        <ele>153.80000305176</ele>
        <time>2022-04-17T09:39:35Z</time>
        <extensions>
          <gpxtpx:TrackPointExtension xmlns:gpxtpx="http://www.garmin.com/xmlschemas/TrackPointExtension/v1">
            <gpxtpx:hr>123</gpxtpx:hr>
          </gpxtpx:TrackPointExtension>
        </extensions>
      </trkpt>
      <trkpt lat="46.55932" lon="0.21487">
        <ele>153.80000305176</ele>
        <time>2022-04-17T09:39:36Z</time>
        <extensions>
          <gpxtpx:TrackPointExtension xmlns:gpxtpx="http://www.garmin.com/xmlschemas/TrackPointExtension/v1">
            <gpxtpx:hr>126</gpxtpx:hr>
          </gpxtpx:TrackPointExtension>
        </extensions>
      </trkpt>
      <trkpt lat="46.55933" lon="0.2149">
        <ele>153.80000305176</ele>
        <time>2022-04-17T09:39:37Z</time>
        <extensions>
          <gpxtpx:TrackPointExtension xmlns:gpxtpx="http://www.garmin.com/xmlschemas/TrackPointExtension/v1">
            <gpxtpx:hr>129</gpxtpx:hr>
          </gpxtpx:TrackPointExtension>
        </extensions>
      </trkpt>
      <trkpt lat="46.55934" lon="0.21494">
        <ele>153.80000305176</ele>
        <time>2022-04-17T09:39:38Z</time>
        <extensions>
          <gpxtpx:TrackPointExtension xmlns:gpxtpx="http://www.garmin.com/xmlschemas/TrackPointExtension/v1">
            <gpxtpx:hr>131</gpxtpx:hr>
          </gpxtpx:TrackPointExtension>
        </extensions>
      </trkpt>
      <trkpt lat="46.55938" lon="0.21504">
        <ele>153.80000305176</ele>
        <time>2022-04-17T09:39:41Z</time>
        <extensions>
          <gpxtpx:TrackPointExtension xmlns:gpxtpx="http://www.garmin.com/xmlschemas/TrackPointExtension/v1">
            <gpxtpx:hr>134</gpxtpx:hr>
          </gpxtpx:TrackPointExtension>
        </extensions>
      </trkpt>
      <trkpt lat="46.5594" lon="0.21508">
        <ele>153.80000305176</ele>
        <time>2022-04-17T09:39:42Z</time>
        <extensions>
          <gpxtpx:TrackPointExtension xmlns:gpxtpx="http://www.garmin.com/xmlschemas/TrackPointExtension/v1">
            <gpxtpx:hr>133</gpxtpx:hr>
          </gpxtpx:TrackPointExtension>
        </extensions>
      </trkpt>
      <trkpt lat="46.55953" lon="0.21523">
        <ele>153.80000305176</ele>
        <time>2022-04-17T09:39:47Z</time>
        <extensions>
          <gpxtpx:TrackPointExtension xmlns:gpxtpx="http://www.garmin.com/xmlschemas/TrackPointExtension/v1">
            <gpxtpx:hr>132</gpxtpx:hr>
          </gpxtpx:TrackPointExtension>
        </extensions>
      </trkpt>
      <trkpt lat="46.55956" lon="0.21524">
        <ele>154</ele>
        <time>2022-04-17T09:39:48Z</time>
        <extensions>
          <gpxtpx:TrackPointExtension xmlns:gpxtpx="http://www.garmin.com/xmlschemas/TrackPointExtension/v1">
            <gpxtpx:hr>132</gpxtpx:hr>
          </gpxtpx:TrackPointExtension>
        </extensions>
      </trkpt>
      <trkpt lat="46.5596" lon="0.21526">
        <ele>154</ele>
        <time>2022-04-17T09:39:49Z</time>
        <extensions>
          <gpxtpx:TrackPointExtension xmlns:gpxtpx="http://www.garmin.com/xmlschemas/TrackPointExtension/v1">
            <gpxtpx:hr>133</gpxtpx:hr>
          </gpxtpx:TrackPointExtension>
        </extensions>
      </trkpt>
      <trkpt lat="46.55973" lon="0.21533">
        <ele>154.19999694824</ele>
        <time>2022-04-17T09:39:53Z</time>
        <extensions>
          <gpxtpx:TrackPointExtension xmlns:gpxtpx="http://www.garmin.com/xmlschemas/TrackPointExtension/v1">
            <gpxtpx:hr>134</gpxtpx:hr>
          </gpxtpx:TrackPointExtension>
        </extensions>
      </trkpt>
      <trkpt lat="46.55981" lon="0.21541">
        <ele>154.19999694824</ele>
        <time>2022-04-17T09:39:56Z</time>
        <extensions>
          <gpxtpx:TrackPointExtension xmlns:gpxtpx="http://www.garmin.com/xmlschemas/TrackPointExtension/v1">
            <gpxtpx:hr>135</gpxtpx:hr>
          </gpxtpx:TrackPointExtension>
        </extensions>
      </trkpt>
      <trkpt lat="46.55982" lon="0.21542">
        <ele>154.19999694824</ele>
        <time>2022-04-17T09:39:57Z</time>
        <extensions>
          <gpxtpx:TrackPointExtension xmlns:gpxtpx="http://www.garmin.com/xmlschemas/TrackPointExtension/v1">
            <gpxtpx:hr>136</gpxtpx:hr>
          </gpxtpx:TrackPointExtension>
        </extensions>
      </trkpt>
      <trkpt lat="46.55985" lon="0.21546">
        <ele>154.19999694824</ele>
        <time>2022-04-17T09:39:58Z</time>
        <extensions>
          <gpxtpx:TrackPointExtension xmlns:gpxtpx="http://www.garmin.com/xmlschemas/TrackPointExtension/v1">
            <gpxtpx:hr>136</gpxtpx:hr>
          </gpxtpx:TrackPointExtension>
        </extensions>
      </trkpt>
      <trkpt lat="46.55986" lon="0.21548">
        <ele>154.19999694824</ele>
        <time>2022-04-17T09:39:59Z</time>
        <extensions>
          <gpxtpx:TrackPointExtension xmlns:gpxtpx="http://www.garmin.com/xmlschemas/TrackPointExtension/v1">
            <gpxtpx:hr>136</gpxtpx:hr>
          </gpxtpx:TrackPointExtension>
        </extensions>
      </trkpt>
      <trkpt lat="46.55996" lon="0.21558">
        <ele>154</ele>
        <time>2022-04-17T09:40:03Z</time>
        <extensions>
          <gpxtpx:TrackPointExtension xmlns:gpxtpx="http://www.garmin.com/xmlschemas/TrackPointExtension/v1">
            <gpxtpx:hr>134</gpxtpx:hr>
          </gpxtpx:TrackPointExtension>
        </extensions>
      </trkpt>
      <trkpt lat="46.56001" lon="0.21561">
        <ele>153.60000610352</ele>
        <time>2022-04-17T09:40:05Z</time>
        <extensions>
          <gpxtpx:TrackPointExtension xmlns:gpxtpx="http://www.garmin.com/xmlschemas/TrackPointExtension/v1">
            <gpxtpx:hr>131</gpxtpx:hr>
          </gpxtpx:TrackPointExtension>
        </extensions>
      </trkpt>
      <trkpt lat="46.56004" lon="0.21564">
        <ele>153.60000610352</ele>
        <time>2022-04-17T09:40:06Z</time>
        <extensions>
          <gpxtpx:TrackPointExtension xmlns:gpxtpx="http://www.garmin.com/xmlschemas/TrackPointExtension/v1">
            <gpxtpx:hr>130</gpxtpx:hr>
          </gpxtpx:TrackPointExtension>
        </extensions>
      </trkpt>
      <trkpt lat="46.56008" lon="0.21571">
        <ele>153.39999389648</ele>
        <time>2022-04-17T09:40:08Z</time>
        <extensions>
          <gpxtpx:TrackPointExtension xmlns:gpxtpx="http://www.garmin.com/xmlschemas/TrackPointExtension/v1">
            <gpxtpx:hr>129</gpxtpx:hr>
          </gpxtpx:TrackPointExtension>
        </extensions>
      </trkpt>
      <trkpt lat="46.56011" lon="0.21576">
        <ele>153.39999389648</ele>
        <time>2022-04-17T09:40:09Z</time>
        <extensions>
          <gpxtpx:TrackPointExtension xmlns:gpxtpx="http://www.garmin.com/xmlschemas/TrackPointExtension/v1">
            <gpxtpx:hr>130</gpxtpx:hr>
          </gpxtpx:TrackPointExtension>
        </extensions>
      </trkpt>
      <trkpt lat="46.56014" lon="0.2158">
        <ele>153.39999389648</ele>
        <time>2022-04-17T09:40:10Z</time>
        <extensions>
          <gpxtpx:TrackPointExtension xmlns:gpxtpx="http://www.garmin.com/xmlschemas/TrackPointExtension/v1">
            <gpxtpx:hr>129</gpxtpx:hr>
          </gpxtpx:TrackPointExtension>
        </extensions>
      </trkpt>
      <trkpt lat="46.56019" lon="0.2159">
        <ele>153.19999694824</ele>
        <time>2022-04-17T09:40:12Z</time>
        <extensions>
          <gpxtpx:TrackPointExtension xmlns:gpxtpx="http://www.garmin.com/xmlschemas/TrackPointExtension/v1">
            <gpxtpx:hr>128</gpxtpx:hr>
          </gpxtpx:TrackPointExtension>
        </extensions>
      </trkpt>
      <trkpt lat="46.56021" lon="0.21598">
        <ele>152.80000305176</ele>
        <time>2022-04-17T09:40:14Z</time>
        <extensions>
          <gpxtpx:TrackPointExtension xmlns:gpxtpx="http://www.garmin.com/xmlschemas/TrackPointExtension/v1">
            <gpxtpx:hr>129</gpxtpx:hr>
          </gpxtpx:TrackPointExtension>
        </extensions>
      </trkpt>
      <trkpt lat="46.56023" lon="0.21602">
        <ele>152.80000305176</ele>
        <time>2022-04-17T09:40:15Z</time>
        <extensions>
          <gpxtpx:TrackPointExtension xmlns:gpxtpx="http://www.garmin.com/xmlschemas/TrackPointExtension/v1">
            <gpxtpx:hr>130</gpxtpx:hr>
          </gpxtpx:TrackPointExtension>
        </extensions>
      </trkpt>
      <trkpt lat="46.56025" lon="0.21605">
        <ele>152.80000305176</ele>
        <time>2022-04-17T09:40:16Z</time>
        <extensions>
          <gpxtpx:TrackPointExtension xmlns:gpxtpx="http://www.garmin.com/xmlschemas/TrackPointExtension/v1">
            <gpxtpx:hr>130</gpxtpx:hr>
          </gpxtpx:TrackPointExtension>
        </extensions>
      </trkpt>
      <trkpt lat="46.56026" lon="0.21608">
        <ele>152.80000305176</ele>
        <time>2022-04-17T09:40:17Z</time>
        <extensions>
          <gpxtpx:TrackPointExtension xmlns:gpxtpx="http://www.garmin.com/xmlschemas/TrackPointExtension/v1">
            <gpxtpx:hr>134</gpxtpx:hr>
          </gpxtpx:TrackPointExtension>
        </extensions>
      </trkpt>
      <trkpt lat="46.56028" lon="0.21612">
        <ele>152.60000610352</ele>
        <time>2022-04-17T09:40:18Z</time>
        <extensions>
          <gpxtpx:TrackPointExtension xmlns:gpxtpx="http://www.garmin.com/xmlschemas/TrackPointExtension/v1">
            <gpxtpx:hr>134</gpxtpx:hr>
          </gpxtpx:TrackPointExtension>
        </extensions>
      </trkpt>
      <trkpt lat="46.5603" lon="0.21616">
        <ele>152.60000610352</ele>
        <time>2022-04-17T09:40:19Z</time>
        <extensions>
          <gpxtpx:TrackPointExtension xmlns:gpxtpx="http://www.garmin.com/xmlschemas/TrackPointExtension/v1">
            <gpxtpx:hr>135</gpxtpx:hr>
          </gpxtpx:TrackPointExtension>
        </extensions>
      </trkpt>
      <trkpt lat="46.56033" lon="0.21621">
        <ele>152.60000610352</ele>
        <time>2022-04-17T09:40:20Z</time>
        <extensions>
          <gpxtpx:TrackPointExtension xmlns:gpxtpx="http://www.garmin.com/xmlschemas/TrackPointExtension/v1">
            <gpxtpx:hr>136</gpxtpx:hr>
          </gpxtpx:TrackPointExtension>
        </extensions>
      </trkpt>
      <trkpt lat="46.56036" lon="0.21625">
        <ele>152.39999389648</ele>
        <time>2022-04-17T09:40:21Z</time>
        <extensions>
          <gpxtpx:TrackPointExtension xmlns:gpxtpx="http://www.garmin.com/xmlschemas/TrackPointExtension/v1">
            <gpxtpx:hr>136</gpxtpx:hr>
          </gpxtpx:TrackPointExtension>
        </extensions>
      </trkpt>
      <trkpt lat="46.56038" lon="0.2163">
        <ele>152.39999389648</ele>
        <time>2022-04-17T09:40:22Z</time>
        <extensions>
          <gpxtpx:TrackPointExtension xmlns:gpxtpx="http://www.garmin.com/xmlschemas/TrackPointExtension/v1">
            <gpxtpx:hr>136</gpxtpx:hr>
          </gpxtpx:TrackPointExtension>
        </extensions>
      </trkpt>
      <trkpt lat="46.56047" lon="0.21653">
        <ele>151.39999389648</ele>
        <time>2022-04-17T09:40:26Z</time>
        <extensions>
          <gpxtpx:TrackPointExtension xmlns:gpxtpx="http://www.garmin.com/xmlschemas/TrackPointExtension/v1">
            <gpxtpx:hr>134</gpxtpx:hr>
          </gpxtpx:TrackPointExtension>
        </extensions>
      </trkpt>
      <trkpt lat="46.5605" lon="0.21658">
        <ele>151.39999389648</ele>
        <time>2022-04-17T09:40:27Z</time>
        <extensions>
          <gpxtpx:TrackPointExtension xmlns:gpxtpx="http://www.garmin.com/xmlschemas/TrackPointExtension/v1">
            <gpxtpx:hr>133</gpxtpx:hr>
          </gpxtpx:TrackPointExtension>
        </extensions>
      </trkpt>
      <trkpt lat="46.56053" lon="0.21671">
        <ele>150.60000610352</ele>
        <time>2022-04-17T09:40:30Z</time>
        <extensions>
          <gpxtpx:TrackPointExtension xmlns:gpxtpx="http://www.garmin.com/xmlschemas/TrackPointExtension/v1">
            <gpxtpx:hr>133</gpxtpx:hr>
          </gpxtpx:TrackPointExtension>
        </extensions>
      </trkpt>
      <trkpt lat="46.56054" lon="0.21675">
        <ele>150.39999389648</ele>
        <time>2022-04-17T09:40:31Z</time>
        <extensions>
          <gpxtpx:TrackPointExtension xmlns:gpxtpx="http://www.garmin.com/xmlschemas/TrackPointExtension/v1">
            <gpxtpx:hr>133</gpxtpx:hr>
          </gpxtpx:TrackPointExtension>
        </extensions>
      </trkpt>
      <trkpt lat="46.56054" lon="0.21679">
        <ele>150.19999694824</ele>
        <time>2022-04-17T09:40:32Z</time>
        <extensions>
          <gpxtpx:TrackPointExtension xmlns:gpxtpx="http://www.garmin.com/xmlschemas/TrackPointExtension/v1">
            <gpxtpx:hr>133</gpxtpx:hr>
          </gpxtpx:TrackPointExtension>
        </extensions>
      </trkpt>
      <trkpt lat="46.56055" lon="0.21682">
        <ele>150</ele>
        <time>2022-04-17T09:40:33Z</time>
        <extensions>
          <gpxtpx:TrackPointExtension xmlns:gpxtpx="http://www.garmin.com/xmlschemas/TrackPointExtension/v1">
            <gpxtpx:hr>133</gpxtpx:hr>
          </gpxtpx:TrackPointExtension>
        </extensions>
      </trkpt>
      <trkpt lat="46.56056" lon="0.21684">
        <ele>150</ele>
        <time>2022-04-17T09:40:34Z</time>
        <extensions>
          <gpxtpx:TrackPointExtension xmlns:gpxtpx="http://www.garmin.com/xmlschemas/TrackPointExtension/v1">
            <gpxtpx:hr>133</gpxtpx:hr>
          </gpxtpx:TrackPointExtension>
        </extensions>
      </trkpt>
      <trkpt lat="46.56057" lon="0.21686">
        <ele>149.80000305176</ele>
        <time>2022-04-17T09:40:35Z</time>
        <extensions>
          <gpxtpx:TrackPointExtension xmlns:gpxtpx="http://www.garmin.com/xmlschemas/TrackPointExtension/v1">
            <gpxtpx:hr>133</gpxtpx:hr>
          </gpxtpx:TrackPointExtension>
        </extensions>
      </trkpt>
      <trkpt lat="46.56058" lon="0.21688">
        <ele>149.80000305176</ele>
        <time>2022-04-17T09:40:36Z</time>
        <extensions>
          <gpxtpx:TrackPointExtension xmlns:gpxtpx="http://www.garmin.com/xmlschemas/TrackPointExtension/v1">
            <gpxtpx:hr>133</gpxtpx:hr>
          </gpxtpx:TrackPointExtension>
        </extensions>
      </trkpt>
      <trkpt lat="46.56059" lon="0.2169">
        <ele>149.60000610352</ele>
        <time>2022-04-17T09:40:37Z</time>
        <extensions>
          <gpxtpx:TrackPointExtension xmlns:gpxtpx="http://www.garmin.com/xmlschemas/TrackPointExtension/v1">
            <gpxtpx:hr>133</gpxtpx:hr>
          </gpxtpx:TrackPointExtension>
        </extensions>
      </trkpt>
      <trkpt lat="46.5606" lon="0.21692">
        <ele>149.39999389648</ele>
        <time>2022-04-17T09:40:38Z</time>
        <extensions>
          <gpxtpx:TrackPointExtension xmlns:gpxtpx="http://www.garmin.com/xmlschemas/TrackPointExtension/v1">
            <gpxtpx:hr>134</gpxtpx:hr>
          </gpxtpx:TrackPointExtension>
        </extensions>
      </trkpt>
      <trkpt lat="46.56061" lon="0.21695">
        <ele>149</ele>
        <time>2022-04-17T09:40:39Z</time>
        <extensions>
          <gpxtpx:TrackPointExtension xmlns:gpxtpx="http://www.garmin.com/xmlschemas/TrackPointExtension/v1">
            <gpxtpx:hr>134</gpxtpx:hr>
          </gpxtpx:TrackPointExtension>
        </extensions>
      </trkpt>
      <trkpt lat="46.56061" lon="0.217">
        <ele>148.39999389648</ele>
        <time>2022-04-17T09:40:41Z</time>
        <extensions>
          <gpxtpx:TrackPointExtension xmlns:gpxtpx="http://www.garmin.com/xmlschemas/TrackPointExtension/v1">
            <gpxtpx:hr>135</gpxtpx:hr>
          </gpxtpx:TrackPointExtension>
        </extensions>
      </trkpt>
      <trkpt lat="46.56061" lon="0.21702">
        <ele>148.39999389648</ele>
        <time>2022-04-17T09:40:42Z</time>
        <extensions>
          <gpxtpx:TrackPointExtension xmlns:gpxtpx="http://www.garmin.com/xmlschemas/TrackPointExtension/v1">
            <gpxtpx:hr>135</gpxtpx:hr>
          </gpxtpx:TrackPointExtension>
        </extensions>
      </trkpt>
      <trkpt lat="46.5606" lon="0.21704">
        <ele>148.19999694824</ele>
        <time>2022-04-17T09:40:43Z</time>
        <extensions>
          <gpxtpx:TrackPointExtension xmlns:gpxtpx="http://www.garmin.com/xmlschemas/TrackPointExtension/v1">
            <gpxtpx:hr>135</gpxtpx:hr>
          </gpxtpx:TrackPointExtension>
        </extensions>
      </trkpt>
      <trkpt lat="46.5606" lon="0.21706">
        <ele>148</ele>
        <time>2022-04-17T09:40:44Z</time>
        <extensions>
          <gpxtpx:TrackPointExtension xmlns:gpxtpx="http://www.garmin.com/xmlschemas/TrackPointExtension/v1">
            <gpxtpx:hr>136</gpxtpx:hr>
          </gpxtpx:TrackPointExtension>
        </extensions>
      </trkpt>
      <trkpt lat="46.5606" lon="0.21707">
        <ele>148</ele>
        <time>2022-04-17T09:40:45Z</time>
        <extensions>
          <gpxtpx:TrackPointExtension xmlns:gpxtpx="http://www.garmin.com/xmlschemas/TrackPointExtension/v1">
            <gpxtpx:hr>136</gpxtpx:hr>
          </gpxtpx:TrackPointExtension>
        </extensions>
      </trkpt>
      <trkpt lat="46.5606" lon="0.21708">
        <ele>147.39999389648</ele>
        <time>2022-04-17T09:40:46Z</time>
        <extensions>
          <gpxtpx:TrackPointExtension xmlns:gpxtpx="http://www.garmin.com/xmlschemas/TrackPointExtension/v1">
            <gpxtpx:hr>136</gpxtpx:hr>
          </gpxtpx:TrackPointExtension>
        </extensions>
      </trkpt>
      <trkpt lat="46.5606" lon="0.2171">
        <ele>147.19999694824</ele>
        <time>2022-04-17T09:40:47Z</time>
        <extensions>
          <gpxtpx:TrackPointExtension xmlns:gpxtpx="http://www.garmin.com/xmlschemas/TrackPointExtension/v1">
            <gpxtpx:hr>136</gpxtpx:hr>
          </gpxtpx:TrackPointExtension>
        </extensions>
      </trkpt>
      <trkpt lat="46.56059" lon="0.2171">
        <ele>146.80000305176</ele>
        <time>2022-04-17T09:40:48Z</time>
        <extensions>
          <gpxtpx:TrackPointExtension xmlns:gpxtpx="http://www.garmin.com/xmlschemas/TrackPointExtension/v1">
            <gpxtpx:hr>137</gpxtpx:hr>
          </gpxtpx:TrackPointExtension>
        </extensions>
      </trkpt>
      <trkpt lat="46.56059" lon="0.21711">
        <ele>146.80000305176</ele>
        <time>2022-04-17T09:40:49Z</time>
        <extensions>
          <gpxtpx:TrackPointExtension xmlns:gpxtpx="http://www.garmin.com/xmlschemas/TrackPointExtension/v1">
            <gpxtpx:hr>137</gpxtpx:hr>
          </gpxtpx:TrackPointExtension>
        </extensions>
      </trkpt>
      <trkpt lat="46.56058" lon="0.21713">
        <ele>146.60000610352</ele>
        <time>2022-04-17T09:40:50Z</time>
        <extensions>
          <gpxtpx:TrackPointExtension xmlns:gpxtpx="http://www.garmin.com/xmlschemas/TrackPointExtension/v1">
            <gpxtpx:hr>138</gpxtpx:hr>
          </gpxtpx:TrackPointExtension>
        </extensions>
      </trkpt>
      <trkpt lat="46.56058" lon="0.21719">
        <ele>146.39999389648</ele>
        <time>2022-04-17T09:40:51Z</time>
        <extensions>
          <gpxtpx:TrackPointExtension xmlns:gpxtpx="http://www.garmin.com/xmlschemas/TrackPointExtension/v1">
            <gpxtpx:hr>138</gpxtpx:hr>
          </gpxtpx:TrackPointExtension>
        </extensions>
      </trkpt>
      <trkpt lat="46.56057" lon="0.21722">
        <ele>146.19999694824</ele>
        <time>2022-04-17T09:40:52Z</time>
        <extensions>
          <gpxtpx:TrackPointExtension xmlns:gpxtpx="http://www.garmin.com/xmlschemas/TrackPointExtension/v1">
            <gpxtpx:hr>139</gpxtpx:hr>
          </gpxtpx:TrackPointExtension>
        </extensions>
      </trkpt>
      <trkpt lat="46.56056" lon="0.21732">
        <ele>145.80000305176</ele>
        <time>2022-04-17T09:40:54Z</time>
        <extensions>
          <gpxtpx:TrackPointExtension xmlns:gpxtpx="http://www.garmin.com/xmlschemas/TrackPointExtension/v1">
            <gpxtpx:hr>139</gpxtpx:hr>
          </gpxtpx:TrackPointExtension>
        </extensions>
      </trkpt>
      <trkpt lat="46.56056" lon="0.21737">
        <ele>145.60000610352</ele>
        <time>2022-04-17T09:40:55Z</time>
        <extensions>
          <gpxtpx:TrackPointExtension xmlns:gpxtpx="http://www.garmin.com/xmlschemas/TrackPointExtension/v1">
            <gpxtpx:hr>138</gpxtpx:hr>
          </gpxtpx:TrackPointExtension>
        </extensions>
      </trkpt>
      <trkpt lat="46.56057" lon="0.21744">
        <ele>145.19999694824</ele>
        <time>2022-04-17T09:40:57Z</time>
        <extensions>
          <gpxtpx:TrackPointExtension xmlns:gpxtpx="http://www.garmin.com/xmlschemas/TrackPointExtension/v1">
            <gpxtpx:hr>139</gpxtpx:hr>
          </gpxtpx:TrackPointExtension>
        </extensions>
      </trkpt>
      <trkpt lat="46.56057" lon="0.21748">
        <ele>145</ele>
        <time>2022-04-17T09:40:58Z</time>
        <extensions>
          <gpxtpx:TrackPointExtension xmlns:gpxtpx="http://www.garmin.com/xmlschemas/TrackPointExtension/v1">
            <gpxtpx:hr>139</gpxtpx:hr>
          </gpxtpx:TrackPointExtension>
        </extensions>
      </trkpt>
      <trkpt lat="46.56058" lon="0.21751">
        <ele>144.60000610352</ele>
        <time>2022-04-17T09:40:59Z</time>
        <extensions>
          <gpxtpx:TrackPointExtension xmlns:gpxtpx="http://www.garmin.com/xmlschemas/TrackPointExtension/v1">
            <gpxtpx:hr>139</gpxtpx:hr>
          </gpxtpx:TrackPointExtension>
        </extensions>
      </trkpt>
      <trkpt lat="46.5606" lon="0.21756">
        <ele>144.19999694824</ele>
        <time>2022-04-17T09:41:00Z</time>
        <extensions>
          <gpxtpx:TrackPointExtension xmlns:gpxtpx="http://www.garmin.com/xmlschemas/TrackPointExtension/v1">
            <gpxtpx:hr>138</gpxtpx:hr>
          </gpxtpx:TrackPointExtension>
        </extensions>
      </trkpt>
      <trkpt lat="46.56061" lon="0.21759">
        <ele>144</ele>
        <time>2022-04-17T09:41:01Z</time>
        <extensions>
          <gpxtpx:TrackPointExtension xmlns:gpxtpx="http://www.garmin.com/xmlschemas/TrackPointExtension/v1">
            <gpxtpx:hr>139</gpxtpx:hr>
          </gpxtpx:TrackPointExtension>
        </extensions>
      </trkpt>
      <trkpt lat="46.56061" lon="0.21761">
        <ele>143.39999389648</ele>
        <time>2022-04-17T09:41:02Z</time>
        <extensions>
          <gpxtpx:TrackPointExtension xmlns:gpxtpx="http://www.garmin.com/xmlschemas/TrackPointExtension/v1">
            <gpxtpx:hr>139</gpxtpx:hr>
          </gpxtpx:TrackPointExtension>
        </extensions>
      </trkpt>
      <trkpt lat="46.56062" lon="0.21763">
        <ele>143.19999694824</ele>
        <time>2022-04-17T09:41:03Z</time>
        <extensions>
          <gpxtpx:TrackPointExtension xmlns:gpxtpx="http://www.garmin.com/xmlschemas/TrackPointExtension/v1">
            <gpxtpx:hr>137</gpxtpx:hr>
          </gpxtpx:TrackPointExtension>
        </extensions>
      </trkpt>
      <trkpt lat="46.56062" lon="0.21763">
        <ele>143</ele>
        <time>2022-04-17T09:41:04Z</time>
        <extensions>
          <gpxtpx:TrackPointExtension xmlns:gpxtpx="http://www.garmin.com/xmlschemas/TrackPointExtension/v1">
            <gpxtpx:hr>138</gpxtpx:hr>
          </gpxtpx:TrackPointExtension>
        </extensions>
      </trkpt>
      <trkpt lat="46.56054" lon="0.21774">
        <ele>142.80000305176</ele>
        <time>2022-04-17T09:41:47Z</time>
        <extensions>
          <gpxtpx:TrackPointExtension xmlns:gpxtpx="http://www.garmin.com/xmlschemas/TrackPointExtension/v1">
            <gpxtpx:hr>131</gpxtpx:hr>
          </gpxtpx:TrackPointExtension>
        </extensions>
      </trkpt>
      <trkpt lat="46.56051" lon="0.21778">
        <ele>142.80000305176</ele>
        <time>2022-04-17T09:41:48Z</time>
        <extensions>
          <gpxtpx:TrackPointExtension xmlns:gpxtpx="http://www.garmin.com/xmlschemas/TrackPointExtension/v1">
            <gpxtpx:hr>131</gpxtpx:hr>
          </gpxtpx:TrackPointExtension>
        </extensions>
      </trkpt>
      <trkpt lat="46.56046" lon="0.21785">
        <ele>142.80000305176</ele>
        <time>2022-04-17T09:41:50Z</time>
        <extensions>
          <gpxtpx:TrackPointExtension xmlns:gpxtpx="http://www.garmin.com/xmlschemas/TrackPointExtension/v1">
            <gpxtpx:hr>131</gpxtpx:hr>
          </gpxtpx:TrackPointExtension>
        </extensions>
      </trkpt>
      <trkpt lat="46.56045" lon="0.21788">
        <ele>143</ele>
        <time>2022-04-17T09:41:51Z</time>
        <extensions>
          <gpxtpx:TrackPointExtension xmlns:gpxtpx="http://www.garmin.com/xmlschemas/TrackPointExtension/v1">
            <gpxtpx:hr>131</gpxtpx:hr>
          </gpxtpx:TrackPointExtension>
        </extensions>
      </trkpt>
      <trkpt lat="46.56042" lon="0.21791">
        <ele>143</ele>
        <time>2022-04-17T09:41:52Z</time>
        <extensions>
          <gpxtpx:TrackPointExtension xmlns:gpxtpx="http://www.garmin.com/xmlschemas/TrackPointExtension/v1">
            <gpxtpx:hr>131</gpxtpx:hr>
          </gpxtpx:TrackPointExtension>
        </extensions>
      </trkpt>
      <trkpt lat="46.5604" lon="0.21795">
        <ele>143</ele>
        <time>2022-04-17T09:41:53Z</time>
        <extensions>
          <gpxtpx:TrackPointExtension xmlns:gpxtpx="http://www.garmin.com/xmlschemas/TrackPointExtension/v1">
            <gpxtpx:hr>132</gpxtpx:hr>
          </gpxtpx:TrackPointExtension>
        </extensions>
      </trkpt>
      <trkpt lat="46.56038" lon="0.21799">
        <ele>143</ele>
        <time>2022-04-17T09:41:54Z</time>
        <extensions>
          <gpxtpx:TrackPointExtension xmlns:gpxtpx="http://www.garmin.com/xmlschemas/TrackPointExtension/v1">
            <gpxtpx:hr>132</gpxtpx:hr>
          </gpxtpx:TrackPointExtension>
        </extensions>
      </trkpt>
      <trkpt lat="46.56035" lon="0.21802">
        <ele>143.19999694824</ele>
        <time>2022-04-17T09:41:55Z</time>
        <extensions>
          <gpxtpx:TrackPointExtension xmlns:gpxtpx="http://www.garmin.com/xmlschemas/TrackPointExtension/v1">
            <gpxtpx:hr>132</gpxtpx:hr>
          </gpxtpx:TrackPointExtension>
        </extensions>
      </trkpt>
      <trkpt lat="46.56033" lon="0.21806">
        <ele>143.39999389648</ele>
        <time>2022-04-17T09:41:56Z</time>
        <extensions>
          <gpxtpx:TrackPointExtension xmlns:gpxtpx="http://www.garmin.com/xmlschemas/TrackPointExtension/v1">
            <gpxtpx:hr>132</gpxtpx:hr>
          </gpxtpx:TrackPointExtension>
        </extensions>
      </trkpt>
      <trkpt lat="46.56032" lon="0.21809">
        <ele>143.60000610352</ele>
        <time>2022-04-17T09:41:57Z</time>
        <extensions>
          <gpxtpx:TrackPointExtension xmlns:gpxtpx="http://www.garmin.com/xmlschemas/TrackPointExtension/v1">
            <gpxtpx:hr>132</gpxtpx:hr>
          </gpxtpx:TrackPointExtension>
        </extensions>
      </trkpt>
      <trkpt lat="46.5603" lon="0.21812">
        <ele>143.60000610352</ele>
        <time>2022-04-17T09:41:58Z</time>
        <extensions>
          <gpxtpx:TrackPointExtension xmlns:gpxtpx="http://www.garmin.com/xmlschemas/TrackPointExtension/v1">
            <gpxtpx:hr>131</gpxtpx:hr>
          </gpxtpx:TrackPointExtension>
        </extensions>
      </trkpt>
      <trkpt lat="46.56029" lon="0.21816">
        <ele>143.80000305176</ele>
        <time>2022-04-17T09:41:59Z</time>
        <extensions>
          <gpxtpx:TrackPointExtension xmlns:gpxtpx="http://www.garmin.com/xmlschemas/TrackPointExtension/v1">
            <gpxtpx:hr>132</gpxtpx:hr>
          </gpxtpx:TrackPointExtension>
        </extensions>
      </trkpt>
      <trkpt lat="46.56027" lon="0.2182">
        <ele>144</ele>
        <time>2022-04-17T09:42:00Z</time>
        <extensions>
          <gpxtpx:TrackPointExtension xmlns:gpxtpx="http://www.garmin.com/xmlschemas/TrackPointExtension/v1">
            <gpxtpx:hr>133</gpxtpx:hr>
          </gpxtpx:TrackPointExtension>
        </extensions>
      </trkpt>
      <trkpt lat="46.56024" lon="0.21824">
        <ele>144.19999694824</ele>
        <time>2022-04-17T09:42:01Z</time>
        <extensions>
          <gpxtpx:TrackPointExtension xmlns:gpxtpx="http://www.garmin.com/xmlschemas/TrackPointExtension/v1">
            <gpxtpx:hr>133</gpxtpx:hr>
          </gpxtpx:TrackPointExtension>
        </extensions>
      </trkpt>
      <trkpt lat="46.56022" lon="0.21829">
        <ele>144.39999389648</ele>
        <time>2022-04-17T09:42:02Z</time>
        <extensions>
          <gpxtpx:TrackPointExtension xmlns:gpxtpx="http://www.garmin.com/xmlschemas/TrackPointExtension/v1">
            <gpxtpx:hr>134</gpxtpx:hr>
          </gpxtpx:TrackPointExtension>
        </extensions>
      </trkpt>
      <trkpt lat="46.56017" lon="0.21843">
        <ele>145</ele>
        <time>2022-04-17T09:42:05Z</time>
        <extensions>
          <gpxtpx:TrackPointExtension xmlns:gpxtpx="http://www.garmin.com/xmlschemas/TrackPointExtension/v1">
            <gpxtpx:hr>134</gpxtpx:hr>
          </gpxtpx:TrackPointExtension>
        </extensions>
      </trkpt>
      <trkpt lat="46.56014" lon="0.21851">
        <ele>145.19999694824</ele>
        <time>2022-04-17T09:42:07Z</time>
        <extensions>
          <gpxtpx:TrackPointExtension xmlns:gpxtpx="http://www.garmin.com/xmlschemas/TrackPointExtension/v1">
            <gpxtpx:hr>133</gpxtpx:hr>
          </gpxtpx:TrackPointExtension>
        </extensions>
      </trkpt>
      <trkpt lat="46.56013" lon="0.21862">
        <ele>145.60000610352</ele>
        <time>2022-04-17T09:42:09Z</time>
        <extensions>
          <gpxtpx:TrackPointExtension xmlns:gpxtpx="http://www.garmin.com/xmlschemas/TrackPointExtension/v1">
            <gpxtpx:hr>133</gpxtpx:hr>
          </gpxtpx:TrackPointExtension>
        </extensions>
      </trkpt>
      <trkpt lat="46.56013" lon="0.21865">
        <ele>145.80000305176</ele>
        <time>2022-04-17T09:42:10Z</time>
        <extensions>
          <gpxtpx:TrackPointExtension xmlns:gpxtpx="http://www.garmin.com/xmlschemas/TrackPointExtension/v1">
            <gpxtpx:hr>133</gpxtpx:hr>
          </gpxtpx:TrackPointExtension>
        </extensions>
      </trkpt>
      <trkpt lat="46.56013" lon="0.21871">
        <ele>146</ele>
        <time>2022-04-17T09:42:11Z</time>
        <extensions>
          <gpxtpx:TrackPointExtension xmlns:gpxtpx="http://www.garmin.com/xmlschemas/TrackPointExtension/v1">
            <gpxtpx:hr>133</gpxtpx:hr>
          </gpxtpx:TrackPointExtension>
        </extensions>
      </trkpt>
      <trkpt lat="46.56013" lon="0.21876">
        <ele>146</ele>
        <time>2022-04-17T09:42:12Z</time>
        <extensions>
          <gpxtpx:TrackPointExtension xmlns:gpxtpx="http://www.garmin.com/xmlschemas/TrackPointExtension/v1">
            <gpxtpx:hr>133</gpxtpx:hr>
          </gpxtpx:TrackPointExtension>
        </extensions>
      </trkpt>
      <trkpt lat="46.56013" lon="0.21881">
        <ele>146.39999389648</ele>
        <time>2022-04-17T09:42:13Z</time>
        <extensions>
          <gpxtpx:TrackPointExtension xmlns:gpxtpx="http://www.garmin.com/xmlschemas/TrackPointExtension/v1">
            <gpxtpx:hr>133</gpxtpx:hr>
          </gpxtpx:TrackPointExtension>
        </extensions>
      </trkpt>
      <trkpt lat="46.56013" lon="0.21885">
        <ele>146.39999389648</ele>
        <time>2022-04-17T09:42:14Z</time>
        <extensions>
          <gpxtpx:TrackPointExtension xmlns:gpxtpx="http://www.garmin.com/xmlschemas/TrackPointExtension/v1">
            <gpxtpx:hr>134</gpxtpx:hr>
          </gpxtpx:TrackPointExtension>
        </extensions>
      </trkpt>
      <trkpt lat="46.56013" lon="0.21889">
        <ele>147</ele>
        <time>2022-04-17T09:42:15Z</time>
        <extensions>
          <gpxtpx:TrackPointExtension xmlns:gpxtpx="http://www.garmin.com/xmlschemas/TrackPointExtension/v1">
            <gpxtpx:hr>134</gpxtpx:hr>
          </gpxtpx:TrackPointExtension>
        </extensions>
      </trkpt>
      <trkpt lat="46.56013" lon="0.21893">
        <ele>147</ele>
        <time>2022-04-17T09:42:16Z</time>
        <extensions>
          <gpxtpx:TrackPointExtension xmlns:gpxtpx="http://www.garmin.com/xmlschemas/TrackPointExtension/v1">
            <gpxtpx:hr>133</gpxtpx:hr>
          </gpxtpx:TrackPointExtension>
        </extensions>
      </trkpt>
      <trkpt lat="46.56013" lon="0.21897">
        <ele>147.39999389648</ele>
        <time>2022-04-17T09:42:17Z</time>
        <extensions>
          <gpxtpx:TrackPointExtension xmlns:gpxtpx="http://www.garmin.com/xmlschemas/TrackPointExtension/v1">
            <gpxtpx:hr>133</gpxtpx:hr>
          </gpxtpx:TrackPointExtension>
        </extensions>
      </trkpt>
      <trkpt lat="46.56013" lon="0.21901">
        <ele>147.80000305176</ele>
        <time>2022-04-17T09:42:18Z</time>
        <extensions>
          <gpxtpx:TrackPointExtension xmlns:gpxtpx="http://www.garmin.com/xmlschemas/TrackPointExtension/v1">
            <gpxtpx:hr>134</gpxtpx:hr>
          </gpxtpx:TrackPointExtension>
        </extensions>
      </trkpt>
      <trkpt lat="46.56013" lon="0.21903">
        <ele>148.60000610352</ele>
        <time>2022-04-17T09:42:19Z</time>
        <extensions>
          <gpxtpx:TrackPointExtension xmlns:gpxtpx="http://www.garmin.com/xmlschemas/TrackPointExtension/v1">
            <gpxtpx:hr>133</gpxtpx:hr>
          </gpxtpx:TrackPointExtension>
        </extensions>
      </trkpt>
      <trkpt lat="46.56012" lon="0.21906">
        <ele>149</ele>
        <time>2022-04-17T09:42:20Z</time>
        <extensions>
          <gpxtpx:TrackPointExtension xmlns:gpxtpx="http://www.garmin.com/xmlschemas/TrackPointExtension/v1">
            <gpxtpx:hr>132</gpxtpx:hr>
          </gpxtpx:TrackPointExtension>
        </extensions>
      </trkpt>
      <trkpt lat="46.56013" lon="0.21907">
        <ele>149</ele>
        <time>2022-04-17T09:42:21Z</time>
        <extensions>
          <gpxtpx:TrackPointExtension xmlns:gpxtpx="http://www.garmin.com/xmlschemas/TrackPointExtension/v1">
            <gpxtpx:hr>132</gpxtpx:hr>
          </gpxtpx:TrackPointExtension>
        </extensions>
      </trkpt>
      <trkpt lat="46.56016" lon="0.21908">
        <ele>149.19999694824</ele>
        <time>2022-04-17T09:42:22Z</time>
        <extensions>
          <gpxtpx:TrackPointExtension xmlns:gpxtpx="http://www.garmin.com/xmlschemas/TrackPointExtension/v1">
            <gpxtpx:hr>132</gpxtpx:hr>
          </gpxtpx:TrackPointExtension>
        </extensions>
      </trkpt>
      <trkpt lat="46.56018" lon="0.21908">
        <ele>149.39999389648</ele>
        <time>2022-04-17T09:42:23Z</time>
        <extensions>
          <gpxtpx:TrackPointExtension xmlns:gpxtpx="http://www.garmin.com/xmlschemas/TrackPointExtension/v1">
            <gpxtpx:hr>132</gpxtpx:hr>
          </gpxtpx:TrackPointExtension>
        </extensions>
      </trkpt>
      <trkpt lat="46.56021" lon="0.21906">
        <ele>149.60000610352</ele>
        <time>2022-04-17T09:42:24Z</time>
        <extensions>
          <gpxtpx:TrackPointExtension xmlns:gpxtpx="http://www.garmin.com/xmlschemas/TrackPointExtension/v1">
            <gpxtpx:hr>132</gpxtpx:hr>
          </gpxtpx:TrackPointExtension>
        </extensions>
      </trkpt>
      <trkpt lat="46.56023" lon="0.21906">
        <ele>149.60000610352</ele>
        <time>2022-04-17T09:42:25Z</time>
        <extensions>
          <gpxtpx:TrackPointExtension xmlns:gpxtpx="http://www.garmin.com/xmlschemas/TrackPointExtension/v1">
            <gpxtpx:hr>133</gpxtpx:hr>
          </gpxtpx:TrackPointExtension>
        </extensions>
      </trkpt>
      <trkpt lat="46.56024" lon="0.21905">
        <ele>150</ele>
        <time>2022-04-17T09:42:26Z</time>
        <extensions>
          <gpxtpx:TrackPointExtension xmlns:gpxtpx="http://www.garmin.com/xmlschemas/TrackPointExtension/v1">
            <gpxtpx:hr>133</gpxtpx:hr>
          </gpxtpx:TrackPointExtension>
        </extensions>
      </trkpt>
      <trkpt lat="46.56026" lon="0.21905">
        <ele>150.19999694824</ele>
        <time>2022-04-17T09:42:27Z</time>
        <extensions>
          <gpxtpx:TrackPointExtension xmlns:gpxtpx="http://www.garmin.com/xmlschemas/TrackPointExtension/v1">
            <gpxtpx:hr>133</gpxtpx:hr>
          </gpxtpx:TrackPointExtension>
        </extensions>
      </trkpt>
      <trkpt lat="46.56028" lon="0.21904">
        <ele>150.39999389648</ele>
        <time>2022-04-17T09:42:28Z</time>
        <extensions>
          <gpxtpx:TrackPointExtension xmlns:gpxtpx="http://www.garmin.com/xmlschemas/TrackPointExtension/v1">
            <gpxtpx:hr>134</gpxtpx:hr>
          </gpxtpx:TrackPointExtension>
        </extensions>
      </trkpt>
      <trkpt lat="46.5603" lon="0.21904">
        <ele>150.60000610352</ele>
        <time>2022-04-17T09:42:29Z</time>
        <extensions>
          <gpxtpx:TrackPointExtension xmlns:gpxtpx="http://www.garmin.com/xmlschemas/TrackPointExtension/v1">
            <gpxtpx:hr>134</gpxtpx:hr>
          </gpxtpx:TrackPointExtension>
        </extensions>
      </trkpt>
      <trkpt lat="46.56032" lon="0.21904">
        <ele>150.60000610352</ele>
        <time>2022-04-17T09:42:30Z</time>
        <extensions>
          <gpxtpx:TrackPointExtension xmlns:gpxtpx="http://www.garmin.com/xmlschemas/TrackPointExtension/v1">
            <gpxtpx:hr>134</gpxtpx:hr>
          </gpxtpx:TrackPointExtension>
        </extensions>
      </trkpt>
      <trkpt lat="46.56034" lon="0.21904">
        <ele>150.80000305176</ele>
        <time>2022-04-17T09:42:31Z</time>
        <extensions>
          <gpxtpx:TrackPointExtension xmlns:gpxtpx="http://www.garmin.com/xmlschemas/TrackPointExtension/v1">
            <gpxtpx:hr>134</gpxtpx:hr>
          </gpxtpx:TrackPointExtension>
        </extensions>
      </trkpt>
      <trkpt lat="46.56036" lon="0.21904">
        <ele>150.80000305176</ele>
        <time>2022-04-17T09:42:32Z</time>
        <extensions>
          <gpxtpx:TrackPointExtension xmlns:gpxtpx="http://www.garmin.com/xmlschemas/TrackPointExtension/v1">
            <gpxtpx:hr>134</gpxtpx:hr>
          </gpxtpx:TrackPointExtension>
        </extensions>
      </trkpt>
      <trkpt lat="46.56037" lon="0.21904">
        <ele>151</ele>
        <time>2022-04-17T09:42:33Z</time>
        <extensions>
          <gpxtpx:TrackPointExtension xmlns:gpxtpx="http://www.garmin.com/xmlschemas/TrackPointExtension/v1">
            <gpxtpx:hr>134</gpxtpx:hr>
          </gpxtpx:TrackPointExtension>
        </extensions>
      </trkpt>
      <trkpt lat="46.56039" lon="0.21904">
        <ele>151</ele>
        <time>2022-04-17T09:42:34Z</time>
        <extensions>
          <gpxtpx:TrackPointExtension xmlns:gpxtpx="http://www.garmin.com/xmlschemas/TrackPointExtension/v1">
            <gpxtpx:hr>134</gpxtpx:hr>
          </gpxtpx:TrackPointExtension>
        </extensions>
      </trkpt>
      <trkpt lat="46.5604" lon="0.21904">
        <ele>151.19999694824</ele>
        <time>2022-04-17T09:42:35Z</time>
        <extensions>
          <gpxtpx:TrackPointExtension xmlns:gpxtpx="http://www.garmin.com/xmlschemas/TrackPointExtension/v1">
            <gpxtpx:hr>134</gpxtpx:hr>
          </gpxtpx:TrackPointExtension>
        </extensions>
      </trkpt>
      <trkpt lat="46.56042" lon="0.21904">
        <ele>151.19999694824</ele>
        <time>2022-04-17T09:42:36Z</time>
        <extensions>
          <gpxtpx:TrackPointExtension xmlns:gpxtpx="http://www.garmin.com/xmlschemas/TrackPointExtension/v1">
            <gpxtpx:hr>134</gpxtpx:hr>
          </gpxtpx:TrackPointExtension>
        </extensions>
      </trkpt>
      <trkpt lat="46.56044" lon="0.21904">
        <ele>151.39999389648</ele>
        <time>2022-04-17T09:42:37Z</time>
        <extensions>
          <gpxtpx:TrackPointExtension xmlns:gpxtpx="http://www.garmin.com/xmlschemas/TrackPointExtension/v1">
            <gpxtpx:hr>135</gpxtpx:hr>
          </gpxtpx:TrackPointExtension>
        </extensions>
      </trkpt>
      <trkpt lat="46.56047" lon="0.21904">
        <ele>151.39999389648</ele>
        <time>2022-04-17T09:42:38Z</time>
        <extensions>
          <gpxtpx:TrackPointExtension xmlns:gpxtpx="http://www.garmin.com/xmlschemas/TrackPointExtension/v1">
            <gpxtpx:hr>135</gpxtpx:hr>
          </gpxtpx:TrackPointExtension>
        </extensions>
      </trkpt>
      <trkpt lat="46.5605" lon="0.21903">
        <ele>151.60000610352</ele>
        <time>2022-04-17T09:42:39Z</time>
        <extensions>
          <gpxtpx:TrackPointExtension xmlns:gpxtpx="http://www.garmin.com/xmlschemas/TrackPointExtension/v1">
            <gpxtpx:hr>136</gpxtpx:hr>
          </gpxtpx:TrackPointExtension>
        </extensions>
      </trkpt>
      <trkpt lat="46.56052" lon="0.21902">
        <ele>151.60000610352</ele>
        <time>2022-04-17T09:42:40Z</time>
        <extensions>
          <gpxtpx:TrackPointExtension xmlns:gpxtpx="http://www.garmin.com/xmlschemas/TrackPointExtension/v1">
            <gpxtpx:hr>137</gpxtpx:hr>
          </gpxtpx:TrackPointExtension>
        </extensions>
      </trkpt>
      <trkpt lat="46.56055" lon="0.21901">
        <ele>151.60000610352</ele>
        <time>2022-04-17T09:42:41Z</time>
        <extensions>
          <gpxtpx:TrackPointExtension xmlns:gpxtpx="http://www.garmin.com/xmlschemas/TrackPointExtension/v1">
            <gpxtpx:hr>137</gpxtpx:hr>
          </gpxtpx:TrackPointExtension>
        </extensions>
      </trkpt>
      <trkpt lat="46.56058" lon="0.21901">
        <ele>151.60000610352</ele>
        <time>2022-04-17T09:42:42Z</time>
        <extensions>
          <gpxtpx:TrackPointExtension xmlns:gpxtpx="http://www.garmin.com/xmlschemas/TrackPointExtension/v1">
            <gpxtpx:hr>137</gpxtpx:hr>
          </gpxtpx:TrackPointExtension>
        </extensions>
      </trkpt>
      <trkpt lat="46.56061" lon="0.219">
        <ele>151.80000305176</ele>
        <time>2022-04-17T09:42:43Z</time>
        <extensions>
          <gpxtpx:TrackPointExtension xmlns:gpxtpx="http://www.garmin.com/xmlschemas/TrackPointExtension/v1">
            <gpxtpx:hr>136</gpxtpx:hr>
          </gpxtpx:TrackPointExtension>
        </extensions>
      </trkpt>
      <trkpt lat="46.56064" lon="0.219">
        <ele>151.80000305176</ele>
        <time>2022-04-17T09:42:44Z</time>
        <extensions>
          <gpxtpx:TrackPointExtension xmlns:gpxtpx="http://www.garmin.com/xmlschemas/TrackPointExtension/v1">
            <gpxtpx:hr>136</gpxtpx:hr>
          </gpxtpx:TrackPointExtension>
        </extensions>
      </trkpt>
      <trkpt lat="46.56068" lon="0.21899">
        <ele>151.80000305176</ele>
        <time>2022-04-17T09:42:45Z</time>
        <extensions>
          <gpxtpx:TrackPointExtension xmlns:gpxtpx="http://www.garmin.com/xmlschemas/TrackPointExtension/v1">
            <gpxtpx:hr>137</gpxtpx:hr>
          </gpxtpx:TrackPointExtension>
        </extensions>
      </trkpt>
      <trkpt lat="46.56071" lon="0.21898">
        <ele>151.80000305176</ele>
        <time>2022-04-17T09:42:46Z</time>
        <extensions>
          <gpxtpx:TrackPointExtension xmlns:gpxtpx="http://www.garmin.com/xmlschemas/TrackPointExtension/v1">
            <gpxtpx:hr>139</gpxtpx:hr>
          </gpxtpx:TrackPointExtension>
        </extensions>
      </trkpt>
      <trkpt lat="46.56073" lon="0.21897">
        <ele>151.80000305176</ele>
        <time>2022-04-17T09:42:47Z</time>
        <extensions>
          <gpxtpx:TrackPointExtension xmlns:gpxtpx="http://www.garmin.com/xmlschemas/TrackPointExtension/v1">
            <gpxtpx:hr>139</gpxtpx:hr>
          </gpxtpx:TrackPointExtension>
        </extensions>
      </trkpt>
      <trkpt lat="46.56072" lon="0.21888">
        <ele>151.80000305176</ele>
        <time>2022-04-17T09:43:21Z</time>
        <extensions>
          <gpxtpx:TrackPointExtension xmlns:gpxtpx="http://www.garmin.com/xmlschemas/TrackPointExtension/v1">
            <gpxtpx:hr>141</gpxtpx:hr>
          </gpxtpx:TrackPointExtension>
        </extensions>
      </trkpt>
      <trkpt lat="46.56072" lon="0.21887">
        <ele>151.80000305176</ele>
        <time>2022-04-17T09:43:22Z</time>
        <extensions>
          <gpxtpx:TrackPointExtension xmlns:gpxtpx="http://www.garmin.com/xmlschemas/TrackPointExtension/v1">
            <gpxtpx:hr>141</gpxtpx:hr>
          </gpxtpx:TrackPointExtension>
        </extensions>
      </trkpt>
      <trkpt lat="46.56073" lon="0.21886">
        <ele>151.80000305176</ele>
        <time>2022-04-17T09:43:23Z</time>
        <extensions>
          <gpxtpx:TrackPointExtension xmlns:gpxtpx="http://www.garmin.com/xmlschemas/TrackPointExtension/v1">
            <gpxtpx:hr>141</gpxtpx:hr>
          </gpxtpx:TrackPointExtension>
        </extensions>
      </trkpt>
      <trkpt lat="46.56073" lon="0.21884">
        <ele>151.80000305176</ele>
        <time>2022-04-17T09:43:24Z</time>
        <extensions>
          <gpxtpx:TrackPointExtension xmlns:gpxtpx="http://www.garmin.com/xmlschemas/TrackPointExtension/v1">
            <gpxtpx:hr>141</gpxtpx:hr>
          </gpxtpx:TrackPointExtension>
        </extensions>
      </trkpt>
      <trkpt lat="46.56073" lon="0.21883">
        <ele>151.80000305176</ele>
        <time>2022-04-17T09:43:25Z</time>
        <extensions>
          <gpxtpx:TrackPointExtension xmlns:gpxtpx="http://www.garmin.com/xmlschemas/TrackPointExtension/v1">
            <gpxtpx:hr>142</gpxtpx:hr>
          </gpxtpx:TrackPointExtension>
        </extensions>
      </trkpt>
      <trkpt lat="46.56074" lon="0.21882">
        <ele>151.60000610352</ele>
        <time>2022-04-17T09:43:26Z</time>
        <extensions>
          <gpxtpx:TrackPointExtension xmlns:gpxtpx="http://www.garmin.com/xmlschemas/TrackPointExtension/v1">
            <gpxtpx:hr>142</gpxtpx:hr>
          </gpxtpx:TrackPointExtension>
        </extensions>
      </trkpt>
      <trkpt lat="46.56074" lon="0.21881">
        <ele>151.60000610352</ele>
        <time>2022-04-17T09:43:27Z</time>
        <extensions>
          <gpxtpx:TrackPointExtension xmlns:gpxtpx="http://www.garmin.com/xmlschemas/TrackPointExtension/v1">
            <gpxtpx:hr>143</gpxtpx:hr>
          </gpxtpx:TrackPointExtension>
        </extensions>
      </trkpt>
      <trkpt lat="46.56075" lon="0.21879">
        <ele>151.60000610352</ele>
        <time>2022-04-17T09:43:28Z</time>
        <extensions>
          <gpxtpx:TrackPointExtension xmlns:gpxtpx="http://www.garmin.com/xmlschemas/TrackPointExtension/v1">
            <gpxtpx:hr>143</gpxtpx:hr>
          </gpxtpx:TrackPointExtension>
        </extensions>
      </trkpt>
      <trkpt lat="46.56075" lon="0.21878">
        <ele>151.60000610352</ele>
        <time>2022-04-17T09:43:29Z</time>
        <extensions>
          <gpxtpx:TrackPointExtension xmlns:gpxtpx="http://www.garmin.com/xmlschemas/TrackPointExtension/v1">
            <gpxtpx:hr>143</gpxtpx:hr>
          </gpxtpx:TrackPointExtension>
        </extensions>
      </trkpt>
      <trkpt lat="46.56075" lon="0.21876">
        <ele>151.39999389648</ele>
        <time>2022-04-17T09:43:30Z</time>
        <extensions>
          <gpxtpx:TrackPointExtension xmlns:gpxtpx="http://www.garmin.com/xmlschemas/TrackPointExtension/v1">
            <gpxtpx:hr>142</gpxtpx:hr>
          </gpxtpx:TrackPointExtension>
        </extensions>
      </trkpt>
      <trkpt lat="46.56076" lon="0.21874">
        <ele>151.39999389648</ele>
        <time>2022-04-17T09:43:31Z</time>
        <extensions>
          <gpxtpx:TrackPointExtension xmlns:gpxtpx="http://www.garmin.com/xmlschemas/TrackPointExtension/v1">
            <gpxtpx:hr>141</gpxtpx:hr>
          </gpxtpx:TrackPointExtension>
        </extensions>
      </trkpt>
      <trkpt lat="46.5608" lon="0.21868">
        <ele>151.39999389648</ele>
        <time>2022-04-17T09:43:33Z</time>
        <extensions>
          <gpxtpx:TrackPointExtension xmlns:gpxtpx="http://www.garmin.com/xmlschemas/TrackPointExtension/v1">
            <gpxtpx:hr>139</gpxtpx:hr>
          </gpxtpx:TrackPointExtension>
        </extensions>
      </trkpt>
      <trkpt lat="46.5608" lon="0.21864">
        <ele>151.39999389648</ele>
        <time>2022-04-17T09:43:34Z</time>
        <extensions>
          <gpxtpx:TrackPointExtension xmlns:gpxtpx="http://www.garmin.com/xmlschemas/TrackPointExtension/v1">
            <gpxtpx:hr>135</gpxtpx:hr>
          </gpxtpx:TrackPointExtension>
        </extensions>
      </trkpt>
      <trkpt lat="46.56082" lon="0.2186">
        <ele>151.19999694824</ele>
        <time>2022-04-17T09:43:35Z</time>
        <extensions>
          <gpxtpx:TrackPointExtension xmlns:gpxtpx="http://www.garmin.com/xmlschemas/TrackPointExtension/v1">
            <gpxtpx:hr>135</gpxtpx:hr>
          </gpxtpx:TrackPointExtension>
        </extensions>
      </trkpt>
      <trkpt lat="46.56083" lon="0.21857">
        <ele>151.19999694824</ele>
        <time>2022-04-17T09:43:36Z</time>
        <extensions>
          <gpxtpx:TrackPointExtension xmlns:gpxtpx="http://www.garmin.com/xmlschemas/TrackPointExtension/v1">
            <gpxtpx:hr>135</gpxtpx:hr>
          </gpxtpx:TrackPointExtension>
        </extensions>
      </trkpt>
      <trkpt lat="46.56086" lon="0.21848">
        <ele>151</ele>
        <time>2022-04-17T09:43:39Z</time>
        <extensions>
          <gpxtpx:TrackPointExtension xmlns:gpxtpx="http://www.garmin.com/xmlschemas/TrackPointExtension/v1">
            <gpxtpx:hr>135</gpxtpx:hr>
          </gpxtpx:TrackPointExtension>
        </extensions>
      </trkpt>
      <trkpt lat="46.56086" lon="0.21847">
        <ele>150.80000305176</ele>
        <time>2022-04-17T09:43:40Z</time>
        <extensions>
          <gpxtpx:TrackPointExtension xmlns:gpxtpx="http://www.garmin.com/xmlschemas/TrackPointExtension/v1">
            <gpxtpx:hr>134</gpxtpx:hr>
          </gpxtpx:TrackPointExtension>
        </extensions>
      </trkpt>
      <trkpt lat="46.56086" lon="0.21846">
        <ele>150.60000610352</ele>
        <time>2022-04-17T09:43:41Z</time>
        <extensions>
          <gpxtpx:TrackPointExtension xmlns:gpxtpx="http://www.garmin.com/xmlschemas/TrackPointExtension/v1">
            <gpxtpx:hr>134</gpxtpx:hr>
          </gpxtpx:TrackPointExtension>
        </extensions>
      </trkpt>
      <trkpt lat="46.56086" lon="0.21846">
        <ele>150.39999389648</ele>
        <time>2022-04-17T09:43:42Z</time>
        <extensions>
          <gpxtpx:TrackPointExtension xmlns:gpxtpx="http://www.garmin.com/xmlschemas/TrackPointExtension/v1">
            <gpxtpx:hr>135</gpxtpx:hr>
          </gpxtpx:TrackPointExtension>
        </extensions>
      </trkpt>
      <trkpt lat="46.56093" lon="0.21836">
        <ele>149.60000610352</ele>
        <time>2022-04-17T09:43:52Z</time>
        <extensions>
          <gpxtpx:TrackPointExtension xmlns:gpxtpx="http://www.garmin.com/xmlschemas/TrackPointExtension/v1">
            <gpxtpx:hr>133</gpxtpx:hr>
          </gpxtpx:TrackPointExtension>
        </extensions>
      </trkpt>
      <trkpt lat="46.56096" lon="0.21827">
        <ele>149.80000305176</ele>
        <time>2022-04-17T09:43:54Z</time>
        <extensions>
          <gpxtpx:TrackPointExtension xmlns:gpxtpx="http://www.garmin.com/xmlschemas/TrackPointExtension/v1">
            <gpxtpx:hr>132</gpxtpx:hr>
          </gpxtpx:TrackPointExtension>
        </extensions>
      </trkpt>
      <trkpt lat="46.56098" lon="0.21823">
        <ele>149.80000305176</ele>
        <time>2022-04-17T09:43:55Z</time>
        <extensions>
          <gpxtpx:TrackPointExtension xmlns:gpxtpx="http://www.garmin.com/xmlschemas/TrackPointExtension/v1">
            <gpxtpx:hr>132</gpxtpx:hr>
          </gpxtpx:TrackPointExtension>
        </extensions>
      </trkpt>
      <trkpt lat="46.56099" lon="0.21817">
        <ele>149.60000610352</ele>
        <time>2022-04-17T09:43:56Z</time>
        <extensions>
          <gpxtpx:TrackPointExtension xmlns:gpxtpx="http://www.garmin.com/xmlschemas/TrackPointExtension/v1">
            <gpxtpx:hr>133</gpxtpx:hr>
          </gpxtpx:TrackPointExtension>
        </extensions>
      </trkpt>
      <trkpt lat="46.561" lon="0.21813">
        <ele>149.60000610352</ele>
        <time>2022-04-17T09:43:57Z</time>
        <extensions>
          <gpxtpx:TrackPointExtension xmlns:gpxtpx="http://www.garmin.com/xmlschemas/TrackPointExtension/v1">
            <gpxtpx:hr>134</gpxtpx:hr>
          </gpxtpx:TrackPointExtension>
        </extensions>
      </trkpt>
      <trkpt lat="46.56102" lon="0.21809">
        <ele>149.60000610352</ele>
        <time>2022-04-17T09:43:58Z</time>
        <extensions>
          <gpxtpx:TrackPointExtension xmlns:gpxtpx="http://www.garmin.com/xmlschemas/TrackPointExtension/v1">
            <gpxtpx:hr>134</gpxtpx:hr>
          </gpxtpx:TrackPointExtension>
        </extensions>
      </trkpt>
      <trkpt lat="46.56107" lon="0.21801">
        <ele>149.60000610352</ele>
        <time>2022-04-17T09:44:00Z</time>
        <extensions>
          <gpxtpx:TrackPointExtension xmlns:gpxtpx="http://www.garmin.com/xmlschemas/TrackPointExtension/v1">
            <gpxtpx:hr>137</gpxtpx:hr>
          </gpxtpx:TrackPointExtension>
        </extensions>
      </trkpt>
      <trkpt lat="46.5611" lon="0.21792">
        <ele>149.19999694824</ele>
        <time>2022-04-17T09:44:03Z</time>
        <extensions>
          <gpxtpx:TrackPointExtension xmlns:gpxtpx="http://www.garmin.com/xmlschemas/TrackPointExtension/v1">
            <gpxtpx:hr>139</gpxtpx:hr>
          </gpxtpx:TrackPointExtension>
        </extensions>
      </trkpt>
      <trkpt lat="46.56112" lon="0.21791">
        <ele>149.19999694824</ele>
        <time>2022-04-17T09:44:04Z</time>
        <extensions>
          <gpxtpx:TrackPointExtension xmlns:gpxtpx="http://www.garmin.com/xmlschemas/TrackPointExtension/v1">
            <gpxtpx:hr>141</gpxtpx:hr>
          </gpxtpx:TrackPointExtension>
        </extensions>
      </trkpt>
      <trkpt lat="46.56114" lon="0.21789">
        <ele>149.19999694824</ele>
        <time>2022-04-17T09:44:05Z</time>
        <extensions>
          <gpxtpx:TrackPointExtension xmlns:gpxtpx="http://www.garmin.com/xmlschemas/TrackPointExtension/v1">
            <gpxtpx:hr>142</gpxtpx:hr>
          </gpxtpx:TrackPointExtension>
        </extensions>
      </trkpt>
      <trkpt lat="46.56115" lon="0.21787">
        <ele>149.19999694824</ele>
        <time>2022-04-17T09:44:06Z</time>
        <extensions>
          <gpxtpx:TrackPointExtension xmlns:gpxtpx="http://www.garmin.com/xmlschemas/TrackPointExtension/v1">
            <gpxtpx:hr>143</gpxtpx:hr>
          </gpxtpx:TrackPointExtension>
        </extensions>
      </trkpt>
      <trkpt lat="46.56117" lon="0.21785">
        <ele>149</ele>
        <time>2022-04-17T09:44:07Z</time>
        <extensions>
          <gpxtpx:TrackPointExtension xmlns:gpxtpx="http://www.garmin.com/xmlschemas/TrackPointExtension/v1">
            <gpxtpx:hr>143</gpxtpx:hr>
          </gpxtpx:TrackPointExtension>
        </extensions>
      </trkpt>
      <trkpt lat="46.5612" lon="0.21781">
        <ele>149</ele>
        <time>2022-04-17T09:44:08Z</time>
        <extensions>
          <gpxtpx:TrackPointExtension xmlns:gpxtpx="http://www.garmin.com/xmlschemas/TrackPointExtension/v1">
            <gpxtpx:hr>143</gpxtpx:hr>
          </gpxtpx:TrackPointExtension>
        </extensions>
      </trkpt>
      <trkpt lat="46.56121" lon="0.21779">
        <ele>149</ele>
        <time>2022-04-17T09:44:09Z</time>
        <extensions>
          <gpxtpx:TrackPointExtension xmlns:gpxtpx="http://www.garmin.com/xmlschemas/TrackPointExtension/v1">
            <gpxtpx:hr>143</gpxtpx:hr>
          </gpxtpx:TrackPointExtension>
        </extensions>
      </trkpt>
      <trkpt lat="46.56121" lon="0.21775">
        <ele>149</ele>
        <time>2022-04-17T09:44:10Z</time>
        <extensions>
          <gpxtpx:TrackPointExtension xmlns:gpxtpx="http://www.garmin.com/xmlschemas/TrackPointExtension/v1">
            <gpxtpx:hr>143</gpxtpx:hr>
          </gpxtpx:TrackPointExtension>
        </extensions>
      </trkpt>
      <trkpt lat="46.56123" lon="0.2177">
        <ele>148.80000305176</ele>
        <time>2022-04-17T09:44:11Z</time>
        <extensions>
          <gpxtpx:TrackPointExtension xmlns:gpxtpx="http://www.garmin.com/xmlschemas/TrackPointExtension/v1">
            <gpxtpx:hr>143</gpxtpx:hr>
          </gpxtpx:TrackPointExtension>
        </extensions>
      </trkpt>
      <trkpt lat="46.56125" lon="0.21765">
        <ele>148.80000305176</ele>
        <time>2022-04-17T09:44:12Z</time>
        <extensions>
          <gpxtpx:TrackPointExtension xmlns:gpxtpx="http://www.garmin.com/xmlschemas/TrackPointExtension/v1">
            <gpxtpx:hr>143</gpxtpx:hr>
          </gpxtpx:TrackPointExtension>
        </extensions>
      </trkpt>
      <trkpt lat="46.56128" lon="0.21754">
        <ele>148.19999694824</ele>
        <time>2022-04-17T09:44:15Z</time>
        <extensions>
          <gpxtpx:TrackPointExtension xmlns:gpxtpx="http://www.garmin.com/xmlschemas/TrackPointExtension/v1">
            <gpxtpx:hr>143</gpxtpx:hr>
          </gpxtpx:TrackPointExtension>
        </extensions>
      </trkpt>
      <trkpt lat="46.56129" lon="0.21751">
        <ele>147.80000305176</ele>
        <time>2022-04-17T09:44:16Z</time>
        <extensions>
          <gpxtpx:TrackPointExtension xmlns:gpxtpx="http://www.garmin.com/xmlschemas/TrackPointExtension/v1">
            <gpxtpx:hr>143</gpxtpx:hr>
          </gpxtpx:TrackPointExtension>
        </extensions>
      </trkpt>
      <trkpt lat="46.56131" lon="0.21749">
        <ele>146.80000305176</ele>
        <time>2022-04-17T09:44:18Z</time>
        <extensions>
          <gpxtpx:TrackPointExtension xmlns:gpxtpx="http://www.garmin.com/xmlschemas/TrackPointExtension/v1">
            <gpxtpx:hr>144</gpxtpx:hr>
          </gpxtpx:TrackPointExtension>
        </extensions>
      </trkpt>
      <trkpt lat="46.56133" lon="0.21748">
        <ele>146.39999389648</ele>
        <time>2022-04-17T09:44:19Z</time>
        <extensions>
          <gpxtpx:TrackPointExtension xmlns:gpxtpx="http://www.garmin.com/xmlschemas/TrackPointExtension/v1">
            <gpxtpx:hr>144</gpxtpx:hr>
          </gpxtpx:TrackPointExtension>
        </extensions>
      </trkpt>
      <trkpt lat="46.56135" lon="0.21746">
        <ele>146.19999694824</ele>
        <time>2022-04-17T09:44:20Z</time>
        <extensions>
          <gpxtpx:TrackPointExtension xmlns:gpxtpx="http://www.garmin.com/xmlschemas/TrackPointExtension/v1">
            <gpxtpx:hr>143</gpxtpx:hr>
          </gpxtpx:TrackPointExtension>
        </extensions>
      </trkpt>
      <trkpt lat="46.56137" lon="0.21745">
        <ele>146.19999694824</ele>
        <time>2022-04-17T09:44:21Z</time>
        <extensions>
          <gpxtpx:TrackPointExtension xmlns:gpxtpx="http://www.garmin.com/xmlschemas/TrackPointExtension/v1">
            <gpxtpx:hr>143</gpxtpx:hr>
          </gpxtpx:TrackPointExtension>
        </extensions>
      </trkpt>
      <trkpt lat="46.5614" lon="0.21743">
        <ele>146</ele>
        <time>2022-04-17T09:44:23Z</time>
        <extensions>
          <gpxtpx:TrackPointExtension xmlns:gpxtpx="http://www.garmin.com/xmlschemas/TrackPointExtension/v1">
            <gpxtpx:hr>143</gpxtpx:hr>
          </gpxtpx:TrackPointExtension>
        </extensions>
      </trkpt>
      <trkpt lat="46.5614" lon="0.21741">
        <ele>145.80000305176</ele>
        <time>2022-04-17T09:44:24Z</time>
        <extensions>
          <gpxtpx:TrackPointExtension xmlns:gpxtpx="http://www.garmin.com/xmlschemas/TrackPointExtension/v1">
            <gpxtpx:hr>142</gpxtpx:hr>
          </gpxtpx:TrackPointExtension>
        </extensions>
      </trkpt>
      <trkpt lat="46.56141" lon="0.21737">
        <ele>145.80000305176</ele>
        <time>2022-04-17T09:44:25Z</time>
        <extensions>
          <gpxtpx:TrackPointExtension xmlns:gpxtpx="http://www.garmin.com/xmlschemas/TrackPointExtension/v1">
            <gpxtpx:hr>142</gpxtpx:hr>
          </gpxtpx:TrackPointExtension>
        </extensions>
      </trkpt>
      <trkpt lat="46.56142" lon="0.21734">
        <ele>145.60000610352</ele>
        <time>2022-04-17T09:44:26Z</time>
        <extensions>
          <gpxtpx:TrackPointExtension xmlns:gpxtpx="http://www.garmin.com/xmlschemas/TrackPointExtension/v1">
            <gpxtpx:hr>142</gpxtpx:hr>
          </gpxtpx:TrackPointExtension>
        </extensions>
      </trkpt>
      <trkpt lat="46.56144" lon="0.21732">
        <ele>145.60000610352</ele>
        <time>2022-04-17T09:44:27Z</time>
        <extensions>
          <gpxtpx:TrackPointExtension xmlns:gpxtpx="http://www.garmin.com/xmlschemas/TrackPointExtension/v1">
            <gpxtpx:hr>141</gpxtpx:hr>
          </gpxtpx:TrackPointExtension>
        </extensions>
      </trkpt>
      <trkpt lat="46.56145" lon="0.21731">
        <ele>145.39999389648</ele>
        <time>2022-04-17T09:44:28Z</time>
        <extensions>
          <gpxtpx:TrackPointExtension xmlns:gpxtpx="http://www.garmin.com/xmlschemas/TrackPointExtension/v1">
            <gpxtpx:hr>140</gpxtpx:hr>
          </gpxtpx:TrackPointExtension>
        </extensions>
      </trkpt>
      <trkpt lat="46.56147" lon="0.2173">
        <ele>145.39999389648</ele>
        <time>2022-04-17T09:44:29Z</time>
        <extensions>
          <gpxtpx:TrackPointExtension xmlns:gpxtpx="http://www.garmin.com/xmlschemas/TrackPointExtension/v1">
            <gpxtpx:hr>140</gpxtpx:hr>
          </gpxtpx:TrackPointExtension>
        </extensions>
      </trkpt>
      <trkpt lat="46.56148" lon="0.21727">
        <ele>145.39999389648</ele>
        <time>2022-04-17T09:44:30Z</time>
        <extensions>
          <gpxtpx:TrackPointExtension xmlns:gpxtpx="http://www.garmin.com/xmlschemas/TrackPointExtension/v1">
            <gpxtpx:hr>140</gpxtpx:hr>
          </gpxtpx:TrackPointExtension>
        </extensions>
      </trkpt>
      <trkpt lat="46.56153" lon="0.21723">
        <ele>145</ele>
        <time>2022-04-17T09:44:32Z</time>
        <extensions>
          <gpxtpx:TrackPointExtension xmlns:gpxtpx="http://www.garmin.com/xmlschemas/TrackPointExtension/v1">
            <gpxtpx:hr>140</gpxtpx:hr>
          </gpxtpx:TrackPointExtension>
        </extensions>
      </trkpt>
      <trkpt lat="46.56154" lon="0.2172">
        <ele>144.80000305176</ele>
        <time>2022-04-17T09:44:33Z</time>
        <extensions>
          <gpxtpx:TrackPointExtension xmlns:gpxtpx="http://www.garmin.com/xmlschemas/TrackPointExtension/v1">
            <gpxtpx:hr>140</gpxtpx:hr>
          </gpxtpx:TrackPointExtension>
        </extensions>
      </trkpt>
      <trkpt lat="46.56158" lon="0.21716">
        <ele>144</ele>
        <time>2022-04-17T09:44:35Z</time>
        <extensions>
          <gpxtpx:TrackPointExtension xmlns:gpxtpx="http://www.garmin.com/xmlschemas/TrackPointExtension/v1">
            <gpxtpx:hr>142</gpxtpx:hr>
          </gpxtpx:TrackPointExtension>
        </extensions>
      </trkpt>
      <trkpt lat="46.5616" lon="0.21714">
        <ele>143.80000305176</ele>
        <time>2022-04-17T09:44:36Z</time>
        <extensions>
          <gpxtpx:TrackPointExtension xmlns:gpxtpx="http://www.garmin.com/xmlschemas/TrackPointExtension/v1">
            <gpxtpx:hr>139</gpxtpx:hr>
          </gpxtpx:TrackPointExtension>
        </extensions>
      </trkpt>
      <trkpt lat="46.56162" lon="0.21714">
        <ele>143.39999389648</ele>
        <time>2022-04-17T09:44:37Z</time>
        <extensions>
          <gpxtpx:TrackPointExtension xmlns:gpxtpx="http://www.garmin.com/xmlschemas/TrackPointExtension/v1">
            <gpxtpx:hr>140</gpxtpx:hr>
          </gpxtpx:TrackPointExtension>
        </extensions>
      </trkpt>
      <trkpt lat="46.56163" lon="0.21715">
        <ele>143.39999389648</ele>
        <time>2022-04-17T09:44:38Z</time>
        <extensions>
          <gpxtpx:TrackPointExtension xmlns:gpxtpx="http://www.garmin.com/xmlschemas/TrackPointExtension/v1">
            <gpxtpx:hr>140</gpxtpx:hr>
          </gpxtpx:TrackPointExtension>
        </extensions>
      </trkpt>
      <trkpt lat="46.56164" lon="0.21716">
        <ele>143.19999694824</ele>
        <time>2022-04-17T09:44:39Z</time>
        <extensions>
          <gpxtpx:TrackPointExtension xmlns:gpxtpx="http://www.garmin.com/xmlschemas/TrackPointExtension/v1">
            <gpxtpx:hr>140</gpxtpx:hr>
          </gpxtpx:TrackPointExtension>
        </extensions>
      </trkpt>
      <trkpt lat="46.56167" lon="0.21718">
        <ele>143</ele>
        <time>2022-04-17T09:44:41Z</time>
        <extensions>
          <gpxtpx:TrackPointExtension xmlns:gpxtpx="http://www.garmin.com/xmlschemas/TrackPointExtension/v1">
            <gpxtpx:hr>139</gpxtpx:hr>
          </gpxtpx:TrackPointExtension>
        </extensions>
      </trkpt>
      <trkpt lat="46.56172" lon="0.21727">
        <ele>143</ele>
        <time>2022-04-17T09:44:45Z</time>
        <extensions>
          <gpxtpx:TrackPointExtension xmlns:gpxtpx="http://www.garmin.com/xmlschemas/TrackPointExtension/v1">
            <gpxtpx:hr>138</gpxtpx:hr>
          </gpxtpx:TrackPointExtension>
        </extensions>
      </trkpt>
      <trkpt lat="46.56173" lon="0.21728">
        <ele>143.19999694824</ele>
        <time>2022-04-17T09:44:46Z</time>
        <extensions>
          <gpxtpx:TrackPointExtension xmlns:gpxtpx="http://www.garmin.com/xmlschemas/TrackPointExtension/v1">
            <gpxtpx:hr>139</gpxtpx:hr>
          </gpxtpx:TrackPointExtension>
        </extensions>
      </trkpt>
      <trkpt lat="46.56175" lon="0.2173">
        <ele>143.39999389648</ele>
        <time>2022-04-17T09:44:47Z</time>
        <extensions>
          <gpxtpx:TrackPointExtension xmlns:gpxtpx="http://www.garmin.com/xmlschemas/TrackPointExtension/v1">
            <gpxtpx:hr>139</gpxtpx:hr>
          </gpxtpx:TrackPointExtension>
        </extensions>
      </trkpt>
      <trkpt lat="46.56177" lon="0.21734">
        <ele>144</ele>
        <time>2022-04-17T09:44:48Z</time>
        <extensions>
          <gpxtpx:TrackPointExtension xmlns:gpxtpx="http://www.garmin.com/xmlschemas/TrackPointExtension/v1">
            <gpxtpx:hr>140</gpxtpx:hr>
          </gpxtpx:TrackPointExtension>
        </extensions>
      </trkpt>
      <trkpt lat="46.56184" lon="0.21744">
        <ele>145.39999389648</ele>
        <time>2022-04-17T09:44:51Z</time>
        <extensions>
          <gpxtpx:TrackPointExtension xmlns:gpxtpx="http://www.garmin.com/xmlschemas/TrackPointExtension/v1">
            <gpxtpx:hr>141</gpxtpx:hr>
          </gpxtpx:TrackPointExtension>
        </extensions>
      </trkpt>
      <trkpt lat="46.56186" lon="0.21747">
        <ele>145.80000305176</ele>
        <time>2022-04-17T09:44:52Z</time>
        <extensions>
          <gpxtpx:TrackPointExtension xmlns:gpxtpx="http://www.garmin.com/xmlschemas/TrackPointExtension/v1">
            <gpxtpx:hr>142</gpxtpx:hr>
          </gpxtpx:TrackPointExtension>
        </extensions>
      </trkpt>
      <trkpt lat="46.56188" lon="0.2175">
        <ele>146.60000610352</ele>
        <time>2022-04-17T09:44:53Z</time>
        <extensions>
          <gpxtpx:TrackPointExtension xmlns:gpxtpx="http://www.garmin.com/xmlschemas/TrackPointExtension/v1">
            <gpxtpx:hr>142</gpxtpx:hr>
          </gpxtpx:TrackPointExtension>
        </extensions>
      </trkpt>
      <trkpt lat="46.56192" lon="0.21761">
        <ele>147.39999389648</ele>
        <time>2022-04-17T09:44:56Z</time>
        <extensions>
          <gpxtpx:TrackPointExtension xmlns:gpxtpx="http://www.garmin.com/xmlschemas/TrackPointExtension/v1">
            <gpxtpx:hr>143</gpxtpx:hr>
          </gpxtpx:TrackPointExtension>
        </extensions>
      </trkpt>
      <trkpt lat="46.56193" lon="0.21763">
        <ele>148.19999694824</ele>
        <time>2022-04-17T09:44:57Z</time>
        <extensions>
          <gpxtpx:TrackPointExtension xmlns:gpxtpx="http://www.garmin.com/xmlschemas/TrackPointExtension/v1">
            <gpxtpx:hr>143</gpxtpx:hr>
          </gpxtpx:TrackPointExtension>
        </extensions>
      </trkpt>
      <trkpt lat="46.56195" lon="0.21767">
        <ele>148.39999389648</ele>
        <time>2022-04-17T09:44:58Z</time>
        <extensions>
          <gpxtpx:TrackPointExtension xmlns:gpxtpx="http://www.garmin.com/xmlschemas/TrackPointExtension/v1">
            <gpxtpx:hr>142</gpxtpx:hr>
          </gpxtpx:TrackPointExtension>
        </extensions>
      </trkpt>
      <trkpt lat="46.56196" lon="0.21769">
        <ele>148.80000305176</ele>
        <time>2022-04-17T09:44:59Z</time>
        <extensions>
          <gpxtpx:TrackPointExtension xmlns:gpxtpx="http://www.garmin.com/xmlschemas/TrackPointExtension/v1">
            <gpxtpx:hr>142</gpxtpx:hr>
          </gpxtpx:TrackPointExtension>
        </extensions>
      </trkpt>
      <trkpt lat="46.56196" lon="0.21771">
        <ele>149</ele>
        <time>2022-04-17T09:45:00Z</time>
        <extensions>
          <gpxtpx:TrackPointExtension xmlns:gpxtpx="http://www.garmin.com/xmlschemas/TrackPointExtension/v1">
            <gpxtpx:hr>143</gpxtpx:hr>
          </gpxtpx:TrackPointExtension>
        </extensions>
      </trkpt>
      <trkpt lat="46.56197" lon="0.21774">
        <ele>149.19999694824</ele>
        <time>2022-04-17T09:45:01Z</time>
        <extensions>
          <gpxtpx:TrackPointExtension xmlns:gpxtpx="http://www.garmin.com/xmlschemas/TrackPointExtension/v1">
            <gpxtpx:hr>143</gpxtpx:hr>
          </gpxtpx:TrackPointExtension>
        </extensions>
      </trkpt>
      <trkpt lat="46.56199" lon="0.21775">
        <ele>149.39999389648</ele>
        <time>2022-04-17T09:45:02Z</time>
        <extensions>
          <gpxtpx:TrackPointExtension xmlns:gpxtpx="http://www.garmin.com/xmlschemas/TrackPointExtension/v1">
            <gpxtpx:hr>143</gpxtpx:hr>
          </gpxtpx:TrackPointExtension>
        </extensions>
      </trkpt>
      <trkpt lat="46.562" lon="0.21775">
        <ele>149.39999389648</ele>
        <time>2022-04-17T09:45:03Z</time>
        <extensions>
          <gpxtpx:TrackPointExtension xmlns:gpxtpx="http://www.garmin.com/xmlschemas/TrackPointExtension/v1">
            <gpxtpx:hr>144</gpxtpx:hr>
          </gpxtpx:TrackPointExtension>
        </extensions>
      </trkpt>
      <trkpt lat="46.56201" lon="0.21774">
        <ele>149.60000610352</ele>
        <time>2022-04-17T09:45:05Z</time>
        <extensions>
          <gpxtpx:TrackPointExtension xmlns:gpxtpx="http://www.garmin.com/xmlschemas/TrackPointExtension/v1">
            <gpxtpx:hr>144</gpxtpx:hr>
          </gpxtpx:TrackPointExtension>
        </extensions>
      </trkpt>
      <trkpt lat="46.56204" lon="0.2177">
        <ele>149.80000305176</ele>
        <time>2022-04-17T09:45:15Z</time>
        <extensions>
          <gpxtpx:TrackPointExtension xmlns:gpxtpx="http://www.garmin.com/xmlschemas/TrackPointExtension/v1">
            <gpxtpx:hr>148</gpxtpx:hr>
          </gpxtpx:TrackPointExtension>
        </extensions>
      </trkpt>
      <trkpt lat="46.56206" lon="0.21768">
        <ele>149.80000305176</ele>
        <time>2022-04-17T09:45:16Z</time>
        <extensions>
          <gpxtpx:TrackPointExtension xmlns:gpxtpx="http://www.garmin.com/xmlschemas/TrackPointExtension/v1">
            <gpxtpx:hr>148</gpxtpx:hr>
          </gpxtpx:TrackPointExtension>
        </extensions>
      </trkpt>
      <trkpt lat="46.56207" lon="0.21766">
        <ele>149.80000305176</ele>
        <time>2022-04-17T09:45:17Z</time>
        <extensions>
          <gpxtpx:TrackPointExtension xmlns:gpxtpx="http://www.garmin.com/xmlschemas/TrackPointExtension/v1">
            <gpxtpx:hr>148</gpxtpx:hr>
          </gpxtpx:TrackPointExtension>
        </extensions>
      </trkpt>
      <trkpt lat="46.56209" lon="0.21764">
        <ele>149.80000305176</ele>
        <time>2022-04-17T09:45:18Z</time>
        <extensions>
          <gpxtpx:TrackPointExtension xmlns:gpxtpx="http://www.garmin.com/xmlschemas/TrackPointExtension/v1">
            <gpxtpx:hr>148</gpxtpx:hr>
          </gpxtpx:TrackPointExtension>
        </extensions>
      </trkpt>
      <trkpt lat="46.56211" lon="0.21762">
        <ele>149.60000610352</ele>
        <time>2022-04-17T09:45:19Z</time>
        <extensions>
          <gpxtpx:TrackPointExtension xmlns:gpxtpx="http://www.garmin.com/xmlschemas/TrackPointExtension/v1">
            <gpxtpx:hr>148</gpxtpx:hr>
          </gpxtpx:TrackPointExtension>
        </extensions>
      </trkpt>
      <trkpt lat="46.56213" lon="0.21761">
        <ele>149.60000610352</ele>
        <time>2022-04-17T09:45:20Z</time>
        <extensions>
          <gpxtpx:TrackPointExtension xmlns:gpxtpx="http://www.garmin.com/xmlschemas/TrackPointExtension/v1">
            <gpxtpx:hr>148</gpxtpx:hr>
          </gpxtpx:TrackPointExtension>
        </extensions>
      </trkpt>
      <trkpt lat="46.56214" lon="0.21759">
        <ele>149.60000610352</ele>
        <time>2022-04-17T09:45:21Z</time>
        <extensions>
          <gpxtpx:TrackPointExtension xmlns:gpxtpx="http://www.garmin.com/xmlschemas/TrackPointExtension/v1">
            <gpxtpx:hr>148</gpxtpx:hr>
          </gpxtpx:TrackPointExtension>
        </extensions>
      </trkpt>
      <trkpt lat="46.56216" lon="0.21758">
        <ele>149.60000610352</ele>
        <time>2022-04-17T09:45:22Z</time>
        <extensions>
          <gpxtpx:TrackPointExtension xmlns:gpxtpx="http://www.garmin.com/xmlschemas/TrackPointExtension/v1">
            <gpxtpx:hr>147</gpxtpx:hr>
          </gpxtpx:TrackPointExtension>
        </extensions>
      </trkpt>
      <trkpt lat="46.56217" lon="0.21756">
        <ele>149.39999389648</ele>
        <time>2022-04-17T09:45:23Z</time>
        <extensions>
          <gpxtpx:TrackPointExtension xmlns:gpxtpx="http://www.garmin.com/xmlschemas/TrackPointExtension/v1">
            <gpxtpx:hr>147</gpxtpx:hr>
          </gpxtpx:TrackPointExtension>
        </extensions>
      </trkpt>
      <trkpt lat="46.5623" lon="0.21742">
        <ele>149.19999694824</ele>
        <time>2022-04-17T09:45:28Z</time>
        <extensions>
          <gpxtpx:TrackPointExtension xmlns:gpxtpx="http://www.garmin.com/xmlschemas/TrackPointExtension/v1">
            <gpxtpx:hr>144</gpxtpx:hr>
          </gpxtpx:TrackPointExtension>
        </extensions>
      </trkpt>
      <trkpt lat="46.56242" lon="0.2173">
        <ele>149.19999694824</ele>
        <time>2022-04-17T09:45:32Z</time>
        <extensions>
          <gpxtpx:TrackPointExtension xmlns:gpxtpx="http://www.garmin.com/xmlschemas/TrackPointExtension/v1">
            <gpxtpx:hr>142</gpxtpx:hr>
          </gpxtpx:TrackPointExtension>
        </extensions>
      </trkpt>
      <trkpt lat="46.56244" lon="0.21728">
        <ele>149.19999694824</ele>
        <time>2022-04-17T09:45:33Z</time>
        <extensions>
          <gpxtpx:TrackPointExtension xmlns:gpxtpx="http://www.garmin.com/xmlschemas/TrackPointExtension/v1">
            <gpxtpx:hr>141</gpxtpx:hr>
          </gpxtpx:TrackPointExtension>
        </extensions>
      </trkpt>
      <trkpt lat="46.56246" lon="0.21725">
        <ele>149</ele>
        <time>2022-04-17T09:45:34Z</time>
        <extensions>
          <gpxtpx:TrackPointExtension xmlns:gpxtpx="http://www.garmin.com/xmlschemas/TrackPointExtension/v1">
            <gpxtpx:hr>140</gpxtpx:hr>
          </gpxtpx:TrackPointExtension>
        </extensions>
      </trkpt>
      <trkpt lat="46.56248" lon="0.21723">
        <ele>149</ele>
        <time>2022-04-17T09:45:35Z</time>
        <extensions>
          <gpxtpx:TrackPointExtension xmlns:gpxtpx="http://www.garmin.com/xmlschemas/TrackPointExtension/v1">
            <gpxtpx:hr>140</gpxtpx:hr>
          </gpxtpx:TrackPointExtension>
        </extensions>
      </trkpt>
      <trkpt lat="46.56251" lon="0.2172">
        <ele>148.80000305176</ele>
        <time>2022-04-17T09:45:36Z</time>
        <extensions>
          <gpxtpx:TrackPointExtension xmlns:gpxtpx="http://www.garmin.com/xmlschemas/TrackPointExtension/v1">
            <gpxtpx:hr>140</gpxtpx:hr>
          </gpxtpx:TrackPointExtension>
        </extensions>
      </trkpt>
      <trkpt lat="46.56253" lon="0.21718">
        <ele>148.80000305176</ele>
        <time>2022-04-17T09:45:37Z</time>
        <extensions>
          <gpxtpx:TrackPointExtension xmlns:gpxtpx="http://www.garmin.com/xmlschemas/TrackPointExtension/v1">
            <gpxtpx:hr>139</gpxtpx:hr>
          </gpxtpx:TrackPointExtension>
        </extensions>
      </trkpt>
      <trkpt lat="46.56255" lon="0.21716">
        <ele>148.80000305176</ele>
        <time>2022-04-17T09:45:38Z</time>
        <extensions>
          <gpxtpx:TrackPointExtension xmlns:gpxtpx="http://www.garmin.com/xmlschemas/TrackPointExtension/v1">
            <gpxtpx:hr>139</gpxtpx:hr>
          </gpxtpx:TrackPointExtension>
        </extensions>
      </trkpt>
      <trkpt lat="46.56258" lon="0.21713">
        <ele>148.60000610352</ele>
        <time>2022-04-17T09:45:39Z</time>
        <extensions>
          <gpxtpx:TrackPointExtension xmlns:gpxtpx="http://www.garmin.com/xmlschemas/TrackPointExtension/v1">
            <gpxtpx:hr>139</gpxtpx:hr>
          </gpxtpx:TrackPointExtension>
        </extensions>
      </trkpt>
      <trkpt lat="46.56261" lon="0.21711">
        <ele>148.60000610352</ele>
        <time>2022-04-17T09:45:40Z</time>
        <extensions>
          <gpxtpx:TrackPointExtension xmlns:gpxtpx="http://www.garmin.com/xmlschemas/TrackPointExtension/v1">
            <gpxtpx:hr>139</gpxtpx:hr>
          </gpxtpx:TrackPointExtension>
        </extensions>
      </trkpt>
      <trkpt lat="46.56263" lon="0.21709">
        <ele>148.60000610352</ele>
        <time>2022-04-17T09:45:41Z</time>
        <extensions>
          <gpxtpx:TrackPointExtension xmlns:gpxtpx="http://www.garmin.com/xmlschemas/TrackPointExtension/v1">
            <gpxtpx:hr>138</gpxtpx:hr>
          </gpxtpx:TrackPointExtension>
        </extensions>
      </trkpt>
      <trkpt lat="46.56273" lon="0.21701">
        <ele>148.60000610352</ele>
        <time>2022-04-17T09:45:44Z</time>
        <extensions>
          <gpxtpx:TrackPointExtension xmlns:gpxtpx="http://www.garmin.com/xmlschemas/TrackPointExtension/v1">
            <gpxtpx:hr>138</gpxtpx:hr>
          </gpxtpx:TrackPointExtension>
        </extensions>
      </trkpt>
      <trkpt lat="46.56288" lon="0.21688">
        <ele>148.19999694824</ele>
        <time>2022-04-17T09:45:48Z</time>
        <extensions>
          <gpxtpx:TrackPointExtension xmlns:gpxtpx="http://www.garmin.com/xmlschemas/TrackPointExtension/v1">
            <gpxtpx:hr>137</gpxtpx:hr>
          </gpxtpx:TrackPointExtension>
        </extensions>
      </trkpt>
      <trkpt lat="46.56296" lon="0.21681">
        <ele>148</ele>
        <time>2022-04-17T09:45:50Z</time>
        <extensions>
          <gpxtpx:TrackPointExtension xmlns:gpxtpx="http://www.garmin.com/xmlschemas/TrackPointExtension/v1">
            <gpxtpx:hr>137</gpxtpx:hr>
          </gpxtpx:TrackPointExtension>
        </extensions>
      </trkpt>
      <trkpt lat="46.563" lon="0.21678">
        <ele>148</ele>
        <time>2022-04-17T09:45:51Z</time>
        <extensions>
          <gpxtpx:TrackPointExtension xmlns:gpxtpx="http://www.garmin.com/xmlschemas/TrackPointExtension/v1">
            <gpxtpx:hr>136</gpxtpx:hr>
          </gpxtpx:TrackPointExtension>
        </extensions>
      </trkpt>
      <trkpt lat="46.56309" lon="0.21669">
        <ele>147.60000610352</ele>
        <time>2022-04-17T09:45:53Z</time>
        <extensions>
          <gpxtpx:TrackPointExtension xmlns:gpxtpx="http://www.garmin.com/xmlschemas/TrackPointExtension/v1">
            <gpxtpx:hr>132</gpxtpx:hr>
          </gpxtpx:TrackPointExtension>
        </extensions>
      </trkpt>
      <trkpt lat="46.56311" lon="0.21666">
        <ele>147.60000610352</ele>
        <time>2022-04-17T09:45:54Z</time>
        <extensions>
          <gpxtpx:TrackPointExtension xmlns:gpxtpx="http://www.garmin.com/xmlschemas/TrackPointExtension/v1">
            <gpxtpx:hr>131</gpxtpx:hr>
          </gpxtpx:TrackPointExtension>
        </extensions>
      </trkpt>
      <trkpt lat="46.56314" lon="0.21662">
        <ele>147.39999389648</ele>
        <time>2022-04-17T09:45:55Z</time>
        <extensions>
          <gpxtpx:TrackPointExtension xmlns:gpxtpx="http://www.garmin.com/xmlschemas/TrackPointExtension/v1">
            <gpxtpx:hr>130</gpxtpx:hr>
          </gpxtpx:TrackPointExtension>
        </extensions>
      </trkpt>
      <trkpt lat="46.56317" lon="0.21658">
        <ele>147.19999694824</ele>
        <time>2022-04-17T09:45:56Z</time>
        <extensions>
          <gpxtpx:TrackPointExtension xmlns:gpxtpx="http://www.garmin.com/xmlschemas/TrackPointExtension/v1">
            <gpxtpx:hr>129</gpxtpx:hr>
          </gpxtpx:TrackPointExtension>
        </extensions>
      </trkpt>
      <trkpt lat="46.5632" lon="0.21654">
        <ele>147.19999694824</ele>
        <time>2022-04-17T09:45:57Z</time>
        <extensions>
          <gpxtpx:TrackPointExtension xmlns:gpxtpx="http://www.garmin.com/xmlschemas/TrackPointExtension/v1">
            <gpxtpx:hr>129</gpxtpx:hr>
          </gpxtpx:TrackPointExtension>
        </extensions>
      </trkpt>
      <trkpt lat="46.56322" lon="0.21652">
        <ele>147</ele>
        <time>2022-04-17T09:45:58Z</time>
        <extensions>
          <gpxtpx:TrackPointExtension xmlns:gpxtpx="http://www.garmin.com/xmlschemas/TrackPointExtension/v1">
            <gpxtpx:hr>128</gpxtpx:hr>
          </gpxtpx:TrackPointExtension>
        </extensions>
      </trkpt>
      <trkpt lat="46.56324" lon="0.21648">
        <ele>147</ele>
        <time>2022-04-17T09:45:59Z</time>
        <extensions>
          <gpxtpx:TrackPointExtension xmlns:gpxtpx="http://www.garmin.com/xmlschemas/TrackPointExtension/v1">
            <gpxtpx:hr>127</gpxtpx:hr>
          </gpxtpx:TrackPointExtension>
        </extensions>
      </trkpt>
      <trkpt lat="46.56326" lon="0.21646">
        <ele>147</ele>
        <time>2022-04-17T09:46:00Z</time>
        <extensions>
          <gpxtpx:TrackPointExtension xmlns:gpxtpx="http://www.garmin.com/xmlschemas/TrackPointExtension/v1">
            <gpxtpx:hr>127</gpxtpx:hr>
          </gpxtpx:TrackPointExtension>
        </extensions>
      </trkpt>
      <trkpt lat="46.56328" lon="0.21643">
        <ele>147</ele>
        <time>2022-04-17T09:46:01Z</time>
        <extensions>
          <gpxtpx:TrackPointExtension xmlns:gpxtpx="http://www.garmin.com/xmlschemas/TrackPointExtension/v1">
            <gpxtpx:hr>127</gpxtpx:hr>
          </gpxtpx:TrackPointExtension>
        </extensions>
      </trkpt>
      <trkpt lat="46.5633" lon="0.2164">
        <ele>147</ele>
        <time>2022-04-17T09:46:02Z</time>
        <extensions>
          <gpxtpx:TrackPointExtension xmlns:gpxtpx="http://www.garmin.com/xmlschemas/TrackPointExtension/v1">
            <gpxtpx:hr>126</gpxtpx:hr>
          </gpxtpx:TrackPointExtension>
        </extensions>
      </trkpt>
      <trkpt lat="46.56332" lon="0.21638">
        <ele>147</ele>
        <time>2022-04-17T09:46:03Z</time>
        <extensions>
          <gpxtpx:TrackPointExtension xmlns:gpxtpx="http://www.garmin.com/xmlschemas/TrackPointExtension/v1">
            <gpxtpx:hr>126</gpxtpx:hr>
          </gpxtpx:TrackPointExtension>
        </extensions>
      </trkpt>
      <trkpt lat="46.56343" lon="0.21624">
        <ele>147</ele>
        <time>2022-04-17T09:46:08Z</time>
        <extensions>
          <gpxtpx:TrackPointExtension xmlns:gpxtpx="http://www.garmin.com/xmlschemas/TrackPointExtension/v1">
            <gpxtpx:hr>124</gpxtpx:hr>
          </gpxtpx:TrackPointExtension>
        </extensions>
      </trkpt>
      <trkpt lat="46.56347" lon="0.21619">
        <ele>147.19999694824</ele>
        <time>2022-04-17T09:46:10Z</time>
        <extensions>
          <gpxtpx:TrackPointExtension xmlns:gpxtpx="http://www.garmin.com/xmlschemas/TrackPointExtension/v1">
            <gpxtpx:hr>124</gpxtpx:hr>
          </gpxtpx:TrackPointExtension>
        </extensions>
      </trkpt>
      <trkpt lat="46.56366" lon="0.21594">
        <ele>147.60000610352</ele>
        <time>2022-04-17T09:46:19Z</time>
        <extensions>
          <gpxtpx:TrackPointExtension xmlns:gpxtpx="http://www.garmin.com/xmlschemas/TrackPointExtension/v1">
            <gpxtpx:hr>124</gpxtpx:hr>
          </gpxtpx:TrackPointExtension>
        </extensions>
      </trkpt>
      <trkpt lat="46.56367" lon="0.21592">
        <ele>147.60000610352</ele>
        <time>2022-04-17T09:46:20Z</time>
        <extensions>
          <gpxtpx:TrackPointExtension xmlns:gpxtpx="http://www.garmin.com/xmlschemas/TrackPointExtension/v1">
            <gpxtpx:hr>123</gpxtpx:hr>
          </gpxtpx:TrackPointExtension>
        </extensions>
      </trkpt>
      <trkpt lat="46.56369" lon="0.21589">
        <ele>147.60000610352</ele>
        <time>2022-04-17T09:46:21Z</time>
        <extensions>
          <gpxtpx:TrackPointExtension xmlns:gpxtpx="http://www.garmin.com/xmlschemas/TrackPointExtension/v1">
            <gpxtpx:hr>123</gpxtpx:hr>
          </gpxtpx:TrackPointExtension>
        </extensions>
      </trkpt>
      <trkpt lat="46.56375" lon="0.21582">
        <ele>148</ele>
        <time>2022-04-17T09:46:24Z</time>
        <extensions>
          <gpxtpx:TrackPointExtension xmlns:gpxtpx="http://www.garmin.com/xmlschemas/TrackPointExtension/v1">
            <gpxtpx:hr>123</gpxtpx:hr>
          </gpxtpx:TrackPointExtension>
        </extensions>
      </trkpt>
      <trkpt lat="46.56387" lon="0.21566">
        <ele>148.19999694824</ele>
        <time>2022-04-17T09:46:29Z</time>
        <extensions>
          <gpxtpx:TrackPointExtension xmlns:gpxtpx="http://www.garmin.com/xmlschemas/TrackPointExtension/v1">
            <gpxtpx:hr>123</gpxtpx:hr>
          </gpxtpx:TrackPointExtension>
        </extensions>
      </trkpt>
      <trkpt lat="46.56397" lon="0.21554">
        <ele>148.60000610352</ele>
        <time>2022-04-17T09:46:34Z</time>
        <extensions>
          <gpxtpx:TrackPointExtension xmlns:gpxtpx="http://www.garmin.com/xmlschemas/TrackPointExtension/v1">
            <gpxtpx:hr>122</gpxtpx:hr>
          </gpxtpx:TrackPointExtension>
        </extensions>
      </trkpt>
      <trkpt lat="46.56404" lon="0.21545">
        <ele>148.60000610352</ele>
        <time>2022-04-17T09:46:37Z</time>
        <extensions>
          <gpxtpx:TrackPointExtension xmlns:gpxtpx="http://www.garmin.com/xmlschemas/TrackPointExtension/v1">
            <gpxtpx:hr>119</gpxtpx:hr>
          </gpxtpx:TrackPointExtension>
        </extensions>
      </trkpt>
      <trkpt lat="46.56416" lon="0.21531">
        <ele>148.80000305176</ele>
        <time>2022-04-17T09:46:42Z</time>
        <extensions>
          <gpxtpx:TrackPointExtension xmlns:gpxtpx="http://www.garmin.com/xmlschemas/TrackPointExtension/v1">
            <gpxtpx:hr>120</gpxtpx:hr>
          </gpxtpx:TrackPointExtension>
        </extensions>
      </trkpt>
      <trkpt lat="46.56435" lon="0.21514">
        <ele>149.19999694824</ele>
        <time>2022-04-17T09:46:49Z</time>
        <extensions>
          <gpxtpx:TrackPointExtension xmlns:gpxtpx="http://www.garmin.com/xmlschemas/TrackPointExtension/v1">
            <gpxtpx:hr>119</gpxtpx:hr>
          </gpxtpx:TrackPointExtension>
        </extensions>
      </trkpt>
      <trkpt lat="46.56442" lon="0.21508">
        <ele>149.19999694824</ele>
        <time>2022-04-17T09:46:52Z</time>
        <extensions>
          <gpxtpx:TrackPointExtension xmlns:gpxtpx="http://www.garmin.com/xmlschemas/TrackPointExtension/v1">
            <gpxtpx:hr>122</gpxtpx:hr>
          </gpxtpx:TrackPointExtension>
        </extensions>
      </trkpt>
      <trkpt lat="46.56445" lon="0.21506">
        <ele>149</ele>
        <time>2022-04-17T09:46:53Z</time>
        <extensions>
          <gpxtpx:TrackPointExtension xmlns:gpxtpx="http://www.garmin.com/xmlschemas/TrackPointExtension/v1">
            <gpxtpx:hr>122</gpxtpx:hr>
          </gpxtpx:TrackPointExtension>
        </extensions>
      </trkpt>
      <trkpt lat="46.56447" lon="0.21505">
        <ele>149</ele>
        <time>2022-04-17T09:46:54Z</time>
        <extensions>
          <gpxtpx:TrackPointExtension xmlns:gpxtpx="http://www.garmin.com/xmlschemas/TrackPointExtension/v1">
            <gpxtpx:hr>123</gpxtpx:hr>
          </gpxtpx:TrackPointExtension>
        </extensions>
      </trkpt>
      <trkpt lat="46.56449" lon="0.21503">
        <ele>149</ele>
        <time>2022-04-17T09:46:55Z</time>
        <extensions>
          <gpxtpx:TrackPointExtension xmlns:gpxtpx="http://www.garmin.com/xmlschemas/TrackPointExtension/v1">
            <gpxtpx:hr>123</gpxtpx:hr>
          </gpxtpx:TrackPointExtension>
        </extensions>
      </trkpt>
      <trkpt lat="46.56452" lon="0.215">
        <ele>149</ele>
        <time>2022-04-17T09:46:56Z</time>
        <extensions>
          <gpxtpx:TrackPointExtension xmlns:gpxtpx="http://www.garmin.com/xmlschemas/TrackPointExtension/v1">
            <gpxtpx:hr>123</gpxtpx:hr>
          </gpxtpx:TrackPointExtension>
        </extensions>
      </trkpt>
      <trkpt lat="46.56454" lon="0.21498">
        <ele>149</ele>
        <time>2022-04-17T09:46:57Z</time>
        <extensions>
          <gpxtpx:TrackPointExtension xmlns:gpxtpx="http://www.garmin.com/xmlschemas/TrackPointExtension/v1">
            <gpxtpx:hr>123</gpxtpx:hr>
          </gpxtpx:TrackPointExtension>
        </extensions>
      </trkpt>
      <trkpt lat="46.56471" lon="0.21484">
        <ele>149.19999694824</ele>
        <time>2022-04-17T09:47:04Z</time>
        <extensions>
          <gpxtpx:TrackPointExtension xmlns:gpxtpx="http://www.garmin.com/xmlschemas/TrackPointExtension/v1">
            <gpxtpx:hr>122</gpxtpx:hr>
          </gpxtpx:TrackPointExtension>
        </extensions>
      </trkpt>
      <trkpt lat="46.56475" lon="0.21481">
        <ele>149.19999694824</ele>
        <time>2022-04-17T09:47:06Z</time>
        <extensions>
          <gpxtpx:TrackPointExtension xmlns:gpxtpx="http://www.garmin.com/xmlschemas/TrackPointExtension/v1">
            <gpxtpx:hr>121</gpxtpx:hr>
          </gpxtpx:TrackPointExtension>
        </extensions>
      </trkpt>
      <trkpt lat="46.56477" lon="0.2148">
        <ele>149.19999694824</ele>
        <time>2022-04-17T09:47:07Z</time>
        <extensions>
          <gpxtpx:TrackPointExtension xmlns:gpxtpx="http://www.garmin.com/xmlschemas/TrackPointExtension/v1">
            <gpxtpx:hr>120</gpxtpx:hr>
          </gpxtpx:TrackPointExtension>
        </extensions>
      </trkpt>
      <trkpt lat="46.56479" lon="0.21478">
        <ele>149.19999694824</ele>
        <time>2022-04-17T09:47:08Z</time>
        <extensions>
          <gpxtpx:TrackPointExtension xmlns:gpxtpx="http://www.garmin.com/xmlschemas/TrackPointExtension/v1">
            <gpxtpx:hr>120</gpxtpx:hr>
          </gpxtpx:TrackPointExtension>
        </extensions>
      </trkpt>
      <trkpt lat="46.56481" lon="0.21477">
        <ele>149.19999694824</ele>
        <time>2022-04-17T09:47:09Z</time>
        <extensions>
          <gpxtpx:TrackPointExtension xmlns:gpxtpx="http://www.garmin.com/xmlschemas/TrackPointExtension/v1">
            <gpxtpx:hr>119</gpxtpx:hr>
          </gpxtpx:TrackPointExtension>
        </extensions>
      </trkpt>
      <trkpt lat="46.56483" lon="0.21475">
        <ele>149.19999694824</ele>
        <time>2022-04-17T09:47:10Z</time>
        <extensions>
          <gpxtpx:TrackPointExtension xmlns:gpxtpx="http://www.garmin.com/xmlschemas/TrackPointExtension/v1">
            <gpxtpx:hr>119</gpxtpx:hr>
          </gpxtpx:TrackPointExtension>
        </extensions>
      </trkpt>
      <trkpt lat="46.56485" lon="0.21473">
        <ele>149.19999694824</ele>
        <time>2022-04-17T09:47:11Z</time>
        <extensions>
          <gpxtpx:TrackPointExtension xmlns:gpxtpx="http://www.garmin.com/xmlschemas/TrackPointExtension/v1">
            <gpxtpx:hr>119</gpxtpx:hr>
          </gpxtpx:TrackPointExtension>
        </extensions>
      </trkpt>
      <trkpt lat="46.56487" lon="0.21472">
        <ele>149.19999694824</ele>
        <time>2022-04-17T09:47:12Z</time>
        <extensions>
          <gpxtpx:TrackPointExtension xmlns:gpxtpx="http://www.garmin.com/xmlschemas/TrackPointExtension/v1">
            <gpxtpx:hr>119</gpxtpx:hr>
          </gpxtpx:TrackPointExtension>
        </extensions>
      </trkpt>
      <trkpt lat="46.56489" lon="0.21469">
        <ele>149.19999694824</ele>
        <time>2022-04-17T09:47:13Z</time>
        <extensions>
          <gpxtpx:TrackPointExtension xmlns:gpxtpx="http://www.garmin.com/xmlschemas/TrackPointExtension/v1">
            <gpxtpx:hr>119</gpxtpx:hr>
          </gpxtpx:TrackPointExtension>
        </extensions>
      </trkpt>
      <trkpt lat="46.56492" lon="0.21468">
        <ele>149.19999694824</ele>
        <time>2022-04-17T09:47:14Z</time>
        <extensions>
          <gpxtpx:TrackPointExtension xmlns:gpxtpx="http://www.garmin.com/xmlschemas/TrackPointExtension/v1">
            <gpxtpx:hr>119</gpxtpx:hr>
          </gpxtpx:TrackPointExtension>
        </extensions>
      </trkpt>
      <trkpt lat="46.56494" lon="0.21467">
        <ele>149.19999694824</ele>
        <time>2022-04-17T09:47:15Z</time>
        <extensions>
          <gpxtpx:TrackPointExtension xmlns:gpxtpx="http://www.garmin.com/xmlschemas/TrackPointExtension/v1">
            <gpxtpx:hr>119</gpxtpx:hr>
          </gpxtpx:TrackPointExtension>
        </extensions>
      </trkpt>
      <trkpt lat="46.56511" lon="0.21456">
        <ele>148.80000305176</ele>
        <time>2022-04-17T09:47:22Z</time>
        <extensions>
          <gpxtpx:TrackPointExtension xmlns:gpxtpx="http://www.garmin.com/xmlschemas/TrackPointExtension/v1">
            <gpxtpx:hr>117</gpxtpx:hr>
          </gpxtpx:TrackPointExtension>
        </extensions>
      </trkpt>
      <trkpt lat="46.56512" lon="0.21453">
        <ele>148.80000305176</ele>
        <time>2022-04-17T09:47:23Z</time>
        <extensions>
          <gpxtpx:TrackPointExtension xmlns:gpxtpx="http://www.garmin.com/xmlschemas/TrackPointExtension/v1">
            <gpxtpx:hr>118</gpxtpx:hr>
          </gpxtpx:TrackPointExtension>
        </extensions>
      </trkpt>
      <trkpt lat="46.56513" lon="0.21449">
        <ele>148.80000305176</ele>
        <time>2022-04-17T09:47:24Z</time>
        <extensions>
          <gpxtpx:TrackPointExtension xmlns:gpxtpx="http://www.garmin.com/xmlschemas/TrackPointExtension/v1">
            <gpxtpx:hr>118</gpxtpx:hr>
          </gpxtpx:TrackPointExtension>
        </extensions>
      </trkpt>
      <trkpt lat="46.56513" lon="0.21441">
        <ele>148.80000305176</ele>
        <time>2022-04-17T09:47:26Z</time>
        <extensions>
          <gpxtpx:TrackPointExtension xmlns:gpxtpx="http://www.garmin.com/xmlschemas/TrackPointExtension/v1">
            <gpxtpx:hr>120</gpxtpx:hr>
          </gpxtpx:TrackPointExtension>
        </extensions>
      </trkpt>
      <trkpt lat="46.56513" lon="0.21436">
        <ele>148.80000305176</ele>
        <time>2022-04-17T09:47:27Z</time>
        <extensions>
          <gpxtpx:TrackPointExtension xmlns:gpxtpx="http://www.garmin.com/xmlschemas/TrackPointExtension/v1">
            <gpxtpx:hr>121</gpxtpx:hr>
          </gpxtpx:TrackPointExtension>
        </extensions>
      </trkpt>
      <trkpt lat="46.56513" lon="0.21425">
        <ele>148.60000610352</ele>
        <time>2022-04-17T09:47:30Z</time>
        <extensions>
          <gpxtpx:TrackPointExtension xmlns:gpxtpx="http://www.garmin.com/xmlschemas/TrackPointExtension/v1">
            <gpxtpx:hr>123</gpxtpx:hr>
          </gpxtpx:TrackPointExtension>
        </extensions>
      </trkpt>
      <trkpt lat="46.56513" lon="0.2142">
        <ele>148.39999389648</ele>
        <time>2022-04-17T09:47:31Z</time>
        <extensions>
          <gpxtpx:TrackPointExtension xmlns:gpxtpx="http://www.garmin.com/xmlschemas/TrackPointExtension/v1">
            <gpxtpx:hr>123</gpxtpx:hr>
          </gpxtpx:TrackPointExtension>
        </extensions>
      </trkpt>
      <trkpt lat="46.56513" lon="0.21409">
        <ele>148</ele>
        <time>2022-04-17T09:47:33Z</time>
        <extensions>
          <gpxtpx:TrackPointExtension xmlns:gpxtpx="http://www.garmin.com/xmlschemas/TrackPointExtension/v1">
            <gpxtpx:hr>122</gpxtpx:hr>
          </gpxtpx:TrackPointExtension>
        </extensions>
      </trkpt>
      <trkpt lat="46.56513" lon="0.21399">
        <ele>147.80000305176</ele>
        <time>2022-04-17T09:47:35Z</time>
        <extensions>
          <gpxtpx:TrackPointExtension xmlns:gpxtpx="http://www.garmin.com/xmlschemas/TrackPointExtension/v1">
            <gpxtpx:hr>122</gpxtpx:hr>
          </gpxtpx:TrackPointExtension>
        </extensions>
      </trkpt>
      <trkpt lat="46.56509" lon="0.2137">
        <ele>147.39999389648</ele>
        <time>2022-04-17T09:47:39Z</time>
        <extensions>
          <gpxtpx:TrackPointExtension xmlns:gpxtpx="http://www.garmin.com/xmlschemas/TrackPointExtension/v1">
            <gpxtpx:hr>120</gpxtpx:hr>
          </gpxtpx:TrackPointExtension>
        </extensions>
      </trkpt>
      <trkpt lat="46.56504" lon="0.21338">
        <ele>146.39999389648</ele>
        <time>2022-04-17T09:47:43Z</time>
        <extensions>
          <gpxtpx:TrackPointExtension xmlns:gpxtpx="http://www.garmin.com/xmlschemas/TrackPointExtension/v1">
            <gpxtpx:hr>120</gpxtpx:hr>
          </gpxtpx:TrackPointExtension>
        </extensions>
      </trkpt>
      <trkpt lat="46.56503" lon="0.21329">
        <ele>146</ele>
        <time>2022-04-17T09:47:44Z</time>
        <extensions>
          <gpxtpx:TrackPointExtension xmlns:gpxtpx="http://www.garmin.com/xmlschemas/TrackPointExtension/v1">
            <gpxtpx:hr>121</gpxtpx:hr>
          </gpxtpx:TrackPointExtension>
        </extensions>
      </trkpt>
      <trkpt lat="46.56502" lon="0.21322">
        <ele>145.80000305176</ele>
        <time>2022-04-17T09:47:45Z</time>
        <extensions>
          <gpxtpx:TrackPointExtension xmlns:gpxtpx="http://www.garmin.com/xmlschemas/TrackPointExtension/v1">
            <gpxtpx:hr>121</gpxtpx:hr>
          </gpxtpx:TrackPointExtension>
        </extensions>
      </trkpt>
      <trkpt lat="46.56501" lon="0.21318">
        <ele>145.39999389648</ele>
        <time>2022-04-17T09:47:46Z</time>
        <extensions>
          <gpxtpx:TrackPointExtension xmlns:gpxtpx="http://www.garmin.com/xmlschemas/TrackPointExtension/v1">
            <gpxtpx:hr>121</gpxtpx:hr>
          </gpxtpx:TrackPointExtension>
        </extensions>
      </trkpt>
      <trkpt lat="46.56498" lon="0.21311">
        <ele>145</ele>
        <time>2022-04-17T09:47:47Z</time>
        <extensions>
          <gpxtpx:TrackPointExtension xmlns:gpxtpx="http://www.garmin.com/xmlschemas/TrackPointExtension/v1">
            <gpxtpx:hr>121</gpxtpx:hr>
          </gpxtpx:TrackPointExtension>
        </extensions>
      </trkpt>
      <trkpt lat="46.56497" lon="0.21304">
        <ele>144.80000305176</ele>
        <time>2022-04-17T09:47:48Z</time>
        <extensions>
          <gpxtpx:TrackPointExtension xmlns:gpxtpx="http://www.garmin.com/xmlschemas/TrackPointExtension/v1">
            <gpxtpx:hr>122</gpxtpx:hr>
          </gpxtpx:TrackPointExtension>
        </extensions>
      </trkpt>
      <trkpt lat="46.56495" lon="0.2128">
        <ele>143.60000610352</ele>
        <time>2022-04-17T09:47:51Z</time>
        <extensions>
          <gpxtpx:TrackPointExtension xmlns:gpxtpx="http://www.garmin.com/xmlschemas/TrackPointExtension/v1">
            <gpxtpx:hr>122</gpxtpx:hr>
          </gpxtpx:TrackPointExtension>
        </extensions>
      </trkpt>
      <trkpt lat="46.56489" lon="0.21254">
        <ele>142.60000610352</ele>
        <time>2022-04-17T09:47:54Z</time>
        <extensions>
          <gpxtpx:TrackPointExtension xmlns:gpxtpx="http://www.garmin.com/xmlschemas/TrackPointExtension/v1">
            <gpxtpx:hr>122</gpxtpx:hr>
          </gpxtpx:TrackPointExtension>
        </extensions>
      </trkpt>
      <trkpt lat="46.56485" lon="0.21239">
        <ele>141.39999389648</ele>
        <time>2022-04-17T09:47:56Z</time>
        <extensions>
          <gpxtpx:TrackPointExtension xmlns:gpxtpx="http://www.garmin.com/xmlschemas/TrackPointExtension/v1">
            <gpxtpx:hr>122</gpxtpx:hr>
          </gpxtpx:TrackPointExtension>
        </extensions>
      </trkpt>
      <trkpt lat="46.56483" lon="0.21232">
        <ele>141</ele>
        <time>2022-04-17T09:47:57Z</time>
        <extensions>
          <gpxtpx:TrackPointExtension xmlns:gpxtpx="http://www.garmin.com/xmlschemas/TrackPointExtension/v1">
            <gpxtpx:hr>122</gpxtpx:hr>
          </gpxtpx:TrackPointExtension>
        </extensions>
      </trkpt>
      <trkpt lat="46.56482" lon="0.21226">
        <ele>140.19999694824</ele>
        <time>2022-04-17T09:47:58Z</time>
        <extensions>
          <gpxtpx:TrackPointExtension xmlns:gpxtpx="http://www.garmin.com/xmlschemas/TrackPointExtension/v1">
            <gpxtpx:hr>122</gpxtpx:hr>
          </gpxtpx:TrackPointExtension>
        </extensions>
      </trkpt>
      <trkpt lat="46.56481" lon="0.21219">
        <ele>140</ele>
        <time>2022-04-17T09:47:59Z</time>
        <extensions>
          <gpxtpx:TrackPointExtension xmlns:gpxtpx="http://www.garmin.com/xmlschemas/TrackPointExtension/v1">
            <gpxtpx:hr>123</gpxtpx:hr>
          </gpxtpx:TrackPointExtension>
        </extensions>
      </trkpt>
      <trkpt lat="46.56479" lon="0.21212">
        <ele>139.19999694824</ele>
        <time>2022-04-17T09:48:00Z</time>
        <extensions>
          <gpxtpx:TrackPointExtension xmlns:gpxtpx="http://www.garmin.com/xmlschemas/TrackPointExtension/v1">
            <gpxtpx:hr>123</gpxtpx:hr>
          </gpxtpx:TrackPointExtension>
        </extensions>
      </trkpt>
      <trkpt lat="46.5648" lon="0.212">
        <ele>137.80000305176</ele>
        <time>2022-04-17T09:48:02Z</time>
        <extensions>
          <gpxtpx:TrackPointExtension xmlns:gpxtpx="http://www.garmin.com/xmlschemas/TrackPointExtension/v1">
            <gpxtpx:hr>124</gpxtpx:hr>
          </gpxtpx:TrackPointExtension>
        </extensions>
      </trkpt>
      <trkpt lat="46.56481" lon="0.21196">
        <ele>137</ele>
        <time>2022-04-17T09:48:03Z</time>
        <extensions>
          <gpxtpx:TrackPointExtension xmlns:gpxtpx="http://www.garmin.com/xmlschemas/TrackPointExtension/v1">
            <gpxtpx:hr>124</gpxtpx:hr>
          </gpxtpx:TrackPointExtension>
        </extensions>
      </trkpt>
      <trkpt lat="46.56482" lon="0.21191">
        <ele>137</ele>
        <time>2022-04-17T09:48:04Z</time>
        <extensions>
          <gpxtpx:TrackPointExtension xmlns:gpxtpx="http://www.garmin.com/xmlschemas/TrackPointExtension/v1">
            <gpxtpx:hr>124</gpxtpx:hr>
          </gpxtpx:TrackPointExtension>
        </extensions>
      </trkpt>
      <trkpt lat="46.56482" lon="0.21184">
        <ele>136.60000610352</ele>
        <time>2022-04-17T09:48:05Z</time>
        <extensions>
          <gpxtpx:TrackPointExtension xmlns:gpxtpx="http://www.garmin.com/xmlschemas/TrackPointExtension/v1">
            <gpxtpx:hr>124</gpxtpx:hr>
          </gpxtpx:TrackPointExtension>
        </extensions>
      </trkpt>
      <trkpt lat="46.56483" lon="0.2118">
        <ele>136.39999389648</ele>
        <time>2022-04-17T09:48:06Z</time>
        <extensions>
          <gpxtpx:TrackPointExtension xmlns:gpxtpx="http://www.garmin.com/xmlschemas/TrackPointExtension/v1">
            <gpxtpx:hr>124</gpxtpx:hr>
          </gpxtpx:TrackPointExtension>
        </extensions>
      </trkpt>
      <trkpt lat="46.56485" lon="0.21178">
        <ele>135.80000305176</ele>
        <time>2022-04-17T09:48:07Z</time>
        <extensions>
          <gpxtpx:TrackPointExtension xmlns:gpxtpx="http://www.garmin.com/xmlschemas/TrackPointExtension/v1">
            <gpxtpx:hr>125</gpxtpx:hr>
          </gpxtpx:TrackPointExtension>
        </extensions>
      </trkpt>
      <trkpt lat="46.56488" lon="0.21176">
        <ele>135.39999389648</ele>
        <time>2022-04-17T09:48:08Z</time>
        <extensions>
          <gpxtpx:TrackPointExtension xmlns:gpxtpx="http://www.garmin.com/xmlschemas/TrackPointExtension/v1">
            <gpxtpx:hr>124</gpxtpx:hr>
          </gpxtpx:TrackPointExtension>
        </extensions>
      </trkpt>
      <trkpt lat="46.5649" lon="0.21173">
        <ele>134.80000305176</ele>
        <time>2022-04-17T09:48:09Z</time>
        <extensions>
          <gpxtpx:TrackPointExtension xmlns:gpxtpx="http://www.garmin.com/xmlschemas/TrackPointExtension/v1">
            <gpxtpx:hr>125</gpxtpx:hr>
          </gpxtpx:TrackPointExtension>
        </extensions>
      </trkpt>
      <trkpt lat="46.56493" lon="0.21169">
        <ele>134.60000610352</ele>
        <time>2022-04-17T09:48:10Z</time>
        <extensions>
          <gpxtpx:TrackPointExtension xmlns:gpxtpx="http://www.garmin.com/xmlschemas/TrackPointExtension/v1">
            <gpxtpx:hr>124</gpxtpx:hr>
          </gpxtpx:TrackPointExtension>
        </extensions>
      </trkpt>
      <trkpt lat="46.56495" lon="0.21167">
        <ele>133.39999389648</ele>
        <time>2022-04-17T09:48:11Z</time>
        <extensions>
          <gpxtpx:TrackPointExtension xmlns:gpxtpx="http://www.garmin.com/xmlschemas/TrackPointExtension/v1">
            <gpxtpx:hr>124</gpxtpx:hr>
          </gpxtpx:TrackPointExtension>
        </extensions>
      </trkpt>
      <trkpt lat="46.56497" lon="0.21164">
        <ele>132.80000305176</ele>
        <time>2022-04-17T09:48:12Z</time>
        <extensions>
          <gpxtpx:TrackPointExtension xmlns:gpxtpx="http://www.garmin.com/xmlschemas/TrackPointExtension/v1">
            <gpxtpx:hr>123</gpxtpx:hr>
          </gpxtpx:TrackPointExtension>
        </extensions>
      </trkpt>
      <trkpt lat="46.565" lon="0.21161">
        <ele>132.60000610352</ele>
        <time>2022-04-17T09:48:13Z</time>
        <extensions>
          <gpxtpx:TrackPointExtension xmlns:gpxtpx="http://www.garmin.com/xmlschemas/TrackPointExtension/v1">
            <gpxtpx:hr>124</gpxtpx:hr>
          </gpxtpx:TrackPointExtension>
        </extensions>
      </trkpt>
      <trkpt lat="46.56503" lon="0.21158">
        <ele>132</ele>
        <time>2022-04-17T09:48:14Z</time>
        <extensions>
          <gpxtpx:TrackPointExtension xmlns:gpxtpx="http://www.garmin.com/xmlschemas/TrackPointExtension/v1">
            <gpxtpx:hr>125</gpxtpx:hr>
          </gpxtpx:TrackPointExtension>
        </extensions>
      </trkpt>
      <trkpt lat="46.56505" lon="0.21155">
        <ele>131.39999389648</ele>
        <time>2022-04-17T09:48:15Z</time>
        <extensions>
          <gpxtpx:TrackPointExtension xmlns:gpxtpx="http://www.garmin.com/xmlschemas/TrackPointExtension/v1">
            <gpxtpx:hr>126</gpxtpx:hr>
          </gpxtpx:TrackPointExtension>
        </extensions>
      </trkpt>
      <trkpt lat="46.56506" lon="0.21152">
        <ele>130.80000305176</ele>
        <time>2022-04-17T09:48:16Z</time>
        <extensions>
          <gpxtpx:TrackPointExtension xmlns:gpxtpx="http://www.garmin.com/xmlschemas/TrackPointExtension/v1">
            <gpxtpx:hr>126</gpxtpx:hr>
          </gpxtpx:TrackPointExtension>
        </extensions>
      </trkpt>
      <trkpt lat="46.56508" lon="0.21149">
        <ele>130.39999389648</ele>
        <time>2022-04-17T09:48:17Z</time>
        <extensions>
          <gpxtpx:TrackPointExtension xmlns:gpxtpx="http://www.garmin.com/xmlschemas/TrackPointExtension/v1">
            <gpxtpx:hr>127</gpxtpx:hr>
          </gpxtpx:TrackPointExtension>
        </extensions>
      </trkpt>
      <trkpt lat="46.56512" lon="0.21145">
        <ele>129.60000610352</ele>
        <time>2022-04-17T09:48:18Z</time>
        <extensions>
          <gpxtpx:TrackPointExtension xmlns:gpxtpx="http://www.garmin.com/xmlschemas/TrackPointExtension/v1">
            <gpxtpx:hr>126</gpxtpx:hr>
          </gpxtpx:TrackPointExtension>
        </extensions>
      </trkpt>
      <trkpt lat="46.56516" lon="0.21141">
        <ele>128.80000305176</ele>
        <time>2022-04-17T09:48:20Z</time>
        <extensions>
          <gpxtpx:TrackPointExtension xmlns:gpxtpx="http://www.garmin.com/xmlschemas/TrackPointExtension/v1">
            <gpxtpx:hr>127</gpxtpx:hr>
          </gpxtpx:TrackPointExtension>
        </extensions>
      </trkpt>
      <trkpt lat="46.56519" lon="0.21139">
        <ele>128</ele>
        <time>2022-04-17T09:48:21Z</time>
        <extensions>
          <gpxtpx:TrackPointExtension xmlns:gpxtpx="http://www.garmin.com/xmlschemas/TrackPointExtension/v1">
            <gpxtpx:hr>128</gpxtpx:hr>
          </gpxtpx:TrackPointExtension>
        </extensions>
      </trkpt>
      <trkpt lat="46.56524" lon="0.21137">
        <ele>126.40000152588</ele>
        <time>2022-04-17T09:48:23Z</time>
        <extensions>
          <gpxtpx:TrackPointExtension xmlns:gpxtpx="http://www.garmin.com/xmlschemas/TrackPointExtension/v1">
            <gpxtpx:hr>130</gpxtpx:hr>
          </gpxtpx:TrackPointExtension>
        </extensions>
      </trkpt>
      <trkpt lat="46.56527" lon="0.21135">
        <ele>126</ele>
        <time>2022-04-17T09:48:24Z</time>
        <extensions>
          <gpxtpx:TrackPointExtension xmlns:gpxtpx="http://www.garmin.com/xmlschemas/TrackPointExtension/v1">
            <gpxtpx:hr>131</gpxtpx:hr>
          </gpxtpx:TrackPointExtension>
        </extensions>
      </trkpt>
      <trkpt lat="46.56531" lon="0.21133">
        <ele>125</ele>
        <time>2022-04-17T09:48:26Z</time>
        <extensions>
          <gpxtpx:TrackPointExtension xmlns:gpxtpx="http://www.garmin.com/xmlschemas/TrackPointExtension/v1">
            <gpxtpx:hr>132</gpxtpx:hr>
          </gpxtpx:TrackPointExtension>
        </extensions>
      </trkpt>
      <trkpt lat="46.56537" lon="0.2113">
        <ele>123.59999847412</ele>
        <time>2022-04-17T09:48:28Z</time>
        <extensions>
          <gpxtpx:TrackPointExtension xmlns:gpxtpx="http://www.garmin.com/xmlschemas/TrackPointExtension/v1">
            <gpxtpx:hr>133</gpxtpx:hr>
          </gpxtpx:TrackPointExtension>
        </extensions>
      </trkpt>
      <trkpt lat="46.56542" lon="0.21128">
        <ele>122.19999694824</ele>
        <time>2022-04-17T09:48:30Z</time>
        <extensions>
          <gpxtpx:TrackPointExtension xmlns:gpxtpx="http://www.garmin.com/xmlschemas/TrackPointExtension/v1">
            <gpxtpx:hr>134</gpxtpx:hr>
          </gpxtpx:TrackPointExtension>
        </extensions>
      </trkpt>
      <trkpt lat="46.56544" lon="0.21126">
        <ele>121.80000305176</ele>
        <time>2022-04-17T09:48:31Z</time>
        <extensions>
          <gpxtpx:TrackPointExtension xmlns:gpxtpx="http://www.garmin.com/xmlschemas/TrackPointExtension/v1">
            <gpxtpx:hr>134</gpxtpx:hr>
          </gpxtpx:TrackPointExtension>
        </extensions>
      </trkpt>
      <trkpt lat="46.56546" lon="0.21126">
        <ele>121.40000152588</ele>
        <time>2022-04-17T09:48:32Z</time>
        <extensions>
          <gpxtpx:TrackPointExtension xmlns:gpxtpx="http://www.garmin.com/xmlschemas/TrackPointExtension/v1">
            <gpxtpx:hr>134</gpxtpx:hr>
          </gpxtpx:TrackPointExtension>
        </extensions>
      </trkpt>
      <trkpt lat="46.56548" lon="0.21125">
        <ele>121.19999694824</ele>
        <time>2022-04-17T09:48:33Z</time>
        <extensions>
          <gpxtpx:TrackPointExtension xmlns:gpxtpx="http://www.garmin.com/xmlschemas/TrackPointExtension/v1">
            <gpxtpx:hr>134</gpxtpx:hr>
          </gpxtpx:TrackPointExtension>
        </extensions>
      </trkpt>
      <trkpt lat="46.56551" lon="0.21123">
        <ele>120.80000305176</ele>
        <time>2022-04-17T09:48:34Z</time>
        <extensions>
          <gpxtpx:TrackPointExtension xmlns:gpxtpx="http://www.garmin.com/xmlschemas/TrackPointExtension/v1">
            <gpxtpx:hr>134</gpxtpx:hr>
          </gpxtpx:TrackPointExtension>
        </extensions>
      </trkpt>
      <trkpt lat="46.5656" lon="0.21119">
        <ele>119.80000305176</ele>
        <time>2022-04-17T09:48:37Z</time>
        <extensions>
          <gpxtpx:TrackPointExtension xmlns:gpxtpx="http://www.garmin.com/xmlschemas/TrackPointExtension/v1">
            <gpxtpx:hr>133</gpxtpx:hr>
          </gpxtpx:TrackPointExtension>
        </extensions>
      </trkpt>
      <trkpt lat="46.56562" lon="0.21118">
        <ele>119.40000152588</ele>
        <time>2022-04-17T09:48:38Z</time>
        <extensions>
          <gpxtpx:TrackPointExtension xmlns:gpxtpx="http://www.garmin.com/xmlschemas/TrackPointExtension/v1">
            <gpxtpx:hr>132</gpxtpx:hr>
          </gpxtpx:TrackPointExtension>
        </extensions>
      </trkpt>
      <trkpt lat="46.56564" lon="0.21117">
        <ele>118.80000305176</ele>
        <time>2022-04-17T09:48:39Z</time>
        <extensions>
          <gpxtpx:TrackPointExtension xmlns:gpxtpx="http://www.garmin.com/xmlschemas/TrackPointExtension/v1">
            <gpxtpx:hr>131</gpxtpx:hr>
          </gpxtpx:TrackPointExtension>
        </extensions>
      </trkpt>
      <trkpt lat="46.56566" lon="0.21117">
        <ele>118.59999847412</ele>
        <time>2022-04-17T09:48:40Z</time>
        <extensions>
          <gpxtpx:TrackPointExtension xmlns:gpxtpx="http://www.garmin.com/xmlschemas/TrackPointExtension/v1">
            <gpxtpx:hr>131</gpxtpx:hr>
          </gpxtpx:TrackPointExtension>
        </extensions>
      </trkpt>
      <trkpt lat="46.56569" lon="0.21116">
        <ele>118.19999694824</ele>
        <time>2022-04-17T09:48:41Z</time>
        <extensions>
          <gpxtpx:TrackPointExtension xmlns:gpxtpx="http://www.garmin.com/xmlschemas/TrackPointExtension/v1">
            <gpxtpx:hr>130</gpxtpx:hr>
          </gpxtpx:TrackPointExtension>
        </extensions>
      </trkpt>
      <trkpt lat="46.56571" lon="0.21115">
        <ele>118</ele>
        <time>2022-04-17T09:48:42Z</time>
        <extensions>
          <gpxtpx:TrackPointExtension xmlns:gpxtpx="http://www.garmin.com/xmlschemas/TrackPointExtension/v1">
            <gpxtpx:hr>130</gpxtpx:hr>
          </gpxtpx:TrackPointExtension>
        </extensions>
      </trkpt>
      <trkpt lat="46.56573" lon="0.21115">
        <ele>117.80000305176</ele>
        <time>2022-04-17T09:48:43Z</time>
        <extensions>
          <gpxtpx:TrackPointExtension xmlns:gpxtpx="http://www.garmin.com/xmlschemas/TrackPointExtension/v1">
            <gpxtpx:hr>129</gpxtpx:hr>
          </gpxtpx:TrackPointExtension>
        </extensions>
      </trkpt>
      <trkpt lat="46.56575" lon="0.21113">
        <ele>117.40000152588</ele>
        <time>2022-04-17T09:48:44Z</time>
        <extensions>
          <gpxtpx:TrackPointExtension xmlns:gpxtpx="http://www.garmin.com/xmlschemas/TrackPointExtension/v1">
            <gpxtpx:hr>130</gpxtpx:hr>
          </gpxtpx:TrackPointExtension>
        </extensions>
      </trkpt>
      <trkpt lat="46.56576" lon="0.21113">
        <ele>117.19999694824</ele>
        <time>2022-04-17T09:48:45Z</time>
        <extensions>
          <gpxtpx:TrackPointExtension xmlns:gpxtpx="http://www.garmin.com/xmlschemas/TrackPointExtension/v1">
            <gpxtpx:hr>130</gpxtpx:hr>
          </gpxtpx:TrackPointExtension>
        </extensions>
      </trkpt>
      <trkpt lat="46.56578" lon="0.21112">
        <ele>116.80000305176</ele>
        <time>2022-04-17T09:48:46Z</time>
        <extensions>
          <gpxtpx:TrackPointExtension xmlns:gpxtpx="http://www.garmin.com/xmlschemas/TrackPointExtension/v1">
            <gpxtpx:hr>130</gpxtpx:hr>
          </gpxtpx:TrackPointExtension>
        </extensions>
      </trkpt>
      <trkpt lat="46.5658" lon="0.21112">
        <ele>116.59999847412</ele>
        <time>2022-04-17T09:48:47Z</time>
        <extensions>
          <gpxtpx:TrackPointExtension xmlns:gpxtpx="http://www.garmin.com/xmlschemas/TrackPointExtension/v1">
            <gpxtpx:hr>130</gpxtpx:hr>
          </gpxtpx:TrackPointExtension>
        </extensions>
      </trkpt>
      <trkpt lat="46.56581" lon="0.21112">
        <ele>116</ele>
        <time>2022-04-17T09:48:48Z</time>
        <extensions>
          <gpxtpx:TrackPointExtension xmlns:gpxtpx="http://www.garmin.com/xmlschemas/TrackPointExtension/v1">
            <gpxtpx:hr>130</gpxtpx:hr>
          </gpxtpx:TrackPointExtension>
        </extensions>
      </trkpt>
      <trkpt lat="46.56582" lon="0.21113">
        <ele>115.80000305176</ele>
        <time>2022-04-17T09:48:49Z</time>
        <extensions>
          <gpxtpx:TrackPointExtension xmlns:gpxtpx="http://www.garmin.com/xmlschemas/TrackPointExtension/v1">
            <gpxtpx:hr>129</gpxtpx:hr>
          </gpxtpx:TrackPointExtension>
        </extensions>
      </trkpt>
      <trkpt lat="46.56583" lon="0.21113">
        <ele>115.59999847412</ele>
        <time>2022-04-17T09:48:50Z</time>
        <extensions>
          <gpxtpx:TrackPointExtension xmlns:gpxtpx="http://www.garmin.com/xmlschemas/TrackPointExtension/v1">
            <gpxtpx:hr>129</gpxtpx:hr>
          </gpxtpx:TrackPointExtension>
        </extensions>
      </trkpt>
      <trkpt lat="46.56583" lon="0.21113">
        <ele>115.40000152588</ele>
        <time>2022-04-17T09:48:51Z</time>
        <extensions>
          <gpxtpx:TrackPointExtension xmlns:gpxtpx="http://www.garmin.com/xmlschemas/TrackPointExtension/v1">
            <gpxtpx:hr>129</gpxtpx:hr>
          </gpxtpx:TrackPointExtension>
        </extensions>
      </trkpt>
      <trkpt lat="46.56585" lon="0.21113">
        <ele>115.40000152588</ele>
        <time>2022-04-17T09:48:52Z</time>
        <extensions>
          <gpxtpx:TrackPointExtension xmlns:gpxtpx="http://www.garmin.com/xmlschemas/TrackPointExtension/v1">
            <gpxtpx:hr>129</gpxtpx:hr>
          </gpxtpx:TrackPointExtension>
        </extensions>
      </trkpt>
      <trkpt lat="46.56585" lon="0.21113">
        <ele>115.19999694824</ele>
        <time>2022-04-17T09:48:53Z</time>
        <extensions>
          <gpxtpx:TrackPointExtension xmlns:gpxtpx="http://www.garmin.com/xmlschemas/TrackPointExtension/v1">
            <gpxtpx:hr>129</gpxtpx:hr>
          </gpxtpx:TrackPointExtension>
        </extensions>
      </trkpt>
      <trkpt lat="46.56607" lon="0.21094">
        <ele>113.19999694824</ele>
        <time>2022-04-17T09:49:18Z</time>
        <extensions>
          <gpxtpx:TrackPointExtension xmlns:gpxtpx="http://www.garmin.com/xmlschemas/TrackPointExtension/v1">
            <gpxtpx:hr>133</gpxtpx:hr>
          </gpxtpx:TrackPointExtension>
        </extensions>
      </trkpt>
      <trkpt lat="46.56609" lon="0.21093">
        <ele>113.19999694824</ele>
        <time>2022-04-17T09:49:19Z</time>
        <extensions>
          <gpxtpx:TrackPointExtension xmlns:gpxtpx="http://www.garmin.com/xmlschemas/TrackPointExtension/v1">
            <gpxtpx:hr>133</gpxtpx:hr>
          </gpxtpx:TrackPointExtension>
        </extensions>
      </trkpt>
      <trkpt lat="46.56611" lon="0.21092">
        <ele>113</ele>
        <time>2022-04-17T09:49:20Z</time>
        <extensions>
          <gpxtpx:TrackPointExtension xmlns:gpxtpx="http://www.garmin.com/xmlschemas/TrackPointExtension/v1">
            <gpxtpx:hr>133</gpxtpx:hr>
          </gpxtpx:TrackPointExtension>
        </extensions>
      </trkpt>
      <trkpt lat="46.56615" lon="0.21092">
        <ele>113</ele>
        <time>2022-04-17T09:49:21Z</time>
        <extensions>
          <gpxtpx:TrackPointExtension xmlns:gpxtpx="http://www.garmin.com/xmlschemas/TrackPointExtension/v1">
            <gpxtpx:hr>132</gpxtpx:hr>
          </gpxtpx:TrackPointExtension>
        </extensions>
      </trkpt>
      <trkpt lat="46.56617" lon="0.21092">
        <ele>113</ele>
        <time>2022-04-17T09:49:22Z</time>
        <extensions>
          <gpxtpx:TrackPointExtension xmlns:gpxtpx="http://www.garmin.com/xmlschemas/TrackPointExtension/v1">
            <gpxtpx:hr>132</gpxtpx:hr>
          </gpxtpx:TrackPointExtension>
        </extensions>
      </trkpt>
      <trkpt lat="46.56619" lon="0.21093">
        <ele>113</ele>
        <time>2022-04-17T09:49:23Z</time>
        <extensions>
          <gpxtpx:TrackPointExtension xmlns:gpxtpx="http://www.garmin.com/xmlschemas/TrackPointExtension/v1">
            <gpxtpx:hr>132</gpxtpx:hr>
          </gpxtpx:TrackPointExtension>
        </extensions>
      </trkpt>
      <trkpt lat="46.56621" lon="0.21092">
        <ele>112.80000305176</ele>
        <time>2022-04-17T09:49:24Z</time>
        <extensions>
          <gpxtpx:TrackPointExtension xmlns:gpxtpx="http://www.garmin.com/xmlschemas/TrackPointExtension/v1">
            <gpxtpx:hr>131</gpxtpx:hr>
          </gpxtpx:TrackPointExtension>
        </extensions>
      </trkpt>
      <trkpt lat="46.56623" lon="0.21091">
        <ele>112.59999847412</ele>
        <time>2022-04-17T09:49:25Z</time>
        <extensions>
          <gpxtpx:TrackPointExtension xmlns:gpxtpx="http://www.garmin.com/xmlschemas/TrackPointExtension/v1">
            <gpxtpx:hr>130</gpxtpx:hr>
          </gpxtpx:TrackPointExtension>
        </extensions>
      </trkpt>
      <trkpt lat="46.56625" lon="0.21089">
        <ele>112.59999847412</ele>
        <time>2022-04-17T09:49:26Z</time>
        <extensions>
          <gpxtpx:TrackPointExtension xmlns:gpxtpx="http://www.garmin.com/xmlschemas/TrackPointExtension/v1">
            <gpxtpx:hr>130</gpxtpx:hr>
          </gpxtpx:TrackPointExtension>
        </extensions>
      </trkpt>
      <trkpt lat="46.56627" lon="0.21087">
        <ele>112.40000152588</ele>
        <time>2022-04-17T09:49:27Z</time>
        <extensions>
          <gpxtpx:TrackPointExtension xmlns:gpxtpx="http://www.garmin.com/xmlschemas/TrackPointExtension/v1">
            <gpxtpx:hr>130</gpxtpx:hr>
          </gpxtpx:TrackPointExtension>
        </extensions>
      </trkpt>
      <trkpt lat="46.56629" lon="0.21085">
        <ele>112.40000152588</ele>
        <time>2022-04-17T09:49:28Z</time>
        <extensions>
          <gpxtpx:TrackPointExtension xmlns:gpxtpx="http://www.garmin.com/xmlschemas/TrackPointExtension/v1">
            <gpxtpx:hr>131</gpxtpx:hr>
          </gpxtpx:TrackPointExtension>
        </extensions>
      </trkpt>
      <trkpt lat="46.56631" lon="0.21082">
        <ele>112.19999694824</ele>
        <time>2022-04-17T09:49:29Z</time>
        <extensions>
          <gpxtpx:TrackPointExtension xmlns:gpxtpx="http://www.garmin.com/xmlschemas/TrackPointExtension/v1">
            <gpxtpx:hr>132</gpxtpx:hr>
          </gpxtpx:TrackPointExtension>
        </extensions>
      </trkpt>
      <trkpt lat="46.56634" lon="0.21078">
        <ele>112</ele>
        <time>2022-04-17T09:49:31Z</time>
        <extensions>
          <gpxtpx:TrackPointExtension xmlns:gpxtpx="http://www.garmin.com/xmlschemas/TrackPointExtension/v1">
            <gpxtpx:hr>131</gpxtpx:hr>
          </gpxtpx:TrackPointExtension>
        </extensions>
      </trkpt>
      <trkpt lat="46.56635" lon="0.21076">
        <ele>111.80000305176</ele>
        <time>2022-04-17T09:49:32Z</time>
        <extensions>
          <gpxtpx:TrackPointExtension xmlns:gpxtpx="http://www.garmin.com/xmlschemas/TrackPointExtension/v1">
            <gpxtpx:hr>131</gpxtpx:hr>
          </gpxtpx:TrackPointExtension>
        </extensions>
      </trkpt>
      <trkpt lat="46.56636" lon="0.21073">
        <ele>111.80000305176</ele>
        <time>2022-04-17T09:49:33Z</time>
        <extensions>
          <gpxtpx:TrackPointExtension xmlns:gpxtpx="http://www.garmin.com/xmlschemas/TrackPointExtension/v1">
            <gpxtpx:hr>132</gpxtpx:hr>
          </gpxtpx:TrackPointExtension>
        </extensions>
      </trkpt>
      <trkpt lat="46.56639" lon="0.21066">
        <ele>111.59999847412</ele>
        <time>2022-04-17T09:49:36Z</time>
        <extensions>
          <gpxtpx:TrackPointExtension xmlns:gpxtpx="http://www.garmin.com/xmlschemas/TrackPointExtension/v1">
            <gpxtpx:hr>131</gpxtpx:hr>
          </gpxtpx:TrackPointExtension>
        </extensions>
      </trkpt>
    </trkseg>
  </trk>
</gpx>